<?xml version="1.0" encoding="UTF-8" standalone="no" ?>
<gpx xmlns="http://www.topografix.com/GPX/1/1" xmlns:xsi="http://www.w3.org/2001/XMLSchema-instance" xsi:schemaLocation="http://www.topografix.com/GPX/1/1 http://www.topografix.com/GPX/1/1/gpx.xsd" version="1.1" creator="VisuGPX - https://www.visugpx.com">
  <metadata>
    <name>Circuit du Salm</name>
    <desc><![CDATA[Départ de la M.F. du Salm-direction Chateau du Salm - direction Chatte pendue- Tourbière de la Maxe - Etang du Coucou - et retour vers la M.F.]]></desc>
  </metadata>
  <trk>
    <name><![CDATA[Circuit du Salm_1]]></name>
    <trkseg>
      <trkpt lat="48.4556" lon="7.14852">
        <ele>634</ele>
        <time>2019-05-15T07:54:11.000Z</time>
      </trkpt>
      <trkpt lat="48.4556" lon="7.14852">
        <ele>637</ele>
        <time>2019-05-15T07:54:12.000Z</time>
      </trkpt>
      <trkpt lat="48.4556" lon="7.14852">
        <ele>636</ele>
        <time>2019-05-15T07:54:13.000Z</time>
      </trkpt>
      <trkpt lat="48.4556" lon="7.14852">
        <ele>636</ele>
        <time>2019-05-15T07:54:14.000Z</time>
      </trkpt>
      <trkpt lat="48.4556" lon="7.14852">
        <ele>637</ele>
        <time>2019-05-15T07:54:15.000Z</time>
      </trkpt>
      <trkpt lat="48.4556" lon="7.14851">
        <ele>636</ele>
        <time>2019-05-15T07:54:16.000Z</time>
      </trkpt>
      <trkpt lat="48.4556" lon="7.14851">
        <ele>636</ele>
        <time>2019-05-15T07:54:17.000Z</time>
      </trkpt>
      <trkpt lat="48.4556" lon="7.14851">
        <ele>637</ele>
        <time>2019-05-15T07:54:18.000Z</time>
      </trkpt>
      <trkpt lat="48.4556" lon="7.14852">
        <ele>637</ele>
        <time>2019-05-15T07:54:19.000Z</time>
      </trkpt>
      <trkpt lat="48.4556" lon="7.14852">
        <ele>637</ele>
        <time>2019-05-15T07:54:20.000Z</time>
      </trkpt>
      <trkpt lat="48.4556" lon="7.14852">
        <ele>637</ele>
        <time>2019-05-15T07:54:21.000Z</time>
      </trkpt>
      <trkpt lat="48.4556" lon="7.14852">
        <ele>637</ele>
        <time>2019-05-15T07:54:22.000Z</time>
      </trkpt>
      <trkpt lat="48.4556" lon="7.14853">
        <ele>638</ele>
        <time>2019-05-15T07:54:23.000Z</time>
      </trkpt>
      <trkpt lat="48.4556" lon="7.14853">
        <ele>637</ele>
        <time>2019-05-15T07:54:24.000Z</time>
      </trkpt>
      <trkpt lat="48.4556" lon="7.14853">
        <ele>638</ele>
        <time>2019-05-15T07:54:25.000Z</time>
      </trkpt>
      <trkpt lat="48.4556" lon="7.14853">
        <ele>638</ele>
        <time>2019-05-15T07:54:26.000Z</time>
      </trkpt>
      <trkpt lat="48.4556" lon="7.14852">
        <ele>637</ele>
        <time>2019-05-15T07:54:27.000Z</time>
      </trkpt>
      <trkpt lat="48.4556" lon="7.14852">
        <ele>638</ele>
        <time>2019-05-15T07:54:28.000Z</time>
      </trkpt>
      <trkpt lat="48.4556" lon="7.14852">
        <ele>637</ele>
        <time>2019-05-15T07:54:29.000Z</time>
      </trkpt>
      <trkpt lat="48.4556" lon="7.14852">
        <ele>637</ele>
        <time>2019-05-15T07:54:30.000Z</time>
      </trkpt>
      <trkpt lat="48.4556" lon="7.14852">
        <ele>637</ele>
        <time>2019-05-15T07:54:31.000Z</time>
      </trkpt>
      <trkpt lat="48.45561" lon="7.14852">
        <ele>636</ele>
        <time>2019-05-15T07:54:32.000Z</time>
      </trkpt>
      <trkpt lat="48.45561" lon="7.14852">
        <ele>636</ele>
        <time>2019-05-15T07:54:33.000Z</time>
      </trkpt>
      <trkpt lat="48.45561" lon="7.14852">
        <ele>637</ele>
        <time>2019-05-15T07:54:34.000Z</time>
      </trkpt>
      <trkpt lat="48.45561" lon="7.14852">
        <ele>637</ele>
        <time>2019-05-15T07:54:35.000Z</time>
      </trkpt>
      <trkpt lat="48.45561" lon="7.14852">
        <ele>637</ele>
        <time>2019-05-15T07:54:36.000Z</time>
      </trkpt>
      <trkpt lat="48.45561" lon="7.14852">
        <ele>637</ele>
        <time>2019-05-15T07:54:37.000Z</time>
      </trkpt>
      <trkpt lat="48.4556" lon="7.14852">
        <ele>637</ele>
        <time>2019-05-15T07:54:38.000Z</time>
      </trkpt>
      <trkpt lat="48.4556" lon="7.14852">
        <ele>637</ele>
        <time>2019-05-15T07:54:39.000Z</time>
      </trkpt>
      <trkpt lat="48.4556" lon="7.14852">
        <ele>636</ele>
        <time>2019-05-15T07:54:40.000Z</time>
      </trkpt>
      <trkpt lat="48.4556" lon="7.14852">
        <ele>636</ele>
        <time>2019-05-15T07:54:41.000Z</time>
      </trkpt>
      <trkpt lat="48.4556" lon="7.14853">
        <ele>636</ele>
        <time>2019-05-15T07:54:42.000Z</time>
      </trkpt>
      <trkpt lat="48.4556" lon="7.14853">
        <ele>636</ele>
        <time>2019-05-15T07:54:43.000Z</time>
      </trkpt>
      <trkpt lat="48.4556" lon="7.14853">
        <ele>636</ele>
        <time>2019-05-15T07:54:44.000Z</time>
      </trkpt>
      <trkpt lat="48.4556" lon="7.14853">
        <ele>635</ele>
        <time>2019-05-15T07:54:45.000Z</time>
      </trkpt>
      <trkpt lat="48.4556" lon="7.14853">
        <ele>636</ele>
        <time>2019-05-15T07:54:46.000Z</time>
      </trkpt>
      <trkpt lat="48.45559" lon="7.14853">
        <ele>636</ele>
        <time>2019-05-15T07:54:47.000Z</time>
      </trkpt>
      <trkpt lat="48.45559" lon="7.14853">
        <ele>636</ele>
        <time>2019-05-15T07:54:48.000Z</time>
      </trkpt>
      <trkpt lat="48.45559" lon="7.14853">
        <ele>637</ele>
        <time>2019-05-15T07:54:49.000Z</time>
      </trkpt>
      <trkpt lat="48.45559" lon="7.14853">
        <ele>637</ele>
        <time>2019-05-15T07:54:50.000Z</time>
      </trkpt>
      <trkpt lat="48.45559" lon="7.14853">
        <ele>637</ele>
        <time>2019-05-15T07:54:51.000Z</time>
      </trkpt>
      <trkpt lat="48.45559" lon="7.14853">
        <ele>637</ele>
        <time>2019-05-15T07:54:52.000Z</time>
      </trkpt>
      <trkpt lat="48.45559" lon="7.14853">
        <ele>637</ele>
        <time>2019-05-15T07:54:53.000Z</time>
      </trkpt>
      <trkpt lat="48.45559" lon="7.14853">
        <ele>637</ele>
        <time>2019-05-15T07:54:54.000Z</time>
      </trkpt>
      <trkpt lat="48.45559" lon="7.14853">
        <ele>637</ele>
        <time>2019-05-15T07:54:55.000Z</time>
      </trkpt>
      <trkpt lat="48.45559" lon="7.14853">
        <ele>637</ele>
        <time>2019-05-15T07:54:56.000Z</time>
      </trkpt>
      <trkpt lat="48.45559" lon="7.14853">
        <ele>637</ele>
        <time>2019-05-15T07:54:57.000Z</time>
      </trkpt>
      <trkpt lat="48.45559" lon="7.14853">
        <ele>637</ele>
        <time>2019-05-15T07:54:58.000Z</time>
      </trkpt>
      <trkpt lat="48.45559" lon="7.14853">
        <ele>637</ele>
        <time>2019-05-15T07:54:59.000Z</time>
      </trkpt>
      <trkpt lat="48.45559" lon="7.14853">
        <ele>638</ele>
        <time>2019-05-15T07:55:00.000Z</time>
      </trkpt>
      <trkpt lat="48.45559" lon="7.14853">
        <ele>638</ele>
        <time>2019-05-15T07:55:01.000Z</time>
      </trkpt>
      <trkpt lat="48.4556" lon="7.14853">
        <ele>638</ele>
        <time>2019-05-15T07:55:02.000Z</time>
      </trkpt>
      <trkpt lat="48.4556" lon="7.14853">
        <ele>638</ele>
        <time>2019-05-15T07:55:03.000Z</time>
      </trkpt>
      <trkpt lat="48.4556" lon="7.14853">
        <ele>638</ele>
        <time>2019-05-15T07:55:04.000Z</time>
      </trkpt>
      <trkpt lat="48.4556" lon="7.14853">
        <ele>638</ele>
        <time>2019-05-15T07:55:05.000Z</time>
      </trkpt>
      <trkpt lat="48.45559" lon="7.14853">
        <ele>638</ele>
        <time>2019-05-15T07:55:06.000Z</time>
      </trkpt>
      <trkpt lat="48.45559" lon="7.14853">
        <ele>639</ele>
        <time>2019-05-15T07:55:07.000Z</time>
      </trkpt>
      <trkpt lat="48.45559" lon="7.14853">
        <ele>639</ele>
        <time>2019-05-15T07:55:08.000Z</time>
      </trkpt>
      <trkpt lat="48.45559" lon="7.14853">
        <ele>639</ele>
        <time>2019-05-15T07:55:09.000Z</time>
      </trkpt>
      <trkpt lat="48.45559" lon="7.14853">
        <ele>639</ele>
        <time>2019-05-15T07:55:10.000Z</time>
      </trkpt>
      <trkpt lat="48.45559" lon="7.14853">
        <ele>639</ele>
        <time>2019-05-15T07:55:11.000Z</time>
      </trkpt>
      <trkpt lat="48.45559" lon="7.14853">
        <ele>638</ele>
        <time>2019-05-15T07:55:12.000Z</time>
      </trkpt>
      <trkpt lat="48.45559" lon="7.14853">
        <ele>638</ele>
        <time>2019-05-15T07:55:13.000Z</time>
      </trkpt>
      <trkpt lat="48.45559" lon="7.14853">
        <ele>638</ele>
        <time>2019-05-15T07:55:14.000Z</time>
      </trkpt>
      <trkpt lat="48.45559" lon="7.14853">
        <ele>638</ele>
        <time>2019-05-15T07:55:15.000Z</time>
      </trkpt>
      <trkpt lat="48.45559" lon="7.14853">
        <ele>638</ele>
        <time>2019-05-15T07:55:16.000Z</time>
      </trkpt>
      <trkpt lat="48.4556" lon="7.14853">
        <ele>638</ele>
        <time>2019-05-15T07:55:17.000Z</time>
      </trkpt>
      <trkpt lat="48.4556" lon="7.14853">
        <ele>638</ele>
        <time>2019-05-15T07:55:18.000Z</time>
      </trkpt>
      <trkpt lat="48.45559" lon="7.14853">
        <ele>637</ele>
        <time>2019-05-15T07:55:19.000Z</time>
      </trkpt>
      <trkpt lat="48.4556" lon="7.14853">
        <ele>637</ele>
        <time>2019-05-15T07:55:20.000Z</time>
      </trkpt>
      <trkpt lat="48.4556" lon="7.14853">
        <ele>637</ele>
        <time>2019-05-15T07:55:21.000Z</time>
      </trkpt>
      <trkpt lat="48.45559" lon="7.14853">
        <ele>637</ele>
        <time>2019-05-15T07:55:22.000Z</time>
      </trkpt>
      <trkpt lat="48.45559" lon="7.14853">
        <ele>637</ele>
        <time>2019-05-15T07:55:23.000Z</time>
      </trkpt>
      <trkpt lat="48.45559" lon="7.14853">
        <ele>637</ele>
        <time>2019-05-15T07:55:24.000Z</time>
      </trkpt>
      <trkpt lat="48.45559" lon="7.14852">
        <ele>637</ele>
        <time>2019-05-15T07:55:25.000Z</time>
      </trkpt>
      <trkpt lat="48.45559" lon="7.14852">
        <ele>637</ele>
        <time>2019-05-15T07:55:26.000Z</time>
      </trkpt>
      <trkpt lat="48.45558" lon="7.14852">
        <ele>638</ele>
        <time>2019-05-15T07:55:27.000Z</time>
      </trkpt>
      <trkpt lat="48.45558" lon="7.14852">
        <ele>638</ele>
        <time>2019-05-15T07:55:28.000Z</time>
      </trkpt>
      <trkpt lat="48.45558" lon="7.14852">
        <ele>638</ele>
        <time>2019-05-15T07:55:29.000Z</time>
      </trkpt>
      <trkpt lat="48.45558" lon="7.14852">
        <ele>639</ele>
        <time>2019-05-15T07:55:30.000Z</time>
      </trkpt>
      <trkpt lat="48.45557" lon="7.14852">
        <ele>639</ele>
        <time>2019-05-15T07:55:31.000Z</time>
      </trkpt>
      <trkpt lat="48.45557" lon="7.14851">
        <ele>640</ele>
        <time>2019-05-15T07:55:32.000Z</time>
      </trkpt>
      <trkpt lat="48.45557" lon="7.14851">
        <ele>640</ele>
        <time>2019-05-15T07:55:33.000Z</time>
      </trkpt>
      <trkpt lat="48.45556" lon="7.14851">
        <ele>640</ele>
        <time>2019-05-15T07:55:34.000Z</time>
      </trkpt>
      <trkpt lat="48.45556" lon="7.1485">
        <ele>641</ele>
        <time>2019-05-15T07:55:35.000Z</time>
      </trkpt>
      <trkpt lat="48.45556" lon="7.1485">
        <ele>641</ele>
        <time>2019-05-15T07:55:36.000Z</time>
      </trkpt>
      <trkpt lat="48.45556" lon="7.1485">
        <ele>641</ele>
        <time>2019-05-15T07:55:37.000Z</time>
      </trkpt>
      <trkpt lat="48.45556" lon="7.1485">
        <ele>641</ele>
        <time>2019-05-15T07:55:38.000Z</time>
      </trkpt>
      <trkpt lat="48.45556" lon="7.14851">
        <ele>640</ele>
        <time>2019-05-15T07:55:39.000Z</time>
      </trkpt>
      <trkpt lat="48.45556" lon="7.14851">
        <ele>640</ele>
        <time>2019-05-15T07:55:40.000Z</time>
      </trkpt>
      <trkpt lat="48.45556" lon="7.14852">
        <ele>639</ele>
        <time>2019-05-15T07:55:41.000Z</time>
      </trkpt>
      <trkpt lat="48.45556" lon="7.14853">
        <ele>639</ele>
        <time>2019-05-15T07:55:42.000Z</time>
      </trkpt>
      <trkpt lat="48.45556" lon="7.14853">
        <ele>638</ele>
        <time>2019-05-15T07:55:43.000Z</time>
      </trkpt>
      <trkpt lat="48.45556" lon="7.14853">
        <ele>637</ele>
        <time>2019-05-15T07:55:44.000Z</time>
      </trkpt>
      <trkpt lat="48.45557" lon="7.14853">
        <ele>637</ele>
        <time>2019-05-15T07:55:45.000Z</time>
      </trkpt>
      <trkpt lat="48.45557" lon="7.14852">
        <ele>637</ele>
        <time>2019-05-15T07:55:46.000Z</time>
      </trkpt>
      <trkpt lat="48.45557" lon="7.14852">
        <ele>637</ele>
        <time>2019-05-15T07:55:47.000Z</time>
      </trkpt>
      <trkpt lat="48.45557" lon="7.14852">
        <ele>636</ele>
        <time>2019-05-15T07:55:48.000Z</time>
      </trkpt>
      <trkpt lat="48.45557" lon="7.14852">
        <ele>636</ele>
        <time>2019-05-15T07:55:49.000Z</time>
      </trkpt>
      <trkpt lat="48.45557" lon="7.14852">
        <ele>636</ele>
        <time>2019-05-15T07:55:50.000Z</time>
      </trkpt>
      <trkpt lat="48.45557" lon="7.14852">
        <ele>636</ele>
        <time>2019-05-15T07:55:51.000Z</time>
      </trkpt>
      <trkpt lat="48.45557" lon="7.14852">
        <ele>636</ele>
        <time>2019-05-15T07:55:52.000Z</time>
      </trkpt>
      <trkpt lat="48.45557" lon="7.14852">
        <ele>636</ele>
        <time>2019-05-15T07:55:53.000Z</time>
      </trkpt>
      <trkpt lat="48.45557" lon="7.14853">
        <ele>635</ele>
        <time>2019-05-15T07:55:54.000Z</time>
      </trkpt>
      <trkpt lat="48.45557" lon="7.14853">
        <ele>635</ele>
        <time>2019-05-15T07:55:55.000Z</time>
      </trkpt>
      <trkpt lat="48.45557" lon="7.14853">
        <ele>635</ele>
        <time>2019-05-15T07:55:56.000Z</time>
      </trkpt>
      <trkpt lat="48.45557" lon="7.14853">
        <ele>635</ele>
        <time>2019-05-15T07:55:57.000Z</time>
      </trkpt>
      <trkpt lat="48.45557" lon="7.14853">
        <ele>635</ele>
        <time>2019-05-15T07:55:58.000Z</time>
      </trkpt>
      <trkpt lat="48.45557" lon="7.14853">
        <ele>634</ele>
        <time>2019-05-15T07:55:59.000Z</time>
      </trkpt>
      <trkpt lat="48.45557" lon="7.14853">
        <ele>634</ele>
        <time>2019-05-15T07:56:00.000Z</time>
      </trkpt>
      <trkpt lat="48.45557" lon="7.14853">
        <ele>634</ele>
        <time>2019-05-15T07:56:01.000Z</time>
      </trkpt>
      <trkpt lat="48.45557" lon="7.14853">
        <ele>634</ele>
        <time>2019-05-15T07:56:02.000Z</time>
      </trkpt>
      <trkpt lat="48.45557" lon="7.14854">
        <ele>634</ele>
        <time>2019-05-15T07:56:03.000Z</time>
      </trkpt>
      <trkpt lat="48.45557" lon="7.14854">
        <ele>635</ele>
        <time>2019-05-15T07:56:04.000Z</time>
      </trkpt>
      <trkpt lat="48.45557" lon="7.14854">
        <ele>635</ele>
        <time>2019-05-15T07:56:05.000Z</time>
      </trkpt>
      <trkpt lat="48.45557" lon="7.14854">
        <ele>636</ele>
        <time>2019-05-15T07:56:06.000Z</time>
      </trkpt>
      <trkpt lat="48.45557" lon="7.14854">
        <ele>635</ele>
        <time>2019-05-15T07:56:07.000Z</time>
      </trkpt>
      <trkpt lat="48.45557" lon="7.14854">
        <ele>635</ele>
        <time>2019-05-15T07:56:08.000Z</time>
      </trkpt>
      <trkpt lat="48.45557" lon="7.14854">
        <ele>634</ele>
        <time>2019-05-15T07:56:09.000Z</time>
      </trkpt>
      <trkpt lat="48.45557" lon="7.14853">
        <ele>633</ele>
        <time>2019-05-15T07:56:10.000Z</time>
      </trkpt>
      <trkpt lat="48.45557" lon="7.14853">
        <ele>633</ele>
        <time>2019-05-15T07:56:11.000Z</time>
      </trkpt>
      <trkpt lat="48.45557" lon="7.14853">
        <ele>633</ele>
        <time>2019-05-15T07:56:12.000Z</time>
      </trkpt>
      <trkpt lat="48.45557" lon="7.14853">
        <ele>633</ele>
        <time>2019-05-15T07:56:13.000Z</time>
      </trkpt>
      <trkpt lat="48.45557" lon="7.14853">
        <ele>633</ele>
        <time>2019-05-15T07:56:14.000Z</time>
      </trkpt>
      <trkpt lat="48.45557" lon="7.14852">
        <ele>633</ele>
        <time>2019-05-15T07:56:15.000Z</time>
      </trkpt>
      <trkpt lat="48.45557" lon="7.14852">
        <ele>633</ele>
        <time>2019-05-15T07:56:16.000Z</time>
      </trkpt>
      <trkpt lat="48.45557" lon="7.14852">
        <ele>633</ele>
        <time>2019-05-15T07:56:17.000Z</time>
      </trkpt>
      <trkpt lat="48.45557" lon="7.14852">
        <ele>634</ele>
        <time>2019-05-15T07:56:18.000Z</time>
      </trkpt>
      <trkpt lat="48.45557" lon="7.14852">
        <ele>634</ele>
        <time>2019-05-15T07:56:19.000Z</time>
      </trkpt>
      <trkpt lat="48.45557" lon="7.14852">
        <ele>634</ele>
        <time>2019-05-15T07:56:20.000Z</time>
      </trkpt>
      <trkpt lat="48.45557" lon="7.14852">
        <ele>634</ele>
        <time>2019-05-15T07:56:21.000Z</time>
      </trkpt>
      <trkpt lat="48.45557" lon="7.14852">
        <ele>635</ele>
        <time>2019-05-15T07:56:22.000Z</time>
      </trkpt>
      <trkpt lat="48.45557" lon="7.14852">
        <ele>636</ele>
        <time>2019-05-15T07:56:23.000Z</time>
      </trkpt>
      <trkpt lat="48.45557" lon="7.14852">
        <ele>636</ele>
        <time>2019-05-15T07:56:24.000Z</time>
      </trkpt>
      <trkpt lat="48.45557" lon="7.14852">
        <ele>636</ele>
        <time>2019-05-15T07:56:25.000Z</time>
      </trkpt>
      <trkpt lat="48.45557" lon="7.14852">
        <ele>636</ele>
        <time>2019-05-15T07:56:26.000Z</time>
      </trkpt>
      <trkpt lat="48.45557" lon="7.14852">
        <ele>636</ele>
        <time>2019-05-15T07:56:27.000Z</time>
      </trkpt>
      <trkpt lat="48.45557" lon="7.14852">
        <ele>637</ele>
        <time>2019-05-15T07:56:28.000Z</time>
      </trkpt>
      <trkpt lat="48.45557" lon="7.14851">
        <ele>637</ele>
        <time>2019-05-15T07:56:29.000Z</time>
      </trkpt>
      <trkpt lat="48.45558" lon="7.14851">
        <ele>637</ele>
        <time>2019-05-15T07:56:30.000Z</time>
      </trkpt>
      <trkpt lat="48.45559" lon="7.1485">
        <ele>637</ele>
        <time>2019-05-15T07:56:31.000Z</time>
      </trkpt>
      <trkpt lat="48.45559" lon="7.14849">
        <ele>637</ele>
        <time>2019-05-15T07:56:32.000Z</time>
      </trkpt>
      <trkpt lat="48.4556" lon="7.14848">
        <ele>636</ele>
        <time>2019-05-15T07:56:33.000Z</time>
      </trkpt>
      <trkpt lat="48.4556" lon="7.14848">
        <ele>636</ele>
        <time>2019-05-15T07:56:34.000Z</time>
      </trkpt>
      <trkpt lat="48.4556" lon="7.14847">
        <ele>635</ele>
        <time>2019-05-15T07:56:35.000Z</time>
      </trkpt>
      <trkpt lat="48.4556" lon="7.14848">
        <ele>635</ele>
        <time>2019-05-15T07:56:36.000Z</time>
      </trkpt>
      <trkpt lat="48.4556" lon="7.14849">
        <ele>635</ele>
        <time>2019-05-15T07:56:37.000Z</time>
      </trkpt>
      <trkpt lat="48.45559" lon="7.1485">
        <ele>635</ele>
        <time>2019-05-15T07:56:38.000Z</time>
      </trkpt>
      <trkpt lat="48.45559" lon="7.14851">
        <ele>635</ele>
        <time>2019-05-15T07:56:39.000Z</time>
      </trkpt>
      <trkpt lat="48.45559" lon="7.14852">
        <ele>634</ele>
        <time>2019-05-15T07:56:40.000Z</time>
      </trkpt>
      <trkpt lat="48.45558" lon="7.14852">
        <ele>634</ele>
        <time>2019-05-15T07:56:41.000Z</time>
      </trkpt>
      <trkpt lat="48.45558" lon="7.14853">
        <ele>635</ele>
        <time>2019-05-15T07:56:42.000Z</time>
      </trkpt>
      <trkpt lat="48.45557" lon="7.14853">
        <ele>635</ele>
        <time>2019-05-15T07:56:43.000Z</time>
      </trkpt>
      <trkpt lat="48.45557" lon="7.14853">
        <ele>635</ele>
        <time>2019-05-15T07:56:44.000Z</time>
      </trkpt>
      <trkpt lat="48.45556" lon="7.14853">
        <ele>635</ele>
        <time>2019-05-15T07:56:45.000Z</time>
      </trkpt>
      <trkpt lat="48.45556" lon="7.14852">
        <ele>635</ele>
        <time>2019-05-15T07:56:46.000Z</time>
      </trkpt>
      <trkpt lat="48.45555" lon="7.14852">
        <ele>635</ele>
        <time>2019-05-15T07:56:47.000Z</time>
      </trkpt>
      <trkpt lat="48.45555" lon="7.14852">
        <ele>634</ele>
        <time>2019-05-15T07:56:48.000Z</time>
      </trkpt>
      <trkpt lat="48.45555" lon="7.14852">
        <ele>634</ele>
        <time>2019-05-15T07:56:49.000Z</time>
      </trkpt>
      <trkpt lat="48.45554" lon="7.14852">
        <ele>634</ele>
        <time>2019-05-15T07:56:50.000Z</time>
      </trkpt>
      <trkpt lat="48.45554" lon="7.14853">
        <ele>634</ele>
        <time>2019-05-15T07:56:51.000Z</time>
      </trkpt>
      <trkpt lat="48.45554" lon="7.14853">
        <ele>635</ele>
        <time>2019-05-15T07:56:52.000Z</time>
      </trkpt>
      <trkpt lat="48.45553" lon="7.14853">
        <ele>635</ele>
        <time>2019-05-15T07:56:53.000Z</time>
      </trkpt>
      <trkpt lat="48.45553" lon="7.14853">
        <ele>635</ele>
        <time>2019-05-15T07:56:54.000Z</time>
      </trkpt>
      <trkpt lat="48.45553" lon="7.14854">
        <ele>636</ele>
        <time>2019-05-15T07:56:55.000Z</time>
      </trkpt>
      <trkpt lat="48.45553" lon="7.14854">
        <ele>636</ele>
        <time>2019-05-15T07:56:56.000Z</time>
      </trkpt>
      <trkpt lat="48.45553" lon="7.14854">
        <ele>637</ele>
        <time>2019-05-15T07:56:57.000Z</time>
      </trkpt>
      <trkpt lat="48.45553" lon="7.14854">
        <ele>637</ele>
        <time>2019-05-15T07:56:58.000Z</time>
      </trkpt>
      <trkpt lat="48.45553" lon="7.14854">
        <ele>638</ele>
        <time>2019-05-15T07:56:59.000Z</time>
      </trkpt>
      <trkpt lat="48.45553" lon="7.14854">
        <ele>637</ele>
        <time>2019-05-15T07:57:00.000Z</time>
      </trkpt>
      <trkpt lat="48.45553" lon="7.14854">
        <ele>637</ele>
        <time>2019-05-15T07:57:01.000Z</time>
      </trkpt>
      <trkpt lat="48.45553" lon="7.14854">
        <ele>637</ele>
        <time>2019-05-15T07:57:02.000Z</time>
      </trkpt>
      <trkpt lat="48.45553" lon="7.14854">
        <ele>637</ele>
        <time>2019-05-15T07:57:03.000Z</time>
      </trkpt>
      <trkpt lat="48.45553" lon="7.14854">
        <ele>636</ele>
        <time>2019-05-15T07:57:04.000Z</time>
      </trkpt>
      <trkpt lat="48.45553" lon="7.14854">
        <ele>636</ele>
        <time>2019-05-15T07:57:05.000Z</time>
      </trkpt>
      <trkpt lat="48.45552" lon="7.14853">
        <ele>635</ele>
        <time>2019-05-15T07:57:06.000Z</time>
      </trkpt>
      <trkpt lat="48.45553" lon="7.14853">
        <ele>635</ele>
        <time>2019-05-15T07:57:07.000Z</time>
      </trkpt>
      <trkpt lat="48.45553" lon="7.14853">
        <ele>635</ele>
        <time>2019-05-15T07:57:08.000Z</time>
      </trkpt>
      <trkpt lat="48.45553" lon="7.14853">
        <ele>635</ele>
        <time>2019-05-15T07:57:09.000Z</time>
      </trkpt>
      <trkpt lat="48.45553" lon="7.14853">
        <ele>635</ele>
        <time>2019-05-15T07:57:10.000Z</time>
      </trkpt>
      <trkpt lat="48.45552" lon="7.14853">
        <ele>635</ele>
        <time>2019-05-15T07:57:11.000Z</time>
      </trkpt>
      <trkpt lat="48.45552" lon="7.14853">
        <ele>635</ele>
        <time>2019-05-15T07:57:12.000Z</time>
      </trkpt>
      <trkpt lat="48.45552" lon="7.14853">
        <ele>635</ele>
        <time>2019-05-15T07:57:13.000Z</time>
      </trkpt>
      <trkpt lat="48.45552" lon="7.14852">
        <ele>634</ele>
        <time>2019-05-15T07:57:14.000Z</time>
      </trkpt>
      <trkpt lat="48.45552" lon="7.14852">
        <ele>634</ele>
        <time>2019-05-15T07:57:15.000Z</time>
      </trkpt>
      <trkpt lat="48.45552" lon="7.14852">
        <ele>634</ele>
        <time>2019-05-15T07:57:16.000Z</time>
      </trkpt>
      <trkpt lat="48.45552" lon="7.14852">
        <ele>635</ele>
        <time>2019-05-15T07:57:17.000Z</time>
      </trkpt>
      <trkpt lat="48.45552" lon="7.14853">
        <ele>635</ele>
        <time>2019-05-15T07:57:18.000Z</time>
      </trkpt>
      <trkpt lat="48.45552" lon="7.14853">
        <ele>635</ele>
        <time>2019-05-15T07:57:19.000Z</time>
      </trkpt>
      <trkpt lat="48.45552" lon="7.14852">
        <ele>636</ele>
        <time>2019-05-15T07:57:20.000Z</time>
      </trkpt>
      <trkpt lat="48.45553" lon="7.14852">
        <ele>636</ele>
        <time>2019-05-15T07:57:21.000Z</time>
      </trkpt>
      <trkpt lat="48.45553" lon="7.14852">
        <ele>635</ele>
        <time>2019-05-15T07:57:22.000Z</time>
      </trkpt>
      <trkpt lat="48.45553" lon="7.14852">
        <ele>635</ele>
        <time>2019-05-15T07:57:23.000Z</time>
      </trkpt>
      <trkpt lat="48.45553" lon="7.14852">
        <ele>635</ele>
        <time>2019-05-15T07:57:24.000Z</time>
      </trkpt>
      <trkpt lat="48.45553" lon="7.14852">
        <ele>635</ele>
        <time>2019-05-15T07:57:25.000Z</time>
      </trkpt>
      <trkpt lat="48.45553" lon="7.14852">
        <ele>635</ele>
        <time>2019-05-15T07:57:26.000Z</time>
      </trkpt>
      <trkpt lat="48.45553" lon="7.14852">
        <ele>635</ele>
        <time>2019-05-15T07:57:27.000Z</time>
      </trkpt>
      <trkpt lat="48.45553" lon="7.14852">
        <ele>636</ele>
        <time>2019-05-15T07:57:28.000Z</time>
      </trkpt>
      <trkpt lat="48.45553" lon="7.14852">
        <ele>635</ele>
        <time>2019-05-15T07:57:29.000Z</time>
      </trkpt>
      <trkpt lat="48.45553" lon="7.14853">
        <ele>635</ele>
        <time>2019-05-15T07:57:30.000Z</time>
      </trkpt>
      <trkpt lat="48.45553" lon="7.14853">
        <ele>635</ele>
        <time>2019-05-15T07:57:31.000Z</time>
      </trkpt>
      <trkpt lat="48.45553" lon="7.14853">
        <ele>636</ele>
        <time>2019-05-15T07:57:32.000Z</time>
      </trkpt>
      <trkpt lat="48.45553" lon="7.14853">
        <ele>636</ele>
        <time>2019-05-15T07:57:33.000Z</time>
      </trkpt>
      <trkpt lat="48.45553" lon="7.14853">
        <ele>636</ele>
        <time>2019-05-15T07:57:34.000Z</time>
      </trkpt>
      <trkpt lat="48.45553" lon="7.14853">
        <ele>636</ele>
        <time>2019-05-15T07:57:35.000Z</time>
      </trkpt>
      <trkpt lat="48.45553" lon="7.14853">
        <ele>636</ele>
        <time>2019-05-15T07:57:36.000Z</time>
      </trkpt>
      <trkpt lat="48.45553" lon="7.14853">
        <ele>636</ele>
        <time>2019-05-15T07:57:37.000Z</time>
      </trkpt>
      <trkpt lat="48.45553" lon="7.14853">
        <ele>637</ele>
        <time>2019-05-15T07:57:38.000Z</time>
      </trkpt>
      <trkpt lat="48.45553" lon="7.14854">
        <ele>637</ele>
        <time>2019-05-15T07:57:39.000Z</time>
      </trkpt>
      <trkpt lat="48.45553" lon="7.14854">
        <ele>636</ele>
        <time>2019-05-15T07:57:40.000Z</time>
      </trkpt>
      <trkpt lat="48.45553" lon="7.14854">
        <ele>636</ele>
        <time>2019-05-15T07:57:41.000Z</time>
      </trkpt>
      <trkpt lat="48.45553" lon="7.14853">
        <ele>636</ele>
        <time>2019-05-15T07:57:42.000Z</time>
      </trkpt>
      <trkpt lat="48.45553" lon="7.14853">
        <ele>637</ele>
        <time>2019-05-15T07:57:43.000Z</time>
      </trkpt>
      <trkpt lat="48.45553" lon="7.14853">
        <ele>637</ele>
        <time>2019-05-15T07:57:44.000Z</time>
      </trkpt>
      <trkpt lat="48.45553" lon="7.14853">
        <ele>637</ele>
        <time>2019-05-15T07:57:45.000Z</time>
      </trkpt>
      <trkpt lat="48.45553" lon="7.14853">
        <ele>636</ele>
        <time>2019-05-15T07:57:46.000Z</time>
      </trkpt>
      <trkpt lat="48.45553" lon="7.14853">
        <ele>636</ele>
        <time>2019-05-15T07:57:47.000Z</time>
      </trkpt>
      <trkpt lat="48.45553" lon="7.14853">
        <ele>636</ele>
        <time>2019-05-15T07:57:48.000Z</time>
      </trkpt>
      <trkpt lat="48.45553" lon="7.14853">
        <ele>636</ele>
        <time>2019-05-15T07:57:49.000Z</time>
      </trkpt>
      <trkpt lat="48.45553" lon="7.14853">
        <ele>635</ele>
        <time>2019-05-15T07:57:50.000Z</time>
      </trkpt>
      <trkpt lat="48.45553" lon="7.14853">
        <ele>635</ele>
        <time>2019-05-15T07:57:51.000Z</time>
      </trkpt>
      <trkpt lat="48.45552" lon="7.14854">
        <ele>635</ele>
        <time>2019-05-15T07:57:52.000Z</time>
      </trkpt>
      <trkpt lat="48.45552" lon="7.14854">
        <ele>634</ele>
        <time>2019-05-15T07:57:53.000Z</time>
      </trkpt>
      <trkpt lat="48.45552" lon="7.14854">
        <ele>634</ele>
        <time>2019-05-15T07:57:54.000Z</time>
      </trkpt>
      <trkpt lat="48.45552" lon="7.14854">
        <ele>634</ele>
        <time>2019-05-15T07:57:55.000Z</time>
      </trkpt>
      <trkpt lat="48.45552" lon="7.14854">
        <ele>634</ele>
        <time>2019-05-15T07:57:56.000Z</time>
      </trkpt>
      <trkpt lat="48.45552" lon="7.14854">
        <ele>634</ele>
        <time>2019-05-15T07:57:57.000Z</time>
      </trkpt>
      <trkpt lat="48.45553" lon="7.14854">
        <ele>634</ele>
        <time>2019-05-15T07:57:58.000Z</time>
      </trkpt>
      <trkpt lat="48.45553" lon="7.14854">
        <ele>634</ele>
        <time>2019-05-15T07:57:59.000Z</time>
      </trkpt>
      <trkpt lat="48.45553" lon="7.14854">
        <ele>634</ele>
        <time>2019-05-15T07:58:00.000Z</time>
      </trkpt>
      <trkpt lat="48.45553" lon="7.14854">
        <ele>635</ele>
        <time>2019-05-15T07:58:01.000Z</time>
      </trkpt>
      <trkpt lat="48.45553" lon="7.14854">
        <ele>635</ele>
        <time>2019-05-15T07:58:02.000Z</time>
      </trkpt>
      <trkpt lat="48.45553" lon="7.14854">
        <ele>635</ele>
        <time>2019-05-15T07:58:03.000Z</time>
      </trkpt>
      <trkpt lat="48.45553" lon="7.14854">
        <ele>635</ele>
        <time>2019-05-15T07:58:04.000Z</time>
      </trkpt>
      <trkpt lat="48.45553" lon="7.14853">
        <ele>634</ele>
        <time>2019-05-15T07:58:05.000Z</time>
      </trkpt>
      <trkpt lat="48.45553" lon="7.14853">
        <ele>634</ele>
        <time>2019-05-15T07:58:06.000Z</time>
      </trkpt>
      <trkpt lat="48.45553" lon="7.14853">
        <ele>634</ele>
        <time>2019-05-15T07:58:07.000Z</time>
      </trkpt>
      <trkpt lat="48.45553" lon="7.14853">
        <ele>634</ele>
        <time>2019-05-15T07:58:08.000Z</time>
      </trkpt>
      <trkpt lat="48.45553" lon="7.14853">
        <ele>633</ele>
        <time>2019-05-15T07:58:09.000Z</time>
      </trkpt>
      <trkpt lat="48.45553" lon="7.14853">
        <ele>633</ele>
        <time>2019-05-15T07:58:10.000Z</time>
      </trkpt>
      <trkpt lat="48.45553" lon="7.14853">
        <ele>633</ele>
        <time>2019-05-15T07:58:11.000Z</time>
      </trkpt>
      <trkpt lat="48.45553" lon="7.14853">
        <ele>633</ele>
        <time>2019-05-15T07:58:12.000Z</time>
      </trkpt>
      <trkpt lat="48.45552" lon="7.14853">
        <ele>633</ele>
        <time>2019-05-15T07:58:13.000Z</time>
      </trkpt>
      <trkpt lat="48.45552" lon="7.14854">
        <ele>633</ele>
        <time>2019-05-15T07:58:14.000Z</time>
      </trkpt>
      <trkpt lat="48.45552" lon="7.14854">
        <ele>633</ele>
        <time>2019-05-15T07:58:15.000Z</time>
      </trkpt>
      <trkpt lat="48.45552" lon="7.14854">
        <ele>633</ele>
        <time>2019-05-15T07:58:16.000Z</time>
      </trkpt>
      <trkpt lat="48.45552" lon="7.14853">
        <ele>633</ele>
        <time>2019-05-15T07:58:17.000Z</time>
      </trkpt>
      <trkpt lat="48.45552" lon="7.14853">
        <ele>633</ele>
        <time>2019-05-15T07:58:18.000Z</time>
      </trkpt>
      <trkpt lat="48.45552" lon="7.14854">
        <ele>633</ele>
        <time>2019-05-15T07:58:19.000Z</time>
      </trkpt>
      <trkpt lat="48.45552" lon="7.14854">
        <ele>633</ele>
        <time>2019-05-15T07:58:20.000Z</time>
      </trkpt>
      <trkpt lat="48.45552" lon="7.14854">
        <ele>632</ele>
        <time>2019-05-15T07:58:21.000Z</time>
      </trkpt>
      <trkpt lat="48.45552" lon="7.14854">
        <ele>632</ele>
        <time>2019-05-15T07:58:22.000Z</time>
      </trkpt>
      <trkpt lat="48.45553" lon="7.14854">
        <ele>632</ele>
        <time>2019-05-15T07:58:23.000Z</time>
      </trkpt>
      <trkpt lat="48.45553" lon="7.14854">
        <ele>632</ele>
        <time>2019-05-15T07:58:24.000Z</time>
      </trkpt>
      <trkpt lat="48.45553" lon="7.14854">
        <ele>632</ele>
        <time>2019-05-15T07:58:25.000Z</time>
      </trkpt>
      <trkpt lat="48.45553" lon="7.14854">
        <ele>632</ele>
        <time>2019-05-15T07:58:26.000Z</time>
      </trkpt>
      <trkpt lat="48.45553" lon="7.14854">
        <ele>632</ele>
        <time>2019-05-15T07:58:27.000Z</time>
      </trkpt>
      <trkpt lat="48.45553" lon="7.14853">
        <ele>632</ele>
        <time>2019-05-15T07:58:28.000Z</time>
      </trkpt>
      <trkpt lat="48.45552" lon="7.14853">
        <ele>632</ele>
        <time>2019-05-15T07:58:29.000Z</time>
      </trkpt>
      <trkpt lat="48.45553" lon="7.14852">
        <ele>632</ele>
        <time>2019-05-15T07:58:30.000Z</time>
      </trkpt>
      <trkpt lat="48.45553" lon="7.14852">
        <ele>631</ele>
        <time>2019-05-15T07:58:31.000Z</time>
      </trkpt>
      <trkpt lat="48.45553" lon="7.14852">
        <ele>631</ele>
        <time>2019-05-15T07:58:32.000Z</time>
      </trkpt>
      <trkpt lat="48.45553" lon="7.14852">
        <ele>631</ele>
        <time>2019-05-15T07:58:33.000Z</time>
      </trkpt>
      <trkpt lat="48.45553" lon="7.14853">
        <ele>631</ele>
        <time>2019-05-15T07:58:34.000Z</time>
      </trkpt>
      <trkpt lat="48.45553" lon="7.14853">
        <ele>631</ele>
        <time>2019-05-15T07:58:35.000Z</time>
      </trkpt>
      <trkpt lat="48.45553" lon="7.14853">
        <ele>632</ele>
        <time>2019-05-15T07:58:36.000Z</time>
      </trkpt>
      <trkpt lat="48.45553" lon="7.14853">
        <ele>633</ele>
        <time>2019-05-15T07:58:37.000Z</time>
      </trkpt>
      <trkpt lat="48.45553" lon="7.14852">
        <ele>633</ele>
        <time>2019-05-15T07:58:38.000Z</time>
      </trkpt>
      <trkpt lat="48.45553" lon="7.14852">
        <ele>633</ele>
        <time>2019-05-15T07:58:39.000Z</time>
      </trkpt>
      <trkpt lat="48.45553" lon="7.14852">
        <ele>632</ele>
        <time>2019-05-15T07:58:40.000Z</time>
      </trkpt>
      <trkpt lat="48.45553" lon="7.14852">
        <ele>632</ele>
        <time>2019-05-15T07:58:41.000Z</time>
      </trkpt>
      <trkpt lat="48.45553" lon="7.14852">
        <ele>633</ele>
        <time>2019-05-15T07:58:42.000Z</time>
      </trkpt>
      <trkpt lat="48.45553" lon="7.14852">
        <ele>633</ele>
        <time>2019-05-15T07:58:43.000Z</time>
      </trkpt>
      <trkpt lat="48.45553" lon="7.14852">
        <ele>633</ele>
        <time>2019-05-15T07:58:44.000Z</time>
      </trkpt>
      <trkpt lat="48.45553" lon="7.14852">
        <ele>633</ele>
        <time>2019-05-15T07:58:45.000Z</time>
      </trkpt>
      <trkpt lat="48.45553" lon="7.14852">
        <ele>633</ele>
        <time>2019-05-15T07:58:46.000Z</time>
      </trkpt>
      <trkpt lat="48.45553" lon="7.14852">
        <ele>633</ele>
        <time>2019-05-15T07:58:47.000Z</time>
      </trkpt>
      <trkpt lat="48.45553" lon="7.14852">
        <ele>633</ele>
        <time>2019-05-15T07:58:48.000Z</time>
      </trkpt>
      <trkpt lat="48.45553" lon="7.14852">
        <ele>633</ele>
        <time>2019-05-15T07:58:49.000Z</time>
      </trkpt>
      <trkpt lat="48.45554" lon="7.14852">
        <ele>633</ele>
        <time>2019-05-15T07:58:50.000Z</time>
      </trkpt>
      <trkpt lat="48.45554" lon="7.14852">
        <ele>633</ele>
        <time>2019-05-15T07:58:51.000Z</time>
      </trkpt>
      <trkpt lat="48.45554" lon="7.14852">
        <ele>633</ele>
        <time>2019-05-15T07:58:52.000Z</time>
      </trkpt>
      <trkpt lat="48.45554" lon="7.14852">
        <ele>633</ele>
        <time>2019-05-15T07:58:53.000Z</time>
      </trkpt>
      <trkpt lat="48.45554" lon="7.14852">
        <ele>634</ele>
        <time>2019-05-15T07:58:54.000Z</time>
      </trkpt>
      <trkpt lat="48.45554" lon="7.14852">
        <ele>634</ele>
        <time>2019-05-15T07:58:55.000Z</time>
      </trkpt>
      <trkpt lat="48.45554" lon="7.14852">
        <ele>634</ele>
        <time>2019-05-15T07:58:56.000Z</time>
      </trkpt>
      <trkpt lat="48.45554" lon="7.14852">
        <ele>634</ele>
        <time>2019-05-15T07:58:57.000Z</time>
      </trkpt>
      <trkpt lat="48.45554" lon="7.14852">
        <ele>634</ele>
        <time>2019-05-15T07:58:58.000Z</time>
      </trkpt>
      <trkpt lat="48.45554" lon="7.14852">
        <ele>634</ele>
        <time>2019-05-15T07:58:59.000Z</time>
      </trkpt>
      <trkpt lat="48.45554" lon="7.14852">
        <ele>634</ele>
        <time>2019-05-15T07:59:00.000Z</time>
      </trkpt>
      <trkpt lat="48.45554" lon="7.14852">
        <ele>634</ele>
        <time>2019-05-15T07:59:01.000Z</time>
      </trkpt>
      <trkpt lat="48.45554" lon="7.14852">
        <ele>634</ele>
        <time>2019-05-15T07:59:02.000Z</time>
      </trkpt>
      <trkpt lat="48.45554" lon="7.14852">
        <ele>634</ele>
        <time>2019-05-15T07:59:03.000Z</time>
      </trkpt>
      <trkpt lat="48.45554" lon="7.14853">
        <ele>634</ele>
        <time>2019-05-15T07:59:04.000Z</time>
      </trkpt>
      <trkpt lat="48.45554" lon="7.14853">
        <ele>634</ele>
        <time>2019-05-15T07:59:05.000Z</time>
      </trkpt>
      <trkpt lat="48.45554" lon="7.14853">
        <ele>634</ele>
        <time>2019-05-15T07:59:06.000Z</time>
      </trkpt>
      <trkpt lat="48.45554" lon="7.14853">
        <ele>634</ele>
        <time>2019-05-15T07:59:07.000Z</time>
      </trkpt>
      <trkpt lat="48.45554" lon="7.14853">
        <ele>634</ele>
        <time>2019-05-15T07:59:08.000Z</time>
      </trkpt>
      <trkpt lat="48.45554" lon="7.14853">
        <ele>634</ele>
        <time>2019-05-15T07:59:09.000Z</time>
      </trkpt>
      <trkpt lat="48.45553" lon="7.14853">
        <ele>634</ele>
        <time>2019-05-15T07:59:10.000Z</time>
      </trkpt>
      <trkpt lat="48.45553" lon="7.14853">
        <ele>634</ele>
        <time>2019-05-15T07:59:11.000Z</time>
      </trkpt>
      <trkpt lat="48.45553" lon="7.14853">
        <ele>634</ele>
        <time>2019-05-15T07:59:12.000Z</time>
      </trkpt>
      <trkpt lat="48.45553" lon="7.14853">
        <ele>634</ele>
        <time>2019-05-15T07:59:13.000Z</time>
      </trkpt>
      <trkpt lat="48.45552" lon="7.14853">
        <ele>634</ele>
        <time>2019-05-15T07:59:14.000Z</time>
      </trkpt>
      <trkpt lat="48.45552" lon="7.14853">
        <ele>634</ele>
        <time>2019-05-15T07:59:15.000Z</time>
      </trkpt>
      <trkpt lat="48.45553" lon="7.14853">
        <ele>634</ele>
        <time>2019-05-15T07:59:16.000Z</time>
      </trkpt>
      <trkpt lat="48.45553" lon="7.14853">
        <ele>634</ele>
        <time>2019-05-15T07:59:17.000Z</time>
      </trkpt>
      <trkpt lat="48.45553" lon="7.14853">
        <ele>634</ele>
        <time>2019-05-15T07:59:18.000Z</time>
      </trkpt>
      <trkpt lat="48.45553" lon="7.14853">
        <ele>634</ele>
        <time>2019-05-15T07:59:19.000Z</time>
      </trkpt>
      <trkpt lat="48.45553" lon="7.14852">
        <ele>634</ele>
        <time>2019-05-15T07:59:20.000Z</time>
      </trkpt>
      <trkpt lat="48.45553" lon="7.14852">
        <ele>633</ele>
        <time>2019-05-15T07:59:21.000Z</time>
      </trkpt>
      <trkpt lat="48.45553" lon="7.14852">
        <ele>633</ele>
        <time>2019-05-15T07:59:22.000Z</time>
      </trkpt>
      <trkpt lat="48.45552" lon="7.14851">
        <ele>633</ele>
        <time>2019-05-15T07:59:23.000Z</time>
      </trkpt>
      <trkpt lat="48.45552" lon="7.14851">
        <ele>634</ele>
        <time>2019-05-15T07:59:24.000Z</time>
      </trkpt>
      <trkpt lat="48.45551" lon="7.14851">
        <ele>634</ele>
        <time>2019-05-15T07:59:25.000Z</time>
      </trkpt>
      <trkpt lat="48.4555" lon="7.14851">
        <ele>634</ele>
        <time>2019-05-15T07:59:26.000Z</time>
      </trkpt>
      <trkpt lat="48.4555" lon="7.14851">
        <ele>634</ele>
        <time>2019-05-15T07:59:27.000Z</time>
      </trkpt>
      <trkpt lat="48.4555" lon="7.14851">
        <ele>635</ele>
        <time>2019-05-15T07:59:28.000Z</time>
      </trkpt>
      <trkpt lat="48.45549" lon="7.14851">
        <ele>634</ele>
        <time>2019-05-15T07:59:29.000Z</time>
      </trkpt>
      <trkpt lat="48.45549" lon="7.14851">
        <ele>634</ele>
        <time>2019-05-15T07:59:30.000Z</time>
      </trkpt>
      <trkpt lat="48.45547" lon="7.1485">
        <ele>634</ele>
        <time>2019-05-15T07:59:31.063Z</time>
      </trkpt>
      <trkpt lat="48.45547" lon="7.1485">
        <ele>634</ele>
        <time>2019-05-15T07:59:32.063Z</time>
      </trkpt>
      <trkpt lat="48.45546" lon="7.14849">
        <ele>634</ele>
        <time>2019-05-15T07:59:33.063Z</time>
      </trkpt>
      <trkpt lat="48.45546" lon="7.14849">
        <ele>635</ele>
        <time>2019-05-15T07:59:34.063Z</time>
      </trkpt>
      <trkpt lat="48.45545" lon="7.14848">
        <ele>635</ele>
        <time>2019-05-15T07:59:35.063Z</time>
      </trkpt>
      <trkpt lat="48.45545" lon="7.14848">
        <ele>635</ele>
        <time>2019-05-15T07:59:36.063Z</time>
      </trkpt>
      <trkpt lat="48.45544" lon="7.14847">
        <ele>635</ele>
        <time>2019-05-15T07:59:37.063Z</time>
      </trkpt>
      <trkpt lat="48.45543" lon="7.14847">
        <ele>635</ele>
        <time>2019-05-15T07:59:38.063Z</time>
      </trkpt>
      <trkpt lat="48.45542" lon="7.14846">
        <ele>634</ele>
        <time>2019-05-15T07:59:39.063Z</time>
      </trkpt>
      <trkpt lat="48.45542" lon="7.14846">
        <ele>634</ele>
        <time>2019-05-15T07:59:40.063Z</time>
      </trkpt>
      <trkpt lat="48.45541" lon="7.14845">
        <ele>634</ele>
        <time>2019-05-15T07:59:41.063Z</time>
      </trkpt>
      <trkpt lat="48.4554" lon="7.14844">
        <ele>634</ele>
        <time>2019-05-15T07:59:42.063Z</time>
      </trkpt>
      <trkpt lat="48.45539" lon="7.14844">
        <ele>634</ele>
        <time>2019-05-15T07:59:43.063Z</time>
      </trkpt>
      <trkpt lat="48.45538" lon="7.14844">
        <ele>634</ele>
        <time>2019-05-15T07:59:44.063Z</time>
      </trkpt>
      <trkpt lat="48.45537" lon="7.14843">
        <ele>634</ele>
        <time>2019-05-15T07:59:45.063Z</time>
      </trkpt>
      <trkpt lat="48.45536" lon="7.14842">
        <ele>634</ele>
        <time>2019-05-15T07:59:46.063Z</time>
      </trkpt>
      <trkpt lat="48.45535" lon="7.14842">
        <ele>634</ele>
        <time>2019-05-15T07:59:47.063Z</time>
      </trkpt>
      <trkpt lat="48.45534" lon="7.14841">
        <ele>634</ele>
        <time>2019-05-15T07:59:48.063Z</time>
      </trkpt>
      <trkpt lat="48.45533" lon="7.1484">
        <ele>634</ele>
        <time>2019-05-15T07:59:49.063Z</time>
      </trkpt>
      <trkpt lat="48.45532" lon="7.1484">
        <ele>634</ele>
        <time>2019-05-15T07:59:50.063Z</time>
      </trkpt>
      <trkpt lat="48.45531" lon="7.14839">
        <ele>634</ele>
        <time>2019-05-15T07:59:51.063Z</time>
      </trkpt>
      <trkpt lat="48.45531" lon="7.14838">
        <ele>634</ele>
        <time>2019-05-15T07:59:52.063Z</time>
      </trkpt>
      <trkpt lat="48.4553" lon="7.14838">
        <ele>634</ele>
        <time>2019-05-15T07:59:53.063Z</time>
      </trkpt>
      <trkpt lat="48.45529" lon="7.14837">
        <ele>634</ele>
        <time>2019-05-15T07:59:54.063Z</time>
      </trkpt>
      <trkpt lat="48.45528" lon="7.14837">
        <ele>634</ele>
        <time>2019-05-15T07:59:55.063Z</time>
      </trkpt>
      <trkpt lat="48.45527" lon="7.14837">
        <ele>634</ele>
        <time>2019-05-15T07:59:56.063Z</time>
      </trkpt>
      <trkpt lat="48.45526" lon="7.14837">
        <ele>634</ele>
        <time>2019-05-15T07:59:57.063Z</time>
      </trkpt>
      <trkpt lat="48.45525" lon="7.14836">
        <ele>634</ele>
        <time>2019-05-15T07:59:58.063Z</time>
      </trkpt>
      <trkpt lat="48.45524" lon="7.14836">
        <ele>634</ele>
        <time>2019-05-15T07:59:59.063Z</time>
      </trkpt>
      <trkpt lat="48.45523" lon="7.14836">
        <ele>634</ele>
        <time>2019-05-15T08:00:00.063Z</time>
      </trkpt>
      <trkpt lat="48.45522" lon="7.14836">
        <ele>634</ele>
        <time>2019-05-15T08:00:01.063Z</time>
      </trkpt>
      <trkpt lat="48.45522" lon="7.14836">
        <ele>635</ele>
        <time>2019-05-15T08:00:02.063Z</time>
      </trkpt>
      <trkpt lat="48.45521" lon="7.14835">
        <ele>635</ele>
        <time>2019-05-15T08:00:03.063Z</time>
      </trkpt>
      <trkpt lat="48.45521" lon="7.14835">
        <ele>634</ele>
        <time>2019-05-15T08:00:04.063Z</time>
      </trkpt>
      <trkpt lat="48.4552" lon="7.14835">
        <ele>634</ele>
        <time>2019-05-15T08:00:05.063Z</time>
      </trkpt>
      <trkpt lat="48.45519" lon="7.14835">
        <ele>634</ele>
        <time>2019-05-15T08:00:06.063Z</time>
      </trkpt>
      <trkpt lat="48.45519" lon="7.14834">
        <ele>634</ele>
        <time>2019-05-15T08:00:07.063Z</time>
      </trkpt>
      <trkpt lat="48.45518" lon="7.14833">
        <ele>634</ele>
        <time>2019-05-15T08:00:08.063Z</time>
      </trkpt>
      <trkpt lat="48.45518" lon="7.14833">
        <ele>633</ele>
        <time>2019-05-15T08:00:09.063Z</time>
      </trkpt>
      <trkpt lat="48.45517" lon="7.14832">
        <ele>634</ele>
        <time>2019-05-15T08:00:10.063Z</time>
      </trkpt>
      <trkpt lat="48.45517" lon="7.14832">
        <ele>634</ele>
        <time>2019-05-15T08:00:11.063Z</time>
      </trkpt>
      <trkpt lat="48.45517" lon="7.14831">
        <ele>634</ele>
        <time>2019-05-15T08:00:12.063Z</time>
      </trkpt>
      <trkpt lat="48.45516" lon="7.14831">
        <ele>634</ele>
        <time>2019-05-15T08:00:13.063Z</time>
      </trkpt>
      <trkpt lat="48.45516" lon="7.14831">
        <ele>635</ele>
        <time>2019-05-15T08:00:14.063Z</time>
      </trkpt>
      <trkpt lat="48.45515" lon="7.1483">
        <ele>635</ele>
        <time>2019-05-15T08:00:15.063Z</time>
      </trkpt>
      <trkpt lat="48.45514" lon="7.1483">
        <ele>635</ele>
        <time>2019-05-15T08:00:16.063Z</time>
      </trkpt>
      <trkpt lat="48.45513" lon="7.1483">
        <ele>635</ele>
        <time>2019-05-15T08:00:17.063Z</time>
      </trkpt>
      <trkpt lat="48.45512" lon="7.14831">
        <ele>636</ele>
        <time>2019-05-15T08:00:18.063Z</time>
      </trkpt>
      <trkpt lat="48.45511" lon="7.14831">
        <ele>636</ele>
        <time>2019-05-15T08:00:19.063Z</time>
      </trkpt>
      <trkpt lat="48.4551" lon="7.14832">
        <ele>636</ele>
        <time>2019-05-15T08:00:20.063Z</time>
      </trkpt>
      <trkpt lat="48.45509" lon="7.14833">
        <ele>637</ele>
        <time>2019-05-15T08:00:21.063Z</time>
      </trkpt>
      <trkpt lat="48.45508" lon="7.14834">
        <ele>637</ele>
        <time>2019-05-15T08:00:22.063Z</time>
      </trkpt>
      <trkpt lat="48.45507" lon="7.14834">
        <ele>637</ele>
        <time>2019-05-15T08:00:23.063Z</time>
      </trkpt>
      <trkpt lat="48.45506" lon="7.14834">
        <ele>637</ele>
        <time>2019-05-15T08:00:24.063Z</time>
      </trkpt>
      <trkpt lat="48.45506" lon="7.14835">
        <ele>637</ele>
        <time>2019-05-15T08:00:25.063Z</time>
      </trkpt>
      <trkpt lat="48.45505" lon="7.14835">
        <ele>637</ele>
        <time>2019-05-15T08:00:26.063Z</time>
      </trkpt>
      <trkpt lat="48.45503" lon="7.14835">
        <ele>637</ele>
        <time>2019-05-15T08:00:27.063Z</time>
      </trkpt>
      <trkpt lat="48.45502" lon="7.14835">
        <ele>637</ele>
        <time>2019-05-15T08:00:28.063Z</time>
      </trkpt>
      <trkpt lat="48.45501" lon="7.14835">
        <ele>637</ele>
        <time>2019-05-15T08:00:29.063Z</time>
      </trkpt>
      <trkpt lat="48.455" lon="7.14835">
        <ele>636</ele>
        <time>2019-05-15T08:00:30.063Z</time>
      </trkpt>
      <trkpt lat="48.455" lon="7.14834">
        <ele>636</ele>
        <time>2019-05-15T08:00:31.063Z</time>
      </trkpt>
      <trkpt lat="48.45499" lon="7.14833">
        <ele>636</ele>
        <time>2019-05-15T08:00:32.063Z</time>
      </trkpt>
      <trkpt lat="48.45498" lon="7.14833">
        <ele>637</ele>
        <time>2019-05-15T08:00:33.063Z</time>
      </trkpt>
      <trkpt lat="48.45497" lon="7.14833">
        <ele>636</ele>
        <time>2019-05-15T08:00:34.063Z</time>
      </trkpt>
      <trkpt lat="48.45497" lon="7.14833">
        <ele>636</ele>
        <time>2019-05-15T08:00:35.063Z</time>
      </trkpt>
      <trkpt lat="48.45497" lon="7.14833">
        <ele>636</ele>
        <time>2019-05-15T08:00:36.063Z</time>
      </trkpt>
      <trkpt lat="48.45497" lon="7.14833">
        <ele>636</ele>
        <time>2019-05-15T08:00:37.063Z</time>
      </trkpt>
      <trkpt lat="48.45497" lon="7.14833">
        <ele>636</ele>
        <time>2019-05-15T08:00:38.063Z</time>
      </trkpt>
      <trkpt lat="48.45496" lon="7.14833">
        <ele>636</ele>
        <time>2019-05-15T08:00:39.063Z</time>
      </trkpt>
      <trkpt lat="48.45496" lon="7.14833">
        <ele>636</ele>
        <time>2019-05-15T08:00:40.063Z</time>
      </trkpt>
      <trkpt lat="48.45496" lon="7.14833">
        <ele>635</ele>
        <time>2019-05-15T08:00:41.063Z</time>
      </trkpt>
      <trkpt lat="48.45496" lon="7.14833">
        <ele>635</ele>
        <time>2019-05-15T08:00:42.063Z</time>
      </trkpt>
      <trkpt lat="48.45496" lon="7.14833">
        <ele>636</ele>
        <time>2019-05-15T08:00:43.063Z</time>
      </trkpt>
      <trkpt lat="48.45495" lon="7.14833">
        <ele>636</ele>
        <time>2019-05-15T08:00:44.063Z</time>
      </trkpt>
      <trkpt lat="48.45495" lon="7.14833">
        <ele>636</ele>
        <time>2019-05-15T08:00:45.063Z</time>
      </trkpt>
      <trkpt lat="48.45495" lon="7.14833">
        <ele>636</ele>
        <time>2019-05-15T08:00:46.063Z</time>
      </trkpt>
      <trkpt lat="48.45495" lon="7.14833">
        <ele>636</ele>
        <time>2019-05-15T08:00:47.063Z</time>
      </trkpt>
      <trkpt lat="48.45495" lon="7.14833">
        <ele>636</ele>
        <time>2019-05-15T08:00:48.063Z</time>
      </trkpt>
      <trkpt lat="48.45494" lon="7.14833">
        <ele>636</ele>
        <time>2019-05-15T08:00:49.063Z</time>
      </trkpt>
      <trkpt lat="48.45493" lon="7.14833">
        <ele>635</ele>
        <time>2019-05-15T08:00:50.063Z</time>
      </trkpt>
      <trkpt lat="48.45492" lon="7.14833">
        <ele>635</ele>
        <time>2019-05-15T08:00:51.063Z</time>
      </trkpt>
      <trkpt lat="48.45491" lon="7.14833">
        <ele>635</ele>
        <time>2019-05-15T08:00:52.063Z</time>
      </trkpt>
      <trkpt lat="48.4549" lon="7.14833">
        <ele>635</ele>
        <time>2019-05-15T08:00:53.063Z</time>
      </trkpt>
      <trkpt lat="48.45489" lon="7.14833">
        <ele>635</ele>
        <time>2019-05-15T08:00:54.063Z</time>
      </trkpt>
      <trkpt lat="48.45488" lon="7.14833">
        <ele>635</ele>
        <time>2019-05-15T08:00:55.063Z</time>
      </trkpt>
      <trkpt lat="48.45487" lon="7.14833">
        <ele>635</ele>
        <time>2019-05-15T08:00:56.063Z</time>
      </trkpt>
      <trkpt lat="48.45486" lon="7.14832">
        <ele>634</ele>
        <time>2019-05-15T08:00:57.063Z</time>
      </trkpt>
      <trkpt lat="48.45485" lon="7.14832">
        <ele>634</ele>
        <time>2019-05-15T08:00:58.063Z</time>
      </trkpt>
      <trkpt lat="48.45484" lon="7.14831">
        <ele>635</ele>
        <time>2019-05-15T08:00:59.063Z</time>
      </trkpt>
      <trkpt lat="48.45483" lon="7.14831">
        <ele>634</ele>
        <time>2019-05-15T08:01:00.063Z</time>
      </trkpt>
      <trkpt lat="48.45482" lon="7.14831">
        <ele>634</ele>
        <time>2019-05-15T08:01:01.063Z</time>
      </trkpt>
      <trkpt lat="48.45482" lon="7.14831">
        <ele>635</ele>
        <time>2019-05-15T08:01:02.063Z</time>
      </trkpt>
      <trkpt lat="48.45481" lon="7.14831">
        <ele>635</ele>
        <time>2019-05-15T08:01:03.063Z</time>
      </trkpt>
      <trkpt lat="48.4548" lon="7.14831">
        <ele>634</ele>
        <time>2019-05-15T08:01:04.063Z</time>
      </trkpt>
      <trkpt lat="48.4548" lon="7.14831">
        <ele>634</ele>
        <time>2019-05-15T08:01:05.063Z</time>
      </trkpt>
      <trkpt lat="48.4548" lon="7.14831">
        <ele>634</ele>
        <time>2019-05-15T08:01:06.063Z</time>
      </trkpt>
      <trkpt lat="48.45479" lon="7.1483">
        <ele>634</ele>
        <time>2019-05-15T08:01:07.063Z</time>
      </trkpt>
      <trkpt lat="48.45478" lon="7.1483">
        <ele>633</ele>
        <time>2019-05-15T08:01:08.063Z</time>
      </trkpt>
      <trkpt lat="48.45478" lon="7.1483">
        <ele>633</ele>
        <time>2019-05-15T08:01:09.063Z</time>
      </trkpt>
      <trkpt lat="48.45477" lon="7.14829">
        <ele>633</ele>
        <time>2019-05-15T08:01:10.063Z</time>
      </trkpt>
      <trkpt lat="48.45477" lon="7.14829">
        <ele>634</ele>
        <time>2019-05-15T08:01:11.063Z</time>
      </trkpt>
      <trkpt lat="48.45477" lon="7.14829">
        <ele>634</ele>
        <time>2019-05-15T08:01:12.063Z</time>
      </trkpt>
      <trkpt lat="48.45477" lon="7.14829">
        <ele>633</ele>
        <time>2019-05-15T08:01:13.063Z</time>
      </trkpt>
      <trkpt lat="48.45477" lon="7.14829">
        <ele>633</ele>
        <time>2019-05-15T08:01:14.063Z</time>
      </trkpt>
      <trkpt lat="48.45477" lon="7.14829">
        <ele>633</ele>
        <time>2019-05-15T08:01:15.063Z</time>
      </trkpt>
      <trkpt lat="48.45476" lon="7.14829">
        <ele>633</ele>
        <time>2019-05-15T08:01:16.063Z</time>
      </trkpt>
      <trkpt lat="48.45476" lon="7.14829">
        <ele>633</ele>
        <time>2019-05-15T08:01:17.063Z</time>
      </trkpt>
      <trkpt lat="48.45476" lon="7.14829">
        <ele>633</ele>
        <time>2019-05-15T08:01:18.063Z</time>
      </trkpt>
      <trkpt lat="48.45476" lon="7.14829">
        <ele>633</ele>
        <time>2019-05-15T08:01:19.063Z</time>
      </trkpt>
      <trkpt lat="48.45476" lon="7.14829">
        <ele>633</ele>
        <time>2019-05-15T08:01:20.063Z</time>
      </trkpt>
      <trkpt lat="48.45476" lon="7.14829">
        <ele>633</ele>
        <time>2019-05-15T08:01:21.063Z</time>
      </trkpt>
      <trkpt lat="48.45476" lon="7.14829">
        <ele>633</ele>
        <time>2019-05-15T08:01:22.063Z</time>
      </trkpt>
      <trkpt lat="48.45476" lon="7.14829">
        <ele>634</ele>
        <time>2019-05-15T08:01:23.063Z</time>
      </trkpt>
      <trkpt lat="48.45476" lon="7.14829">
        <ele>634</ele>
        <time>2019-05-15T08:01:24.063Z</time>
      </trkpt>
      <trkpt lat="48.45476" lon="7.14829">
        <ele>634</ele>
        <time>2019-05-15T08:01:25.063Z</time>
      </trkpt>
      <trkpt lat="48.45476" lon="7.14829">
        <ele>634</ele>
        <time>2019-05-15T08:01:26.063Z</time>
      </trkpt>
      <trkpt lat="48.45476" lon="7.14829">
        <ele>634</ele>
        <time>2019-05-15T08:01:27.063Z</time>
      </trkpt>
      <trkpt lat="48.45476" lon="7.14829">
        <ele>634</ele>
        <time>2019-05-15T08:01:28.063Z</time>
      </trkpt>
      <trkpt lat="48.45475" lon="7.14829">
        <ele>634</ele>
        <time>2019-05-15T08:01:29.063Z</time>
      </trkpt>
      <trkpt lat="48.45475" lon="7.14829">
        <ele>634</ele>
        <time>2019-05-15T08:01:30.063Z</time>
      </trkpt>
      <trkpt lat="48.45474" lon="7.14828">
        <ele>634</ele>
        <time>2019-05-15T08:01:31.063Z</time>
      </trkpt>
      <trkpt lat="48.45474" lon="7.14828">
        <ele>634</ele>
        <time>2019-05-15T08:01:32.063Z</time>
      </trkpt>
      <trkpt lat="48.45473" lon="7.14827">
        <ele>634</ele>
        <time>2019-05-15T08:01:33.063Z</time>
      </trkpt>
      <trkpt lat="48.45472" lon="7.14827">
        <ele>634</ele>
        <time>2019-05-15T08:01:34.063Z</time>
      </trkpt>
      <trkpt lat="48.45472" lon="7.14826">
        <ele>633</ele>
        <time>2019-05-15T08:01:35.063Z</time>
      </trkpt>
      <trkpt lat="48.45471" lon="7.14825">
        <ele>633</ele>
        <time>2019-05-15T08:01:36.063Z</time>
      </trkpt>
      <trkpt lat="48.45471" lon="7.14823">
        <ele>633</ele>
        <time>2019-05-15T08:01:37.063Z</time>
      </trkpt>
      <trkpt lat="48.4547" lon="7.14822">
        <ele>633</ele>
        <time>2019-05-15T08:01:38.063Z</time>
      </trkpt>
      <trkpt lat="48.4547" lon="7.14821">
        <ele>633</ele>
        <time>2019-05-15T08:01:39.063Z</time>
      </trkpt>
      <trkpt lat="48.45469" lon="7.1482">
        <ele>633</ele>
        <time>2019-05-15T08:01:40.063Z</time>
      </trkpt>
      <trkpt lat="48.45469" lon="7.1482">
        <ele>634</ele>
        <time>2019-05-15T08:01:41.063Z</time>
      </trkpt>
      <trkpt lat="48.45468" lon="7.14819">
        <ele>634</ele>
        <time>2019-05-15T08:01:42.063Z</time>
      </trkpt>
      <trkpt lat="48.45468" lon="7.14818">
        <ele>634</ele>
        <time>2019-05-15T08:01:43.063Z</time>
      </trkpt>
      <trkpt lat="48.45467" lon="7.14816">
        <ele>635</ele>
        <time>2019-05-15T08:01:44.063Z</time>
      </trkpt>
      <trkpt lat="48.45466" lon="7.14815">
        <ele>636</ele>
        <time>2019-05-15T08:01:45.063Z</time>
      </trkpt>
      <trkpt lat="48.45465" lon="7.14814">
        <ele>636</ele>
        <time>2019-05-15T08:01:46.063Z</time>
      </trkpt>
      <trkpt lat="48.45464" lon="7.14813">
        <ele>637</ele>
        <time>2019-05-15T08:01:47.063Z</time>
      </trkpt>
      <trkpt lat="48.45463" lon="7.14812">
        <ele>637</ele>
        <time>2019-05-15T08:01:48.063Z</time>
      </trkpt>
      <trkpt lat="48.45463" lon="7.1481">
        <ele>637</ele>
        <time>2019-05-15T08:01:49.063Z</time>
      </trkpt>
      <trkpt lat="48.45462" lon="7.14809">
        <ele>637</ele>
        <time>2019-05-15T08:01:50.063Z</time>
      </trkpt>
      <trkpt lat="48.45461" lon="7.14808">
        <ele>637</ele>
        <time>2019-05-15T08:01:51.063Z</time>
      </trkpt>
      <trkpt lat="48.4546" lon="7.14807">
        <ele>638</ele>
        <time>2019-05-15T08:01:52.063Z</time>
      </trkpt>
      <trkpt lat="48.45459" lon="7.14806">
        <ele>637</ele>
        <time>2019-05-15T08:01:53.063Z</time>
      </trkpt>
      <trkpt lat="48.45459" lon="7.14805">
        <ele>637</ele>
        <time>2019-05-15T08:01:54.063Z</time>
      </trkpt>
      <trkpt lat="48.45458" lon="7.14804">
        <ele>637</ele>
        <time>2019-05-15T08:01:55.063Z</time>
      </trkpt>
      <trkpt lat="48.45457" lon="7.14803">
        <ele>637</ele>
        <time>2019-05-15T08:01:56.063Z</time>
      </trkpt>
      <trkpt lat="48.45456" lon="7.14802">
        <ele>638</ele>
        <time>2019-05-15T08:01:57.063Z</time>
      </trkpt>
      <trkpt lat="48.45455" lon="7.14801">
        <ele>638</ele>
        <time>2019-05-15T08:01:58.063Z</time>
      </trkpt>
      <trkpt lat="48.45454" lon="7.148">
        <ele>638</ele>
        <time>2019-05-15T08:01:59.063Z</time>
      </trkpt>
      <trkpt lat="48.45453" lon="7.14798">
        <ele>639</ele>
        <time>2019-05-15T08:02:00.063Z</time>
      </trkpt>
      <trkpt lat="48.45452" lon="7.14798">
        <ele>639</ele>
        <time>2019-05-15T08:02:01.063Z</time>
      </trkpt>
      <trkpt lat="48.45451" lon="7.14797">
        <ele>639</ele>
        <time>2019-05-15T08:02:02.063Z</time>
      </trkpt>
      <trkpt lat="48.4545" lon="7.14796">
        <ele>640</ele>
        <time>2019-05-15T08:02:03.063Z</time>
      </trkpt>
      <trkpt lat="48.45449" lon="7.14796">
        <ele>639</ele>
        <time>2019-05-15T08:02:04.063Z</time>
      </trkpt>
      <trkpt lat="48.45448" lon="7.14795">
        <ele>640</ele>
        <time>2019-05-15T08:02:05.063Z</time>
      </trkpt>
      <trkpt lat="48.45447" lon="7.14794">
        <ele>639</ele>
        <time>2019-05-15T08:02:06.063Z</time>
      </trkpt>
      <trkpt lat="48.45446" lon="7.14793">
        <ele>640</ele>
        <time>2019-05-15T08:02:07.063Z</time>
      </trkpt>
      <trkpt lat="48.45446" lon="7.14792">
        <ele>639</ele>
        <time>2019-05-15T08:02:08.063Z</time>
      </trkpt>
      <trkpt lat="48.45445" lon="7.14791">
        <ele>639</ele>
        <time>2019-05-15T08:02:09.063Z</time>
      </trkpt>
      <trkpt lat="48.45444" lon="7.1479">
        <ele>640</ele>
        <time>2019-05-15T08:02:10.063Z</time>
      </trkpt>
      <trkpt lat="48.45443" lon="7.1479">
        <ele>640</ele>
        <time>2019-05-15T08:02:11.063Z</time>
      </trkpt>
      <trkpt lat="48.45442" lon="7.1479">
        <ele>640</ele>
        <time>2019-05-15T08:02:12.063Z</time>
      </trkpt>
      <trkpt lat="48.45441" lon="7.14789">
        <ele>640</ele>
        <time>2019-05-15T08:02:13.063Z</time>
      </trkpt>
      <trkpt lat="48.4544" lon="7.14788">
        <ele>641</ele>
        <time>2019-05-15T08:02:14.063Z</time>
      </trkpt>
      <trkpt lat="48.4544" lon="7.14788">
        <ele>641</ele>
        <time>2019-05-15T08:02:15.063Z</time>
      </trkpt>
      <trkpt lat="48.45439" lon="7.14787">
        <ele>641</ele>
        <time>2019-05-15T08:02:16.063Z</time>
      </trkpt>
      <trkpt lat="48.45438" lon="7.14786">
        <ele>641</ele>
        <time>2019-05-15T08:02:17.063Z</time>
      </trkpt>
      <trkpt lat="48.45437" lon="7.14785">
        <ele>642</ele>
        <time>2019-05-15T08:02:18.063Z</time>
      </trkpt>
      <trkpt lat="48.45436" lon="7.14785">
        <ele>643</ele>
        <time>2019-05-15T08:02:19.063Z</time>
      </trkpt>
      <trkpt lat="48.45435" lon="7.14784">
        <ele>642</ele>
        <time>2019-05-15T08:02:20.063Z</time>
      </trkpt>
      <trkpt lat="48.45434" lon="7.14783">
        <ele>643</ele>
        <time>2019-05-15T08:02:21.063Z</time>
      </trkpt>
      <trkpt lat="48.45433" lon="7.14783">
        <ele>643</ele>
        <time>2019-05-15T08:02:22.063Z</time>
      </trkpt>
      <trkpt lat="48.45433" lon="7.14782">
        <ele>643</ele>
        <time>2019-05-15T08:02:23.063Z</time>
      </trkpt>
      <trkpt lat="48.45432" lon="7.14782">
        <ele>644</ele>
        <time>2019-05-15T08:02:24.063Z</time>
      </trkpt>
      <trkpt lat="48.45432" lon="7.14781">
        <ele>643</ele>
        <time>2019-05-15T08:02:25.063Z</time>
      </trkpt>
      <trkpt lat="48.45431" lon="7.1478">
        <ele>643</ele>
        <time>2019-05-15T08:02:26.063Z</time>
      </trkpt>
      <trkpt lat="48.45431" lon="7.14778">
        <ele>641</ele>
        <time>2019-05-15T08:02:27.063Z</time>
      </trkpt>
      <trkpt lat="48.4543" lon="7.14776">
        <ele>641</ele>
        <time>2019-05-15T08:02:28.063Z</time>
      </trkpt>
      <trkpt lat="48.4543" lon="7.14773">
        <ele>640</ele>
        <time>2019-05-15T08:02:29.063Z</time>
      </trkpt>
      <trkpt lat="48.45429" lon="7.14772">
        <ele>641</ele>
        <time>2019-05-15T08:02:30.063Z</time>
      </trkpt>
      <trkpt lat="48.45428" lon="7.1477">
        <ele>641</ele>
        <time>2019-05-15T08:02:31.063Z</time>
      </trkpt>
      <trkpt lat="48.45427" lon="7.14769">
        <ele>641</ele>
        <time>2019-05-15T08:02:32.063Z</time>
      </trkpt>
      <trkpt lat="48.45427" lon="7.14768">
        <ele>641</ele>
        <time>2019-05-15T08:02:33.063Z</time>
      </trkpt>
      <trkpt lat="48.45426" lon="7.14766">
        <ele>640</ele>
        <time>2019-05-15T08:02:34.063Z</time>
      </trkpt>
      <trkpt lat="48.45425" lon="7.14764">
        <ele>640</ele>
        <time>2019-05-15T08:02:35.063Z</time>
      </trkpt>
      <trkpt lat="48.45425" lon="7.14763">
        <ele>639</ele>
        <time>2019-05-15T08:02:36.063Z</time>
      </trkpt>
      <trkpt lat="48.45424" lon="7.14761">
        <ele>640</ele>
        <time>2019-05-15T08:02:37.063Z</time>
      </trkpt>
      <trkpt lat="48.45423" lon="7.1476">
        <ele>640</ele>
        <time>2019-05-15T08:02:38.063Z</time>
      </trkpt>
      <trkpt lat="48.45423" lon="7.14759">
        <ele>640</ele>
        <time>2019-05-15T08:02:39.063Z</time>
      </trkpt>
      <trkpt lat="48.45422" lon="7.14758">
        <ele>640</ele>
        <time>2019-05-15T08:02:40.063Z</time>
      </trkpt>
      <trkpt lat="48.45421" lon="7.14756">
        <ele>640</ele>
        <time>2019-05-15T08:02:41.063Z</time>
      </trkpt>
      <trkpt lat="48.45421" lon="7.14755">
        <ele>640</ele>
        <time>2019-05-15T08:02:42.063Z</time>
      </trkpt>
      <trkpt lat="48.45421" lon="7.14753">
        <ele>640</ele>
        <time>2019-05-15T08:02:43.063Z</time>
      </trkpt>
      <trkpt lat="48.4542" lon="7.14752">
        <ele>640</ele>
        <time>2019-05-15T08:02:44.063Z</time>
      </trkpt>
      <trkpt lat="48.4542" lon="7.14751">
        <ele>639</ele>
        <time>2019-05-15T08:02:45.063Z</time>
      </trkpt>
      <trkpt lat="48.45419" lon="7.1475">
        <ele>640</ele>
        <time>2019-05-15T08:02:46.063Z</time>
      </trkpt>
      <trkpt lat="48.45419" lon="7.14749">
        <ele>639</ele>
        <time>2019-05-15T08:02:47.063Z</time>
      </trkpt>
      <trkpt lat="48.45418" lon="7.14748">
        <ele>639</ele>
        <time>2019-05-15T08:02:48.063Z</time>
      </trkpt>
      <trkpt lat="48.45418" lon="7.14747">
        <ele>638</ele>
        <time>2019-05-15T08:02:49.063Z</time>
      </trkpt>
      <trkpt lat="48.45418" lon="7.14746">
        <ele>639</ele>
        <time>2019-05-15T08:02:50.063Z</time>
      </trkpt>
      <trkpt lat="48.45417" lon="7.14745">
        <ele>638</ele>
        <time>2019-05-15T08:02:51.063Z</time>
      </trkpt>
      <trkpt lat="48.45417" lon="7.14743">
        <ele>638</ele>
        <time>2019-05-15T08:02:52.063Z</time>
      </trkpt>
      <trkpt lat="48.45417" lon="7.14742">
        <ele>640</ele>
        <time>2019-05-15T08:02:53.063Z</time>
      </trkpt>
      <trkpt lat="48.45417" lon="7.14741">
        <ele>641</ele>
        <time>2019-05-15T08:02:54.063Z</time>
      </trkpt>
      <trkpt lat="48.45417" lon="7.14739">
        <ele>641</ele>
        <time>2019-05-15T08:02:55.063Z</time>
      </trkpt>
      <trkpt lat="48.45417" lon="7.14738">
        <ele>642</ele>
        <time>2019-05-15T08:02:56.063Z</time>
      </trkpt>
      <trkpt lat="48.45417" lon="7.14737">
        <ele>642</ele>
        <time>2019-05-15T08:02:57.063Z</time>
      </trkpt>
      <trkpt lat="48.45416" lon="7.14736">
        <ele>642</ele>
        <time>2019-05-15T08:02:58.063Z</time>
      </trkpt>
      <trkpt lat="48.45416" lon="7.14735">
        <ele>644</ele>
        <time>2019-05-15T08:02:59.063Z</time>
      </trkpt>
      <trkpt lat="48.45416" lon="7.14734">
        <ele>645</ele>
        <time>2019-05-15T08:03:00.063Z</time>
      </trkpt>
      <trkpt lat="48.45416" lon="7.14733">
        <ele>645</ele>
        <time>2019-05-15T08:03:01.063Z</time>
      </trkpt>
      <trkpt lat="48.45416" lon="7.14732">
        <ele>646</ele>
        <time>2019-05-15T08:03:02.063Z</time>
      </trkpt>
      <trkpt lat="48.45415" lon="7.14731">
        <ele>647</ele>
        <time>2019-05-15T08:03:03.063Z</time>
      </trkpt>
      <trkpt lat="48.45415" lon="7.1473">
        <ele>647</ele>
        <time>2019-05-15T08:03:04.063Z</time>
      </trkpt>
      <trkpt lat="48.45415" lon="7.14729">
        <ele>647</ele>
        <time>2019-05-15T08:03:05.063Z</time>
      </trkpt>
      <trkpt lat="48.45414" lon="7.14729">
        <ele>648</ele>
        <time>2019-05-15T08:03:06.063Z</time>
      </trkpt>
      <trkpt lat="48.45414" lon="7.14728">
        <ele>648</ele>
        <time>2019-05-15T08:03:07.063Z</time>
      </trkpt>
      <trkpt lat="48.45414" lon="7.14728">
        <ele>649</ele>
        <time>2019-05-15T08:03:08.063Z</time>
      </trkpt>
      <trkpt lat="48.45414" lon="7.14727">
        <ele>648</ele>
        <time>2019-05-15T08:03:09.063Z</time>
      </trkpt>
      <trkpt lat="48.45413" lon="7.14727">
        <ele>649</ele>
        <time>2019-05-15T08:03:10.063Z</time>
      </trkpt>
      <trkpt lat="48.45413" lon="7.14726">
        <ele>649</ele>
        <time>2019-05-15T08:03:11.063Z</time>
      </trkpt>
      <trkpt lat="48.45413" lon="7.14726">
        <ele>650</ele>
        <time>2019-05-15T08:03:12.063Z</time>
      </trkpt>
      <trkpt lat="48.45412" lon="7.14726">
        <ele>651</ele>
        <time>2019-05-15T08:03:13.063Z</time>
      </trkpt>
      <trkpt lat="48.45412" lon="7.14725">
        <ele>651</ele>
        <time>2019-05-15T08:03:14.063Z</time>
      </trkpt>
      <trkpt lat="48.45411" lon="7.14724">
        <ele>652</ele>
        <time>2019-05-15T08:03:15.063Z</time>
      </trkpt>
      <trkpt lat="48.4541" lon="7.14724">
        <ele>652</ele>
        <time>2019-05-15T08:03:16.063Z</time>
      </trkpt>
      <trkpt lat="48.4541" lon="7.14723">
        <ele>652</ele>
        <time>2019-05-15T08:03:17.063Z</time>
      </trkpt>
      <trkpt lat="48.45409" lon="7.14721">
        <ele>653</ele>
        <time>2019-05-15T08:03:18.063Z</time>
      </trkpt>
      <trkpt lat="48.45408" lon="7.14721">
        <ele>652</ele>
        <time>2019-05-15T08:03:19.063Z</time>
      </trkpt>
      <trkpt lat="48.45408" lon="7.1472">
        <ele>653</ele>
        <time>2019-05-15T08:03:20.063Z</time>
      </trkpt>
      <trkpt lat="48.45408" lon="7.14719">
        <ele>654</ele>
        <time>2019-05-15T08:03:21.063Z</time>
      </trkpt>
      <trkpt lat="48.45407" lon="7.14718">
        <ele>653</ele>
        <time>2019-05-15T08:03:22.063Z</time>
      </trkpt>
      <trkpt lat="48.45407" lon="7.14717">
        <ele>653</ele>
        <time>2019-05-15T08:03:23.063Z</time>
      </trkpt>
      <trkpt lat="48.45407" lon="7.14716">
        <ele>654</ele>
        <time>2019-05-15T08:03:24.063Z</time>
      </trkpt>
      <trkpt lat="48.45406" lon="7.14715">
        <ele>653</ele>
        <time>2019-05-15T08:03:25.063Z</time>
      </trkpt>
      <trkpt lat="48.45406" lon="7.14714">
        <ele>653</ele>
        <time>2019-05-15T08:03:26.063Z</time>
      </trkpt>
      <trkpt lat="48.45406" lon="7.14712">
        <ele>653</ele>
        <time>2019-05-15T08:03:27.063Z</time>
      </trkpt>
      <trkpt lat="48.45405" lon="7.14711">
        <ele>654</ele>
        <time>2019-05-15T08:03:28.063Z</time>
      </trkpt>
      <trkpt lat="48.45405" lon="7.1471">
        <ele>652</ele>
        <time>2019-05-15T08:03:29.063Z</time>
      </trkpt>
      <trkpt lat="48.45404" lon="7.14708">
        <ele>653</ele>
        <time>2019-05-15T08:03:30.063Z</time>
      </trkpt>
      <trkpt lat="48.45403" lon="7.14706">
        <ele>652</ele>
        <time>2019-05-15T08:03:31.063Z</time>
      </trkpt>
      <trkpt lat="48.45403" lon="7.14704">
        <ele>652</ele>
        <time>2019-05-15T08:03:32.063Z</time>
      </trkpt>
      <trkpt lat="48.45402" lon="7.14702">
        <ele>651</ele>
        <time>2019-05-15T08:03:33.063Z</time>
      </trkpt>
      <trkpt lat="48.45402" lon="7.14701">
        <ele>650</ele>
        <time>2019-05-15T08:03:34.063Z</time>
      </trkpt>
      <trkpt lat="48.45402" lon="7.14699">
        <ele>650</ele>
        <time>2019-05-15T08:03:35.063Z</time>
      </trkpt>
      <trkpt lat="48.45402" lon="7.14698">
        <ele>650</ele>
        <time>2019-05-15T08:03:36.063Z</time>
      </trkpt>
      <trkpt lat="48.45401" lon="7.14697">
        <ele>649</ele>
        <time>2019-05-15T08:03:37.063Z</time>
      </trkpt>
      <trkpt lat="48.45401" lon="7.14696">
        <ele>650</ele>
        <time>2019-05-15T08:03:38.063Z</time>
      </trkpt>
      <trkpt lat="48.45401" lon="7.14695">
        <ele>650</ele>
        <time>2019-05-15T08:03:39.063Z</time>
      </trkpt>
      <trkpt lat="48.454" lon="7.14694">
        <ele>650</ele>
        <time>2019-05-15T08:03:40.063Z</time>
      </trkpt>
      <trkpt lat="48.454" lon="7.14692">
        <ele>649</ele>
        <time>2019-05-15T08:03:41.063Z</time>
      </trkpt>
      <trkpt lat="48.454" lon="7.14691">
        <ele>648</ele>
        <time>2019-05-15T08:03:42.063Z</time>
      </trkpt>
      <trkpt lat="48.45399" lon="7.14689">
        <ele>649</ele>
        <time>2019-05-15T08:03:43.063Z</time>
      </trkpt>
      <trkpt lat="48.45399" lon="7.14688">
        <ele>648</ele>
        <time>2019-05-15T08:03:44.063Z</time>
      </trkpt>
      <trkpt lat="48.45398" lon="7.14687">
        <ele>647</ele>
        <time>2019-05-15T08:03:45.063Z</time>
      </trkpt>
      <trkpt lat="48.45398" lon="7.14685">
        <ele>646</ele>
        <time>2019-05-15T08:03:46.063Z</time>
      </trkpt>
      <trkpt lat="48.45397" lon="7.14684">
        <ele>646</ele>
        <time>2019-05-15T08:03:47.063Z</time>
      </trkpt>
      <trkpt lat="48.45397" lon="7.14683">
        <ele>646</ele>
        <time>2019-05-15T08:03:48.063Z</time>
      </trkpt>
      <trkpt lat="48.45397" lon="7.14681">
        <ele>646</ele>
        <time>2019-05-15T08:03:49.063Z</time>
      </trkpt>
      <trkpt lat="48.45396" lon="7.1468">
        <ele>646</ele>
        <time>2019-05-15T08:03:50.063Z</time>
      </trkpt>
      <trkpt lat="48.45396" lon="7.14679">
        <ele>647</ele>
        <time>2019-05-15T08:03:51.063Z</time>
      </trkpt>
      <trkpt lat="48.45395" lon="7.14678">
        <ele>647</ele>
        <time>2019-05-15T08:03:52.063Z</time>
      </trkpt>
      <trkpt lat="48.45395" lon="7.14677">
        <ele>647</ele>
        <time>2019-05-15T08:03:53.063Z</time>
      </trkpt>
      <trkpt lat="48.45395" lon="7.14676">
        <ele>647</ele>
        <time>2019-05-15T08:03:54.063Z</time>
      </trkpt>
      <trkpt lat="48.45394" lon="7.14674">
        <ele>648</ele>
        <time>2019-05-15T08:03:55.063Z</time>
      </trkpt>
      <trkpt lat="48.45394" lon="7.14673">
        <ele>648</ele>
        <time>2019-05-15T08:03:56.063Z</time>
      </trkpt>
      <trkpt lat="48.45393" lon="7.14671">
        <ele>648</ele>
        <time>2019-05-15T08:03:57.063Z</time>
      </trkpt>
      <trkpt lat="48.45393" lon="7.1467">
        <ele>647</ele>
        <time>2019-05-15T08:03:58.063Z</time>
      </trkpt>
      <trkpt lat="48.45393" lon="7.14668">
        <ele>647</ele>
        <time>2019-05-15T08:03:59.063Z</time>
      </trkpt>
      <trkpt lat="48.45393" lon="7.14667">
        <ele>646</ele>
        <time>2019-05-15T08:04:00.063Z</time>
      </trkpt>
      <trkpt lat="48.45392" lon="7.14666">
        <ele>646</ele>
        <time>2019-05-15T08:04:01.063Z</time>
      </trkpt>
      <trkpt lat="48.45392" lon="7.14664">
        <ele>645</ele>
        <time>2019-05-15T08:04:02.063Z</time>
      </trkpt>
      <trkpt lat="48.45392" lon="7.14663">
        <ele>645</ele>
        <time>2019-05-15T08:04:03.063Z</time>
      </trkpt>
      <trkpt lat="48.45392" lon="7.14662">
        <ele>645</ele>
        <time>2019-05-15T08:04:04.063Z</time>
      </trkpt>
      <trkpt lat="48.45391" lon="7.14661">
        <ele>645</ele>
        <time>2019-05-15T08:04:05.063Z</time>
      </trkpt>
      <trkpt lat="48.45391" lon="7.1466">
        <ele>646</ele>
        <time>2019-05-15T08:04:06.063Z</time>
      </trkpt>
      <trkpt lat="48.4539" lon="7.14659">
        <ele>647</ele>
        <time>2019-05-15T08:04:07.063Z</time>
      </trkpt>
      <trkpt lat="48.45389" lon="7.14658">
        <ele>646</ele>
        <time>2019-05-15T08:04:08.063Z</time>
      </trkpt>
      <trkpt lat="48.45388" lon="7.14657">
        <ele>646</ele>
        <time>2019-05-15T08:04:09.063Z</time>
      </trkpt>
      <trkpt lat="48.45388" lon="7.14656">
        <ele>647</ele>
        <time>2019-05-15T08:04:10.063Z</time>
      </trkpt>
      <trkpt lat="48.45387" lon="7.14655">
        <ele>647</ele>
        <time>2019-05-15T08:04:11.063Z</time>
      </trkpt>
      <trkpt lat="48.45387" lon="7.14654">
        <ele>647</ele>
        <time>2019-05-15T08:04:12.063Z</time>
      </trkpt>
      <trkpt lat="48.45387" lon="7.14652">
        <ele>647</ele>
        <time>2019-05-15T08:04:13.063Z</time>
      </trkpt>
      <trkpt lat="48.45386" lon="7.14651">
        <ele>646</ele>
        <time>2019-05-15T08:04:14.063Z</time>
      </trkpt>
      <trkpt lat="48.45386" lon="7.1465">
        <ele>647</ele>
        <time>2019-05-15T08:04:15.063Z</time>
      </trkpt>
      <trkpt lat="48.45385" lon="7.14649">
        <ele>648</ele>
        <time>2019-05-15T08:04:16.063Z</time>
      </trkpt>
      <trkpt lat="48.45385" lon="7.14648">
        <ele>647</ele>
        <time>2019-05-15T08:04:17.063Z</time>
      </trkpt>
      <trkpt lat="48.45385" lon="7.14646">
        <ele>647</ele>
        <time>2019-05-15T08:04:18.063Z</time>
      </trkpt>
      <trkpt lat="48.45384" lon="7.14645">
        <ele>647</ele>
        <time>2019-05-15T08:04:19.063Z</time>
      </trkpt>
      <trkpt lat="48.45384" lon="7.14643">
        <ele>646</ele>
        <time>2019-05-15T08:04:20.063Z</time>
      </trkpt>
      <trkpt lat="48.45384" lon="7.14642">
        <ele>645</ele>
        <time>2019-05-15T08:04:21.063Z</time>
      </trkpt>
      <trkpt lat="48.45384" lon="7.14641">
        <ele>645</ele>
        <time>2019-05-15T08:04:22.063Z</time>
      </trkpt>
      <trkpt lat="48.45384" lon="7.1464">
        <ele>645</ele>
        <time>2019-05-15T08:04:23.063Z</time>
      </trkpt>
      <trkpt lat="48.45384" lon="7.14639">
        <ele>646</ele>
        <time>2019-05-15T08:04:24.063Z</time>
      </trkpt>
      <trkpt lat="48.45383" lon="7.14638">
        <ele>646</ele>
        <time>2019-05-15T08:04:25.063Z</time>
      </trkpt>
      <trkpt lat="48.45382" lon="7.14638">
        <ele>647</ele>
        <time>2019-05-15T08:04:26.063Z</time>
      </trkpt>
      <trkpt lat="48.45381" lon="7.14637">
        <ele>648</ele>
        <time>2019-05-15T08:04:27.063Z</time>
      </trkpt>
      <trkpt lat="48.4538" lon="7.14636">
        <ele>647</ele>
        <time>2019-05-15T08:04:28.063Z</time>
      </trkpt>
      <trkpt lat="48.45379" lon="7.14635">
        <ele>647</ele>
        <time>2019-05-15T08:04:29.063Z</time>
      </trkpt>
      <trkpt lat="48.45379" lon="7.14634">
        <ele>647</ele>
        <time>2019-05-15T08:04:30.063Z</time>
      </trkpt>
      <trkpt lat="48.45379" lon="7.14633">
        <ele>647</ele>
        <time>2019-05-15T08:04:31.063Z</time>
      </trkpt>
      <trkpt lat="48.45379" lon="7.14632">
        <ele>647</ele>
        <time>2019-05-15T08:04:32.063Z</time>
      </trkpt>
      <trkpt lat="48.45378" lon="7.14631">
        <ele>649</ele>
        <time>2019-05-15T08:04:33.063Z</time>
      </trkpt>
      <trkpt lat="48.45378" lon="7.14631">
        <ele>650</ele>
        <time>2019-05-15T08:04:34.063Z</time>
      </trkpt>
      <trkpt lat="48.45378" lon="7.1463">
        <ele>651</ele>
        <time>2019-05-15T08:04:35.063Z</time>
      </trkpt>
      <trkpt lat="48.45377" lon="7.14629">
        <ele>651</ele>
        <time>2019-05-15T08:04:36.063Z</time>
      </trkpt>
      <trkpt lat="48.45377" lon="7.14628">
        <ele>653</ele>
        <time>2019-05-15T08:04:37.063Z</time>
      </trkpt>
      <trkpt lat="48.45376" lon="7.14627">
        <ele>653</ele>
        <time>2019-05-15T08:04:38.063Z</time>
      </trkpt>
      <trkpt lat="48.45376" lon="7.14626">
        <ele>652</ele>
        <time>2019-05-15T08:04:39.063Z</time>
      </trkpt>
      <trkpt lat="48.45375" lon="7.14626">
        <ele>653</ele>
        <time>2019-05-15T08:04:40.063Z</time>
      </trkpt>
      <trkpt lat="48.45375" lon="7.14625">
        <ele>653</ele>
        <time>2019-05-15T08:04:41.063Z</time>
      </trkpt>
      <trkpt lat="48.45374" lon="7.14624">
        <ele>654</ele>
        <time>2019-05-15T08:04:42.063Z</time>
      </trkpt>
      <trkpt lat="48.45374" lon="7.14623">
        <ele>654</ele>
        <time>2019-05-15T08:04:43.063Z</time>
      </trkpt>
      <trkpt lat="48.45374" lon="7.14622">
        <ele>654</ele>
        <time>2019-05-15T08:04:44.063Z</time>
      </trkpt>
      <trkpt lat="48.45374" lon="7.14621">
        <ele>654</ele>
        <time>2019-05-15T08:04:45.063Z</time>
      </trkpt>
      <trkpt lat="48.45374" lon="7.1462">
        <ele>655</ele>
        <time>2019-05-15T08:04:46.063Z</time>
      </trkpt>
      <trkpt lat="48.45373" lon="7.14619">
        <ele>655</ele>
        <time>2019-05-15T08:04:47.063Z</time>
      </trkpt>
      <trkpt lat="48.45373" lon="7.14619">
        <ele>655</ele>
        <time>2019-05-15T08:04:48.063Z</time>
      </trkpt>
      <trkpt lat="48.45373" lon="7.14618">
        <ele>656</ele>
        <time>2019-05-15T08:04:49.063Z</time>
      </trkpt>
      <trkpt lat="48.45372" lon="7.14617">
        <ele>655</ele>
        <time>2019-05-15T08:04:50.063Z</time>
      </trkpt>
      <trkpt lat="48.45372" lon="7.14616">
        <ele>654</ele>
        <time>2019-05-15T08:04:51.063Z</time>
      </trkpt>
      <trkpt lat="48.45372" lon="7.14615">
        <ele>654</ele>
        <time>2019-05-15T08:04:52.063Z</time>
      </trkpt>
      <trkpt lat="48.45372" lon="7.14614">
        <ele>654</ele>
        <time>2019-05-15T08:04:53.063Z</time>
      </trkpt>
      <trkpt lat="48.45372" lon="7.14613">
        <ele>655</ele>
        <time>2019-05-15T08:04:54.063Z</time>
      </trkpt>
      <trkpt lat="48.45372" lon="7.14613">
        <ele>655</ele>
        <time>2019-05-15T08:04:55.063Z</time>
      </trkpt>
      <trkpt lat="48.45371" lon="7.14613">
        <ele>657</ele>
        <time>2019-05-15T08:04:56.063Z</time>
      </trkpt>
      <trkpt lat="48.45371" lon="7.14612">
        <ele>657</ele>
        <time>2019-05-15T08:04:57.063Z</time>
      </trkpt>
      <trkpt lat="48.4537" lon="7.14612">
        <ele>658</ele>
        <time>2019-05-15T08:04:58.063Z</time>
      </trkpt>
      <trkpt lat="48.4537" lon="7.14611">
        <ele>657</ele>
        <time>2019-05-15T08:04:59.063Z</time>
      </trkpt>
      <trkpt lat="48.4537" lon="7.1461">
        <ele>654</ele>
        <time>2019-05-15T08:05:00.063Z</time>
      </trkpt>
      <trkpt lat="48.45371" lon="7.14608">
        <ele>654</ele>
        <time>2019-05-15T08:05:01.063Z</time>
      </trkpt>
      <trkpt lat="48.45371" lon="7.14607">
        <ele>654</ele>
        <time>2019-05-15T08:05:02.063Z</time>
      </trkpt>
      <trkpt lat="48.45371" lon="7.14606">
        <ele>654</ele>
        <time>2019-05-15T08:05:03.063Z</time>
      </trkpt>
      <trkpt lat="48.45371" lon="7.14606">
        <ele>654</ele>
        <time>2019-05-15T08:05:04.063Z</time>
      </trkpt>
      <trkpt lat="48.45371" lon="7.14605">
        <ele>654</ele>
        <time>2019-05-15T08:05:05.063Z</time>
      </trkpt>
      <trkpt lat="48.45371" lon="7.14604">
        <ele>655</ele>
        <time>2019-05-15T08:05:06.063Z</time>
      </trkpt>
      <trkpt lat="48.45371" lon="7.14603">
        <ele>654</ele>
        <time>2019-05-15T08:05:07.063Z</time>
      </trkpt>
      <trkpt lat="48.45372" lon="7.14603">
        <ele>655</ele>
        <time>2019-05-15T08:05:08.063Z</time>
      </trkpt>
      <trkpt lat="48.45372" lon="7.14603">
        <ele>655</ele>
        <time>2019-05-15T08:05:09.063Z</time>
      </trkpt>
      <trkpt lat="48.45373" lon="7.14603">
        <ele>656</ele>
        <time>2019-05-15T08:05:10.063Z</time>
      </trkpt>
      <trkpt lat="48.45373" lon="7.14603">
        <ele>656</ele>
        <time>2019-05-15T08:05:11.063Z</time>
      </trkpt>
      <trkpt lat="48.45374" lon="7.14604">
        <ele>656</ele>
        <time>2019-05-15T08:05:12.063Z</time>
      </trkpt>
      <trkpt lat="48.45374" lon="7.14604">
        <ele>657</ele>
        <time>2019-05-15T08:05:13.063Z</time>
      </trkpt>
      <trkpt lat="48.45374" lon="7.14604">
        <ele>657</ele>
        <time>2019-05-15T08:05:14.063Z</time>
      </trkpt>
      <trkpt lat="48.45375" lon="7.14604">
        <ele>656</ele>
        <time>2019-05-15T08:05:15.063Z</time>
      </trkpt>
      <trkpt lat="48.45375" lon="7.14604">
        <ele>657</ele>
        <time>2019-05-15T08:05:16.063Z</time>
      </trkpt>
      <trkpt lat="48.45376" lon="7.14604">
        <ele>658</ele>
        <time>2019-05-15T08:05:17.063Z</time>
      </trkpt>
      <trkpt lat="48.45376" lon="7.14604">
        <ele>658</ele>
        <time>2019-05-15T08:05:18.063Z</time>
      </trkpt>
      <trkpt lat="48.45377" lon="7.14604">
        <ele>658</ele>
        <time>2019-05-15T08:05:19.063Z</time>
      </trkpt>
      <trkpt lat="48.45378" lon="7.14604">
        <ele>659</ele>
        <time>2019-05-15T08:05:20.063Z</time>
      </trkpt>
      <trkpt lat="48.45378" lon="7.14604">
        <ele>659</ele>
        <time>2019-05-15T08:05:21.063Z</time>
      </trkpt>
      <trkpt lat="48.45379" lon="7.14604">
        <ele>659</ele>
        <time>2019-05-15T08:05:22.063Z</time>
      </trkpt>
      <trkpt lat="48.45379" lon="7.14604">
        <ele>659</ele>
        <time>2019-05-15T08:05:23.063Z</time>
      </trkpt>
      <trkpt lat="48.45379" lon="7.14604">
        <ele>660</ele>
        <time>2019-05-15T08:05:24.063Z</time>
      </trkpt>
      <trkpt lat="48.4538" lon="7.14605">
        <ele>659</ele>
        <time>2019-05-15T08:05:25.063Z</time>
      </trkpt>
      <trkpt lat="48.4538" lon="7.14605">
        <ele>661</ele>
        <time>2019-05-15T08:05:26.063Z</time>
      </trkpt>
      <trkpt lat="48.45381" lon="7.14605">
        <ele>661</ele>
        <time>2019-05-15T08:05:27.063Z</time>
      </trkpt>
      <trkpt lat="48.45381" lon="7.14606">
        <ele>661</ele>
        <time>2019-05-15T08:05:28.063Z</time>
      </trkpt>
      <trkpt lat="48.45382" lon="7.14606">
        <ele>661</ele>
        <time>2019-05-15T08:05:29.063Z</time>
      </trkpt>
      <trkpt lat="48.45382" lon="7.14606">
        <ele>661</ele>
        <time>2019-05-15T08:05:30.063Z</time>
      </trkpt>
      <trkpt lat="48.45383" lon="7.14606">
        <ele>660</ele>
        <time>2019-05-15T08:05:31.063Z</time>
      </trkpt>
      <trkpt lat="48.45383" lon="7.14606">
        <ele>659</ele>
        <time>2019-05-15T08:05:32.063Z</time>
      </trkpt>
      <trkpt lat="48.45384" lon="7.14606">
        <ele>659</ele>
        <time>2019-05-15T08:05:33.063Z</time>
      </trkpt>
      <trkpt lat="48.45385" lon="7.14606">
        <ele>659</ele>
        <time>2019-05-15T08:05:34.063Z</time>
      </trkpt>
      <trkpt lat="48.45386" lon="7.14606">
        <ele>659</ele>
        <time>2019-05-15T08:05:35.063Z</time>
      </trkpt>
      <trkpt lat="48.45386" lon="7.14606">
        <ele>660</ele>
        <time>2019-05-15T08:05:36.063Z</time>
      </trkpt>
      <trkpt lat="48.45387" lon="7.14606">
        <ele>660</ele>
        <time>2019-05-15T08:05:37.063Z</time>
      </trkpt>
      <trkpt lat="48.45388" lon="7.14607">
        <ele>660</ele>
        <time>2019-05-15T08:05:38.063Z</time>
      </trkpt>
      <trkpt lat="48.45388" lon="7.14608">
        <ele>661</ele>
        <time>2019-05-15T08:05:39.063Z</time>
      </trkpt>
      <trkpt lat="48.45388" lon="7.14608">
        <ele>663</ele>
        <time>2019-05-15T08:05:40.063Z</time>
      </trkpt>
      <trkpt lat="48.45389" lon="7.14609">
        <ele>663</ele>
        <time>2019-05-15T08:05:41.063Z</time>
      </trkpt>
      <trkpt lat="48.45389" lon="7.14609">
        <ele>663</ele>
        <time>2019-05-15T08:05:42.063Z</time>
      </trkpt>
      <trkpt lat="48.45389" lon="7.14609">
        <ele>664</ele>
        <time>2019-05-15T08:05:43.063Z</time>
      </trkpt>
      <trkpt lat="48.4539" lon="7.14609">
        <ele>663</ele>
        <time>2019-05-15T08:05:44.063Z</time>
      </trkpt>
      <trkpt lat="48.4539" lon="7.14608">
        <ele>664</ele>
        <time>2019-05-15T08:05:45.063Z</time>
      </trkpt>
      <trkpt lat="48.45391" lon="7.14609">
        <ele>664</ele>
        <time>2019-05-15T08:05:46.063Z</time>
      </trkpt>
      <trkpt lat="48.45391" lon="7.14608">
        <ele>663</ele>
        <time>2019-05-15T08:05:47.063Z</time>
      </trkpt>
      <trkpt lat="48.45391" lon="7.14608">
        <ele>664</ele>
        <time>2019-05-15T08:05:48.063Z</time>
      </trkpt>
      <trkpt lat="48.45392" lon="7.14608">
        <ele>665</ele>
        <time>2019-05-15T08:05:49.063Z</time>
      </trkpt>
      <trkpt lat="48.45392" lon="7.14608">
        <ele>666</ele>
        <time>2019-05-15T08:05:50.063Z</time>
      </trkpt>
      <trkpt lat="48.45392" lon="7.14607">
        <ele>666</ele>
        <time>2019-05-15T08:05:51.063Z</time>
      </trkpt>
      <trkpt lat="48.45392" lon="7.14607">
        <ele>666</ele>
        <time>2019-05-15T08:05:52.063Z</time>
      </trkpt>
      <trkpt lat="48.45392" lon="7.14607">
        <ele>665</ele>
        <time>2019-05-15T08:05:53.063Z</time>
      </trkpt>
      <trkpt lat="48.45393" lon="7.14606">
        <ele>665</ele>
        <time>2019-05-15T08:05:54.063Z</time>
      </trkpt>
      <trkpt lat="48.45393" lon="7.14606">
        <ele>664</ele>
        <time>2019-05-15T08:05:55.063Z</time>
      </trkpt>
      <trkpt lat="48.45393" lon="7.14606">
        <ele>663</ele>
        <time>2019-05-15T08:05:56.063Z</time>
      </trkpt>
      <trkpt lat="48.45392" lon="7.14606">
        <ele>663</ele>
        <time>2019-05-15T08:05:57.063Z</time>
      </trkpt>
      <trkpt lat="48.45392" lon="7.14606">
        <ele>663</ele>
        <time>2019-05-15T08:05:58.063Z</time>
      </trkpt>
      <trkpt lat="48.45392" lon="7.14605">
        <ele>664</ele>
        <time>2019-05-15T08:05:59.063Z</time>
      </trkpt>
      <trkpt lat="48.45392" lon="7.14605">
        <ele>664</ele>
        <time>2019-05-15T08:06:00.063Z</time>
      </trkpt>
      <trkpt lat="48.45392" lon="7.14604">
        <ele>664</ele>
        <time>2019-05-15T08:06:01.063Z</time>
      </trkpt>
      <trkpt lat="48.45391" lon="7.14604">
        <ele>665</ele>
        <time>2019-05-15T08:06:02.063Z</time>
      </trkpt>
      <trkpt lat="48.45391" lon="7.14603">
        <ele>665</ele>
        <time>2019-05-15T08:06:03.063Z</time>
      </trkpt>
      <trkpt lat="48.45391" lon="7.14602">
        <ele>664</ele>
        <time>2019-05-15T08:06:04.063Z</time>
      </trkpt>
      <trkpt lat="48.45391" lon="7.14602">
        <ele>664</ele>
        <time>2019-05-15T08:06:05.063Z</time>
      </trkpt>
      <trkpt lat="48.45391" lon="7.14601">
        <ele>664</ele>
        <time>2019-05-15T08:06:06.063Z</time>
      </trkpt>
      <trkpt lat="48.4539" lon="7.146">
        <ele>664</ele>
        <time>2019-05-15T08:06:07.063Z</time>
      </trkpt>
      <trkpt lat="48.4539" lon="7.146">
        <ele>664</ele>
        <time>2019-05-15T08:06:08.063Z</time>
      </trkpt>
      <trkpt lat="48.4539" lon="7.14599">
        <ele>663</ele>
        <time>2019-05-15T08:06:09.063Z</time>
      </trkpt>
      <trkpt lat="48.4539" lon="7.14598">
        <ele>664</ele>
        <time>2019-05-15T08:06:10.063Z</time>
      </trkpt>
      <trkpt lat="48.4539" lon="7.14598">
        <ele>664</ele>
        <time>2019-05-15T08:06:11.063Z</time>
      </trkpt>
      <trkpt lat="48.4539" lon="7.14597">
        <ele>664</ele>
        <time>2019-05-15T08:06:12.063Z</time>
      </trkpt>
      <trkpt lat="48.4539" lon="7.14596">
        <ele>664</ele>
        <time>2019-05-15T08:06:13.063Z</time>
      </trkpt>
      <trkpt lat="48.4539" lon="7.14595">
        <ele>663</ele>
        <time>2019-05-15T08:06:14.063Z</time>
      </trkpt>
      <trkpt lat="48.4539" lon="7.14595">
        <ele>664</ele>
        <time>2019-05-15T08:06:15.063Z</time>
      </trkpt>
      <trkpt lat="48.45389" lon="7.14594">
        <ele>664</ele>
        <time>2019-05-15T08:06:16.063Z</time>
      </trkpt>
      <trkpt lat="48.45389" lon="7.14593">
        <ele>663</ele>
        <time>2019-05-15T08:06:17.063Z</time>
      </trkpt>
      <trkpt lat="48.45389" lon="7.14592">
        <ele>662</ele>
        <time>2019-05-15T08:06:18.063Z</time>
      </trkpt>
      <trkpt lat="48.45389" lon="7.14591">
        <ele>661</ele>
        <time>2019-05-15T08:06:19.063Z</time>
      </trkpt>
      <trkpt lat="48.45389" lon="7.14591">
        <ele>661</ele>
        <time>2019-05-15T08:06:20.063Z</time>
      </trkpt>
      <trkpt lat="48.45388" lon="7.1459">
        <ele>661</ele>
        <time>2019-05-15T08:06:21.063Z</time>
      </trkpt>
      <trkpt lat="48.45388" lon="7.1459">
        <ele>660</ele>
        <time>2019-05-15T08:06:22.063Z</time>
      </trkpt>
      <trkpt lat="48.45387" lon="7.14589">
        <ele>661</ele>
        <time>2019-05-15T08:06:23.063Z</time>
      </trkpt>
      <trkpt lat="48.45387" lon="7.14589">
        <ele>661</ele>
        <time>2019-05-15T08:06:24.063Z</time>
      </trkpt>
      <trkpt lat="48.45386" lon="7.14588">
        <ele>661</ele>
        <time>2019-05-15T08:06:25.063Z</time>
      </trkpt>
      <trkpt lat="48.45386" lon="7.14588">
        <ele>662</ele>
        <time>2019-05-15T08:06:26.063Z</time>
      </trkpt>
      <trkpt lat="48.45386" lon="7.14587">
        <ele>663</ele>
        <time>2019-05-15T08:06:27.063Z</time>
      </trkpt>
      <trkpt lat="48.45385" lon="7.14587">
        <ele>663</ele>
        <time>2019-05-15T08:06:28.063Z</time>
      </trkpt>
      <trkpt lat="48.45385" lon="7.14586">
        <ele>663</ele>
        <time>2019-05-15T08:06:29.063Z</time>
      </trkpt>
      <trkpt lat="48.45385" lon="7.14586">
        <ele>663</ele>
        <time>2019-05-15T08:06:30.063Z</time>
      </trkpt>
      <trkpt lat="48.45384" lon="7.14586">
        <ele>663</ele>
        <time>2019-05-15T08:06:31.063Z</time>
      </trkpt>
      <trkpt lat="48.45384" lon="7.14586">
        <ele>662</ele>
        <time>2019-05-15T08:06:32.063Z</time>
      </trkpt>
      <trkpt lat="48.45384" lon="7.14585">
        <ele>663</ele>
        <time>2019-05-15T08:06:33.063Z</time>
      </trkpt>
      <trkpt lat="48.45384" lon="7.14584">
        <ele>664</ele>
        <time>2019-05-15T08:06:34.063Z</time>
      </trkpt>
      <trkpt lat="48.45383" lon="7.14584">
        <ele>664</ele>
        <time>2019-05-15T08:06:35.063Z</time>
      </trkpt>
      <trkpt lat="48.45383" lon="7.14583">
        <ele>664</ele>
        <time>2019-05-15T08:06:36.063Z</time>
      </trkpt>
      <trkpt lat="48.45383" lon="7.14582">
        <ele>664</ele>
        <time>2019-05-15T08:06:37.063Z</time>
      </trkpt>
      <trkpt lat="48.45383" lon="7.14582">
        <ele>665</ele>
        <time>2019-05-15T08:06:38.063Z</time>
      </trkpt>
      <trkpt lat="48.45382" lon="7.14582">
        <ele>665</ele>
        <time>2019-05-15T08:06:39.063Z</time>
      </trkpt>
      <trkpt lat="48.45382" lon="7.14581">
        <ele>666</ele>
        <time>2019-05-15T08:06:40.063Z</time>
      </trkpt>
      <trkpt lat="48.45382" lon="7.14581">
        <ele>667</ele>
        <time>2019-05-15T08:06:41.063Z</time>
      </trkpt>
      <trkpt lat="48.45382" lon="7.14581">
        <ele>667</ele>
        <time>2019-05-15T08:06:42.063Z</time>
      </trkpt>
      <trkpt lat="48.45381" lon="7.1458">
        <ele>667</ele>
        <time>2019-05-15T08:06:43.063Z</time>
      </trkpt>
      <trkpt lat="48.45381" lon="7.1458">
        <ele>668</ele>
        <time>2019-05-15T08:06:44.063Z</time>
      </trkpt>
      <trkpt lat="48.45381" lon="7.1458">
        <ele>668</ele>
        <time>2019-05-15T08:06:45.063Z</time>
      </trkpt>
      <trkpt lat="48.4538" lon="7.1458">
        <ele>668</ele>
        <time>2019-05-15T08:06:46.063Z</time>
      </trkpt>
      <trkpt lat="48.4538" lon="7.14579">
        <ele>668</ele>
        <time>2019-05-15T08:06:47.063Z</time>
      </trkpt>
      <trkpt lat="48.4538" lon="7.14578">
        <ele>667</ele>
        <time>2019-05-15T08:06:48.063Z</time>
      </trkpt>
      <trkpt lat="48.4538" lon="7.14576">
        <ele>666</ele>
        <time>2019-05-15T08:06:49.063Z</time>
      </trkpt>
      <trkpt lat="48.45379" lon="7.14575">
        <ele>666</ele>
        <time>2019-05-15T08:06:50.063Z</time>
      </trkpt>
      <trkpt lat="48.45379" lon="7.14574">
        <ele>667</ele>
        <time>2019-05-15T08:06:51.063Z</time>
      </trkpt>
      <trkpt lat="48.45379" lon="7.14573">
        <ele>667</ele>
        <time>2019-05-15T08:06:52.063Z</time>
      </trkpt>
      <trkpt lat="48.45379" lon="7.14572">
        <ele>667</ele>
        <time>2019-05-15T08:06:53.063Z</time>
      </trkpt>
      <trkpt lat="48.45378" lon="7.14571">
        <ele>667</ele>
        <time>2019-05-15T08:06:54.063Z</time>
      </trkpt>
      <trkpt lat="48.45378" lon="7.1457">
        <ele>666</ele>
        <time>2019-05-15T08:06:55.063Z</time>
      </trkpt>
      <trkpt lat="48.45378" lon="7.14569">
        <ele>666</ele>
        <time>2019-05-15T08:06:56.063Z</time>
      </trkpt>
      <trkpt lat="48.45378" lon="7.14569">
        <ele>666</ele>
        <time>2019-05-15T08:06:57.063Z</time>
      </trkpt>
      <trkpt lat="48.45377" lon="7.14568">
        <ele>665</ele>
        <time>2019-05-15T08:06:58.063Z</time>
      </trkpt>
      <trkpt lat="48.45377" lon="7.14567">
        <ele>666</ele>
        <time>2019-05-15T08:06:59.063Z</time>
      </trkpt>
      <trkpt lat="48.45376" lon="7.14567">
        <ele>666</ele>
        <time>2019-05-15T08:07:00.063Z</time>
      </trkpt>
      <trkpt lat="48.45376" lon="7.14566">
        <ele>666</ele>
        <time>2019-05-15T08:07:01.063Z</time>
      </trkpt>
      <trkpt lat="48.45376" lon="7.14565">
        <ele>667</ele>
        <time>2019-05-15T08:07:02.063Z</time>
      </trkpt>
      <trkpt lat="48.45375" lon="7.14566">
        <ele>667</ele>
        <time>2019-05-15T08:07:03.063Z</time>
      </trkpt>
      <trkpt lat="48.45375" lon="7.14565">
        <ele>667</ele>
        <time>2019-05-15T08:07:04.063Z</time>
      </trkpt>
      <trkpt lat="48.45374" lon="7.14565">
        <ele>667</ele>
        <time>2019-05-15T08:07:05.063Z</time>
      </trkpt>
      <trkpt lat="48.45374" lon="7.14565">
        <ele>668</ele>
        <time>2019-05-15T08:07:06.063Z</time>
      </trkpt>
      <trkpt lat="48.45373" lon="7.14565">
        <ele>668</ele>
        <time>2019-05-15T08:07:07.063Z</time>
      </trkpt>
      <trkpt lat="48.45373" lon="7.14564">
        <ele>668</ele>
        <time>2019-05-15T08:07:08.063Z</time>
      </trkpt>
      <trkpt lat="48.45373" lon="7.14563">
        <ele>668</ele>
        <time>2019-05-15T08:07:09.063Z</time>
      </trkpt>
      <trkpt lat="48.45373" lon="7.14562">
        <ele>668</ele>
        <time>2019-05-15T08:07:10.063Z</time>
      </trkpt>
      <trkpt lat="48.45372" lon="7.14561">
        <ele>668</ele>
        <time>2019-05-15T08:07:11.063Z</time>
      </trkpt>
      <trkpt lat="48.45372" lon="7.14561">
        <ele>669</ele>
        <time>2019-05-15T08:07:12.063Z</time>
      </trkpt>
      <trkpt lat="48.45372" lon="7.1456">
        <ele>669</ele>
        <time>2019-05-15T08:07:13.063Z</time>
      </trkpt>
      <trkpt lat="48.45371" lon="7.1456">
        <ele>669</ele>
        <time>2019-05-15T08:07:14.063Z</time>
      </trkpt>
      <trkpt lat="48.45371" lon="7.14558">
        <ele>667</ele>
        <time>2019-05-15T08:07:15.063Z</time>
      </trkpt>
      <trkpt lat="48.45372" lon="7.14557">
        <ele>667</ele>
        <time>2019-05-15T08:07:16.063Z</time>
      </trkpt>
      <trkpt lat="48.45372" lon="7.14555">
        <ele>666</ele>
        <time>2019-05-15T08:07:17.063Z</time>
      </trkpt>
      <trkpt lat="48.45372" lon="7.14554">
        <ele>666</ele>
        <time>2019-05-15T08:07:18.063Z</time>
      </trkpt>
      <trkpt lat="48.45371" lon="7.14553">
        <ele>667</ele>
        <time>2019-05-15T08:07:19.063Z</time>
      </trkpt>
      <trkpt lat="48.45371" lon="7.14553">
        <ele>668</ele>
        <time>2019-05-15T08:07:20.063Z</time>
      </trkpt>
      <trkpt lat="48.45371" lon="7.14552">
        <ele>667</ele>
        <time>2019-05-15T08:07:21.063Z</time>
      </trkpt>
      <trkpt lat="48.45371" lon="7.14551">
        <ele>667</ele>
        <time>2019-05-15T08:07:22.063Z</time>
      </trkpt>
      <trkpt lat="48.4537" lon="7.1455">
        <ele>667</ele>
        <time>2019-05-15T08:07:23.063Z</time>
      </trkpt>
      <trkpt lat="48.4537" lon="7.1455">
        <ele>668</ele>
        <time>2019-05-15T08:07:24.063Z</time>
      </trkpt>
      <trkpt lat="48.4537" lon="7.14549">
        <ele>668</ele>
        <time>2019-05-15T08:07:25.063Z</time>
      </trkpt>
      <trkpt lat="48.45369" lon="7.14549">
        <ele>669</ele>
        <time>2019-05-15T08:07:26.063Z</time>
      </trkpt>
      <trkpt lat="48.45369" lon="7.14549">
        <ele>670</ele>
        <time>2019-05-15T08:07:27.063Z</time>
      </trkpt>
      <trkpt lat="48.45369" lon="7.14549">
        <ele>672</ele>
        <time>2019-05-15T08:07:28.063Z</time>
      </trkpt>
      <trkpt lat="48.45369" lon="7.14549">
        <ele>673</ele>
        <time>2019-05-15T08:07:29.063Z</time>
      </trkpt>
      <trkpt lat="48.45368" lon="7.14549">
        <ele>674</ele>
        <time>2019-05-15T08:07:30.063Z</time>
      </trkpt>
      <trkpt lat="48.45368" lon="7.14549">
        <ele>673</ele>
        <time>2019-05-15T08:07:31.063Z</time>
      </trkpt>
      <trkpt lat="48.45367" lon="7.14548">
        <ele>674</ele>
        <time>2019-05-15T08:07:32.063Z</time>
      </trkpt>
      <trkpt lat="48.45367" lon="7.14548">
        <ele>673</ele>
        <time>2019-05-15T08:07:33.063Z</time>
      </trkpt>
      <trkpt lat="48.45367" lon="7.14547">
        <ele>674</ele>
        <time>2019-05-15T08:07:34.063Z</time>
      </trkpt>
      <trkpt lat="48.45367" lon="7.14546">
        <ele>673</ele>
        <time>2019-05-15T08:07:35.063Z</time>
      </trkpt>
      <trkpt lat="48.45367" lon="7.14545">
        <ele>673</ele>
        <time>2019-05-15T08:07:36.063Z</time>
      </trkpt>
      <trkpt lat="48.45367" lon="7.14543">
        <ele>672</ele>
        <time>2019-05-15T08:07:37.063Z</time>
      </trkpt>
      <trkpt lat="48.45367" lon="7.14541">
        <ele>672</ele>
        <time>2019-05-15T08:07:38.063Z</time>
      </trkpt>
      <trkpt lat="48.45366" lon="7.1454">
        <ele>673</ele>
        <time>2019-05-15T08:07:39.063Z</time>
      </trkpt>
      <trkpt lat="48.45366" lon="7.14539">
        <ele>671</ele>
        <time>2019-05-15T08:07:40.063Z</time>
      </trkpt>
      <trkpt lat="48.45366" lon="7.14538">
        <ele>672</ele>
        <time>2019-05-15T08:07:41.063Z</time>
      </trkpt>
      <trkpt lat="48.45365" lon="7.14537">
        <ele>672</ele>
        <time>2019-05-15T08:07:42.063Z</time>
      </trkpt>
      <trkpt lat="48.45365" lon="7.14536">
        <ele>671</ele>
        <time>2019-05-15T08:07:43.063Z</time>
      </trkpt>
      <trkpt lat="48.45365" lon="7.14535">
        <ele>670</ele>
        <time>2019-05-15T08:07:44.063Z</time>
      </trkpt>
      <trkpt lat="48.45365" lon="7.14534">
        <ele>670</ele>
        <time>2019-05-15T08:07:45.063Z</time>
      </trkpt>
      <trkpt lat="48.45365" lon="7.14533">
        <ele>669</ele>
        <time>2019-05-15T08:07:46.063Z</time>
      </trkpt>
      <trkpt lat="48.45364" lon="7.14531">
        <ele>669</ele>
        <time>2019-05-15T08:07:47.063Z</time>
      </trkpt>
      <trkpt lat="48.45364" lon="7.1453">
        <ele>668</ele>
        <time>2019-05-15T08:07:48.063Z</time>
      </trkpt>
      <trkpt lat="48.45364" lon="7.14528">
        <ele>667</ele>
        <time>2019-05-15T08:07:49.063Z</time>
      </trkpt>
      <trkpt lat="48.45364" lon="7.14527">
        <ele>667</ele>
        <time>2019-05-15T08:07:50.063Z</time>
      </trkpt>
      <trkpt lat="48.45364" lon="7.14526">
        <ele>667</ele>
        <time>2019-05-15T08:07:51.063Z</time>
      </trkpt>
      <trkpt lat="48.45364" lon="7.14525">
        <ele>667</ele>
        <time>2019-05-15T08:07:52.063Z</time>
      </trkpt>
      <trkpt lat="48.45364" lon="7.14525">
        <ele>668</ele>
        <time>2019-05-15T08:07:53.063Z</time>
      </trkpt>
      <trkpt lat="48.45363" lon="7.14525">
        <ele>670</ele>
        <time>2019-05-15T08:07:54.063Z</time>
      </trkpt>
      <trkpt lat="48.45362" lon="7.14525">
        <ele>671</ele>
        <time>2019-05-15T08:07:55.063Z</time>
      </trkpt>
      <trkpt lat="48.45361" lon="7.14525">
        <ele>672</ele>
        <time>2019-05-15T08:07:56.063Z</time>
      </trkpt>
      <trkpt lat="48.4536" lon="7.14525">
        <ele>673</ele>
        <time>2019-05-15T08:07:57.063Z</time>
      </trkpt>
      <trkpt lat="48.45359" lon="7.14525">
        <ele>672</ele>
        <time>2019-05-15T08:07:58.063Z</time>
      </trkpt>
      <trkpt lat="48.45359" lon="7.14524">
        <ele>673</ele>
        <time>2019-05-15T08:07:59.063Z</time>
      </trkpt>
      <trkpt lat="48.45358" lon="7.14524">
        <ele>674</ele>
        <time>2019-05-15T08:08:00.063Z</time>
      </trkpt>
      <trkpt lat="48.45358" lon="7.14524">
        <ele>673</ele>
        <time>2019-05-15T08:08:01.063Z</time>
      </trkpt>
      <trkpt lat="48.45357" lon="7.14524">
        <ele>673</ele>
        <time>2019-05-15T08:08:02.063Z</time>
      </trkpt>
      <trkpt lat="48.45356" lon="7.14523">
        <ele>674</ele>
        <time>2019-05-15T08:08:03.063Z</time>
      </trkpt>
      <trkpt lat="48.45355" lon="7.14523">
        <ele>676</ele>
        <time>2019-05-15T08:08:04.063Z</time>
      </trkpt>
      <trkpt lat="48.45355" lon="7.14523">
        <ele>676</ele>
        <time>2019-05-15T08:08:05.063Z</time>
      </trkpt>
      <trkpt lat="48.45354" lon="7.14523">
        <ele>676</ele>
        <time>2019-05-15T08:08:06.063Z</time>
      </trkpt>
      <trkpt lat="48.45353" lon="7.14522">
        <ele>676</ele>
        <time>2019-05-15T08:08:07.063Z</time>
      </trkpt>
      <trkpt lat="48.45353" lon="7.14522">
        <ele>676</ele>
        <time>2019-05-15T08:08:08.063Z</time>
      </trkpt>
      <trkpt lat="48.45353" lon="7.14521">
        <ele>676</ele>
        <time>2019-05-15T08:08:09.063Z</time>
      </trkpt>
      <trkpt lat="48.45352" lon="7.1452">
        <ele>676</ele>
        <time>2019-05-15T08:08:10.063Z</time>
      </trkpt>
      <trkpt lat="48.45352" lon="7.14519">
        <ele>675</ele>
        <time>2019-05-15T08:08:11.063Z</time>
      </trkpt>
      <trkpt lat="48.45351" lon="7.14519">
        <ele>675</ele>
        <time>2019-05-15T08:08:12.063Z</time>
      </trkpt>
      <trkpt lat="48.45351" lon="7.14518">
        <ele>674</ele>
        <time>2019-05-15T08:08:13.063Z</time>
      </trkpt>
      <trkpt lat="48.4535" lon="7.14517">
        <ele>674</ele>
        <time>2019-05-15T08:08:14.063Z</time>
      </trkpt>
      <trkpt lat="48.4535" lon="7.14516">
        <ele>675</ele>
        <time>2019-05-15T08:08:15.063Z</time>
      </trkpt>
      <trkpt lat="48.45349" lon="7.14516">
        <ele>676</ele>
        <time>2019-05-15T08:08:16.063Z</time>
      </trkpt>
      <trkpt lat="48.45349" lon="7.14515">
        <ele>678</ele>
        <time>2019-05-15T08:08:17.063Z</time>
      </trkpt>
      <trkpt lat="48.45348" lon="7.14515">
        <ele>678</ele>
        <time>2019-05-15T08:08:18.063Z</time>
      </trkpt>
      <trkpt lat="48.45347" lon="7.14515">
        <ele>679</ele>
        <time>2019-05-15T08:08:19.063Z</time>
      </trkpt>
      <trkpt lat="48.45347" lon="7.14515">
        <ele>679</ele>
        <time>2019-05-15T08:08:20.063Z</time>
      </trkpt>
      <trkpt lat="48.45347" lon="7.14514">
        <ele>678</ele>
        <time>2019-05-15T08:08:21.063Z</time>
      </trkpt>
      <trkpt lat="48.45347" lon="7.14513">
        <ele>679</ele>
        <time>2019-05-15T08:08:22.063Z</time>
      </trkpt>
      <trkpt lat="48.45346" lon="7.14513">
        <ele>679</ele>
        <time>2019-05-15T08:08:23.063Z</time>
      </trkpt>
      <trkpt lat="48.45346" lon="7.14512">
        <ele>679</ele>
        <time>2019-05-15T08:08:24.063Z</time>
      </trkpt>
      <trkpt lat="48.45345" lon="7.14511">
        <ele>678</ele>
        <time>2019-05-15T08:08:25.063Z</time>
      </trkpt>
      <trkpt lat="48.45345" lon="7.1451">
        <ele>679</ele>
        <time>2019-05-15T08:08:26.063Z</time>
      </trkpt>
      <trkpt lat="48.45345" lon="7.14509">
        <ele>679</ele>
        <time>2019-05-15T08:08:27.063Z</time>
      </trkpt>
      <trkpt lat="48.45344" lon="7.14508">
        <ele>679</ele>
        <time>2019-05-15T08:08:28.063Z</time>
      </trkpt>
      <trkpt lat="48.45344" lon="7.14508">
        <ele>679</ele>
        <time>2019-05-15T08:08:29.063Z</time>
      </trkpt>
      <trkpt lat="48.45343" lon="7.14507">
        <ele>679</ele>
        <time>2019-05-15T08:08:30.063Z</time>
      </trkpt>
      <trkpt lat="48.45343" lon="7.14507">
        <ele>680</ele>
        <time>2019-05-15T08:08:31.063Z</time>
      </trkpt>
      <trkpt lat="48.45343" lon="7.14506">
        <ele>680</ele>
        <time>2019-05-15T08:08:32.063Z</time>
      </trkpt>
      <trkpt lat="48.45342" lon="7.14506">
        <ele>681</ele>
        <time>2019-05-15T08:08:33.063Z</time>
      </trkpt>
      <trkpt lat="48.45342" lon="7.14505">
        <ele>680</ele>
        <time>2019-05-15T08:08:34.063Z</time>
      </trkpt>
      <trkpt lat="48.45341" lon="7.14505">
        <ele>681</ele>
        <time>2019-05-15T08:08:35.063Z</time>
      </trkpt>
      <trkpt lat="48.4534" lon="7.14504">
        <ele>680</ele>
        <time>2019-05-15T08:08:36.063Z</time>
      </trkpt>
      <trkpt lat="48.4534" lon="7.14504">
        <ele>680</ele>
        <time>2019-05-15T08:08:37.063Z</time>
      </trkpt>
      <trkpt lat="48.45339" lon="7.14503">
        <ele>680</ele>
        <time>2019-05-15T08:08:38.063Z</time>
      </trkpt>
      <trkpt lat="48.45339" lon="7.14503">
        <ele>680</ele>
        <time>2019-05-15T08:08:39.063Z</time>
      </trkpt>
      <trkpt lat="48.45339" lon="7.14502">
        <ele>680</ele>
        <time>2019-05-15T08:08:40.063Z</time>
      </trkpt>
      <trkpt lat="48.45338" lon="7.14501">
        <ele>680</ele>
        <time>2019-05-15T08:08:41.063Z</time>
      </trkpt>
      <trkpt lat="48.45338" lon="7.14501">
        <ele>680</ele>
        <time>2019-05-15T08:08:42.063Z</time>
      </trkpt>
      <trkpt lat="48.45338" lon="7.145">
        <ele>679</ele>
        <time>2019-05-15T08:08:43.063Z</time>
      </trkpt>
      <trkpt lat="48.45337" lon="7.14499">
        <ele>679</ele>
        <time>2019-05-15T08:08:44.063Z</time>
      </trkpt>
      <trkpt lat="48.45337" lon="7.14498">
        <ele>680</ele>
        <time>2019-05-15T08:08:45.063Z</time>
      </trkpt>
      <trkpt lat="48.45336" lon="7.14498">
        <ele>680</ele>
        <time>2019-05-15T08:08:46.063Z</time>
      </trkpt>
      <trkpt lat="48.45336" lon="7.14498">
        <ele>680</ele>
        <time>2019-05-15T08:08:47.063Z</time>
      </trkpt>
      <trkpt lat="48.45336" lon="7.14497">
        <ele>679</ele>
        <time>2019-05-15T08:08:48.063Z</time>
      </trkpt>
      <trkpt lat="48.45336" lon="7.14496">
        <ele>679</ele>
        <time>2019-05-15T08:08:49.063Z</time>
      </trkpt>
      <trkpt lat="48.45336" lon="7.14495">
        <ele>679</ele>
        <time>2019-05-15T08:08:50.063Z</time>
      </trkpt>
      <trkpt lat="48.45336" lon="7.14495">
        <ele>679</ele>
        <time>2019-05-15T08:08:51.063Z</time>
      </trkpt>
      <trkpt lat="48.45336" lon="7.14495">
        <ele>679</ele>
        <time>2019-05-15T08:08:52.063Z</time>
      </trkpt>
      <trkpt lat="48.45336" lon="7.14494">
        <ele>678</ele>
        <time>2019-05-15T08:08:53.063Z</time>
      </trkpt>
      <trkpt lat="48.45336" lon="7.14494">
        <ele>677</ele>
        <time>2019-05-15T08:08:54.063Z</time>
      </trkpt>
      <trkpt lat="48.45336" lon="7.14493">
        <ele>677</ele>
        <time>2019-05-15T08:08:55.063Z</time>
      </trkpt>
      <trkpt lat="48.45336" lon="7.14492">
        <ele>676</ele>
        <time>2019-05-15T08:08:56.063Z</time>
      </trkpt>
      <trkpt lat="48.45336" lon="7.1449">
        <ele>675</ele>
        <time>2019-05-15T08:08:57.063Z</time>
      </trkpt>
      <trkpt lat="48.45336" lon="7.14489">
        <ele>675</ele>
        <time>2019-05-15T08:08:58.063Z</time>
      </trkpt>
      <trkpt lat="48.45337" lon="7.14488">
        <ele>675</ele>
        <time>2019-05-15T08:08:59.063Z</time>
      </trkpt>
      <trkpt lat="48.45336" lon="7.14487">
        <ele>674</ele>
        <time>2019-05-15T08:09:00.063Z</time>
      </trkpt>
      <trkpt lat="48.45336" lon="7.14486">
        <ele>673</ele>
        <time>2019-05-15T08:09:01.063Z</time>
      </trkpt>
      <trkpt lat="48.45336" lon="7.14486">
        <ele>673</ele>
        <time>2019-05-15T08:09:02.063Z</time>
      </trkpt>
      <trkpt lat="48.45336" lon="7.14486">
        <ele>675</ele>
        <time>2019-05-15T08:09:03.063Z</time>
      </trkpt>
      <trkpt lat="48.45335" lon="7.14485">
        <ele>675</ele>
        <time>2019-05-15T08:09:04.063Z</time>
      </trkpt>
      <trkpt lat="48.45335" lon="7.14485">
        <ele>675</ele>
        <time>2019-05-15T08:09:05.063Z</time>
      </trkpt>
      <trkpt lat="48.45335" lon="7.14483">
        <ele>675</ele>
        <time>2019-05-15T08:09:06.063Z</time>
      </trkpt>
      <trkpt lat="48.45335" lon="7.14483">
        <ele>674</ele>
        <time>2019-05-15T08:09:07.063Z</time>
      </trkpt>
      <trkpt lat="48.45334" lon="7.14482">
        <ele>675</ele>
        <time>2019-05-15T08:09:08.063Z</time>
      </trkpt>
      <trkpt lat="48.45334" lon="7.14482">
        <ele>675</ele>
        <time>2019-05-15T08:09:09.063Z</time>
      </trkpt>
      <trkpt lat="48.45333" lon="7.14482">
        <ele>677</ele>
        <time>2019-05-15T08:09:10.063Z</time>
      </trkpt>
      <trkpt lat="48.45333" lon="7.14482">
        <ele>678</ele>
        <time>2019-05-15T08:09:11.063Z</time>
      </trkpt>
      <trkpt lat="48.45332" lon="7.14482">
        <ele>679</ele>
        <time>2019-05-15T08:09:12.063Z</time>
      </trkpt>
      <trkpt lat="48.45332" lon="7.14481">
        <ele>679</ele>
        <time>2019-05-15T08:09:13.063Z</time>
      </trkpt>
      <trkpt lat="48.45331" lon="7.14481">
        <ele>680</ele>
        <time>2019-05-15T08:09:14.063Z</time>
      </trkpt>
      <trkpt lat="48.45331" lon="7.1448">
        <ele>681</ele>
        <time>2019-05-15T08:09:15.063Z</time>
      </trkpt>
      <trkpt lat="48.4533" lon="7.1448">
        <ele>682</ele>
        <time>2019-05-15T08:09:16.063Z</time>
      </trkpt>
      <trkpt lat="48.4533" lon="7.14479">
        <ele>681</ele>
        <time>2019-05-15T08:09:17.063Z</time>
      </trkpt>
      <trkpt lat="48.45329" lon="7.14478">
        <ele>680</ele>
        <time>2019-05-15T08:09:18.063Z</time>
      </trkpt>
      <trkpt lat="48.45329" lon="7.14476">
        <ele>680</ele>
        <time>2019-05-15T08:09:19.063Z</time>
      </trkpt>
      <trkpt lat="48.45329" lon="7.14475">
        <ele>679</ele>
        <time>2019-05-15T08:09:20.063Z</time>
      </trkpt>
      <trkpt lat="48.45329" lon="7.14474">
        <ele>680</ele>
        <time>2019-05-15T08:09:21.063Z</time>
      </trkpt>
      <trkpt lat="48.45328" lon="7.14473">
        <ele>680</ele>
        <time>2019-05-15T08:09:22.063Z</time>
      </trkpt>
      <trkpt lat="48.45328" lon="7.14472">
        <ele>680</ele>
        <time>2019-05-15T08:09:23.063Z</time>
      </trkpt>
      <trkpt lat="48.45328" lon="7.14471">
        <ele>678</ele>
        <time>2019-05-15T08:09:24.063Z</time>
      </trkpt>
      <trkpt lat="48.45328" lon="7.14469">
        <ele>678</ele>
        <time>2019-05-15T08:09:25.063Z</time>
      </trkpt>
      <trkpt lat="48.45328" lon="7.14468">
        <ele>679</ele>
        <time>2019-05-15T08:09:26.063Z</time>
      </trkpt>
      <trkpt lat="48.45328" lon="7.14467">
        <ele>680</ele>
        <time>2019-05-15T08:09:27.063Z</time>
      </trkpt>
      <trkpt lat="48.45328" lon="7.14466">
        <ele>680</ele>
        <time>2019-05-15T08:09:28.063Z</time>
      </trkpt>
      <trkpt lat="48.45327" lon="7.14465">
        <ele>680</ele>
        <time>2019-05-15T08:09:29.063Z</time>
      </trkpt>
      <trkpt lat="48.45326" lon="7.14465">
        <ele>681</ele>
        <time>2019-05-15T08:09:30.063Z</time>
      </trkpt>
      <trkpt lat="48.45326" lon="7.14464">
        <ele>680</ele>
        <time>2019-05-15T08:09:31.063Z</time>
      </trkpt>
      <trkpt lat="48.45325" lon="7.14463">
        <ele>681</ele>
        <time>2019-05-15T08:09:32.063Z</time>
      </trkpt>
      <trkpt lat="48.45325" lon="7.14462">
        <ele>682</ele>
        <time>2019-05-15T08:09:33.063Z</time>
      </trkpt>
      <trkpt lat="48.45324" lon="7.14462">
        <ele>682</ele>
        <time>2019-05-15T08:09:34.063Z</time>
      </trkpt>
      <trkpt lat="48.45324" lon="7.14461">
        <ele>681</ele>
        <time>2019-05-15T08:09:35.063Z</time>
      </trkpt>
      <trkpt lat="48.45324" lon="7.1446">
        <ele>681</ele>
        <time>2019-05-15T08:09:36.063Z</time>
      </trkpt>
      <trkpt lat="48.45323" lon="7.14459">
        <ele>680</ele>
        <time>2019-05-15T08:09:37.063Z</time>
      </trkpt>
      <trkpt lat="48.45323" lon="7.14458">
        <ele>680</ele>
        <time>2019-05-15T08:09:38.063Z</time>
      </trkpt>
      <trkpt lat="48.45323" lon="7.14457">
        <ele>681</ele>
        <time>2019-05-15T08:09:39.063Z</time>
      </trkpt>
      <trkpt lat="48.45323" lon="7.14456">
        <ele>680</ele>
        <time>2019-05-15T08:09:40.063Z</time>
      </trkpt>
      <trkpt lat="48.45322" lon="7.14455">
        <ele>681</ele>
        <time>2019-05-15T08:09:41.063Z</time>
      </trkpt>
      <trkpt lat="48.45322" lon="7.14454">
        <ele>683</ele>
        <time>2019-05-15T08:09:42.063Z</time>
      </trkpt>
      <trkpt lat="48.45321" lon="7.14453">
        <ele>683</ele>
        <time>2019-05-15T08:09:43.063Z</time>
      </trkpt>
      <trkpt lat="48.4532" lon="7.14453">
        <ele>684</ele>
        <time>2019-05-15T08:09:44.063Z</time>
      </trkpt>
      <trkpt lat="48.45319" lon="7.14452">
        <ele>684</ele>
        <time>2019-05-15T08:09:45.063Z</time>
      </trkpt>
      <trkpt lat="48.45319" lon="7.14451">
        <ele>684</ele>
        <time>2019-05-15T08:09:46.063Z</time>
      </trkpt>
      <trkpt lat="48.45319" lon="7.14451">
        <ele>684</ele>
        <time>2019-05-15T08:09:47.063Z</time>
      </trkpt>
      <trkpt lat="48.45318" lon="7.14449">
        <ele>684</ele>
        <time>2019-05-15T08:09:48.063Z</time>
      </trkpt>
      <trkpt lat="48.45318" lon="7.14449">
        <ele>685</ele>
        <time>2019-05-15T08:09:49.063Z</time>
      </trkpt>
      <trkpt lat="48.45317" lon="7.14448">
        <ele>686</ele>
        <time>2019-05-15T08:09:50.063Z</time>
      </trkpt>
      <trkpt lat="48.45316" lon="7.14448">
        <ele>687</ele>
        <time>2019-05-15T08:09:51.063Z</time>
      </trkpt>
      <trkpt lat="48.45316" lon="7.14447">
        <ele>687</ele>
        <time>2019-05-15T08:09:52.063Z</time>
      </trkpt>
      <trkpt lat="48.45315" lon="7.14446">
        <ele>688</ele>
        <time>2019-05-15T08:09:53.063Z</time>
      </trkpt>
      <trkpt lat="48.45315" lon="7.14445">
        <ele>687</ele>
        <time>2019-05-15T08:09:54.063Z</time>
      </trkpt>
      <trkpt lat="48.45314" lon="7.14444">
        <ele>686</ele>
        <time>2019-05-15T08:09:55.063Z</time>
      </trkpt>
      <trkpt lat="48.45314" lon="7.14443">
        <ele>686</ele>
        <time>2019-05-15T08:09:56.063Z</time>
      </trkpt>
      <trkpt lat="48.45314" lon="7.14442">
        <ele>686</ele>
        <time>2019-05-15T08:09:57.063Z</time>
      </trkpt>
      <trkpt lat="48.45313" lon="7.14442">
        <ele>687</ele>
        <time>2019-05-15T08:09:58.063Z</time>
      </trkpt>
      <trkpt lat="48.45313" lon="7.14441">
        <ele>686</ele>
        <time>2019-05-15T08:09:59.063Z</time>
      </trkpt>
      <trkpt lat="48.45312" lon="7.1444">
        <ele>686</ele>
        <time>2019-05-15T08:10:00.063Z</time>
      </trkpt>
      <trkpt lat="48.45312" lon="7.14439">
        <ele>686</ele>
        <time>2019-05-15T08:10:01.063Z</time>
      </trkpt>
      <trkpt lat="48.45311" lon="7.14439">
        <ele>687</ele>
        <time>2019-05-15T08:10:02.063Z</time>
      </trkpt>
      <trkpt lat="48.45311" lon="7.14438">
        <ele>686</ele>
        <time>2019-05-15T08:10:03.063Z</time>
      </trkpt>
      <trkpt lat="48.4531" lon="7.14437">
        <ele>686</ele>
        <time>2019-05-15T08:10:04.063Z</time>
      </trkpt>
      <trkpt lat="48.4531" lon="7.14436">
        <ele>685</ele>
        <time>2019-05-15T08:10:05.063Z</time>
      </trkpt>
      <trkpt lat="48.45309" lon="7.14435">
        <ele>685</ele>
        <time>2019-05-15T08:10:06.063Z</time>
      </trkpt>
      <trkpt lat="48.45309" lon="7.14434">
        <ele>685</ele>
        <time>2019-05-15T08:10:07.063Z</time>
      </trkpt>
      <trkpt lat="48.45309" lon="7.14433">
        <ele>684</ele>
        <time>2019-05-15T08:10:08.063Z</time>
      </trkpt>
      <trkpt lat="48.45308" lon="7.14432">
        <ele>683</ele>
        <time>2019-05-15T08:10:09.063Z</time>
      </trkpt>
      <trkpt lat="48.45308" lon="7.14431">
        <ele>683</ele>
        <time>2019-05-15T08:10:10.063Z</time>
      </trkpt>
      <trkpt lat="48.45308" lon="7.1443">
        <ele>683</ele>
        <time>2019-05-15T08:10:11.063Z</time>
      </trkpt>
      <trkpt lat="48.45308" lon="7.14429">
        <ele>683</ele>
        <time>2019-05-15T08:10:12.063Z</time>
      </trkpt>
      <trkpt lat="48.45308" lon="7.14429">
        <ele>683</ele>
        <time>2019-05-15T08:10:13.063Z</time>
      </trkpt>
      <trkpt lat="48.45307" lon="7.14428">
        <ele>684</ele>
        <time>2019-05-15T08:10:14.063Z</time>
      </trkpt>
      <trkpt lat="48.45307" lon="7.14428">
        <ele>685</ele>
        <time>2019-05-15T08:10:15.063Z</time>
      </trkpt>
      <trkpt lat="48.45306" lon="7.14427">
        <ele>686</ele>
        <time>2019-05-15T08:10:16.063Z</time>
      </trkpt>
      <trkpt lat="48.45306" lon="7.14427">
        <ele>686</ele>
        <time>2019-05-15T08:10:17.063Z</time>
      </trkpt>
      <trkpt lat="48.45305" lon="7.14426">
        <ele>687</ele>
        <time>2019-05-15T08:10:18.063Z</time>
      </trkpt>
      <trkpt lat="48.45304" lon="7.14426">
        <ele>687</ele>
        <time>2019-05-15T08:10:19.063Z</time>
      </trkpt>
      <trkpt lat="48.45304" lon="7.14425">
        <ele>688</ele>
        <time>2019-05-15T08:10:20.063Z</time>
      </trkpt>
      <trkpt lat="48.45303" lon="7.14425">
        <ele>688</ele>
        <time>2019-05-15T08:10:21.063Z</time>
      </trkpt>
      <trkpt lat="48.45303" lon="7.14424">
        <ele>687</ele>
        <time>2019-05-15T08:10:22.063Z</time>
      </trkpt>
      <trkpt lat="48.45303" lon="7.14423">
        <ele>687</ele>
        <time>2019-05-15T08:10:23.063Z</time>
      </trkpt>
      <trkpt lat="48.45303" lon="7.14423">
        <ele>688</ele>
        <time>2019-05-15T08:10:24.063Z</time>
      </trkpt>
      <trkpt lat="48.45302" lon="7.14422">
        <ele>688</ele>
        <time>2019-05-15T08:10:25.063Z</time>
      </trkpt>
      <trkpt lat="48.45302" lon="7.14421">
        <ele>687</ele>
        <time>2019-05-15T08:10:26.063Z</time>
      </trkpt>
      <trkpt lat="48.45302" lon="7.1442">
        <ele>687</ele>
        <time>2019-05-15T08:10:27.063Z</time>
      </trkpt>
      <trkpt lat="48.45301" lon="7.1442">
        <ele>688</ele>
        <time>2019-05-15T08:10:28.063Z</time>
      </trkpt>
      <trkpt lat="48.45301" lon="7.1442">
        <ele>689</ele>
        <time>2019-05-15T08:10:29.063Z</time>
      </trkpt>
      <trkpt lat="48.453" lon="7.14419">
        <ele>689</ele>
        <time>2019-05-15T08:10:30.063Z</time>
      </trkpt>
      <trkpt lat="48.453" lon="7.14419">
        <ele>690</ele>
        <time>2019-05-15T08:10:31.063Z</time>
      </trkpt>
      <trkpt lat="48.45299" lon="7.1442">
        <ele>691</ele>
        <time>2019-05-15T08:10:32.063Z</time>
      </trkpt>
      <trkpt lat="48.45299" lon="7.1442">
        <ele>691</ele>
        <time>2019-05-15T08:10:33.063Z</time>
      </trkpt>
      <trkpt lat="48.45299" lon="7.1442">
        <ele>692</ele>
        <time>2019-05-15T08:10:34.063Z</time>
      </trkpt>
      <trkpt lat="48.45299" lon="7.1442">
        <ele>692</ele>
        <time>2019-05-15T08:10:35.063Z</time>
      </trkpt>
      <trkpt lat="48.45299" lon="7.1442">
        <ele>693</ele>
        <time>2019-05-15T08:10:36.063Z</time>
      </trkpt>
      <trkpt lat="48.45299" lon="7.1442">
        <ele>693</ele>
        <time>2019-05-15T08:10:37.063Z</time>
      </trkpt>
      <trkpt lat="48.45299" lon="7.1442">
        <ele>693</ele>
        <time>2019-05-15T08:10:38.063Z</time>
      </trkpt>
      <trkpt lat="48.45299" lon="7.1442">
        <ele>693</ele>
        <time>2019-05-15T08:10:39.063Z</time>
      </trkpt>
      <trkpt lat="48.45299" lon="7.1442">
        <ele>693</ele>
        <time>2019-05-15T08:10:40.063Z</time>
      </trkpt>
      <trkpt lat="48.45299" lon="7.1442">
        <ele>694</ele>
        <time>2019-05-15T08:10:41.063Z</time>
      </trkpt>
      <trkpt lat="48.45298" lon="7.1442">
        <ele>694</ele>
        <time>2019-05-15T08:10:42.063Z</time>
      </trkpt>
      <trkpt lat="48.45298" lon="7.14421">
        <ele>695</ele>
        <time>2019-05-15T08:10:43.063Z</time>
      </trkpt>
      <trkpt lat="48.45298" lon="7.14421">
        <ele>696</ele>
        <time>2019-05-15T08:10:44.063Z</time>
      </trkpt>
      <trkpt lat="48.45298" lon="7.14421">
        <ele>696</ele>
        <time>2019-05-15T08:10:45.063Z</time>
      </trkpt>
      <trkpt lat="48.45298" lon="7.14421">
        <ele>697</ele>
        <time>2019-05-15T08:10:46.063Z</time>
      </trkpt>
      <trkpt lat="48.45298" lon="7.1442">
        <ele>695</ele>
        <time>2019-05-15T08:10:47.063Z</time>
      </trkpt>
      <trkpt lat="48.45298" lon="7.1442">
        <ele>696</ele>
        <time>2019-05-15T08:10:48.063Z</time>
      </trkpt>
      <trkpt lat="48.45298" lon="7.14419">
        <ele>696</ele>
        <time>2019-05-15T08:10:49.063Z</time>
      </trkpt>
      <trkpt lat="48.45298" lon="7.14419">
        <ele>696</ele>
        <time>2019-05-15T08:10:50.063Z</time>
      </trkpt>
      <trkpt lat="48.45298" lon="7.14419">
        <ele>697</ele>
        <time>2019-05-15T08:10:51.063Z</time>
      </trkpt>
      <trkpt lat="48.45298" lon="7.14419">
        <ele>697</ele>
        <time>2019-05-15T08:10:52.063Z</time>
      </trkpt>
      <trkpt lat="48.45298" lon="7.14419">
        <ele>697</ele>
        <time>2019-05-15T08:10:53.063Z</time>
      </trkpt>
      <trkpt lat="48.45298" lon="7.14419">
        <ele>698</ele>
        <time>2019-05-15T08:10:54.063Z</time>
      </trkpt>
      <trkpt lat="48.45298" lon="7.1442">
        <ele>700</ele>
        <time>2019-05-15T08:10:55.063Z</time>
      </trkpt>
      <trkpt lat="48.45298" lon="7.1442">
        <ele>700</ele>
        <time>2019-05-15T08:10:56.063Z</time>
      </trkpt>
      <trkpt lat="48.45297" lon="7.1442">
        <ele>701</ele>
        <time>2019-05-15T08:10:57.063Z</time>
      </trkpt>
      <trkpt lat="48.45297" lon="7.1442">
        <ele>701</ele>
        <time>2019-05-15T08:10:58.063Z</time>
      </trkpt>
      <trkpt lat="48.45297" lon="7.14421">
        <ele>702</ele>
        <time>2019-05-15T08:10:59.063Z</time>
      </trkpt>
      <trkpt lat="48.45297" lon="7.14421">
        <ele>702</ele>
        <time>2019-05-15T08:11:00.063Z</time>
      </trkpt>
      <trkpt lat="48.45297" lon="7.14421">
        <ele>702</ele>
        <time>2019-05-15T08:11:01.063Z</time>
      </trkpt>
      <trkpt lat="48.45297" lon="7.14421">
        <ele>701</ele>
        <time>2019-05-15T08:11:02.063Z</time>
      </trkpt>
      <trkpt lat="48.45297" lon="7.1442">
        <ele>702</ele>
        <time>2019-05-15T08:11:03.063Z</time>
      </trkpt>
      <trkpt lat="48.45297" lon="7.1442">
        <ele>702</ele>
        <time>2019-05-15T08:11:04.063Z</time>
      </trkpt>
      <trkpt lat="48.45298" lon="7.1442">
        <ele>700</ele>
        <time>2019-05-15T08:11:05.063Z</time>
      </trkpt>
      <trkpt lat="48.45298" lon="7.1442">
        <ele>699</ele>
        <time>2019-05-15T08:11:06.063Z</time>
      </trkpt>
      <trkpt lat="48.45298" lon="7.14419">
        <ele>699</ele>
        <time>2019-05-15T08:11:07.063Z</time>
      </trkpt>
      <trkpt lat="48.45298" lon="7.14419">
        <ele>699</ele>
        <time>2019-05-15T08:11:08.063Z</time>
      </trkpt>
      <trkpt lat="48.45299" lon="7.14419">
        <ele>699</ele>
        <time>2019-05-15T08:11:09.063Z</time>
      </trkpt>
      <trkpt lat="48.45299" lon="7.14418">
        <ele>699</ele>
        <time>2019-05-15T08:11:10.063Z</time>
      </trkpt>
      <trkpt lat="48.45299" lon="7.14418">
        <ele>699</ele>
        <time>2019-05-15T08:11:11.063Z</time>
      </trkpt>
      <trkpt lat="48.45299" lon="7.14417">
        <ele>699</ele>
        <time>2019-05-15T08:11:12.063Z</time>
      </trkpt>
      <trkpt lat="48.45299" lon="7.14417">
        <ele>699</ele>
        <time>2019-05-15T08:11:13.063Z</time>
      </trkpt>
      <trkpt lat="48.45299" lon="7.14417">
        <ele>699</ele>
        <time>2019-05-15T08:11:14.063Z</time>
      </trkpt>
      <trkpt lat="48.453" lon="7.14416">
        <ele>699</ele>
        <time>2019-05-15T08:11:15.063Z</time>
      </trkpt>
      <trkpt lat="48.453" lon="7.14416">
        <ele>699</ele>
        <time>2019-05-15T08:11:16.063Z</time>
      </trkpt>
      <trkpt lat="48.453" lon="7.14416">
        <ele>698</ele>
        <time>2019-05-15T08:11:17.063Z</time>
      </trkpt>
      <trkpt lat="48.453" lon="7.14415">
        <ele>699</ele>
        <time>2019-05-15T08:11:18.063Z</time>
      </trkpt>
      <trkpt lat="48.45301" lon="7.14415">
        <ele>698</ele>
        <time>2019-05-15T08:11:19.063Z</time>
      </trkpt>
      <trkpt lat="48.45301" lon="7.14415">
        <ele>698</ele>
        <time>2019-05-15T08:11:20.063Z</time>
      </trkpt>
      <trkpt lat="48.45301" lon="7.14415">
        <ele>698</ele>
        <time>2019-05-15T08:11:21.063Z</time>
      </trkpt>
      <trkpt lat="48.45301" lon="7.14415">
        <ele>698</ele>
        <time>2019-05-15T08:11:22.063Z</time>
      </trkpt>
      <trkpt lat="48.45302" lon="7.14415">
        <ele>700</ele>
        <time>2019-05-15T08:11:23.063Z</time>
      </trkpt>
      <trkpt lat="48.45302" lon="7.14416">
        <ele>700</ele>
        <time>2019-05-15T08:11:24.063Z</time>
      </trkpt>
      <trkpt lat="48.45301" lon="7.14416">
        <ele>702</ele>
        <time>2019-05-15T08:11:25.063Z</time>
      </trkpt>
      <trkpt lat="48.45301" lon="7.14417">
        <ele>703</ele>
        <time>2019-05-15T08:11:26.063Z</time>
      </trkpt>
      <trkpt lat="48.45301" lon="7.14417">
        <ele>704</ele>
        <time>2019-05-15T08:11:27.063Z</time>
      </trkpt>
      <trkpt lat="48.45301" lon="7.14418">
        <ele>705</ele>
        <time>2019-05-15T08:11:28.063Z</time>
      </trkpt>
      <trkpt lat="48.45301" lon="7.14418">
        <ele>705</ele>
        <time>2019-05-15T08:11:29.063Z</time>
      </trkpt>
      <trkpt lat="48.45301" lon="7.14418">
        <ele>706</ele>
        <time>2019-05-15T08:11:30.063Z</time>
      </trkpt>
      <trkpt lat="48.45301" lon="7.14417">
        <ele>706</ele>
        <time>2019-05-15T08:11:31.063Z</time>
      </trkpt>
      <trkpt lat="48.45301" lon="7.14417">
        <ele>707</ele>
        <time>2019-05-15T08:11:32.063Z</time>
      </trkpt>
      <trkpt lat="48.45301" lon="7.14417">
        <ele>706</ele>
        <time>2019-05-15T08:11:33.063Z</time>
      </trkpt>
      <trkpt lat="48.45301" lon="7.14416">
        <ele>706</ele>
        <time>2019-05-15T08:11:34.063Z</time>
      </trkpt>
      <trkpt lat="48.45301" lon="7.14416">
        <ele>706</ele>
        <time>2019-05-15T08:11:35.063Z</time>
      </trkpt>
      <trkpt lat="48.45301" lon="7.14415">
        <ele>706</ele>
        <time>2019-05-15T08:11:36.063Z</time>
      </trkpt>
      <trkpt lat="48.45301" lon="7.14415">
        <ele>706</ele>
        <time>2019-05-15T08:11:37.063Z</time>
      </trkpt>
      <trkpt lat="48.45301" lon="7.14414">
        <ele>705</ele>
        <time>2019-05-15T08:11:38.063Z</time>
      </trkpt>
      <trkpt lat="48.45301" lon="7.14413">
        <ele>705</ele>
        <time>2019-05-15T08:11:39.063Z</time>
      </trkpt>
      <trkpt lat="48.45301" lon="7.14413">
        <ele>705</ele>
        <time>2019-05-15T08:11:40.063Z</time>
      </trkpt>
      <trkpt lat="48.45302" lon="7.14412">
        <ele>705</ele>
        <time>2019-05-15T08:11:41.063Z</time>
      </trkpt>
      <trkpt lat="48.45302" lon="7.14412">
        <ele>705</ele>
        <time>2019-05-15T08:11:42.063Z</time>
      </trkpt>
      <trkpt lat="48.45302" lon="7.14412">
        <ele>704</ele>
        <time>2019-05-15T08:11:43.063Z</time>
      </trkpt>
      <trkpt lat="48.45302" lon="7.14412">
        <ele>704</ele>
        <time>2019-05-15T08:11:44.063Z</time>
      </trkpt>
      <trkpt lat="48.45302" lon="7.14412">
        <ele>705</ele>
        <time>2019-05-15T08:11:45.063Z</time>
      </trkpt>
      <trkpt lat="48.45302" lon="7.14412">
        <ele>705</ele>
        <time>2019-05-15T08:11:46.063Z</time>
      </trkpt>
      <trkpt lat="48.45302" lon="7.14412">
        <ele>707</ele>
        <time>2019-05-15T08:11:47.063Z</time>
      </trkpt>
      <trkpt lat="48.45302" lon="7.14412">
        <ele>707</ele>
        <time>2019-05-15T08:11:48.063Z</time>
      </trkpt>
      <trkpt lat="48.45302" lon="7.14412">
        <ele>705</ele>
        <time>2019-05-15T08:11:49.063Z</time>
      </trkpt>
      <trkpt lat="48.45302" lon="7.14412">
        <ele>705</ele>
        <time>2019-05-15T08:11:50.063Z</time>
      </trkpt>
      <trkpt lat="48.45302" lon="7.14412">
        <ele>705</ele>
        <time>2019-05-15T08:11:51.063Z</time>
      </trkpt>
      <trkpt lat="48.45302" lon="7.14412">
        <ele>705</ele>
        <time>2019-05-15T08:11:52.063Z</time>
      </trkpt>
      <trkpt lat="48.45302" lon="7.14412">
        <ele>704</ele>
        <time>2019-05-15T08:11:53.063Z</time>
      </trkpt>
      <trkpt lat="48.45302" lon="7.14412">
        <ele>703</ele>
        <time>2019-05-15T08:11:54.063Z</time>
      </trkpt>
      <trkpt lat="48.45302" lon="7.14412">
        <ele>702</ele>
        <time>2019-05-15T08:11:55.063Z</time>
      </trkpt>
      <trkpt lat="48.45302" lon="7.14412">
        <ele>701</ele>
        <time>2019-05-15T08:11:56.063Z</time>
      </trkpt>
      <trkpt lat="48.45302" lon="7.14412">
        <ele>701</ele>
        <time>2019-05-15T08:11:57.063Z</time>
      </trkpt>
      <trkpt lat="48.45302" lon="7.14412">
        <ele>701</ele>
        <time>2019-05-15T08:11:58.063Z</time>
      </trkpt>
      <trkpt lat="48.45302" lon="7.14412">
        <ele>701</ele>
        <time>2019-05-15T08:11:59.063Z</time>
      </trkpt>
      <trkpt lat="48.45302" lon="7.14412">
        <ele>701</ele>
        <time>2019-05-15T08:12:00.063Z</time>
      </trkpt>
      <trkpt lat="48.45303" lon="7.14412">
        <ele>701</ele>
        <time>2019-05-15T08:12:01.063Z</time>
      </trkpt>
      <trkpt lat="48.45303" lon="7.14412">
        <ele>700</ele>
        <time>2019-05-15T08:12:02.063Z</time>
      </trkpt>
      <trkpt lat="48.45303" lon="7.14411">
        <ele>700</ele>
        <time>2019-05-15T08:12:03.063Z</time>
      </trkpt>
      <trkpt lat="48.45304" lon="7.14411">
        <ele>700</ele>
        <time>2019-05-15T08:12:04.063Z</time>
      </trkpt>
      <trkpt lat="48.45304" lon="7.14411">
        <ele>699</ele>
        <time>2019-05-15T08:12:05.063Z</time>
      </trkpt>
      <trkpt lat="48.45304" lon="7.14411">
        <ele>699</ele>
        <time>2019-05-15T08:12:06.063Z</time>
      </trkpt>
      <trkpt lat="48.45304" lon="7.14411">
        <ele>698</ele>
        <time>2019-05-15T08:12:07.063Z</time>
      </trkpt>
      <trkpt lat="48.45304" lon="7.14411">
        <ele>698</ele>
        <time>2019-05-15T08:12:08.063Z</time>
      </trkpt>
      <trkpt lat="48.45304" lon="7.14411">
        <ele>698</ele>
        <time>2019-05-15T08:12:09.063Z</time>
      </trkpt>
      <trkpt lat="48.45303" lon="7.14411">
        <ele>699</ele>
        <time>2019-05-15T08:12:10.063Z</time>
      </trkpt>
      <trkpt lat="48.45303" lon="7.14411">
        <ele>699</ele>
        <time>2019-05-15T08:12:11.063Z</time>
      </trkpt>
      <trkpt lat="48.45302" lon="7.14411">
        <ele>697</ele>
        <time>2019-05-15T08:12:12.063Z</time>
      </trkpt>
      <trkpt lat="48.45301" lon="7.14411">
        <ele>696</ele>
        <time>2019-05-15T08:12:13.063Z</time>
      </trkpt>
      <trkpt lat="48.453" lon="7.14411">
        <ele>696</ele>
        <time>2019-05-15T08:12:14.063Z</time>
      </trkpt>
      <trkpt lat="48.453" lon="7.1441">
        <ele>694</ele>
        <time>2019-05-15T08:12:15.063Z</time>
      </trkpt>
      <trkpt lat="48.453" lon="7.1441">
        <ele>697</ele>
        <time>2019-05-15T08:12:16.063Z</time>
      </trkpt>
      <trkpt lat="48.453" lon="7.1441">
        <ele>699</ele>
        <time>2019-05-15T08:12:17.063Z</time>
      </trkpt>
      <trkpt lat="48.453" lon="7.1441">
        <ele>696</ele>
        <time>2019-05-15T08:12:18.063Z</time>
      </trkpt>
      <trkpt lat="48.45301" lon="7.1441">
        <ele>693</ele>
        <time>2019-05-15T08:12:19.063Z</time>
      </trkpt>
      <trkpt lat="48.45302" lon="7.1441">
        <ele>688</ele>
        <time>2019-05-15T08:12:20.063Z</time>
      </trkpt>
      <trkpt lat="48.45303" lon="7.14409">
        <ele>687</ele>
        <time>2019-05-15T08:12:21.063Z</time>
      </trkpt>
      <trkpt lat="48.45304" lon="7.14408">
        <ele>687</ele>
        <time>2019-05-15T08:12:22.063Z</time>
      </trkpt>
      <trkpt lat="48.45304" lon="7.14408">
        <ele>686</ele>
        <time>2019-05-15T08:12:23.063Z</time>
      </trkpt>
      <trkpt lat="48.45305" lon="7.14408">
        <ele>686</ele>
        <time>2019-05-15T08:12:24.063Z</time>
      </trkpt>
      <trkpt lat="48.45305" lon="7.14408">
        <ele>685</ele>
        <time>2019-05-15T08:12:25.063Z</time>
      </trkpt>
      <trkpt lat="48.45304" lon="7.14408">
        <ele>685</ele>
        <time>2019-05-15T08:12:26.063Z</time>
      </trkpt>
      <trkpt lat="48.45304" lon="7.14408">
        <ele>684</ele>
        <time>2019-05-15T08:12:27.063Z</time>
      </trkpt>
      <trkpt lat="48.45305" lon="7.14408">
        <ele>685</ele>
        <time>2019-05-15T08:12:28.063Z</time>
      </trkpt>
      <trkpt lat="48.45305" lon="7.14409">
        <ele>685</ele>
        <time>2019-05-15T08:12:29.063Z</time>
      </trkpt>
      <trkpt lat="48.45305" lon="7.1441">
        <ele>686</ele>
        <time>2019-05-15T08:12:30.063Z</time>
      </trkpt>
      <trkpt lat="48.45305" lon="7.1441">
        <ele>686</ele>
        <time>2019-05-15T08:12:31.063Z</time>
      </trkpt>
      <trkpt lat="48.45306" lon="7.1441">
        <ele>686</ele>
        <time>2019-05-15T08:12:32.063Z</time>
      </trkpt>
      <trkpt lat="48.45306" lon="7.1441">
        <ele>687</ele>
        <time>2019-05-15T08:12:33.063Z</time>
      </trkpt>
      <trkpt lat="48.45306" lon="7.14411">
        <ele>688</ele>
        <time>2019-05-15T08:12:34.063Z</time>
      </trkpt>
      <trkpt lat="48.45306" lon="7.14411">
        <ele>689</ele>
        <time>2019-05-15T08:12:35.063Z</time>
      </trkpt>
      <trkpt lat="48.45306" lon="7.14411">
        <ele>690</ele>
        <time>2019-05-15T08:12:36.063Z</time>
      </trkpt>
      <trkpt lat="48.45306" lon="7.14411">
        <ele>692</ele>
        <time>2019-05-15T08:12:37.063Z</time>
      </trkpt>
      <trkpt lat="48.45306" lon="7.14412">
        <ele>694</ele>
        <time>2019-05-15T08:12:38.063Z</time>
      </trkpt>
      <trkpt lat="48.45306" lon="7.14413">
        <ele>696</ele>
        <time>2019-05-15T08:12:39.063Z</time>
      </trkpt>
      <trkpt lat="48.45306" lon="7.14413">
        <ele>696</ele>
        <time>2019-05-15T08:12:40.063Z</time>
      </trkpt>
      <trkpt lat="48.45307" lon="7.14413">
        <ele>699</ele>
        <time>2019-05-15T08:12:41.063Z</time>
      </trkpt>
      <trkpt lat="48.45307" lon="7.14413">
        <ele>700</ele>
        <time>2019-05-15T08:12:42.063Z</time>
      </trkpt>
      <trkpt lat="48.45307" lon="7.14413">
        <ele>700</ele>
        <time>2019-05-15T08:12:43.063Z</time>
      </trkpt>
      <trkpt lat="48.45307" lon="7.14413">
        <ele>702</ele>
        <time>2019-05-15T08:12:44.063Z</time>
      </trkpt>
      <trkpt lat="48.45308" lon="7.14413">
        <ele>702</ele>
        <time>2019-05-15T08:12:45.063Z</time>
      </trkpt>
      <trkpt lat="48.45308" lon="7.14414">
        <ele>701</ele>
        <time>2019-05-15T08:12:46.063Z</time>
      </trkpt>
      <trkpt lat="48.45309" lon="7.14414">
        <ele>701</ele>
        <time>2019-05-15T08:12:47.063Z</time>
      </trkpt>
      <trkpt lat="48.45309" lon="7.14414">
        <ele>700</ele>
        <time>2019-05-15T08:12:48.063Z</time>
      </trkpt>
      <trkpt lat="48.45309" lon="7.14414">
        <ele>700</ele>
        <time>2019-05-15T08:12:49.063Z</time>
      </trkpt>
      <trkpt lat="48.4531" lon="7.14414">
        <ele>700</ele>
        <time>2019-05-15T08:12:50.063Z</time>
      </trkpt>
      <trkpt lat="48.4531" lon="7.14414">
        <ele>700</ele>
        <time>2019-05-15T08:12:51.063Z</time>
      </trkpt>
      <trkpt lat="48.45311" lon="7.14414">
        <ele>701</ele>
        <time>2019-05-15T08:12:52.063Z</time>
      </trkpt>
      <trkpt lat="48.45311" lon="7.14414">
        <ele>700</ele>
        <time>2019-05-15T08:12:53.063Z</time>
      </trkpt>
      <trkpt lat="48.45311" lon="7.14414">
        <ele>700</ele>
        <time>2019-05-15T08:12:54.063Z</time>
      </trkpt>
      <trkpt lat="48.45312" lon="7.14415">
        <ele>700</ele>
        <time>2019-05-15T08:12:55.063Z</time>
      </trkpt>
      <trkpt lat="48.45312" lon="7.14415">
        <ele>701</ele>
        <time>2019-05-15T08:12:56.063Z</time>
      </trkpt>
      <trkpt lat="48.45312" lon="7.14415">
        <ele>702</ele>
        <time>2019-05-15T08:12:57.063Z</time>
      </trkpt>
      <trkpt lat="48.45313" lon="7.14416">
        <ele>703</ele>
        <time>2019-05-15T08:12:58.063Z</time>
      </trkpt>
      <trkpt lat="48.45313" lon="7.14416">
        <ele>704</ele>
        <time>2019-05-15T08:12:59.063Z</time>
      </trkpt>
      <trkpt lat="48.45313" lon="7.14417">
        <ele>705</ele>
        <time>2019-05-15T08:13:00.063Z</time>
      </trkpt>
      <trkpt lat="48.45314" lon="7.14417">
        <ele>705</ele>
        <time>2019-05-15T08:13:01.063Z</time>
      </trkpt>
      <trkpt lat="48.45314" lon="7.14417">
        <ele>705</ele>
        <time>2019-05-15T08:13:02.063Z</time>
      </trkpt>
      <trkpt lat="48.45315" lon="7.14418">
        <ele>706</ele>
        <time>2019-05-15T08:13:03.063Z</time>
      </trkpt>
      <trkpt lat="48.45315" lon="7.14419">
        <ele>707</ele>
        <time>2019-05-15T08:13:04.063Z</time>
      </trkpt>
      <trkpt lat="48.45316" lon="7.14419">
        <ele>706</ele>
        <time>2019-05-15T08:13:05.063Z</time>
      </trkpt>
      <trkpt lat="48.45316" lon="7.1442">
        <ele>706</ele>
        <time>2019-05-15T08:13:06.063Z</time>
      </trkpt>
      <trkpt lat="48.45317" lon="7.1442">
        <ele>705</ele>
        <time>2019-05-15T08:13:07.063Z</time>
      </trkpt>
      <trkpt lat="48.45318" lon="7.1442">
        <ele>705</ele>
        <time>2019-05-15T08:13:08.063Z</time>
      </trkpt>
      <trkpt lat="48.45319" lon="7.1442">
        <ele>705</ele>
        <time>2019-05-15T08:13:09.063Z</time>
      </trkpt>
      <trkpt lat="48.45319" lon="7.1442">
        <ele>705</ele>
        <time>2019-05-15T08:13:10.063Z</time>
      </trkpt>
      <trkpt lat="48.4532" lon="7.14419">
        <ele>704</ele>
        <time>2019-05-15T08:13:11.063Z</time>
      </trkpt>
      <trkpt lat="48.45321" lon="7.14419">
        <ele>705</ele>
        <time>2019-05-15T08:13:12.063Z</time>
      </trkpt>
      <trkpt lat="48.45321" lon="7.14419">
        <ele>708</ele>
        <time>2019-05-15T08:13:13.063Z</time>
      </trkpt>
      <trkpt lat="48.45321" lon="7.14419">
        <ele>708</ele>
        <time>2019-05-15T08:13:14.063Z</time>
      </trkpt>
      <trkpt lat="48.45322" lon="7.14419">
        <ele>708</ele>
        <time>2019-05-15T08:13:15.063Z</time>
      </trkpt>
      <trkpt lat="48.45322" lon="7.14419">
        <ele>709</ele>
        <time>2019-05-15T08:13:16.063Z</time>
      </trkpt>
      <trkpt lat="48.45322" lon="7.14419">
        <ele>707</ele>
        <time>2019-05-15T08:13:17.063Z</time>
      </trkpt>
      <trkpt lat="48.45323" lon="7.14418">
        <ele>706</ele>
        <time>2019-05-15T08:13:18.063Z</time>
      </trkpt>
      <trkpt lat="48.45324" lon="7.14418">
        <ele>706</ele>
        <time>2019-05-15T08:13:19.063Z</time>
      </trkpt>
      <trkpt lat="48.45324" lon="7.14418">
        <ele>705</ele>
        <time>2019-05-15T08:13:20.063Z</time>
      </trkpt>
      <trkpt lat="48.45325" lon="7.14417">
        <ele>705</ele>
        <time>2019-05-15T08:13:21.063Z</time>
      </trkpt>
      <trkpt lat="48.45326" lon="7.14417">
        <ele>705</ele>
        <time>2019-05-15T08:13:22.063Z</time>
      </trkpt>
      <trkpt lat="48.45326" lon="7.14416">
        <ele>707</ele>
        <time>2019-05-15T08:13:23.063Z</time>
      </trkpt>
      <trkpt lat="48.45326" lon="7.14416">
        <ele>707</ele>
        <time>2019-05-15T08:13:24.063Z</time>
      </trkpt>
      <trkpt lat="48.45327" lon="7.14416">
        <ele>708</ele>
        <time>2019-05-15T08:13:25.063Z</time>
      </trkpt>
      <trkpt lat="48.45327" lon="7.14417">
        <ele>710</ele>
        <time>2019-05-15T08:13:26.063Z</time>
      </trkpt>
      <trkpt lat="48.45327" lon="7.14417">
        <ele>711</ele>
        <time>2019-05-15T08:13:27.063Z</time>
      </trkpt>
      <trkpt lat="48.45326" lon="7.14417">
        <ele>712</ele>
        <time>2019-05-15T08:13:28.063Z</time>
      </trkpt>
      <trkpt lat="48.45327" lon="7.14418">
        <ele>714</ele>
        <time>2019-05-15T08:13:29.063Z</time>
      </trkpt>
      <trkpt lat="48.45327" lon="7.14418">
        <ele>714</ele>
        <time>2019-05-15T08:13:30.063Z</time>
      </trkpt>
      <trkpt lat="48.45327" lon="7.14418">
        <ele>714</ele>
        <time>2019-05-15T08:13:31.063Z</time>
      </trkpt>
      <trkpt lat="48.45327" lon="7.14418">
        <ele>713</ele>
        <time>2019-05-15T08:13:32.063Z</time>
      </trkpt>
      <trkpt lat="48.45327" lon="7.14417">
        <ele>714</ele>
        <time>2019-05-15T08:13:33.063Z</time>
      </trkpt>
      <trkpt lat="48.45328" lon="7.14416">
        <ele>713</ele>
        <time>2019-05-15T08:13:34.063Z</time>
      </trkpt>
      <trkpt lat="48.45328" lon="7.14416">
        <ele>713</ele>
        <time>2019-05-15T08:13:35.063Z</time>
      </trkpt>
      <trkpt lat="48.45329" lon="7.14415">
        <ele>711</ele>
        <time>2019-05-15T08:13:36.063Z</time>
      </trkpt>
      <trkpt lat="48.45329" lon="7.14415">
        <ele>711</ele>
        <time>2019-05-15T08:13:37.063Z</time>
      </trkpt>
      <trkpt lat="48.4533" lon="7.14415">
        <ele>711</ele>
        <time>2019-05-15T08:13:38.063Z</time>
      </trkpt>
      <trkpt lat="48.4533" lon="7.14415">
        <ele>711</ele>
        <time>2019-05-15T08:13:39.063Z</time>
      </trkpt>
      <trkpt lat="48.4533" lon="7.14415">
        <ele>710</ele>
        <time>2019-05-15T08:13:40.063Z</time>
      </trkpt>
      <trkpt lat="48.45331" lon="7.14415">
        <ele>711</ele>
        <time>2019-05-15T08:13:41.063Z</time>
      </trkpt>
      <trkpt lat="48.45331" lon="7.14415">
        <ele>712</ele>
        <time>2019-05-15T08:13:42.063Z</time>
      </trkpt>
      <trkpt lat="48.45332" lon="7.14415">
        <ele>711</ele>
        <time>2019-05-15T08:13:43.063Z</time>
      </trkpt>
      <trkpt lat="48.45332" lon="7.14415">
        <ele>711</ele>
        <time>2019-05-15T08:13:44.063Z</time>
      </trkpt>
      <trkpt lat="48.45333" lon="7.14415">
        <ele>711</ele>
        <time>2019-05-15T08:13:45.063Z</time>
      </trkpt>
      <trkpt lat="48.45333" lon="7.14415">
        <ele>712</ele>
        <time>2019-05-15T08:13:46.063Z</time>
      </trkpt>
      <trkpt lat="48.45333" lon="7.14415">
        <ele>711</ele>
        <time>2019-05-15T08:13:47.063Z</time>
      </trkpt>
      <trkpt lat="48.45333" lon="7.14415">
        <ele>711</ele>
        <time>2019-05-15T08:13:48.063Z</time>
      </trkpt>
      <trkpt lat="48.45334" lon="7.14415">
        <ele>710</ele>
        <time>2019-05-15T08:13:49.063Z</time>
      </trkpt>
      <trkpt lat="48.45334" lon="7.14415">
        <ele>709</ele>
        <time>2019-05-15T08:13:50.063Z</time>
      </trkpt>
      <trkpt lat="48.45334" lon="7.14415">
        <ele>708</ele>
        <time>2019-05-15T08:13:51.063Z</time>
      </trkpt>
      <trkpt lat="48.45334" lon="7.14415">
        <ele>706</ele>
        <time>2019-05-15T08:13:52.063Z</time>
      </trkpt>
      <trkpt lat="48.45334" lon="7.14415">
        <ele>707</ele>
        <time>2019-05-15T08:13:53.063Z</time>
      </trkpt>
      <trkpt lat="48.45334" lon="7.14414">
        <ele>705</ele>
        <time>2019-05-15T08:13:54.063Z</time>
      </trkpt>
      <trkpt lat="48.45334" lon="7.14414">
        <ele>706</ele>
        <time>2019-05-15T08:13:55.063Z</time>
      </trkpt>
      <trkpt lat="48.45334" lon="7.14414">
        <ele>707</ele>
        <time>2019-05-15T08:13:56.063Z</time>
      </trkpt>
      <trkpt lat="48.45334" lon="7.14414">
        <ele>706</ele>
        <time>2019-05-15T08:13:57.063Z</time>
      </trkpt>
      <trkpt lat="48.45334" lon="7.14413">
        <ele>704</ele>
        <time>2019-05-15T08:13:58.063Z</time>
      </trkpt>
      <trkpt lat="48.45334" lon="7.14412">
        <ele>704</ele>
        <time>2019-05-15T08:13:59.063Z</time>
      </trkpt>
      <trkpt lat="48.45334" lon="7.14412">
        <ele>704</ele>
        <time>2019-05-15T08:14:00.063Z</time>
      </trkpt>
      <trkpt lat="48.45333" lon="7.14411">
        <ele>705</ele>
        <time>2019-05-15T08:14:01.063Z</time>
      </trkpt>
      <trkpt lat="48.45333" lon="7.14411">
        <ele>705</ele>
        <time>2019-05-15T08:14:02.063Z</time>
      </trkpt>
      <trkpt lat="48.45332" lon="7.1441">
        <ele>705</ele>
        <time>2019-05-15T08:14:03.063Z</time>
      </trkpt>
      <trkpt lat="48.45332" lon="7.14409">
        <ele>704</ele>
        <time>2019-05-15T08:14:04.063Z</time>
      </trkpt>
      <trkpt lat="48.45331" lon="7.14408">
        <ele>705</ele>
        <time>2019-05-15T08:14:05.063Z</time>
      </trkpt>
      <trkpt lat="48.45331" lon="7.14408">
        <ele>705</ele>
        <time>2019-05-15T08:14:06.063Z</time>
      </trkpt>
      <trkpt lat="48.45331" lon="7.14407">
        <ele>704</ele>
        <time>2019-05-15T08:14:07.063Z</time>
      </trkpt>
      <trkpt lat="48.45331" lon="7.14406">
        <ele>703</ele>
        <time>2019-05-15T08:14:08.063Z</time>
      </trkpt>
      <trkpt lat="48.45331" lon="7.14405">
        <ele>703</ele>
        <time>2019-05-15T08:14:09.063Z</time>
      </trkpt>
      <trkpt lat="48.45331" lon="7.14404">
        <ele>702</ele>
        <time>2019-05-15T08:14:10.063Z</time>
      </trkpt>
      <trkpt lat="48.45331" lon="7.14403">
        <ele>702</ele>
        <time>2019-05-15T08:14:11.063Z</time>
      </trkpt>
      <trkpt lat="48.45331" lon="7.14402">
        <ele>702</ele>
        <time>2019-05-15T08:14:12.063Z</time>
      </trkpt>
      <trkpt lat="48.45331" lon="7.14402">
        <ele>701</ele>
        <time>2019-05-15T08:14:13.063Z</time>
      </trkpt>
      <trkpt lat="48.45331" lon="7.14401">
        <ele>700</ele>
        <time>2019-05-15T08:14:14.063Z</time>
      </trkpt>
      <trkpt lat="48.45331" lon="7.144">
        <ele>700</ele>
        <time>2019-05-15T08:14:15.063Z</time>
      </trkpt>
      <trkpt lat="48.45331" lon="7.14399">
        <ele>700</ele>
        <time>2019-05-15T08:14:16.063Z</time>
      </trkpt>
      <trkpt lat="48.45331" lon="7.14398">
        <ele>700</ele>
        <time>2019-05-15T08:14:17.063Z</time>
      </trkpt>
      <trkpt lat="48.4533" lon="7.14398">
        <ele>700</ele>
        <time>2019-05-15T08:14:18.063Z</time>
      </trkpt>
      <trkpt lat="48.4533" lon="7.14397">
        <ele>700</ele>
        <time>2019-05-15T08:14:19.063Z</time>
      </trkpt>
      <trkpt lat="48.4533" lon="7.14397">
        <ele>701</ele>
        <time>2019-05-15T08:14:20.063Z</time>
      </trkpt>
      <trkpt lat="48.4533" lon="7.14397">
        <ele>701</ele>
        <time>2019-05-15T08:14:21.063Z</time>
      </trkpt>
      <trkpt lat="48.45329" lon="7.14396">
        <ele>701</ele>
        <time>2019-05-15T08:14:22.063Z</time>
      </trkpt>
      <trkpt lat="48.45329" lon="7.14396">
        <ele>701</ele>
        <time>2019-05-15T08:14:23.063Z</time>
      </trkpt>
      <trkpt lat="48.45329" lon="7.14396">
        <ele>701</ele>
        <time>2019-05-15T08:14:24.063Z</time>
      </trkpt>
      <trkpt lat="48.45328" lon="7.14395">
        <ele>702</ele>
        <time>2019-05-15T08:14:25.063Z</time>
      </trkpt>
      <trkpt lat="48.45327" lon="7.14395">
        <ele>703</ele>
        <time>2019-05-15T08:14:26.063Z</time>
      </trkpt>
      <trkpt lat="48.45326" lon="7.14395">
        <ele>704</ele>
        <time>2019-05-15T08:14:27.063Z</time>
      </trkpt>
      <trkpt lat="48.45325" lon="7.14394">
        <ele>704</ele>
        <time>2019-05-15T08:14:28.063Z</time>
      </trkpt>
      <trkpt lat="48.45324" lon="7.14394">
        <ele>703</ele>
        <time>2019-05-15T08:14:29.063Z</time>
      </trkpt>
      <trkpt lat="48.45324" lon="7.14392">
        <ele>703</ele>
        <time>2019-05-15T08:14:30.063Z</time>
      </trkpt>
      <trkpt lat="48.45323" lon="7.14391">
        <ele>702</ele>
        <time>2019-05-15T08:14:31.063Z</time>
      </trkpt>
      <trkpt lat="48.45323" lon="7.1439">
        <ele>701</ele>
        <time>2019-05-15T08:14:32.063Z</time>
      </trkpt>
      <trkpt lat="48.45322" lon="7.14389">
        <ele>702</ele>
        <time>2019-05-15T08:14:33.063Z</time>
      </trkpt>
      <trkpt lat="48.45322" lon="7.14389">
        <ele>702</ele>
        <time>2019-05-15T08:14:34.063Z</time>
      </trkpt>
      <trkpt lat="48.45321" lon="7.14388">
        <ele>701</ele>
        <time>2019-05-15T08:14:35.063Z</time>
      </trkpt>
      <trkpt lat="48.45321" lon="7.14387">
        <ele>702</ele>
        <time>2019-05-15T08:14:36.063Z</time>
      </trkpt>
      <trkpt lat="48.4532" lon="7.14387">
        <ele>702</ele>
        <time>2019-05-15T08:14:37.063Z</time>
      </trkpt>
      <trkpt lat="48.4532" lon="7.14386">
        <ele>703</ele>
        <time>2019-05-15T08:14:38.063Z</time>
      </trkpt>
      <trkpt lat="48.45319" lon="7.14386">
        <ele>703</ele>
        <time>2019-05-15T08:14:39.063Z</time>
      </trkpt>
      <trkpt lat="48.45319" lon="7.14385">
        <ele>702</ele>
        <time>2019-05-15T08:14:40.063Z</time>
      </trkpt>
      <trkpt lat="48.45319" lon="7.14384">
        <ele>703</ele>
        <time>2019-05-15T08:14:41.063Z</time>
      </trkpt>
      <trkpt lat="48.45318" lon="7.14383">
        <ele>703</ele>
        <time>2019-05-15T08:14:42.063Z</time>
      </trkpt>
      <trkpt lat="48.45318" lon="7.14382">
        <ele>704</ele>
        <time>2019-05-15T08:14:43.063Z</time>
      </trkpt>
      <trkpt lat="48.45318" lon="7.14382">
        <ele>706</ele>
        <time>2019-05-15T08:14:44.063Z</time>
      </trkpt>
      <trkpt lat="48.45317" lon="7.14382">
        <ele>707</ele>
        <time>2019-05-15T08:14:45.063Z</time>
      </trkpt>
      <trkpt lat="48.45317" lon="7.14382">
        <ele>707</ele>
        <time>2019-05-15T08:14:46.063Z</time>
      </trkpt>
      <trkpt lat="48.45316" lon="7.14381">
        <ele>708</ele>
        <time>2019-05-15T08:14:47.063Z</time>
      </trkpt>
      <trkpt lat="48.45316" lon="7.14381">
        <ele>707</ele>
        <time>2019-05-15T08:14:48.063Z</time>
      </trkpt>
      <trkpt lat="48.45315" lon="7.14381">
        <ele>709</ele>
        <time>2019-05-15T08:14:49.063Z</time>
      </trkpt>
      <trkpt lat="48.45314" lon="7.14381">
        <ele>710</ele>
        <time>2019-05-15T08:14:50.063Z</time>
      </trkpt>
      <trkpt lat="48.45314" lon="7.14381">
        <ele>710</ele>
        <time>2019-05-15T08:14:51.063Z</time>
      </trkpt>
      <trkpt lat="48.45313" lon="7.14381">
        <ele>710</ele>
        <time>2019-05-15T08:14:52.063Z</time>
      </trkpt>
      <trkpt lat="48.45313" lon="7.1438">
        <ele>709</ele>
        <time>2019-05-15T08:14:53.063Z</time>
      </trkpt>
      <trkpt lat="48.45313" lon="7.14379">
        <ele>708</ele>
        <time>2019-05-15T08:14:54.063Z</time>
      </trkpt>
      <trkpt lat="48.45313" lon="7.14378">
        <ele>707</ele>
        <time>2019-05-15T08:14:55.063Z</time>
      </trkpt>
      <trkpt lat="48.45313" lon="7.14377">
        <ele>707</ele>
        <time>2019-05-15T08:14:56.063Z</time>
      </trkpt>
      <trkpt lat="48.45313" lon="7.14376">
        <ele>706</ele>
        <time>2019-05-15T08:14:57.063Z</time>
      </trkpt>
      <trkpt lat="48.45313" lon="7.14375">
        <ele>705</ele>
        <time>2019-05-15T08:14:58.063Z</time>
      </trkpt>
      <trkpt lat="48.45312" lon="7.14373">
        <ele>705</ele>
        <time>2019-05-15T08:14:59.063Z</time>
      </trkpt>
      <trkpt lat="48.45312" lon="7.14372">
        <ele>704</ele>
        <time>2019-05-15T08:15:00.063Z</time>
      </trkpt>
      <trkpt lat="48.45312" lon="7.14372">
        <ele>705</ele>
        <time>2019-05-15T08:15:01.063Z</time>
      </trkpt>
      <trkpt lat="48.45311" lon="7.14371">
        <ele>705</ele>
        <time>2019-05-15T08:15:02.063Z</time>
      </trkpt>
      <trkpt lat="48.45311" lon="7.1437">
        <ele>705</ele>
        <time>2019-05-15T08:15:03.063Z</time>
      </trkpt>
      <trkpt lat="48.45311" lon="7.1437">
        <ele>706</ele>
        <time>2019-05-15T08:15:04.063Z</time>
      </trkpt>
      <trkpt lat="48.4531" lon="7.14369">
        <ele>705</ele>
        <time>2019-05-15T08:15:05.063Z</time>
      </trkpt>
      <trkpt lat="48.4531" lon="7.14368">
        <ele>703</ele>
        <time>2019-05-15T08:15:06.063Z</time>
      </trkpt>
      <trkpt lat="48.4531" lon="7.14368">
        <ele>702</ele>
        <time>2019-05-15T08:15:07.063Z</time>
      </trkpt>
      <trkpt lat="48.4531" lon="7.14367">
        <ele>702</ele>
        <time>2019-05-15T08:15:08.063Z</time>
      </trkpt>
      <trkpt lat="48.4531" lon="7.14366">
        <ele>701</ele>
        <time>2019-05-15T08:15:09.063Z</time>
      </trkpt>
      <trkpt lat="48.4531" lon="7.14365">
        <ele>702</ele>
        <time>2019-05-15T08:15:10.063Z</time>
      </trkpt>
      <trkpt lat="48.4531" lon="7.14365">
        <ele>704</ele>
        <time>2019-05-15T08:15:11.063Z</time>
      </trkpt>
      <trkpt lat="48.45309" lon="7.14364">
        <ele>704</ele>
        <time>2019-05-15T08:15:12.063Z</time>
      </trkpt>
      <trkpt lat="48.45309" lon="7.14364">
        <ele>706</ele>
        <time>2019-05-15T08:15:13.063Z</time>
      </trkpt>
      <trkpt lat="48.45308" lon="7.14364">
        <ele>706</ele>
        <time>2019-05-15T08:15:14.063Z</time>
      </trkpt>
      <trkpt lat="48.45308" lon="7.14364">
        <ele>706</ele>
        <time>2019-05-15T08:15:15.063Z</time>
      </trkpt>
      <trkpt lat="48.45307" lon="7.14364">
        <ele>707</ele>
        <time>2019-05-15T08:15:16.063Z</time>
      </trkpt>
      <trkpt lat="48.45307" lon="7.14363">
        <ele>706</ele>
        <time>2019-05-15T08:15:17.063Z</time>
      </trkpt>
      <trkpt lat="48.45307" lon="7.14362">
        <ele>706</ele>
        <time>2019-05-15T08:15:18.063Z</time>
      </trkpt>
      <trkpt lat="48.45306" lon="7.14361">
        <ele>705</ele>
        <time>2019-05-15T08:15:19.063Z</time>
      </trkpt>
      <trkpt lat="48.45306" lon="7.1436">
        <ele>705</ele>
        <time>2019-05-15T08:15:20.063Z</time>
      </trkpt>
      <trkpt lat="48.45305" lon="7.1436">
        <ele>705</ele>
        <time>2019-05-15T08:15:21.063Z</time>
      </trkpt>
      <trkpt lat="48.45305" lon="7.14359">
        <ele>705</ele>
        <time>2019-05-15T08:15:22.063Z</time>
      </trkpt>
      <trkpt lat="48.45304" lon="7.14359">
        <ele>705</ele>
        <time>2019-05-15T08:15:23.063Z</time>
      </trkpt>
      <trkpt lat="48.45304" lon="7.14358">
        <ele>705</ele>
        <time>2019-05-15T08:15:24.063Z</time>
      </trkpt>
      <trkpt lat="48.45304" lon="7.14357">
        <ele>703</ele>
        <time>2019-05-15T08:15:25.063Z</time>
      </trkpt>
      <trkpt lat="48.45304" lon="7.14355">
        <ele>704</ele>
        <time>2019-05-15T08:15:26.063Z</time>
      </trkpt>
      <trkpt lat="48.45303" lon="7.14354">
        <ele>703</ele>
        <time>2019-05-15T08:15:27.063Z</time>
      </trkpt>
      <trkpt lat="48.45303" lon="7.14353">
        <ele>704</ele>
        <time>2019-05-15T08:15:28.063Z</time>
      </trkpt>
      <trkpt lat="48.45303" lon="7.14352">
        <ele>703</ele>
        <time>2019-05-15T08:15:29.063Z</time>
      </trkpt>
      <trkpt lat="48.45302" lon="7.14352">
        <ele>704</ele>
        <time>2019-05-15T08:15:30.063Z</time>
      </trkpt>
      <trkpt lat="48.45302" lon="7.14352">
        <ele>704</ele>
        <time>2019-05-15T08:15:31.063Z</time>
      </trkpt>
      <trkpt lat="48.45301" lon="7.14352">
        <ele>704</ele>
        <time>2019-05-15T08:15:32.063Z</time>
      </trkpt>
      <trkpt lat="48.453" lon="7.14351">
        <ele>705</ele>
        <time>2019-05-15T08:15:33.063Z</time>
      </trkpt>
      <trkpt lat="48.453" lon="7.14351">
        <ele>706</ele>
        <time>2019-05-15T08:15:34.063Z</time>
      </trkpt>
      <trkpt lat="48.453" lon="7.1435">
        <ele>706</ele>
        <time>2019-05-15T08:15:35.063Z</time>
      </trkpt>
      <trkpt lat="48.45299" lon="7.1435">
        <ele>707</ele>
        <time>2019-05-15T08:15:36.063Z</time>
      </trkpt>
      <trkpt lat="48.45299" lon="7.1435">
        <ele>708</ele>
        <time>2019-05-15T08:15:37.063Z</time>
      </trkpt>
      <trkpt lat="48.45298" lon="7.1435">
        <ele>708</ele>
        <time>2019-05-15T08:15:38.063Z</time>
      </trkpt>
      <trkpt lat="48.45298" lon="7.1435">
        <ele>708</ele>
        <time>2019-05-15T08:15:39.063Z</time>
      </trkpt>
      <trkpt lat="48.45298" lon="7.14349">
        <ele>708</ele>
        <time>2019-05-15T08:15:40.063Z</time>
      </trkpt>
      <trkpt lat="48.45298" lon="7.14349">
        <ele>708</ele>
        <time>2019-05-15T08:15:41.063Z</time>
      </trkpt>
      <trkpt lat="48.45298" lon="7.14349">
        <ele>708</ele>
        <time>2019-05-15T08:15:42.063Z</time>
      </trkpt>
      <trkpt lat="48.45297" lon="7.14349">
        <ele>710</ele>
        <time>2019-05-15T08:15:43.063Z</time>
      </trkpt>
      <trkpt lat="48.45296" lon="7.14349">
        <ele>710</ele>
        <time>2019-05-15T08:15:44.063Z</time>
      </trkpt>
      <trkpt lat="48.45295" lon="7.1435">
        <ele>710</ele>
        <time>2019-05-15T08:15:45.063Z</time>
      </trkpt>
      <trkpt lat="48.45294" lon="7.1435">
        <ele>711</ele>
        <time>2019-05-15T08:15:46.063Z</time>
      </trkpt>
      <trkpt lat="48.45294" lon="7.14349">
        <ele>710</ele>
        <time>2019-05-15T08:15:47.063Z</time>
      </trkpt>
      <trkpt lat="48.45294" lon="7.14349">
        <ele>711</ele>
        <time>2019-05-15T08:15:48.063Z</time>
      </trkpt>
      <trkpt lat="48.45293" lon="7.14348">
        <ele>711</ele>
        <time>2019-05-15T08:15:49.063Z</time>
      </trkpt>
      <trkpt lat="48.45292" lon="7.14348">
        <ele>712</ele>
        <time>2019-05-15T08:15:50.063Z</time>
      </trkpt>
      <trkpt lat="48.45292" lon="7.14348">
        <ele>711</ele>
        <time>2019-05-15T08:15:51.063Z</time>
      </trkpt>
      <trkpt lat="48.45291" lon="7.14347">
        <ele>711</ele>
        <time>2019-05-15T08:15:52.063Z</time>
      </trkpt>
      <trkpt lat="48.4529" lon="7.14347">
        <ele>711</ele>
        <time>2019-05-15T08:15:53.063Z</time>
      </trkpt>
      <trkpt lat="48.45289" lon="7.14346">
        <ele>711</ele>
        <time>2019-05-15T08:15:54.063Z</time>
      </trkpt>
      <trkpt lat="48.45289" lon="7.14344">
        <ele>709</ele>
        <time>2019-05-15T08:15:55.063Z</time>
      </trkpt>
      <trkpt lat="48.45289" lon="7.14343">
        <ele>709</ele>
        <time>2019-05-15T08:15:56.063Z</time>
      </trkpt>
      <trkpt lat="48.45288" lon="7.14342">
        <ele>710</ele>
        <time>2019-05-15T08:15:57.063Z</time>
      </trkpt>
      <trkpt lat="48.45288" lon="7.14341">
        <ele>709</ele>
        <time>2019-05-15T08:15:58.063Z</time>
      </trkpt>
      <trkpt lat="48.45287" lon="7.1434">
        <ele>709</ele>
        <time>2019-05-15T08:15:59.063Z</time>
      </trkpt>
      <trkpt lat="48.45287" lon="7.14339">
        <ele>709</ele>
        <time>2019-05-15T08:16:00.063Z</time>
      </trkpt>
      <trkpt lat="48.45287" lon="7.14338">
        <ele>710</ele>
        <time>2019-05-15T08:16:01.063Z</time>
      </trkpt>
      <trkpt lat="48.45287" lon="7.14337">
        <ele>710</ele>
        <time>2019-05-15T08:16:02.063Z</time>
      </trkpt>
      <trkpt lat="48.45286" lon="7.14337">
        <ele>710</ele>
        <time>2019-05-15T08:16:03.063Z</time>
      </trkpt>
      <trkpt lat="48.45286" lon="7.14336">
        <ele>709</ele>
        <time>2019-05-15T08:16:04.063Z</time>
      </trkpt>
      <trkpt lat="48.45286" lon="7.14335">
        <ele>709</ele>
        <time>2019-05-15T08:16:05.063Z</time>
      </trkpt>
      <trkpt lat="48.45286" lon="7.14335">
        <ele>709</ele>
        <time>2019-05-15T08:16:06.063Z</time>
      </trkpt>
      <trkpt lat="48.45286" lon="7.14334">
        <ele>709</ele>
        <time>2019-05-15T08:16:07.063Z</time>
      </trkpt>
      <trkpt lat="48.45286" lon="7.14333">
        <ele>708</ele>
        <time>2019-05-15T08:16:08.063Z</time>
      </trkpt>
      <trkpt lat="48.45286" lon="7.14331">
        <ele>707</ele>
        <time>2019-05-15T08:16:09.063Z</time>
      </trkpt>
      <trkpt lat="48.45286" lon="7.1433">
        <ele>707</ele>
        <time>2019-05-15T08:16:10.063Z</time>
      </trkpt>
      <trkpt lat="48.45285" lon="7.1433">
        <ele>708</ele>
        <time>2019-05-15T08:16:11.063Z</time>
      </trkpt>
      <trkpt lat="48.45285" lon="7.1433">
        <ele>707</ele>
        <time>2019-05-15T08:16:12.063Z</time>
      </trkpt>
      <trkpt lat="48.45285" lon="7.14329">
        <ele>707</ele>
        <time>2019-05-15T08:16:13.063Z</time>
      </trkpt>
      <trkpt lat="48.45285" lon="7.14328">
        <ele>707</ele>
        <time>2019-05-15T08:16:14.063Z</time>
      </trkpt>
      <trkpt lat="48.45284" lon="7.14327">
        <ele>706</ele>
        <time>2019-05-15T08:16:15.063Z</time>
      </trkpt>
      <trkpt lat="48.45284" lon="7.14326">
        <ele>706</ele>
        <time>2019-05-15T08:16:16.063Z</time>
      </trkpt>
      <trkpt lat="48.45284" lon="7.14325">
        <ele>706</ele>
        <time>2019-05-15T08:16:17.063Z</time>
      </trkpt>
      <trkpt lat="48.45283" lon="7.14324">
        <ele>706</ele>
        <time>2019-05-15T08:16:18.063Z</time>
      </trkpt>
      <trkpt lat="48.45283" lon="7.14324">
        <ele>706</ele>
        <time>2019-05-15T08:16:19.063Z</time>
      </trkpt>
      <trkpt lat="48.45282" lon="7.14323">
        <ele>708</ele>
        <time>2019-05-15T08:16:20.063Z</time>
      </trkpt>
      <trkpt lat="48.45282" lon="7.14322">
        <ele>708</ele>
        <time>2019-05-15T08:16:21.063Z</time>
      </trkpt>
      <trkpt lat="48.45281" lon="7.14322">
        <ele>708</ele>
        <time>2019-05-15T08:16:22.063Z</time>
      </trkpt>
      <trkpt lat="48.45281" lon="7.14321">
        <ele>708</ele>
        <time>2019-05-15T08:16:23.063Z</time>
      </trkpt>
      <trkpt lat="48.45281" lon="7.1432">
        <ele>708</ele>
        <time>2019-05-15T08:16:24.063Z</time>
      </trkpt>
      <trkpt lat="48.4528" lon="7.1432">
        <ele>708</ele>
        <time>2019-05-15T08:16:25.063Z</time>
      </trkpt>
      <trkpt lat="48.4528" lon="7.14319">
        <ele>709</ele>
        <time>2019-05-15T08:16:26.063Z</time>
      </trkpt>
      <trkpt lat="48.45279" lon="7.14319">
        <ele>710</ele>
        <time>2019-05-15T08:16:27.063Z</time>
      </trkpt>
      <trkpt lat="48.45279" lon="7.14319">
        <ele>710</ele>
        <time>2019-05-15T08:16:28.063Z</time>
      </trkpt>
      <trkpt lat="48.45278" lon="7.14319">
        <ele>710</ele>
        <time>2019-05-15T08:16:29.063Z</time>
      </trkpt>
      <trkpt lat="48.45278" lon="7.14318">
        <ele>711</ele>
        <time>2019-05-15T08:16:30.063Z</time>
      </trkpt>
      <trkpt lat="48.45277" lon="7.14318">
        <ele>710</ele>
        <time>2019-05-15T08:16:31.063Z</time>
      </trkpt>
      <trkpt lat="48.45277" lon="7.14318">
        <ele>711</ele>
        <time>2019-05-15T08:16:32.063Z</time>
      </trkpt>
      <trkpt lat="48.45277" lon="7.14317">
        <ele>712</ele>
        <time>2019-05-15T08:16:33.063Z</time>
      </trkpt>
      <trkpt lat="48.45276" lon="7.14317">
        <ele>713</ele>
        <time>2019-05-15T08:16:34.063Z</time>
      </trkpt>
      <trkpt lat="48.45276" lon="7.14317">
        <ele>714</ele>
        <time>2019-05-15T08:16:35.063Z</time>
      </trkpt>
      <trkpt lat="48.45275" lon="7.14316">
        <ele>713</ele>
        <time>2019-05-15T08:16:36.063Z</time>
      </trkpt>
      <trkpt lat="48.45275" lon="7.14315">
        <ele>713</ele>
        <time>2019-05-15T08:16:37.063Z</time>
      </trkpt>
      <trkpt lat="48.45275" lon="7.14315">
        <ele>713</ele>
        <time>2019-05-15T08:16:38.063Z</time>
      </trkpt>
      <trkpt lat="48.45275" lon="7.14314">
        <ele>713</ele>
        <time>2019-05-15T08:16:39.063Z</time>
      </trkpt>
      <trkpt lat="48.45275" lon="7.14313">
        <ele>714</ele>
        <time>2019-05-15T08:16:40.063Z</time>
      </trkpt>
      <trkpt lat="48.45274" lon="7.14312">
        <ele>714</ele>
        <time>2019-05-15T08:16:41.063Z</time>
      </trkpt>
      <trkpt lat="48.45274" lon="7.14312">
        <ele>714</ele>
        <time>2019-05-15T08:16:42.063Z</time>
      </trkpt>
      <trkpt lat="48.45274" lon="7.14311">
        <ele>714</ele>
        <time>2019-05-15T08:16:43.063Z</time>
      </trkpt>
      <trkpt lat="48.45273" lon="7.14309">
        <ele>713</ele>
        <time>2019-05-15T08:16:44.063Z</time>
      </trkpt>
      <trkpt lat="48.45273" lon="7.14308">
        <ele>713</ele>
        <time>2019-05-15T08:16:45.063Z</time>
      </trkpt>
      <trkpt lat="48.45273" lon="7.14307">
        <ele>714</ele>
        <time>2019-05-15T08:16:46.063Z</time>
      </trkpt>
      <trkpt lat="48.45273" lon="7.14306">
        <ele>713</ele>
        <time>2019-05-15T08:16:47.063Z</time>
      </trkpt>
      <trkpt lat="48.45273" lon="7.14305">
        <ele>713</ele>
        <time>2019-05-15T08:16:48.063Z</time>
      </trkpt>
      <trkpt lat="48.45274" lon="7.14304">
        <ele>714</ele>
        <time>2019-05-15T08:16:49.063Z</time>
      </trkpt>
      <trkpt lat="48.45274" lon="7.14302">
        <ele>713</ele>
        <time>2019-05-15T08:16:50.063Z</time>
      </trkpt>
      <trkpt lat="48.45275" lon="7.14301">
        <ele>713</ele>
        <time>2019-05-15T08:16:51.063Z</time>
      </trkpt>
      <trkpt lat="48.45275" lon="7.143">
        <ele>712</ele>
        <time>2019-05-15T08:16:52.063Z</time>
      </trkpt>
      <trkpt lat="48.45275" lon="7.14299">
        <ele>712</ele>
        <time>2019-05-15T08:16:53.063Z</time>
      </trkpt>
      <trkpt lat="48.45275" lon="7.14298">
        <ele>712</ele>
        <time>2019-05-15T08:16:54.063Z</time>
      </trkpt>
      <trkpt lat="48.45275" lon="7.14297">
        <ele>712</ele>
        <time>2019-05-15T08:16:55.063Z</time>
      </trkpt>
      <trkpt lat="48.45275" lon="7.14296">
        <ele>711</ele>
        <time>2019-05-15T08:16:56.063Z</time>
      </trkpt>
      <trkpt lat="48.45275" lon="7.14295">
        <ele>711</ele>
        <time>2019-05-15T08:16:57.063Z</time>
      </trkpt>
      <trkpt lat="48.45274" lon="7.14294">
        <ele>711</ele>
        <time>2019-05-15T08:16:58.063Z</time>
      </trkpt>
      <trkpt lat="48.45274" lon="7.14292">
        <ele>710</ele>
        <time>2019-05-15T08:16:59.063Z</time>
      </trkpt>
      <trkpt lat="48.45274" lon="7.14291">
        <ele>710</ele>
        <time>2019-05-15T08:17:00.063Z</time>
      </trkpt>
      <trkpt lat="48.45273" lon="7.1429">
        <ele>710</ele>
        <time>2019-05-15T08:17:01.063Z</time>
      </trkpt>
      <trkpt lat="48.45273" lon="7.1429">
        <ele>710</ele>
        <time>2019-05-15T08:17:02.063Z</time>
      </trkpt>
      <trkpt lat="48.45272" lon="7.14289">
        <ele>711</ele>
        <time>2019-05-15T08:17:03.063Z</time>
      </trkpt>
      <trkpt lat="48.45272" lon="7.14288">
        <ele>712</ele>
        <time>2019-05-15T08:17:04.063Z</time>
      </trkpt>
      <trkpt lat="48.45271" lon="7.14288">
        <ele>714</ele>
        <time>2019-05-15T08:17:05.063Z</time>
      </trkpt>
      <trkpt lat="48.4527" lon="7.14287">
        <ele>714</ele>
        <time>2019-05-15T08:17:06.063Z</time>
      </trkpt>
      <trkpt lat="48.4527" lon="7.14286">
        <ele>714</ele>
        <time>2019-05-15T08:17:07.063Z</time>
      </trkpt>
      <trkpt lat="48.45269" lon="7.14286">
        <ele>714</ele>
        <time>2019-05-15T08:17:08.063Z</time>
      </trkpt>
      <trkpt lat="48.45269" lon="7.14285">
        <ele>714</ele>
        <time>2019-05-15T08:17:09.063Z</time>
      </trkpt>
      <trkpt lat="48.45268" lon="7.14285">
        <ele>716</ele>
        <time>2019-05-15T08:17:10.063Z</time>
      </trkpt>
      <trkpt lat="48.45268" lon="7.14285">
        <ele>716</ele>
        <time>2019-05-15T08:17:11.063Z</time>
      </trkpt>
      <trkpt lat="48.45268" lon="7.14285">
        <ele>717</ele>
        <time>2019-05-15T08:17:12.063Z</time>
      </trkpt>
      <trkpt lat="48.45267" lon="7.14285">
        <ele>716</ele>
        <time>2019-05-15T08:17:13.063Z</time>
      </trkpt>
      <trkpt lat="48.45267" lon="7.14284">
        <ele>717</ele>
        <time>2019-05-15T08:17:14.063Z</time>
      </trkpt>
      <trkpt lat="48.45267" lon="7.14284">
        <ele>717</ele>
        <time>2019-05-15T08:17:15.063Z</time>
      </trkpt>
      <trkpt lat="48.45267" lon="7.14283">
        <ele>716</ele>
        <time>2019-05-15T08:17:16.063Z</time>
      </trkpt>
      <trkpt lat="48.45267" lon="7.14283">
        <ele>717</ele>
        <time>2019-05-15T08:17:17.063Z</time>
      </trkpt>
      <trkpt lat="48.45267" lon="7.14283">
        <ele>717</ele>
        <time>2019-05-15T08:17:18.063Z</time>
      </trkpt>
      <trkpt lat="48.45266" lon="7.14283">
        <ele>718</ele>
        <time>2019-05-15T08:17:19.063Z</time>
      </trkpt>
      <trkpt lat="48.45266" lon="7.14283">
        <ele>718</ele>
        <time>2019-05-15T08:17:20.063Z</time>
      </trkpt>
      <trkpt lat="48.45266" lon="7.14283">
        <ele>719</ele>
        <time>2019-05-15T08:17:21.063Z</time>
      </trkpt>
      <trkpt lat="48.45266" lon="7.14283">
        <ele>717</ele>
        <time>2019-05-15T08:17:22.063Z</time>
      </trkpt>
      <trkpt lat="48.45267" lon="7.14282">
        <ele>717</ele>
        <time>2019-05-15T08:17:23.063Z</time>
      </trkpt>
      <trkpt lat="48.45267" lon="7.1428">
        <ele>718</ele>
        <time>2019-05-15T08:17:24.063Z</time>
      </trkpt>
      <trkpt lat="48.45267" lon="7.14279">
        <ele>718</ele>
        <time>2019-05-15T08:17:25.063Z</time>
      </trkpt>
      <trkpt lat="48.45267" lon="7.14279">
        <ele>720</ele>
        <time>2019-05-15T08:17:26.063Z</time>
      </trkpt>
      <trkpt lat="48.45267" lon="7.14278">
        <ele>721</ele>
        <time>2019-05-15T08:17:27.063Z</time>
      </trkpt>
      <trkpt lat="48.45268" lon="7.14278">
        <ele>721</ele>
        <time>2019-05-15T08:17:28.063Z</time>
      </trkpt>
      <trkpt lat="48.45268" lon="7.14278">
        <ele>722</ele>
        <time>2019-05-15T08:17:29.063Z</time>
      </trkpt>
      <trkpt lat="48.45268" lon="7.14278">
        <ele>723</ele>
        <time>2019-05-15T08:17:30.063Z</time>
      </trkpt>
      <trkpt lat="48.45268" lon="7.14278">
        <ele>723</ele>
        <time>2019-05-15T08:17:31.063Z</time>
      </trkpt>
      <trkpt lat="48.45269" lon="7.14278">
        <ele>724</ele>
        <time>2019-05-15T08:17:32.063Z</time>
      </trkpt>
      <trkpt lat="48.45269" lon="7.14278">
        <ele>724</ele>
        <time>2019-05-15T08:17:33.063Z</time>
      </trkpt>
      <trkpt lat="48.45269" lon="7.14278">
        <ele>724</ele>
        <time>2019-05-15T08:17:34.063Z</time>
      </trkpt>
      <trkpt lat="48.4527" lon="7.14278">
        <ele>724</ele>
        <time>2019-05-15T08:17:35.063Z</time>
      </trkpt>
      <trkpt lat="48.4527" lon="7.14278">
        <ele>725</ele>
        <time>2019-05-15T08:17:36.063Z</time>
      </trkpt>
      <trkpt lat="48.4527" lon="7.14277">
        <ele>726</ele>
        <time>2019-05-15T08:17:37.063Z</time>
      </trkpt>
      <trkpt lat="48.4527" lon="7.14278">
        <ele>726</ele>
        <time>2019-05-15T08:17:38.063Z</time>
      </trkpt>
      <trkpt lat="48.4527" lon="7.14278">
        <ele>728</ele>
        <time>2019-05-15T08:17:39.063Z</time>
      </trkpt>
      <trkpt lat="48.45271" lon="7.14278">
        <ele>728</ele>
        <time>2019-05-15T08:17:40.063Z</time>
      </trkpt>
      <trkpt lat="48.45271" lon="7.14278">
        <ele>728</ele>
        <time>2019-05-15T08:17:41.063Z</time>
      </trkpt>
      <trkpt lat="48.45271" lon="7.14278">
        <ele>729</ele>
        <time>2019-05-15T08:17:42.063Z</time>
      </trkpt>
      <trkpt lat="48.45272" lon="7.14278">
        <ele>729</ele>
        <time>2019-05-15T08:17:43.063Z</time>
      </trkpt>
      <trkpt lat="48.45272" lon="7.14278">
        <ele>729</ele>
        <time>2019-05-15T08:17:44.063Z</time>
      </trkpt>
      <trkpt lat="48.45273" lon="7.14279">
        <ele>731</ele>
        <time>2019-05-15T08:17:45.063Z</time>
      </trkpt>
      <trkpt lat="48.45273" lon="7.14279">
        <ele>730</ele>
        <time>2019-05-15T08:17:46.063Z</time>
      </trkpt>
      <trkpt lat="48.45273" lon="7.14279">
        <ele>731</ele>
        <time>2019-05-15T08:17:47.063Z</time>
      </trkpt>
      <trkpt lat="48.45274" lon="7.14279">
        <ele>731</ele>
        <time>2019-05-15T08:17:48.063Z</time>
      </trkpt>
      <trkpt lat="48.45274" lon="7.14279">
        <ele>731</ele>
        <time>2019-05-15T08:17:49.063Z</time>
      </trkpt>
      <trkpt lat="48.45275" lon="7.14279">
        <ele>731</ele>
        <time>2019-05-15T08:17:50.063Z</time>
      </trkpt>
      <trkpt lat="48.45276" lon="7.14279">
        <ele>729</ele>
        <time>2019-05-15T08:17:51.063Z</time>
      </trkpt>
      <trkpt lat="48.45276" lon="7.14279">
        <ele>729</ele>
        <time>2019-05-15T08:17:52.063Z</time>
      </trkpt>
      <trkpt lat="48.45277" lon="7.14279">
        <ele>729</ele>
        <time>2019-05-15T08:17:53.063Z</time>
      </trkpt>
      <trkpt lat="48.45277" lon="7.14279">
        <ele>729</ele>
        <time>2019-05-15T08:17:54.063Z</time>
      </trkpt>
      <trkpt lat="48.45278" lon="7.14279">
        <ele>730</ele>
        <time>2019-05-15T08:17:55.063Z</time>
      </trkpt>
      <trkpt lat="48.45278" lon="7.14279">
        <ele>730</ele>
        <time>2019-05-15T08:17:56.063Z</time>
      </trkpt>
      <trkpt lat="48.45279" lon="7.14279">
        <ele>730</ele>
        <time>2019-05-15T08:17:57.063Z</time>
      </trkpt>
      <trkpt lat="48.4528" lon="7.14279">
        <ele>731</ele>
        <time>2019-05-15T08:17:58.063Z</time>
      </trkpt>
      <trkpt lat="48.4528" lon="7.14279">
        <ele>731</ele>
        <time>2019-05-15T08:17:59.063Z</time>
      </trkpt>
      <trkpt lat="48.45281" lon="7.1428">
        <ele>731</ele>
        <time>2019-05-15T08:18:00.063Z</time>
      </trkpt>
      <trkpt lat="48.45281" lon="7.1428">
        <ele>732</ele>
        <time>2019-05-15T08:18:01.063Z</time>
      </trkpt>
      <trkpt lat="48.45282" lon="7.1428">
        <ele>732</ele>
        <time>2019-05-15T08:18:02.063Z</time>
      </trkpt>
      <trkpt lat="48.45283" lon="7.14281">
        <ele>731</ele>
        <time>2019-05-15T08:18:03.063Z</time>
      </trkpt>
      <trkpt lat="48.45283" lon="7.14281">
        <ele>732</ele>
        <time>2019-05-15T08:18:04.063Z</time>
      </trkpt>
      <trkpt lat="48.45284" lon="7.14281">
        <ele>733</ele>
        <time>2019-05-15T08:18:05.063Z</time>
      </trkpt>
      <trkpt lat="48.45285" lon="7.14281">
        <ele>734</ele>
        <time>2019-05-15T08:18:06.063Z</time>
      </trkpt>
      <trkpt lat="48.45285" lon="7.14282">
        <ele>734</ele>
        <time>2019-05-15T08:18:07.063Z</time>
      </trkpt>
      <trkpt lat="48.45286" lon="7.14282">
        <ele>734</ele>
        <time>2019-05-15T08:18:08.063Z</time>
      </trkpt>
      <trkpt lat="48.45286" lon="7.14282">
        <ele>735</ele>
        <time>2019-05-15T08:18:09.063Z</time>
      </trkpt>
      <trkpt lat="48.45286" lon="7.14283">
        <ele>735</ele>
        <time>2019-05-15T08:18:10.063Z</time>
      </trkpt>
      <trkpt lat="48.45287" lon="7.14283">
        <ele>736</ele>
        <time>2019-05-15T08:18:11.063Z</time>
      </trkpt>
      <trkpt lat="48.45288" lon="7.14283">
        <ele>736</ele>
        <time>2019-05-15T08:18:12.063Z</time>
      </trkpt>
      <trkpt lat="48.45288" lon="7.14284">
        <ele>737</ele>
        <time>2019-05-15T08:18:13.063Z</time>
      </trkpt>
      <trkpt lat="48.45289" lon="7.14284">
        <ele>737</ele>
        <time>2019-05-15T08:18:14.063Z</time>
      </trkpt>
      <trkpt lat="48.4529" lon="7.14284">
        <ele>736</ele>
        <time>2019-05-15T08:18:15.063Z</time>
      </trkpt>
      <trkpt lat="48.45291" lon="7.14284">
        <ele>736</ele>
        <time>2019-05-15T08:18:16.063Z</time>
      </trkpt>
      <trkpt lat="48.45291" lon="7.14284">
        <ele>736</ele>
        <time>2019-05-15T08:18:17.063Z</time>
      </trkpt>
      <trkpt lat="48.45292" lon="7.14284">
        <ele>734</ele>
        <time>2019-05-15T08:18:18.063Z</time>
      </trkpt>
      <trkpt lat="48.45293" lon="7.14284">
        <ele>733</ele>
        <time>2019-05-15T08:18:19.063Z</time>
      </trkpt>
      <trkpt lat="48.45295" lon="7.14284">
        <ele>734</ele>
        <time>2019-05-15T08:18:20.063Z</time>
      </trkpt>
      <trkpt lat="48.45295" lon="7.14284">
        <ele>734</ele>
        <time>2019-05-15T08:18:21.063Z</time>
      </trkpt>
      <trkpt lat="48.45296" lon="7.14284">
        <ele>734</ele>
        <time>2019-05-15T08:18:22.063Z</time>
      </trkpt>
      <trkpt lat="48.45297" lon="7.14284">
        <ele>734</ele>
        <time>2019-05-15T08:18:23.063Z</time>
      </trkpt>
      <trkpt lat="48.45297" lon="7.14284">
        <ele>735</ele>
        <time>2019-05-15T08:18:24.063Z</time>
      </trkpt>
      <trkpt lat="48.45298" lon="7.14285">
        <ele>735</ele>
        <time>2019-05-15T08:18:25.063Z</time>
      </trkpt>
      <trkpt lat="48.45298" lon="7.14286">
        <ele>737</ele>
        <time>2019-05-15T08:18:26.063Z</time>
      </trkpt>
      <trkpt lat="48.45299" lon="7.14287">
        <ele>737</ele>
        <time>2019-05-15T08:18:27.063Z</time>
      </trkpt>
      <trkpt lat="48.45299" lon="7.14288">
        <ele>738</ele>
        <time>2019-05-15T08:18:28.063Z</time>
      </trkpt>
      <trkpt lat="48.45299" lon="7.14288">
        <ele>737</ele>
        <time>2019-05-15T08:18:29.063Z</time>
      </trkpt>
      <trkpt lat="48.453" lon="7.14288">
        <ele>737</ele>
        <time>2019-05-15T08:18:30.063Z</time>
      </trkpt>
      <trkpt lat="48.45301" lon="7.14288">
        <ele>736</ele>
        <time>2019-05-15T08:18:31.063Z</time>
      </trkpt>
      <trkpt lat="48.45302" lon="7.14288">
        <ele>735</ele>
        <time>2019-05-15T08:18:32.063Z</time>
      </trkpt>
      <trkpt lat="48.45303" lon="7.14288">
        <ele>735</ele>
        <time>2019-05-15T08:18:33.063Z</time>
      </trkpt>
      <trkpt lat="48.45304" lon="7.14288">
        <ele>735</ele>
        <time>2019-05-15T08:18:34.063Z</time>
      </trkpt>
      <trkpt lat="48.45304" lon="7.14289">
        <ele>735</ele>
        <time>2019-05-15T08:18:35.063Z</time>
      </trkpt>
      <trkpt lat="48.45305" lon="7.14289">
        <ele>736</ele>
        <time>2019-05-15T08:18:36.063Z</time>
      </trkpt>
      <trkpt lat="48.45305" lon="7.14289">
        <ele>737</ele>
        <time>2019-05-15T08:18:37.063Z</time>
      </trkpt>
      <trkpt lat="48.45305" lon="7.14289">
        <ele>737</ele>
        <time>2019-05-15T08:18:38.063Z</time>
      </trkpt>
      <trkpt lat="48.45306" lon="7.14289">
        <ele>737</ele>
        <time>2019-05-15T08:18:39.063Z</time>
      </trkpt>
      <trkpt lat="48.45306" lon="7.14289">
        <ele>737</ele>
        <time>2019-05-15T08:18:40.063Z</time>
      </trkpt>
      <trkpt lat="48.45306" lon="7.14289">
        <ele>738</ele>
        <time>2019-05-15T08:18:41.063Z</time>
      </trkpt>
      <trkpt lat="48.45307" lon="7.14289">
        <ele>738</ele>
        <time>2019-05-15T08:18:42.063Z</time>
      </trkpt>
      <trkpt lat="48.45307" lon="7.1429">
        <ele>739</ele>
        <time>2019-05-15T08:18:43.063Z</time>
      </trkpt>
      <trkpt lat="48.45307" lon="7.1429">
        <ele>739</ele>
        <time>2019-05-15T08:18:44.063Z</time>
      </trkpt>
      <trkpt lat="48.45308" lon="7.14289">
        <ele>739</ele>
        <time>2019-05-15T08:18:45.063Z</time>
      </trkpt>
      <trkpt lat="48.45308" lon="7.14289">
        <ele>740</ele>
        <time>2019-05-15T08:18:46.063Z</time>
      </trkpt>
      <trkpt lat="48.45309" lon="7.14289">
        <ele>740</ele>
        <time>2019-05-15T08:18:47.063Z</time>
      </trkpt>
      <trkpt lat="48.4531" lon="7.14289">
        <ele>738</ele>
        <time>2019-05-15T08:18:48.063Z</time>
      </trkpt>
      <trkpt lat="48.45311" lon="7.14289">
        <ele>739</ele>
        <time>2019-05-15T08:18:49.063Z</time>
      </trkpt>
      <trkpt lat="48.45311" lon="7.14289">
        <ele>740</ele>
        <time>2019-05-15T08:18:50.063Z</time>
      </trkpt>
      <trkpt lat="48.45312" lon="7.14289">
        <ele>740</ele>
        <time>2019-05-15T08:18:51.063Z</time>
      </trkpt>
      <trkpt lat="48.45312" lon="7.1429">
        <ele>741</ele>
        <time>2019-05-15T08:18:52.063Z</time>
      </trkpt>
      <trkpt lat="48.45312" lon="7.1429">
        <ele>741</ele>
        <time>2019-05-15T08:18:53.063Z</time>
      </trkpt>
      <trkpt lat="48.45313" lon="7.14291">
        <ele>742</ele>
        <time>2019-05-15T08:18:54.063Z</time>
      </trkpt>
      <trkpt lat="48.45313" lon="7.14291">
        <ele>742</ele>
        <time>2019-05-15T08:18:55.063Z</time>
      </trkpt>
      <trkpt lat="48.45314" lon="7.14292">
        <ele>742</ele>
        <time>2019-05-15T08:18:56.063Z</time>
      </trkpt>
      <trkpt lat="48.45315" lon="7.14291">
        <ele>742</ele>
        <time>2019-05-15T08:18:57.063Z</time>
      </trkpt>
      <trkpt lat="48.45315" lon="7.14291">
        <ele>742</ele>
        <time>2019-05-15T08:18:58.063Z</time>
      </trkpt>
      <trkpt lat="48.45316" lon="7.14291">
        <ele>743</ele>
        <time>2019-05-15T08:18:59.063Z</time>
      </trkpt>
      <trkpt lat="48.45316" lon="7.14292">
        <ele>744</ele>
        <time>2019-05-15T08:19:00.063Z</time>
      </trkpt>
      <trkpt lat="48.45317" lon="7.14292">
        <ele>744</ele>
        <time>2019-05-15T08:19:01.063Z</time>
      </trkpt>
      <trkpt lat="48.45317" lon="7.14291">
        <ele>742</ele>
        <time>2019-05-15T08:19:02.063Z</time>
      </trkpt>
      <trkpt lat="48.45319" lon="7.14291">
        <ele>741</ele>
        <time>2019-05-15T08:19:03.063Z</time>
      </trkpt>
      <trkpt lat="48.4532" lon="7.1429">
        <ele>741</ele>
        <time>2019-05-15T08:19:04.063Z</time>
      </trkpt>
      <trkpt lat="48.4532" lon="7.1429">
        <ele>742</ele>
        <time>2019-05-15T08:19:05.063Z</time>
      </trkpt>
      <trkpt lat="48.45321" lon="7.1429">
        <ele>742</ele>
        <time>2019-05-15T08:19:06.063Z</time>
      </trkpt>
      <trkpt lat="48.45322" lon="7.1429">
        <ele>742</ele>
        <time>2019-05-15T08:19:07.063Z</time>
      </trkpt>
      <trkpt lat="48.45323" lon="7.1429">
        <ele>741</ele>
        <time>2019-05-15T08:19:08.063Z</time>
      </trkpt>
      <trkpt lat="48.45323" lon="7.1429">
        <ele>741</ele>
        <time>2019-05-15T08:19:09.063Z</time>
      </trkpt>
      <trkpt lat="48.45324" lon="7.14289">
        <ele>741</ele>
        <time>2019-05-15T08:19:10.063Z</time>
      </trkpt>
      <trkpt lat="48.45325" lon="7.14289">
        <ele>741</ele>
        <time>2019-05-15T08:19:11.063Z</time>
      </trkpt>
      <trkpt lat="48.45325" lon="7.14289">
        <ele>742</ele>
        <time>2019-05-15T08:19:12.063Z</time>
      </trkpt>
      <trkpt lat="48.45326" lon="7.14289">
        <ele>742</ele>
        <time>2019-05-15T08:19:13.063Z</time>
      </trkpt>
      <trkpt lat="48.45327" lon="7.14289">
        <ele>742</ele>
        <time>2019-05-15T08:19:14.063Z</time>
      </trkpt>
      <trkpt lat="48.45328" lon="7.14288">
        <ele>742</ele>
        <time>2019-05-15T08:19:15.063Z</time>
      </trkpt>
      <trkpt lat="48.45328" lon="7.14288">
        <ele>743</ele>
        <time>2019-05-15T08:19:16.063Z</time>
      </trkpt>
      <trkpt lat="48.45329" lon="7.14288">
        <ele>742</ele>
        <time>2019-05-15T08:19:17.063Z</time>
      </trkpt>
      <trkpt lat="48.45329" lon="7.14288">
        <ele>742</ele>
        <time>2019-05-15T08:19:18.063Z</time>
      </trkpt>
      <trkpt lat="48.4533" lon="7.14288">
        <ele>744</ele>
        <time>2019-05-15T08:19:19.063Z</time>
      </trkpt>
      <trkpt lat="48.4533" lon="7.14288">
        <ele>744</ele>
        <time>2019-05-15T08:19:20.063Z</time>
      </trkpt>
      <trkpt lat="48.4533" lon="7.14288">
        <ele>744</ele>
        <time>2019-05-15T08:19:21.063Z</time>
      </trkpt>
      <trkpt lat="48.45331" lon="7.14288">
        <ele>744</ele>
        <time>2019-05-15T08:19:22.063Z</time>
      </trkpt>
      <trkpt lat="48.45331" lon="7.14288">
        <ele>745</ele>
        <time>2019-05-15T08:19:23.063Z</time>
      </trkpt>
      <trkpt lat="48.45332" lon="7.14288">
        <ele>745</ele>
        <time>2019-05-15T08:19:24.063Z</time>
      </trkpt>
      <trkpt lat="48.45332" lon="7.14288">
        <ele>745</ele>
        <time>2019-05-15T08:19:25.063Z</time>
      </trkpt>
      <trkpt lat="48.45332" lon="7.14288">
        <ele>745</ele>
        <time>2019-05-15T08:19:26.063Z</time>
      </trkpt>
      <trkpt lat="48.45333" lon="7.14288">
        <ele>745</ele>
        <time>2019-05-15T08:19:27.063Z</time>
      </trkpt>
      <trkpt lat="48.45333" lon="7.14288">
        <ele>745</ele>
        <time>2019-05-15T08:19:28.063Z</time>
      </trkpt>
      <trkpt lat="48.45334" lon="7.14288">
        <ele>744</ele>
        <time>2019-05-15T08:19:29.063Z</time>
      </trkpt>
      <trkpt lat="48.45334" lon="7.14288">
        <ele>745</ele>
        <time>2019-05-15T08:19:30.063Z</time>
      </trkpt>
      <trkpt lat="48.45335" lon="7.14288">
        <ele>745</ele>
        <time>2019-05-15T08:19:31.063Z</time>
      </trkpt>
      <trkpt lat="48.45335" lon="7.14288">
        <ele>746</ele>
        <time>2019-05-15T08:19:32.063Z</time>
      </trkpt>
      <trkpt lat="48.45336" lon="7.14288">
        <ele>746</ele>
        <time>2019-05-15T08:19:33.063Z</time>
      </trkpt>
      <trkpt lat="48.45336" lon="7.14288">
        <ele>747</ele>
        <time>2019-05-15T08:19:34.063Z</time>
      </trkpt>
      <trkpt lat="48.45337" lon="7.14288">
        <ele>747</ele>
        <time>2019-05-15T08:19:35.063Z</time>
      </trkpt>
      <trkpt lat="48.45337" lon="7.14288">
        <ele>748</ele>
        <time>2019-05-15T08:19:36.063Z</time>
      </trkpt>
      <trkpt lat="48.45338" lon="7.14288">
        <ele>748</ele>
        <time>2019-05-15T08:19:37.063Z</time>
      </trkpt>
      <trkpt lat="48.45338" lon="7.14287">
        <ele>749</ele>
        <time>2019-05-15T08:19:38.063Z</time>
      </trkpt>
      <trkpt lat="48.45338" lon="7.14287">
        <ele>749</ele>
        <time>2019-05-15T08:19:39.063Z</time>
      </trkpt>
      <trkpt lat="48.45339" lon="7.14287">
        <ele>750</ele>
        <time>2019-05-15T08:19:40.063Z</time>
      </trkpt>
      <trkpt lat="48.45339" lon="7.14287">
        <ele>750</ele>
        <time>2019-05-15T08:19:41.063Z</time>
      </trkpt>
      <trkpt lat="48.4534" lon="7.14287">
        <ele>750</ele>
        <time>2019-05-15T08:19:42.063Z</time>
      </trkpt>
      <trkpt lat="48.4534" lon="7.14286">
        <ele>750</ele>
        <time>2019-05-15T08:19:43.063Z</time>
      </trkpt>
      <trkpt lat="48.45341" lon="7.14285">
        <ele>749</ele>
        <time>2019-05-15T08:19:44.063Z</time>
      </trkpt>
      <trkpt lat="48.45342" lon="7.14285">
        <ele>749</ele>
        <time>2019-05-15T08:19:45.063Z</time>
      </trkpt>
      <trkpt lat="48.45342" lon="7.14284">
        <ele>750</ele>
        <time>2019-05-15T08:19:46.063Z</time>
      </trkpt>
      <trkpt lat="48.45343" lon="7.14283">
        <ele>749</ele>
        <time>2019-05-15T08:19:47.063Z</time>
      </trkpt>
      <trkpt lat="48.45343" lon="7.14283">
        <ele>750</ele>
        <time>2019-05-15T08:19:48.063Z</time>
      </trkpt>
      <trkpt lat="48.45343" lon="7.14282">
        <ele>749</ele>
        <time>2019-05-15T08:19:49.063Z</time>
      </trkpt>
      <trkpt lat="48.45344" lon="7.14282">
        <ele>749</ele>
        <time>2019-05-15T08:19:50.063Z</time>
      </trkpt>
      <trkpt lat="48.45344" lon="7.14282">
        <ele>749</ele>
        <time>2019-05-15T08:19:51.063Z</time>
      </trkpt>
      <trkpt lat="48.45345" lon="7.14282">
        <ele>748</ele>
        <time>2019-05-15T08:19:52.063Z</time>
      </trkpt>
      <trkpt lat="48.45346" lon="7.14281">
        <ele>747</ele>
        <time>2019-05-15T08:19:53.063Z</time>
      </trkpt>
      <trkpt lat="48.45347" lon="7.1428">
        <ele>747</ele>
        <time>2019-05-15T08:19:54.063Z</time>
      </trkpt>
      <trkpt lat="48.45348" lon="7.1428">
        <ele>747</ele>
        <time>2019-05-15T08:19:55.063Z</time>
      </trkpt>
      <trkpt lat="48.45348" lon="7.14279">
        <ele>747</ele>
        <time>2019-05-15T08:19:56.063Z</time>
      </trkpt>
      <trkpt lat="48.45349" lon="7.14279">
        <ele>746</ele>
        <time>2019-05-15T08:19:57.063Z</time>
      </trkpt>
      <trkpt lat="48.4535" lon="7.14278">
        <ele>746</ele>
        <time>2019-05-15T08:19:58.063Z</time>
      </trkpt>
      <trkpt lat="48.45351" lon="7.14277">
        <ele>746</ele>
        <time>2019-05-15T08:19:59.063Z</time>
      </trkpt>
      <trkpt lat="48.45351" lon="7.14277">
        <ele>747</ele>
        <time>2019-05-15T08:20:00.063Z</time>
      </trkpt>
      <trkpt lat="48.45352" lon="7.14276">
        <ele>747</ele>
        <time>2019-05-15T08:20:01.063Z</time>
      </trkpt>
      <trkpt lat="48.45352" lon="7.14276">
        <ele>748</ele>
        <time>2019-05-15T08:20:02.063Z</time>
      </trkpt>
      <trkpt lat="48.45352" lon="7.14276">
        <ele>749</ele>
        <time>2019-05-15T08:20:03.063Z</time>
      </trkpt>
      <trkpt lat="48.45352" lon="7.14276">
        <ele>748</ele>
        <time>2019-05-15T08:20:04.063Z</time>
      </trkpt>
      <trkpt lat="48.45353" lon="7.14276">
        <ele>748</ele>
        <time>2019-05-15T08:20:05.063Z</time>
      </trkpt>
      <trkpt lat="48.45353" lon="7.14275">
        <ele>748</ele>
        <time>2019-05-15T08:20:06.063Z</time>
      </trkpt>
      <trkpt lat="48.45354" lon="7.14275">
        <ele>747</ele>
        <time>2019-05-15T08:20:07.063Z</time>
      </trkpt>
      <trkpt lat="48.45354" lon="7.14275">
        <ele>747</ele>
        <time>2019-05-15T08:20:08.063Z</time>
      </trkpt>
      <trkpt lat="48.45355" lon="7.14274">
        <ele>747</ele>
        <time>2019-05-15T08:20:09.063Z</time>
      </trkpt>
      <trkpt lat="48.45356" lon="7.14274">
        <ele>746</ele>
        <time>2019-05-15T08:20:10.063Z</time>
      </trkpt>
      <trkpt lat="48.45356" lon="7.14273">
        <ele>745</ele>
        <time>2019-05-15T08:20:11.063Z</time>
      </trkpt>
      <trkpt lat="48.45357" lon="7.14272">
        <ele>746</ele>
        <time>2019-05-15T08:20:12.063Z</time>
      </trkpt>
      <trkpt lat="48.45357" lon="7.14272">
        <ele>746</ele>
        <time>2019-05-15T08:20:13.063Z</time>
      </trkpt>
      <trkpt lat="48.45358" lon="7.1427">
        <ele>745</ele>
        <time>2019-05-15T08:20:14.063Z</time>
      </trkpt>
      <trkpt lat="48.45359" lon="7.1427">
        <ele>745</ele>
        <time>2019-05-15T08:20:15.063Z</time>
      </trkpt>
      <trkpt lat="48.45359" lon="7.14269">
        <ele>745</ele>
        <time>2019-05-15T08:20:16.063Z</time>
      </trkpt>
      <trkpt lat="48.4536" lon="7.14269">
        <ele>746</ele>
        <time>2019-05-15T08:20:17.063Z</time>
      </trkpt>
      <trkpt lat="48.4536" lon="7.14269">
        <ele>746</ele>
        <time>2019-05-15T08:20:18.063Z</time>
      </trkpt>
      <trkpt lat="48.4536" lon="7.14269">
        <ele>748</ele>
        <time>2019-05-15T08:20:19.063Z</time>
      </trkpt>
      <trkpt lat="48.4536" lon="7.14269">
        <ele>749</ele>
        <time>2019-05-15T08:20:20.063Z</time>
      </trkpt>
      <trkpt lat="48.45361" lon="7.14269">
        <ele>749</ele>
        <time>2019-05-15T08:20:21.063Z</time>
      </trkpt>
      <trkpt lat="48.45361" lon="7.14269">
        <ele>750</ele>
        <time>2019-05-15T08:20:22.063Z</time>
      </trkpt>
      <trkpt lat="48.45362" lon="7.14268">
        <ele>751</ele>
        <time>2019-05-15T08:20:23.063Z</time>
      </trkpt>
      <trkpt lat="48.45362" lon="7.14268">
        <ele>751</ele>
        <time>2019-05-15T08:20:24.063Z</time>
      </trkpt>
      <trkpt lat="48.45363" lon="7.14267">
        <ele>751</ele>
        <time>2019-05-15T08:20:25.063Z</time>
      </trkpt>
      <trkpt lat="48.45363" lon="7.14267">
        <ele>753</ele>
        <time>2019-05-15T08:20:26.063Z</time>
      </trkpt>
      <trkpt lat="48.45364" lon="7.14267">
        <ele>753</ele>
        <time>2019-05-15T08:20:27.063Z</time>
      </trkpt>
      <trkpt lat="48.45364" lon="7.14267">
        <ele>752</ele>
        <time>2019-05-15T08:20:28.063Z</time>
      </trkpt>
      <trkpt lat="48.45365" lon="7.14266">
        <ele>752</ele>
        <time>2019-05-15T08:20:29.063Z</time>
      </trkpt>
      <trkpt lat="48.45365" lon="7.14265">
        <ele>753</ele>
        <time>2019-05-15T08:20:30.063Z</time>
      </trkpt>
      <trkpt lat="48.45366" lon="7.14264">
        <ele>753</ele>
        <time>2019-05-15T08:20:31.063Z</time>
      </trkpt>
      <trkpt lat="48.45366" lon="7.14264">
        <ele>753</ele>
        <time>2019-05-15T08:20:32.063Z</time>
      </trkpt>
      <trkpt lat="48.45366" lon="7.14263">
        <ele>753</ele>
        <time>2019-05-15T08:20:33.063Z</time>
      </trkpt>
      <trkpt lat="48.45367" lon="7.14263">
        <ele>752</ele>
        <time>2019-05-15T08:20:34.063Z</time>
      </trkpt>
      <trkpt lat="48.45368" lon="7.14262">
        <ele>753</ele>
        <time>2019-05-15T08:20:35.063Z</time>
      </trkpt>
      <trkpt lat="48.45368" lon="7.14261">
        <ele>753</ele>
        <time>2019-05-15T08:20:36.063Z</time>
      </trkpt>
      <trkpt lat="48.45369" lon="7.14261">
        <ele>753</ele>
        <time>2019-05-15T08:20:37.063Z</time>
      </trkpt>
      <trkpt lat="48.4537" lon="7.1426">
        <ele>754</ele>
        <time>2019-05-15T08:20:38.063Z</time>
      </trkpt>
      <trkpt lat="48.4537" lon="7.14259">
        <ele>754</ele>
        <time>2019-05-15T08:20:39.063Z</time>
      </trkpt>
      <trkpt lat="48.45371" lon="7.14259">
        <ele>754</ele>
        <time>2019-05-15T08:20:40.063Z</time>
      </trkpt>
      <trkpt lat="48.45371" lon="7.14259">
        <ele>753</ele>
        <time>2019-05-15T08:20:41.063Z</time>
      </trkpt>
      <trkpt lat="48.45372" lon="7.14258">
        <ele>756</ele>
        <time>2019-05-15T08:20:42.063Z</time>
      </trkpt>
      <trkpt lat="48.45372" lon="7.14258">
        <ele>755</ele>
        <time>2019-05-15T08:20:43.063Z</time>
      </trkpt>
      <trkpt lat="48.45373" lon="7.14258">
        <ele>755</ele>
        <time>2019-05-15T08:20:44.063Z</time>
      </trkpt>
      <trkpt lat="48.45373" lon="7.14257">
        <ele>755</ele>
        <time>2019-05-15T08:20:45.063Z</time>
      </trkpt>
      <trkpt lat="48.45373" lon="7.14257">
        <ele>756</ele>
        <time>2019-05-15T08:20:46.063Z</time>
      </trkpt>
      <trkpt lat="48.45374" lon="7.14256">
        <ele>755</ele>
        <time>2019-05-15T08:20:47.063Z</time>
      </trkpt>
      <trkpt lat="48.45374" lon="7.14256">
        <ele>755</ele>
        <time>2019-05-15T08:20:48.063Z</time>
      </trkpt>
      <trkpt lat="48.45375" lon="7.14255">
        <ele>756</ele>
        <time>2019-05-15T08:20:49.063Z</time>
      </trkpt>
      <trkpt lat="48.45375" lon="7.14255">
        <ele>755</ele>
        <time>2019-05-15T08:20:50.063Z</time>
      </trkpt>
      <trkpt lat="48.45376" lon="7.14254">
        <ele>755</ele>
        <time>2019-05-15T08:20:51.063Z</time>
      </trkpt>
      <trkpt lat="48.45376" lon="7.14254">
        <ele>755</ele>
        <time>2019-05-15T08:20:52.063Z</time>
      </trkpt>
      <trkpt lat="48.45376" lon="7.14253">
        <ele>756</ele>
        <time>2019-05-15T08:20:53.063Z</time>
      </trkpt>
      <trkpt lat="48.45377" lon="7.14252">
        <ele>756</ele>
        <time>2019-05-15T08:20:54.063Z</time>
      </trkpt>
      <trkpt lat="48.45377" lon="7.14252">
        <ele>756</ele>
        <time>2019-05-15T08:20:55.063Z</time>
      </trkpt>
      <trkpt lat="48.45377" lon="7.14251">
        <ele>756</ele>
        <time>2019-05-15T08:20:56.063Z</time>
      </trkpt>
      <trkpt lat="48.45378" lon="7.1425">
        <ele>756</ele>
        <time>2019-05-15T08:20:57.063Z</time>
      </trkpt>
      <trkpt lat="48.45378" lon="7.14249">
        <ele>756</ele>
        <time>2019-05-15T08:20:58.063Z</time>
      </trkpt>
      <trkpt lat="48.45378" lon="7.14249">
        <ele>755</ele>
        <time>2019-05-15T08:20:59.063Z</time>
      </trkpt>
      <trkpt lat="48.45378" lon="7.14248">
        <ele>755</ele>
        <time>2019-05-15T08:21:00.063Z</time>
      </trkpt>
      <trkpt lat="48.45379" lon="7.14247">
        <ele>756</ele>
        <time>2019-05-15T08:21:01.063Z</time>
      </trkpt>
      <trkpt lat="48.45379" lon="7.14246">
        <ele>756</ele>
        <time>2019-05-15T08:21:02.063Z</time>
      </trkpt>
      <trkpt lat="48.45379" lon="7.14245">
        <ele>756</ele>
        <time>2019-05-15T08:21:03.063Z</time>
      </trkpt>
      <trkpt lat="48.45379" lon="7.14245">
        <ele>755</ele>
        <time>2019-05-15T08:21:04.063Z</time>
      </trkpt>
      <trkpt lat="48.45379" lon="7.14244">
        <ele>756</ele>
        <time>2019-05-15T08:21:05.063Z</time>
      </trkpt>
      <trkpt lat="48.45379" lon="7.14243">
        <ele>756</ele>
        <time>2019-05-15T08:21:06.063Z</time>
      </trkpt>
      <trkpt lat="48.4538" lon="7.14242">
        <ele>755</ele>
        <time>2019-05-15T08:21:07.063Z</time>
      </trkpt>
      <trkpt lat="48.4538" lon="7.14241">
        <ele>755</ele>
        <time>2019-05-15T08:21:08.063Z</time>
      </trkpt>
      <trkpt lat="48.45381" lon="7.14241">
        <ele>756</ele>
        <time>2019-05-15T08:21:09.063Z</time>
      </trkpt>
      <trkpt lat="48.45381" lon="7.1424">
        <ele>758</ele>
        <time>2019-05-15T08:21:10.063Z</time>
      </trkpt>
      <trkpt lat="48.45382" lon="7.14239">
        <ele>758</ele>
        <time>2019-05-15T08:21:11.063Z</time>
      </trkpt>
      <trkpt lat="48.45382" lon="7.14239">
        <ele>758</ele>
        <time>2019-05-15T08:21:12.063Z</time>
      </trkpt>
      <trkpt lat="48.45383" lon="7.14238">
        <ele>758</ele>
        <time>2019-05-15T08:21:13.063Z</time>
      </trkpt>
      <trkpt lat="48.45384" lon="7.14237">
        <ele>757</ele>
        <time>2019-05-15T08:21:14.063Z</time>
      </trkpt>
      <trkpt lat="48.45384" lon="7.14236">
        <ele>756</ele>
        <time>2019-05-15T08:21:15.063Z</time>
      </trkpt>
      <trkpt lat="48.45385" lon="7.14235">
        <ele>756</ele>
        <time>2019-05-15T08:21:16.063Z</time>
      </trkpt>
      <trkpt lat="48.45386" lon="7.14234">
        <ele>756</ele>
        <time>2019-05-15T08:21:17.063Z</time>
      </trkpt>
      <trkpt lat="48.45387" lon="7.14233">
        <ele>756</ele>
        <time>2019-05-15T08:21:18.063Z</time>
      </trkpt>
      <trkpt lat="48.45387" lon="7.14233">
        <ele>756</ele>
        <time>2019-05-15T08:21:19.063Z</time>
      </trkpt>
      <trkpt lat="48.45388" lon="7.14232">
        <ele>755</ele>
        <time>2019-05-15T08:21:20.063Z</time>
      </trkpt>
      <trkpt lat="48.45389" lon="7.14232">
        <ele>755</ele>
        <time>2019-05-15T08:21:21.063Z</time>
      </trkpt>
      <trkpt lat="48.4539" lon="7.14231">
        <ele>754</ele>
        <time>2019-05-15T08:21:22.063Z</time>
      </trkpt>
      <trkpt lat="48.45391" lon="7.1423">
        <ele>754</ele>
        <time>2019-05-15T08:21:23.063Z</time>
      </trkpt>
      <trkpt lat="48.45392" lon="7.14229">
        <ele>754</ele>
        <time>2019-05-15T08:21:24.063Z</time>
      </trkpt>
      <trkpt lat="48.45393" lon="7.14229">
        <ele>754</ele>
        <time>2019-05-15T08:21:25.063Z</time>
      </trkpt>
      <trkpt lat="48.45393" lon="7.14228">
        <ele>753</ele>
        <time>2019-05-15T08:21:26.063Z</time>
      </trkpt>
      <trkpt lat="48.45393" lon="7.14227">
        <ele>753</ele>
        <time>2019-05-15T08:21:27.063Z</time>
      </trkpt>
      <trkpt lat="48.45394" lon="7.14226">
        <ele>754</ele>
        <time>2019-05-15T08:21:28.063Z</time>
      </trkpt>
      <trkpt lat="48.45395" lon="7.14225">
        <ele>753</ele>
        <time>2019-05-15T08:21:29.063Z</time>
      </trkpt>
      <trkpt lat="48.45396" lon="7.14225">
        <ele>752</ele>
        <time>2019-05-15T08:21:30.063Z</time>
      </trkpt>
      <trkpt lat="48.45396" lon="7.14225">
        <ele>751</ele>
        <time>2019-05-15T08:21:31.063Z</time>
      </trkpt>
      <trkpt lat="48.45397" lon="7.14225">
        <ele>751</ele>
        <time>2019-05-15T08:21:32.063Z</time>
      </trkpt>
      <trkpt lat="48.45397" lon="7.14224">
        <ele>752</ele>
        <time>2019-05-15T08:21:33.063Z</time>
      </trkpt>
      <trkpt lat="48.45397" lon="7.14223">
        <ele>751</ele>
        <time>2019-05-15T08:21:34.063Z</time>
      </trkpt>
      <trkpt lat="48.45397" lon="7.14223">
        <ele>751</ele>
        <time>2019-05-15T08:21:35.063Z</time>
      </trkpt>
      <trkpt lat="48.45397" lon="7.14223">
        <ele>750</ele>
        <time>2019-05-15T08:21:36.063Z</time>
      </trkpt>
      <trkpt lat="48.45397" lon="7.14222">
        <ele>750</ele>
        <time>2019-05-15T08:21:37.063Z</time>
      </trkpt>
      <trkpt lat="48.45398" lon="7.14222">
        <ele>750</ele>
        <time>2019-05-15T08:21:38.063Z</time>
      </trkpt>
      <trkpt lat="48.45398" lon="7.14221">
        <ele>749</ele>
        <time>2019-05-15T08:21:39.063Z</time>
      </trkpt>
      <trkpt lat="48.45399" lon="7.1422">
        <ele>750</ele>
        <time>2019-05-15T08:21:40.063Z</time>
      </trkpt>
      <trkpt lat="48.45399" lon="7.1422">
        <ele>750</ele>
        <time>2019-05-15T08:21:41.063Z</time>
      </trkpt>
      <trkpt lat="48.45399" lon="7.14219">
        <ele>751</ele>
        <time>2019-05-15T08:21:42.063Z</time>
      </trkpt>
      <trkpt lat="48.45399" lon="7.14218">
        <ele>751</ele>
        <time>2019-05-15T08:21:43.063Z</time>
      </trkpt>
      <trkpt lat="48.45399" lon="7.14217">
        <ele>752</ele>
        <time>2019-05-15T08:21:44.063Z</time>
      </trkpt>
      <trkpt lat="48.45399" lon="7.14216">
        <ele>752</ele>
        <time>2019-05-15T08:21:45.063Z</time>
      </trkpt>
      <trkpt lat="48.45399" lon="7.14216">
        <ele>754</ele>
        <time>2019-05-15T08:21:46.063Z</time>
      </trkpt>
      <trkpt lat="48.45399" lon="7.14215">
        <ele>754</ele>
        <time>2019-05-15T08:21:47.063Z</time>
      </trkpt>
      <trkpt lat="48.454" lon="7.14215">
        <ele>755</ele>
        <time>2019-05-15T08:21:48.063Z</time>
      </trkpt>
      <trkpt lat="48.454" lon="7.14215">
        <ele>755</ele>
        <time>2019-05-15T08:21:49.063Z</time>
      </trkpt>
      <trkpt lat="48.454" lon="7.14215">
        <ele>755</ele>
        <time>2019-05-15T08:21:50.063Z</time>
      </trkpt>
      <trkpt lat="48.454" lon="7.14214">
        <ele>754</ele>
        <time>2019-05-15T08:21:51.063Z</time>
      </trkpt>
      <trkpt lat="48.454" lon="7.14214">
        <ele>755</ele>
        <time>2019-05-15T08:21:52.063Z</time>
      </trkpt>
      <trkpt lat="48.45401" lon="7.14214">
        <ele>755</ele>
        <time>2019-05-15T08:21:53.063Z</time>
      </trkpt>
      <trkpt lat="48.45401" lon="7.14213">
        <ele>755</ele>
        <time>2019-05-15T08:21:54.063Z</time>
      </trkpt>
      <trkpt lat="48.45402" lon="7.14213">
        <ele>756</ele>
        <time>2019-05-15T08:21:55.063Z</time>
      </trkpt>
      <trkpt lat="48.45402" lon="7.14212">
        <ele>756</ele>
        <time>2019-05-15T08:21:56.063Z</time>
      </trkpt>
      <trkpt lat="48.45402" lon="7.14212">
        <ele>756</ele>
        <time>2019-05-15T08:21:57.063Z</time>
      </trkpt>
      <trkpt lat="48.45403" lon="7.1421">
        <ele>756</ele>
        <time>2019-05-15T08:21:58.063Z</time>
      </trkpt>
      <trkpt lat="48.45404" lon="7.14209">
        <ele>755</ele>
        <time>2019-05-15T08:21:59.063Z</time>
      </trkpt>
      <trkpt lat="48.45404" lon="7.14208">
        <ele>755</ele>
        <time>2019-05-15T08:22:00.063Z</time>
      </trkpt>
      <trkpt lat="48.45405" lon="7.14206">
        <ele>755</ele>
        <time>2019-05-15T08:22:01.063Z</time>
      </trkpt>
      <trkpt lat="48.45406" lon="7.14205">
        <ele>755</ele>
        <time>2019-05-15T08:22:02.063Z</time>
      </trkpt>
      <trkpt lat="48.45407" lon="7.14204">
        <ele>755</ele>
        <time>2019-05-15T08:22:03.063Z</time>
      </trkpt>
      <trkpt lat="48.45407" lon="7.14203">
        <ele>755</ele>
        <time>2019-05-15T08:22:04.063Z</time>
      </trkpt>
      <trkpt lat="48.45407" lon="7.14203">
        <ele>755</ele>
        <time>2019-05-15T08:22:05.063Z</time>
      </trkpt>
      <trkpt lat="48.45408" lon="7.14202">
        <ele>755</ele>
        <time>2019-05-15T08:22:06.063Z</time>
      </trkpt>
      <trkpt lat="48.45409" lon="7.14201">
        <ele>754</ele>
        <time>2019-05-15T08:22:07.063Z</time>
      </trkpt>
      <trkpt lat="48.45409" lon="7.142">
        <ele>754</ele>
        <time>2019-05-15T08:22:08.063Z</time>
      </trkpt>
      <trkpt lat="48.4541" lon="7.14199">
        <ele>753</ele>
        <time>2019-05-15T08:22:09.063Z</time>
      </trkpt>
      <trkpt lat="48.4541" lon="7.14198">
        <ele>753</ele>
        <time>2019-05-15T08:22:10.063Z</time>
      </trkpt>
      <trkpt lat="48.4541" lon="7.14197">
        <ele>753</ele>
        <time>2019-05-15T08:22:11.063Z</time>
      </trkpt>
      <trkpt lat="48.4541" lon="7.14197">
        <ele>753</ele>
        <time>2019-05-15T08:22:12.063Z</time>
      </trkpt>
      <trkpt lat="48.45411" lon="7.14196">
        <ele>753</ele>
        <time>2019-05-15T08:22:13.063Z</time>
      </trkpt>
      <trkpt lat="48.45411" lon="7.14195">
        <ele>755</ele>
        <time>2019-05-15T08:22:14.063Z</time>
      </trkpt>
      <trkpt lat="48.45412" lon="7.14194">
        <ele>755</ele>
        <time>2019-05-15T08:22:15.063Z</time>
      </trkpt>
      <trkpt lat="48.45412" lon="7.14193">
        <ele>754</ele>
        <time>2019-05-15T08:22:16.063Z</time>
      </trkpt>
      <trkpt lat="48.45413" lon="7.14193">
        <ele>755</ele>
        <time>2019-05-15T08:22:17.063Z</time>
      </trkpt>
      <trkpt lat="48.45413" lon="7.14192">
        <ele>756</ele>
        <time>2019-05-15T08:22:18.063Z</time>
      </trkpt>
      <trkpt lat="48.45413" lon="7.14191">
        <ele>756</ele>
        <time>2019-05-15T08:22:19.063Z</time>
      </trkpt>
      <trkpt lat="48.45414" lon="7.1419">
        <ele>756</ele>
        <time>2019-05-15T08:22:20.063Z</time>
      </trkpt>
      <trkpt lat="48.45414" lon="7.14189">
        <ele>756</ele>
        <time>2019-05-15T08:22:21.063Z</time>
      </trkpt>
      <trkpt lat="48.45415" lon="7.14187">
        <ele>756</ele>
        <time>2019-05-15T08:22:22.063Z</time>
      </trkpt>
      <trkpt lat="48.45415" lon="7.14187">
        <ele>755</ele>
        <time>2019-05-15T08:22:23.063Z</time>
      </trkpt>
      <trkpt lat="48.45416" lon="7.14186">
        <ele>756</ele>
        <time>2019-05-15T08:22:24.063Z</time>
      </trkpt>
      <trkpt lat="48.45416" lon="7.14185">
        <ele>756</ele>
        <time>2019-05-15T08:22:25.063Z</time>
      </trkpt>
      <trkpt lat="48.45416" lon="7.14185">
        <ele>756</ele>
        <time>2019-05-15T08:22:26.063Z</time>
      </trkpt>
      <trkpt lat="48.45416" lon="7.14184">
        <ele>755</ele>
        <time>2019-05-15T08:22:27.063Z</time>
      </trkpt>
      <trkpt lat="48.45417" lon="7.14184">
        <ele>755</ele>
        <time>2019-05-15T08:22:28.063Z</time>
      </trkpt>
      <trkpt lat="48.45417" lon="7.14183">
        <ele>755</ele>
        <time>2019-05-15T08:22:29.063Z</time>
      </trkpt>
      <trkpt lat="48.45418" lon="7.14182">
        <ele>755</ele>
        <time>2019-05-15T08:22:30.063Z</time>
      </trkpt>
      <trkpt lat="48.45418" lon="7.14181">
        <ele>756</ele>
        <time>2019-05-15T08:22:31.063Z</time>
      </trkpt>
      <trkpt lat="48.45419" lon="7.1418">
        <ele>757</ele>
        <time>2019-05-15T08:22:32.063Z</time>
      </trkpt>
      <trkpt lat="48.45419" lon="7.14179">
        <ele>756</ele>
        <time>2019-05-15T08:22:33.063Z</time>
      </trkpt>
      <trkpt lat="48.45419" lon="7.14179">
        <ele>756</ele>
        <time>2019-05-15T08:22:34.063Z</time>
      </trkpt>
      <trkpt lat="48.45419" lon="7.14178">
        <ele>756</ele>
        <time>2019-05-15T08:22:35.063Z</time>
      </trkpt>
      <trkpt lat="48.45419" lon="7.14178">
        <ele>755</ele>
        <time>2019-05-15T08:22:36.063Z</time>
      </trkpt>
      <trkpt lat="48.45419" lon="7.14177">
        <ele>756</ele>
        <time>2019-05-15T08:22:37.063Z</time>
      </trkpt>
      <trkpt lat="48.45419" lon="7.14176">
        <ele>756</ele>
        <time>2019-05-15T08:22:38.063Z</time>
      </trkpt>
      <trkpt lat="48.45419" lon="7.14175">
        <ele>756</ele>
        <time>2019-05-15T08:22:39.063Z</time>
      </trkpt>
      <trkpt lat="48.45419" lon="7.14175">
        <ele>756</ele>
        <time>2019-05-15T08:22:40.063Z</time>
      </trkpt>
      <trkpt lat="48.45419" lon="7.14174">
        <ele>756</ele>
        <time>2019-05-15T08:22:41.063Z</time>
      </trkpt>
      <trkpt lat="48.45419" lon="7.14173">
        <ele>757</ele>
        <time>2019-05-15T08:22:42.063Z</time>
      </trkpt>
      <trkpt lat="48.45419" lon="7.14172">
        <ele>757</ele>
        <time>2019-05-15T08:22:43.063Z</time>
      </trkpt>
      <trkpt lat="48.45419" lon="7.14171">
        <ele>757</ele>
        <time>2019-05-15T08:22:44.063Z</time>
      </trkpt>
      <trkpt lat="48.45419" lon="7.14171">
        <ele>756</ele>
        <time>2019-05-15T08:22:45.063Z</time>
      </trkpt>
      <trkpt lat="48.45419" lon="7.1417">
        <ele>755</ele>
        <time>2019-05-15T08:22:46.063Z</time>
      </trkpt>
      <trkpt lat="48.4542" lon="7.14169">
        <ele>754</ele>
        <time>2019-05-15T08:22:47.063Z</time>
      </trkpt>
      <trkpt lat="48.4542" lon="7.14168">
        <ele>754</ele>
        <time>2019-05-15T08:22:48.063Z</time>
      </trkpt>
      <trkpt lat="48.4542" lon="7.14167">
        <ele>754</ele>
        <time>2019-05-15T08:22:49.063Z</time>
      </trkpt>
      <trkpt lat="48.4542" lon="7.14167">
        <ele>754</ele>
        <time>2019-05-15T08:22:50.063Z</time>
      </trkpt>
      <trkpt lat="48.45421" lon="7.14166">
        <ele>754</ele>
        <time>2019-05-15T08:22:51.063Z</time>
      </trkpt>
      <trkpt lat="48.45421" lon="7.14165">
        <ele>754</ele>
        <time>2019-05-15T08:22:52.063Z</time>
      </trkpt>
      <trkpt lat="48.45421" lon="7.14165">
        <ele>754</ele>
        <time>2019-05-15T08:22:53.063Z</time>
      </trkpt>
      <trkpt lat="48.45421" lon="7.14164">
        <ele>754</ele>
        <time>2019-05-15T08:22:54.063Z</time>
      </trkpt>
      <trkpt lat="48.45422" lon="7.14163">
        <ele>754</ele>
        <time>2019-05-15T08:22:55.063Z</time>
      </trkpt>
      <trkpt lat="48.45422" lon="7.14163">
        <ele>754</ele>
        <time>2019-05-15T08:22:56.063Z</time>
      </trkpt>
      <trkpt lat="48.45422" lon="7.14162">
        <ele>754</ele>
        <time>2019-05-15T08:22:57.063Z</time>
      </trkpt>
      <trkpt lat="48.45423" lon="7.14161">
        <ele>754</ele>
        <time>2019-05-15T08:22:58.063Z</time>
      </trkpt>
      <trkpt lat="48.45423" lon="7.1416">
        <ele>754</ele>
        <time>2019-05-15T08:22:59.063Z</time>
      </trkpt>
      <trkpt lat="48.45423" lon="7.14159">
        <ele>754</ele>
        <time>2019-05-15T08:23:00.063Z</time>
      </trkpt>
      <trkpt lat="48.45422" lon="7.14158">
        <ele>754</ele>
        <time>2019-05-15T08:23:01.063Z</time>
      </trkpt>
      <trkpt lat="48.45422" lon="7.14157">
        <ele>753</ele>
        <time>2019-05-15T08:23:02.063Z</time>
      </trkpt>
      <trkpt lat="48.45422" lon="7.14156">
        <ele>753</ele>
        <time>2019-05-15T08:23:03.063Z</time>
      </trkpt>
      <trkpt lat="48.45423" lon="7.14156">
        <ele>753</ele>
        <time>2019-05-15T08:23:04.063Z</time>
      </trkpt>
      <trkpt lat="48.45423" lon="7.14155">
        <ele>753</ele>
        <time>2019-05-15T08:23:05.063Z</time>
      </trkpt>
      <trkpt lat="48.45423" lon="7.14154">
        <ele>754</ele>
        <time>2019-05-15T08:23:06.063Z</time>
      </trkpt>
      <trkpt lat="48.45423" lon="7.14153">
        <ele>754</ele>
        <time>2019-05-15T08:23:07.063Z</time>
      </trkpt>
      <trkpt lat="48.45422" lon="7.14152">
        <ele>754</ele>
        <time>2019-05-15T08:23:08.063Z</time>
      </trkpt>
      <trkpt lat="48.45422" lon="7.14151">
        <ele>754</ele>
        <time>2019-05-15T08:23:09.063Z</time>
      </trkpt>
      <trkpt lat="48.45422" lon="7.14151">
        <ele>754</ele>
        <time>2019-05-15T08:23:10.063Z</time>
      </trkpt>
      <trkpt lat="48.45422" lon="7.1415">
        <ele>754</ele>
        <time>2019-05-15T08:23:11.063Z</time>
      </trkpt>
      <trkpt lat="48.45421" lon="7.1415">
        <ele>754</ele>
        <time>2019-05-15T08:23:12.063Z</time>
      </trkpt>
      <trkpt lat="48.45421" lon="7.14149">
        <ele>754</ele>
        <time>2019-05-15T08:23:13.063Z</time>
      </trkpt>
      <trkpt lat="48.45421" lon="7.14149">
        <ele>755</ele>
        <time>2019-05-15T08:23:14.063Z</time>
      </trkpt>
      <trkpt lat="48.45421" lon="7.14148">
        <ele>755</ele>
        <time>2019-05-15T08:23:15.063Z</time>
      </trkpt>
      <trkpt lat="48.45421" lon="7.14148">
        <ele>756</ele>
        <time>2019-05-15T08:23:16.063Z</time>
      </trkpt>
      <trkpt lat="48.45421" lon="7.14147">
        <ele>756</ele>
        <time>2019-05-15T08:23:17.063Z</time>
      </trkpt>
      <trkpt lat="48.45421" lon="7.14147">
        <ele>756</ele>
        <time>2019-05-15T08:23:18.063Z</time>
      </trkpt>
      <trkpt lat="48.4542" lon="7.14146">
        <ele>756</ele>
        <time>2019-05-15T08:23:19.063Z</time>
      </trkpt>
      <trkpt lat="48.4542" lon="7.14146">
        <ele>757</ele>
        <time>2019-05-15T08:23:20.063Z</time>
      </trkpt>
      <trkpt lat="48.4542" lon="7.14146">
        <ele>757</ele>
        <time>2019-05-15T08:23:21.063Z</time>
      </trkpt>
      <trkpt lat="48.4542" lon="7.14145">
        <ele>758</ele>
        <time>2019-05-15T08:23:22.063Z</time>
      </trkpt>
      <trkpt lat="48.4542" lon="7.14145">
        <ele>758</ele>
        <time>2019-05-15T08:23:23.063Z</time>
      </trkpt>
      <trkpt lat="48.45421" lon="7.14145">
        <ele>759</ele>
        <time>2019-05-15T08:23:24.063Z</time>
      </trkpt>
      <trkpt lat="48.45421" lon="7.14145">
        <ele>760</ele>
        <time>2019-05-15T08:23:25.063Z</time>
      </trkpt>
      <trkpt lat="48.45421" lon="7.14145">
        <ele>761</ele>
        <time>2019-05-15T08:23:26.063Z</time>
      </trkpt>
      <trkpt lat="48.45421" lon="7.14145">
        <ele>761</ele>
        <time>2019-05-15T08:23:27.063Z</time>
      </trkpt>
      <trkpt lat="48.45422" lon="7.14145">
        <ele>761</ele>
        <time>2019-05-15T08:23:28.063Z</time>
      </trkpt>
      <trkpt lat="48.45422" lon="7.14145">
        <ele>761</ele>
        <time>2019-05-15T08:23:29.063Z</time>
      </trkpt>
      <trkpt lat="48.45423" lon="7.14145">
        <ele>761</ele>
        <time>2019-05-15T08:23:30.063Z</time>
      </trkpt>
      <trkpt lat="48.45423" lon="7.14146">
        <ele>761</ele>
        <time>2019-05-15T08:23:31.063Z</time>
      </trkpt>
      <trkpt lat="48.45423" lon="7.14146">
        <ele>761</ele>
        <time>2019-05-15T08:23:32.063Z</time>
      </trkpt>
      <trkpt lat="48.45423" lon="7.14147">
        <ele>761</ele>
        <time>2019-05-15T08:23:33.063Z</time>
      </trkpt>
      <trkpt lat="48.45423" lon="7.14147">
        <ele>761</ele>
        <time>2019-05-15T08:23:34.063Z</time>
      </trkpt>
      <trkpt lat="48.45423" lon="7.14148">
        <ele>761</ele>
        <time>2019-05-15T08:23:35.063Z</time>
      </trkpt>
      <trkpt lat="48.45423" lon="7.14148">
        <ele>762</ele>
        <time>2019-05-15T08:23:36.063Z</time>
      </trkpt>
      <trkpt lat="48.45423" lon="7.14148">
        <ele>763</ele>
        <time>2019-05-15T08:23:37.063Z</time>
      </trkpt>
      <trkpt lat="48.45424" lon="7.14149">
        <ele>763</ele>
        <time>2019-05-15T08:23:38.063Z</time>
      </trkpt>
      <trkpt lat="48.45424" lon="7.1415">
        <ele>762</ele>
        <time>2019-05-15T08:23:39.063Z</time>
      </trkpt>
      <trkpt lat="48.45423" lon="7.1415">
        <ele>762</ele>
        <time>2019-05-15T08:23:40.063Z</time>
      </trkpt>
      <trkpt lat="48.45423" lon="7.1415">
        <ele>763</ele>
        <time>2019-05-15T08:23:41.063Z</time>
      </trkpt>
      <trkpt lat="48.45423" lon="7.14151">
        <ele>763</ele>
        <time>2019-05-15T08:23:42.063Z</time>
      </trkpt>
      <trkpt lat="48.45423" lon="7.14151">
        <ele>763</ele>
        <time>2019-05-15T08:23:43.063Z</time>
      </trkpt>
      <trkpt lat="48.45423" lon="7.14152">
        <ele>763</ele>
        <time>2019-05-15T08:23:44.063Z</time>
      </trkpt>
      <trkpt lat="48.45423" lon="7.14153">
        <ele>763</ele>
        <time>2019-05-15T08:23:45.063Z</time>
      </trkpt>
      <trkpt lat="48.45423" lon="7.14154">
        <ele>763</ele>
        <time>2019-05-15T08:23:46.063Z</time>
      </trkpt>
      <trkpt lat="48.45422" lon="7.14154">
        <ele>763</ele>
        <time>2019-05-15T08:23:47.063Z</time>
      </trkpt>
      <trkpt lat="48.45422" lon="7.14155">
        <ele>763</ele>
        <time>2019-05-15T08:23:48.063Z</time>
      </trkpt>
      <trkpt lat="48.45422" lon="7.14156">
        <ele>763</ele>
        <time>2019-05-15T08:23:49.063Z</time>
      </trkpt>
      <trkpt lat="48.45421" lon="7.14156">
        <ele>763</ele>
        <time>2019-05-15T08:23:50.063Z</time>
      </trkpt>
      <trkpt lat="48.45421" lon="7.14157">
        <ele>763</ele>
        <time>2019-05-15T08:23:51.063Z</time>
      </trkpt>
      <trkpt lat="48.4542" lon="7.14157">
        <ele>764</ele>
        <time>2019-05-15T08:23:52.063Z</time>
      </trkpt>
      <trkpt lat="48.4542" lon="7.14158">
        <ele>764</ele>
        <time>2019-05-15T08:23:53.063Z</time>
      </trkpt>
      <trkpt lat="48.4542" lon="7.14158">
        <ele>764</ele>
        <time>2019-05-15T08:23:54.063Z</time>
      </trkpt>
      <trkpt lat="48.4542" lon="7.14159">
        <ele>765</ele>
        <time>2019-05-15T08:23:55.063Z</time>
      </trkpt>
      <trkpt lat="48.45419" lon="7.14159">
        <ele>765</ele>
        <time>2019-05-15T08:23:56.063Z</time>
      </trkpt>
      <trkpt lat="48.45419" lon="7.14159">
        <ele>765</ele>
        <time>2019-05-15T08:23:57.063Z</time>
      </trkpt>
      <trkpt lat="48.45419" lon="7.1416">
        <ele>765</ele>
        <time>2019-05-15T08:23:58.063Z</time>
      </trkpt>
      <trkpt lat="48.45419" lon="7.1416">
        <ele>766</ele>
        <time>2019-05-15T08:23:59.063Z</time>
      </trkpt>
      <trkpt lat="48.45419" lon="7.14161">
        <ele>766</ele>
        <time>2019-05-15T08:24:00.063Z</time>
      </trkpt>
      <trkpt lat="48.45418" lon="7.14162">
        <ele>766</ele>
        <time>2019-05-15T08:24:01.063Z</time>
      </trkpt>
      <trkpt lat="48.45418" lon="7.14162">
        <ele>766</ele>
        <time>2019-05-15T08:24:02.063Z</time>
      </trkpt>
      <trkpt lat="48.45417" lon="7.14163">
        <ele>766</ele>
        <time>2019-05-15T08:24:03.063Z</time>
      </trkpt>
      <trkpt lat="48.45417" lon="7.14163">
        <ele>766</ele>
        <time>2019-05-15T08:24:04.063Z</time>
      </trkpt>
      <trkpt lat="48.45416" lon="7.14163">
        <ele>766</ele>
        <time>2019-05-15T08:24:05.063Z</time>
      </trkpt>
      <trkpt lat="48.45415" lon="7.14163">
        <ele>766</ele>
        <time>2019-05-15T08:24:06.063Z</time>
      </trkpt>
      <trkpt lat="48.45415" lon="7.14164">
        <ele>766</ele>
        <time>2019-05-15T08:24:07.063Z</time>
      </trkpt>
      <trkpt lat="48.45414" lon="7.14164">
        <ele>765</ele>
        <time>2019-05-15T08:24:08.063Z</time>
      </trkpt>
      <trkpt lat="48.45414" lon="7.14164">
        <ele>766</ele>
        <time>2019-05-15T08:24:09.063Z</time>
      </trkpt>
      <trkpt lat="48.45414" lon="7.14165">
        <ele>766</ele>
        <time>2019-05-15T08:24:10.063Z</time>
      </trkpt>
      <trkpt lat="48.45414" lon="7.14165">
        <ele>766</ele>
        <time>2019-05-15T08:24:11.063Z</time>
      </trkpt>
      <trkpt lat="48.45414" lon="7.14165">
        <ele>766</ele>
        <time>2019-05-15T08:24:12.063Z</time>
      </trkpt>
      <trkpt lat="48.45413" lon="7.14165">
        <ele>766</ele>
        <time>2019-05-15T08:24:13.063Z</time>
      </trkpt>
      <trkpt lat="48.45413" lon="7.14165">
        <ele>765</ele>
        <time>2019-05-15T08:24:14.063Z</time>
      </trkpt>
      <trkpt lat="48.45412" lon="7.14165">
        <ele>766</ele>
        <time>2019-05-15T08:24:15.063Z</time>
      </trkpt>
      <trkpt lat="48.45412" lon="7.14165">
        <ele>766</ele>
        <time>2019-05-15T08:24:16.063Z</time>
      </trkpt>
      <trkpt lat="48.45411" lon="7.14165">
        <ele>766</ele>
        <time>2019-05-15T08:24:17.063Z</time>
      </trkpt>
      <trkpt lat="48.45411" lon="7.14165">
        <ele>766</ele>
        <time>2019-05-15T08:24:18.063Z</time>
      </trkpt>
      <trkpt lat="48.45411" lon="7.14165">
        <ele>766</ele>
        <time>2019-05-15T08:24:19.063Z</time>
      </trkpt>
      <trkpt lat="48.45411" lon="7.14165">
        <ele>766</ele>
        <time>2019-05-15T08:24:20.063Z</time>
      </trkpt>
      <trkpt lat="48.4541" lon="7.14165">
        <ele>766</ele>
        <time>2019-05-15T08:24:21.063Z</time>
      </trkpt>
      <trkpt lat="48.4541" lon="7.14166">
        <ele>766</ele>
        <time>2019-05-15T08:24:22.063Z</time>
      </trkpt>
      <trkpt lat="48.45409" lon="7.14166">
        <ele>766</ele>
        <time>2019-05-15T08:24:23.063Z</time>
      </trkpt>
      <trkpt lat="48.45409" lon="7.14167">
        <ele>766</ele>
        <time>2019-05-15T08:24:24.063Z</time>
      </trkpt>
      <trkpt lat="48.45409" lon="7.14167">
        <ele>766</ele>
        <time>2019-05-15T08:24:25.063Z</time>
      </trkpt>
      <trkpt lat="48.45408" lon="7.14168">
        <ele>766</ele>
        <time>2019-05-15T08:24:26.063Z</time>
      </trkpt>
      <trkpt lat="48.45408" lon="7.14169">
        <ele>766</ele>
        <time>2019-05-15T08:24:27.063Z</time>
      </trkpt>
      <trkpt lat="48.45407" lon="7.1417">
        <ele>766</ele>
        <time>2019-05-15T08:24:28.063Z</time>
      </trkpt>
      <trkpt lat="48.45407" lon="7.1417">
        <ele>766</ele>
        <time>2019-05-15T08:24:29.063Z</time>
      </trkpt>
      <trkpt lat="48.45406" lon="7.14171">
        <ele>766</ele>
        <time>2019-05-15T08:24:30.063Z</time>
      </trkpt>
      <trkpt lat="48.45406" lon="7.14172">
        <ele>766</ele>
        <time>2019-05-15T08:24:31.063Z</time>
      </trkpt>
      <trkpt lat="48.45405" lon="7.14172">
        <ele>765</ele>
        <time>2019-05-15T08:24:32.063Z</time>
      </trkpt>
      <trkpt lat="48.45404" lon="7.14172">
        <ele>765</ele>
        <time>2019-05-15T08:24:33.063Z</time>
      </trkpt>
      <trkpt lat="48.45403" lon="7.14173">
        <ele>765</ele>
        <time>2019-05-15T08:24:34.063Z</time>
      </trkpt>
      <trkpt lat="48.45402" lon="7.14173">
        <ele>765</ele>
        <time>2019-05-15T08:24:35.063Z</time>
      </trkpt>
      <trkpt lat="48.45402" lon="7.14173">
        <ele>765</ele>
        <time>2019-05-15T08:24:36.063Z</time>
      </trkpt>
      <trkpt lat="48.45401" lon="7.14174">
        <ele>765</ele>
        <time>2019-05-15T08:24:37.063Z</time>
      </trkpt>
      <trkpt lat="48.454" lon="7.14174">
        <ele>766</ele>
        <time>2019-05-15T08:24:38.063Z</time>
      </trkpt>
      <trkpt lat="48.454" lon="7.14175">
        <ele>766</ele>
        <time>2019-05-15T08:24:39.063Z</time>
      </trkpt>
      <trkpt lat="48.454" lon="7.14175">
        <ele>766</ele>
        <time>2019-05-15T08:24:40.063Z</time>
      </trkpt>
      <trkpt lat="48.454" lon="7.14175">
        <ele>766</ele>
        <time>2019-05-15T08:24:41.063Z</time>
      </trkpt>
      <trkpt lat="48.45399" lon="7.14176">
        <ele>766</ele>
        <time>2019-05-15T08:24:42.063Z</time>
      </trkpt>
      <trkpt lat="48.45399" lon="7.14176">
        <ele>765</ele>
        <time>2019-05-15T08:24:43.063Z</time>
      </trkpt>
      <trkpt lat="48.45398" lon="7.14176">
        <ele>766</ele>
        <time>2019-05-15T08:24:44.063Z</time>
      </trkpt>
      <trkpt lat="48.45397" lon="7.14176">
        <ele>766</ele>
        <time>2019-05-15T08:24:45.063Z</time>
      </trkpt>
      <trkpt lat="48.45396" lon="7.14176">
        <ele>766</ele>
        <time>2019-05-15T08:24:46.063Z</time>
      </trkpt>
      <trkpt lat="48.45396" lon="7.14176">
        <ele>767</ele>
        <time>2019-05-15T08:24:47.063Z</time>
      </trkpt>
      <trkpt lat="48.45396" lon="7.14176">
        <ele>767</ele>
        <time>2019-05-15T08:24:48.063Z</time>
      </trkpt>
      <trkpt lat="48.45395" lon="7.14176">
        <ele>767</ele>
        <time>2019-05-15T08:24:49.063Z</time>
      </trkpt>
      <trkpt lat="48.45395" lon="7.14176">
        <ele>768</ele>
        <time>2019-05-15T08:24:50.063Z</time>
      </trkpt>
      <trkpt lat="48.45395" lon="7.14175">
        <ele>768</ele>
        <time>2019-05-15T08:24:51.063Z</time>
      </trkpt>
      <trkpt lat="48.45394" lon="7.14175">
        <ele>768</ele>
        <time>2019-05-15T08:24:52.063Z</time>
      </trkpt>
      <trkpt lat="48.45394" lon="7.14175">
        <ele>768</ele>
        <time>2019-05-15T08:24:53.063Z</time>
      </trkpt>
      <trkpt lat="48.45394" lon="7.14175">
        <ele>768</ele>
        <time>2019-05-15T08:24:54.063Z</time>
      </trkpt>
      <trkpt lat="48.45393" lon="7.14174">
        <ele>768</ele>
        <time>2019-05-15T08:24:55.063Z</time>
      </trkpt>
      <trkpt lat="48.45393" lon="7.14174">
        <ele>767</ele>
        <time>2019-05-15T08:24:56.063Z</time>
      </trkpt>
      <trkpt lat="48.45392" lon="7.14174">
        <ele>767</ele>
        <time>2019-05-15T08:24:57.063Z</time>
      </trkpt>
      <trkpt lat="48.45392" lon="7.14173">
        <ele>767</ele>
        <time>2019-05-15T08:24:58.063Z</time>
      </trkpt>
      <trkpt lat="48.45392" lon="7.14173">
        <ele>767</ele>
        <time>2019-05-15T08:24:59.063Z</time>
      </trkpt>
      <trkpt lat="48.45392" lon="7.14172">
        <ele>767</ele>
        <time>2019-05-15T08:25:00.063Z</time>
      </trkpt>
      <trkpt lat="48.45392" lon="7.14171">
        <ele>768</ele>
        <time>2019-05-15T08:25:01.063Z</time>
      </trkpt>
      <trkpt lat="48.45392" lon="7.14171">
        <ele>767</ele>
        <time>2019-05-15T08:25:02.063Z</time>
      </trkpt>
      <trkpt lat="48.45392" lon="7.14171">
        <ele>767</ele>
        <time>2019-05-15T08:25:03.063Z</time>
      </trkpt>
      <trkpt lat="48.45392" lon="7.14171">
        <ele>768</ele>
        <time>2019-05-15T08:25:04.063Z</time>
      </trkpt>
      <trkpt lat="48.45392" lon="7.1417">
        <ele>768</ele>
        <time>2019-05-15T08:25:05.063Z</time>
      </trkpt>
      <trkpt lat="48.45392" lon="7.1417">
        <ele>768</ele>
        <time>2019-05-15T08:25:06.063Z</time>
      </trkpt>
      <trkpt lat="48.45391" lon="7.1417">
        <ele>768</ele>
        <time>2019-05-15T08:25:07.063Z</time>
      </trkpt>
      <trkpt lat="48.45391" lon="7.1417">
        <ele>768</ele>
        <time>2019-05-15T08:25:08.063Z</time>
      </trkpt>
      <trkpt lat="48.45391" lon="7.1417">
        <ele>768</ele>
        <time>2019-05-15T08:25:09.063Z</time>
      </trkpt>
      <trkpt lat="48.45391" lon="7.14169">
        <ele>768</ele>
        <time>2019-05-15T08:25:10.063Z</time>
      </trkpt>
      <trkpt lat="48.45391" lon="7.14168">
        <ele>768</ele>
        <time>2019-05-15T08:25:11.063Z</time>
      </trkpt>
      <trkpt lat="48.45391" lon="7.14167">
        <ele>768</ele>
        <time>2019-05-15T08:25:12.063Z</time>
      </trkpt>
      <trkpt lat="48.45391" lon="7.14166">
        <ele>769</ele>
        <time>2019-05-15T08:25:13.063Z</time>
      </trkpt>
      <trkpt lat="48.45391" lon="7.14166">
        <ele>769</ele>
        <time>2019-05-15T08:25:14.063Z</time>
      </trkpt>
      <trkpt lat="48.45391" lon="7.14165">
        <ele>769</ele>
        <time>2019-05-15T08:25:15.063Z</time>
      </trkpt>
      <trkpt lat="48.45391" lon="7.14164">
        <ele>769</ele>
        <time>2019-05-15T08:25:16.063Z</time>
      </trkpt>
      <trkpt lat="48.45391" lon="7.14164">
        <ele>770</ele>
        <time>2019-05-15T08:25:17.063Z</time>
      </trkpt>
      <trkpt lat="48.45391" lon="7.14164">
        <ele>769</ele>
        <time>2019-05-15T08:25:18.063Z</time>
      </trkpt>
      <trkpt lat="48.4539" lon="7.14163">
        <ele>769</ele>
        <time>2019-05-15T08:25:19.063Z</time>
      </trkpt>
      <trkpt lat="48.4539" lon="7.14163">
        <ele>769</ele>
        <time>2019-05-15T08:25:20.063Z</time>
      </trkpt>
      <trkpt lat="48.4539" lon="7.14162">
        <ele>769</ele>
        <time>2019-05-15T08:25:21.063Z</time>
      </trkpt>
      <trkpt lat="48.4539" lon="7.14161">
        <ele>769</ele>
        <time>2019-05-15T08:25:22.063Z</time>
      </trkpt>
      <trkpt lat="48.4539" lon="7.1416">
        <ele>769</ele>
        <time>2019-05-15T08:25:23.063Z</time>
      </trkpt>
      <trkpt lat="48.4539" lon="7.14158">
        <ele>769</ele>
        <time>2019-05-15T08:25:24.063Z</time>
      </trkpt>
      <trkpt lat="48.45391" lon="7.14157">
        <ele>768</ele>
        <time>2019-05-15T08:25:25.063Z</time>
      </trkpt>
      <trkpt lat="48.45391" lon="7.14157">
        <ele>769</ele>
        <time>2019-05-15T08:25:26.063Z</time>
      </trkpt>
      <trkpt lat="48.45391" lon="7.14156">
        <ele>769</ele>
        <time>2019-05-15T08:25:27.063Z</time>
      </trkpt>
      <trkpt lat="48.45391" lon="7.14155">
        <ele>770</ele>
        <time>2019-05-15T08:25:28.063Z</time>
      </trkpt>
      <trkpt lat="48.45391" lon="7.14155">
        <ele>770</ele>
        <time>2019-05-15T08:25:29.063Z</time>
      </trkpt>
      <trkpt lat="48.45391" lon="7.14154">
        <ele>771</ele>
        <time>2019-05-15T08:25:30.063Z</time>
      </trkpt>
      <trkpt lat="48.45391" lon="7.14153">
        <ele>771</ele>
        <time>2019-05-15T08:25:31.063Z</time>
      </trkpt>
      <trkpt lat="48.45391" lon="7.14153">
        <ele>772</ele>
        <time>2019-05-15T08:25:32.063Z</time>
      </trkpt>
      <trkpt lat="48.45391" lon="7.14152">
        <ele>772</ele>
        <time>2019-05-15T08:25:33.063Z</time>
      </trkpt>
      <trkpt lat="48.45391" lon="7.14152">
        <ele>772</ele>
        <time>2019-05-15T08:25:34.063Z</time>
      </trkpt>
      <trkpt lat="48.45391" lon="7.14151">
        <ele>772</ele>
        <time>2019-05-15T08:25:35.063Z</time>
      </trkpt>
      <trkpt lat="48.45391" lon="7.14151">
        <ele>773</ele>
        <time>2019-05-15T08:25:36.063Z</time>
      </trkpt>
      <trkpt lat="48.45391" lon="7.1415">
        <ele>773</ele>
        <time>2019-05-15T08:25:37.063Z</time>
      </trkpt>
      <trkpt lat="48.45392" lon="7.14149">
        <ele>773</ele>
        <time>2019-05-15T08:25:38.063Z</time>
      </trkpt>
      <trkpt lat="48.45392" lon="7.14149">
        <ele>773</ele>
        <time>2019-05-15T08:25:39.063Z</time>
      </trkpt>
      <trkpt lat="48.45392" lon="7.14148">
        <ele>773</ele>
        <time>2019-05-15T08:25:40.063Z</time>
      </trkpt>
      <trkpt lat="48.45392" lon="7.14147">
        <ele>773</ele>
        <time>2019-05-15T08:25:41.063Z</time>
      </trkpt>
      <trkpt lat="48.45392" lon="7.14146">
        <ele>773</ele>
        <time>2019-05-15T08:25:42.063Z</time>
      </trkpt>
      <trkpt lat="48.45392" lon="7.14146">
        <ele>774</ele>
        <time>2019-05-15T08:25:43.063Z</time>
      </trkpt>
      <trkpt lat="48.45392" lon="7.14145">
        <ele>774</ele>
        <time>2019-05-15T08:25:44.063Z</time>
      </trkpt>
      <trkpt lat="48.45392" lon="7.14144">
        <ele>774</ele>
        <time>2019-05-15T08:25:45.063Z</time>
      </trkpt>
      <trkpt lat="48.45393" lon="7.14143">
        <ele>774</ele>
        <time>2019-05-15T08:25:46.063Z</time>
      </trkpt>
      <trkpt lat="48.45393" lon="7.14142">
        <ele>774</ele>
        <time>2019-05-15T08:25:47.063Z</time>
      </trkpt>
      <trkpt lat="48.45393" lon="7.14141">
        <ele>774</ele>
        <time>2019-05-15T08:25:48.063Z</time>
      </trkpt>
      <trkpt lat="48.45393" lon="7.1414">
        <ele>775</ele>
        <time>2019-05-15T08:25:49.063Z</time>
      </trkpt>
      <trkpt lat="48.45393" lon="7.1414">
        <ele>775</ele>
        <time>2019-05-15T08:25:50.063Z</time>
      </trkpt>
      <trkpt lat="48.45393" lon="7.14139">
        <ele>775</ele>
        <time>2019-05-15T08:25:51.063Z</time>
      </trkpt>
      <trkpt lat="48.45392" lon="7.14138">
        <ele>775</ele>
        <time>2019-05-15T08:25:52.063Z</time>
      </trkpt>
      <trkpt lat="48.45392" lon="7.14137">
        <ele>776</ele>
        <time>2019-05-15T08:25:53.063Z</time>
      </trkpt>
      <trkpt lat="48.45391" lon="7.14136">
        <ele>776</ele>
        <time>2019-05-15T08:25:54.063Z</time>
      </trkpt>
      <trkpt lat="48.45391" lon="7.14135">
        <ele>776</ele>
        <time>2019-05-15T08:25:55.063Z</time>
      </trkpt>
      <trkpt lat="48.45391" lon="7.14135">
        <ele>777</ele>
        <time>2019-05-15T08:25:56.063Z</time>
      </trkpt>
      <trkpt lat="48.45391" lon="7.14135">
        <ele>776</ele>
        <time>2019-05-15T08:25:57.063Z</time>
      </trkpt>
      <trkpt lat="48.45391" lon="7.14135">
        <ele>777</ele>
        <time>2019-05-15T08:25:58.063Z</time>
      </trkpt>
      <trkpt lat="48.4539" lon="7.14135">
        <ele>776</ele>
        <time>2019-05-15T08:25:59.063Z</time>
      </trkpt>
      <trkpt lat="48.4539" lon="7.14134">
        <ele>776</ele>
        <time>2019-05-15T08:26:00.063Z</time>
      </trkpt>
      <trkpt lat="48.4539" lon="7.14134">
        <ele>775</ele>
        <time>2019-05-15T08:26:01.063Z</time>
      </trkpt>
      <trkpt lat="48.45389" lon="7.14134">
        <ele>775</ele>
        <time>2019-05-15T08:26:02.063Z</time>
      </trkpt>
      <trkpt lat="48.45389" lon="7.14134">
        <ele>775</ele>
        <time>2019-05-15T08:26:03.063Z</time>
      </trkpt>
      <trkpt lat="48.45388" lon="7.14134">
        <ele>775</ele>
        <time>2019-05-15T08:26:04.063Z</time>
      </trkpt>
      <trkpt lat="48.45388" lon="7.14133">
        <ele>774</ele>
        <time>2019-05-15T08:26:05.063Z</time>
      </trkpt>
      <trkpt lat="48.45388" lon="7.14133">
        <ele>775</ele>
        <time>2019-05-15T08:26:06.063Z</time>
      </trkpt>
      <trkpt lat="48.45388" lon="7.14133">
        <ele>775</ele>
        <time>2019-05-15T08:26:07.063Z</time>
      </trkpt>
      <trkpt lat="48.45388" lon="7.14133">
        <ele>775</ele>
        <time>2019-05-15T08:26:08.063Z</time>
      </trkpt>
      <trkpt lat="48.45387" lon="7.14132">
        <ele>775</ele>
        <time>2019-05-15T08:26:09.063Z</time>
      </trkpt>
      <trkpt lat="48.45387" lon="7.14132">
        <ele>775</ele>
        <time>2019-05-15T08:26:10.063Z</time>
      </trkpt>
      <trkpt lat="48.45387" lon="7.14131">
        <ele>775</ele>
        <time>2019-05-15T08:26:11.063Z</time>
      </trkpt>
      <trkpt lat="48.45387" lon="7.14131">
        <ele>776</ele>
        <time>2019-05-15T08:26:12.063Z</time>
      </trkpt>
      <trkpt lat="48.45387" lon="7.1413">
        <ele>776</ele>
        <time>2019-05-15T08:26:13.063Z</time>
      </trkpt>
      <trkpt lat="48.45386" lon="7.14129">
        <ele>776</ele>
        <time>2019-05-15T08:26:14.063Z</time>
      </trkpt>
      <trkpt lat="48.45386" lon="7.14128">
        <ele>776</ele>
        <time>2019-05-15T08:26:15.063Z</time>
      </trkpt>
      <trkpt lat="48.45386" lon="7.14127">
        <ele>776</ele>
        <time>2019-05-15T08:26:16.063Z</time>
      </trkpt>
      <trkpt lat="48.45386" lon="7.14126">
        <ele>775</ele>
        <time>2019-05-15T08:26:17.063Z</time>
      </trkpt>
      <trkpt lat="48.45386" lon="7.14126">
        <ele>775</ele>
        <time>2019-05-15T08:26:18.063Z</time>
      </trkpt>
      <trkpt lat="48.45386" lon="7.14125">
        <ele>775</ele>
        <time>2019-05-15T08:26:19.063Z</time>
      </trkpt>
      <trkpt lat="48.45385" lon="7.14125">
        <ele>775</ele>
        <time>2019-05-15T08:26:20.063Z</time>
      </trkpt>
      <trkpt lat="48.45385" lon="7.14124">
        <ele>775</ele>
        <time>2019-05-15T08:26:21.063Z</time>
      </trkpt>
      <trkpt lat="48.45385" lon="7.14124">
        <ele>775</ele>
        <time>2019-05-15T08:26:22.063Z</time>
      </trkpt>
      <trkpt lat="48.45385" lon="7.14123">
        <ele>775</ele>
        <time>2019-05-15T08:26:23.063Z</time>
      </trkpt>
      <trkpt lat="48.45385" lon="7.14123">
        <ele>776</ele>
        <time>2019-05-15T08:26:24.063Z</time>
      </trkpt>
      <trkpt lat="48.45385" lon="7.14122">
        <ele>776</ele>
        <time>2019-05-15T08:26:25.063Z</time>
      </trkpt>
      <trkpt lat="48.45384" lon="7.14122">
        <ele>777</ele>
        <time>2019-05-15T08:26:26.063Z</time>
      </trkpt>
      <trkpt lat="48.45384" lon="7.14121">
        <ele>777</ele>
        <time>2019-05-15T08:26:27.063Z</time>
      </trkpt>
      <trkpt lat="48.45384" lon="7.14121">
        <ele>777</ele>
        <time>2019-05-15T08:26:28.063Z</time>
      </trkpt>
      <trkpt lat="48.45384" lon="7.14121">
        <ele>777</ele>
        <time>2019-05-15T08:26:29.063Z</time>
      </trkpt>
      <trkpt lat="48.45384" lon="7.14121">
        <ele>776</ele>
        <time>2019-05-15T08:26:30.063Z</time>
      </trkpt>
      <trkpt lat="48.45384" lon="7.14121">
        <ele>776</ele>
        <time>2019-05-15T08:26:31.063Z</time>
      </trkpt>
      <trkpt lat="48.45384" lon="7.14122">
        <ele>777</ele>
        <time>2019-05-15T08:26:32.063Z</time>
      </trkpt>
      <trkpt lat="48.45384" lon="7.14122">
        <ele>777</ele>
        <time>2019-05-15T08:26:33.063Z</time>
      </trkpt>
      <trkpt lat="48.45384" lon="7.14122">
        <ele>778</ele>
        <time>2019-05-15T08:26:34.063Z</time>
      </trkpt>
      <trkpt lat="48.45384" lon="7.14122">
        <ele>778</ele>
        <time>2019-05-15T08:26:35.063Z</time>
      </trkpt>
      <trkpt lat="48.45384" lon="7.14122">
        <ele>778</ele>
        <time>2019-05-15T08:26:36.063Z</time>
      </trkpt>
      <trkpt lat="48.45385" lon="7.14122">
        <ele>779</ele>
        <time>2019-05-15T08:26:37.063Z</time>
      </trkpt>
      <trkpt lat="48.45385" lon="7.14122">
        <ele>779</ele>
        <time>2019-05-15T08:26:38.063Z</time>
      </trkpt>
      <trkpt lat="48.45385" lon="7.14122">
        <ele>779</ele>
        <time>2019-05-15T08:26:39.063Z</time>
      </trkpt>
      <trkpt lat="48.45385" lon="7.14123">
        <ele>780</ele>
        <time>2019-05-15T08:26:40.063Z</time>
      </trkpt>
      <trkpt lat="48.45385" lon="7.14123">
        <ele>780</ele>
        <time>2019-05-15T08:26:41.063Z</time>
      </trkpt>
      <trkpt lat="48.45385" lon="7.14123">
        <ele>780</ele>
        <time>2019-05-15T08:26:42.063Z</time>
      </trkpt>
      <trkpt lat="48.45385" lon="7.14124">
        <ele>780</ele>
        <time>2019-05-15T08:26:43.063Z</time>
      </trkpt>
      <trkpt lat="48.45385" lon="7.14124">
        <ele>780</ele>
        <time>2019-05-15T08:26:44.063Z</time>
      </trkpt>
      <trkpt lat="48.45385" lon="7.14125">
        <ele>781</ele>
        <time>2019-05-15T08:26:45.063Z</time>
      </trkpt>
      <trkpt lat="48.45385" lon="7.14125">
        <ele>782</ele>
        <time>2019-05-15T08:26:46.063Z</time>
      </trkpt>
      <trkpt lat="48.45385" lon="7.14126">
        <ele>781</ele>
        <time>2019-05-15T08:26:47.063Z</time>
      </trkpt>
      <trkpt lat="48.45385" lon="7.14126">
        <ele>781</ele>
        <time>2019-05-15T08:26:48.063Z</time>
      </trkpt>
      <trkpt lat="48.45385" lon="7.14127">
        <ele>781</ele>
        <time>2019-05-15T08:26:49.063Z</time>
      </trkpt>
      <trkpt lat="48.45385" lon="7.14127">
        <ele>781</ele>
        <time>2019-05-15T08:26:50.063Z</time>
      </trkpt>
      <trkpt lat="48.45385" lon="7.14128">
        <ele>782</ele>
        <time>2019-05-15T08:26:51.063Z</time>
      </trkpt>
      <trkpt lat="48.45385" lon="7.14129">
        <ele>782</ele>
        <time>2019-05-15T08:26:52.063Z</time>
      </trkpt>
      <trkpt lat="48.45385" lon="7.14129">
        <ele>782</ele>
        <time>2019-05-15T08:26:53.063Z</time>
      </trkpt>
      <trkpt lat="48.45385" lon="7.1413">
        <ele>782</ele>
        <time>2019-05-15T08:26:54.063Z</time>
      </trkpt>
      <trkpt lat="48.45384" lon="7.14131">
        <ele>782</ele>
        <time>2019-05-15T08:26:55.063Z</time>
      </trkpt>
      <trkpt lat="48.45384" lon="7.14132">
        <ele>781</ele>
        <time>2019-05-15T08:26:56.063Z</time>
      </trkpt>
      <trkpt lat="48.45383" lon="7.14132">
        <ele>781</ele>
        <time>2019-05-15T08:26:57.063Z</time>
      </trkpt>
      <trkpt lat="48.45383" lon="7.14133">
        <ele>781</ele>
        <time>2019-05-15T08:26:58.063Z</time>
      </trkpt>
      <trkpt lat="48.45383" lon="7.14133">
        <ele>781</ele>
        <time>2019-05-15T08:26:59.063Z</time>
      </trkpt>
      <trkpt lat="48.45382" lon="7.14134">
        <ele>782</ele>
        <time>2019-05-15T08:27:00.063Z</time>
      </trkpt>
      <trkpt lat="48.45382" lon="7.14134">
        <ele>781</ele>
        <time>2019-05-15T08:27:01.063Z</time>
      </trkpt>
      <trkpt lat="48.45382" lon="7.14135">
        <ele>782</ele>
        <time>2019-05-15T08:27:02.063Z</time>
      </trkpt>
      <trkpt lat="48.45382" lon="7.14135">
        <ele>782</ele>
        <time>2019-05-15T08:27:03.063Z</time>
      </trkpt>
      <trkpt lat="48.45382" lon="7.14136">
        <ele>783</ele>
        <time>2019-05-15T08:27:04.063Z</time>
      </trkpt>
      <trkpt lat="48.45382" lon="7.14136">
        <ele>783</ele>
        <time>2019-05-15T08:27:05.063Z</time>
      </trkpt>
      <trkpt lat="48.45381" lon="7.14137">
        <ele>784</ele>
        <time>2019-05-15T08:27:06.063Z</time>
      </trkpt>
      <trkpt lat="48.45381" lon="7.14137">
        <ele>783</ele>
        <time>2019-05-15T08:27:07.063Z</time>
      </trkpt>
      <trkpt lat="48.4538" lon="7.14138">
        <ele>782</ele>
        <time>2019-05-15T08:27:08.063Z</time>
      </trkpt>
      <trkpt lat="48.45379" lon="7.14138">
        <ele>782</ele>
        <time>2019-05-15T08:27:09.063Z</time>
      </trkpt>
      <trkpt lat="48.45378" lon="7.14138">
        <ele>782</ele>
        <time>2019-05-15T08:27:10.063Z</time>
      </trkpt>
      <trkpt lat="48.45377" lon="7.14138">
        <ele>782</ele>
        <time>2019-05-15T08:27:11.063Z</time>
      </trkpt>
      <trkpt lat="48.45376" lon="7.14138">
        <ele>782</ele>
        <time>2019-05-15T08:27:12.063Z</time>
      </trkpt>
      <trkpt lat="48.45376" lon="7.14138">
        <ele>782</ele>
        <time>2019-05-15T08:27:13.063Z</time>
      </trkpt>
      <trkpt lat="48.45375" lon="7.14138">
        <ele>782</ele>
        <time>2019-05-15T08:27:14.063Z</time>
      </trkpt>
      <trkpt lat="48.45375" lon="7.14138">
        <ele>781</ele>
        <time>2019-05-15T08:27:15.063Z</time>
      </trkpt>
      <trkpt lat="48.45375" lon="7.14137">
        <ele>782</ele>
        <time>2019-05-15T08:27:16.063Z</time>
      </trkpt>
      <trkpt lat="48.45374" lon="7.14137">
        <ele>782</ele>
        <time>2019-05-15T08:27:17.063Z</time>
      </trkpt>
      <trkpt lat="48.45374" lon="7.14136">
        <ele>782</ele>
        <time>2019-05-15T08:27:18.063Z</time>
      </trkpt>
      <trkpt lat="48.45374" lon="7.14136">
        <ele>782</ele>
        <time>2019-05-15T08:27:19.063Z</time>
      </trkpt>
      <trkpt lat="48.45374" lon="7.14135">
        <ele>782</ele>
        <time>2019-05-15T08:27:20.063Z</time>
      </trkpt>
      <trkpt lat="48.45374" lon="7.14135">
        <ele>782</ele>
        <time>2019-05-15T08:27:21.063Z</time>
      </trkpt>
      <trkpt lat="48.45374" lon="7.14134">
        <ele>781</ele>
        <time>2019-05-15T08:27:22.063Z</time>
      </trkpt>
      <trkpt lat="48.45373" lon="7.14133">
        <ele>780</ele>
        <time>2019-05-15T08:27:23.063Z</time>
      </trkpt>
      <trkpt lat="48.45373" lon="7.14133">
        <ele>780</ele>
        <time>2019-05-15T08:27:24.063Z</time>
      </trkpt>
      <trkpt lat="48.45373" lon="7.14132">
        <ele>780</ele>
        <time>2019-05-15T08:27:25.063Z</time>
      </trkpt>
      <trkpt lat="48.45373" lon="7.14132">
        <ele>779</ele>
        <time>2019-05-15T08:27:26.063Z</time>
      </trkpt>
      <trkpt lat="48.45373" lon="7.14132">
        <ele>779</ele>
        <time>2019-05-15T08:27:27.063Z</time>
      </trkpt>
      <trkpt lat="48.45372" lon="7.14131">
        <ele>780</ele>
        <time>2019-05-15T08:27:28.063Z</time>
      </trkpt>
      <trkpt lat="48.45372" lon="7.14131">
        <ele>780</ele>
        <time>2019-05-15T08:27:29.063Z</time>
      </trkpt>
      <trkpt lat="48.45372" lon="7.1413">
        <ele>780</ele>
        <time>2019-05-15T08:27:30.063Z</time>
      </trkpt>
      <trkpt lat="48.45372" lon="7.14129">
        <ele>781</ele>
        <time>2019-05-15T08:27:31.063Z</time>
      </trkpt>
      <trkpt lat="48.45373" lon="7.14129">
        <ele>781</ele>
        <time>2019-05-15T08:27:32.063Z</time>
      </trkpt>
      <trkpt lat="48.45373" lon="7.14128">
        <ele>782</ele>
        <time>2019-05-15T08:27:33.063Z</time>
      </trkpt>
      <trkpt lat="48.45373" lon="7.14128">
        <ele>782</ele>
        <time>2019-05-15T08:27:34.063Z</time>
      </trkpt>
      <trkpt lat="48.45373" lon="7.14127">
        <ele>783</ele>
        <time>2019-05-15T08:27:35.063Z</time>
      </trkpt>
      <trkpt lat="48.45373" lon="7.14126">
        <ele>783</ele>
        <time>2019-05-15T08:27:36.063Z</time>
      </trkpt>
      <trkpt lat="48.45373" lon="7.14126">
        <ele>783</ele>
        <time>2019-05-15T08:27:37.063Z</time>
      </trkpt>
      <trkpt lat="48.45373" lon="7.14125">
        <ele>784</ele>
        <time>2019-05-15T08:27:38.063Z</time>
      </trkpt>
      <trkpt lat="48.45373" lon="7.14124">
        <ele>784</ele>
        <time>2019-05-15T08:27:39.063Z</time>
      </trkpt>
      <trkpt lat="48.45373" lon="7.14124">
        <ele>784</ele>
        <time>2019-05-15T08:27:40.063Z</time>
      </trkpt>
      <trkpt lat="48.45373" lon="7.14123">
        <ele>785</ele>
        <time>2019-05-15T08:27:41.063Z</time>
      </trkpt>
      <trkpt lat="48.45373" lon="7.14122">
        <ele>785</ele>
        <time>2019-05-15T08:27:42.063Z</time>
      </trkpt>
      <trkpt lat="48.45373" lon="7.14122">
        <ele>785</ele>
        <time>2019-05-15T08:27:43.063Z</time>
      </trkpt>
      <trkpt lat="48.45373" lon="7.14121">
        <ele>785</ele>
        <time>2019-05-15T08:27:44.063Z</time>
      </trkpt>
      <trkpt lat="48.45373" lon="7.1412">
        <ele>785</ele>
        <time>2019-05-15T08:27:45.063Z</time>
      </trkpt>
      <trkpt lat="48.45373" lon="7.1412">
        <ele>785</ele>
        <time>2019-05-15T08:27:46.063Z</time>
      </trkpt>
      <trkpt lat="48.45373" lon="7.14119">
        <ele>785</ele>
        <time>2019-05-15T08:27:47.063Z</time>
      </trkpt>
      <trkpt lat="48.45372" lon="7.14118">
        <ele>785</ele>
        <time>2019-05-15T08:27:48.063Z</time>
      </trkpt>
      <trkpt lat="48.45372" lon="7.14117">
        <ele>785</ele>
        <time>2019-05-15T08:27:49.063Z</time>
      </trkpt>
      <trkpt lat="48.45372" lon="7.14116">
        <ele>785</ele>
        <time>2019-05-15T08:27:50.063Z</time>
      </trkpt>
      <trkpt lat="48.45372" lon="7.14116">
        <ele>785</ele>
        <time>2019-05-15T08:27:51.063Z</time>
      </trkpt>
      <trkpt lat="48.45372" lon="7.14115">
        <ele>785</ele>
        <time>2019-05-15T08:27:52.063Z</time>
      </trkpt>
      <trkpt lat="48.45372" lon="7.14115">
        <ele>786</ele>
        <time>2019-05-15T08:27:53.063Z</time>
      </trkpt>
      <trkpt lat="48.45372" lon="7.14115">
        <ele>786</ele>
        <time>2019-05-15T08:27:54.063Z</time>
      </trkpt>
      <trkpt lat="48.45372" lon="7.14115">
        <ele>786</ele>
        <time>2019-05-15T08:27:55.063Z</time>
      </trkpt>
      <trkpt lat="48.45372" lon="7.14114">
        <ele>786</ele>
        <time>2019-05-15T08:27:56.063Z</time>
      </trkpt>
      <trkpt lat="48.45372" lon="7.14115">
        <ele>786</ele>
        <time>2019-05-15T08:27:57.063Z</time>
      </trkpt>
      <trkpt lat="48.45372" lon="7.14115">
        <ele>786</ele>
        <time>2019-05-15T08:27:58.063Z</time>
      </trkpt>
      <trkpt lat="48.45373" lon="7.14116">
        <ele>787</ele>
        <time>2019-05-15T08:27:59.063Z</time>
      </trkpt>
      <trkpt lat="48.45373" lon="7.14116">
        <ele>786</ele>
        <time>2019-05-15T08:28:00.063Z</time>
      </trkpt>
      <trkpt lat="48.45373" lon="7.14115">
        <ele>786</ele>
        <time>2019-05-15T08:28:01.063Z</time>
      </trkpt>
      <trkpt lat="48.45373" lon="7.14115">
        <ele>786</ele>
        <time>2019-05-15T08:28:02.063Z</time>
      </trkpt>
      <trkpt lat="48.45373" lon="7.14115">
        <ele>786</ele>
        <time>2019-05-15T08:28:03.063Z</time>
      </trkpt>
      <trkpt lat="48.45373" lon="7.14115">
        <ele>787</ele>
        <time>2019-05-15T08:28:04.063Z</time>
      </trkpt>
      <trkpt lat="48.45373" lon="7.14115">
        <ele>786</ele>
        <time>2019-05-15T08:28:05.063Z</time>
      </trkpt>
      <trkpt lat="48.45373" lon="7.14115">
        <ele>787</ele>
        <time>2019-05-15T08:28:06.063Z</time>
      </trkpt>
      <trkpt lat="48.45373" lon="7.14115">
        <ele>787</ele>
        <time>2019-05-15T08:28:07.063Z</time>
      </trkpt>
      <trkpt lat="48.45374" lon="7.14115">
        <ele>787</ele>
        <time>2019-05-15T08:28:08.063Z</time>
      </trkpt>
      <trkpt lat="48.45374" lon="7.14115">
        <ele>787</ele>
        <time>2019-05-15T08:28:09.063Z</time>
      </trkpt>
      <trkpt lat="48.45374" lon="7.14115">
        <ele>787</ele>
        <time>2019-05-15T08:28:10.063Z</time>
      </trkpt>
      <trkpt lat="48.45374" lon="7.14115">
        <ele>787</ele>
        <time>2019-05-15T08:28:11.063Z</time>
      </trkpt>
      <trkpt lat="48.45374" lon="7.14114">
        <ele>787</ele>
        <time>2019-05-15T08:28:12.063Z</time>
      </trkpt>
      <trkpt lat="48.45374" lon="7.14114">
        <ele>787</ele>
        <time>2019-05-15T08:28:13.063Z</time>
      </trkpt>
      <trkpt lat="48.45374" lon="7.14114">
        <ele>787</ele>
        <time>2019-05-15T08:28:14.063Z</time>
      </trkpt>
      <trkpt lat="48.45374" lon="7.14114">
        <ele>787</ele>
        <time>2019-05-15T08:28:15.063Z</time>
      </trkpt>
      <trkpt lat="48.45375" lon="7.14114">
        <ele>788</ele>
        <time>2019-05-15T08:28:16.063Z</time>
      </trkpt>
      <trkpt lat="48.45375" lon="7.14115">
        <ele>788</ele>
        <time>2019-05-15T08:28:17.063Z</time>
      </trkpt>
      <trkpt lat="48.45375" lon="7.14115">
        <ele>788</ele>
        <time>2019-05-15T08:28:18.063Z</time>
      </trkpt>
      <trkpt lat="48.45375" lon="7.14115">
        <ele>789</ele>
        <time>2019-05-15T08:28:19.063Z</time>
      </trkpt>
      <trkpt lat="48.45376" lon="7.14115">
        <ele>789</ele>
        <time>2019-05-15T08:28:20.063Z</time>
      </trkpt>
      <trkpt lat="48.45376" lon="7.14114">
        <ele>789</ele>
        <time>2019-05-15T08:28:21.063Z</time>
      </trkpt>
      <trkpt lat="48.45376" lon="7.14114">
        <ele>789</ele>
        <time>2019-05-15T08:28:22.063Z</time>
      </trkpt>
      <trkpt lat="48.45376" lon="7.14115">
        <ele>789</ele>
        <time>2019-05-15T08:28:23.063Z</time>
      </trkpt>
      <trkpt lat="48.45376" lon="7.14115">
        <ele>789</ele>
        <time>2019-05-15T08:28:24.063Z</time>
      </trkpt>
      <trkpt lat="48.45375" lon="7.14115">
        <ele>789</ele>
        <time>2019-05-15T08:28:25.063Z</time>
      </trkpt>
      <trkpt lat="48.45375" lon="7.14114">
        <ele>789</ele>
        <time>2019-05-15T08:28:26.063Z</time>
      </trkpt>
      <trkpt lat="48.45375" lon="7.14114">
        <ele>789</ele>
        <time>2019-05-15T08:28:27.063Z</time>
      </trkpt>
      <trkpt lat="48.45375" lon="7.14115">
        <ele>790</ele>
        <time>2019-05-15T08:28:28.063Z</time>
      </trkpt>
      <trkpt lat="48.45375" lon="7.14115">
        <ele>790</ele>
        <time>2019-05-15T08:28:29.063Z</time>
      </trkpt>
      <trkpt lat="48.45375" lon="7.14115">
        <ele>790</ele>
        <time>2019-05-15T08:28:30.063Z</time>
      </trkpt>
      <trkpt lat="48.45375" lon="7.14115">
        <ele>790</ele>
        <time>2019-05-15T08:28:31.063Z</time>
      </trkpt>
      <trkpt lat="48.45375" lon="7.14115">
        <ele>790</ele>
        <time>2019-05-15T08:28:32.063Z</time>
      </trkpt>
      <trkpt lat="48.45375" lon="7.14115">
        <ele>790</ele>
        <time>2019-05-15T08:28:33.063Z</time>
      </trkpt>
      <trkpt lat="48.45375" lon="7.14115">
        <ele>791</ele>
        <time>2019-05-15T08:28:34.063Z</time>
      </trkpt>
      <trkpt lat="48.45375" lon="7.14115">
        <ele>791</ele>
        <time>2019-05-15T08:28:35.063Z</time>
      </trkpt>
      <trkpt lat="48.45375" lon="7.14115">
        <ele>791</ele>
        <time>2019-05-15T08:28:36.063Z</time>
      </trkpt>
      <trkpt lat="48.45376" lon="7.14114">
        <ele>791</ele>
        <time>2019-05-15T08:28:37.063Z</time>
      </trkpt>
      <trkpt lat="48.45376" lon="7.14114">
        <ele>791</ele>
        <time>2019-05-15T08:28:38.063Z</time>
      </trkpt>
      <trkpt lat="48.45376" lon="7.14114">
        <ele>791</ele>
        <time>2019-05-15T08:28:39.063Z</time>
      </trkpt>
      <trkpt lat="48.45376" lon="7.14113">
        <ele>791</ele>
        <time>2019-05-15T08:28:40.063Z</time>
      </trkpt>
      <trkpt lat="48.45376" lon="7.14113">
        <ele>791</ele>
        <time>2019-05-15T08:28:41.063Z</time>
      </trkpt>
      <trkpt lat="48.45376" lon="7.14113">
        <ele>791</ele>
        <time>2019-05-15T08:28:42.063Z</time>
      </trkpt>
      <trkpt lat="48.45376" lon="7.14113">
        <ele>791</ele>
        <time>2019-05-15T08:28:43.063Z</time>
      </trkpt>
      <trkpt lat="48.45376" lon="7.14112">
        <ele>791</ele>
        <time>2019-05-15T08:28:44.063Z</time>
      </trkpt>
      <trkpt lat="48.45376" lon="7.14112">
        <ele>791</ele>
        <time>2019-05-15T08:28:45.063Z</time>
      </trkpt>
      <trkpt lat="48.45376" lon="7.14112">
        <ele>791</ele>
        <time>2019-05-15T08:28:46.063Z</time>
      </trkpt>
      <trkpt lat="48.45376" lon="7.14112">
        <ele>791</ele>
        <time>2019-05-15T08:28:47.063Z</time>
      </trkpt>
      <trkpt lat="48.45376" lon="7.14112">
        <ele>791</ele>
        <time>2019-05-15T08:28:48.063Z</time>
      </trkpt>
      <trkpt lat="48.45376" lon="7.14112">
        <ele>791</ele>
        <time>2019-05-15T08:28:49.063Z</time>
      </trkpt>
      <trkpt lat="48.45376" lon="7.14112">
        <ele>791</ele>
        <time>2019-05-15T08:28:50.063Z</time>
      </trkpt>
      <trkpt lat="48.45376" lon="7.14113">
        <ele>790</ele>
        <time>2019-05-15T08:28:51.063Z</time>
      </trkpt>
      <trkpt lat="48.45376" lon="7.14113">
        <ele>790</ele>
        <time>2019-05-15T08:28:52.063Z</time>
      </trkpt>
      <trkpt lat="48.45376" lon="7.14114">
        <ele>790</ele>
        <time>2019-05-15T08:28:53.063Z</time>
      </trkpt>
      <trkpt lat="48.45376" lon="7.14114">
        <ele>789</ele>
        <time>2019-05-15T08:28:54.063Z</time>
      </trkpt>
      <trkpt lat="48.45376" lon="7.14115">
        <ele>788</ele>
        <time>2019-05-15T08:28:55.063Z</time>
      </trkpt>
      <trkpt lat="48.45375" lon="7.14115">
        <ele>788</ele>
        <time>2019-05-15T08:28:56.063Z</time>
      </trkpt>
      <trkpt lat="48.45375" lon="7.14114">
        <ele>789</ele>
        <time>2019-05-15T08:28:57.063Z</time>
      </trkpt>
      <trkpt lat="48.45375" lon="7.14114">
        <ele>789</ele>
        <time>2019-05-15T08:28:58.063Z</time>
      </trkpt>
      <trkpt lat="48.45375" lon="7.14114">
        <ele>789</ele>
        <time>2019-05-15T08:28:59.063Z</time>
      </trkpt>
      <trkpt lat="48.45375" lon="7.14114">
        <ele>789</ele>
        <time>2019-05-15T08:29:00.063Z</time>
      </trkpt>
      <trkpt lat="48.45375" lon="7.14114">
        <ele>788</ele>
        <time>2019-05-15T08:29:01.063Z</time>
      </trkpt>
      <trkpt lat="48.45375" lon="7.14114">
        <ele>789</ele>
        <time>2019-05-15T08:29:02.063Z</time>
      </trkpt>
      <trkpt lat="48.45375" lon="7.14114">
        <ele>788</ele>
        <time>2019-05-15T08:29:03.063Z</time>
      </trkpt>
      <trkpt lat="48.45375" lon="7.14114">
        <ele>789</ele>
        <time>2019-05-15T08:29:04.063Z</time>
      </trkpt>
      <trkpt lat="48.45375" lon="7.14115">
        <ele>790</ele>
        <time>2019-05-15T08:29:05.063Z</time>
      </trkpt>
      <trkpt lat="48.45375" lon="7.14115">
        <ele>790</ele>
        <time>2019-05-15T08:29:06.063Z</time>
      </trkpt>
      <trkpt lat="48.45375" lon="7.14115">
        <ele>790</ele>
        <time>2019-05-15T08:29:07.063Z</time>
      </trkpt>
      <trkpt lat="48.45375" lon="7.14115">
        <ele>791</ele>
        <time>2019-05-15T08:29:08.063Z</time>
      </trkpt>
      <trkpt lat="48.45376" lon="7.14115">
        <ele>791</ele>
        <time>2019-05-15T08:29:09.063Z</time>
      </trkpt>
      <trkpt lat="48.45376" lon="7.14116">
        <ele>791</ele>
        <time>2019-05-15T08:29:10.063Z</time>
      </trkpt>
      <trkpt lat="48.45376" lon="7.14116">
        <ele>791</ele>
        <time>2019-05-15T08:29:11.063Z</time>
      </trkpt>
      <trkpt lat="48.45376" lon="7.14115">
        <ele>790</ele>
        <time>2019-05-15T08:29:12.063Z</time>
      </trkpt>
      <trkpt lat="48.45376" lon="7.14115">
        <ele>789</ele>
        <time>2019-05-15T08:29:13.063Z</time>
      </trkpt>
      <trkpt lat="48.45376" lon="7.14115">
        <ele>788</ele>
        <time>2019-05-15T08:29:14.063Z</time>
      </trkpt>
      <trkpt lat="48.45375" lon="7.14115">
        <ele>787</ele>
        <time>2019-05-15T08:29:15.063Z</time>
      </trkpt>
      <trkpt lat="48.45375" lon="7.14114">
        <ele>785</ele>
        <time>2019-05-15T08:29:16.063Z</time>
      </trkpt>
      <trkpt lat="48.45375" lon="7.14114">
        <ele>785</ele>
        <time>2019-05-15T08:29:17.063Z</time>
      </trkpt>
      <trkpt lat="48.45374" lon="7.14114">
        <ele>785</ele>
        <time>2019-05-15T08:29:18.063Z</time>
      </trkpt>
      <trkpt lat="48.45374" lon="7.14114">
        <ele>784</ele>
        <time>2019-05-15T08:29:19.063Z</time>
      </trkpt>
      <trkpt lat="48.45374" lon="7.14114">
        <ele>784</ele>
        <time>2019-05-15T08:29:20.063Z</time>
      </trkpt>
      <trkpt lat="48.45374" lon="7.14114">
        <ele>784</ele>
        <time>2019-05-15T08:29:21.063Z</time>
      </trkpt>
      <trkpt lat="48.45374" lon="7.14114">
        <ele>784</ele>
        <time>2019-05-15T08:29:22.063Z</time>
      </trkpt>
      <trkpt lat="48.45374" lon="7.14114">
        <ele>784</ele>
        <time>2019-05-15T08:29:23.063Z</time>
      </trkpt>
      <trkpt lat="48.45374" lon="7.14115">
        <ele>784</ele>
        <time>2019-05-15T08:29:24.063Z</time>
      </trkpt>
      <trkpt lat="48.45374" lon="7.14115">
        <ele>784</ele>
        <time>2019-05-15T08:29:25.063Z</time>
      </trkpt>
      <trkpt lat="48.45374" lon="7.14115">
        <ele>784</ele>
        <time>2019-05-15T08:29:26.063Z</time>
      </trkpt>
      <trkpt lat="48.45374" lon="7.14115">
        <ele>784</ele>
        <time>2019-05-15T08:29:27.063Z</time>
      </trkpt>
      <trkpt lat="48.45374" lon="7.14115">
        <ele>783</ele>
        <time>2019-05-15T08:29:28.063Z</time>
      </trkpt>
      <trkpt lat="48.45374" lon="7.14115">
        <ele>783</ele>
        <time>2019-05-15T08:29:29.063Z</time>
      </trkpt>
      <trkpt lat="48.45374" lon="7.14114">
        <ele>785</ele>
        <time>2019-05-15T08:29:30.063Z</time>
      </trkpt>
      <trkpt lat="48.45375" lon="7.14114">
        <ele>785</ele>
        <time>2019-05-15T08:29:31.063Z</time>
      </trkpt>
      <trkpt lat="48.45375" lon="7.14114">
        <ele>785</ele>
        <time>2019-05-15T08:29:32.063Z</time>
      </trkpt>
      <trkpt lat="48.45375" lon="7.14113">
        <ele>785</ele>
        <time>2019-05-15T08:29:33.063Z</time>
      </trkpt>
      <trkpt lat="48.45375" lon="7.14113">
        <ele>784</ele>
        <time>2019-05-15T08:29:34.063Z</time>
      </trkpt>
      <trkpt lat="48.45375" lon="7.14114">
        <ele>784</ele>
        <time>2019-05-15T08:29:35.063Z</time>
      </trkpt>
      <trkpt lat="48.45375" lon="7.14114">
        <ele>784</ele>
        <time>2019-05-15T08:29:36.063Z</time>
      </trkpt>
      <trkpt lat="48.45375" lon="7.14114">
        <ele>784</ele>
        <time>2019-05-15T08:29:37.063Z</time>
      </trkpt>
      <trkpt lat="48.45374" lon="7.14114">
        <ele>784</ele>
        <time>2019-05-15T08:29:38.063Z</time>
      </trkpt>
      <trkpt lat="48.45374" lon="7.14115">
        <ele>785</ele>
        <time>2019-05-15T08:29:39.063Z</time>
      </trkpt>
      <trkpt lat="48.45374" lon="7.14116">
        <ele>786</ele>
        <time>2019-05-15T08:29:40.063Z</time>
      </trkpt>
      <trkpt lat="48.45374" lon="7.14116">
        <ele>786</ele>
        <time>2019-05-15T08:29:41.063Z</time>
      </trkpt>
      <trkpt lat="48.45374" lon="7.14116">
        <ele>786</ele>
        <time>2019-05-15T08:29:42.063Z</time>
      </trkpt>
      <trkpt lat="48.45374" lon="7.14117">
        <ele>786</ele>
        <time>2019-05-15T08:29:43.063Z</time>
      </trkpt>
      <trkpt lat="48.45373" lon="7.14117">
        <ele>785</ele>
        <time>2019-05-15T08:29:44.063Z</time>
      </trkpt>
      <trkpt lat="48.45373" lon="7.14118">
        <ele>786</ele>
        <time>2019-05-15T08:29:45.063Z</time>
      </trkpt>
      <trkpt lat="48.45373" lon="7.14118">
        <ele>786</ele>
        <time>2019-05-15T08:29:46.063Z</time>
      </trkpt>
      <trkpt lat="48.45373" lon="7.14118">
        <ele>787</ele>
        <time>2019-05-15T08:29:47.063Z</time>
      </trkpt>
      <trkpt lat="48.45373" lon="7.14119">
        <ele>788</ele>
        <time>2019-05-15T08:29:48.063Z</time>
      </trkpt>
      <trkpt lat="48.45372" lon="7.14119">
        <ele>788</ele>
        <time>2019-05-15T08:29:49.063Z</time>
      </trkpt>
      <trkpt lat="48.45372" lon="7.14119">
        <ele>789</ele>
        <time>2019-05-15T08:29:50.063Z</time>
      </trkpt>
      <trkpt lat="48.45372" lon="7.14119">
        <ele>789</ele>
        <time>2019-05-15T08:29:51.063Z</time>
      </trkpt>
      <trkpt lat="48.45372" lon="7.1412">
        <ele>789</ele>
        <time>2019-05-15T08:29:52.063Z</time>
      </trkpt>
      <trkpt lat="48.45371" lon="7.1412">
        <ele>789</ele>
        <time>2019-05-15T08:29:53.063Z</time>
      </trkpt>
      <trkpt lat="48.4537" lon="7.1412">
        <ele>789</ele>
        <time>2019-05-15T08:29:54.063Z</time>
      </trkpt>
      <trkpt lat="48.4537" lon="7.1412">
        <ele>789</ele>
        <time>2019-05-15T08:29:55.063Z</time>
      </trkpt>
      <trkpt lat="48.45369" lon="7.14121">
        <ele>789</ele>
        <time>2019-05-15T08:29:56.063Z</time>
      </trkpt>
      <trkpt lat="48.45369" lon="7.14121">
        <ele>789</ele>
        <time>2019-05-15T08:29:57.063Z</time>
      </trkpt>
      <trkpt lat="48.45368" lon="7.14122">
        <ele>788</ele>
        <time>2019-05-15T08:29:58.063Z</time>
      </trkpt>
      <trkpt lat="48.45367" lon="7.14122">
        <ele>788</ele>
        <time>2019-05-15T08:29:59.063Z</time>
      </trkpt>
      <trkpt lat="48.45366" lon="7.14122">
        <ele>788</ele>
        <time>2019-05-15T08:30:00.063Z</time>
      </trkpt>
      <trkpt lat="48.45366" lon="7.14123">
        <ele>788</ele>
        <time>2019-05-15T08:30:01.063Z</time>
      </trkpt>
      <trkpt lat="48.45365" lon="7.14123">
        <ele>788</ele>
        <time>2019-05-15T08:30:02.063Z</time>
      </trkpt>
      <trkpt lat="48.45364" lon="7.14123">
        <ele>787</ele>
        <time>2019-05-15T08:30:03.063Z</time>
      </trkpt>
      <trkpt lat="48.45364" lon="7.14123">
        <ele>787</ele>
        <time>2019-05-15T08:30:04.063Z</time>
      </trkpt>
      <trkpt lat="48.45363" lon="7.14122">
        <ele>788</ele>
        <time>2019-05-15T08:30:05.063Z</time>
      </trkpt>
      <trkpt lat="48.45362" lon="7.14121">
        <ele>788</ele>
        <time>2019-05-15T08:30:06.063Z</time>
      </trkpt>
      <trkpt lat="48.45362" lon="7.14121">
        <ele>788</ele>
        <time>2019-05-15T08:30:07.063Z</time>
      </trkpt>
      <trkpt lat="48.45362" lon="7.1412">
        <ele>788</ele>
        <time>2019-05-15T08:30:08.063Z</time>
      </trkpt>
      <trkpt lat="48.45362" lon="7.1412">
        <ele>788</ele>
        <time>2019-05-15T08:30:09.063Z</time>
      </trkpt>
      <trkpt lat="48.45362" lon="7.14119">
        <ele>788</ele>
        <time>2019-05-15T08:30:10.063Z</time>
      </trkpt>
      <trkpt lat="48.45363" lon="7.14118">
        <ele>788</ele>
        <time>2019-05-15T08:30:11.063Z</time>
      </trkpt>
      <trkpt lat="48.45363" lon="7.14118">
        <ele>788</ele>
        <time>2019-05-15T08:30:12.063Z</time>
      </trkpt>
      <trkpt lat="48.45363" lon="7.14117">
        <ele>788</ele>
        <time>2019-05-15T08:30:13.063Z</time>
      </trkpt>
      <trkpt lat="48.45363" lon="7.14117">
        <ele>788</ele>
        <time>2019-05-15T08:30:14.063Z</time>
      </trkpt>
      <trkpt lat="48.45363" lon="7.14116">
        <ele>788</ele>
        <time>2019-05-15T08:30:15.063Z</time>
      </trkpt>
      <trkpt lat="48.45363" lon="7.14116">
        <ele>789</ele>
        <time>2019-05-15T08:30:16.063Z</time>
      </trkpt>
      <trkpt lat="48.45363" lon="7.14115">
        <ele>789</ele>
        <time>2019-05-15T08:30:17.063Z</time>
      </trkpt>
      <trkpt lat="48.45363" lon="7.14114">
        <ele>790</ele>
        <time>2019-05-15T08:30:18.063Z</time>
      </trkpt>
      <trkpt lat="48.45363" lon="7.14113">
        <ele>790</ele>
        <time>2019-05-15T08:30:19.063Z</time>
      </trkpt>
      <trkpt lat="48.45363" lon="7.14113">
        <ele>790</ele>
        <time>2019-05-15T08:30:20.063Z</time>
      </trkpt>
      <trkpt lat="48.45363" lon="7.14112">
        <ele>790</ele>
        <time>2019-05-15T08:30:21.063Z</time>
      </trkpt>
      <trkpt lat="48.45363" lon="7.14112">
        <ele>790</ele>
        <time>2019-05-15T08:30:22.063Z</time>
      </trkpt>
      <trkpt lat="48.45363" lon="7.14111">
        <ele>790</ele>
        <time>2019-05-15T08:30:23.063Z</time>
      </trkpt>
      <trkpt lat="48.45362" lon="7.1411">
        <ele>790</ele>
        <time>2019-05-15T08:30:24.063Z</time>
      </trkpt>
      <trkpt lat="48.45362" lon="7.1411">
        <ele>791</ele>
        <time>2019-05-15T08:30:25.063Z</time>
      </trkpt>
      <trkpt lat="48.45361" lon="7.1411">
        <ele>791</ele>
        <time>2019-05-15T08:30:26.063Z</time>
      </trkpt>
      <trkpt lat="48.45361" lon="7.1411">
        <ele>792</ele>
        <time>2019-05-15T08:30:27.063Z</time>
      </trkpt>
      <trkpt lat="48.4536" lon="7.1411">
        <ele>791</ele>
        <time>2019-05-15T08:30:28.063Z</time>
      </trkpt>
      <trkpt lat="48.4536" lon="7.1411">
        <ele>792</ele>
        <time>2019-05-15T08:30:29.063Z</time>
      </trkpt>
      <trkpt lat="48.4536" lon="7.1411">
        <ele>791</ele>
        <time>2019-05-15T08:30:30.063Z</time>
      </trkpt>
      <trkpt lat="48.45359" lon="7.1411">
        <ele>791</ele>
        <time>2019-05-15T08:30:31.063Z</time>
      </trkpt>
      <trkpt lat="48.45359" lon="7.14111">
        <ele>791</ele>
        <time>2019-05-15T08:30:32.063Z</time>
      </trkpt>
      <trkpt lat="48.45358" lon="7.14111">
        <ele>791</ele>
        <time>2019-05-15T08:30:33.063Z</time>
      </trkpt>
      <trkpt lat="48.45358" lon="7.14111">
        <ele>791</ele>
        <time>2019-05-15T08:30:34.063Z</time>
      </trkpt>
      <trkpt lat="48.45358" lon="7.14112">
        <ele>792</ele>
        <time>2019-05-15T08:30:35.063Z</time>
      </trkpt>
      <trkpt lat="48.45357" lon="7.14112">
        <ele>791</ele>
        <time>2019-05-15T08:30:36.063Z</time>
      </trkpt>
      <trkpt lat="48.45357" lon="7.14112">
        <ele>792</ele>
        <time>2019-05-15T08:30:37.063Z</time>
      </trkpt>
      <trkpt lat="48.45356" lon="7.14112">
        <ele>792</ele>
        <time>2019-05-15T08:30:38.063Z</time>
      </trkpt>
      <trkpt lat="48.45356" lon="7.14112">
        <ele>792</ele>
        <time>2019-05-15T08:30:39.063Z</time>
      </trkpt>
      <trkpt lat="48.45355" lon="7.14113">
        <ele>792</ele>
        <time>2019-05-15T08:30:40.063Z</time>
      </trkpt>
      <trkpt lat="48.45355" lon="7.14113">
        <ele>792</ele>
        <time>2019-05-15T08:30:41.063Z</time>
      </trkpt>
      <trkpt lat="48.45354" lon="7.14113">
        <ele>792</ele>
        <time>2019-05-15T08:30:42.063Z</time>
      </trkpt>
      <trkpt lat="48.45354" lon="7.14113">
        <ele>792</ele>
        <time>2019-05-15T08:30:43.063Z</time>
      </trkpt>
      <trkpt lat="48.45353" lon="7.14113">
        <ele>793</ele>
        <time>2019-05-15T08:30:44.063Z</time>
      </trkpt>
      <trkpt lat="48.45353" lon="7.14112">
        <ele>793</ele>
        <time>2019-05-15T08:30:45.063Z</time>
      </trkpt>
      <trkpt lat="48.45352" lon="7.14112">
        <ele>793</ele>
        <time>2019-05-15T08:30:46.063Z</time>
      </trkpt>
      <trkpt lat="48.45352" lon="7.14112">
        <ele>792</ele>
        <time>2019-05-15T08:30:47.063Z</time>
      </trkpt>
      <trkpt lat="48.45352" lon="7.14113">
        <ele>793</ele>
        <time>2019-05-15T08:30:48.063Z</time>
      </trkpt>
      <trkpt lat="48.45351" lon="7.14113">
        <ele>793</ele>
        <time>2019-05-15T08:30:49.063Z</time>
      </trkpt>
      <trkpt lat="48.45351" lon="7.14113">
        <ele>793</ele>
        <time>2019-05-15T08:30:50.063Z</time>
      </trkpt>
      <trkpt lat="48.45351" lon="7.14112">
        <ele>793</ele>
        <time>2019-05-15T08:30:51.063Z</time>
      </trkpt>
      <trkpt lat="48.45351" lon="7.14112">
        <ele>793</ele>
        <time>2019-05-15T08:30:52.063Z</time>
      </trkpt>
      <trkpt lat="48.45351" lon="7.14112">
        <ele>792</ele>
        <time>2019-05-15T08:30:53.063Z</time>
      </trkpt>
      <trkpt lat="48.45351" lon="7.14112">
        <ele>792</ele>
        <time>2019-05-15T08:30:54.063Z</time>
      </trkpt>
      <trkpt lat="48.45351" lon="7.14111">
        <ele>792</ele>
        <time>2019-05-15T08:30:55.063Z</time>
      </trkpt>
      <trkpt lat="48.45351" lon="7.14111">
        <ele>792</ele>
        <time>2019-05-15T08:30:56.063Z</time>
      </trkpt>
      <trkpt lat="48.4535" lon="7.14111">
        <ele>792</ele>
        <time>2019-05-15T08:30:57.063Z</time>
      </trkpt>
      <trkpt lat="48.4535" lon="7.14111">
        <ele>792</ele>
        <time>2019-05-15T08:30:58.063Z</time>
      </trkpt>
      <trkpt lat="48.4535" lon="7.1411">
        <ele>792</ele>
        <time>2019-05-15T08:30:59.063Z</time>
      </trkpt>
      <trkpt lat="48.4535" lon="7.1411">
        <ele>792</ele>
        <time>2019-05-15T08:31:00.063Z</time>
      </trkpt>
      <trkpt lat="48.4535" lon="7.1411">
        <ele>793</ele>
        <time>2019-05-15T08:31:01.063Z</time>
      </trkpt>
      <trkpt lat="48.4535" lon="7.1411">
        <ele>793</ele>
        <time>2019-05-15T08:31:02.063Z</time>
      </trkpt>
      <trkpt lat="48.45349" lon="7.1411">
        <ele>793</ele>
        <time>2019-05-15T08:31:03.063Z</time>
      </trkpt>
      <trkpt lat="48.45349" lon="7.1411">
        <ele>793</ele>
        <time>2019-05-15T08:31:04.063Z</time>
      </trkpt>
      <trkpt lat="48.45349" lon="7.1411">
        <ele>793</ele>
        <time>2019-05-15T08:31:05.063Z</time>
      </trkpt>
      <trkpt lat="48.45349" lon="7.1411">
        <ele>794</ele>
        <time>2019-05-15T08:31:06.063Z</time>
      </trkpt>
      <trkpt lat="48.45349" lon="7.1411">
        <ele>794</ele>
        <time>2019-05-15T08:31:07.063Z</time>
      </trkpt>
      <trkpt lat="48.45348" lon="7.1411">
        <ele>794</ele>
        <time>2019-05-15T08:31:08.063Z</time>
      </trkpt>
      <trkpt lat="48.45348" lon="7.14111">
        <ele>794</ele>
        <time>2019-05-15T08:31:09.063Z</time>
      </trkpt>
      <trkpt lat="48.45348" lon="7.14111">
        <ele>794</ele>
        <time>2019-05-15T08:31:10.063Z</time>
      </trkpt>
      <trkpt lat="48.45348" lon="7.14111">
        <ele>794</ele>
        <time>2019-05-15T08:31:11.063Z</time>
      </trkpt>
      <trkpt lat="48.45348" lon="7.14111">
        <ele>794</ele>
        <time>2019-05-15T08:31:12.063Z</time>
      </trkpt>
      <trkpt lat="48.45348" lon="7.14111">
        <ele>794</ele>
        <time>2019-05-15T08:31:13.063Z</time>
      </trkpt>
      <trkpt lat="48.45348" lon="7.14111">
        <ele>794</ele>
        <time>2019-05-15T08:31:14.063Z</time>
      </trkpt>
      <trkpt lat="48.45348" lon="7.14111">
        <ele>794</ele>
        <time>2019-05-15T08:31:15.063Z</time>
      </trkpt>
      <trkpt lat="48.45348" lon="7.14111">
        <ele>794</ele>
        <time>2019-05-15T08:31:16.063Z</time>
      </trkpt>
      <trkpt lat="48.45347" lon="7.14112">
        <ele>795</ele>
        <time>2019-05-15T08:31:17.063Z</time>
      </trkpt>
      <trkpt lat="48.45347" lon="7.14112">
        <ele>795</ele>
        <time>2019-05-15T08:31:18.063Z</time>
      </trkpt>
      <trkpt lat="48.45347" lon="7.14112">
        <ele>795</ele>
        <time>2019-05-15T08:31:19.063Z</time>
      </trkpt>
      <trkpt lat="48.45347" lon="7.14112">
        <ele>795</ele>
        <time>2019-05-15T08:31:20.063Z</time>
      </trkpt>
      <trkpt lat="48.45347" lon="7.14112">
        <ele>795</ele>
        <time>2019-05-15T08:31:21.063Z</time>
      </trkpt>
      <trkpt lat="48.45347" lon="7.14112">
        <ele>795</ele>
        <time>2019-05-15T08:31:22.063Z</time>
      </trkpt>
      <trkpt lat="48.45347" lon="7.14112">
        <ele>795</ele>
        <time>2019-05-15T08:31:23.063Z</time>
      </trkpt>
      <trkpt lat="48.45346" lon="7.14112">
        <ele>795</ele>
        <time>2019-05-15T08:31:24.063Z</time>
      </trkpt>
      <trkpt lat="48.45346" lon="7.14111">
        <ele>795</ele>
        <time>2019-05-15T08:31:25.063Z</time>
      </trkpt>
      <trkpt lat="48.45345" lon="7.14111">
        <ele>795</ele>
        <time>2019-05-15T08:31:26.063Z</time>
      </trkpt>
      <trkpt lat="48.45345" lon="7.14111">
        <ele>795</ele>
        <time>2019-05-15T08:31:27.063Z</time>
      </trkpt>
      <trkpt lat="48.45344" lon="7.14111">
        <ele>795</ele>
        <time>2019-05-15T08:31:28.063Z</time>
      </trkpt>
      <trkpt lat="48.45344" lon="7.1411">
        <ele>795</ele>
        <time>2019-05-15T08:31:29.063Z</time>
      </trkpt>
      <trkpt lat="48.45343" lon="7.1411">
        <ele>796</ele>
        <time>2019-05-15T08:31:30.063Z</time>
      </trkpt>
      <trkpt lat="48.45343" lon="7.14109">
        <ele>796</ele>
        <time>2019-05-15T08:31:31.063Z</time>
      </trkpt>
      <trkpt lat="48.45342" lon="7.14109">
        <ele>796</ele>
        <time>2019-05-15T08:31:32.063Z</time>
      </trkpt>
      <trkpt lat="48.45342" lon="7.14108">
        <ele>796</ele>
        <time>2019-05-15T08:31:33.063Z</time>
      </trkpt>
      <trkpt lat="48.45342" lon="7.14108">
        <ele>797</ele>
        <time>2019-05-15T08:31:34.063Z</time>
      </trkpt>
      <trkpt lat="48.45341" lon="7.14107">
        <ele>798</ele>
        <time>2019-05-15T08:31:35.063Z</time>
      </trkpt>
      <trkpt lat="48.45341" lon="7.14107">
        <ele>800</ele>
        <time>2019-05-15T08:31:36.063Z</time>
      </trkpt>
      <trkpt lat="48.45341" lon="7.14107">
        <ele>801</ele>
        <time>2019-05-15T08:31:37.063Z</time>
      </trkpt>
      <trkpt lat="48.4534" lon="7.14107">
        <ele>801</ele>
        <time>2019-05-15T08:31:38.063Z</time>
      </trkpt>
      <trkpt lat="48.4534" lon="7.14107">
        <ele>801</ele>
        <time>2019-05-15T08:31:39.063Z</time>
      </trkpt>
      <trkpt lat="48.4534" lon="7.14106">
        <ele>802</ele>
        <time>2019-05-15T08:31:40.063Z</time>
      </trkpt>
      <trkpt lat="48.4534" lon="7.14106">
        <ele>802</ele>
        <time>2019-05-15T08:31:41.063Z</time>
      </trkpt>
      <trkpt lat="48.45339" lon="7.14105">
        <ele>802</ele>
        <time>2019-05-15T08:31:42.063Z</time>
      </trkpt>
      <trkpt lat="48.45339" lon="7.14105">
        <ele>802</ele>
        <time>2019-05-15T08:31:43.063Z</time>
      </trkpt>
      <trkpt lat="48.45338" lon="7.14105">
        <ele>802</ele>
        <time>2019-05-15T08:31:44.063Z</time>
      </trkpt>
      <trkpt lat="48.45337" lon="7.14104">
        <ele>803</ele>
        <time>2019-05-15T08:31:45.063Z</time>
      </trkpt>
      <trkpt lat="48.45337" lon="7.14104">
        <ele>803</ele>
        <time>2019-05-15T08:31:46.063Z</time>
      </trkpt>
      <trkpt lat="48.45336" lon="7.14102">
        <ele>803</ele>
        <time>2019-05-15T08:31:47.063Z</time>
      </trkpt>
      <trkpt lat="48.45336" lon="7.14101">
        <ele>803</ele>
        <time>2019-05-15T08:31:48.063Z</time>
      </trkpt>
      <trkpt lat="48.45336" lon="7.141">
        <ele>804</ele>
        <time>2019-05-15T08:31:49.063Z</time>
      </trkpt>
      <trkpt lat="48.45336" lon="7.14099">
        <ele>804</ele>
        <time>2019-05-15T08:31:50.063Z</time>
      </trkpt>
      <trkpt lat="48.45336" lon="7.14098">
        <ele>804</ele>
        <time>2019-05-15T08:31:51.063Z</time>
      </trkpt>
      <trkpt lat="48.45337" lon="7.14097">
        <ele>804</ele>
        <time>2019-05-15T08:31:52.063Z</time>
      </trkpt>
      <trkpt lat="48.45337" lon="7.14097">
        <ele>804</ele>
        <time>2019-05-15T08:31:53.063Z</time>
      </trkpt>
      <trkpt lat="48.45338" lon="7.14097">
        <ele>804</ele>
        <time>2019-05-15T08:31:54.063Z</time>
      </trkpt>
      <trkpt lat="48.45338" lon="7.14097">
        <ele>804</ele>
        <time>2019-05-15T08:31:55.063Z</time>
      </trkpt>
      <trkpt lat="48.45339" lon="7.14097">
        <ele>805</ele>
        <time>2019-05-15T08:31:56.063Z</time>
      </trkpt>
      <trkpt lat="48.45339" lon="7.14097">
        <ele>805</ele>
        <time>2019-05-15T08:31:57.063Z</time>
      </trkpt>
      <trkpt lat="48.45339" lon="7.14097">
        <ele>805</ele>
        <time>2019-05-15T08:31:58.063Z</time>
      </trkpt>
      <trkpt lat="48.45339" lon="7.14097">
        <ele>805</ele>
        <time>2019-05-15T08:31:59.063Z</time>
      </trkpt>
      <trkpt lat="48.45339" lon="7.14097">
        <ele>805</ele>
        <time>2019-05-15T08:32:00.063Z</time>
      </trkpt>
      <trkpt lat="48.45339" lon="7.14097">
        <ele>806</ele>
        <time>2019-05-15T08:32:01.063Z</time>
      </trkpt>
      <trkpt lat="48.4534" lon="7.14096">
        <ele>806</ele>
        <time>2019-05-15T08:32:02.063Z</time>
      </trkpt>
      <trkpt lat="48.4534" lon="7.14096">
        <ele>806</ele>
        <time>2019-05-15T08:32:03.063Z</time>
      </trkpt>
      <trkpt lat="48.4534" lon="7.14095">
        <ele>806</ele>
        <time>2019-05-15T08:32:04.063Z</time>
      </trkpt>
      <trkpt lat="48.4534" lon="7.14095">
        <ele>806</ele>
        <time>2019-05-15T08:32:05.063Z</time>
      </trkpt>
      <trkpt lat="48.45341" lon="7.14095">
        <ele>806</ele>
        <time>2019-05-15T08:32:06.063Z</time>
      </trkpt>
      <trkpt lat="48.45341" lon="7.14095">
        <ele>806</ele>
        <time>2019-05-15T08:32:07.063Z</time>
      </trkpt>
      <trkpt lat="48.45341" lon="7.14095">
        <ele>806</ele>
        <time>2019-05-15T08:32:08.063Z</time>
      </trkpt>
      <trkpt lat="48.45341" lon="7.14095">
        <ele>806</ele>
        <time>2019-05-15T08:32:09.063Z</time>
      </trkpt>
      <trkpt lat="48.45342" lon="7.14095">
        <ele>806</ele>
        <time>2019-05-15T08:32:10.063Z</time>
      </trkpt>
      <trkpt lat="48.45342" lon="7.14094">
        <ele>806</ele>
        <time>2019-05-15T08:32:11.063Z</time>
      </trkpt>
      <trkpt lat="48.45342" lon="7.14094">
        <ele>806</ele>
        <time>2019-05-15T08:32:12.063Z</time>
      </trkpt>
      <trkpt lat="48.45343" lon="7.14094">
        <ele>806</ele>
        <time>2019-05-15T08:32:13.063Z</time>
      </trkpt>
      <trkpt lat="48.45343" lon="7.14094">
        <ele>806</ele>
        <time>2019-05-15T08:32:14.063Z</time>
      </trkpt>
      <trkpt lat="48.45343" lon="7.14093">
        <ele>806</ele>
        <time>2019-05-15T08:32:15.063Z</time>
      </trkpt>
      <trkpt lat="48.45344" lon="7.14093">
        <ele>806</ele>
        <time>2019-05-15T08:32:16.063Z</time>
      </trkpt>
      <trkpt lat="48.45344" lon="7.14092">
        <ele>806</ele>
        <time>2019-05-15T08:32:17.063Z</time>
      </trkpt>
      <trkpt lat="48.45344" lon="7.14091">
        <ele>806</ele>
        <time>2019-05-15T08:32:18.063Z</time>
      </trkpt>
      <trkpt lat="48.45345" lon="7.1409">
        <ele>806</ele>
        <time>2019-05-15T08:32:19.063Z</time>
      </trkpt>
      <trkpt lat="48.45345" lon="7.1409">
        <ele>806</ele>
        <time>2019-05-15T08:32:20.063Z</time>
      </trkpt>
      <trkpt lat="48.45345" lon="7.1409">
        <ele>806</ele>
        <time>2019-05-15T08:32:21.063Z</time>
      </trkpt>
      <trkpt lat="48.45345" lon="7.1409">
        <ele>806</ele>
        <time>2019-05-15T08:32:22.063Z</time>
      </trkpt>
      <trkpt lat="48.45345" lon="7.1409">
        <ele>806</ele>
        <time>2019-05-15T08:32:23.063Z</time>
      </trkpt>
      <trkpt lat="48.45344" lon="7.1409">
        <ele>806</ele>
        <time>2019-05-15T08:32:24.063Z</time>
      </trkpt>
      <trkpt lat="48.45344" lon="7.14091">
        <ele>806</ele>
        <time>2019-05-15T08:32:25.063Z</time>
      </trkpt>
      <trkpt lat="48.45343" lon="7.14091">
        <ele>806</ele>
        <time>2019-05-15T08:32:26.063Z</time>
      </trkpt>
      <trkpt lat="48.45343" lon="7.14092">
        <ele>806</ele>
        <time>2019-05-15T08:32:27.063Z</time>
      </trkpt>
      <trkpt lat="48.45342" lon="7.14092">
        <ele>806</ele>
        <time>2019-05-15T08:32:28.063Z</time>
      </trkpt>
      <trkpt lat="48.45342" lon="7.14092">
        <ele>806</ele>
        <time>2019-05-15T08:32:29.063Z</time>
      </trkpt>
      <trkpt lat="48.45341" lon="7.14092">
        <ele>807</ele>
        <time>2019-05-15T08:32:30.063Z</time>
      </trkpt>
      <trkpt lat="48.45341" lon="7.14092">
        <ele>806</ele>
        <time>2019-05-15T08:32:31.063Z</time>
      </trkpt>
      <trkpt lat="48.4534" lon="7.14091">
        <ele>806</ele>
        <time>2019-05-15T08:32:32.063Z</time>
      </trkpt>
      <trkpt lat="48.4534" lon="7.14091">
        <ele>807</ele>
        <time>2019-05-15T08:32:33.063Z</time>
      </trkpt>
      <trkpt lat="48.4534" lon="7.1409">
        <ele>806</ele>
        <time>2019-05-15T08:32:34.063Z</time>
      </trkpt>
      <trkpt lat="48.4534" lon="7.14089">
        <ele>806</ele>
        <time>2019-05-15T08:32:35.063Z</time>
      </trkpt>
      <trkpt lat="48.45339" lon="7.14089">
        <ele>806</ele>
        <time>2019-05-15T08:32:36.063Z</time>
      </trkpt>
      <trkpt lat="48.45339" lon="7.14088">
        <ele>806</ele>
        <time>2019-05-15T08:32:37.063Z</time>
      </trkpt>
      <trkpt lat="48.45339" lon="7.14088">
        <ele>807</ele>
        <time>2019-05-15T08:32:38.063Z</time>
      </trkpt>
      <trkpt lat="48.45339" lon="7.14087">
        <ele>806</ele>
        <time>2019-05-15T08:32:39.063Z</time>
      </trkpt>
      <trkpt lat="48.45339" lon="7.14087">
        <ele>807</ele>
        <time>2019-05-15T08:32:40.063Z</time>
      </trkpt>
      <trkpt lat="48.45338" lon="7.14086">
        <ele>807</ele>
        <time>2019-05-15T08:32:41.063Z</time>
      </trkpt>
      <trkpt lat="48.45338" lon="7.14085">
        <ele>806</ele>
        <time>2019-05-15T08:32:42.063Z</time>
      </trkpt>
      <trkpt lat="48.45338" lon="7.14084">
        <ele>806</ele>
        <time>2019-05-15T08:32:43.063Z</time>
      </trkpt>
      <trkpt lat="48.45338" lon="7.14084">
        <ele>806</ele>
        <time>2019-05-15T08:32:44.063Z</time>
      </trkpt>
      <trkpt lat="48.45338" lon="7.14084">
        <ele>806</ele>
        <time>2019-05-15T08:32:45.063Z</time>
      </trkpt>
      <trkpt lat="48.45338" lon="7.14083">
        <ele>806</ele>
        <time>2019-05-15T08:32:46.063Z</time>
      </trkpt>
      <trkpt lat="48.45338" lon="7.14083">
        <ele>806</ele>
        <time>2019-05-15T08:32:47.063Z</time>
      </trkpt>
      <trkpt lat="48.45338" lon="7.14083">
        <ele>806</ele>
        <time>2019-05-15T08:32:48.063Z</time>
      </trkpt>
      <trkpt lat="48.45338" lon="7.14083">
        <ele>806</ele>
        <time>2019-05-15T08:32:49.063Z</time>
      </trkpt>
      <trkpt lat="48.45338" lon="7.14083">
        <ele>806</ele>
        <time>2019-05-15T08:32:50.063Z</time>
      </trkpt>
      <trkpt lat="48.45338" lon="7.14083">
        <ele>806</ele>
        <time>2019-05-15T08:32:51.063Z</time>
      </trkpt>
      <trkpt lat="48.45337" lon="7.14083">
        <ele>806</ele>
        <time>2019-05-15T08:32:52.063Z</time>
      </trkpt>
      <trkpt lat="48.45337" lon="7.14083">
        <ele>806</ele>
        <time>2019-05-15T08:32:53.063Z</time>
      </trkpt>
      <trkpt lat="48.45337" lon="7.14082">
        <ele>806</ele>
        <time>2019-05-15T08:32:54.063Z</time>
      </trkpt>
      <trkpt lat="48.45337" lon="7.14082">
        <ele>806</ele>
        <time>2019-05-15T08:32:55.063Z</time>
      </trkpt>
      <trkpt lat="48.45337" lon="7.14081">
        <ele>806</ele>
        <time>2019-05-15T08:32:56.063Z</time>
      </trkpt>
      <trkpt lat="48.45336" lon="7.1408">
        <ele>806</ele>
        <time>2019-05-15T08:32:57.063Z</time>
      </trkpt>
      <trkpt lat="48.45336" lon="7.14079">
        <ele>806</ele>
        <time>2019-05-15T08:32:58.063Z</time>
      </trkpt>
      <trkpt lat="48.45336" lon="7.14078">
        <ele>806</ele>
        <time>2019-05-15T08:32:59.063Z</time>
      </trkpt>
      <trkpt lat="48.45335" lon="7.14077">
        <ele>806</ele>
        <time>2019-05-15T08:33:00.063Z</time>
      </trkpt>
      <trkpt lat="48.45335" lon="7.14076">
        <ele>806</ele>
        <time>2019-05-15T08:33:01.063Z</time>
      </trkpt>
      <trkpt lat="48.45335" lon="7.14076">
        <ele>806</ele>
        <time>2019-05-15T08:33:02.063Z</time>
      </trkpt>
      <trkpt lat="48.45334" lon="7.14075">
        <ele>806</ele>
        <time>2019-05-15T08:33:03.063Z</time>
      </trkpt>
      <trkpt lat="48.45334" lon="7.14075">
        <ele>806</ele>
        <time>2019-05-15T08:33:04.063Z</time>
      </trkpt>
      <trkpt lat="48.45334" lon="7.14074">
        <ele>806</ele>
        <time>2019-05-15T08:33:05.063Z</time>
      </trkpt>
      <trkpt lat="48.45333" lon="7.14073">
        <ele>807</ele>
        <time>2019-05-15T08:33:06.063Z</time>
      </trkpt>
      <trkpt lat="48.45333" lon="7.14072">
        <ele>807</ele>
        <time>2019-05-15T08:33:07.063Z</time>
      </trkpt>
      <trkpt lat="48.45333" lon="7.14071">
        <ele>807</ele>
        <time>2019-05-15T08:33:08.063Z</time>
      </trkpt>
      <trkpt lat="48.45332" lon="7.14071">
        <ele>806</ele>
        <time>2019-05-15T08:33:09.063Z</time>
      </trkpt>
      <trkpt lat="48.45332" lon="7.1407">
        <ele>807</ele>
        <time>2019-05-15T08:33:10.063Z</time>
      </trkpt>
      <trkpt lat="48.45332" lon="7.14069">
        <ele>807</ele>
        <time>2019-05-15T08:33:11.063Z</time>
      </trkpt>
      <trkpt lat="48.45332" lon="7.14069">
        <ele>807</ele>
        <time>2019-05-15T08:33:12.063Z</time>
      </trkpt>
      <trkpt lat="48.45331" lon="7.14068">
        <ele>807</ele>
        <time>2019-05-15T08:33:13.063Z</time>
      </trkpt>
      <trkpt lat="48.45331" lon="7.14067">
        <ele>807</ele>
        <time>2019-05-15T08:33:14.063Z</time>
      </trkpt>
      <trkpt lat="48.45331" lon="7.14067">
        <ele>807</ele>
        <time>2019-05-15T08:33:15.063Z</time>
      </trkpt>
      <trkpt lat="48.4533" lon="7.14066">
        <ele>807</ele>
        <time>2019-05-15T08:33:16.063Z</time>
      </trkpt>
      <trkpt lat="48.4533" lon="7.14066">
        <ele>807</ele>
        <time>2019-05-15T08:33:17.063Z</time>
      </trkpt>
      <trkpt lat="48.4533" lon="7.14066">
        <ele>808</ele>
        <time>2019-05-15T08:33:18.063Z</time>
      </trkpt>
      <trkpt lat="48.4533" lon="7.14065">
        <ele>808</ele>
        <time>2019-05-15T08:33:19.063Z</time>
      </trkpt>
      <trkpt lat="48.4533" lon="7.14065">
        <ele>808</ele>
        <time>2019-05-15T08:33:20.063Z</time>
      </trkpt>
      <trkpt lat="48.4533" lon="7.14065">
        <ele>808</ele>
        <time>2019-05-15T08:33:21.063Z</time>
      </trkpt>
      <trkpt lat="48.4533" lon="7.14065">
        <ele>808</ele>
        <time>2019-05-15T08:33:22.063Z</time>
      </trkpt>
      <trkpt lat="48.4533" lon="7.14065">
        <ele>808</ele>
        <time>2019-05-15T08:33:23.063Z</time>
      </trkpt>
      <trkpt lat="48.4533" lon="7.14064">
        <ele>808</ele>
        <time>2019-05-15T08:33:24.063Z</time>
      </trkpt>
      <trkpt lat="48.4533" lon="7.14063">
        <ele>808</ele>
        <time>2019-05-15T08:33:25.063Z</time>
      </trkpt>
      <trkpt lat="48.4533" lon="7.14062">
        <ele>808</ele>
        <time>2019-05-15T08:33:26.063Z</time>
      </trkpt>
      <trkpt lat="48.4533" lon="7.14061">
        <ele>807</ele>
        <time>2019-05-15T08:33:27.063Z</time>
      </trkpt>
      <trkpt lat="48.4533" lon="7.14061">
        <ele>808</ele>
        <time>2019-05-15T08:33:28.063Z</time>
      </trkpt>
      <trkpt lat="48.4533" lon="7.1406">
        <ele>808</ele>
        <time>2019-05-15T08:33:29.063Z</time>
      </trkpt>
      <trkpt lat="48.4533" lon="7.1406">
        <ele>809</ele>
        <time>2019-05-15T08:33:30.063Z</time>
      </trkpt>
      <trkpt lat="48.4533" lon="7.1406">
        <ele>809</ele>
        <time>2019-05-15T08:33:31.063Z</time>
      </trkpt>
      <trkpt lat="48.4533" lon="7.1406">
        <ele>809</ele>
        <time>2019-05-15T08:33:32.063Z</time>
      </trkpt>
      <trkpt lat="48.45329" lon="7.14059">
        <ele>809</ele>
        <time>2019-05-15T08:33:33.063Z</time>
      </trkpt>
      <trkpt lat="48.45329" lon="7.14059">
        <ele>809</ele>
        <time>2019-05-15T08:33:34.063Z</time>
      </trkpt>
      <trkpt lat="48.45329" lon="7.14059">
        <ele>810</ele>
        <time>2019-05-15T08:33:35.063Z</time>
      </trkpt>
      <trkpt lat="48.45329" lon="7.14059">
        <ele>810</ele>
        <time>2019-05-15T08:33:36.063Z</time>
      </trkpt>
      <trkpt lat="48.45328" lon="7.14058">
        <ele>810</ele>
        <time>2019-05-15T08:33:37.063Z</time>
      </trkpt>
      <trkpt lat="48.45328" lon="7.14057">
        <ele>810</ele>
        <time>2019-05-15T08:33:38.063Z</time>
      </trkpt>
      <trkpt lat="48.45329" lon="7.14057">
        <ele>811</ele>
        <time>2019-05-15T08:33:39.063Z</time>
      </trkpt>
      <trkpt lat="48.45329" lon="7.14056">
        <ele>811</ele>
        <time>2019-05-15T08:33:40.063Z</time>
      </trkpt>
      <trkpt lat="48.45329" lon="7.14056">
        <ele>811</ele>
        <time>2019-05-15T08:33:41.063Z</time>
      </trkpt>
      <trkpt lat="48.4533" lon="7.14056">
        <ele>811</ele>
        <time>2019-05-15T08:33:42.063Z</time>
      </trkpt>
      <trkpt lat="48.45331" lon="7.14056">
        <ele>811</ele>
        <time>2019-05-15T08:33:43.063Z</time>
      </trkpt>
      <trkpt lat="48.45331" lon="7.14056">
        <ele>811</ele>
        <time>2019-05-15T08:33:44.063Z</time>
      </trkpt>
      <trkpt lat="48.45331" lon="7.14056">
        <ele>811</ele>
        <time>2019-05-15T08:33:45.063Z</time>
      </trkpt>
      <trkpt lat="48.45331" lon="7.14056">
        <ele>812</ele>
        <time>2019-05-15T08:33:46.063Z</time>
      </trkpt>
      <trkpt lat="48.45331" lon="7.14056">
        <ele>812</ele>
        <time>2019-05-15T08:33:47.063Z</time>
      </trkpt>
      <trkpt lat="48.45332" lon="7.14056">
        <ele>812</ele>
        <time>2019-05-15T08:33:48.063Z</time>
      </trkpt>
      <trkpt lat="48.45332" lon="7.14056">
        <ele>812</ele>
        <time>2019-05-15T08:33:49.063Z</time>
      </trkpt>
      <trkpt lat="48.45332" lon="7.14056">
        <ele>812</ele>
        <time>2019-05-15T08:33:50.063Z</time>
      </trkpt>
      <trkpt lat="48.45332" lon="7.14056">
        <ele>812</ele>
        <time>2019-05-15T08:33:51.063Z</time>
      </trkpt>
      <trkpt lat="48.45333" lon="7.14055">
        <ele>812</ele>
        <time>2019-05-15T08:33:52.063Z</time>
      </trkpt>
      <trkpt lat="48.45333" lon="7.14055">
        <ele>812</ele>
        <time>2019-05-15T08:33:53.063Z</time>
      </trkpt>
      <trkpt lat="48.45334" lon="7.14055">
        <ele>812</ele>
        <time>2019-05-15T08:33:54.063Z</time>
      </trkpt>
      <trkpt lat="48.45334" lon="7.14055">
        <ele>813</ele>
        <time>2019-05-15T08:33:55.063Z</time>
      </trkpt>
      <trkpt lat="48.45334" lon="7.14055">
        <ele>813</ele>
        <time>2019-05-15T08:33:56.063Z</time>
      </trkpt>
      <trkpt lat="48.45334" lon="7.14055">
        <ele>813</ele>
        <time>2019-05-15T08:33:57.063Z</time>
      </trkpt>
      <trkpt lat="48.45334" lon="7.14055">
        <ele>813</ele>
        <time>2019-05-15T08:33:58.063Z</time>
      </trkpt>
      <trkpt lat="48.45334" lon="7.14056">
        <ele>814</ele>
        <time>2019-05-15T08:33:59.063Z</time>
      </trkpt>
      <trkpt lat="48.45334" lon="7.14056">
        <ele>813</ele>
        <time>2019-05-15T08:34:00.063Z</time>
      </trkpt>
      <trkpt lat="48.45335" lon="7.14056">
        <ele>813</ele>
        <time>2019-05-15T08:34:01.063Z</time>
      </trkpt>
      <trkpt lat="48.45336" lon="7.14056">
        <ele>813</ele>
        <time>2019-05-15T08:34:02.063Z</time>
      </trkpt>
      <trkpt lat="48.45336" lon="7.14057">
        <ele>813</ele>
        <time>2019-05-15T08:34:03.063Z</time>
      </trkpt>
      <trkpt lat="48.45337" lon="7.14057">
        <ele>813</ele>
        <time>2019-05-15T08:34:04.063Z</time>
      </trkpt>
      <trkpt lat="48.45337" lon="7.14058">
        <ele>813</ele>
        <time>2019-05-15T08:34:05.063Z</time>
      </trkpt>
      <trkpt lat="48.45337" lon="7.14058">
        <ele>813</ele>
        <time>2019-05-15T08:34:06.063Z</time>
      </trkpt>
      <trkpt lat="48.45338" lon="7.14059">
        <ele>813</ele>
        <time>2019-05-15T08:34:07.063Z</time>
      </trkpt>
      <trkpt lat="48.45338" lon="7.1406">
        <ele>813</ele>
        <time>2019-05-15T08:34:08.063Z</time>
      </trkpt>
      <trkpt lat="48.45338" lon="7.1406">
        <ele>813</ele>
        <time>2019-05-15T08:34:09.063Z</time>
      </trkpt>
      <trkpt lat="48.45339" lon="7.14061">
        <ele>813</ele>
        <time>2019-05-15T08:34:10.063Z</time>
      </trkpt>
      <trkpt lat="48.45339" lon="7.14061">
        <ele>813</ele>
        <time>2019-05-15T08:34:11.063Z</time>
      </trkpt>
      <trkpt lat="48.45339" lon="7.14062">
        <ele>813</ele>
        <time>2019-05-15T08:34:12.063Z</time>
      </trkpt>
      <trkpt lat="48.45339" lon="7.14062">
        <ele>813</ele>
        <time>2019-05-15T08:34:13.063Z</time>
      </trkpt>
      <trkpt lat="48.45339" lon="7.14062">
        <ele>812</ele>
        <time>2019-05-15T08:34:14.063Z</time>
      </trkpt>
      <trkpt lat="48.45339" lon="7.14061">
        <ele>813</ele>
        <time>2019-05-15T08:34:15.063Z</time>
      </trkpt>
      <trkpt lat="48.45338" lon="7.1406">
        <ele>812</ele>
        <time>2019-05-15T08:34:16.063Z</time>
      </trkpt>
      <trkpt lat="48.45338" lon="7.1406">
        <ele>812</ele>
        <time>2019-05-15T08:34:17.063Z</time>
      </trkpt>
      <trkpt lat="48.45339" lon="7.14059">
        <ele>812</ele>
        <time>2019-05-15T08:34:18.063Z</time>
      </trkpt>
      <trkpt lat="48.45339" lon="7.14059">
        <ele>812</ele>
        <time>2019-05-15T08:34:19.063Z</time>
      </trkpt>
      <trkpt lat="48.45339" lon="7.14059">
        <ele>812</ele>
        <time>2019-05-15T08:34:20.063Z</time>
      </trkpt>
      <trkpt lat="48.45339" lon="7.14059">
        <ele>812</ele>
        <time>2019-05-15T08:34:21.063Z</time>
      </trkpt>
      <trkpt lat="48.45339" lon="7.14059">
        <ele>812</ele>
        <time>2019-05-15T08:34:22.063Z</time>
      </trkpt>
      <trkpt lat="48.45339" lon="7.14059">
        <ele>812</ele>
        <time>2019-05-15T08:34:23.063Z</time>
      </trkpt>
      <trkpt lat="48.45339" lon="7.14059">
        <ele>811</ele>
        <time>2019-05-15T08:34:24.063Z</time>
      </trkpt>
      <trkpt lat="48.45339" lon="7.14059">
        <ele>811</ele>
        <time>2019-05-15T08:34:25.063Z</time>
      </trkpt>
      <trkpt lat="48.45339" lon="7.14059">
        <ele>811</ele>
        <time>2019-05-15T08:34:26.063Z</time>
      </trkpt>
      <trkpt lat="48.45339" lon="7.14059">
        <ele>811</ele>
        <time>2019-05-15T08:34:27.063Z</time>
      </trkpt>
      <trkpt lat="48.45339" lon="7.1406">
        <ele>811</ele>
        <time>2019-05-15T08:34:28.063Z</time>
      </trkpt>
      <trkpt lat="48.45339" lon="7.1406">
        <ele>811</ele>
        <time>2019-05-15T08:34:29.063Z</time>
      </trkpt>
      <trkpt lat="48.45339" lon="7.1406">
        <ele>811</ele>
        <time>2019-05-15T08:34:30.063Z</time>
      </trkpt>
      <trkpt lat="48.45339" lon="7.1406">
        <ele>811</ele>
        <time>2019-05-15T08:34:31.063Z</time>
      </trkpt>
      <trkpt lat="48.45339" lon="7.1406">
        <ele>811</ele>
        <time>2019-05-15T08:34:32.063Z</time>
      </trkpt>
      <trkpt lat="48.45339" lon="7.1406">
        <ele>811</ele>
        <time>2019-05-15T08:34:33.063Z</time>
      </trkpt>
      <trkpt lat="48.45339" lon="7.1406">
        <ele>811</ele>
        <time>2019-05-15T08:34:34.063Z</time>
      </trkpt>
      <trkpt lat="48.45339" lon="7.1406">
        <ele>811</ele>
        <time>2019-05-15T08:34:35.063Z</time>
      </trkpt>
      <trkpt lat="48.45339" lon="7.1406">
        <ele>812</ele>
        <time>2019-05-15T08:34:36.063Z</time>
      </trkpt>
      <trkpt lat="48.45339" lon="7.1406">
        <ele>812</ele>
        <time>2019-05-15T08:34:37.063Z</time>
      </trkpt>
      <trkpt lat="48.45339" lon="7.14059">
        <ele>813</ele>
        <time>2019-05-15T08:34:38.063Z</time>
      </trkpt>
      <trkpt lat="48.45339" lon="7.14059">
        <ele>813</ele>
        <time>2019-05-15T08:34:39.063Z</time>
      </trkpt>
      <trkpt lat="48.45339" lon="7.14059">
        <ele>812</ele>
        <time>2019-05-15T08:34:40.063Z</time>
      </trkpt>
      <trkpt lat="48.45339" lon="7.14059">
        <ele>812</ele>
        <time>2019-05-15T08:34:41.063Z</time>
      </trkpt>
      <trkpt lat="48.45338" lon="7.14059">
        <ele>812</ele>
        <time>2019-05-15T08:34:42.063Z</time>
      </trkpt>
      <trkpt lat="48.45338" lon="7.1406">
        <ele>812</ele>
        <time>2019-05-15T08:34:43.063Z</time>
      </trkpt>
      <trkpt lat="48.45338" lon="7.14061">
        <ele>812</ele>
        <time>2019-05-15T08:34:44.063Z</time>
      </trkpt>
      <trkpt lat="48.45338" lon="7.14061">
        <ele>812</ele>
        <time>2019-05-15T08:34:45.063Z</time>
      </trkpt>
      <trkpt lat="48.45338" lon="7.14062">
        <ele>812</ele>
        <time>2019-05-15T08:34:46.063Z</time>
      </trkpt>
      <trkpt lat="48.45338" lon="7.14063">
        <ele>812</ele>
        <time>2019-05-15T08:34:47.063Z</time>
      </trkpt>
      <trkpt lat="48.45338" lon="7.14063">
        <ele>812</ele>
        <time>2019-05-15T08:34:48.063Z</time>
      </trkpt>
      <trkpt lat="48.45338" lon="7.14063">
        <ele>813</ele>
        <time>2019-05-15T08:34:49.063Z</time>
      </trkpt>
      <trkpt lat="48.45338" lon="7.14063">
        <ele>813</ele>
        <time>2019-05-15T08:34:50.063Z</time>
      </trkpt>
      <trkpt lat="48.45338" lon="7.14063">
        <ele>813</ele>
        <time>2019-05-15T08:34:51.063Z</time>
      </trkpt>
      <trkpt lat="48.45338" lon="7.14063">
        <ele>813</ele>
        <time>2019-05-15T08:34:52.063Z</time>
      </trkpt>
      <trkpt lat="48.45338" lon="7.14063">
        <ele>813</ele>
        <time>2019-05-15T08:34:53.063Z</time>
      </trkpt>
      <trkpt lat="48.45338" lon="7.14063">
        <ele>813</ele>
        <time>2019-05-15T08:34:54.063Z</time>
      </trkpt>
      <trkpt lat="48.45338" lon="7.14063">
        <ele>814</ele>
        <time>2019-05-15T08:34:55.063Z</time>
      </trkpt>
      <trkpt lat="48.45338" lon="7.14063">
        <ele>814</ele>
        <time>2019-05-15T08:34:56.063Z</time>
      </trkpt>
      <trkpt lat="48.45337" lon="7.14063">
        <ele>814</ele>
        <time>2019-05-15T08:34:57.063Z</time>
      </trkpt>
      <trkpt lat="48.45337" lon="7.14063">
        <ele>813</ele>
        <time>2019-05-15T08:34:58.063Z</time>
      </trkpt>
      <trkpt lat="48.45337" lon="7.14063">
        <ele>814</ele>
        <time>2019-05-15T08:34:59.063Z</time>
      </trkpt>
      <trkpt lat="48.45337" lon="7.14063">
        <ele>814</ele>
        <time>2019-05-15T08:35:00.063Z</time>
      </trkpt>
      <trkpt lat="48.45337" lon="7.14063">
        <ele>814</ele>
        <time>2019-05-15T08:35:01.063Z</time>
      </trkpt>
      <trkpt lat="48.45337" lon="7.14063">
        <ele>814</ele>
        <time>2019-05-15T08:35:02.063Z</time>
      </trkpt>
      <trkpt lat="48.45337" lon="7.14063">
        <ele>814</ele>
        <time>2019-05-15T08:35:03.063Z</time>
      </trkpt>
      <trkpt lat="48.45337" lon="7.14063">
        <ele>814</ele>
        <time>2019-05-15T08:35:04.063Z</time>
      </trkpt>
      <trkpt lat="48.45337" lon="7.14063">
        <ele>814</ele>
        <time>2019-05-15T08:35:05.063Z</time>
      </trkpt>
      <trkpt lat="48.45337" lon="7.14063">
        <ele>814</ele>
        <time>2019-05-15T08:35:06.063Z</time>
      </trkpt>
      <trkpt lat="48.45337" lon="7.14063">
        <ele>814</ele>
        <time>2019-05-15T08:35:07.063Z</time>
      </trkpt>
      <trkpt lat="48.45337" lon="7.14063">
        <ele>814</ele>
        <time>2019-05-15T08:35:08.063Z</time>
      </trkpt>
      <trkpt lat="48.45337" lon="7.14063">
        <ele>814</ele>
        <time>2019-05-15T08:35:09.063Z</time>
      </trkpt>
      <trkpt lat="48.45337" lon="7.14063">
        <ele>814</ele>
        <time>2019-05-15T08:35:10.063Z</time>
      </trkpt>
      <trkpt lat="48.45337" lon="7.14063">
        <ele>814</ele>
        <time>2019-05-15T08:35:11.063Z</time>
      </trkpt>
      <trkpt lat="48.45337" lon="7.14063">
        <ele>814</ele>
        <time>2019-05-15T08:35:12.063Z</time>
      </trkpt>
      <trkpt lat="48.45337" lon="7.14063">
        <ele>814</ele>
        <time>2019-05-15T08:35:13.063Z</time>
      </trkpt>
      <trkpt lat="48.45337" lon="7.14064">
        <ele>814</ele>
        <time>2019-05-15T08:35:14.063Z</time>
      </trkpt>
      <trkpt lat="48.45337" lon="7.14064">
        <ele>814</ele>
        <time>2019-05-15T08:35:15.063Z</time>
      </trkpt>
      <trkpt lat="48.45337" lon="7.14064">
        <ele>814</ele>
        <time>2019-05-15T08:35:16.063Z</time>
      </trkpt>
      <trkpt lat="48.45337" lon="7.14064">
        <ele>814</ele>
        <time>2019-05-15T08:35:17.063Z</time>
      </trkpt>
      <trkpt lat="48.45337" lon="7.14064">
        <ele>814</ele>
        <time>2019-05-15T08:35:18.063Z</time>
      </trkpt>
      <trkpt lat="48.45337" lon="7.14064">
        <ele>814</ele>
        <time>2019-05-15T08:35:19.063Z</time>
      </trkpt>
      <trkpt lat="48.45337" lon="7.14064">
        <ele>814</ele>
        <time>2019-05-15T08:35:20.063Z</time>
      </trkpt>
      <trkpt lat="48.45337" lon="7.14064">
        <ele>814</ele>
        <time>2019-05-15T08:35:21.063Z</time>
      </trkpt>
      <trkpt lat="48.45337" lon="7.14064">
        <ele>814</ele>
        <time>2019-05-15T08:35:22.063Z</time>
      </trkpt>
      <trkpt lat="48.45337" lon="7.14064">
        <ele>814</ele>
        <time>2019-05-15T08:35:23.063Z</time>
      </trkpt>
      <trkpt lat="48.45337" lon="7.14064">
        <ele>814</ele>
        <time>2019-05-15T08:35:24.063Z</time>
      </trkpt>
      <trkpt lat="48.45337" lon="7.14064">
        <ele>814</ele>
        <time>2019-05-15T08:35:25.063Z</time>
      </trkpt>
      <trkpt lat="48.45337" lon="7.14064">
        <ele>814</ele>
        <time>2019-05-15T08:35:26.063Z</time>
      </trkpt>
      <trkpt lat="48.45337" lon="7.14064">
        <ele>814</ele>
        <time>2019-05-15T08:35:27.063Z</time>
      </trkpt>
      <trkpt lat="48.45337" lon="7.14063">
        <ele>814</ele>
        <time>2019-05-15T08:35:28.063Z</time>
      </trkpt>
      <trkpt lat="48.45337" lon="7.14063">
        <ele>815</ele>
        <time>2019-05-15T08:35:29.063Z</time>
      </trkpt>
      <trkpt lat="48.45337" lon="7.14063">
        <ele>815</ele>
        <time>2019-05-15T08:35:30.063Z</time>
      </trkpt>
      <trkpt lat="48.45337" lon="7.14063">
        <ele>815</ele>
        <time>2019-05-15T08:35:31.063Z</time>
      </trkpt>
      <trkpt lat="48.45337" lon="7.14063">
        <ele>815</ele>
        <time>2019-05-15T08:35:32.063Z</time>
      </trkpt>
      <trkpt lat="48.45337" lon="7.14063">
        <ele>815</ele>
        <time>2019-05-15T08:35:33.063Z</time>
      </trkpt>
      <trkpt lat="48.45337" lon="7.14063">
        <ele>815</ele>
        <time>2019-05-15T08:35:34.063Z</time>
      </trkpt>
      <trkpt lat="48.45337" lon="7.14063">
        <ele>815</ele>
        <time>2019-05-15T08:35:35.063Z</time>
      </trkpt>
      <trkpt lat="48.45337" lon="7.14063">
        <ele>815</ele>
        <time>2019-05-15T08:35:36.063Z</time>
      </trkpt>
      <trkpt lat="48.45337" lon="7.14063">
        <ele>815</ele>
        <time>2019-05-15T08:35:37.063Z</time>
      </trkpt>
      <trkpt lat="48.45337" lon="7.14063">
        <ele>815</ele>
        <time>2019-05-15T08:35:38.063Z</time>
      </trkpt>
      <trkpt lat="48.45337" lon="7.14063">
        <ele>815</ele>
        <time>2019-05-15T08:35:39.063Z</time>
      </trkpt>
      <trkpt lat="48.45337" lon="7.14063">
        <ele>815</ele>
        <time>2019-05-15T08:35:40.063Z</time>
      </trkpt>
      <trkpt lat="48.45338" lon="7.14063">
        <ele>814</ele>
        <time>2019-05-15T08:35:41.063Z</time>
      </trkpt>
      <trkpt lat="48.45338" lon="7.14062">
        <ele>815</ele>
        <time>2019-05-15T08:35:42.063Z</time>
      </trkpt>
      <trkpt lat="48.45339" lon="7.14062">
        <ele>815</ele>
        <time>2019-05-15T08:35:43.063Z</time>
      </trkpt>
      <trkpt lat="48.4534" lon="7.14062">
        <ele>815</ele>
        <time>2019-05-15T08:35:44.063Z</time>
      </trkpt>
      <trkpt lat="48.4534" lon="7.14062">
        <ele>815</ele>
        <time>2019-05-15T08:35:45.063Z</time>
      </trkpt>
      <trkpt lat="48.4534" lon="7.14062">
        <ele>816</ele>
        <time>2019-05-15T08:35:46.063Z</time>
      </trkpt>
      <trkpt lat="48.4534" lon="7.14062">
        <ele>815</ele>
        <time>2019-05-15T08:35:47.063Z</time>
      </trkpt>
      <trkpt lat="48.4534" lon="7.14063">
        <ele>815</ele>
        <time>2019-05-15T08:35:48.063Z</time>
      </trkpt>
      <trkpt lat="48.4534" lon="7.14063">
        <ele>815</ele>
        <time>2019-05-15T08:35:49.063Z</time>
      </trkpt>
      <trkpt lat="48.4534" lon="7.14063">
        <ele>816</ele>
        <time>2019-05-15T08:35:50.063Z</time>
      </trkpt>
      <trkpt lat="48.4534" lon="7.14063">
        <ele>816</ele>
        <time>2019-05-15T08:35:51.063Z</time>
      </trkpt>
      <trkpt lat="48.4534" lon="7.14063">
        <ele>816</ele>
        <time>2019-05-15T08:35:52.063Z</time>
      </trkpt>
      <trkpt lat="48.4534" lon="7.14063">
        <ele>816</ele>
        <time>2019-05-15T08:35:53.063Z</time>
      </trkpt>
      <trkpt lat="48.4534" lon="7.14063">
        <ele>816</ele>
        <time>2019-05-15T08:35:54.063Z</time>
      </trkpt>
      <trkpt lat="48.4534" lon="7.14063">
        <ele>816</ele>
        <time>2019-05-15T08:35:55.063Z</time>
      </trkpt>
      <trkpt lat="48.4534" lon="7.14063">
        <ele>816</ele>
        <time>2019-05-15T08:35:56.063Z</time>
      </trkpt>
      <trkpt lat="48.4534" lon="7.14063">
        <ele>816</ele>
        <time>2019-05-15T08:35:57.063Z</time>
      </trkpt>
      <trkpt lat="48.4534" lon="7.14063">
        <ele>816</ele>
        <time>2019-05-15T08:35:58.063Z</time>
      </trkpt>
      <trkpt lat="48.4534" lon="7.14063">
        <ele>815</ele>
        <time>2019-05-15T08:35:59.063Z</time>
      </trkpt>
      <trkpt lat="48.45339" lon="7.14063">
        <ele>815</ele>
        <time>2019-05-15T08:36:00.063Z</time>
      </trkpt>
      <trkpt lat="48.45338" lon="7.14063">
        <ele>815</ele>
        <time>2019-05-15T08:36:01.063Z</time>
      </trkpt>
      <trkpt lat="48.45338" lon="7.14063">
        <ele>815</ele>
        <time>2019-05-15T08:36:02.063Z</time>
      </trkpt>
      <trkpt lat="48.45337" lon="7.14062">
        <ele>814</ele>
        <time>2019-05-15T08:36:03.063Z</time>
      </trkpt>
      <trkpt lat="48.45337" lon="7.14061">
        <ele>814</ele>
        <time>2019-05-15T08:36:04.063Z</time>
      </trkpt>
      <trkpt lat="48.45337" lon="7.1406">
        <ele>814</ele>
        <time>2019-05-15T08:36:05.063Z</time>
      </trkpt>
      <trkpt lat="48.45336" lon="7.1406">
        <ele>814</ele>
        <time>2019-05-15T08:36:06.063Z</time>
      </trkpt>
      <trkpt lat="48.45336" lon="7.14059">
        <ele>814</ele>
        <time>2019-05-15T08:36:07.063Z</time>
      </trkpt>
      <trkpt lat="48.45335" lon="7.14058">
        <ele>814</ele>
        <time>2019-05-15T08:36:08.063Z</time>
      </trkpt>
      <trkpt lat="48.45335" lon="7.14058">
        <ele>814</ele>
        <time>2019-05-15T08:36:09.063Z</time>
      </trkpt>
      <trkpt lat="48.45334" lon="7.14058">
        <ele>815</ele>
        <time>2019-05-15T08:36:10.063Z</time>
      </trkpt>
      <trkpt lat="48.45334" lon="7.14058">
        <ele>815</ele>
        <time>2019-05-15T08:36:11.063Z</time>
      </trkpt>
      <trkpt lat="48.45334" lon="7.14058">
        <ele>814</ele>
        <time>2019-05-15T08:36:12.063Z</time>
      </trkpt>
      <trkpt lat="48.45334" lon="7.14058">
        <ele>815</ele>
        <time>2019-05-15T08:36:13.063Z</time>
      </trkpt>
      <trkpt lat="48.45334" lon="7.14058">
        <ele>815</ele>
        <time>2019-05-15T08:36:14.063Z</time>
      </trkpt>
      <trkpt lat="48.45334" lon="7.14058">
        <ele>815</ele>
        <time>2019-05-15T08:36:15.063Z</time>
      </trkpt>
      <trkpt lat="48.45334" lon="7.14058">
        <ele>815</ele>
        <time>2019-05-15T08:36:16.063Z</time>
      </trkpt>
      <trkpt lat="48.45334" lon="7.14058">
        <ele>815</ele>
        <time>2019-05-15T08:36:17.063Z</time>
      </trkpt>
      <trkpt lat="48.45334" lon="7.14058">
        <ele>815</ele>
        <time>2019-05-15T08:36:18.063Z</time>
      </trkpt>
      <trkpt lat="48.45334" lon="7.14058">
        <ele>815</ele>
        <time>2019-05-15T08:36:19.063Z</time>
      </trkpt>
      <trkpt lat="48.45334" lon="7.14058">
        <ele>816</ele>
        <time>2019-05-15T08:36:20.063Z</time>
      </trkpt>
      <trkpt lat="48.45334" lon="7.14058">
        <ele>816</ele>
        <time>2019-05-15T08:36:21.063Z</time>
      </trkpt>
      <trkpt lat="48.45333" lon="7.14058">
        <ele>816</ele>
        <time>2019-05-15T08:36:22.063Z</time>
      </trkpt>
      <trkpt lat="48.45333" lon="7.14058">
        <ele>816</ele>
        <time>2019-05-15T08:36:23.063Z</time>
      </trkpt>
      <trkpt lat="48.45334" lon="7.14058">
        <ele>816</ele>
        <time>2019-05-15T08:36:24.063Z</time>
      </trkpt>
      <trkpt lat="48.45334" lon="7.14058">
        <ele>817</ele>
        <time>2019-05-15T08:36:25.063Z</time>
      </trkpt>
      <trkpt lat="48.45333" lon="7.14058">
        <ele>817</ele>
        <time>2019-05-15T08:36:26.063Z</time>
      </trkpt>
      <trkpt lat="48.45333" lon="7.14058">
        <ele>817</ele>
        <time>2019-05-15T08:36:27.063Z</time>
      </trkpt>
      <trkpt lat="48.45333" lon="7.14058">
        <ele>817</ele>
        <time>2019-05-15T08:36:28.063Z</time>
      </trkpt>
      <trkpt lat="48.45334" lon="7.14058">
        <ele>817</ele>
        <time>2019-05-15T08:36:29.063Z</time>
      </trkpt>
      <trkpt lat="48.45334" lon="7.14058">
        <ele>817</ele>
        <time>2019-05-15T08:36:30.063Z</time>
      </trkpt>
      <trkpt lat="48.45334" lon="7.14058">
        <ele>817</ele>
        <time>2019-05-15T08:36:31.063Z</time>
      </trkpt>
      <trkpt lat="48.45334" lon="7.14058">
        <ele>817</ele>
        <time>2019-05-15T08:36:32.063Z</time>
      </trkpt>
      <trkpt lat="48.45334" lon="7.14058">
        <ele>817</ele>
        <time>2019-05-15T08:36:33.063Z</time>
      </trkpt>
      <trkpt lat="48.45334" lon="7.14059">
        <ele>817</ele>
        <time>2019-05-15T08:36:34.063Z</time>
      </trkpt>
      <trkpt lat="48.45334" lon="7.14059">
        <ele>817</ele>
        <time>2019-05-15T08:36:35.063Z</time>
      </trkpt>
      <trkpt lat="48.45334" lon="7.14058">
        <ele>817</ele>
        <time>2019-05-15T08:36:36.063Z</time>
      </trkpt>
      <trkpt lat="48.45334" lon="7.14058">
        <ele>817</ele>
        <time>2019-05-15T08:36:37.063Z</time>
      </trkpt>
      <trkpt lat="48.45334" lon="7.14058">
        <ele>817</ele>
        <time>2019-05-15T08:36:38.063Z</time>
      </trkpt>
      <trkpt lat="48.45334" lon="7.14058">
        <ele>817</ele>
        <time>2019-05-15T08:36:39.063Z</time>
      </trkpt>
      <trkpt lat="48.45334" lon="7.14058">
        <ele>817</ele>
        <time>2019-05-15T08:36:40.063Z</time>
      </trkpt>
      <trkpt lat="48.45334" lon="7.14058">
        <ele>817</ele>
        <time>2019-05-15T08:36:41.063Z</time>
      </trkpt>
      <trkpt lat="48.45334" lon="7.14058">
        <ele>817</ele>
        <time>2019-05-15T08:36:42.063Z</time>
      </trkpt>
      <trkpt lat="48.45334" lon="7.14058">
        <ele>817</ele>
        <time>2019-05-15T08:36:43.063Z</time>
      </trkpt>
      <trkpt lat="48.45334" lon="7.14058">
        <ele>817</ele>
        <time>2019-05-15T08:36:44.063Z</time>
      </trkpt>
      <trkpt lat="48.45334" lon="7.14058">
        <ele>817</ele>
        <time>2019-05-15T08:36:45.063Z</time>
      </trkpt>
      <trkpt lat="48.45334" lon="7.14058">
        <ele>817</ele>
        <time>2019-05-15T08:36:46.063Z</time>
      </trkpt>
      <trkpt lat="48.45334" lon="7.14058">
        <ele>817</ele>
        <time>2019-05-15T08:36:47.063Z</time>
      </trkpt>
      <trkpt lat="48.45334" lon="7.14058">
        <ele>817</ele>
        <time>2019-05-15T08:36:48.063Z</time>
      </trkpt>
      <trkpt lat="48.45334" lon="7.14058">
        <ele>817</ele>
        <time>2019-05-15T08:36:49.063Z</time>
      </trkpt>
      <trkpt lat="48.45334" lon="7.14058">
        <ele>817</ele>
        <time>2019-05-15T08:36:50.063Z</time>
      </trkpt>
      <trkpt lat="48.45334" lon="7.14057">
        <ele>816</ele>
        <time>2019-05-15T08:36:51.063Z</time>
      </trkpt>
      <trkpt lat="48.45334" lon="7.14057">
        <ele>816</ele>
        <time>2019-05-15T08:36:52.063Z</time>
      </trkpt>
      <trkpt lat="48.45334" lon="7.14057">
        <ele>816</ele>
        <time>2019-05-15T08:36:53.063Z</time>
      </trkpt>
      <trkpt lat="48.45334" lon="7.14057">
        <ele>816</ele>
        <time>2019-05-15T08:36:54.063Z</time>
      </trkpt>
      <trkpt lat="48.45334" lon="7.14058">
        <ele>816</ele>
        <time>2019-05-15T08:36:55.063Z</time>
      </trkpt>
      <trkpt lat="48.45334" lon="7.14058">
        <ele>816</ele>
        <time>2019-05-15T08:36:56.063Z</time>
      </trkpt>
      <trkpt lat="48.45334" lon="7.14058">
        <ele>816</ele>
        <time>2019-05-15T08:36:57.063Z</time>
      </trkpt>
      <trkpt lat="48.45334" lon="7.14058">
        <ele>816</ele>
        <time>2019-05-15T08:36:58.063Z</time>
      </trkpt>
      <trkpt lat="48.45334" lon="7.14058">
        <ele>816</ele>
        <time>2019-05-15T08:36:59.063Z</time>
      </trkpt>
      <trkpt lat="48.45334" lon="7.14058">
        <ele>816</ele>
        <time>2019-05-15T08:37:00.063Z</time>
      </trkpt>
      <trkpt lat="48.45334" lon="7.14058">
        <ele>816</ele>
        <time>2019-05-15T08:37:01.063Z</time>
      </trkpt>
      <trkpt lat="48.45334" lon="7.14058">
        <ele>815</ele>
        <time>2019-05-15T08:37:02.063Z</time>
      </trkpt>
      <trkpt lat="48.45334" lon="7.14059">
        <ele>815</ele>
        <time>2019-05-15T08:37:03.063Z</time>
      </trkpt>
      <trkpt lat="48.45335" lon="7.14059">
        <ele>815</ele>
        <time>2019-05-15T08:37:04.063Z</time>
      </trkpt>
      <trkpt lat="48.45335" lon="7.14059">
        <ele>815</ele>
        <time>2019-05-15T08:37:05.063Z</time>
      </trkpt>
      <trkpt lat="48.45335" lon="7.14059">
        <ele>815</ele>
        <time>2019-05-15T08:37:06.063Z</time>
      </trkpt>
      <trkpt lat="48.45335" lon="7.14059">
        <ele>815</ele>
        <time>2019-05-15T08:37:07.063Z</time>
      </trkpt>
      <trkpt lat="48.45335" lon="7.14059">
        <ele>815</ele>
        <time>2019-05-15T08:37:08.063Z</time>
      </trkpt>
      <trkpt lat="48.45335" lon="7.14059">
        <ele>815</ele>
        <time>2019-05-15T08:37:09.063Z</time>
      </trkpt>
      <trkpt lat="48.45336" lon="7.14059">
        <ele>815</ele>
        <time>2019-05-15T08:37:10.063Z</time>
      </trkpt>
      <trkpt lat="48.45336" lon="7.14059">
        <ele>815</ele>
        <time>2019-05-15T08:37:11.063Z</time>
      </trkpt>
      <trkpt lat="48.45336" lon="7.14059">
        <ele>815</ele>
        <time>2019-05-15T08:37:12.063Z</time>
      </trkpt>
      <trkpt lat="48.45336" lon="7.14059">
        <ele>816</ele>
        <time>2019-05-15T08:37:13.063Z</time>
      </trkpt>
      <trkpt lat="48.45336" lon="7.14059">
        <ele>816</ele>
        <time>2019-05-15T08:37:14.063Z</time>
      </trkpt>
      <trkpt lat="48.45336" lon="7.14059">
        <ele>816</ele>
        <time>2019-05-15T08:37:15.063Z</time>
      </trkpt>
      <trkpt lat="48.45336" lon="7.14059">
        <ele>816</ele>
        <time>2019-05-15T08:37:16.063Z</time>
      </trkpt>
      <trkpt lat="48.45336" lon="7.14059">
        <ele>816</ele>
        <time>2019-05-15T08:37:17.063Z</time>
      </trkpt>
      <trkpt lat="48.45336" lon="7.14059">
        <ele>816</ele>
        <time>2019-05-15T08:37:18.063Z</time>
      </trkpt>
      <trkpt lat="48.45336" lon="7.14059">
        <ele>816</ele>
        <time>2019-05-15T08:37:19.063Z</time>
      </trkpt>
      <trkpt lat="48.45335" lon="7.14059">
        <ele>816</ele>
        <time>2019-05-15T08:37:20.063Z</time>
      </trkpt>
      <trkpt lat="48.45335" lon="7.14059">
        <ele>816</ele>
        <time>2019-05-15T08:37:21.063Z</time>
      </trkpt>
      <trkpt lat="48.45335" lon="7.14059">
        <ele>816</ele>
        <time>2019-05-15T08:37:22.063Z</time>
      </trkpt>
      <trkpt lat="48.45335" lon="7.14059">
        <ele>816</ele>
        <time>2019-05-15T08:37:23.063Z</time>
      </trkpt>
      <trkpt lat="48.45335" lon="7.14059">
        <ele>816</ele>
        <time>2019-05-15T08:37:24.063Z</time>
      </trkpt>
      <trkpt lat="48.45335" lon="7.14059">
        <ele>815</ele>
        <time>2019-05-15T08:37:25.063Z</time>
      </trkpt>
      <trkpt lat="48.45335" lon="7.14059">
        <ele>815</ele>
        <time>2019-05-15T08:37:26.063Z</time>
      </trkpt>
      <trkpt lat="48.45335" lon="7.14059">
        <ele>815</ele>
        <time>2019-05-15T08:37:27.063Z</time>
      </trkpt>
      <trkpt lat="48.45335" lon="7.14059">
        <ele>815</ele>
        <time>2019-05-15T08:37:28.063Z</time>
      </trkpt>
      <trkpt lat="48.45335" lon="7.14059">
        <ele>815</ele>
        <time>2019-05-15T08:37:29.063Z</time>
      </trkpt>
      <trkpt lat="48.45335" lon="7.14059">
        <ele>815</ele>
        <time>2019-05-15T08:37:30.063Z</time>
      </trkpt>
      <trkpt lat="48.45335" lon="7.14059">
        <ele>814</ele>
        <time>2019-05-15T08:37:31.063Z</time>
      </trkpt>
      <trkpt lat="48.45335" lon="7.14059">
        <ele>814</ele>
        <time>2019-05-15T08:37:32.063Z</time>
      </trkpt>
      <trkpt lat="48.45336" lon="7.14058">
        <ele>814</ele>
        <time>2019-05-15T08:37:33.063Z</time>
      </trkpt>
      <trkpt lat="48.45336" lon="7.14058">
        <ele>814</ele>
        <time>2019-05-15T08:37:34.063Z</time>
      </trkpt>
      <trkpt lat="48.45336" lon="7.14058">
        <ele>814</ele>
        <time>2019-05-15T08:37:35.063Z</time>
      </trkpt>
      <trkpt lat="48.45336" lon="7.14058">
        <ele>813</ele>
        <time>2019-05-15T08:37:36.063Z</time>
      </trkpt>
      <trkpt lat="48.45336" lon="7.14058">
        <ele>813</ele>
        <time>2019-05-15T08:37:37.063Z</time>
      </trkpt>
      <trkpt lat="48.45336" lon="7.14058">
        <ele>813</ele>
        <time>2019-05-15T08:37:38.063Z</time>
      </trkpt>
      <trkpt lat="48.45336" lon="7.14057">
        <ele>813</ele>
        <time>2019-05-15T08:37:39.063Z</time>
      </trkpt>
      <trkpt lat="48.45336" lon="7.14057">
        <ele>813</ele>
        <time>2019-05-15T08:37:40.063Z</time>
      </trkpt>
      <trkpt lat="48.45336" lon="7.14057">
        <ele>813</ele>
        <time>2019-05-15T08:37:41.063Z</time>
      </trkpt>
      <trkpt lat="48.45336" lon="7.14057">
        <ele>813</ele>
        <time>2019-05-15T08:37:42.063Z</time>
      </trkpt>
      <trkpt lat="48.45336" lon="7.14057">
        <ele>813</ele>
        <time>2019-05-15T08:37:43.063Z</time>
      </trkpt>
      <trkpt lat="48.45336" lon="7.14057">
        <ele>813</ele>
        <time>2019-05-15T08:37:44.063Z</time>
      </trkpt>
      <trkpt lat="48.45336" lon="7.14057">
        <ele>813</ele>
        <time>2019-05-15T08:37:45.063Z</time>
      </trkpt>
      <trkpt lat="48.45336" lon="7.14057">
        <ele>813</ele>
        <time>2019-05-15T08:37:46.063Z</time>
      </trkpt>
      <trkpt lat="48.45336" lon="7.14056">
        <ele>813</ele>
        <time>2019-05-15T08:37:47.063Z</time>
      </trkpt>
      <trkpt lat="48.45336" lon="7.14056">
        <ele>813</ele>
        <time>2019-05-15T08:37:48.063Z</time>
      </trkpt>
      <trkpt lat="48.45336" lon="7.14056">
        <ele>813</ele>
        <time>2019-05-15T08:37:49.063Z</time>
      </trkpt>
      <trkpt lat="48.45335" lon="7.14056">
        <ele>813</ele>
        <time>2019-05-15T08:37:50.063Z</time>
      </trkpt>
      <trkpt lat="48.45335" lon="7.14056">
        <ele>813</ele>
        <time>2019-05-15T08:37:51.063Z</time>
      </trkpt>
      <trkpt lat="48.45335" lon="7.14056">
        <ele>813</ele>
        <time>2019-05-15T08:37:52.063Z</time>
      </trkpt>
      <trkpt lat="48.45335" lon="7.14055">
        <ele>813</ele>
        <time>2019-05-15T08:37:53.063Z</time>
      </trkpt>
      <trkpt lat="48.45335" lon="7.14055">
        <ele>814</ele>
        <time>2019-05-15T08:37:54.063Z</time>
      </trkpt>
      <trkpt lat="48.45335" lon="7.14055">
        <ele>814</ele>
        <time>2019-05-15T08:37:55.063Z</time>
      </trkpt>
      <trkpt lat="48.45335" lon="7.14055">
        <ele>814</ele>
        <time>2019-05-15T08:37:56.063Z</time>
      </trkpt>
      <trkpt lat="48.45336" lon="7.14055">
        <ele>814</ele>
        <time>2019-05-15T08:37:57.063Z</time>
      </trkpt>
      <trkpt lat="48.45335" lon="7.14055">
        <ele>813</ele>
        <time>2019-05-15T08:37:58.063Z</time>
      </trkpt>
      <trkpt lat="48.45335" lon="7.14055">
        <ele>813</ele>
        <time>2019-05-15T08:37:59.063Z</time>
      </trkpt>
      <trkpt lat="48.45335" lon="7.14055">
        <ele>813</ele>
        <time>2019-05-15T08:38:00.063Z</time>
      </trkpt>
      <trkpt lat="48.45335" lon="7.14055">
        <ele>813</ele>
        <time>2019-05-15T08:38:01.063Z</time>
      </trkpt>
      <trkpt lat="48.45335" lon="7.14055">
        <ele>813</ele>
        <time>2019-05-15T08:38:02.063Z</time>
      </trkpt>
      <trkpt lat="48.45335" lon="7.14055">
        <ele>812</ele>
        <time>2019-05-15T08:38:03.063Z</time>
      </trkpt>
      <trkpt lat="48.45335" lon="7.14055">
        <ele>812</ele>
        <time>2019-05-15T08:38:04.063Z</time>
      </trkpt>
      <trkpt lat="48.45335" lon="7.14055">
        <ele>812</ele>
        <time>2019-05-15T08:38:05.063Z</time>
      </trkpt>
      <trkpt lat="48.45335" lon="7.14055">
        <ele>812</ele>
        <time>2019-05-15T08:38:06.063Z</time>
      </trkpt>
      <trkpt lat="48.45335" lon="7.14055">
        <ele>812</ele>
        <time>2019-05-15T08:38:07.063Z</time>
      </trkpt>
      <trkpt lat="48.45335" lon="7.14054">
        <ele>812</ele>
        <time>2019-05-15T08:38:08.063Z</time>
      </trkpt>
      <trkpt lat="48.45335" lon="7.14054">
        <ele>812</ele>
        <time>2019-05-15T08:38:09.063Z</time>
      </trkpt>
      <trkpt lat="48.45335" lon="7.14054">
        <ele>812</ele>
        <time>2019-05-15T08:38:10.063Z</time>
      </trkpt>
      <trkpt lat="48.45335" lon="7.14054">
        <ele>812</ele>
        <time>2019-05-15T08:38:11.063Z</time>
      </trkpt>
      <trkpt lat="48.45335" lon="7.14054">
        <ele>812</ele>
        <time>2019-05-15T08:38:12.063Z</time>
      </trkpt>
      <trkpt lat="48.45335" lon="7.14054">
        <ele>812</ele>
        <time>2019-05-15T08:38:13.063Z</time>
      </trkpt>
      <trkpt lat="48.45335" lon="7.14054">
        <ele>812</ele>
        <time>2019-05-15T08:38:14.063Z</time>
      </trkpt>
      <trkpt lat="48.45335" lon="7.14054">
        <ele>812</ele>
        <time>2019-05-15T08:38:15.063Z</time>
      </trkpt>
      <trkpt lat="48.45335" lon="7.14054">
        <ele>812</ele>
        <time>2019-05-15T08:38:16.063Z</time>
      </trkpt>
      <trkpt lat="48.45335" lon="7.14054">
        <ele>812</ele>
        <time>2019-05-15T08:38:17.063Z</time>
      </trkpt>
      <trkpt lat="48.45335" lon="7.14054">
        <ele>812</ele>
        <time>2019-05-15T08:38:18.063Z</time>
      </trkpt>
      <trkpt lat="48.45335" lon="7.14054">
        <ele>812</ele>
        <time>2019-05-15T08:38:19.063Z</time>
      </trkpt>
      <trkpt lat="48.45335" lon="7.14054">
        <ele>812</ele>
        <time>2019-05-15T08:38:20.063Z</time>
      </trkpt>
      <trkpt lat="48.45335" lon="7.14054">
        <ele>812</ele>
        <time>2019-05-15T08:38:21.063Z</time>
      </trkpt>
      <trkpt lat="48.45335" lon="7.14054">
        <ele>812</ele>
        <time>2019-05-15T08:38:22.063Z</time>
      </trkpt>
      <trkpt lat="48.45335" lon="7.14054">
        <ele>812</ele>
        <time>2019-05-15T08:38:23.063Z</time>
      </trkpt>
      <trkpt lat="48.45335" lon="7.14054">
        <ele>812</ele>
        <time>2019-05-15T08:38:24.063Z</time>
      </trkpt>
      <trkpt lat="48.45335" lon="7.14054">
        <ele>812</ele>
        <time>2019-05-15T08:38:25.063Z</time>
      </trkpt>
      <trkpt lat="48.45335" lon="7.14054">
        <ele>812</ele>
        <time>2019-05-15T08:38:26.063Z</time>
      </trkpt>
      <trkpt lat="48.45335" lon="7.14054">
        <ele>812</ele>
        <time>2019-05-15T08:38:27.063Z</time>
      </trkpt>
      <trkpt lat="48.45335" lon="7.14054">
        <ele>812</ele>
        <time>2019-05-15T08:38:28.063Z</time>
      </trkpt>
      <trkpt lat="48.45335" lon="7.14053">
        <ele>811</ele>
        <time>2019-05-15T08:38:29.063Z</time>
      </trkpt>
      <trkpt lat="48.45335" lon="7.14053">
        <ele>811</ele>
        <time>2019-05-15T08:38:30.063Z</time>
      </trkpt>
      <trkpt lat="48.45335" lon="7.14053">
        <ele>811</ele>
        <time>2019-05-15T08:38:31.063Z</time>
      </trkpt>
      <trkpt lat="48.45335" lon="7.14053">
        <ele>811</ele>
        <time>2019-05-15T08:38:32.063Z</time>
      </trkpt>
      <trkpt lat="48.45335" lon="7.14053">
        <ele>811</ele>
        <time>2019-05-15T08:38:33.063Z</time>
      </trkpt>
      <trkpt lat="48.45335" lon="7.14053">
        <ele>811</ele>
        <time>2019-05-15T08:38:34.063Z</time>
      </trkpt>
      <trkpt lat="48.45335" lon="7.14053">
        <ele>811</ele>
        <time>2019-05-15T08:38:35.063Z</time>
      </trkpt>
      <trkpt lat="48.45335" lon="7.14053">
        <ele>811</ele>
        <time>2019-05-15T08:38:36.063Z</time>
      </trkpt>
      <trkpt lat="48.45335" lon="7.14053">
        <ele>811</ele>
        <time>2019-05-15T08:38:37.063Z</time>
      </trkpt>
      <trkpt lat="48.45335" lon="7.14052">
        <ele>811</ele>
        <time>2019-05-15T08:38:38.063Z</time>
      </trkpt>
      <trkpt lat="48.45335" lon="7.14052">
        <ele>810</ele>
        <time>2019-05-15T08:38:39.063Z</time>
      </trkpt>
      <trkpt lat="48.45335" lon="7.14052">
        <ele>811</ele>
        <time>2019-05-15T08:38:40.063Z</time>
      </trkpt>
      <trkpt lat="48.45335" lon="7.14052">
        <ele>811</ele>
        <time>2019-05-15T08:38:41.063Z</time>
      </trkpt>
      <trkpt lat="48.45335" lon="7.14052">
        <ele>811</ele>
        <time>2019-05-15T08:38:42.063Z</time>
      </trkpt>
      <trkpt lat="48.45335" lon="7.14052">
        <ele>811</ele>
        <time>2019-05-15T08:38:43.063Z</time>
      </trkpt>
      <trkpt lat="48.45335" lon="7.14052">
        <ele>811</ele>
        <time>2019-05-15T08:38:44.063Z</time>
      </trkpt>
      <trkpt lat="48.45335" lon="7.14052">
        <ele>811</ele>
        <time>2019-05-15T08:38:45.063Z</time>
      </trkpt>
      <trkpt lat="48.45335" lon="7.14052">
        <ele>811</ele>
        <time>2019-05-15T08:38:46.063Z</time>
      </trkpt>
      <trkpt lat="48.45334" lon="7.14052">
        <ele>811</ele>
        <time>2019-05-15T08:38:47.063Z</time>
      </trkpt>
      <trkpt lat="48.45334" lon="7.14052">
        <ele>811</ele>
        <time>2019-05-15T08:38:48.063Z</time>
      </trkpt>
      <trkpt lat="48.45334" lon="7.14052">
        <ele>811</ele>
        <time>2019-05-15T08:38:49.063Z</time>
      </trkpt>
      <trkpt lat="48.45334" lon="7.14052">
        <ele>811</ele>
        <time>2019-05-15T08:38:50.063Z</time>
      </trkpt>
      <trkpt lat="48.45334" lon="7.14052">
        <ele>811</ele>
        <time>2019-05-15T08:38:51.063Z</time>
      </trkpt>
      <trkpt lat="48.45334" lon="7.14052">
        <ele>811</ele>
        <time>2019-05-15T08:38:52.063Z</time>
      </trkpt>
      <trkpt lat="48.45334" lon="7.14052">
        <ele>811</ele>
        <time>2019-05-15T08:38:53.063Z</time>
      </trkpt>
      <trkpt lat="48.45334" lon="7.14052">
        <ele>811</ele>
        <time>2019-05-15T08:38:54.063Z</time>
      </trkpt>
      <trkpt lat="48.45334" lon="7.14053">
        <ele>811</ele>
        <time>2019-05-15T08:38:55.063Z</time>
      </trkpt>
      <trkpt lat="48.45334" lon="7.14053">
        <ele>811</ele>
        <time>2019-05-15T08:38:56.063Z</time>
      </trkpt>
      <trkpt lat="48.45334" lon="7.14053">
        <ele>811</ele>
        <time>2019-05-15T08:38:57.063Z</time>
      </trkpt>
      <trkpt lat="48.45334" lon="7.14053">
        <ele>811</ele>
        <time>2019-05-15T08:38:58.063Z</time>
      </trkpt>
      <trkpt lat="48.45334" lon="7.14053">
        <ele>811</ele>
        <time>2019-05-15T08:38:59.063Z</time>
      </trkpt>
      <trkpt lat="48.45334" lon="7.14053">
        <ele>810</ele>
        <time>2019-05-15T08:39:00.063Z</time>
      </trkpt>
      <trkpt lat="48.45334" lon="7.14053">
        <ele>810</ele>
        <time>2019-05-15T08:39:01.063Z</time>
      </trkpt>
      <trkpt lat="48.45334" lon="7.14053">
        <ele>810</ele>
        <time>2019-05-15T08:39:02.063Z</time>
      </trkpt>
      <trkpt lat="48.45334" lon="7.14054">
        <ele>809</ele>
        <time>2019-05-15T08:39:03.063Z</time>
      </trkpt>
      <trkpt lat="48.45334" lon="7.14054">
        <ele>809</ele>
        <time>2019-05-15T08:39:04.063Z</time>
      </trkpt>
      <trkpt lat="48.45334" lon="7.14054">
        <ele>809</ele>
        <time>2019-05-15T08:39:05.063Z</time>
      </trkpt>
      <trkpt lat="48.45334" lon="7.14054">
        <ele>810</ele>
        <time>2019-05-15T08:39:06.063Z</time>
      </trkpt>
      <trkpt lat="48.45333" lon="7.14054">
        <ele>811</ele>
        <time>2019-05-15T08:39:07.063Z</time>
      </trkpt>
      <trkpt lat="48.45334" lon="7.14054">
        <ele>812</ele>
        <time>2019-05-15T08:39:08.063Z</time>
      </trkpt>
      <trkpt lat="48.45334" lon="7.14054">
        <ele>813</ele>
        <time>2019-05-15T08:39:09.063Z</time>
      </trkpt>
      <trkpt lat="48.45334" lon="7.14055">
        <ele>813</ele>
        <time>2019-05-15T08:39:10.063Z</time>
      </trkpt>
      <trkpt lat="48.45334" lon="7.14055">
        <ele>812</ele>
        <time>2019-05-15T08:39:11.063Z</time>
      </trkpt>
      <trkpt lat="48.45334" lon="7.14055">
        <ele>813</ele>
        <time>2019-05-15T08:39:12.063Z</time>
      </trkpt>
      <trkpt lat="48.45334" lon="7.14055">
        <ele>812</ele>
        <time>2019-05-15T08:39:13.063Z</time>
      </trkpt>
      <trkpt lat="48.45335" lon="7.14055">
        <ele>812</ele>
        <time>2019-05-15T08:39:14.063Z</time>
      </trkpt>
      <trkpt lat="48.45335" lon="7.14056">
        <ele>812</ele>
        <time>2019-05-15T08:39:15.063Z</time>
      </trkpt>
      <trkpt lat="48.45336" lon="7.14056">
        <ele>812</ele>
        <time>2019-05-15T08:39:16.063Z</time>
      </trkpt>
      <trkpt lat="48.45336" lon="7.14057">
        <ele>812</ele>
        <time>2019-05-15T08:39:17.063Z</time>
      </trkpt>
      <trkpt lat="48.45337" lon="7.14058">
        <ele>812</ele>
        <time>2019-05-15T08:39:18.063Z</time>
      </trkpt>
      <trkpt lat="48.45337" lon="7.14058">
        <ele>812</ele>
        <time>2019-05-15T08:39:19.063Z</time>
      </trkpt>
      <trkpt lat="48.45336" lon="7.14058">
        <ele>813</ele>
        <time>2019-05-15T08:39:20.063Z</time>
      </trkpt>
      <trkpt lat="48.45336" lon="7.14058">
        <ele>812</ele>
        <time>2019-05-15T08:39:21.063Z</time>
      </trkpt>
      <trkpt lat="48.45335" lon="7.14058">
        <ele>812</ele>
        <time>2019-05-15T08:39:22.063Z</time>
      </trkpt>
      <trkpt lat="48.45335" lon="7.14058">
        <ele>813</ele>
        <time>2019-05-15T08:39:23.063Z</time>
      </trkpt>
      <trkpt lat="48.45334" lon="7.14058">
        <ele>812</ele>
        <time>2019-05-15T08:39:24.063Z</time>
      </trkpt>
      <trkpt lat="48.45334" lon="7.14058">
        <ele>813</ele>
        <time>2019-05-15T08:39:25.063Z</time>
      </trkpt>
      <trkpt lat="48.45334" lon="7.14057">
        <ele>812</ele>
        <time>2019-05-15T08:39:26.063Z</time>
      </trkpt>
      <trkpt lat="48.45334" lon="7.14057">
        <ele>812</ele>
        <time>2019-05-15T08:39:27.063Z</time>
      </trkpt>
      <trkpt lat="48.45334" lon="7.14057">
        <ele>813</ele>
        <time>2019-05-15T08:39:28.063Z</time>
      </trkpt>
      <trkpt lat="48.45334" lon="7.14057">
        <ele>813</ele>
        <time>2019-05-15T08:39:29.063Z</time>
      </trkpt>
      <trkpt lat="48.45334" lon="7.14057">
        <ele>813</ele>
        <time>2019-05-15T08:39:30.063Z</time>
      </trkpt>
      <trkpt lat="48.45334" lon="7.14057">
        <ele>814</ele>
        <time>2019-05-15T08:39:31.063Z</time>
      </trkpt>
      <trkpt lat="48.45334" lon="7.14057">
        <ele>814</ele>
        <time>2019-05-15T08:39:32.063Z</time>
      </trkpt>
      <trkpt lat="48.45334" lon="7.14057">
        <ele>814</ele>
        <time>2019-05-15T08:39:33.063Z</time>
      </trkpt>
      <trkpt lat="48.45334" lon="7.14057">
        <ele>814</ele>
        <time>2019-05-15T08:39:34.063Z</time>
      </trkpt>
      <trkpt lat="48.45333" lon="7.14057">
        <ele>814</ele>
        <time>2019-05-15T08:39:35.063Z</time>
      </trkpt>
      <trkpt lat="48.45333" lon="7.14057">
        <ele>813</ele>
        <time>2019-05-15T08:39:36.063Z</time>
      </trkpt>
      <trkpt lat="48.45333" lon="7.14057">
        <ele>813</ele>
        <time>2019-05-15T08:39:37.063Z</time>
      </trkpt>
      <trkpt lat="48.45332" lon="7.14058">
        <ele>813</ele>
        <time>2019-05-15T08:39:38.063Z</time>
      </trkpt>
      <trkpt lat="48.45332" lon="7.14058">
        <ele>813</ele>
        <time>2019-05-15T08:39:39.063Z</time>
      </trkpt>
      <trkpt lat="48.45331" lon="7.14058">
        <ele>813</ele>
        <time>2019-05-15T08:39:40.063Z</time>
      </trkpt>
      <trkpt lat="48.45331" lon="7.14058">
        <ele>813</ele>
        <time>2019-05-15T08:39:41.063Z</time>
      </trkpt>
      <trkpt lat="48.4533" lon="7.14059">
        <ele>813</ele>
        <time>2019-05-15T08:39:42.063Z</time>
      </trkpt>
      <trkpt lat="48.4533" lon="7.14059">
        <ele>812</ele>
        <time>2019-05-15T08:39:43.063Z</time>
      </trkpt>
      <trkpt lat="48.4533" lon="7.14059">
        <ele>812</ele>
        <time>2019-05-15T08:39:44.063Z</time>
      </trkpt>
      <trkpt lat="48.45329" lon="7.14059">
        <ele>812</ele>
        <time>2019-05-15T08:39:45.063Z</time>
      </trkpt>
      <trkpt lat="48.45329" lon="7.14058">
        <ele>812</ele>
        <time>2019-05-15T08:39:46.063Z</time>
      </trkpt>
      <trkpt lat="48.45328" lon="7.14057">
        <ele>812</ele>
        <time>2019-05-15T08:39:47.063Z</time>
      </trkpt>
      <trkpt lat="48.45328" lon="7.14056">
        <ele>812</ele>
        <time>2019-05-15T08:39:48.063Z</time>
      </trkpt>
      <trkpt lat="48.45327" lon="7.14055">
        <ele>812</ele>
        <time>2019-05-15T08:39:49.063Z</time>
      </trkpt>
      <trkpt lat="48.45327" lon="7.14054">
        <ele>812</ele>
        <time>2019-05-15T08:39:50.063Z</time>
      </trkpt>
      <trkpt lat="48.45326" lon="7.14053">
        <ele>811</ele>
        <time>2019-05-15T08:39:51.063Z</time>
      </trkpt>
      <trkpt lat="48.45326" lon="7.14053">
        <ele>811</ele>
        <time>2019-05-15T08:39:52.063Z</time>
      </trkpt>
      <trkpt lat="48.45326" lon="7.14052">
        <ele>811</ele>
        <time>2019-05-15T08:39:53.063Z</time>
      </trkpt>
      <trkpt lat="48.45326" lon="7.14051">
        <ele>812</ele>
        <time>2019-05-15T08:39:54.063Z</time>
      </trkpt>
      <trkpt lat="48.45326" lon="7.14051">
        <ele>812</ele>
        <time>2019-05-15T08:39:55.063Z</time>
      </trkpt>
      <trkpt lat="48.45326" lon="7.14051">
        <ele>812</ele>
        <time>2019-05-15T08:39:56.063Z</time>
      </trkpt>
      <trkpt lat="48.45325" lon="7.14051">
        <ele>812</ele>
        <time>2019-05-15T08:39:57.063Z</time>
      </trkpt>
      <trkpt lat="48.45325" lon="7.14052">
        <ele>811</ele>
        <time>2019-05-15T08:39:58.063Z</time>
      </trkpt>
      <trkpt lat="48.45326" lon="7.14052">
        <ele>812</ele>
        <time>2019-05-15T08:39:59.063Z</time>
      </trkpt>
      <trkpt lat="48.45326" lon="7.14052">
        <ele>812</ele>
        <time>2019-05-15T08:40:00.063Z</time>
      </trkpt>
      <trkpt lat="48.45326" lon="7.14052">
        <ele>812</ele>
        <time>2019-05-15T08:40:01.063Z</time>
      </trkpt>
      <trkpt lat="48.45325" lon="7.14052">
        <ele>812</ele>
        <time>2019-05-15T08:40:02.063Z</time>
      </trkpt>
      <trkpt lat="48.45325" lon="7.14052">
        <ele>812</ele>
        <time>2019-05-15T08:40:03.063Z</time>
      </trkpt>
      <trkpt lat="48.45325" lon="7.14053">
        <ele>812</ele>
        <time>2019-05-15T08:40:04.063Z</time>
      </trkpt>
      <trkpt lat="48.45325" lon="7.14053">
        <ele>812</ele>
        <time>2019-05-15T08:40:05.063Z</time>
      </trkpt>
      <trkpt lat="48.45325" lon="7.14053">
        <ele>812</ele>
        <time>2019-05-15T08:40:06.063Z</time>
      </trkpt>
      <trkpt lat="48.45325" lon="7.14054">
        <ele>813</ele>
        <time>2019-05-15T08:40:07.063Z</time>
      </trkpt>
      <trkpt lat="48.45324" lon="7.14053">
        <ele>812</ele>
        <time>2019-05-15T08:40:08.063Z</time>
      </trkpt>
      <trkpt lat="48.45324" lon="7.14053">
        <ele>813</ele>
        <time>2019-05-15T08:40:09.063Z</time>
      </trkpt>
      <trkpt lat="48.45324" lon="7.14053">
        <ele>812</ele>
        <time>2019-05-15T08:40:10.063Z</time>
      </trkpt>
      <trkpt lat="48.45324" lon="7.14053">
        <ele>813</ele>
        <time>2019-05-15T08:40:11.063Z</time>
      </trkpt>
      <trkpt lat="48.45324" lon="7.14053">
        <ele>813</ele>
        <time>2019-05-15T08:40:12.063Z</time>
      </trkpt>
      <trkpt lat="48.45323" lon="7.14053">
        <ele>813</ele>
        <time>2019-05-15T08:40:13.063Z</time>
      </trkpt>
      <trkpt lat="48.45323" lon="7.14053">
        <ele>813</ele>
        <time>2019-05-15T08:40:14.063Z</time>
      </trkpt>
      <trkpt lat="48.45323" lon="7.14052">
        <ele>813</ele>
        <time>2019-05-15T08:40:15.063Z</time>
      </trkpt>
      <trkpt lat="48.45323" lon="7.14052">
        <ele>813</ele>
        <time>2019-05-15T08:40:16.063Z</time>
      </trkpt>
      <trkpt lat="48.45323" lon="7.14052">
        <ele>813</ele>
        <time>2019-05-15T08:40:17.063Z</time>
      </trkpt>
      <trkpt lat="48.45323" lon="7.14052">
        <ele>812</ele>
        <time>2019-05-15T08:40:18.063Z</time>
      </trkpt>
      <trkpt lat="48.45323" lon="7.14052">
        <ele>812</ele>
        <time>2019-05-15T08:40:19.063Z</time>
      </trkpt>
      <trkpt lat="48.45323" lon="7.14051">
        <ele>813</ele>
        <time>2019-05-15T08:40:20.063Z</time>
      </trkpt>
      <trkpt lat="48.45323" lon="7.1405">
        <ele>813</ele>
        <time>2019-05-15T08:40:21.063Z</time>
      </trkpt>
      <trkpt lat="48.45323" lon="7.1405">
        <ele>812</ele>
        <time>2019-05-15T08:40:22.063Z</time>
      </trkpt>
      <trkpt lat="48.45322" lon="7.14049">
        <ele>812</ele>
        <time>2019-05-15T08:40:23.063Z</time>
      </trkpt>
      <trkpt lat="48.45322" lon="7.14048">
        <ele>812</ele>
        <time>2019-05-15T08:40:24.063Z</time>
      </trkpt>
      <trkpt lat="48.45322" lon="7.14047">
        <ele>812</ele>
        <time>2019-05-15T08:40:25.063Z</time>
      </trkpt>
      <trkpt lat="48.45321" lon="7.14046">
        <ele>812</ele>
        <time>2019-05-15T08:40:26.063Z</time>
      </trkpt>
      <trkpt lat="48.45321" lon="7.14044">
        <ele>812</ele>
        <time>2019-05-15T08:40:27.063Z</time>
      </trkpt>
      <trkpt lat="48.45321" lon="7.14043">
        <ele>811</ele>
        <time>2019-05-15T08:40:28.063Z</time>
      </trkpt>
      <trkpt lat="48.45321" lon="7.14042">
        <ele>811</ele>
        <time>2019-05-15T08:40:29.063Z</time>
      </trkpt>
      <trkpt lat="48.45321" lon="7.14041">
        <ele>811</ele>
        <time>2019-05-15T08:40:30.063Z</time>
      </trkpt>
      <trkpt lat="48.45321" lon="7.14042">
        <ele>810</ele>
        <time>2019-05-15T08:40:31.063Z</time>
      </trkpt>
      <trkpt lat="48.45322" lon="7.14042">
        <ele>810</ele>
        <time>2019-05-15T08:40:32.063Z</time>
      </trkpt>
      <trkpt lat="48.45322" lon="7.14043">
        <ele>810</ele>
        <time>2019-05-15T08:40:33.063Z</time>
      </trkpt>
      <trkpt lat="48.45322" lon="7.14043">
        <ele>810</ele>
        <time>2019-05-15T08:40:34.063Z</time>
      </trkpt>
      <trkpt lat="48.45322" lon="7.14043">
        <ele>810</ele>
        <time>2019-05-15T08:40:35.063Z</time>
      </trkpt>
      <trkpt lat="48.45322" lon="7.14042">
        <ele>810</ele>
        <time>2019-05-15T08:40:36.063Z</time>
      </trkpt>
      <trkpt lat="48.45322" lon="7.14042">
        <ele>810</ele>
        <time>2019-05-15T08:40:37.063Z</time>
      </trkpt>
      <trkpt lat="48.45321" lon="7.14042">
        <ele>810</ele>
        <time>2019-05-15T08:40:38.063Z</time>
      </trkpt>
      <trkpt lat="48.45321" lon="7.14041">
        <ele>810</ele>
        <time>2019-05-15T08:40:39.063Z</time>
      </trkpt>
      <trkpt lat="48.45321" lon="7.14041">
        <ele>810</ele>
        <time>2019-05-15T08:40:40.063Z</time>
      </trkpt>
      <trkpt lat="48.4532" lon="7.1404">
        <ele>810</ele>
        <time>2019-05-15T08:40:41.063Z</time>
      </trkpt>
      <trkpt lat="48.45319" lon="7.14039">
        <ele>810</ele>
        <time>2019-05-15T08:40:42.063Z</time>
      </trkpt>
      <trkpt lat="48.45319" lon="7.14039">
        <ele>810</ele>
        <time>2019-05-15T08:40:43.063Z</time>
      </trkpt>
      <trkpt lat="48.45319" lon="7.14039">
        <ele>809</ele>
        <time>2019-05-15T08:40:44.063Z</time>
      </trkpt>
      <trkpt lat="48.45319" lon="7.14039">
        <ele>810</ele>
        <time>2019-05-15T08:40:45.063Z</time>
      </trkpt>
      <trkpt lat="48.45318" lon="7.14039">
        <ele>809</ele>
        <time>2019-05-15T08:40:46.063Z</time>
      </trkpt>
      <trkpt lat="48.45318" lon="7.14039">
        <ele>809</ele>
        <time>2019-05-15T08:40:47.063Z</time>
      </trkpt>
      <trkpt lat="48.45317" lon="7.14039">
        <ele>809</ele>
        <time>2019-05-15T08:40:48.063Z</time>
      </trkpt>
      <trkpt lat="48.45317" lon="7.1404">
        <ele>809</ele>
        <time>2019-05-15T08:40:49.063Z</time>
      </trkpt>
      <trkpt lat="48.45316" lon="7.1404">
        <ele>809</ele>
        <time>2019-05-15T08:40:50.063Z</time>
      </trkpt>
      <trkpt lat="48.45315" lon="7.1404">
        <ele>809</ele>
        <time>2019-05-15T08:40:51.063Z</time>
      </trkpt>
      <trkpt lat="48.45314" lon="7.14041">
        <ele>809</ele>
        <time>2019-05-15T08:40:52.063Z</time>
      </trkpt>
      <trkpt lat="48.45314" lon="7.14041">
        <ele>809</ele>
        <time>2019-05-15T08:40:53.063Z</time>
      </trkpt>
      <trkpt lat="48.45313" lon="7.14041">
        <ele>809</ele>
        <time>2019-05-15T08:40:54.063Z</time>
      </trkpt>
      <trkpt lat="48.45313" lon="7.14041">
        <ele>809</ele>
        <time>2019-05-15T08:40:55.063Z</time>
      </trkpt>
      <trkpt lat="48.45312" lon="7.1404">
        <ele>808</ele>
        <time>2019-05-15T08:40:56.063Z</time>
      </trkpt>
      <trkpt lat="48.45311" lon="7.14039">
        <ele>808</ele>
        <time>2019-05-15T08:40:57.063Z</time>
      </trkpt>
      <trkpt lat="48.45311" lon="7.14038">
        <ele>808</ele>
        <time>2019-05-15T08:40:58.063Z</time>
      </trkpt>
      <trkpt lat="48.4531" lon="7.14037">
        <ele>808</ele>
        <time>2019-05-15T08:40:59.063Z</time>
      </trkpt>
      <trkpt lat="48.4531" lon="7.14036">
        <ele>808</ele>
        <time>2019-05-15T08:41:00.063Z</time>
      </trkpt>
      <trkpt lat="48.4531" lon="7.14035">
        <ele>808</ele>
        <time>2019-05-15T08:41:01.063Z</time>
      </trkpt>
      <trkpt lat="48.4531" lon="7.14035">
        <ele>808</ele>
        <time>2019-05-15T08:41:02.063Z</time>
      </trkpt>
      <trkpt lat="48.45311" lon="7.14035">
        <ele>808</ele>
        <time>2019-05-15T08:41:03.063Z</time>
      </trkpt>
      <trkpt lat="48.45311" lon="7.14035">
        <ele>807</ele>
        <time>2019-05-15T08:41:04.063Z</time>
      </trkpt>
      <trkpt lat="48.45311" lon="7.14035">
        <ele>807</ele>
        <time>2019-05-15T08:41:05.063Z</time>
      </trkpt>
      <trkpt lat="48.45311" lon="7.14035">
        <ele>807</ele>
        <time>2019-05-15T08:41:06.063Z</time>
      </trkpt>
      <trkpt lat="48.45311" lon="7.14035">
        <ele>807</ele>
        <time>2019-05-15T08:41:07.063Z</time>
      </trkpt>
      <trkpt lat="48.45311" lon="7.14035">
        <ele>807</ele>
        <time>2019-05-15T08:41:08.063Z</time>
      </trkpt>
      <trkpt lat="48.45311" lon="7.14035">
        <ele>807</ele>
        <time>2019-05-15T08:41:09.063Z</time>
      </trkpt>
      <trkpt lat="48.45311" lon="7.14035">
        <ele>808</ele>
        <time>2019-05-15T08:41:10.063Z</time>
      </trkpt>
      <trkpt lat="48.45311" lon="7.14035">
        <ele>808</ele>
        <time>2019-05-15T08:41:11.063Z</time>
      </trkpt>
      <trkpt lat="48.45311" lon="7.14035">
        <ele>808</ele>
        <time>2019-05-15T08:41:12.063Z</time>
      </trkpt>
      <trkpt lat="48.45311" lon="7.14035">
        <ele>808</ele>
        <time>2019-05-15T08:41:13.063Z</time>
      </trkpt>
      <trkpt lat="48.45311" lon="7.14035">
        <ele>807</ele>
        <time>2019-05-15T08:41:14.063Z</time>
      </trkpt>
      <trkpt lat="48.45311" lon="7.14035">
        <ele>807</ele>
        <time>2019-05-15T08:41:15.063Z</time>
      </trkpt>
      <trkpt lat="48.45311" lon="7.14035">
        <ele>807</ele>
        <time>2019-05-15T08:41:16.063Z</time>
      </trkpt>
      <trkpt lat="48.45311" lon="7.14035">
        <ele>807</ele>
        <time>2019-05-15T08:41:17.063Z</time>
      </trkpt>
      <trkpt lat="48.45311" lon="7.14035">
        <ele>807</ele>
        <time>2019-05-15T08:41:18.063Z</time>
      </trkpt>
      <trkpt lat="48.45311" lon="7.14035">
        <ele>808</ele>
        <time>2019-05-15T08:41:19.063Z</time>
      </trkpt>
      <trkpt lat="48.45311" lon="7.14035">
        <ele>808</ele>
        <time>2019-05-15T08:41:20.063Z</time>
      </trkpt>
      <trkpt lat="48.45311" lon="7.14035">
        <ele>808</ele>
        <time>2019-05-15T08:41:21.063Z</time>
      </trkpt>
      <trkpt lat="48.45311" lon="7.14035">
        <ele>808</ele>
        <time>2019-05-15T08:41:22.063Z</time>
      </trkpt>
      <trkpt lat="48.45311" lon="7.14035">
        <ele>808</ele>
        <time>2019-05-15T08:41:23.063Z</time>
      </trkpt>
      <trkpt lat="48.45311" lon="7.14035">
        <ele>808</ele>
        <time>2019-05-15T08:41:24.063Z</time>
      </trkpt>
      <trkpt lat="48.45311" lon="7.14035">
        <ele>809</ele>
        <time>2019-05-15T08:41:25.063Z</time>
      </trkpt>
      <trkpt lat="48.45311" lon="7.14036">
        <ele>809</ele>
        <time>2019-05-15T08:41:26.063Z</time>
      </trkpt>
      <trkpt lat="48.45311" lon="7.14036">
        <ele>809</ele>
        <time>2019-05-15T08:41:27.063Z</time>
      </trkpt>
      <trkpt lat="48.45311" lon="7.14036">
        <ele>810</ele>
        <time>2019-05-15T08:41:28.063Z</time>
      </trkpt>
      <trkpt lat="48.45311" lon="7.14036">
        <ele>810</ele>
        <time>2019-05-15T08:41:29.063Z</time>
      </trkpt>
      <trkpt lat="48.45311" lon="7.14037">
        <ele>810</ele>
        <time>2019-05-15T08:41:30.063Z</time>
      </trkpt>
      <trkpt lat="48.45311" lon="7.14037">
        <ele>810</ele>
        <time>2019-05-15T08:41:31.063Z</time>
      </trkpt>
      <trkpt lat="48.45311" lon="7.14036">
        <ele>810</ele>
        <time>2019-05-15T08:41:32.063Z</time>
      </trkpt>
      <trkpt lat="48.45311" lon="7.14036">
        <ele>810</ele>
        <time>2019-05-15T08:41:33.063Z</time>
      </trkpt>
      <trkpt lat="48.45311" lon="7.14036">
        <ele>810</ele>
        <time>2019-05-15T08:41:34.063Z</time>
      </trkpt>
      <trkpt lat="48.45311" lon="7.14036">
        <ele>810</ele>
        <time>2019-05-15T08:41:35.063Z</time>
      </trkpt>
      <trkpt lat="48.45311" lon="7.14036">
        <ele>810</ele>
        <time>2019-05-15T08:41:36.063Z</time>
      </trkpt>
      <trkpt lat="48.45311" lon="7.14036">
        <ele>811</ele>
        <time>2019-05-15T08:41:37.063Z</time>
      </trkpt>
      <trkpt lat="48.4531" lon="7.14036">
        <ele>811</ele>
        <time>2019-05-15T08:41:38.063Z</time>
      </trkpt>
      <trkpt lat="48.4531" lon="7.14036">
        <ele>810</ele>
        <time>2019-05-15T08:41:39.063Z</time>
      </trkpt>
      <trkpt lat="48.4531" lon="7.14036">
        <ele>810</ele>
        <time>2019-05-15T08:41:40.063Z</time>
      </trkpt>
      <trkpt lat="48.4531" lon="7.14036">
        <ele>810</ele>
        <time>2019-05-15T08:41:41.063Z</time>
      </trkpt>
      <trkpt lat="48.4531" lon="7.14036">
        <ele>811</ele>
        <time>2019-05-15T08:41:42.063Z</time>
      </trkpt>
      <trkpt lat="48.4531" lon="7.14035">
        <ele>811</ele>
        <time>2019-05-15T08:41:43.063Z</time>
      </trkpt>
      <trkpt lat="48.4531" lon="7.14035">
        <ele>811</ele>
        <time>2019-05-15T08:41:44.063Z</time>
      </trkpt>
      <trkpt lat="48.4531" lon="7.14035">
        <ele>811</ele>
        <time>2019-05-15T08:41:45.063Z</time>
      </trkpt>
      <trkpt lat="48.4531" lon="7.14034">
        <ele>811</ele>
        <time>2019-05-15T08:41:46.063Z</time>
      </trkpt>
      <trkpt lat="48.4531" lon="7.14034">
        <ele>811</ele>
        <time>2019-05-15T08:41:47.063Z</time>
      </trkpt>
      <trkpt lat="48.4531" lon="7.14034">
        <ele>811</ele>
        <time>2019-05-15T08:41:48.063Z</time>
      </trkpt>
      <trkpt lat="48.4531" lon="7.14034">
        <ele>811</ele>
        <time>2019-05-15T08:41:49.063Z</time>
      </trkpt>
      <trkpt lat="48.4531" lon="7.14034">
        <ele>811</ele>
        <time>2019-05-15T08:41:50.063Z</time>
      </trkpt>
      <trkpt lat="48.4531" lon="7.14034">
        <ele>811</ele>
        <time>2019-05-15T08:41:51.063Z</time>
      </trkpt>
      <trkpt lat="48.4531" lon="7.14034">
        <ele>811</ele>
        <time>2019-05-15T08:41:52.063Z</time>
      </trkpt>
      <trkpt lat="48.45309" lon="7.14034">
        <ele>810</ele>
        <time>2019-05-15T08:41:53.063Z</time>
      </trkpt>
      <trkpt lat="48.45309" lon="7.14034">
        <ele>810</ele>
        <time>2019-05-15T08:41:54.063Z</time>
      </trkpt>
      <trkpt lat="48.45309" lon="7.14034">
        <ele>810</ele>
        <time>2019-05-15T08:41:55.063Z</time>
      </trkpt>
      <trkpt lat="48.45309" lon="7.14034">
        <ele>810</ele>
        <time>2019-05-15T08:41:56.063Z</time>
      </trkpt>
      <trkpt lat="48.45309" lon="7.14034">
        <ele>809</ele>
        <time>2019-05-15T08:41:57.063Z</time>
      </trkpt>
      <trkpt lat="48.45309" lon="7.14034">
        <ele>809</ele>
        <time>2019-05-15T08:41:58.063Z</time>
      </trkpt>
      <trkpt lat="48.45309" lon="7.14034">
        <ele>809</ele>
        <time>2019-05-15T08:41:59.063Z</time>
      </trkpt>
      <trkpt lat="48.45309" lon="7.14034">
        <ele>809</ele>
        <time>2019-05-15T08:42:00.063Z</time>
      </trkpt>
      <trkpt lat="48.45309" lon="7.14034">
        <ele>809</ele>
        <time>2019-05-15T08:42:01.063Z</time>
      </trkpt>
      <trkpt lat="48.45309" lon="7.14034">
        <ele>809</ele>
        <time>2019-05-15T08:42:02.063Z</time>
      </trkpt>
      <trkpt lat="48.45309" lon="7.14034">
        <ele>809</ele>
        <time>2019-05-15T08:42:03.063Z</time>
      </trkpt>
      <trkpt lat="48.4531" lon="7.14034">
        <ele>809</ele>
        <time>2019-05-15T08:42:04.063Z</time>
      </trkpt>
      <trkpt lat="48.4531" lon="7.14035">
        <ele>809</ele>
        <time>2019-05-15T08:42:05.063Z</time>
      </trkpt>
      <trkpt lat="48.4531" lon="7.14035">
        <ele>810</ele>
        <time>2019-05-15T08:42:06.063Z</time>
      </trkpt>
      <trkpt lat="48.4531" lon="7.14035">
        <ele>810</ele>
        <time>2019-05-15T08:42:07.063Z</time>
      </trkpt>
      <trkpt lat="48.4531" lon="7.14035">
        <ele>810</ele>
        <time>2019-05-15T08:42:08.063Z</time>
      </trkpt>
      <trkpt lat="48.45309" lon="7.14035">
        <ele>810</ele>
        <time>2019-05-15T08:42:09.063Z</time>
      </trkpt>
      <trkpt lat="48.45309" lon="7.14035">
        <ele>809</ele>
        <time>2019-05-15T08:42:10.063Z</time>
      </trkpt>
      <trkpt lat="48.45309" lon="7.14035">
        <ele>809</ele>
        <time>2019-05-15T08:42:11.063Z</time>
      </trkpt>
      <trkpt lat="48.45308" lon="7.14034">
        <ele>809</ele>
        <time>2019-05-15T08:42:12.063Z</time>
      </trkpt>
      <trkpt lat="48.45308" lon="7.14034">
        <ele>809</ele>
        <time>2019-05-15T08:42:13.063Z</time>
      </trkpt>
      <trkpt lat="48.45307" lon="7.14034">
        <ele>808</ele>
        <time>2019-05-15T08:42:14.063Z</time>
      </trkpt>
      <trkpt lat="48.45307" lon="7.14034">
        <ele>808</ele>
        <time>2019-05-15T08:42:15.063Z</time>
      </trkpt>
      <trkpt lat="48.45306" lon="7.14033">
        <ele>808</ele>
        <time>2019-05-15T08:42:16.063Z</time>
      </trkpt>
      <trkpt lat="48.45305" lon="7.14033">
        <ele>808</ele>
        <time>2019-05-15T08:42:17.063Z</time>
      </trkpt>
      <trkpt lat="48.45305" lon="7.14032">
        <ele>808</ele>
        <time>2019-05-15T08:42:18.063Z</time>
      </trkpt>
      <trkpt lat="48.45304" lon="7.14032">
        <ele>808</ele>
        <time>2019-05-15T08:42:19.063Z</time>
      </trkpt>
      <trkpt lat="48.45303" lon="7.14031">
        <ele>808</ele>
        <time>2019-05-15T08:42:20.063Z</time>
      </trkpt>
      <trkpt lat="48.45302" lon="7.14031">
        <ele>808</ele>
        <time>2019-05-15T08:42:21.063Z</time>
      </trkpt>
      <trkpt lat="48.45302" lon="7.1403">
        <ele>808</ele>
        <time>2019-05-15T08:42:22.063Z</time>
      </trkpt>
      <trkpt lat="48.45301" lon="7.1403">
        <ele>808</ele>
        <time>2019-05-15T08:42:23.063Z</time>
      </trkpt>
      <trkpt lat="48.453" lon="7.1403">
        <ele>808</ele>
        <time>2019-05-15T08:42:24.063Z</time>
      </trkpt>
      <trkpt lat="48.453" lon="7.1403">
        <ele>808</ele>
        <time>2019-05-15T08:42:25.063Z</time>
      </trkpt>
      <trkpt lat="48.45299" lon="7.1403">
        <ele>808</ele>
        <time>2019-05-15T08:42:26.063Z</time>
      </trkpt>
      <trkpt lat="48.45298" lon="7.1403">
        <ele>808</ele>
        <time>2019-05-15T08:42:27.063Z</time>
      </trkpt>
      <trkpt lat="48.45298" lon="7.14029">
        <ele>808</ele>
        <time>2019-05-15T08:42:28.063Z</time>
      </trkpt>
      <trkpt lat="48.45297" lon="7.14029">
        <ele>808</ele>
        <time>2019-05-15T08:42:29.063Z</time>
      </trkpt>
      <trkpt lat="48.45297" lon="7.14029">
        <ele>808</ele>
        <time>2019-05-15T08:42:30.063Z</time>
      </trkpt>
      <trkpt lat="48.45297" lon="7.14029">
        <ele>808</ele>
        <time>2019-05-15T08:42:31.063Z</time>
      </trkpt>
      <trkpt lat="48.45296" lon="7.14029">
        <ele>809</ele>
        <time>2019-05-15T08:42:32.063Z</time>
      </trkpt>
      <trkpt lat="48.45296" lon="7.14029">
        <ele>809</ele>
        <time>2019-05-15T08:42:33.063Z</time>
      </trkpt>
      <trkpt lat="48.45296" lon="7.14029">
        <ele>809</ele>
        <time>2019-05-15T08:42:34.063Z</time>
      </trkpt>
      <trkpt lat="48.45295" lon="7.14029">
        <ele>808</ele>
        <time>2019-05-15T08:42:35.063Z</time>
      </trkpt>
      <trkpt lat="48.45295" lon="7.14029">
        <ele>808</ele>
        <time>2019-05-15T08:42:36.063Z</time>
      </trkpt>
      <trkpt lat="48.45294" lon="7.14029">
        <ele>808</ele>
        <time>2019-05-15T08:42:37.063Z</time>
      </trkpt>
      <trkpt lat="48.45294" lon="7.14029">
        <ele>808</ele>
        <time>2019-05-15T08:42:38.063Z</time>
      </trkpt>
      <trkpt lat="48.45293" lon="7.14029">
        <ele>808</ele>
        <time>2019-05-15T08:42:39.063Z</time>
      </trkpt>
      <trkpt lat="48.45292" lon="7.14029">
        <ele>808</ele>
        <time>2019-05-15T08:42:40.063Z</time>
      </trkpt>
      <trkpt lat="48.45291" lon="7.14028">
        <ele>808</ele>
        <time>2019-05-15T08:42:41.063Z</time>
      </trkpt>
      <trkpt lat="48.4529" lon="7.14028">
        <ele>808</ele>
        <time>2019-05-15T08:42:42.063Z</time>
      </trkpt>
      <trkpt lat="48.45289" lon="7.14028">
        <ele>808</ele>
        <time>2019-05-15T08:42:43.063Z</time>
      </trkpt>
      <trkpt lat="48.45288" lon="7.14027">
        <ele>807</ele>
        <time>2019-05-15T08:42:44.063Z</time>
      </trkpt>
      <trkpt lat="48.45287" lon="7.14027">
        <ele>808</ele>
        <time>2019-05-15T08:42:45.063Z</time>
      </trkpt>
      <trkpt lat="48.45286" lon="7.14027">
        <ele>808</ele>
        <time>2019-05-15T08:42:46.063Z</time>
      </trkpt>
      <trkpt lat="48.45285" lon="7.14027">
        <ele>808</ele>
        <time>2019-05-15T08:42:47.063Z</time>
      </trkpt>
      <trkpt lat="48.45284" lon="7.14026">
        <ele>808</ele>
        <time>2019-05-15T08:42:48.063Z</time>
      </trkpt>
      <trkpt lat="48.45283" lon="7.14025">
        <ele>808</ele>
        <time>2019-05-15T08:42:49.063Z</time>
      </trkpt>
      <trkpt lat="48.45283" lon="7.14024">
        <ele>808</ele>
        <time>2019-05-15T08:42:50.063Z</time>
      </trkpt>
      <trkpt lat="48.45283" lon="7.14022">
        <ele>808</ele>
        <time>2019-05-15T08:42:51.063Z</time>
      </trkpt>
      <trkpt lat="48.45282" lon="7.1402">
        <ele>808</ele>
        <time>2019-05-15T08:42:52.063Z</time>
      </trkpt>
      <trkpt lat="48.45282" lon="7.14019">
        <ele>808</ele>
        <time>2019-05-15T08:42:53.063Z</time>
      </trkpt>
      <trkpt lat="48.45282" lon="7.14017">
        <ele>807</ele>
        <time>2019-05-15T08:42:54.063Z</time>
      </trkpt>
      <trkpt lat="48.45281" lon="7.14015">
        <ele>807</ele>
        <time>2019-05-15T08:42:55.063Z</time>
      </trkpt>
      <trkpt lat="48.45281" lon="7.14014">
        <ele>807</ele>
        <time>2019-05-15T08:42:56.063Z</time>
      </trkpt>
      <trkpt lat="48.45281" lon="7.14012">
        <ele>807</ele>
        <time>2019-05-15T08:42:57.063Z</time>
      </trkpt>
      <trkpt lat="48.45281" lon="7.14011">
        <ele>807</ele>
        <time>2019-05-15T08:42:58.063Z</time>
      </trkpt>
      <trkpt lat="48.45281" lon="7.14009">
        <ele>806</ele>
        <time>2019-05-15T08:42:59.063Z</time>
      </trkpt>
      <trkpt lat="48.45281" lon="7.14008">
        <ele>806</ele>
        <time>2019-05-15T08:43:00.063Z</time>
      </trkpt>
      <trkpt lat="48.45281" lon="7.14006">
        <ele>806</ele>
        <time>2019-05-15T08:43:01.063Z</time>
      </trkpt>
      <trkpt lat="48.4528" lon="7.14005">
        <ele>806</ele>
        <time>2019-05-15T08:43:02.063Z</time>
      </trkpt>
      <trkpt lat="48.4528" lon="7.14003">
        <ele>807</ele>
        <time>2019-05-15T08:43:03.063Z</time>
      </trkpt>
      <trkpt lat="48.4528" lon="7.14001">
        <ele>806</ele>
        <time>2019-05-15T08:43:04.063Z</time>
      </trkpt>
      <trkpt lat="48.4528" lon="7.14">
        <ele>806</ele>
        <time>2019-05-15T08:43:05.063Z</time>
      </trkpt>
      <trkpt lat="48.45281" lon="7.13998">
        <ele>806</ele>
        <time>2019-05-15T08:43:06.063Z</time>
      </trkpt>
      <trkpt lat="48.45281" lon="7.13997">
        <ele>806</ele>
        <time>2019-05-15T08:43:07.063Z</time>
      </trkpt>
      <trkpt lat="48.45281" lon="7.13995">
        <ele>805</ele>
        <time>2019-05-15T08:43:08.063Z</time>
      </trkpt>
      <trkpt lat="48.45282" lon="7.13994">
        <ele>805</ele>
        <time>2019-05-15T08:43:09.063Z</time>
      </trkpt>
      <trkpt lat="48.45282" lon="7.13993">
        <ele>805</ele>
        <time>2019-05-15T08:43:10.063Z</time>
      </trkpt>
      <trkpt lat="48.45282" lon="7.13992">
        <ele>805</ele>
        <time>2019-05-15T08:43:11.063Z</time>
      </trkpt>
      <trkpt lat="48.45283" lon="7.13991">
        <ele>805</ele>
        <time>2019-05-15T08:43:12.063Z</time>
      </trkpt>
      <trkpt lat="48.45283" lon="7.1399">
        <ele>805</ele>
        <time>2019-05-15T08:43:13.063Z</time>
      </trkpt>
      <trkpt lat="48.45283" lon="7.13988">
        <ele>804</ele>
        <time>2019-05-15T08:43:14.063Z</time>
      </trkpt>
      <trkpt lat="48.45284" lon="7.13987">
        <ele>805</ele>
        <time>2019-05-15T08:43:15.063Z</time>
      </trkpt>
      <trkpt lat="48.45284" lon="7.13986">
        <ele>805</ele>
        <time>2019-05-15T08:43:16.063Z</time>
      </trkpt>
      <trkpt lat="48.45284" lon="7.13984">
        <ele>805</ele>
        <time>2019-05-15T08:43:17.063Z</time>
      </trkpt>
      <trkpt lat="48.45284" lon="7.13983">
        <ele>805</ele>
        <time>2019-05-15T08:43:18.063Z</time>
      </trkpt>
      <trkpt lat="48.45285" lon="7.13982">
        <ele>805</ele>
        <time>2019-05-15T08:43:19.063Z</time>
      </trkpt>
      <trkpt lat="48.45285" lon="7.13981">
        <ele>805</ele>
        <time>2019-05-15T08:43:20.063Z</time>
      </trkpt>
      <trkpt lat="48.45285" lon="7.1398">
        <ele>805</ele>
        <time>2019-05-15T08:43:21.063Z</time>
      </trkpt>
      <trkpt lat="48.45285" lon="7.13979">
        <ele>805</ele>
        <time>2019-05-15T08:43:22.063Z</time>
      </trkpt>
      <trkpt lat="48.45285" lon="7.13978">
        <ele>805</ele>
        <time>2019-05-15T08:43:23.063Z</time>
      </trkpt>
      <trkpt lat="48.45285" lon="7.13977">
        <ele>805</ele>
        <time>2019-05-15T08:43:24.063Z</time>
      </trkpt>
      <trkpt lat="48.45285" lon="7.13976">
        <ele>804</ele>
        <time>2019-05-15T08:43:25.063Z</time>
      </trkpt>
      <trkpt lat="48.45286" lon="7.13975">
        <ele>804</ele>
        <time>2019-05-15T08:43:26.063Z</time>
      </trkpt>
      <trkpt lat="48.45286" lon="7.13974">
        <ele>804</ele>
        <time>2019-05-15T08:43:27.063Z</time>
      </trkpt>
      <trkpt lat="48.45286" lon="7.13973">
        <ele>805</ele>
        <time>2019-05-15T08:43:28.063Z</time>
      </trkpt>
      <trkpt lat="48.45286" lon="7.13972">
        <ele>805</ele>
        <time>2019-05-15T08:43:29.063Z</time>
      </trkpt>
      <trkpt lat="48.45287" lon="7.13971">
        <ele>805</ele>
        <time>2019-05-15T08:43:30.063Z</time>
      </trkpt>
      <trkpt lat="48.45287" lon="7.13971">
        <ele>805</ele>
        <time>2019-05-15T08:43:31.063Z</time>
      </trkpt>
      <trkpt lat="48.45288" lon="7.1397">
        <ele>805</ele>
        <time>2019-05-15T08:43:32.063Z</time>
      </trkpt>
      <trkpt lat="48.45288" lon="7.13969">
        <ele>805</ele>
        <time>2019-05-15T08:43:33.063Z</time>
      </trkpt>
      <trkpt lat="48.45288" lon="7.13969">
        <ele>804</ele>
        <time>2019-05-15T08:43:34.063Z</time>
      </trkpt>
      <trkpt lat="48.45288" lon="7.13968">
        <ele>804</ele>
        <time>2019-05-15T08:43:35.063Z</time>
      </trkpt>
      <trkpt lat="48.45288" lon="7.13968">
        <ele>804</ele>
        <time>2019-05-15T08:43:36.063Z</time>
      </trkpt>
      <trkpt lat="48.45288" lon="7.13967">
        <ele>804</ele>
        <time>2019-05-15T08:43:37.063Z</time>
      </trkpt>
      <trkpt lat="48.45289" lon="7.13967">
        <ele>805</ele>
        <time>2019-05-15T08:43:38.063Z</time>
      </trkpt>
      <trkpt lat="48.45289" lon="7.13967">
        <ele>805</ele>
        <time>2019-05-15T08:43:39.063Z</time>
      </trkpt>
      <trkpt lat="48.45289" lon="7.13967">
        <ele>805</ele>
        <time>2019-05-15T08:43:40.063Z</time>
      </trkpt>
      <trkpt lat="48.45289" lon="7.13967">
        <ele>805</ele>
        <time>2019-05-15T08:43:41.063Z</time>
      </trkpt>
      <trkpt lat="48.45289" lon="7.13967">
        <ele>805</ele>
        <time>2019-05-15T08:43:42.063Z</time>
      </trkpt>
      <trkpt lat="48.45289" lon="7.13967">
        <ele>804</ele>
        <time>2019-05-15T08:43:43.063Z</time>
      </trkpt>
      <trkpt lat="48.45289" lon="7.13967">
        <ele>804</ele>
        <time>2019-05-15T08:43:44.063Z</time>
      </trkpt>
      <trkpt lat="48.45289" lon="7.13967">
        <ele>804</ele>
        <time>2019-05-15T08:43:45.063Z</time>
      </trkpt>
      <trkpt lat="48.45289" lon="7.13967">
        <ele>804</ele>
        <time>2019-05-15T08:43:46.063Z</time>
      </trkpt>
      <trkpt lat="48.45289" lon="7.13967">
        <ele>804</ele>
        <time>2019-05-15T08:43:47.063Z</time>
      </trkpt>
      <trkpt lat="48.45289" lon="7.13968">
        <ele>804</ele>
        <time>2019-05-15T08:43:48.063Z</time>
      </trkpt>
      <trkpt lat="48.45289" lon="7.13968">
        <ele>803</ele>
        <time>2019-05-15T08:43:49.063Z</time>
      </trkpt>
      <trkpt lat="48.45289" lon="7.13968">
        <ele>803</ele>
        <time>2019-05-15T08:43:50.063Z</time>
      </trkpt>
      <trkpt lat="48.45289" lon="7.13968">
        <ele>803</ele>
        <time>2019-05-15T08:43:51.063Z</time>
      </trkpt>
      <trkpt lat="48.45289" lon="7.13968">
        <ele>803</ele>
        <time>2019-05-15T08:43:52.063Z</time>
      </trkpt>
      <trkpt lat="48.45289" lon="7.13968">
        <ele>803</ele>
        <time>2019-05-15T08:43:53.063Z</time>
      </trkpt>
      <trkpt lat="48.45289" lon="7.13968">
        <ele>803</ele>
        <time>2019-05-15T08:43:54.063Z</time>
      </trkpt>
      <trkpt lat="48.45289" lon="7.13968">
        <ele>803</ele>
        <time>2019-05-15T08:43:55.063Z</time>
      </trkpt>
      <trkpt lat="48.45289" lon="7.13968">
        <ele>802</ele>
        <time>2019-05-15T08:43:56.063Z</time>
      </trkpt>
      <trkpt lat="48.45289" lon="7.13968">
        <ele>802</ele>
        <time>2019-05-15T08:43:57.063Z</time>
      </trkpt>
      <trkpt lat="48.45289" lon="7.13968">
        <ele>802</ele>
        <time>2019-05-15T08:43:58.063Z</time>
      </trkpt>
      <trkpt lat="48.45289" lon="7.13968">
        <ele>802</ele>
        <time>2019-05-15T08:43:59.063Z</time>
      </trkpt>
      <trkpt lat="48.45289" lon="7.13968">
        <ele>802</ele>
        <time>2019-05-15T08:44:00.063Z</time>
      </trkpt>
      <trkpt lat="48.45289" lon="7.13968">
        <ele>802</ele>
        <time>2019-05-15T08:44:01.063Z</time>
      </trkpt>
      <trkpt lat="48.45289" lon="7.13968">
        <ele>802</ele>
        <time>2019-05-15T08:44:02.063Z</time>
      </trkpt>
      <trkpt lat="48.4529" lon="7.13968">
        <ele>802</ele>
        <time>2019-05-15T08:44:03.063Z</time>
      </trkpt>
      <trkpt lat="48.4529" lon="7.13969">
        <ele>802</ele>
        <time>2019-05-15T08:44:04.063Z</time>
      </trkpt>
      <trkpt lat="48.4529" lon="7.13969">
        <ele>802</ele>
        <time>2019-05-15T08:44:05.063Z</time>
      </trkpt>
      <trkpt lat="48.4529" lon="7.13969">
        <ele>802</ele>
        <time>2019-05-15T08:44:06.063Z</time>
      </trkpt>
      <trkpt lat="48.45289" lon="7.13969">
        <ele>803</ele>
        <time>2019-05-15T08:44:07.063Z</time>
      </trkpt>
      <trkpt lat="48.45289" lon="7.13969">
        <ele>803</ele>
        <time>2019-05-15T08:44:08.063Z</time>
      </trkpt>
      <trkpt lat="48.45289" lon="7.13969">
        <ele>803</ele>
        <time>2019-05-15T08:44:09.063Z</time>
      </trkpt>
      <trkpt lat="48.45289" lon="7.13969">
        <ele>803</ele>
        <time>2019-05-15T08:44:10.063Z</time>
      </trkpt>
      <trkpt lat="48.45289" lon="7.13969">
        <ele>803</ele>
        <time>2019-05-15T08:44:11.063Z</time>
      </trkpt>
      <trkpt lat="48.4529" lon="7.13968">
        <ele>803</ele>
        <time>2019-05-15T08:44:12.063Z</time>
      </trkpt>
      <trkpt lat="48.4529" lon="7.13968">
        <ele>803</ele>
        <time>2019-05-15T08:44:13.063Z</time>
      </trkpt>
      <trkpt lat="48.4529" lon="7.13968">
        <ele>803</ele>
        <time>2019-05-15T08:44:14.063Z</time>
      </trkpt>
      <trkpt lat="48.4529" lon="7.13968">
        <ele>804</ele>
        <time>2019-05-15T08:44:15.063Z</time>
      </trkpt>
      <trkpt lat="48.4529" lon="7.13967">
        <ele>804</ele>
        <time>2019-05-15T08:44:16.063Z</time>
      </trkpt>
      <trkpt lat="48.4529" lon="7.13967">
        <ele>804</ele>
        <time>2019-05-15T08:44:17.063Z</time>
      </trkpt>
      <trkpt lat="48.4529" lon="7.13967">
        <ele>805</ele>
        <time>2019-05-15T08:44:18.063Z</time>
      </trkpt>
      <trkpt lat="48.4529" lon="7.13967">
        <ele>805</ele>
        <time>2019-05-15T08:44:19.063Z</time>
      </trkpt>
      <trkpt lat="48.4529" lon="7.13967">
        <ele>805</ele>
        <time>2019-05-15T08:44:20.063Z</time>
      </trkpt>
      <trkpt lat="48.4529" lon="7.13967">
        <ele>805</ele>
        <time>2019-05-15T08:44:21.063Z</time>
      </trkpt>
      <trkpt lat="48.4529" lon="7.13966">
        <ele>805</ele>
        <time>2019-05-15T08:44:22.063Z</time>
      </trkpt>
      <trkpt lat="48.4529" lon="7.13966">
        <ele>805</ele>
        <time>2019-05-15T08:44:23.063Z</time>
      </trkpt>
      <trkpt lat="48.4529" lon="7.13966">
        <ele>805</ele>
        <time>2019-05-15T08:44:24.063Z</time>
      </trkpt>
      <trkpt lat="48.4529" lon="7.13965">
        <ele>805</ele>
        <time>2019-05-15T08:44:25.063Z</time>
      </trkpt>
      <trkpt lat="48.4529" lon="7.13964">
        <ele>805</ele>
        <time>2019-05-15T08:44:26.063Z</time>
      </trkpt>
      <trkpt lat="48.4529" lon="7.13963">
        <ele>806</ele>
        <time>2019-05-15T08:44:27.063Z</time>
      </trkpt>
      <trkpt lat="48.4529" lon="7.13962">
        <ele>806</ele>
        <time>2019-05-15T08:44:28.063Z</time>
      </trkpt>
      <trkpt lat="48.4529" lon="7.13962">
        <ele>805</ele>
        <time>2019-05-15T08:44:29.063Z</time>
      </trkpt>
      <trkpt lat="48.4529" lon="7.13961">
        <ele>805</ele>
        <time>2019-05-15T08:44:30.063Z</time>
      </trkpt>
      <trkpt lat="48.4529" lon="7.13961">
        <ele>806</ele>
        <time>2019-05-15T08:44:31.063Z</time>
      </trkpt>
      <trkpt lat="48.4529" lon="7.13961">
        <ele>806</ele>
        <time>2019-05-15T08:44:32.063Z</time>
      </trkpt>
      <trkpt lat="48.4529" lon="7.1396">
        <ele>806</ele>
        <time>2019-05-15T08:44:33.063Z</time>
      </trkpt>
      <trkpt lat="48.4529" lon="7.1396">
        <ele>806</ele>
        <time>2019-05-15T08:44:34.063Z</time>
      </trkpt>
      <trkpt lat="48.4529" lon="7.1396">
        <ele>806</ele>
        <time>2019-05-15T08:44:35.063Z</time>
      </trkpt>
      <trkpt lat="48.4529" lon="7.1396">
        <ele>806</ele>
        <time>2019-05-15T08:44:36.063Z</time>
      </trkpt>
      <trkpt lat="48.4529" lon="7.13961">
        <ele>806</ele>
        <time>2019-05-15T08:44:37.063Z</time>
      </trkpt>
      <trkpt lat="48.4529" lon="7.13961">
        <ele>806</ele>
        <time>2019-05-15T08:44:38.063Z</time>
      </trkpt>
      <trkpt lat="48.45291" lon="7.13961">
        <ele>806</ele>
        <time>2019-05-15T08:44:39.063Z</time>
      </trkpt>
      <trkpt lat="48.45291" lon="7.13961">
        <ele>805</ele>
        <time>2019-05-15T08:44:40.063Z</time>
      </trkpt>
      <trkpt lat="48.45291" lon="7.13961">
        <ele>805</ele>
        <time>2019-05-15T08:44:41.063Z</time>
      </trkpt>
      <trkpt lat="48.45291" lon="7.13961">
        <ele>805</ele>
        <time>2019-05-15T08:44:42.063Z</time>
      </trkpt>
      <trkpt lat="48.45291" lon="7.13961">
        <ele>805</ele>
        <time>2019-05-15T08:44:43.063Z</time>
      </trkpt>
      <trkpt lat="48.45291" lon="7.13961">
        <ele>805</ele>
        <time>2019-05-15T08:44:44.063Z</time>
      </trkpt>
      <trkpt lat="48.45291" lon="7.13961">
        <ele>806</ele>
        <time>2019-05-15T08:44:45.063Z</time>
      </trkpt>
      <trkpt lat="48.45291" lon="7.1396">
        <ele>806</ele>
        <time>2019-05-15T08:44:46.063Z</time>
      </trkpt>
      <trkpt lat="48.45291" lon="7.1396">
        <ele>806</ele>
        <time>2019-05-15T08:44:47.063Z</time>
      </trkpt>
      <trkpt lat="48.45291" lon="7.13959">
        <ele>806</ele>
        <time>2019-05-15T08:44:48.063Z</time>
      </trkpt>
      <trkpt lat="48.45291" lon="7.13959">
        <ele>806</ele>
        <time>2019-05-15T08:44:49.063Z</time>
      </trkpt>
      <trkpt lat="48.4529" lon="7.13958">
        <ele>806</ele>
        <time>2019-05-15T08:44:50.063Z</time>
      </trkpt>
      <trkpt lat="48.45289" lon="7.13957">
        <ele>807</ele>
        <time>2019-05-15T08:44:51.063Z</time>
      </trkpt>
      <trkpt lat="48.45289" lon="7.13957">
        <ele>807</ele>
        <time>2019-05-15T08:44:52.063Z</time>
      </trkpt>
      <trkpt lat="48.45289" lon="7.13956">
        <ele>807</ele>
        <time>2019-05-15T08:44:53.063Z</time>
      </trkpt>
      <trkpt lat="48.45288" lon="7.13955">
        <ele>808</ele>
        <time>2019-05-15T08:44:54.063Z</time>
      </trkpt>
      <trkpt lat="48.45288" lon="7.13955">
        <ele>808</ele>
        <time>2019-05-15T08:44:55.063Z</time>
      </trkpt>
      <trkpt lat="48.45287" lon="7.13954">
        <ele>809</ele>
        <time>2019-05-15T08:44:56.063Z</time>
      </trkpt>
      <trkpt lat="48.45287" lon="7.13954">
        <ele>809</ele>
        <time>2019-05-15T08:44:57.063Z</time>
      </trkpt>
      <trkpt lat="48.45286" lon="7.13954">
        <ele>809</ele>
        <time>2019-05-15T08:44:58.063Z</time>
      </trkpt>
      <trkpt lat="48.45286" lon="7.13954">
        <ele>809</ele>
        <time>2019-05-15T08:44:59.063Z</time>
      </trkpt>
      <trkpt lat="48.45285" lon="7.13954">
        <ele>809</ele>
        <time>2019-05-15T08:45:00.063Z</time>
      </trkpt>
      <trkpt lat="48.45285" lon="7.13954">
        <ele>809</ele>
        <time>2019-05-15T08:45:01.063Z</time>
      </trkpt>
      <trkpt lat="48.45284" lon="7.13953">
        <ele>809</ele>
        <time>2019-05-15T08:45:02.063Z</time>
      </trkpt>
      <trkpt lat="48.45284" lon="7.13953">
        <ele>810</ele>
        <time>2019-05-15T08:45:03.063Z</time>
      </trkpt>
      <trkpt lat="48.45283" lon="7.13953">
        <ele>810</ele>
        <time>2019-05-15T08:45:04.063Z</time>
      </trkpt>
      <trkpt lat="48.45283" lon="7.13953">
        <ele>810</ele>
        <time>2019-05-15T08:45:05.063Z</time>
      </trkpt>
      <trkpt lat="48.45283" lon="7.13953">
        <ele>810</ele>
        <time>2019-05-15T08:45:06.063Z</time>
      </trkpt>
      <trkpt lat="48.45282" lon="7.13952">
        <ele>810</ele>
        <time>2019-05-15T08:45:07.063Z</time>
      </trkpt>
      <trkpt lat="48.45281" lon="7.13952">
        <ele>811</ele>
        <time>2019-05-15T08:45:08.063Z</time>
      </trkpt>
      <trkpt lat="48.45281" lon="7.13952">
        <ele>811</ele>
        <time>2019-05-15T08:45:09.063Z</time>
      </trkpt>
      <trkpt lat="48.45281" lon="7.13952">
        <ele>811</ele>
        <time>2019-05-15T08:45:10.063Z</time>
      </trkpt>
      <trkpt lat="48.4528" lon="7.13952">
        <ele>811</ele>
        <time>2019-05-15T08:45:11.063Z</time>
      </trkpt>
      <trkpt lat="48.4528" lon="7.13953">
        <ele>812</ele>
        <time>2019-05-15T08:45:12.063Z</time>
      </trkpt>
      <trkpt lat="48.45279" lon="7.13953">
        <ele>812</ele>
        <time>2019-05-15T08:45:13.063Z</time>
      </trkpt>
      <trkpt lat="48.45279" lon="7.13954">
        <ele>811</ele>
        <time>2019-05-15T08:45:14.063Z</time>
      </trkpt>
      <trkpt lat="48.45278" lon="7.13955">
        <ele>811</ele>
        <time>2019-05-15T08:45:15.063Z</time>
      </trkpt>
      <trkpt lat="48.45278" lon="7.13956">
        <ele>812</ele>
        <time>2019-05-15T08:45:16.063Z</time>
      </trkpt>
      <trkpt lat="48.45277" lon="7.13956">
        <ele>812</ele>
        <time>2019-05-15T08:45:17.063Z</time>
      </trkpt>
      <trkpt lat="48.45276" lon="7.13957">
        <ele>812</ele>
        <time>2019-05-15T08:45:18.063Z</time>
      </trkpt>
      <trkpt lat="48.45275" lon="7.13957">
        <ele>812</ele>
        <time>2019-05-15T08:45:19.063Z</time>
      </trkpt>
      <trkpt lat="48.45274" lon="7.13957">
        <ele>812</ele>
        <time>2019-05-15T08:45:20.063Z</time>
      </trkpt>
      <trkpt lat="48.45274" lon="7.13957">
        <ele>813</ele>
        <time>2019-05-15T08:45:21.063Z</time>
      </trkpt>
      <trkpt lat="48.45274" lon="7.13958">
        <ele>813</ele>
        <time>2019-05-15T08:45:22.063Z</time>
      </trkpt>
      <trkpt lat="48.45273" lon="7.13958">
        <ele>813</ele>
        <time>2019-05-15T08:45:23.063Z</time>
      </trkpt>
      <trkpt lat="48.45272" lon="7.13958">
        <ele>814</ele>
        <time>2019-05-15T08:45:24.063Z</time>
      </trkpt>
      <trkpt lat="48.45272" lon="7.13957">
        <ele>814</ele>
        <time>2019-05-15T08:45:25.063Z</time>
      </trkpt>
      <trkpt lat="48.45272" lon="7.13957">
        <ele>814</ele>
        <time>2019-05-15T08:45:26.063Z</time>
      </trkpt>
      <trkpt lat="48.45271" lon="7.13957">
        <ele>814</ele>
        <time>2019-05-15T08:45:27.063Z</time>
      </trkpt>
      <trkpt lat="48.45271" lon="7.13957">
        <ele>814</ele>
        <time>2019-05-15T08:45:28.063Z</time>
      </trkpt>
      <trkpt lat="48.4527" lon="7.13956">
        <ele>814</ele>
        <time>2019-05-15T08:45:29.063Z</time>
      </trkpt>
      <trkpt lat="48.4527" lon="7.13955">
        <ele>814</ele>
        <time>2019-05-15T08:45:30.063Z</time>
      </trkpt>
      <trkpt lat="48.45269" lon="7.13955">
        <ele>814</ele>
        <time>2019-05-15T08:45:31.063Z</time>
      </trkpt>
      <trkpt lat="48.45269" lon="7.13955">
        <ele>814</ele>
        <time>2019-05-15T08:45:32.063Z</time>
      </trkpt>
      <trkpt lat="48.45268" lon="7.13955">
        <ele>815</ele>
        <time>2019-05-15T08:45:33.063Z</time>
      </trkpt>
      <trkpt lat="48.45268" lon="7.13955">
        <ele>815</ele>
        <time>2019-05-15T08:45:34.063Z</time>
      </trkpt>
      <trkpt lat="48.45267" lon="7.13955">
        <ele>815</ele>
        <time>2019-05-15T08:45:35.063Z</time>
      </trkpt>
      <trkpt lat="48.45267" lon="7.13954">
        <ele>815</ele>
        <time>2019-05-15T08:45:36.063Z</time>
      </trkpt>
      <trkpt lat="48.45266" lon="7.13954">
        <ele>815</ele>
        <time>2019-05-15T08:45:37.063Z</time>
      </trkpt>
      <trkpt lat="48.45266" lon="7.13953">
        <ele>815</ele>
        <time>2019-05-15T08:45:38.063Z</time>
      </trkpt>
      <trkpt lat="48.45265" lon="7.13952">
        <ele>815</ele>
        <time>2019-05-15T08:45:39.063Z</time>
      </trkpt>
      <trkpt lat="48.45264" lon="7.13952">
        <ele>814</ele>
        <time>2019-05-15T08:45:40.063Z</time>
      </trkpt>
      <trkpt lat="48.45263" lon="7.13951">
        <ele>814</ele>
        <time>2019-05-15T08:45:41.063Z</time>
      </trkpt>
      <trkpt lat="48.45262" lon="7.13951">
        <ele>814</ele>
        <time>2019-05-15T08:45:42.063Z</time>
      </trkpt>
      <trkpt lat="48.45261" lon="7.13951">
        <ele>813</ele>
        <time>2019-05-15T08:45:43.063Z</time>
      </trkpt>
      <trkpt lat="48.4526" lon="7.13951">
        <ele>812</ele>
        <time>2019-05-15T08:45:44.063Z</time>
      </trkpt>
      <trkpt lat="48.4526" lon="7.1395">
        <ele>813</ele>
        <time>2019-05-15T08:45:45.063Z</time>
      </trkpt>
      <trkpt lat="48.45259" lon="7.1395">
        <ele>814</ele>
        <time>2019-05-15T08:45:46.063Z</time>
      </trkpt>
      <trkpt lat="48.45258" lon="7.13949">
        <ele>814</ele>
        <time>2019-05-15T08:45:47.063Z</time>
      </trkpt>
      <trkpt lat="48.45258" lon="7.13948">
        <ele>814</ele>
        <time>2019-05-15T08:45:48.063Z</time>
      </trkpt>
      <trkpt lat="48.45258" lon="7.13947">
        <ele>815</ele>
        <time>2019-05-15T08:45:49.063Z</time>
      </trkpt>
      <trkpt lat="48.45257" lon="7.13947">
        <ele>815</ele>
        <time>2019-05-15T08:45:50.063Z</time>
      </trkpt>
      <trkpt lat="48.45257" lon="7.13946">
        <ele>815</ele>
        <time>2019-05-15T08:45:51.063Z</time>
      </trkpt>
      <trkpt lat="48.45256" lon="7.13945">
        <ele>815</ele>
        <time>2019-05-15T08:45:52.063Z</time>
      </trkpt>
      <trkpt lat="48.45256" lon="7.13944">
        <ele>815</ele>
        <time>2019-05-15T08:45:53.063Z</time>
      </trkpt>
      <trkpt lat="48.45256" lon="7.13942">
        <ele>815</ele>
        <time>2019-05-15T08:45:54.063Z</time>
      </trkpt>
      <trkpt lat="48.45255" lon="7.13941">
        <ele>816</ele>
        <time>2019-05-15T08:45:55.063Z</time>
      </trkpt>
      <trkpt lat="48.45254" lon="7.1394">
        <ele>816</ele>
        <time>2019-05-15T08:45:56.063Z</time>
      </trkpt>
      <trkpt lat="48.45254" lon="7.13939">
        <ele>816</ele>
        <time>2019-05-15T08:45:57.063Z</time>
      </trkpt>
      <trkpt lat="48.45253" lon="7.13938">
        <ele>816</ele>
        <time>2019-05-15T08:45:58.063Z</time>
      </trkpt>
      <trkpt lat="48.45253" lon="7.13937">
        <ele>816</ele>
        <time>2019-05-15T08:45:59.063Z</time>
      </trkpt>
      <trkpt lat="48.45252" lon="7.13937">
        <ele>816</ele>
        <time>2019-05-15T08:46:00.063Z</time>
      </trkpt>
      <trkpt lat="48.45251" lon="7.13936">
        <ele>816</ele>
        <time>2019-05-15T08:46:01.063Z</time>
      </trkpt>
      <trkpt lat="48.45251" lon="7.13936">
        <ele>817</ele>
        <time>2019-05-15T08:46:02.063Z</time>
      </trkpt>
      <trkpt lat="48.4525" lon="7.13935">
        <ele>817</ele>
        <time>2019-05-15T08:46:03.063Z</time>
      </trkpt>
      <trkpt lat="48.45249" lon="7.13934">
        <ele>816</ele>
        <time>2019-05-15T08:46:04.063Z</time>
      </trkpt>
      <trkpt lat="48.45249" lon="7.13933">
        <ele>817</ele>
        <time>2019-05-15T08:46:05.063Z</time>
      </trkpt>
      <trkpt lat="48.45248" lon="7.13932">
        <ele>816</ele>
        <time>2019-05-15T08:46:06.063Z</time>
      </trkpt>
      <trkpt lat="48.45248" lon="7.13931">
        <ele>816</ele>
        <time>2019-05-15T08:46:07.063Z</time>
      </trkpt>
      <trkpt lat="48.45247" lon="7.1393">
        <ele>816</ele>
        <time>2019-05-15T08:46:08.063Z</time>
      </trkpt>
      <trkpt lat="48.45247" lon="7.1393">
        <ele>815</ele>
        <time>2019-05-15T08:46:09.063Z</time>
      </trkpt>
      <trkpt lat="48.45246" lon="7.1393">
        <ele>814</ele>
        <time>2019-05-15T08:46:10.063Z</time>
      </trkpt>
      <trkpt lat="48.45245" lon="7.13929">
        <ele>815</ele>
        <time>2019-05-15T08:46:11.063Z</time>
      </trkpt>
      <trkpt lat="48.45243" lon="7.13929">
        <ele>814</ele>
        <time>2019-05-15T08:46:12.063Z</time>
      </trkpt>
      <trkpt lat="48.45242" lon="7.13929">
        <ele>814</ele>
        <time>2019-05-15T08:46:13.063Z</time>
      </trkpt>
      <trkpt lat="48.45241" lon="7.13929">
        <ele>814</ele>
        <time>2019-05-15T08:46:14.063Z</time>
      </trkpt>
      <trkpt lat="48.4524" lon="7.13928">
        <ele>813</ele>
        <time>2019-05-15T08:46:15.063Z</time>
      </trkpt>
      <trkpt lat="48.4524" lon="7.13928">
        <ele>813</ele>
        <time>2019-05-15T08:46:16.063Z</time>
      </trkpt>
      <trkpt lat="48.45239" lon="7.13927">
        <ele>813</ele>
        <time>2019-05-15T08:46:17.063Z</time>
      </trkpt>
      <trkpt lat="48.45238" lon="7.13926">
        <ele>813</ele>
        <time>2019-05-15T08:46:18.063Z</time>
      </trkpt>
      <trkpt lat="48.45237" lon="7.13925">
        <ele>814</ele>
        <time>2019-05-15T08:46:19.063Z</time>
      </trkpt>
      <trkpt lat="48.45236" lon="7.13924">
        <ele>813</ele>
        <time>2019-05-15T08:46:20.063Z</time>
      </trkpt>
      <trkpt lat="48.45235" lon="7.13923">
        <ele>813</ele>
        <time>2019-05-15T08:46:21.063Z</time>
      </trkpt>
      <trkpt lat="48.45234" lon="7.13923">
        <ele>812</ele>
        <time>2019-05-15T08:46:22.063Z</time>
      </trkpt>
      <trkpt lat="48.45234" lon="7.13922">
        <ele>812</ele>
        <time>2019-05-15T08:46:23.063Z</time>
      </trkpt>
      <trkpt lat="48.45233" lon="7.13921">
        <ele>812</ele>
        <time>2019-05-15T08:46:24.063Z</time>
      </trkpt>
      <trkpt lat="48.45232" lon="7.1392">
        <ele>812</ele>
        <time>2019-05-15T08:46:25.063Z</time>
      </trkpt>
      <trkpt lat="48.45232" lon="7.13919">
        <ele>812</ele>
        <time>2019-05-15T08:46:26.063Z</time>
      </trkpt>
      <trkpt lat="48.45231" lon="7.13918">
        <ele>812</ele>
        <time>2019-05-15T08:46:27.063Z</time>
      </trkpt>
      <trkpt lat="48.4523" lon="7.13917">
        <ele>813</ele>
        <time>2019-05-15T08:46:28.063Z</time>
      </trkpt>
      <trkpt lat="48.45229" lon="7.13916">
        <ele>813</ele>
        <time>2019-05-15T08:46:29.063Z</time>
      </trkpt>
      <trkpt lat="48.45228" lon="7.13915">
        <ele>812</ele>
        <time>2019-05-15T08:46:30.063Z</time>
      </trkpt>
      <trkpt lat="48.45228" lon="7.13914">
        <ele>813</ele>
        <time>2019-05-15T08:46:31.063Z</time>
      </trkpt>
      <trkpt lat="48.45227" lon="7.13913">
        <ele>813</ele>
        <time>2019-05-15T08:46:32.063Z</time>
      </trkpt>
      <trkpt lat="48.45226" lon="7.13911">
        <ele>814</ele>
        <time>2019-05-15T08:46:33.063Z</time>
      </trkpt>
      <trkpt lat="48.45225" lon="7.1391">
        <ele>814</ele>
        <time>2019-05-15T08:46:34.063Z</time>
      </trkpt>
      <trkpt lat="48.45225" lon="7.13909">
        <ele>813</ele>
        <time>2019-05-15T08:46:35.063Z</time>
      </trkpt>
      <trkpt lat="48.45225" lon="7.13907">
        <ele>813</ele>
        <time>2019-05-15T08:46:36.063Z</time>
      </trkpt>
      <trkpt lat="48.45224" lon="7.13906">
        <ele>813</ele>
        <time>2019-05-15T08:46:37.063Z</time>
      </trkpt>
      <trkpt lat="48.45224" lon="7.13905">
        <ele>814</ele>
        <time>2019-05-15T08:46:38.063Z</time>
      </trkpt>
      <trkpt lat="48.45224" lon="7.13904">
        <ele>814</ele>
        <time>2019-05-15T08:46:39.063Z</time>
      </trkpt>
      <trkpt lat="48.45223" lon="7.13903">
        <ele>815</ele>
        <time>2019-05-15T08:46:40.063Z</time>
      </trkpt>
      <trkpt lat="48.45223" lon="7.13903">
        <ele>815</ele>
        <time>2019-05-15T08:46:41.063Z</time>
      </trkpt>
      <trkpt lat="48.45222" lon="7.13902">
        <ele>815</ele>
        <time>2019-05-15T08:46:42.063Z</time>
      </trkpt>
      <trkpt lat="48.45221" lon="7.13901">
        <ele>816</ele>
        <time>2019-05-15T08:46:43.063Z</time>
      </trkpt>
      <trkpt lat="48.45221" lon="7.139">
        <ele>816</ele>
        <time>2019-05-15T08:46:44.063Z</time>
      </trkpt>
      <trkpt lat="48.4522" lon="7.13899">
        <ele>816</ele>
        <time>2019-05-15T08:46:45.063Z</time>
      </trkpt>
      <trkpt lat="48.4522" lon="7.13897">
        <ele>816</ele>
        <time>2019-05-15T08:46:46.063Z</time>
      </trkpt>
      <trkpt lat="48.4522" lon="7.13896">
        <ele>816</ele>
        <time>2019-05-15T08:46:47.063Z</time>
      </trkpt>
      <trkpt lat="48.45219" lon="7.13895">
        <ele>816</ele>
        <time>2019-05-15T08:46:48.063Z</time>
      </trkpt>
      <trkpt lat="48.45219" lon="7.13894">
        <ele>815</ele>
        <time>2019-05-15T08:46:49.063Z</time>
      </trkpt>
      <trkpt lat="48.45218" lon="7.13893">
        <ele>815</ele>
        <time>2019-05-15T08:46:50.063Z</time>
      </trkpt>
      <trkpt lat="48.45218" lon="7.13892">
        <ele>816</ele>
        <time>2019-05-15T08:46:51.063Z</time>
      </trkpt>
      <trkpt lat="48.45217" lon="7.13892">
        <ele>815</ele>
        <time>2019-05-15T08:46:52.063Z</time>
      </trkpt>
      <trkpt lat="48.45216" lon="7.13891">
        <ele>815</ele>
        <time>2019-05-15T08:46:53.063Z</time>
      </trkpt>
      <trkpt lat="48.45216" lon="7.1389">
        <ele>815</ele>
        <time>2019-05-15T08:46:54.063Z</time>
      </trkpt>
      <trkpt lat="48.45215" lon="7.1389">
        <ele>815</ele>
        <time>2019-05-15T08:46:55.063Z</time>
      </trkpt>
      <trkpt lat="48.45214" lon="7.13889">
        <ele>815</ele>
        <time>2019-05-15T08:46:56.063Z</time>
      </trkpt>
      <trkpt lat="48.45214" lon="7.13888">
        <ele>816</ele>
        <time>2019-05-15T08:46:57.063Z</time>
      </trkpt>
      <trkpt lat="48.45213" lon="7.13887">
        <ele>816</ele>
        <time>2019-05-15T08:46:58.063Z</time>
      </trkpt>
      <trkpt lat="48.45212" lon="7.13887">
        <ele>816</ele>
        <time>2019-05-15T08:46:59.063Z</time>
      </trkpt>
      <trkpt lat="48.45212" lon="7.13886">
        <ele>816</ele>
        <time>2019-05-15T08:47:00.063Z</time>
      </trkpt>
      <trkpt lat="48.45211" lon="7.13885">
        <ele>815</ele>
        <time>2019-05-15T08:47:01.063Z</time>
      </trkpt>
      <trkpt lat="48.4521" lon="7.13884">
        <ele>815</ele>
        <time>2019-05-15T08:47:02.063Z</time>
      </trkpt>
      <trkpt lat="48.45209" lon="7.13884">
        <ele>815</ele>
        <time>2019-05-15T08:47:03.063Z</time>
      </trkpt>
      <trkpt lat="48.45209" lon="7.13883">
        <ele>815</ele>
        <time>2019-05-15T08:47:04.063Z</time>
      </trkpt>
      <trkpt lat="48.45208" lon="7.13882">
        <ele>816</ele>
        <time>2019-05-15T08:47:05.063Z</time>
      </trkpt>
      <trkpt lat="48.45207" lon="7.13882">
        <ele>816</ele>
        <time>2019-05-15T08:47:06.063Z</time>
      </trkpt>
      <trkpt lat="48.45207" lon="7.13881">
        <ele>816</ele>
        <time>2019-05-15T08:47:07.063Z</time>
      </trkpt>
      <trkpt lat="48.45206" lon="7.1388">
        <ele>816</ele>
        <time>2019-05-15T08:47:08.063Z</time>
      </trkpt>
      <trkpt lat="48.45205" lon="7.1388">
        <ele>816</ele>
        <time>2019-05-15T08:47:09.063Z</time>
      </trkpt>
      <trkpt lat="48.45205" lon="7.13879">
        <ele>816</ele>
        <time>2019-05-15T08:47:10.063Z</time>
      </trkpt>
      <trkpt lat="48.45204" lon="7.13878">
        <ele>816</ele>
        <time>2019-05-15T08:47:11.063Z</time>
      </trkpt>
      <trkpt lat="48.45204" lon="7.13878">
        <ele>816</ele>
        <time>2019-05-15T08:47:12.063Z</time>
      </trkpt>
      <trkpt lat="48.45203" lon="7.13877">
        <ele>816</ele>
        <time>2019-05-15T08:47:13.063Z</time>
      </trkpt>
      <trkpt lat="48.45202" lon="7.13877">
        <ele>817</ele>
        <time>2019-05-15T08:47:14.063Z</time>
      </trkpt>
      <trkpt lat="48.45202" lon="7.13876">
        <ele>817</ele>
        <time>2019-05-15T08:47:15.063Z</time>
      </trkpt>
      <trkpt lat="48.45201" lon="7.13876">
        <ele>817</ele>
        <time>2019-05-15T08:47:16.063Z</time>
      </trkpt>
      <trkpt lat="48.45201" lon="7.13876">
        <ele>817</ele>
        <time>2019-05-15T08:47:17.063Z</time>
      </trkpt>
      <trkpt lat="48.452" lon="7.13875">
        <ele>817</ele>
        <time>2019-05-15T08:47:18.063Z</time>
      </trkpt>
      <trkpt lat="48.452" lon="7.13874">
        <ele>817</ele>
        <time>2019-05-15T08:47:19.063Z</time>
      </trkpt>
      <trkpt lat="48.45199" lon="7.13874">
        <ele>817</ele>
        <time>2019-05-15T08:47:20.063Z</time>
      </trkpt>
      <trkpt lat="48.45199" lon="7.13873">
        <ele>817</ele>
        <time>2019-05-15T08:47:21.063Z</time>
      </trkpt>
      <trkpt lat="48.45198" lon="7.13873">
        <ele>817</ele>
        <time>2019-05-15T08:47:22.063Z</time>
      </trkpt>
      <trkpt lat="48.45198" lon="7.13873">
        <ele>816</ele>
        <time>2019-05-15T08:47:23.063Z</time>
      </trkpt>
      <trkpt lat="48.45198" lon="7.13872">
        <ele>816</ele>
        <time>2019-05-15T08:47:24.063Z</time>
      </trkpt>
      <trkpt lat="48.45197" lon="7.13872">
        <ele>816</ele>
        <time>2019-05-15T08:47:25.063Z</time>
      </trkpt>
      <trkpt lat="48.45197" lon="7.13871">
        <ele>816</ele>
        <time>2019-05-15T08:47:26.063Z</time>
      </trkpt>
      <trkpt lat="48.45196" lon="7.1387">
        <ele>816</ele>
        <time>2019-05-15T08:47:27.063Z</time>
      </trkpt>
      <trkpt lat="48.45195" lon="7.1387">
        <ele>815</ele>
        <time>2019-05-15T08:47:28.063Z</time>
      </trkpt>
      <trkpt lat="48.45195" lon="7.1387">
        <ele>815</ele>
        <time>2019-05-15T08:47:29.063Z</time>
      </trkpt>
      <trkpt lat="48.45194" lon="7.13869">
        <ele>815</ele>
        <time>2019-05-15T08:47:30.063Z</time>
      </trkpt>
      <trkpt lat="48.45193" lon="7.13868">
        <ele>815</ele>
        <time>2019-05-15T08:47:31.063Z</time>
      </trkpt>
      <trkpt lat="48.45192" lon="7.13868">
        <ele>815</ele>
        <time>2019-05-15T08:47:32.063Z</time>
      </trkpt>
      <trkpt lat="48.45192" lon="7.13868">
        <ele>816</ele>
        <time>2019-05-15T08:47:33.063Z</time>
      </trkpt>
      <trkpt lat="48.45191" lon="7.13868">
        <ele>816</ele>
        <time>2019-05-15T08:47:34.063Z</time>
      </trkpt>
      <trkpt lat="48.45191" lon="7.13868">
        <ele>816</ele>
        <time>2019-05-15T08:47:35.063Z</time>
      </trkpt>
      <trkpt lat="48.4519" lon="7.13867">
        <ele>816</ele>
        <time>2019-05-15T08:47:36.063Z</time>
      </trkpt>
      <trkpt lat="48.45189" lon="7.13867">
        <ele>816</ele>
        <time>2019-05-15T08:47:37.063Z</time>
      </trkpt>
      <trkpt lat="48.45188" lon="7.13867">
        <ele>816</ele>
        <time>2019-05-15T08:47:38.063Z</time>
      </trkpt>
      <trkpt lat="48.45188" lon="7.13867">
        <ele>815</ele>
        <time>2019-05-15T08:47:39.063Z</time>
      </trkpt>
      <trkpt lat="48.45187" lon="7.13867">
        <ele>815</ele>
        <time>2019-05-15T08:47:40.063Z</time>
      </trkpt>
      <trkpt lat="48.45186" lon="7.13866">
        <ele>815</ele>
        <time>2019-05-15T08:47:41.063Z</time>
      </trkpt>
      <trkpt lat="48.45186" lon="7.13865">
        <ele>815</ele>
        <time>2019-05-15T08:47:42.063Z</time>
      </trkpt>
      <trkpt lat="48.45185" lon="7.13864">
        <ele>815</ele>
        <time>2019-05-15T08:47:43.063Z</time>
      </trkpt>
      <trkpt lat="48.45185" lon="7.13863">
        <ele>815</ele>
        <time>2019-05-15T08:47:44.063Z</time>
      </trkpt>
      <trkpt lat="48.45184" lon="7.13863">
        <ele>815</ele>
        <time>2019-05-15T08:47:45.063Z</time>
      </trkpt>
      <trkpt lat="48.45183" lon="7.13862">
        <ele>815</ele>
        <time>2019-05-15T08:47:46.063Z</time>
      </trkpt>
      <trkpt lat="48.45183" lon="7.13861">
        <ele>815</ele>
        <time>2019-05-15T08:47:47.063Z</time>
      </trkpt>
      <trkpt lat="48.45182" lon="7.1386">
        <ele>815</ele>
        <time>2019-05-15T08:47:48.063Z</time>
      </trkpt>
      <trkpt lat="48.45181" lon="7.13859">
        <ele>815</ele>
        <time>2019-05-15T08:47:49.063Z</time>
      </trkpt>
      <trkpt lat="48.4518" lon="7.13858">
        <ele>816</ele>
        <time>2019-05-15T08:47:50.063Z</time>
      </trkpt>
      <trkpt lat="48.4518" lon="7.13858">
        <ele>816</ele>
        <time>2019-05-15T08:47:51.063Z</time>
      </trkpt>
      <trkpt lat="48.45179" lon="7.13857">
        <ele>815</ele>
        <time>2019-05-15T08:47:52.063Z</time>
      </trkpt>
      <trkpt lat="48.45179" lon="7.13856">
        <ele>815</ele>
        <time>2019-05-15T08:47:53.063Z</time>
      </trkpt>
      <trkpt lat="48.45178" lon="7.13856">
        <ele>815</ele>
        <time>2019-05-15T08:47:54.063Z</time>
      </trkpt>
      <trkpt lat="48.45178" lon="7.13855">
        <ele>816</ele>
        <time>2019-05-15T08:47:55.063Z</time>
      </trkpt>
      <trkpt lat="48.45177" lon="7.13855">
        <ele>815</ele>
        <time>2019-05-15T08:47:56.063Z</time>
      </trkpt>
      <trkpt lat="48.45177" lon="7.13855">
        <ele>816</ele>
        <time>2019-05-15T08:47:57.063Z</time>
      </trkpt>
      <trkpt lat="48.45176" lon="7.13855">
        <ele>815</ele>
        <time>2019-05-15T08:47:58.063Z</time>
      </trkpt>
      <trkpt lat="48.45175" lon="7.13854">
        <ele>815</ele>
        <time>2019-05-15T08:47:59.063Z</time>
      </trkpt>
      <trkpt lat="48.45174" lon="7.13854">
        <ele>815</ele>
        <time>2019-05-15T08:48:00.063Z</time>
      </trkpt>
      <trkpt lat="48.45173" lon="7.13853">
        <ele>814</ele>
        <time>2019-05-15T08:48:01.063Z</time>
      </trkpt>
      <trkpt lat="48.45172" lon="7.13853">
        <ele>814</ele>
        <time>2019-05-15T08:48:02.063Z</time>
      </trkpt>
      <trkpt lat="48.45171" lon="7.13853">
        <ele>814</ele>
        <time>2019-05-15T08:48:03.063Z</time>
      </trkpt>
      <trkpt lat="48.45169" lon="7.13853">
        <ele>813</ele>
        <time>2019-05-15T08:48:04.063Z</time>
      </trkpt>
      <trkpt lat="48.45168" lon="7.13852">
        <ele>813</ele>
        <time>2019-05-15T08:48:05.063Z</time>
      </trkpt>
      <trkpt lat="48.45167" lon="7.13851">
        <ele>813</ele>
        <time>2019-05-15T08:48:06.063Z</time>
      </trkpt>
      <trkpt lat="48.45167" lon="7.1385">
        <ele>812</ele>
        <time>2019-05-15T08:48:07.063Z</time>
      </trkpt>
      <trkpt lat="48.45166" lon="7.13849">
        <ele>813</ele>
        <time>2019-05-15T08:48:08.063Z</time>
      </trkpt>
      <trkpt lat="48.45165" lon="7.13847">
        <ele>813</ele>
        <time>2019-05-15T08:48:09.063Z</time>
      </trkpt>
      <trkpt lat="48.45165" lon="7.13846">
        <ele>813</ele>
        <time>2019-05-15T08:48:10.063Z</time>
      </trkpt>
      <trkpt lat="48.45164" lon="7.13845">
        <ele>813</ele>
        <time>2019-05-15T08:48:11.063Z</time>
      </trkpt>
      <trkpt lat="48.45163" lon="7.13844">
        <ele>813</ele>
        <time>2019-05-15T08:48:12.063Z</time>
      </trkpt>
      <trkpt lat="48.45162" lon="7.13844">
        <ele>813</ele>
        <time>2019-05-15T08:48:13.063Z</time>
      </trkpt>
      <trkpt lat="48.45162" lon="7.13844">
        <ele>812</ele>
        <time>2019-05-15T08:48:14.063Z</time>
      </trkpt>
      <trkpt lat="48.45161" lon="7.13844">
        <ele>812</ele>
        <time>2019-05-15T08:48:15.063Z</time>
      </trkpt>
      <trkpt lat="48.4516" lon="7.13844">
        <ele>812</ele>
        <time>2019-05-15T08:48:16.063Z</time>
      </trkpt>
      <trkpt lat="48.4516" lon="7.13844">
        <ele>812</ele>
        <time>2019-05-15T08:48:17.063Z</time>
      </trkpt>
      <trkpt lat="48.45159" lon="7.13844">
        <ele>812</ele>
        <time>2019-05-15T08:48:18.063Z</time>
      </trkpt>
      <trkpt lat="48.45158" lon="7.13843">
        <ele>812</ele>
        <time>2019-05-15T08:48:19.063Z</time>
      </trkpt>
      <trkpt lat="48.45157" lon="7.13843">
        <ele>812</ele>
        <time>2019-05-15T08:48:20.063Z</time>
      </trkpt>
      <trkpt lat="48.45156" lon="7.13842">
        <ele>812</ele>
        <time>2019-05-15T08:48:21.063Z</time>
      </trkpt>
      <trkpt lat="48.45156" lon="7.13841">
        <ele>812</ele>
        <time>2019-05-15T08:48:22.063Z</time>
      </trkpt>
      <trkpt lat="48.45155" lon="7.1384">
        <ele>812</ele>
        <time>2019-05-15T08:48:23.063Z</time>
      </trkpt>
      <trkpt lat="48.45155" lon="7.13839">
        <ele>811</ele>
        <time>2019-05-15T08:48:24.063Z</time>
      </trkpt>
      <trkpt lat="48.45154" lon="7.13839">
        <ele>811</ele>
        <time>2019-05-15T08:48:25.063Z</time>
      </trkpt>
      <trkpt lat="48.45153" lon="7.13839">
        <ele>811</ele>
        <time>2019-05-15T08:48:26.063Z</time>
      </trkpt>
      <trkpt lat="48.45152" lon="7.13838">
        <ele>811</ele>
        <time>2019-05-15T08:48:27.063Z</time>
      </trkpt>
      <trkpt lat="48.45151" lon="7.13838">
        <ele>812</ele>
        <time>2019-05-15T08:48:28.063Z</time>
      </trkpt>
      <trkpt lat="48.4515" lon="7.13838">
        <ele>812</ele>
        <time>2019-05-15T08:48:29.063Z</time>
      </trkpt>
      <trkpt lat="48.4515" lon="7.13837">
        <ele>812</ele>
        <time>2019-05-15T08:48:30.063Z</time>
      </trkpt>
      <trkpt lat="48.45149" lon="7.13836">
        <ele>812</ele>
        <time>2019-05-15T08:48:31.063Z</time>
      </trkpt>
      <trkpt lat="48.45149" lon="7.13835">
        <ele>812</ele>
        <time>2019-05-15T08:48:32.063Z</time>
      </trkpt>
      <trkpt lat="48.45148" lon="7.13834">
        <ele>812</ele>
        <time>2019-05-15T08:48:33.063Z</time>
      </trkpt>
      <trkpt lat="48.45148" lon="7.13834">
        <ele>812</ele>
        <time>2019-05-15T08:48:34.063Z</time>
      </trkpt>
      <trkpt lat="48.45147" lon="7.13834">
        <ele>812</ele>
        <time>2019-05-15T08:48:35.063Z</time>
      </trkpt>
      <trkpt lat="48.45147" lon="7.13833">
        <ele>811</ele>
        <time>2019-05-15T08:48:36.063Z</time>
      </trkpt>
      <trkpt lat="48.45146" lon="7.13833">
        <ele>812</ele>
        <time>2019-05-15T08:48:37.063Z</time>
      </trkpt>
      <trkpt lat="48.45145" lon="7.13833">
        <ele>812</ele>
        <time>2019-05-15T08:48:38.063Z</time>
      </trkpt>
      <trkpt lat="48.45145" lon="7.13833">
        <ele>812</ele>
        <time>2019-05-15T08:48:39.063Z</time>
      </trkpt>
      <trkpt lat="48.45144" lon="7.13832">
        <ele>812</ele>
        <time>2019-05-15T08:48:40.063Z</time>
      </trkpt>
      <trkpt lat="48.45144" lon="7.13832">
        <ele>812</ele>
        <time>2019-05-15T08:48:41.063Z</time>
      </trkpt>
      <trkpt lat="48.45143" lon="7.13831">
        <ele>812</ele>
        <time>2019-05-15T08:48:42.063Z</time>
      </trkpt>
      <trkpt lat="48.45143" lon="7.13829">
        <ele>812</ele>
        <time>2019-05-15T08:48:43.063Z</time>
      </trkpt>
      <trkpt lat="48.45143" lon="7.13828">
        <ele>812</ele>
        <time>2019-05-15T08:48:44.063Z</time>
      </trkpt>
      <trkpt lat="48.45144" lon="7.13826">
        <ele>811</ele>
        <time>2019-05-15T08:48:45.063Z</time>
      </trkpt>
      <trkpt lat="48.45144" lon="7.13824">
        <ele>810</ele>
        <time>2019-05-15T08:48:46.063Z</time>
      </trkpt>
      <trkpt lat="48.45144" lon="7.13823">
        <ele>810</ele>
        <time>2019-05-15T08:48:47.063Z</time>
      </trkpt>
      <trkpt lat="48.45144" lon="7.13822">
        <ele>810</ele>
        <time>2019-05-15T08:48:48.063Z</time>
      </trkpt>
      <trkpt lat="48.45145" lon="7.13821">
        <ele>810</ele>
        <time>2019-05-15T08:48:49.063Z</time>
      </trkpt>
      <trkpt lat="48.45145" lon="7.1382">
        <ele>811</ele>
        <time>2019-05-15T08:48:50.063Z</time>
      </trkpt>
      <trkpt lat="48.45145" lon="7.13819">
        <ele>810</ele>
        <time>2019-05-15T08:48:51.063Z</time>
      </trkpt>
      <trkpt lat="48.45146" lon="7.13818">
        <ele>811</ele>
        <time>2019-05-15T08:48:52.063Z</time>
      </trkpt>
      <trkpt lat="48.45146" lon="7.13817">
        <ele>810</ele>
        <time>2019-05-15T08:48:53.063Z</time>
      </trkpt>
      <trkpt lat="48.45146" lon="7.13816">
        <ele>811</ele>
        <time>2019-05-15T08:48:54.063Z</time>
      </trkpt>
      <trkpt lat="48.45147" lon="7.13815">
        <ele>811</ele>
        <time>2019-05-15T08:48:55.063Z</time>
      </trkpt>
      <trkpt lat="48.45147" lon="7.13814">
        <ele>811</ele>
        <time>2019-05-15T08:48:56.063Z</time>
      </trkpt>
      <trkpt lat="48.45147" lon="7.13814">
        <ele>811</ele>
        <time>2019-05-15T08:48:57.063Z</time>
      </trkpt>
      <trkpt lat="48.45147" lon="7.13814">
        <ele>811</ele>
        <time>2019-05-15T08:48:58.063Z</time>
      </trkpt>
      <trkpt lat="48.45146" lon="7.13814">
        <ele>811</ele>
        <time>2019-05-15T08:48:59.063Z</time>
      </trkpt>
      <trkpt lat="48.45146" lon="7.13814">
        <ele>811</ele>
        <time>2019-05-15T08:49:00.063Z</time>
      </trkpt>
      <trkpt lat="48.45146" lon="7.13813">
        <ele>811</ele>
        <time>2019-05-15T08:49:01.063Z</time>
      </trkpt>
      <trkpt lat="48.45146" lon="7.13813">
        <ele>811</ele>
        <time>2019-05-15T08:49:02.063Z</time>
      </trkpt>
      <trkpt lat="48.45145" lon="7.13812">
        <ele>811</ele>
        <time>2019-05-15T08:49:03.063Z</time>
      </trkpt>
      <trkpt lat="48.45145" lon="7.13812">
        <ele>811</ele>
        <time>2019-05-15T08:49:04.063Z</time>
      </trkpt>
      <trkpt lat="48.45146" lon="7.13812">
        <ele>811</ele>
        <time>2019-05-15T08:49:05.063Z</time>
      </trkpt>
      <trkpt lat="48.45146" lon="7.13812">
        <ele>811</ele>
        <time>2019-05-15T08:49:06.063Z</time>
      </trkpt>
      <trkpt lat="48.45146" lon="7.13812">
        <ele>811</ele>
        <time>2019-05-15T08:49:07.063Z</time>
      </trkpt>
      <trkpt lat="48.45146" lon="7.13812">
        <ele>811</ele>
        <time>2019-05-15T08:49:08.063Z</time>
      </trkpt>
      <trkpt lat="48.45145" lon="7.13812">
        <ele>811</ele>
        <time>2019-05-15T08:49:09.063Z</time>
      </trkpt>
      <trkpt lat="48.45145" lon="7.13811">
        <ele>811</ele>
        <time>2019-05-15T08:49:10.063Z</time>
      </trkpt>
      <trkpt lat="48.45145" lon="7.13811">
        <ele>811</ele>
        <time>2019-05-15T08:49:11.063Z</time>
      </trkpt>
      <trkpt lat="48.45144" lon="7.13811">
        <ele>811</ele>
        <time>2019-05-15T08:49:12.063Z</time>
      </trkpt>
      <trkpt lat="48.45144" lon="7.13811">
        <ele>811</ele>
        <time>2019-05-15T08:49:13.063Z</time>
      </trkpt>
      <trkpt lat="48.45144" lon="7.1381">
        <ele>811</ele>
        <time>2019-05-15T08:49:14.063Z</time>
      </trkpt>
      <trkpt lat="48.45144" lon="7.1381">
        <ele>812</ele>
        <time>2019-05-15T08:49:15.063Z</time>
      </trkpt>
      <trkpt lat="48.45144" lon="7.1381">
        <ele>812</ele>
        <time>2019-05-15T08:49:16.063Z</time>
      </trkpt>
      <trkpt lat="48.45143" lon="7.1381">
        <ele>812</ele>
        <time>2019-05-15T08:49:17.063Z</time>
      </trkpt>
      <trkpt lat="48.45143" lon="7.1381">
        <ele>812</ele>
        <time>2019-05-15T08:49:18.063Z</time>
      </trkpt>
      <trkpt lat="48.45143" lon="7.1381">
        <ele>812</ele>
        <time>2019-05-15T08:49:19.063Z</time>
      </trkpt>
      <trkpt lat="48.45142" lon="7.13809">
        <ele>812</ele>
        <time>2019-05-15T08:49:20.063Z</time>
      </trkpt>
      <trkpt lat="48.45142" lon="7.13809">
        <ele>812</ele>
        <time>2019-05-15T08:49:21.063Z</time>
      </trkpt>
      <trkpt lat="48.45142" lon="7.13808">
        <ele>813</ele>
        <time>2019-05-15T08:49:22.063Z</time>
      </trkpt>
      <trkpt lat="48.45141" lon="7.13808">
        <ele>813</ele>
        <time>2019-05-15T08:49:23.063Z</time>
      </trkpt>
      <trkpt lat="48.45141" lon="7.13808">
        <ele>812</ele>
        <time>2019-05-15T08:49:24.063Z</time>
      </trkpt>
      <trkpt lat="48.45141" lon="7.13808">
        <ele>812</ele>
        <time>2019-05-15T08:49:25.063Z</time>
      </trkpt>
      <trkpt lat="48.45141" lon="7.13808">
        <ele>812</ele>
        <time>2019-05-15T08:49:26.063Z</time>
      </trkpt>
      <trkpt lat="48.4514" lon="7.13807">
        <ele>812</ele>
        <time>2019-05-15T08:49:27.063Z</time>
      </trkpt>
      <trkpt lat="48.45141" lon="7.13807">
        <ele>812</ele>
        <time>2019-05-15T08:49:28.063Z</time>
      </trkpt>
      <trkpt lat="48.45141" lon="7.13807">
        <ele>812</ele>
        <time>2019-05-15T08:49:29.063Z</time>
      </trkpt>
      <trkpt lat="48.45141" lon="7.13807">
        <ele>812</ele>
        <time>2019-05-15T08:49:30.063Z</time>
      </trkpt>
      <trkpt lat="48.45141" lon="7.13807">
        <ele>812</ele>
        <time>2019-05-15T08:49:31.063Z</time>
      </trkpt>
      <trkpt lat="48.45142" lon="7.13807">
        <ele>811</ele>
        <time>2019-05-15T08:49:32.063Z</time>
      </trkpt>
      <trkpt lat="48.45142" lon="7.13807">
        <ele>811</ele>
        <time>2019-05-15T08:49:33.063Z</time>
      </trkpt>
      <trkpt lat="48.45142" lon="7.13807">
        <ele>811</ele>
        <time>2019-05-15T08:49:34.063Z</time>
      </trkpt>
      <trkpt lat="48.45143" lon="7.13807">
        <ele>811</ele>
        <time>2019-05-15T08:49:35.063Z</time>
      </trkpt>
      <trkpt lat="48.45143" lon="7.13808">
        <ele>812</ele>
        <time>2019-05-15T08:49:36.063Z</time>
      </trkpt>
      <trkpt lat="48.45143" lon="7.13808">
        <ele>812</ele>
        <time>2019-05-15T08:49:37.063Z</time>
      </trkpt>
      <trkpt lat="48.45143" lon="7.13808">
        <ele>812</ele>
        <time>2019-05-15T08:49:38.063Z</time>
      </trkpt>
      <trkpt lat="48.45142" lon="7.13809">
        <ele>811</ele>
        <time>2019-05-15T08:49:39.063Z</time>
      </trkpt>
      <trkpt lat="48.45142" lon="7.13809">
        <ele>811</ele>
        <time>2019-05-15T08:49:40.063Z</time>
      </trkpt>
      <trkpt lat="48.45141" lon="7.13809">
        <ele>810</ele>
        <time>2019-05-15T08:49:41.063Z</time>
      </trkpt>
      <trkpt lat="48.4514" lon="7.13809">
        <ele>810</ele>
        <time>2019-05-15T08:49:42.063Z</time>
      </trkpt>
      <trkpt lat="48.4514" lon="7.13809">
        <ele>810</ele>
        <time>2019-05-15T08:49:43.063Z</time>
      </trkpt>
      <trkpt lat="48.45139" lon="7.13809">
        <ele>811</ele>
        <time>2019-05-15T08:49:44.063Z</time>
      </trkpt>
      <trkpt lat="48.45139" lon="7.13808">
        <ele>810</ele>
        <time>2019-05-15T08:49:45.063Z</time>
      </trkpt>
      <trkpt lat="48.45139" lon="7.13808">
        <ele>811</ele>
        <time>2019-05-15T08:49:46.063Z</time>
      </trkpt>
      <trkpt lat="48.45139" lon="7.13808">
        <ele>811</ele>
        <time>2019-05-15T08:49:47.063Z</time>
      </trkpt>
      <trkpt lat="48.45138" lon="7.13808">
        <ele>810</ele>
        <time>2019-05-15T08:49:48.063Z</time>
      </trkpt>
      <trkpt lat="48.45138" lon="7.13808">
        <ele>811</ele>
        <time>2019-05-15T08:49:49.063Z</time>
      </trkpt>
      <trkpt lat="48.45138" lon="7.13808">
        <ele>811</ele>
        <time>2019-05-15T08:49:50.063Z</time>
      </trkpt>
      <trkpt lat="48.45138" lon="7.13808">
        <ele>811</ele>
        <time>2019-05-15T08:49:51.063Z</time>
      </trkpt>
      <trkpt lat="48.45138" lon="7.13808">
        <ele>811</ele>
        <time>2019-05-15T08:49:52.063Z</time>
      </trkpt>
      <trkpt lat="48.45137" lon="7.13808">
        <ele>811</ele>
        <time>2019-05-15T08:49:53.063Z</time>
      </trkpt>
      <trkpt lat="48.45137" lon="7.13807">
        <ele>811</ele>
        <time>2019-05-15T08:49:54.063Z</time>
      </trkpt>
      <trkpt lat="48.45137" lon="7.13807">
        <ele>811</ele>
        <time>2019-05-15T08:49:55.063Z</time>
      </trkpt>
      <trkpt lat="48.45137" lon="7.13807">
        <ele>811</ele>
        <time>2019-05-15T08:49:56.063Z</time>
      </trkpt>
      <trkpt lat="48.45137" lon="7.13807">
        <ele>811</ele>
        <time>2019-05-15T08:49:57.063Z</time>
      </trkpt>
      <trkpt lat="48.45137" lon="7.13807">
        <ele>810</ele>
        <time>2019-05-15T08:49:58.063Z</time>
      </trkpt>
      <trkpt lat="48.45137" lon="7.13807">
        <ele>810</ele>
        <time>2019-05-15T08:49:59.063Z</time>
      </trkpt>
      <trkpt lat="48.45137" lon="7.13807">
        <ele>810</ele>
        <time>2019-05-15T08:50:00.063Z</time>
      </trkpt>
      <trkpt lat="48.45137" lon="7.13807">
        <ele>811</ele>
        <time>2019-05-15T08:50:01.063Z</time>
      </trkpt>
      <trkpt lat="48.45137" lon="7.13806">
        <ele>811</ele>
        <time>2019-05-15T08:50:02.063Z</time>
      </trkpt>
      <trkpt lat="48.45137" lon="7.13806">
        <ele>811</ele>
        <time>2019-05-15T08:50:03.063Z</time>
      </trkpt>
      <trkpt lat="48.45137" lon="7.13806">
        <ele>811</ele>
        <time>2019-05-15T08:50:04.063Z</time>
      </trkpt>
      <trkpt lat="48.45137" lon="7.13806">
        <ele>811</ele>
        <time>2019-05-15T08:50:05.063Z</time>
      </trkpt>
      <trkpt lat="48.45137" lon="7.13806">
        <ele>811</ele>
        <time>2019-05-15T08:50:06.063Z</time>
      </trkpt>
      <trkpt lat="48.45137" lon="7.13806">
        <ele>811</ele>
        <time>2019-05-15T08:50:07.063Z</time>
      </trkpt>
      <trkpt lat="48.45137" lon="7.13806">
        <ele>811</ele>
        <time>2019-05-15T08:50:08.063Z</time>
      </trkpt>
      <trkpt lat="48.45137" lon="7.13806">
        <ele>811</ele>
        <time>2019-05-15T08:50:09.063Z</time>
      </trkpt>
      <trkpt lat="48.45137" lon="7.13806">
        <ele>811</ele>
        <time>2019-05-15T08:50:10.063Z</time>
      </trkpt>
      <trkpt lat="48.45137" lon="7.13806">
        <ele>811</ele>
        <time>2019-05-15T08:50:11.063Z</time>
      </trkpt>
      <trkpt lat="48.45137" lon="7.13805">
        <ele>811</ele>
        <time>2019-05-15T08:50:12.063Z</time>
      </trkpt>
      <trkpt lat="48.45137" lon="7.13805">
        <ele>811</ele>
        <time>2019-05-15T08:50:13.063Z</time>
      </trkpt>
      <trkpt lat="48.45137" lon="7.13805">
        <ele>811</ele>
        <time>2019-05-15T08:50:14.063Z</time>
      </trkpt>
      <trkpt lat="48.45137" lon="7.13805">
        <ele>811</ele>
        <time>2019-05-15T08:50:15.063Z</time>
      </trkpt>
      <trkpt lat="48.45137" lon="7.13805">
        <ele>811</ele>
        <time>2019-05-15T08:50:16.063Z</time>
      </trkpt>
      <trkpt lat="48.45137" lon="7.13805">
        <ele>811</ele>
        <time>2019-05-15T08:50:17.063Z</time>
      </trkpt>
      <trkpt lat="48.45137" lon="7.13805">
        <ele>811</ele>
        <time>2019-05-15T08:50:18.063Z</time>
      </trkpt>
      <trkpt lat="48.45137" lon="7.13805">
        <ele>811</ele>
        <time>2019-05-15T08:50:19.063Z</time>
      </trkpt>
      <trkpt lat="48.45137" lon="7.13805">
        <ele>810</ele>
        <time>2019-05-15T08:50:20.063Z</time>
      </trkpt>
      <trkpt lat="48.45137" lon="7.13805">
        <ele>810</ele>
        <time>2019-05-15T08:50:21.063Z</time>
      </trkpt>
      <trkpt lat="48.45138" lon="7.13805">
        <ele>810</ele>
        <time>2019-05-15T08:50:22.063Z</time>
      </trkpt>
      <trkpt lat="48.45138" lon="7.13805">
        <ele>810</ele>
        <time>2019-05-15T08:50:23.063Z</time>
      </trkpt>
      <trkpt lat="48.45138" lon="7.13804">
        <ele>810</ele>
        <time>2019-05-15T08:50:24.063Z</time>
      </trkpt>
      <trkpt lat="48.45138" lon="7.13804">
        <ele>810</ele>
        <time>2019-05-15T08:50:25.063Z</time>
      </trkpt>
      <trkpt lat="48.45137" lon="7.13804">
        <ele>810</ele>
        <time>2019-05-15T08:50:26.063Z</time>
      </trkpt>
      <trkpt lat="48.45137" lon="7.13804">
        <ele>810</ele>
        <time>2019-05-15T08:50:27.063Z</time>
      </trkpt>
      <trkpt lat="48.45137" lon="7.13804">
        <ele>810</ele>
        <time>2019-05-15T08:50:28.063Z</time>
      </trkpt>
      <trkpt lat="48.45137" lon="7.13804">
        <ele>810</ele>
        <time>2019-05-15T08:50:29.063Z</time>
      </trkpt>
      <trkpt lat="48.45137" lon="7.13803">
        <ele>810</ele>
        <time>2019-05-15T08:50:30.063Z</time>
      </trkpt>
      <trkpt lat="48.45137" lon="7.13803">
        <ele>810</ele>
        <time>2019-05-15T08:50:31.063Z</time>
      </trkpt>
      <trkpt lat="48.45137" lon="7.13803">
        <ele>810</ele>
        <time>2019-05-15T08:50:32.063Z</time>
      </trkpt>
      <trkpt lat="48.45137" lon="7.13803">
        <ele>810</ele>
        <time>2019-05-15T08:50:33.063Z</time>
      </trkpt>
      <trkpt lat="48.45137" lon="7.13803">
        <ele>810</ele>
        <time>2019-05-15T08:50:34.063Z</time>
      </trkpt>
      <trkpt lat="48.45137" lon="7.13803">
        <ele>810</ele>
        <time>2019-05-15T08:50:35.063Z</time>
      </trkpt>
      <trkpt lat="48.45137" lon="7.13804">
        <ele>811</ele>
        <time>2019-05-15T08:50:36.063Z</time>
      </trkpt>
      <trkpt lat="48.45137" lon="7.13804">
        <ele>811</ele>
        <time>2019-05-15T08:50:37.063Z</time>
      </trkpt>
      <trkpt lat="48.45137" lon="7.13804">
        <ele>811</ele>
        <time>2019-05-15T08:50:38.063Z</time>
      </trkpt>
      <trkpt lat="48.45137" lon="7.13803">
        <ele>811</ele>
        <time>2019-05-15T08:50:39.063Z</time>
      </trkpt>
      <trkpt lat="48.45137" lon="7.13803">
        <ele>811</ele>
        <time>2019-05-15T08:50:40.063Z</time>
      </trkpt>
      <trkpt lat="48.45137" lon="7.13803">
        <ele>811</ele>
        <time>2019-05-15T08:50:41.063Z</time>
      </trkpt>
      <trkpt lat="48.45137" lon="7.13803">
        <ele>811</ele>
        <time>2019-05-15T08:50:42.063Z</time>
      </trkpt>
      <trkpt lat="48.45137" lon="7.13803">
        <ele>811</ele>
        <time>2019-05-15T08:50:43.063Z</time>
      </trkpt>
      <trkpt lat="48.45137" lon="7.13803">
        <ele>811</ele>
        <time>2019-05-15T08:50:44.063Z</time>
      </trkpt>
      <trkpt lat="48.45137" lon="7.13803">
        <ele>810</ele>
        <time>2019-05-15T08:50:45.063Z</time>
      </trkpt>
      <trkpt lat="48.45137" lon="7.13803">
        <ele>810</ele>
        <time>2019-05-15T08:50:46.063Z</time>
      </trkpt>
      <trkpt lat="48.45137" lon="7.13803">
        <ele>810</ele>
        <time>2019-05-15T08:50:47.063Z</time>
      </trkpt>
      <trkpt lat="48.45137" lon="7.13803">
        <ele>811</ele>
        <time>2019-05-15T08:50:48.063Z</time>
      </trkpt>
      <trkpt lat="48.45137" lon="7.13803">
        <ele>811</ele>
        <time>2019-05-15T08:50:49.063Z</time>
      </trkpt>
      <trkpt lat="48.45137" lon="7.13803">
        <ele>811</ele>
        <time>2019-05-15T08:50:50.063Z</time>
      </trkpt>
      <trkpt lat="48.45137" lon="7.13802">
        <ele>811</ele>
        <time>2019-05-15T08:50:51.063Z</time>
      </trkpt>
      <trkpt lat="48.45137" lon="7.13802">
        <ele>811</ele>
        <time>2019-05-15T08:50:52.063Z</time>
      </trkpt>
      <trkpt lat="48.45136" lon="7.13803">
        <ele>811</ele>
        <time>2019-05-15T08:50:53.063Z</time>
      </trkpt>
      <trkpt lat="48.45136" lon="7.13803">
        <ele>810</ele>
        <time>2019-05-15T08:50:54.063Z</time>
      </trkpt>
      <trkpt lat="48.45136" lon="7.13803">
        <ele>810</ele>
        <time>2019-05-15T08:50:55.063Z</time>
      </trkpt>
      <trkpt lat="48.45136" lon="7.13803">
        <ele>810</ele>
        <time>2019-05-15T08:50:56.063Z</time>
      </trkpt>
      <trkpt lat="48.45136" lon="7.13804">
        <ele>810</ele>
        <time>2019-05-15T08:50:57.063Z</time>
      </trkpt>
      <trkpt lat="48.45136" lon="7.13804">
        <ele>809</ele>
        <time>2019-05-15T08:50:58.063Z</time>
      </trkpt>
      <trkpt lat="48.45135" lon="7.13805">
        <ele>810</ele>
        <time>2019-05-15T08:50:59.063Z</time>
      </trkpt>
      <trkpt lat="48.45135" lon="7.13805">
        <ele>809</ele>
        <time>2019-05-15T08:51:00.063Z</time>
      </trkpt>
      <trkpt lat="48.45134" lon="7.13806">
        <ele>809</ele>
        <time>2019-05-15T08:51:01.063Z</time>
      </trkpt>
      <trkpt lat="48.45134" lon="7.13806">
        <ele>809</ele>
        <time>2019-05-15T08:51:02.063Z</time>
      </trkpt>
      <trkpt lat="48.45133" lon="7.13806">
        <ele>809</ele>
        <time>2019-05-15T08:51:03.063Z</time>
      </trkpt>
      <trkpt lat="48.45132" lon="7.13806">
        <ele>809</ele>
        <time>2019-05-15T08:51:04.063Z</time>
      </trkpt>
      <trkpt lat="48.45132" lon="7.13805">
        <ele>808</ele>
        <time>2019-05-15T08:51:05.063Z</time>
      </trkpt>
      <trkpt lat="48.45131" lon="7.13805">
        <ele>809</ele>
        <time>2019-05-15T08:51:06.063Z</time>
      </trkpt>
      <trkpt lat="48.45131" lon="7.13805">
        <ele>809</ele>
        <time>2019-05-15T08:51:07.063Z</time>
      </trkpt>
      <trkpt lat="48.4513" lon="7.13805">
        <ele>809</ele>
        <time>2019-05-15T08:51:08.063Z</time>
      </trkpt>
      <trkpt lat="48.45129" lon="7.13805">
        <ele>808</ele>
        <time>2019-05-15T08:51:09.063Z</time>
      </trkpt>
      <trkpt lat="48.45129" lon="7.13805">
        <ele>808</ele>
        <time>2019-05-15T08:51:10.063Z</time>
      </trkpt>
      <trkpt lat="48.45128" lon="7.13805">
        <ele>808</ele>
        <time>2019-05-15T08:51:11.063Z</time>
      </trkpt>
      <trkpt lat="48.45127" lon="7.13804">
        <ele>808</ele>
        <time>2019-05-15T08:51:12.063Z</time>
      </trkpt>
      <trkpt lat="48.45127" lon="7.13804">
        <ele>808</ele>
        <time>2019-05-15T08:51:13.063Z</time>
      </trkpt>
      <trkpt lat="48.45126" lon="7.13803">
        <ele>808</ele>
        <time>2019-05-15T08:51:14.063Z</time>
      </trkpt>
      <trkpt lat="48.45126" lon="7.13803">
        <ele>808</ele>
        <time>2019-05-15T08:51:15.063Z</time>
      </trkpt>
      <trkpt lat="48.45125" lon="7.13802">
        <ele>808</ele>
        <time>2019-05-15T08:51:16.063Z</time>
      </trkpt>
      <trkpt lat="48.45125" lon="7.13802">
        <ele>808</ele>
        <time>2019-05-15T08:51:17.063Z</time>
      </trkpt>
      <trkpt lat="48.45125" lon="7.13802">
        <ele>808</ele>
        <time>2019-05-15T08:51:18.063Z</time>
      </trkpt>
      <trkpt lat="48.45124" lon="7.13801">
        <ele>808</ele>
        <time>2019-05-15T08:51:19.063Z</time>
      </trkpt>
      <trkpt lat="48.45124" lon="7.13801">
        <ele>808</ele>
        <time>2019-05-15T08:51:20.063Z</time>
      </trkpt>
      <trkpt lat="48.45123" lon="7.13801">
        <ele>808</ele>
        <time>2019-05-15T08:51:21.063Z</time>
      </trkpt>
      <trkpt lat="48.45123" lon="7.13801">
        <ele>808</ele>
        <time>2019-05-15T08:51:22.063Z</time>
      </trkpt>
      <trkpt lat="48.45122" lon="7.138">
        <ele>807</ele>
        <time>2019-05-15T08:51:23.063Z</time>
      </trkpt>
      <trkpt lat="48.45122" lon="7.138">
        <ele>807</ele>
        <time>2019-05-15T08:51:24.063Z</time>
      </trkpt>
      <trkpt lat="48.45121" lon="7.13799">
        <ele>808</ele>
        <time>2019-05-15T08:51:25.063Z</time>
      </trkpt>
      <trkpt lat="48.45121" lon="7.13799">
        <ele>808</ele>
        <time>2019-05-15T08:51:26.063Z</time>
      </trkpt>
      <trkpt lat="48.4512" lon="7.13798">
        <ele>808</ele>
        <time>2019-05-15T08:51:27.063Z</time>
      </trkpt>
      <trkpt lat="48.4512" lon="7.13798">
        <ele>808</ele>
        <time>2019-05-15T08:51:28.063Z</time>
      </trkpt>
      <trkpt lat="48.45119" lon="7.13798">
        <ele>808</ele>
        <time>2019-05-15T08:51:29.063Z</time>
      </trkpt>
      <trkpt lat="48.45118" lon="7.13797">
        <ele>808</ele>
        <time>2019-05-15T08:51:30.063Z</time>
      </trkpt>
      <trkpt lat="48.45118" lon="7.13797">
        <ele>807</ele>
        <time>2019-05-15T08:51:31.063Z</time>
      </trkpt>
      <trkpt lat="48.45117" lon="7.13796">
        <ele>807</ele>
        <time>2019-05-15T08:51:32.063Z</time>
      </trkpt>
      <trkpt lat="48.45117" lon="7.13796">
        <ele>808</ele>
        <time>2019-05-15T08:51:33.063Z</time>
      </trkpt>
      <trkpt lat="48.45116" lon="7.13796">
        <ele>808</ele>
        <time>2019-05-15T08:51:34.063Z</time>
      </trkpt>
      <trkpt lat="48.45115" lon="7.13795">
        <ele>808</ele>
        <time>2019-05-15T08:51:35.063Z</time>
      </trkpt>
      <trkpt lat="48.45114" lon="7.13795">
        <ele>808</ele>
        <time>2019-05-15T08:51:36.063Z</time>
      </trkpt>
      <trkpt lat="48.45114" lon="7.13795">
        <ele>808</ele>
        <time>2019-05-15T08:51:37.063Z</time>
      </trkpt>
      <trkpt lat="48.45113" lon="7.13795">
        <ele>808</ele>
        <time>2019-05-15T08:51:38.063Z</time>
      </trkpt>
      <trkpt lat="48.45112" lon="7.13794">
        <ele>808</ele>
        <time>2019-05-15T08:51:39.063Z</time>
      </trkpt>
      <trkpt lat="48.45111" lon="7.13794">
        <ele>808</ele>
        <time>2019-05-15T08:51:40.063Z</time>
      </trkpt>
      <trkpt lat="48.45111" lon="7.13794">
        <ele>807</ele>
        <time>2019-05-15T08:51:41.063Z</time>
      </trkpt>
      <trkpt lat="48.4511" lon="7.13794">
        <ele>808</ele>
        <time>2019-05-15T08:51:42.063Z</time>
      </trkpt>
      <trkpt lat="48.45109" lon="7.13794">
        <ele>808</ele>
        <time>2019-05-15T08:51:43.063Z</time>
      </trkpt>
      <trkpt lat="48.45108" lon="7.13793">
        <ele>807</ele>
        <time>2019-05-15T08:51:44.063Z</time>
      </trkpt>
      <trkpt lat="48.45107" lon="7.13792">
        <ele>807</ele>
        <time>2019-05-15T08:51:45.063Z</time>
      </trkpt>
      <trkpt lat="48.45106" lon="7.13791">
        <ele>807</ele>
        <time>2019-05-15T08:51:46.063Z</time>
      </trkpt>
      <trkpt lat="48.45106" lon="7.1379">
        <ele>806</ele>
        <time>2019-05-15T08:51:47.063Z</time>
      </trkpt>
      <trkpt lat="48.45106" lon="7.13788">
        <ele>806</ele>
        <time>2019-05-15T08:51:48.063Z</time>
      </trkpt>
      <trkpt lat="48.45105" lon="7.13786">
        <ele>805</ele>
        <time>2019-05-15T08:51:49.063Z</time>
      </trkpt>
      <trkpt lat="48.45105" lon="7.13785">
        <ele>805</ele>
        <time>2019-05-15T08:51:50.063Z</time>
      </trkpt>
      <trkpt lat="48.45105" lon="7.13783">
        <ele>805</ele>
        <time>2019-05-15T08:51:51.063Z</time>
      </trkpt>
      <trkpt lat="48.45104" lon="7.13782">
        <ele>805</ele>
        <time>2019-05-15T08:51:52.063Z</time>
      </trkpt>
      <trkpt lat="48.45104" lon="7.13781">
        <ele>805</ele>
        <time>2019-05-15T08:51:53.063Z</time>
      </trkpt>
      <trkpt lat="48.45104" lon="7.1378">
        <ele>804</ele>
        <time>2019-05-15T08:51:54.063Z</time>
      </trkpt>
      <trkpt lat="48.45103" lon="7.1378">
        <ele>804</ele>
        <time>2019-05-15T08:51:55.063Z</time>
      </trkpt>
      <trkpt lat="48.45102" lon="7.13779">
        <ele>804</ele>
        <time>2019-05-15T08:51:56.063Z</time>
      </trkpt>
      <trkpt lat="48.45101" lon="7.13778">
        <ele>804</ele>
        <time>2019-05-15T08:51:57.063Z</time>
      </trkpt>
      <trkpt lat="48.45101" lon="7.13777">
        <ele>804</ele>
        <time>2019-05-15T08:51:58.063Z</time>
      </trkpt>
      <trkpt lat="48.451" lon="7.13777">
        <ele>804</ele>
        <time>2019-05-15T08:51:59.063Z</time>
      </trkpt>
      <trkpt lat="48.451" lon="7.13776">
        <ele>805</ele>
        <time>2019-05-15T08:52:00.063Z</time>
      </trkpt>
      <trkpt lat="48.45099" lon="7.13776">
        <ele>805</ele>
        <time>2019-05-15T08:52:01.063Z</time>
      </trkpt>
      <trkpt lat="48.45099" lon="7.13775">
        <ele>805</ele>
        <time>2019-05-15T08:52:02.063Z</time>
      </trkpt>
      <trkpt lat="48.45098" lon="7.13774">
        <ele>805</ele>
        <time>2019-05-15T08:52:03.063Z</time>
      </trkpt>
      <trkpt lat="48.45097" lon="7.13773">
        <ele>805</ele>
        <time>2019-05-15T08:52:04.063Z</time>
      </trkpt>
      <trkpt lat="48.45097" lon="7.13773">
        <ele>805</ele>
        <time>2019-05-15T08:52:05.063Z</time>
      </trkpt>
      <trkpt lat="48.45096" lon="7.13773">
        <ele>805</ele>
        <time>2019-05-15T08:52:06.063Z</time>
      </trkpt>
      <trkpt lat="48.45095" lon="7.13772">
        <ele>806</ele>
        <time>2019-05-15T08:52:07.063Z</time>
      </trkpt>
      <trkpt lat="48.45095" lon="7.13772">
        <ele>806</ele>
        <time>2019-05-15T08:52:08.063Z</time>
      </trkpt>
      <trkpt lat="48.45094" lon="7.13772">
        <ele>806</ele>
        <time>2019-05-15T08:52:09.063Z</time>
      </trkpt>
      <trkpt lat="48.45093" lon="7.13773">
        <ele>806</ele>
        <time>2019-05-15T08:52:10.063Z</time>
      </trkpt>
      <trkpt lat="48.45093" lon="7.13773">
        <ele>806</ele>
        <time>2019-05-15T08:52:11.063Z</time>
      </trkpt>
      <trkpt lat="48.45092" lon="7.13773">
        <ele>806</ele>
        <time>2019-05-15T08:52:12.063Z</time>
      </trkpt>
      <trkpt lat="48.45092" lon="7.13773">
        <ele>806</ele>
        <time>2019-05-15T08:52:13.063Z</time>
      </trkpt>
      <trkpt lat="48.45091" lon="7.13773">
        <ele>805</ele>
        <time>2019-05-15T08:52:14.063Z</time>
      </trkpt>
      <trkpt lat="48.45089" lon="7.13774">
        <ele>805</ele>
        <time>2019-05-15T08:52:15.063Z</time>
      </trkpt>
      <trkpt lat="48.45088" lon="7.13774">
        <ele>805</ele>
        <time>2019-05-15T08:52:16.063Z</time>
      </trkpt>
      <trkpt lat="48.45087" lon="7.13775">
        <ele>806</ele>
        <time>2019-05-15T08:52:17.063Z</time>
      </trkpt>
      <trkpt lat="48.45086" lon="7.13775">
        <ele>806</ele>
        <time>2019-05-15T08:52:18.063Z</time>
      </trkpt>
      <trkpt lat="48.45085" lon="7.13775">
        <ele>806</ele>
        <time>2019-05-15T08:52:19.063Z</time>
      </trkpt>
      <trkpt lat="48.45084" lon="7.13775">
        <ele>806</ele>
        <time>2019-05-15T08:52:20.063Z</time>
      </trkpt>
      <trkpt lat="48.45083" lon="7.13775">
        <ele>805</ele>
        <time>2019-05-15T08:52:21.063Z</time>
      </trkpt>
      <trkpt lat="48.45082" lon="7.13776">
        <ele>805</ele>
        <time>2019-05-15T08:52:22.063Z</time>
      </trkpt>
      <trkpt lat="48.45082" lon="7.13776">
        <ele>805</ele>
        <time>2019-05-15T08:52:23.063Z</time>
      </trkpt>
      <trkpt lat="48.45081" lon="7.13775">
        <ele>805</ele>
        <time>2019-05-15T08:52:24.063Z</time>
      </trkpt>
      <trkpt lat="48.45081" lon="7.13775">
        <ele>804</ele>
        <time>2019-05-15T08:52:25.063Z</time>
      </trkpt>
      <trkpt lat="48.4508" lon="7.13774">
        <ele>804</ele>
        <time>2019-05-15T08:52:26.063Z</time>
      </trkpt>
      <trkpt lat="48.4508" lon="7.13773">
        <ele>804</ele>
        <time>2019-05-15T08:52:27.063Z</time>
      </trkpt>
      <trkpt lat="48.4508" lon="7.13773">
        <ele>803</ele>
        <time>2019-05-15T08:52:28.063Z</time>
      </trkpt>
      <trkpt lat="48.4508" lon="7.13772">
        <ele>803</ele>
        <time>2019-05-15T08:52:29.063Z</time>
      </trkpt>
      <trkpt lat="48.4508" lon="7.13771">
        <ele>802</ele>
        <time>2019-05-15T08:52:30.063Z</time>
      </trkpt>
      <trkpt lat="48.4508" lon="7.13771">
        <ele>802</ele>
        <time>2019-05-15T08:52:31.063Z</time>
      </trkpt>
      <trkpt lat="48.45081" lon="7.1377">
        <ele>801</ele>
        <time>2019-05-15T08:52:32.063Z</time>
      </trkpt>
      <trkpt lat="48.45081" lon="7.13769">
        <ele>801</ele>
        <time>2019-05-15T08:52:33.063Z</time>
      </trkpt>
      <trkpt lat="48.45081" lon="7.13769">
        <ele>801</ele>
        <time>2019-05-15T08:52:34.063Z</time>
      </trkpt>
      <trkpt lat="48.45081" lon="7.13769">
        <ele>801</ele>
        <time>2019-05-15T08:52:35.063Z</time>
      </trkpt>
      <trkpt lat="48.45081" lon="7.13769">
        <ele>801</ele>
        <time>2019-05-15T08:52:36.063Z</time>
      </trkpt>
      <trkpt lat="48.45082" lon="7.13768">
        <ele>801</ele>
        <time>2019-05-15T08:52:37.063Z</time>
      </trkpt>
      <trkpt lat="48.45082" lon="7.13768">
        <ele>801</ele>
        <time>2019-05-15T08:52:38.063Z</time>
      </trkpt>
      <trkpt lat="48.45082" lon="7.13768">
        <ele>801</ele>
        <time>2019-05-15T08:52:39.063Z</time>
      </trkpt>
      <trkpt lat="48.45082" lon="7.13768">
        <ele>801</ele>
        <time>2019-05-15T08:52:40.063Z</time>
      </trkpt>
      <trkpt lat="48.45082" lon="7.13768">
        <ele>802</ele>
        <time>2019-05-15T08:52:41.063Z</time>
      </trkpt>
      <trkpt lat="48.45082" lon="7.13767">
        <ele>802</ele>
        <time>2019-05-15T08:52:42.063Z</time>
      </trkpt>
      <trkpt lat="48.45082" lon="7.13767">
        <ele>803</ele>
        <time>2019-05-15T08:52:43.063Z</time>
      </trkpt>
      <trkpt lat="48.45082" lon="7.13767">
        <ele>803</ele>
        <time>2019-05-15T08:52:44.063Z</time>
      </trkpt>
      <trkpt lat="48.45082" lon="7.13767">
        <ele>803</ele>
        <time>2019-05-15T08:52:45.063Z</time>
      </trkpt>
      <trkpt lat="48.45082" lon="7.13767">
        <ele>803</ele>
        <time>2019-05-15T08:52:46.063Z</time>
      </trkpt>
      <trkpt lat="48.45082" lon="7.13767">
        <ele>803</ele>
        <time>2019-05-15T08:52:47.063Z</time>
      </trkpt>
      <trkpt lat="48.45082" lon="7.13767">
        <ele>804</ele>
        <time>2019-05-15T08:52:48.063Z</time>
      </trkpt>
      <trkpt lat="48.45082" lon="7.13767">
        <ele>804</ele>
        <time>2019-05-15T08:52:49.063Z</time>
      </trkpt>
      <trkpt lat="48.45082" lon="7.13767">
        <ele>804</ele>
        <time>2019-05-15T08:52:50.063Z</time>
      </trkpt>
      <trkpt lat="48.45082" lon="7.13767">
        <ele>804</ele>
        <time>2019-05-15T08:52:51.063Z</time>
      </trkpt>
      <trkpt lat="48.45082" lon="7.13767">
        <ele>805</ele>
        <time>2019-05-15T08:52:52.063Z</time>
      </trkpt>
      <trkpt lat="48.45082" lon="7.13766">
        <ele>805</ele>
        <time>2019-05-15T08:52:53.063Z</time>
      </trkpt>
      <trkpt lat="48.45082" lon="7.13766">
        <ele>805</ele>
        <time>2019-05-15T08:52:54.063Z</time>
      </trkpt>
      <trkpt lat="48.45082" lon="7.13766">
        <ele>805</ele>
        <time>2019-05-15T08:52:55.063Z</time>
      </trkpt>
      <trkpt lat="48.45082" lon="7.13766">
        <ele>805</ele>
        <time>2019-05-15T08:52:56.063Z</time>
      </trkpt>
      <trkpt lat="48.45081" lon="7.13766">
        <ele>805</ele>
        <time>2019-05-15T08:52:57.063Z</time>
      </trkpt>
      <trkpt lat="48.45081" lon="7.13766">
        <ele>804</ele>
        <time>2019-05-15T08:52:58.063Z</time>
      </trkpt>
      <trkpt lat="48.45081" lon="7.13766">
        <ele>804</ele>
        <time>2019-05-15T08:52:59.063Z</time>
      </trkpt>
      <trkpt lat="48.45081" lon="7.13766">
        <ele>805</ele>
        <time>2019-05-15T08:53:00.063Z</time>
      </trkpt>
      <trkpt lat="48.45081" lon="7.13766">
        <ele>805</ele>
        <time>2019-05-15T08:53:01.063Z</time>
      </trkpt>
      <trkpt lat="48.45081" lon="7.13766">
        <ele>805</ele>
        <time>2019-05-15T08:53:02.063Z</time>
      </trkpt>
      <trkpt lat="48.45081" lon="7.13766">
        <ele>805</ele>
        <time>2019-05-15T08:53:03.063Z</time>
      </trkpt>
      <trkpt lat="48.45081" lon="7.13766">
        <ele>806</ele>
        <time>2019-05-15T08:53:04.063Z</time>
      </trkpt>
      <trkpt lat="48.45081" lon="7.13766">
        <ele>806</ele>
        <time>2019-05-15T08:53:05.063Z</time>
      </trkpt>
      <trkpt lat="48.4508" lon="7.13766">
        <ele>806</ele>
        <time>2019-05-15T08:53:06.063Z</time>
      </trkpt>
      <trkpt lat="48.4508" lon="7.13766">
        <ele>806</ele>
        <time>2019-05-15T08:53:07.063Z</time>
      </trkpt>
      <trkpt lat="48.4508" lon="7.13766">
        <ele>806</ele>
        <time>2019-05-15T08:53:08.063Z</time>
      </trkpt>
      <trkpt lat="48.4508" lon="7.13765">
        <ele>806</ele>
        <time>2019-05-15T08:53:09.063Z</time>
      </trkpt>
      <trkpt lat="48.4508" lon="7.13765">
        <ele>806</ele>
        <time>2019-05-15T08:53:10.063Z</time>
      </trkpt>
      <trkpt lat="48.4508" lon="7.13764">
        <ele>806</ele>
        <time>2019-05-15T08:53:11.063Z</time>
      </trkpt>
      <trkpt lat="48.45081" lon="7.13763">
        <ele>806</ele>
        <time>2019-05-15T08:53:12.063Z</time>
      </trkpt>
      <trkpt lat="48.45081" lon="7.13762">
        <ele>806</ele>
        <time>2019-05-15T08:53:13.063Z</time>
      </trkpt>
      <trkpt lat="48.45081" lon="7.13762">
        <ele>806</ele>
        <time>2019-05-15T08:53:14.063Z</time>
      </trkpt>
      <trkpt lat="48.45081" lon="7.13761">
        <ele>806</ele>
        <time>2019-05-15T08:53:15.063Z</time>
      </trkpt>
      <trkpt lat="48.45081" lon="7.13759">
        <ele>806</ele>
        <time>2019-05-15T08:53:16.063Z</time>
      </trkpt>
      <trkpt lat="48.45081" lon="7.13759">
        <ele>806</ele>
        <time>2019-05-15T08:53:17.063Z</time>
      </trkpt>
      <trkpt lat="48.45081" lon="7.13758">
        <ele>806</ele>
        <time>2019-05-15T08:53:18.063Z</time>
      </trkpt>
      <trkpt lat="48.45081" lon="7.13758">
        <ele>807</ele>
        <time>2019-05-15T08:53:19.063Z</time>
      </trkpt>
      <trkpt lat="48.45081" lon="7.13758">
        <ele>807</ele>
        <time>2019-05-15T08:53:20.063Z</time>
      </trkpt>
      <trkpt lat="48.45081" lon="7.13758">
        <ele>807</ele>
        <time>2019-05-15T08:53:21.063Z</time>
      </trkpt>
      <trkpt lat="48.45081" lon="7.13758">
        <ele>806</ele>
        <time>2019-05-15T08:53:22.063Z</time>
      </trkpt>
      <trkpt lat="48.45081" lon="7.13757">
        <ele>806</ele>
        <time>2019-05-15T08:53:23.063Z</time>
      </trkpt>
      <trkpt lat="48.45081" lon="7.13757">
        <ele>806</ele>
        <time>2019-05-15T08:53:24.063Z</time>
      </trkpt>
      <trkpt lat="48.45081" lon="7.13757">
        <ele>806</ele>
        <time>2019-05-15T08:53:25.063Z</time>
      </trkpt>
      <trkpt lat="48.45081" lon="7.13757">
        <ele>806</ele>
        <time>2019-05-15T08:53:26.063Z</time>
      </trkpt>
      <trkpt lat="48.45081" lon="7.13756">
        <ele>807</ele>
        <time>2019-05-15T08:53:27.063Z</time>
      </trkpt>
      <trkpt lat="48.45081" lon="7.13756">
        <ele>807</ele>
        <time>2019-05-15T08:53:28.063Z</time>
      </trkpt>
      <trkpt lat="48.45081" lon="7.13756">
        <ele>807</ele>
        <time>2019-05-15T08:53:29.063Z</time>
      </trkpt>
      <trkpt lat="48.45081" lon="7.13756">
        <ele>807</ele>
        <time>2019-05-15T08:53:30.063Z</time>
      </trkpt>
      <trkpt lat="48.45081" lon="7.13755">
        <ele>807</ele>
        <time>2019-05-15T08:53:31.063Z</time>
      </trkpt>
      <trkpt lat="48.45081" lon="7.13755">
        <ele>808</ele>
        <time>2019-05-15T08:53:32.063Z</time>
      </trkpt>
      <trkpt lat="48.45082" lon="7.13754">
        <ele>808</ele>
        <time>2019-05-15T08:53:33.063Z</time>
      </trkpt>
      <trkpt lat="48.45082" lon="7.13754">
        <ele>808</ele>
        <time>2019-05-15T08:53:34.063Z</time>
      </trkpt>
      <trkpt lat="48.45082" lon="7.13754">
        <ele>808</ele>
        <time>2019-05-15T08:53:35.063Z</time>
      </trkpt>
      <trkpt lat="48.45082" lon="7.13754">
        <ele>808</ele>
        <time>2019-05-15T08:53:36.063Z</time>
      </trkpt>
      <trkpt lat="48.45082" lon="7.13755">
        <ele>808</ele>
        <time>2019-05-15T08:53:37.063Z</time>
      </trkpt>
      <trkpt lat="48.45082" lon="7.13755">
        <ele>807</ele>
        <time>2019-05-15T08:53:38.063Z</time>
      </trkpt>
      <trkpt lat="48.45082" lon="7.13756">
        <ele>807</ele>
        <time>2019-05-15T08:53:39.063Z</time>
      </trkpt>
      <trkpt lat="48.45082" lon="7.13756">
        <ele>807</ele>
        <time>2019-05-15T08:53:40.063Z</time>
      </trkpt>
      <trkpt lat="48.45082" lon="7.13756">
        <ele>807</ele>
        <time>2019-05-15T08:53:41.063Z</time>
      </trkpt>
      <trkpt lat="48.45082" lon="7.13756">
        <ele>806</ele>
        <time>2019-05-15T08:53:42.063Z</time>
      </trkpt>
      <trkpt lat="48.45082" lon="7.13756">
        <ele>806</ele>
        <time>2019-05-15T08:53:43.063Z</time>
      </trkpt>
      <trkpt lat="48.45082" lon="7.13756">
        <ele>806</ele>
        <time>2019-05-15T08:53:44.063Z</time>
      </trkpt>
      <trkpt lat="48.45082" lon="7.13756">
        <ele>806</ele>
        <time>2019-05-15T08:53:45.063Z</time>
      </trkpt>
      <trkpt lat="48.45082" lon="7.13756">
        <ele>806</ele>
        <time>2019-05-15T08:53:46.063Z</time>
      </trkpt>
      <trkpt lat="48.45082" lon="7.13756">
        <ele>806</ele>
        <time>2019-05-15T08:53:47.063Z</time>
      </trkpt>
      <trkpt lat="48.45082" lon="7.13756">
        <ele>806</ele>
        <time>2019-05-15T08:53:48.063Z</time>
      </trkpt>
      <trkpt lat="48.45082" lon="7.13756">
        <ele>806</ele>
        <time>2019-05-15T08:53:49.063Z</time>
      </trkpt>
      <trkpt lat="48.45083" lon="7.13756">
        <ele>806</ele>
        <time>2019-05-15T08:53:50.063Z</time>
      </trkpt>
      <trkpt lat="48.45083" lon="7.13756">
        <ele>806</ele>
        <time>2019-05-15T08:53:51.063Z</time>
      </trkpt>
      <trkpt lat="48.45083" lon="7.13756">
        <ele>806</ele>
        <time>2019-05-15T08:53:52.063Z</time>
      </trkpt>
      <trkpt lat="48.45083" lon="7.13756">
        <ele>806</ele>
        <time>2019-05-15T08:53:53.063Z</time>
      </trkpt>
      <trkpt lat="48.45083" lon="7.13756">
        <ele>806</ele>
        <time>2019-05-15T08:53:54.063Z</time>
      </trkpt>
      <trkpt lat="48.45083" lon="7.13756">
        <ele>806</ele>
        <time>2019-05-15T08:53:55.063Z</time>
      </trkpt>
      <trkpt lat="48.45084" lon="7.13756">
        <ele>806</ele>
        <time>2019-05-15T08:53:56.063Z</time>
      </trkpt>
      <trkpt lat="48.45084" lon="7.13756">
        <ele>806</ele>
        <time>2019-05-15T08:53:57.063Z</time>
      </trkpt>
      <trkpt lat="48.45084" lon="7.13756">
        <ele>807</ele>
        <time>2019-05-15T08:53:58.063Z</time>
      </trkpt>
      <trkpt lat="48.45084" lon="7.13756">
        <ele>807</ele>
        <time>2019-05-15T08:53:59.063Z</time>
      </trkpt>
      <trkpt lat="48.45084" lon="7.13756">
        <ele>807</ele>
        <time>2019-05-15T08:54:00.063Z</time>
      </trkpt>
      <trkpt lat="48.45084" lon="7.13756">
        <ele>807</ele>
        <time>2019-05-15T08:54:01.063Z</time>
      </trkpt>
      <trkpt lat="48.45084" lon="7.13756">
        <ele>807</ele>
        <time>2019-05-15T08:54:02.063Z</time>
      </trkpt>
      <trkpt lat="48.45084" lon="7.13755">
        <ele>807</ele>
        <time>2019-05-15T08:54:03.063Z</time>
      </trkpt>
      <trkpt lat="48.45084" lon="7.13755">
        <ele>807</ele>
        <time>2019-05-15T08:54:04.063Z</time>
      </trkpt>
      <trkpt lat="48.45084" lon="7.13755">
        <ele>807</ele>
        <time>2019-05-15T08:54:05.063Z</time>
      </trkpt>
      <trkpt lat="48.45084" lon="7.13755">
        <ele>807</ele>
        <time>2019-05-15T08:54:06.063Z</time>
      </trkpt>
      <trkpt lat="48.45084" lon="7.13756">
        <ele>807</ele>
        <time>2019-05-15T08:54:07.063Z</time>
      </trkpt>
      <trkpt lat="48.45084" lon="7.13756">
        <ele>807</ele>
        <time>2019-05-15T08:54:08.063Z</time>
      </trkpt>
      <trkpt lat="48.45084" lon="7.13756">
        <ele>807</ele>
        <time>2019-05-15T08:54:09.063Z</time>
      </trkpt>
      <trkpt lat="48.45084" lon="7.13756">
        <ele>807</ele>
        <time>2019-05-15T08:54:10.063Z</time>
      </trkpt>
      <trkpt lat="48.45084" lon="7.13756">
        <ele>807</ele>
        <time>2019-05-15T08:54:11.063Z</time>
      </trkpt>
      <trkpt lat="48.45084" lon="7.13756">
        <ele>807</ele>
        <time>2019-05-15T08:54:12.063Z</time>
      </trkpt>
      <trkpt lat="48.45084" lon="7.13756">
        <ele>807</ele>
        <time>2019-05-15T08:54:13.063Z</time>
      </trkpt>
      <trkpt lat="48.45084" lon="7.13755">
        <ele>807</ele>
        <time>2019-05-15T08:54:14.063Z</time>
      </trkpt>
      <trkpt lat="48.45084" lon="7.13755">
        <ele>807</ele>
        <time>2019-05-15T08:54:15.063Z</time>
      </trkpt>
      <trkpt lat="48.45084" lon="7.13756">
        <ele>806</ele>
        <time>2019-05-15T08:54:16.063Z</time>
      </trkpt>
      <trkpt lat="48.45084" lon="7.13756">
        <ele>806</ele>
        <time>2019-05-15T08:54:17.063Z</time>
      </trkpt>
      <trkpt lat="48.45084" lon="7.13756">
        <ele>806</ele>
        <time>2019-05-15T08:54:18.063Z</time>
      </trkpt>
      <trkpt lat="48.45084" lon="7.13756">
        <ele>807</ele>
        <time>2019-05-15T08:54:19.063Z</time>
      </trkpt>
      <trkpt lat="48.45084" lon="7.13756">
        <ele>807</ele>
        <time>2019-05-15T08:54:20.063Z</time>
      </trkpt>
      <trkpt lat="48.45084" lon="7.13755">
        <ele>807</ele>
        <time>2019-05-15T08:54:21.063Z</time>
      </trkpt>
      <trkpt lat="48.45084" lon="7.13755">
        <ele>807</ele>
        <time>2019-05-15T08:54:22.063Z</time>
      </trkpt>
      <trkpt lat="48.45084" lon="7.13755">
        <ele>807</ele>
        <time>2019-05-15T08:54:23.063Z</time>
      </trkpt>
      <trkpt lat="48.45085" lon="7.13755">
        <ele>807</ele>
        <time>2019-05-15T08:54:24.063Z</time>
      </trkpt>
      <trkpt lat="48.45085" lon="7.13755">
        <ele>807</ele>
        <time>2019-05-15T08:54:25.063Z</time>
      </trkpt>
      <trkpt lat="48.45085" lon="7.13755">
        <ele>807</ele>
        <time>2019-05-15T08:54:26.063Z</time>
      </trkpt>
      <trkpt lat="48.45085" lon="7.13755">
        <ele>807</ele>
        <time>2019-05-15T08:54:27.063Z</time>
      </trkpt>
      <trkpt lat="48.45085" lon="7.13755">
        <ele>807</ele>
        <time>2019-05-15T08:54:28.063Z</time>
      </trkpt>
      <trkpt lat="48.45085" lon="7.13755">
        <ele>807</ele>
        <time>2019-05-15T08:54:29.063Z</time>
      </trkpt>
      <trkpt lat="48.45085" lon="7.13755">
        <ele>807</ele>
        <time>2019-05-15T08:54:30.063Z</time>
      </trkpt>
      <trkpt lat="48.45085" lon="7.13755">
        <ele>807</ele>
        <time>2019-05-15T08:54:31.063Z</time>
      </trkpt>
      <trkpt lat="48.45085" lon="7.13755">
        <ele>807</ele>
        <time>2019-05-15T08:54:32.063Z</time>
      </trkpt>
      <trkpt lat="48.45085" lon="7.13755">
        <ele>807</ele>
        <time>2019-05-15T08:54:33.063Z</time>
      </trkpt>
      <trkpt lat="48.45085" lon="7.13755">
        <ele>807</ele>
        <time>2019-05-15T08:54:34.063Z</time>
      </trkpt>
      <trkpt lat="48.45085" lon="7.13755">
        <ele>807</ele>
        <time>2019-05-15T08:54:35.063Z</time>
      </trkpt>
      <trkpt lat="48.45085" lon="7.13755">
        <ele>807</ele>
        <time>2019-05-15T08:54:36.063Z</time>
      </trkpt>
      <trkpt lat="48.45085" lon="7.13755">
        <ele>806</ele>
        <time>2019-05-15T08:54:37.063Z</time>
      </trkpt>
      <trkpt lat="48.45085" lon="7.13755">
        <ele>806</ele>
        <time>2019-05-15T08:54:38.063Z</time>
      </trkpt>
      <trkpt lat="48.45086" lon="7.13755">
        <ele>806</ele>
        <time>2019-05-15T08:54:39.063Z</time>
      </trkpt>
      <trkpt lat="48.45086" lon="7.13755">
        <ele>806</ele>
        <time>2019-05-15T08:54:40.063Z</time>
      </trkpt>
      <trkpt lat="48.45086" lon="7.13755">
        <ele>806</ele>
        <time>2019-05-15T08:54:41.063Z</time>
      </trkpt>
      <trkpt lat="48.45086" lon="7.13755">
        <ele>806</ele>
        <time>2019-05-15T08:54:42.063Z</time>
      </trkpt>
      <trkpt lat="48.45086" lon="7.13755">
        <ele>806</ele>
        <time>2019-05-15T08:54:43.063Z</time>
      </trkpt>
      <trkpt lat="48.45086" lon="7.13755">
        <ele>806</ele>
        <time>2019-05-15T08:54:44.063Z</time>
      </trkpt>
      <trkpt lat="48.45086" lon="7.13755">
        <ele>806</ele>
        <time>2019-05-15T08:54:45.063Z</time>
      </trkpt>
      <trkpt lat="48.45086" lon="7.13755">
        <ele>807</ele>
        <time>2019-05-15T08:54:46.063Z</time>
      </trkpt>
      <trkpt lat="48.45086" lon="7.13755">
        <ele>807</ele>
        <time>2019-05-15T08:54:47.063Z</time>
      </trkpt>
      <trkpt lat="48.45086" lon="7.13755">
        <ele>807</ele>
        <time>2019-05-15T08:54:48.063Z</time>
      </trkpt>
      <trkpt lat="48.45086" lon="7.13755">
        <ele>807</ele>
        <time>2019-05-15T08:54:49.063Z</time>
      </trkpt>
      <trkpt lat="48.45086" lon="7.13755">
        <ele>807</ele>
        <time>2019-05-15T08:54:50.063Z</time>
      </trkpt>
      <trkpt lat="48.45086" lon="7.13755">
        <ele>807</ele>
        <time>2019-05-15T08:54:51.063Z</time>
      </trkpt>
      <trkpt lat="48.45086" lon="7.13755">
        <ele>807</ele>
        <time>2019-05-15T08:54:52.063Z</time>
      </trkpt>
      <trkpt lat="48.45087" lon="7.13755">
        <ele>807</ele>
        <time>2019-05-15T08:54:53.063Z</time>
      </trkpt>
      <trkpt lat="48.45087" lon="7.13755">
        <ele>807</ele>
        <time>2019-05-15T08:54:54.063Z</time>
      </trkpt>
      <trkpt lat="48.45087" lon="7.13755">
        <ele>807</ele>
        <time>2019-05-15T08:54:55.063Z</time>
      </trkpt>
      <trkpt lat="48.45087" lon="7.13755">
        <ele>807</ele>
        <time>2019-05-15T08:54:56.063Z</time>
      </trkpt>
      <trkpt lat="48.45087" lon="7.13755">
        <ele>807</ele>
        <time>2019-05-15T08:54:57.063Z</time>
      </trkpt>
      <trkpt lat="48.45087" lon="7.13755">
        <ele>807</ele>
        <time>2019-05-15T08:54:58.063Z</time>
      </trkpt>
      <trkpt lat="48.45087" lon="7.13755">
        <ele>808</ele>
        <time>2019-05-15T08:54:59.063Z</time>
      </trkpt>
      <trkpt lat="48.45087" lon="7.13755">
        <ele>808</ele>
        <time>2019-05-15T08:55:00.063Z</time>
      </trkpt>
      <trkpt lat="48.45087" lon="7.13755">
        <ele>809</ele>
        <time>2019-05-15T08:55:01.063Z</time>
      </trkpt>
      <trkpt lat="48.45087" lon="7.13755">
        <ele>809</ele>
        <time>2019-05-15T08:55:02.063Z</time>
      </trkpt>
      <trkpt lat="48.45087" lon="7.13755">
        <ele>809</ele>
        <time>2019-05-15T08:55:03.063Z</time>
      </trkpt>
      <trkpt lat="48.45087" lon="7.13755">
        <ele>809</ele>
        <time>2019-05-15T08:55:04.063Z</time>
      </trkpt>
      <trkpt lat="48.45087" lon="7.13755">
        <ele>809</ele>
        <time>2019-05-15T08:55:05.063Z</time>
      </trkpt>
      <trkpt lat="48.45087" lon="7.13755">
        <ele>809</ele>
        <time>2019-05-15T08:55:06.063Z</time>
      </trkpt>
      <trkpt lat="48.45087" lon="7.13754">
        <ele>809</ele>
        <time>2019-05-15T08:55:07.063Z</time>
      </trkpt>
      <trkpt lat="48.45087" lon="7.13754">
        <ele>809</ele>
        <time>2019-05-15T08:55:08.063Z</time>
      </trkpt>
      <trkpt lat="48.45087" lon="7.13754">
        <ele>809</ele>
        <time>2019-05-15T08:55:09.063Z</time>
      </trkpt>
      <trkpt lat="48.45087" lon="7.13754">
        <ele>809</ele>
        <time>2019-05-15T08:55:10.063Z</time>
      </trkpt>
      <trkpt lat="48.45087" lon="7.13754">
        <ele>809</ele>
        <time>2019-05-15T08:55:11.063Z</time>
      </trkpt>
      <trkpt lat="48.45087" lon="7.13754">
        <ele>809</ele>
        <time>2019-05-15T08:55:12.063Z</time>
      </trkpt>
      <trkpt lat="48.45087" lon="7.13753">
        <ele>809</ele>
        <time>2019-05-15T08:55:13.063Z</time>
      </trkpt>
      <trkpt lat="48.45087" lon="7.13753">
        <ele>809</ele>
        <time>2019-05-15T08:55:14.063Z</time>
      </trkpt>
      <trkpt lat="48.45087" lon="7.13753">
        <ele>809</ele>
        <time>2019-05-15T08:55:15.063Z</time>
      </trkpt>
      <trkpt lat="48.45087" lon="7.13754">
        <ele>809</ele>
        <time>2019-05-15T08:55:16.063Z</time>
      </trkpt>
      <trkpt lat="48.45087" lon="7.13754">
        <ele>809</ele>
        <time>2019-05-15T08:55:17.063Z</time>
      </trkpt>
      <trkpt lat="48.45087" lon="7.13754">
        <ele>810</ele>
        <time>2019-05-15T08:55:18.063Z</time>
      </trkpt>
      <trkpt lat="48.45087" lon="7.13754">
        <ele>810</ele>
        <time>2019-05-15T08:55:19.063Z</time>
      </trkpt>
      <trkpt lat="48.45086" lon="7.13754">
        <ele>810</ele>
        <time>2019-05-15T08:55:20.063Z</time>
      </trkpt>
      <trkpt lat="48.45086" lon="7.13754">
        <ele>809</ele>
        <time>2019-05-15T08:55:21.063Z</time>
      </trkpt>
      <trkpt lat="48.45086" lon="7.13754">
        <ele>809</ele>
        <time>2019-05-15T08:55:22.063Z</time>
      </trkpt>
      <trkpt lat="48.45086" lon="7.13754">
        <ele>809</ele>
        <time>2019-05-15T08:55:23.063Z</time>
      </trkpt>
      <trkpt lat="48.45086" lon="7.13754">
        <ele>809</ele>
        <time>2019-05-15T08:55:24.063Z</time>
      </trkpt>
      <trkpt lat="48.45086" lon="7.13754">
        <ele>809</ele>
        <time>2019-05-15T08:55:25.063Z</time>
      </trkpt>
      <trkpt lat="48.45086" lon="7.13754">
        <ele>809</ele>
        <time>2019-05-15T08:55:26.063Z</time>
      </trkpt>
      <trkpt lat="48.45086" lon="7.13754">
        <ele>809</ele>
        <time>2019-05-15T08:55:27.063Z</time>
      </trkpt>
      <trkpt lat="48.45086" lon="7.13754">
        <ele>809</ele>
        <time>2019-05-15T08:55:28.063Z</time>
      </trkpt>
      <trkpt lat="48.45086" lon="7.13754">
        <ele>809</ele>
        <time>2019-05-15T08:55:29.063Z</time>
      </trkpt>
      <trkpt lat="48.45086" lon="7.13754">
        <ele>809</ele>
        <time>2019-05-15T08:55:30.063Z</time>
      </trkpt>
      <trkpt lat="48.45086" lon="7.13754">
        <ele>809</ele>
        <time>2019-05-15T08:55:31.063Z</time>
      </trkpt>
      <trkpt lat="48.45086" lon="7.13754">
        <ele>809</ele>
        <time>2019-05-15T08:55:32.063Z</time>
      </trkpt>
      <trkpt lat="48.45086" lon="7.13754">
        <ele>809</ele>
        <time>2019-05-15T08:55:33.063Z</time>
      </trkpt>
      <trkpt lat="48.45086" lon="7.13755">
        <ele>808</ele>
        <time>2019-05-15T08:55:34.063Z</time>
      </trkpt>
      <trkpt lat="48.45086" lon="7.13755">
        <ele>808</ele>
        <time>2019-05-15T08:55:35.063Z</time>
      </trkpt>
      <trkpt lat="48.45086" lon="7.13755">
        <ele>808</ele>
        <time>2019-05-15T08:55:36.063Z</time>
      </trkpt>
      <trkpt lat="48.45086" lon="7.13755">
        <ele>808</ele>
        <time>2019-05-15T08:55:37.063Z</time>
      </trkpt>
      <trkpt lat="48.45086" lon="7.13755">
        <ele>807</ele>
        <time>2019-05-15T08:55:38.063Z</time>
      </trkpt>
      <trkpt lat="48.45085" lon="7.13755">
        <ele>807</ele>
        <time>2019-05-15T08:55:39.063Z</time>
      </trkpt>
      <trkpt lat="48.45085" lon="7.13755">
        <ele>807</ele>
        <time>2019-05-15T08:55:40.063Z</time>
      </trkpt>
      <trkpt lat="48.45085" lon="7.13755">
        <ele>806</ele>
        <time>2019-05-15T08:55:41.063Z</time>
      </trkpt>
      <trkpt lat="48.45085" lon="7.13755">
        <ele>806</ele>
        <time>2019-05-15T08:55:42.063Z</time>
      </trkpt>
      <trkpt lat="48.45085" lon="7.13755">
        <ele>806</ele>
        <time>2019-05-15T08:55:43.063Z</time>
      </trkpt>
      <trkpt lat="48.45085" lon="7.13755">
        <ele>806</ele>
        <time>2019-05-15T08:55:44.063Z</time>
      </trkpt>
      <trkpt lat="48.45085" lon="7.13755">
        <ele>806</ele>
        <time>2019-05-15T08:55:45.063Z</time>
      </trkpt>
      <trkpt lat="48.45085" lon="7.13755">
        <ele>806</ele>
        <time>2019-05-15T08:55:46.063Z</time>
      </trkpt>
      <trkpt lat="48.45085" lon="7.13755">
        <ele>806</ele>
        <time>2019-05-15T08:55:47.063Z</time>
      </trkpt>
      <trkpt lat="48.45085" lon="7.13755">
        <ele>806</ele>
        <time>2019-05-15T08:55:48.063Z</time>
      </trkpt>
      <trkpt lat="48.45085" lon="7.13755">
        <ele>805</ele>
        <time>2019-05-15T08:55:49.063Z</time>
      </trkpt>
      <trkpt lat="48.45086" lon="7.13755">
        <ele>805</ele>
        <time>2019-05-15T08:55:50.063Z</time>
      </trkpt>
      <trkpt lat="48.45086" lon="7.13755">
        <ele>805</ele>
        <time>2019-05-15T08:55:51.063Z</time>
      </trkpt>
      <trkpt lat="48.45086" lon="7.13755">
        <ele>805</ele>
        <time>2019-05-15T08:55:52.063Z</time>
      </trkpt>
      <trkpt lat="48.45086" lon="7.13755">
        <ele>805</ele>
        <time>2019-05-15T08:55:53.063Z</time>
      </trkpt>
      <trkpt lat="48.45085" lon="7.13755">
        <ele>805</ele>
        <time>2019-05-15T08:55:54.063Z</time>
      </trkpt>
      <trkpt lat="48.45085" lon="7.13755">
        <ele>806</ele>
        <time>2019-05-15T08:55:55.063Z</time>
      </trkpt>
      <trkpt lat="48.45085" lon="7.13755">
        <ele>805</ele>
        <time>2019-05-15T08:55:56.063Z</time>
      </trkpt>
      <trkpt lat="48.45085" lon="7.13755">
        <ele>806</ele>
        <time>2019-05-15T08:55:57.063Z</time>
      </trkpt>
      <trkpt lat="48.45085" lon="7.13755">
        <ele>806</ele>
        <time>2019-05-15T08:55:58.063Z</time>
      </trkpt>
      <trkpt lat="48.45085" lon="7.13755">
        <ele>806</ele>
        <time>2019-05-15T08:55:59.063Z</time>
      </trkpt>
      <trkpt lat="48.45085" lon="7.13755">
        <ele>806</ele>
        <time>2019-05-15T08:56:00.063Z</time>
      </trkpt>
      <trkpt lat="48.45084" lon="7.13756">
        <ele>806</ele>
        <time>2019-05-15T08:56:01.063Z</time>
      </trkpt>
      <trkpt lat="48.45084" lon="7.13756">
        <ele>806</ele>
        <time>2019-05-15T08:56:02.063Z</time>
      </trkpt>
      <trkpt lat="48.45084" lon="7.13756">
        <ele>806</ele>
        <time>2019-05-15T08:56:03.063Z</time>
      </trkpt>
      <trkpt lat="48.45084" lon="7.13756">
        <ele>806</ele>
        <time>2019-05-15T08:56:04.063Z</time>
      </trkpt>
      <trkpt lat="48.45084" lon="7.13755">
        <ele>806</ele>
        <time>2019-05-15T08:56:05.063Z</time>
      </trkpt>
      <trkpt lat="48.45084" lon="7.13755">
        <ele>807</ele>
        <time>2019-05-15T08:56:06.063Z</time>
      </trkpt>
      <trkpt lat="48.45084" lon="7.13755">
        <ele>807</ele>
        <time>2019-05-15T08:56:07.063Z</time>
      </trkpt>
      <trkpt lat="48.45084" lon="7.13755">
        <ele>807</ele>
        <time>2019-05-15T08:56:08.063Z</time>
      </trkpt>
      <trkpt lat="48.45083" lon="7.13754">
        <ele>807</ele>
        <time>2019-05-15T08:56:09.063Z</time>
      </trkpt>
      <trkpt lat="48.45084" lon="7.13754">
        <ele>807</ele>
        <time>2019-05-15T08:56:10.063Z</time>
      </trkpt>
      <trkpt lat="48.45084" lon="7.13754">
        <ele>807</ele>
        <time>2019-05-15T08:56:11.063Z</time>
      </trkpt>
      <trkpt lat="48.45084" lon="7.13754">
        <ele>807</ele>
        <time>2019-05-15T08:56:12.063Z</time>
      </trkpt>
      <trkpt lat="48.45084" lon="7.13754">
        <ele>807</ele>
        <time>2019-05-15T08:56:13.063Z</time>
      </trkpt>
      <trkpt lat="48.45084" lon="7.13754">
        <ele>807</ele>
        <time>2019-05-15T08:56:14.063Z</time>
      </trkpt>
      <trkpt lat="48.45084" lon="7.13754">
        <ele>807</ele>
        <time>2019-05-15T08:56:15.063Z</time>
      </trkpt>
      <trkpt lat="48.45084" lon="7.13754">
        <ele>807</ele>
        <time>2019-05-15T08:56:16.063Z</time>
      </trkpt>
      <trkpt lat="48.45084" lon="7.13754">
        <ele>806</ele>
        <time>2019-05-15T08:56:17.063Z</time>
      </trkpt>
      <trkpt lat="48.45084" lon="7.13754">
        <ele>806</ele>
        <time>2019-05-15T08:56:18.063Z</time>
      </trkpt>
      <trkpt lat="48.45084" lon="7.13754">
        <ele>807</ele>
        <time>2019-05-15T08:56:19.063Z</time>
      </trkpt>
      <trkpt lat="48.45084" lon="7.13754">
        <ele>807</ele>
        <time>2019-05-15T08:56:20.063Z</time>
      </trkpt>
      <trkpt lat="48.45084" lon="7.13754">
        <ele>807</ele>
        <time>2019-05-15T08:56:21.063Z</time>
      </trkpt>
      <trkpt lat="48.45084" lon="7.13754">
        <ele>807</ele>
        <time>2019-05-15T08:56:22.063Z</time>
      </trkpt>
      <trkpt lat="48.45084" lon="7.13754">
        <ele>807</ele>
        <time>2019-05-15T08:56:23.063Z</time>
      </trkpt>
      <trkpt lat="48.45084" lon="7.13754">
        <ele>808</ele>
        <time>2019-05-15T08:56:24.063Z</time>
      </trkpt>
      <trkpt lat="48.45084" lon="7.13755">
        <ele>807</ele>
        <time>2019-05-15T08:56:25.063Z</time>
      </trkpt>
      <trkpt lat="48.45084" lon="7.13756">
        <ele>807</ele>
        <time>2019-05-15T08:56:26.063Z</time>
      </trkpt>
      <trkpt lat="48.45084" lon="7.13758">
        <ele>807</ele>
        <time>2019-05-15T08:56:27.063Z</time>
      </trkpt>
      <trkpt lat="48.45084" lon="7.13758">
        <ele>807</ele>
        <time>2019-05-15T08:56:28.063Z</time>
      </trkpt>
      <trkpt lat="48.45084" lon="7.13759">
        <ele>807</ele>
        <time>2019-05-15T08:56:29.063Z</time>
      </trkpt>
      <trkpt lat="48.45084" lon="7.13759">
        <ele>807</ele>
        <time>2019-05-15T08:56:30.063Z</time>
      </trkpt>
      <trkpt lat="48.45084" lon="7.13759">
        <ele>807</ele>
        <time>2019-05-15T08:56:31.063Z</time>
      </trkpt>
      <trkpt lat="48.45084" lon="7.1376">
        <ele>806</ele>
        <time>2019-05-15T08:56:32.063Z</time>
      </trkpt>
      <trkpt lat="48.45084" lon="7.1376">
        <ele>806</ele>
        <time>2019-05-15T08:56:33.063Z</time>
      </trkpt>
      <trkpt lat="48.45084" lon="7.1376">
        <ele>806</ele>
        <time>2019-05-15T08:56:34.063Z</time>
      </trkpt>
      <trkpt lat="48.45084" lon="7.1376">
        <ele>807</ele>
        <time>2019-05-15T08:56:35.063Z</time>
      </trkpt>
      <trkpt lat="48.45084" lon="7.1376">
        <ele>807</ele>
        <time>2019-05-15T08:56:36.063Z</time>
      </trkpt>
      <trkpt lat="48.45084" lon="7.1376">
        <ele>807</ele>
        <time>2019-05-15T08:56:37.063Z</time>
      </trkpt>
      <trkpt lat="48.45084" lon="7.13761">
        <ele>807</ele>
        <time>2019-05-15T08:56:38.063Z</time>
      </trkpt>
      <trkpt lat="48.45084" lon="7.13761">
        <ele>807</ele>
        <time>2019-05-15T08:56:39.063Z</time>
      </trkpt>
      <trkpt lat="48.45084" lon="7.13761">
        <ele>807</ele>
        <time>2019-05-15T08:56:40.063Z</time>
      </trkpt>
      <trkpt lat="48.45084" lon="7.13761">
        <ele>807</ele>
        <time>2019-05-15T08:56:41.063Z</time>
      </trkpt>
      <trkpt lat="48.45084" lon="7.13761">
        <ele>807</ele>
        <time>2019-05-15T08:56:42.063Z</time>
      </trkpt>
      <trkpt lat="48.45084" lon="7.13761">
        <ele>807</ele>
        <time>2019-05-15T08:56:43.063Z</time>
      </trkpt>
      <trkpt lat="48.45083" lon="7.13761">
        <ele>807</ele>
        <time>2019-05-15T08:56:44.063Z</time>
      </trkpt>
      <trkpt lat="48.45083" lon="7.13761">
        <ele>807</ele>
        <time>2019-05-15T08:56:45.063Z</time>
      </trkpt>
      <trkpt lat="48.45083" lon="7.13762">
        <ele>807</ele>
        <time>2019-05-15T08:56:46.063Z</time>
      </trkpt>
      <trkpt lat="48.45083" lon="7.13762">
        <ele>807</ele>
        <time>2019-05-15T08:56:47.063Z</time>
      </trkpt>
      <trkpt lat="48.45083" lon="7.13762">
        <ele>807</ele>
        <time>2019-05-15T08:56:48.063Z</time>
      </trkpt>
      <trkpt lat="48.45083" lon="7.13762">
        <ele>807</ele>
        <time>2019-05-15T08:56:49.063Z</time>
      </trkpt>
      <trkpt lat="48.45083" lon="7.13762">
        <ele>807</ele>
        <time>2019-05-15T08:56:50.063Z</time>
      </trkpt>
      <trkpt lat="48.45083" lon="7.13762">
        <ele>807</ele>
        <time>2019-05-15T08:56:51.063Z</time>
      </trkpt>
      <trkpt lat="48.45083" lon="7.13763">
        <ele>807</ele>
        <time>2019-05-15T08:56:52.063Z</time>
      </trkpt>
      <trkpt lat="48.45083" lon="7.13763">
        <ele>807</ele>
        <time>2019-05-15T08:56:53.063Z</time>
      </trkpt>
      <trkpt lat="48.45083" lon="7.13763">
        <ele>807</ele>
        <time>2019-05-15T08:56:54.063Z</time>
      </trkpt>
      <trkpt lat="48.45083" lon="7.13763">
        <ele>807</ele>
        <time>2019-05-15T08:56:55.063Z</time>
      </trkpt>
      <trkpt lat="48.45083" lon="7.13763">
        <ele>807</ele>
        <time>2019-05-15T08:56:56.063Z</time>
      </trkpt>
      <trkpt lat="48.45083" lon="7.13763">
        <ele>807</ele>
        <time>2019-05-15T08:56:57.063Z</time>
      </trkpt>
      <trkpt lat="48.45083" lon="7.13763">
        <ele>807</ele>
        <time>2019-05-15T08:56:58.063Z</time>
      </trkpt>
      <trkpt lat="48.45083" lon="7.13763">
        <ele>808</ele>
        <time>2019-05-15T08:56:59.063Z</time>
      </trkpt>
      <trkpt lat="48.45083" lon="7.13764">
        <ele>808</ele>
        <time>2019-05-15T08:57:00.063Z</time>
      </trkpt>
      <trkpt lat="48.45083" lon="7.13764">
        <ele>808</ele>
        <time>2019-05-15T08:57:01.063Z</time>
      </trkpt>
      <trkpt lat="48.45083" lon="7.13764">
        <ele>808</ele>
        <time>2019-05-15T08:57:02.063Z</time>
      </trkpt>
      <trkpt lat="48.45084" lon="7.13764">
        <ele>808</ele>
        <time>2019-05-15T08:57:03.063Z</time>
      </trkpt>
      <trkpt lat="48.45084" lon="7.13764">
        <ele>808</ele>
        <time>2019-05-15T08:57:04.063Z</time>
      </trkpt>
      <trkpt lat="48.45084" lon="7.13764">
        <ele>808</ele>
        <time>2019-05-15T08:57:05.063Z</time>
      </trkpt>
      <trkpt lat="48.45083" lon="7.13764">
        <ele>808</ele>
        <time>2019-05-15T08:57:06.063Z</time>
      </trkpt>
      <trkpt lat="48.45083" lon="7.13764">
        <ele>808</ele>
        <time>2019-05-15T08:57:07.063Z</time>
      </trkpt>
      <trkpt lat="48.45083" lon="7.13763">
        <ele>807</ele>
        <time>2019-05-15T08:57:08.063Z</time>
      </trkpt>
      <trkpt lat="48.45083" lon="7.13763">
        <ele>807</ele>
        <time>2019-05-15T08:57:09.063Z</time>
      </trkpt>
      <trkpt lat="48.45083" lon="7.13763">
        <ele>807</ele>
        <time>2019-05-15T08:57:10.063Z</time>
      </trkpt>
      <trkpt lat="48.45083" lon="7.13763">
        <ele>807</ele>
        <time>2019-05-15T08:57:11.063Z</time>
      </trkpt>
      <trkpt lat="48.45083" lon="7.13763">
        <ele>807</ele>
        <time>2019-05-15T08:57:12.063Z</time>
      </trkpt>
      <trkpt lat="48.45083" lon="7.13763">
        <ele>807</ele>
        <time>2019-05-15T08:57:13.063Z</time>
      </trkpt>
      <trkpt lat="48.45083" lon="7.13764">
        <ele>807</ele>
        <time>2019-05-15T08:57:14.063Z</time>
      </trkpt>
      <trkpt lat="48.45084" lon="7.13764">
        <ele>807</ele>
        <time>2019-05-15T08:57:15.063Z</time>
      </trkpt>
      <trkpt lat="48.45084" lon="7.13764">
        <ele>807</ele>
        <time>2019-05-15T08:57:16.063Z</time>
      </trkpt>
      <trkpt lat="48.45084" lon="7.13764">
        <ele>807</ele>
        <time>2019-05-15T08:57:17.063Z</time>
      </trkpt>
      <trkpt lat="48.45084" lon="7.13764">
        <ele>807</ele>
        <time>2019-05-15T08:57:18.063Z</time>
      </trkpt>
      <trkpt lat="48.45084" lon="7.13764">
        <ele>807</ele>
        <time>2019-05-15T08:57:19.063Z</time>
      </trkpt>
      <trkpt lat="48.45084" lon="7.13764">
        <ele>807</ele>
        <time>2019-05-15T08:57:20.063Z</time>
      </trkpt>
      <trkpt lat="48.45084" lon="7.13764">
        <ele>806</ele>
        <time>2019-05-15T08:57:21.063Z</time>
      </trkpt>
      <trkpt lat="48.45084" lon="7.13764">
        <ele>807</ele>
        <time>2019-05-15T08:57:22.063Z</time>
      </trkpt>
      <trkpt lat="48.45084" lon="7.13764">
        <ele>807</ele>
        <time>2019-05-15T08:57:23.063Z</time>
      </trkpt>
      <trkpt lat="48.45084" lon="7.13764">
        <ele>807</ele>
        <time>2019-05-15T08:57:24.063Z</time>
      </trkpt>
      <trkpt lat="48.45084" lon="7.13764">
        <ele>807</ele>
        <time>2019-05-15T08:57:25.063Z</time>
      </trkpt>
      <trkpt lat="48.45084" lon="7.13764">
        <ele>807</ele>
        <time>2019-05-15T08:57:26.063Z</time>
      </trkpt>
      <trkpt lat="48.45084" lon="7.13764">
        <ele>807</ele>
        <time>2019-05-15T08:57:27.063Z</time>
      </trkpt>
      <trkpt lat="48.45084" lon="7.13764">
        <ele>806</ele>
        <time>2019-05-15T08:57:28.063Z</time>
      </trkpt>
      <trkpt lat="48.45084" lon="7.13764">
        <ele>806</ele>
        <time>2019-05-15T08:57:29.063Z</time>
      </trkpt>
      <trkpt lat="48.45084" lon="7.13764">
        <ele>806</ele>
        <time>2019-05-15T08:57:30.063Z</time>
      </trkpt>
      <trkpt lat="48.45084" lon="7.13763">
        <ele>806</ele>
        <time>2019-05-15T08:57:31.063Z</time>
      </trkpt>
      <trkpt lat="48.45084" lon="7.13763">
        <ele>806</ele>
        <time>2019-05-15T08:57:32.063Z</time>
      </trkpt>
      <trkpt lat="48.45084" lon="7.13763">
        <ele>806</ele>
        <time>2019-05-15T08:57:33.063Z</time>
      </trkpt>
      <trkpt lat="48.45084" lon="7.13763">
        <ele>805</ele>
        <time>2019-05-15T08:57:34.063Z</time>
      </trkpt>
      <trkpt lat="48.45084" lon="7.13763">
        <ele>805</ele>
        <time>2019-05-15T08:57:35.063Z</time>
      </trkpt>
      <trkpt lat="48.45084" lon="7.13763">
        <ele>805</ele>
        <time>2019-05-15T08:57:36.063Z</time>
      </trkpt>
      <trkpt lat="48.45084" lon="7.13762">
        <ele>805</ele>
        <time>2019-05-15T08:57:37.063Z</time>
      </trkpt>
      <trkpt lat="48.45084" lon="7.13762">
        <ele>805</ele>
        <time>2019-05-15T08:57:38.063Z</time>
      </trkpt>
      <trkpt lat="48.45085" lon="7.13762">
        <ele>805</ele>
        <time>2019-05-15T08:57:39.063Z</time>
      </trkpt>
      <trkpt lat="48.45085" lon="7.13763">
        <ele>805</ele>
        <time>2019-05-15T08:57:40.063Z</time>
      </trkpt>
      <trkpt lat="48.45085" lon="7.13763">
        <ele>804</ele>
        <time>2019-05-15T08:57:41.063Z</time>
      </trkpt>
      <trkpt lat="48.45085" lon="7.13763">
        <ele>804</ele>
        <time>2019-05-15T08:57:42.063Z</time>
      </trkpt>
      <trkpt lat="48.45085" lon="7.13763">
        <ele>804</ele>
        <time>2019-05-15T08:57:43.063Z</time>
      </trkpt>
      <trkpt lat="48.45085" lon="7.13763">
        <ele>804</ele>
        <time>2019-05-15T08:57:44.063Z</time>
      </trkpt>
      <trkpt lat="48.45085" lon="7.13763">
        <ele>804</ele>
        <time>2019-05-15T08:57:45.063Z</time>
      </trkpt>
      <trkpt lat="48.45085" lon="7.13763">
        <ele>804</ele>
        <time>2019-05-15T08:57:46.063Z</time>
      </trkpt>
      <trkpt lat="48.45085" lon="7.13763">
        <ele>804</ele>
        <time>2019-05-15T08:57:47.063Z</time>
      </trkpt>
      <trkpt lat="48.45085" lon="7.13763">
        <ele>804</ele>
        <time>2019-05-15T08:57:48.063Z</time>
      </trkpt>
      <trkpt lat="48.45085" lon="7.13763">
        <ele>804</ele>
        <time>2019-05-15T08:57:49.063Z</time>
      </trkpt>
      <trkpt lat="48.45085" lon="7.13763">
        <ele>804</ele>
        <time>2019-05-15T08:57:50.063Z</time>
      </trkpt>
      <trkpt lat="48.45085" lon="7.13764">
        <ele>804</ele>
        <time>2019-05-15T08:57:51.063Z</time>
      </trkpt>
      <trkpt lat="48.45085" lon="7.13764">
        <ele>804</ele>
        <time>2019-05-15T08:57:52.063Z</time>
      </trkpt>
      <trkpt lat="48.45085" lon="7.13764">
        <ele>805</ele>
        <time>2019-05-15T08:57:53.063Z</time>
      </trkpt>
      <trkpt lat="48.45085" lon="7.13764">
        <ele>804</ele>
        <time>2019-05-15T08:57:54.063Z</time>
      </trkpt>
      <trkpt lat="48.45085" lon="7.13764">
        <ele>804</ele>
        <time>2019-05-15T08:57:55.063Z</time>
      </trkpt>
      <trkpt lat="48.45085" lon="7.13764">
        <ele>804</ele>
        <time>2019-05-15T08:57:56.063Z</time>
      </trkpt>
      <trkpt lat="48.45085" lon="7.13764">
        <ele>804</ele>
        <time>2019-05-15T08:57:57.063Z</time>
      </trkpt>
      <trkpt lat="48.45085" lon="7.13763">
        <ele>804</ele>
        <time>2019-05-15T08:57:58.063Z</time>
      </trkpt>
      <trkpt lat="48.45085" lon="7.13763">
        <ele>805</ele>
        <time>2019-05-15T08:57:59.063Z</time>
      </trkpt>
      <trkpt lat="48.45085" lon="7.13763">
        <ele>805</ele>
        <time>2019-05-15T08:58:00.063Z</time>
      </trkpt>
      <trkpt lat="48.45085" lon="7.13763">
        <ele>805</ele>
        <time>2019-05-15T08:58:01.063Z</time>
      </trkpt>
      <trkpt lat="48.45085" lon="7.13763">
        <ele>806</ele>
        <time>2019-05-15T08:58:02.063Z</time>
      </trkpt>
      <trkpt lat="48.45085" lon="7.13762">
        <ele>806</ele>
        <time>2019-05-15T08:58:03.063Z</time>
      </trkpt>
      <trkpt lat="48.45085" lon="7.13762">
        <ele>806</ele>
        <time>2019-05-15T08:58:04.063Z</time>
      </trkpt>
      <trkpt lat="48.45085" lon="7.13762">
        <ele>806</ele>
        <time>2019-05-15T08:58:05.063Z</time>
      </trkpt>
      <trkpt lat="48.45085" lon="7.13762">
        <ele>807</ele>
        <time>2019-05-15T08:58:06.063Z</time>
      </trkpt>
      <trkpt lat="48.45086" lon="7.13762">
        <ele>807</ele>
        <time>2019-05-15T08:58:07.063Z</time>
      </trkpt>
      <trkpt lat="48.45086" lon="7.13762">
        <ele>807</ele>
        <time>2019-05-15T08:58:08.063Z</time>
      </trkpt>
      <trkpt lat="48.45086" lon="7.13762">
        <ele>808</ele>
        <time>2019-05-15T08:58:09.063Z</time>
      </trkpt>
      <trkpt lat="48.45086" lon="7.13762">
        <ele>808</ele>
        <time>2019-05-15T08:58:10.063Z</time>
      </trkpt>
      <trkpt lat="48.45086" lon="7.13762">
        <ele>808</ele>
        <time>2019-05-15T08:58:11.063Z</time>
      </trkpt>
      <trkpt lat="48.45086" lon="7.13762">
        <ele>808</ele>
        <time>2019-05-15T08:58:12.063Z</time>
      </trkpt>
      <trkpt lat="48.45086" lon="7.13762">
        <ele>808</ele>
        <time>2019-05-15T08:58:13.063Z</time>
      </trkpt>
      <trkpt lat="48.45086" lon="7.13762">
        <ele>809</ele>
        <time>2019-05-15T08:58:14.063Z</time>
      </trkpt>
      <trkpt lat="48.45086" lon="7.13762">
        <ele>809</ele>
        <time>2019-05-15T08:58:15.063Z</time>
      </trkpt>
      <trkpt lat="48.45086" lon="7.13762">
        <ele>809</ele>
        <time>2019-05-15T08:58:16.063Z</time>
      </trkpt>
      <trkpt lat="48.45086" lon="7.13762">
        <ele>810</ele>
        <time>2019-05-15T08:58:17.063Z</time>
      </trkpt>
      <trkpt lat="48.45086" lon="7.13762">
        <ele>810</ele>
        <time>2019-05-15T08:58:18.063Z</time>
      </trkpt>
      <trkpt lat="48.45086" lon="7.13762">
        <ele>810</ele>
        <time>2019-05-15T08:58:19.063Z</time>
      </trkpt>
      <trkpt lat="48.45086" lon="7.13762">
        <ele>810</ele>
        <time>2019-05-15T08:58:20.063Z</time>
      </trkpt>
      <trkpt lat="48.45086" lon="7.13762">
        <ele>811</ele>
        <time>2019-05-15T08:58:21.063Z</time>
      </trkpt>
      <trkpt lat="48.45086" lon="7.13762">
        <ele>811</ele>
        <time>2019-05-15T08:58:22.063Z</time>
      </trkpt>
      <trkpt lat="48.45086" lon="7.13762">
        <ele>811</ele>
        <time>2019-05-15T08:58:23.063Z</time>
      </trkpt>
      <trkpt lat="48.45086" lon="7.13761">
        <ele>811</ele>
        <time>2019-05-15T08:58:24.063Z</time>
      </trkpt>
      <trkpt lat="48.45085" lon="7.13761">
        <ele>811</ele>
        <time>2019-05-15T08:58:25.063Z</time>
      </trkpt>
      <trkpt lat="48.45085" lon="7.13761">
        <ele>811</ele>
        <time>2019-05-15T08:58:26.063Z</time>
      </trkpt>
      <trkpt lat="48.45085" lon="7.13761">
        <ele>811</ele>
        <time>2019-05-15T08:58:27.063Z</time>
      </trkpt>
      <trkpt lat="48.45085" lon="7.1376">
        <ele>811</ele>
        <time>2019-05-15T08:58:28.063Z</time>
      </trkpt>
      <trkpt lat="48.45085" lon="7.1376">
        <ele>811</ele>
        <time>2019-05-15T08:58:29.063Z</time>
      </trkpt>
      <trkpt lat="48.45085" lon="7.1376">
        <ele>810</ele>
        <time>2019-05-15T08:58:30.063Z</time>
      </trkpt>
      <trkpt lat="48.45085" lon="7.13759">
        <ele>810</ele>
        <time>2019-05-15T08:58:31.063Z</time>
      </trkpt>
      <trkpt lat="48.45085" lon="7.13759">
        <ele>810</ele>
        <time>2019-05-15T08:58:32.063Z</time>
      </trkpt>
      <trkpt lat="48.45085" lon="7.13759">
        <ele>810</ele>
        <time>2019-05-15T08:58:33.063Z</time>
      </trkpt>
      <trkpt lat="48.45085" lon="7.13759">
        <ele>810</ele>
        <time>2019-05-15T08:58:34.063Z</time>
      </trkpt>
      <trkpt lat="48.45085" lon="7.13759">
        <ele>810</ele>
        <time>2019-05-15T08:58:35.063Z</time>
      </trkpt>
      <trkpt lat="48.45085" lon="7.13759">
        <ele>810</ele>
        <time>2019-05-15T08:58:36.063Z</time>
      </trkpt>
      <trkpt lat="48.45085" lon="7.13759">
        <ele>810</ele>
        <time>2019-05-15T08:58:37.063Z</time>
      </trkpt>
      <trkpt lat="48.45085" lon="7.13759">
        <ele>810</ele>
        <time>2019-05-15T08:58:38.063Z</time>
      </trkpt>
      <trkpt lat="48.45084" lon="7.13759">
        <ele>809</ele>
        <time>2019-05-15T08:58:39.063Z</time>
      </trkpt>
      <trkpt lat="48.45084" lon="7.13758">
        <ele>808</ele>
        <time>2019-05-15T08:58:40.063Z</time>
      </trkpt>
      <trkpt lat="48.45084" lon="7.13758">
        <ele>807</ele>
        <time>2019-05-15T08:58:41.063Z</time>
      </trkpt>
      <trkpt lat="48.45083" lon="7.13758">
        <ele>807</ele>
        <time>2019-05-15T08:58:42.063Z</time>
      </trkpt>
      <trkpt lat="48.45083" lon="7.13758">
        <ele>807</ele>
        <time>2019-05-15T08:58:43.063Z</time>
      </trkpt>
      <trkpt lat="48.45083" lon="7.13758">
        <ele>807</ele>
        <time>2019-05-15T08:58:44.063Z</time>
      </trkpt>
      <trkpt lat="48.45083" lon="7.13758">
        <ele>807</ele>
        <time>2019-05-15T08:58:45.063Z</time>
      </trkpt>
      <trkpt lat="48.45083" lon="7.13758">
        <ele>807</ele>
        <time>2019-05-15T08:58:46.063Z</time>
      </trkpt>
      <trkpt lat="48.45083" lon="7.13759">
        <ele>807</ele>
        <time>2019-05-15T08:58:47.063Z</time>
      </trkpt>
      <trkpt lat="48.45083" lon="7.13759">
        <ele>807</ele>
        <time>2019-05-15T08:58:48.063Z</time>
      </trkpt>
      <trkpt lat="48.45083" lon="7.1376">
        <ele>806</ele>
        <time>2019-05-15T08:58:49.063Z</time>
      </trkpt>
      <trkpt lat="48.45083" lon="7.1376">
        <ele>806</ele>
        <time>2019-05-15T08:58:50.063Z</time>
      </trkpt>
      <trkpt lat="48.45083" lon="7.1376">
        <ele>806</ele>
        <time>2019-05-15T08:58:51.063Z</time>
      </trkpt>
      <trkpt lat="48.45083" lon="7.1376">
        <ele>806</ele>
        <time>2019-05-15T08:58:52.063Z</time>
      </trkpt>
      <trkpt lat="48.45083" lon="7.1376">
        <ele>806</ele>
        <time>2019-05-15T08:58:53.063Z</time>
      </trkpt>
      <trkpt lat="48.45083" lon="7.1376">
        <ele>806</ele>
        <time>2019-05-15T08:58:54.063Z</time>
      </trkpt>
      <trkpt lat="48.45083" lon="7.1376">
        <ele>806</ele>
        <time>2019-05-15T08:58:55.063Z</time>
      </trkpt>
      <trkpt lat="48.45083" lon="7.1376">
        <ele>805</ele>
        <time>2019-05-15T08:58:56.063Z</time>
      </trkpt>
      <trkpt lat="48.45083" lon="7.1376">
        <ele>805</ele>
        <time>2019-05-15T08:58:57.063Z</time>
      </trkpt>
      <trkpt lat="48.45083" lon="7.1376">
        <ele>805</ele>
        <time>2019-05-15T08:58:58.063Z</time>
      </trkpt>
      <trkpt lat="48.45083" lon="7.1376">
        <ele>805</ele>
        <time>2019-05-15T08:58:59.063Z</time>
      </trkpt>
      <trkpt lat="48.45084" lon="7.13761">
        <ele>806</ele>
        <time>2019-05-15T08:59:00.063Z</time>
      </trkpt>
      <trkpt lat="48.45084" lon="7.13761">
        <ele>806</ele>
        <time>2019-05-15T08:59:01.063Z</time>
      </trkpt>
      <trkpt lat="48.45084" lon="7.13761">
        <ele>805</ele>
        <time>2019-05-15T08:59:02.063Z</time>
      </trkpt>
      <trkpt lat="48.45084" lon="7.13761">
        <ele>805</ele>
        <time>2019-05-15T08:59:03.063Z</time>
      </trkpt>
      <trkpt lat="48.45085" lon="7.13761">
        <ele>805</ele>
        <time>2019-05-15T08:59:04.063Z</time>
      </trkpt>
      <trkpt lat="48.45085" lon="7.1376">
        <ele>806</ele>
        <time>2019-05-15T08:59:05.063Z</time>
      </trkpt>
      <trkpt lat="48.45085" lon="7.1376">
        <ele>806</ele>
        <time>2019-05-15T08:59:06.063Z</time>
      </trkpt>
      <trkpt lat="48.45085" lon="7.1376">
        <ele>806</ele>
        <time>2019-05-15T08:59:07.063Z</time>
      </trkpt>
      <trkpt lat="48.45084" lon="7.13759">
        <ele>807</ele>
        <time>2019-05-15T08:59:08.063Z</time>
      </trkpt>
      <trkpt lat="48.45084" lon="7.13759">
        <ele>807</ele>
        <time>2019-05-15T08:59:09.063Z</time>
      </trkpt>
      <trkpt lat="48.45084" lon="7.13758">
        <ele>806</ele>
        <time>2019-05-15T08:59:10.063Z</time>
      </trkpt>
      <trkpt lat="48.45084" lon="7.13757">
        <ele>807</ele>
        <time>2019-05-15T08:59:11.063Z</time>
      </trkpt>
      <trkpt lat="48.45084" lon="7.13757">
        <ele>808</ele>
        <time>2019-05-15T08:59:12.063Z</time>
      </trkpt>
      <trkpt lat="48.45084" lon="7.13757">
        <ele>808</ele>
        <time>2019-05-15T08:59:13.063Z</time>
      </trkpt>
      <trkpt lat="48.45084" lon="7.13757">
        <ele>808</ele>
        <time>2019-05-15T08:59:14.063Z</time>
      </trkpt>
      <trkpt lat="48.45084" lon="7.13757">
        <ele>808</ele>
        <time>2019-05-15T08:59:15.063Z</time>
      </trkpt>
      <trkpt lat="48.45084" lon="7.13757">
        <ele>809</ele>
        <time>2019-05-15T08:59:16.063Z</time>
      </trkpt>
      <trkpt lat="48.45084" lon="7.13757">
        <ele>809</ele>
        <time>2019-05-15T08:59:17.063Z</time>
      </trkpt>
      <trkpt lat="48.45084" lon="7.13757">
        <ele>809</ele>
        <time>2019-05-15T08:59:18.063Z</time>
      </trkpt>
      <trkpt lat="48.45084" lon="7.13757">
        <ele>809</ele>
        <time>2019-05-15T08:59:19.063Z</time>
      </trkpt>
      <trkpt lat="48.45084" lon="7.13757">
        <ele>809</ele>
        <time>2019-05-15T08:59:20.063Z</time>
      </trkpt>
      <trkpt lat="48.45084" lon="7.13757">
        <ele>810</ele>
        <time>2019-05-15T08:59:21.063Z</time>
      </trkpt>
      <trkpt lat="48.45084" lon="7.13757">
        <ele>810</ele>
        <time>2019-05-15T08:59:22.063Z</time>
      </trkpt>
      <trkpt lat="48.45084" lon="7.13757">
        <ele>810</ele>
        <time>2019-05-15T08:59:23.063Z</time>
      </trkpt>
      <trkpt lat="48.45084" lon="7.13757">
        <ele>810</ele>
        <time>2019-05-15T08:59:24.063Z</time>
      </trkpt>
      <trkpt lat="48.45084" lon="7.13757">
        <ele>810</ele>
        <time>2019-05-15T08:59:25.063Z</time>
      </trkpt>
      <trkpt lat="48.45084" lon="7.13757">
        <ele>810</ele>
        <time>2019-05-15T08:59:26.063Z</time>
      </trkpt>
      <trkpt lat="48.45084" lon="7.13757">
        <ele>809</ele>
        <time>2019-05-15T08:59:27.063Z</time>
      </trkpt>
      <trkpt lat="48.45084" lon="7.13757">
        <ele>809</ele>
        <time>2019-05-15T08:59:28.063Z</time>
      </trkpt>
      <trkpt lat="48.45083" lon="7.13757">
        <ele>809</ele>
        <time>2019-05-15T08:59:29.063Z</time>
      </trkpt>
      <trkpt lat="48.45083" lon="7.13757">
        <ele>809</ele>
        <time>2019-05-15T08:59:30.063Z</time>
      </trkpt>
      <trkpt lat="48.45083" lon="7.13757">
        <ele>809</ele>
        <time>2019-05-15T08:59:31.063Z</time>
      </trkpt>
      <trkpt lat="48.45083" lon="7.13756">
        <ele>809</ele>
        <time>2019-05-15T08:59:32.063Z</time>
      </trkpt>
      <trkpt lat="48.45083" lon="7.13756">
        <ele>809</ele>
        <time>2019-05-15T08:59:33.063Z</time>
      </trkpt>
      <trkpt lat="48.45083" lon="7.13756">
        <ele>809</ele>
        <time>2019-05-15T08:59:34.063Z</time>
      </trkpt>
      <trkpt lat="48.45083" lon="7.13756">
        <ele>809</ele>
        <time>2019-05-15T08:59:35.063Z</time>
      </trkpt>
      <trkpt lat="48.45083" lon="7.13756">
        <ele>809</ele>
        <time>2019-05-15T08:59:36.063Z</time>
      </trkpt>
      <trkpt lat="48.45083" lon="7.13756">
        <ele>809</ele>
        <time>2019-05-15T08:59:37.063Z</time>
      </trkpt>
      <trkpt lat="48.45082" lon="7.13756">
        <ele>809</ele>
        <time>2019-05-15T08:59:38.063Z</time>
      </trkpt>
      <trkpt lat="48.45082" lon="7.13756">
        <ele>808</ele>
        <time>2019-05-15T08:59:39.063Z</time>
      </trkpt>
      <trkpt lat="48.45082" lon="7.13756">
        <ele>808</ele>
        <time>2019-05-15T08:59:40.063Z</time>
      </trkpt>
      <trkpt lat="48.45082" lon="7.13756">
        <ele>808</ele>
        <time>2019-05-15T08:59:41.063Z</time>
      </trkpt>
      <trkpt lat="48.45082" lon="7.13756">
        <ele>808</ele>
        <time>2019-05-15T08:59:42.063Z</time>
      </trkpt>
      <trkpt lat="48.45082" lon="7.13756">
        <ele>808</ele>
        <time>2019-05-15T08:59:43.063Z</time>
      </trkpt>
      <trkpt lat="48.45082" lon="7.13756">
        <ele>808</ele>
        <time>2019-05-15T08:59:44.063Z</time>
      </trkpt>
      <trkpt lat="48.45082" lon="7.13756">
        <ele>808</ele>
        <time>2019-05-15T08:59:45.063Z</time>
      </trkpt>
      <trkpt lat="48.45082" lon="7.13756">
        <ele>808</ele>
        <time>2019-05-15T08:59:46.063Z</time>
      </trkpt>
      <trkpt lat="48.45082" lon="7.13755">
        <ele>808</ele>
        <time>2019-05-15T08:59:47.063Z</time>
      </trkpt>
      <trkpt lat="48.45081" lon="7.13755">
        <ele>808</ele>
        <time>2019-05-15T08:59:48.063Z</time>
      </trkpt>
      <trkpt lat="48.45081" lon="7.13755">
        <ele>808</ele>
        <time>2019-05-15T08:59:49.063Z</time>
      </trkpt>
      <trkpt lat="48.45081" lon="7.13755">
        <ele>807</ele>
        <time>2019-05-15T08:59:50.063Z</time>
      </trkpt>
      <trkpt lat="48.45081" lon="7.13756">
        <ele>807</ele>
        <time>2019-05-15T08:59:51.063Z</time>
      </trkpt>
      <trkpt lat="48.45081" lon="7.13756">
        <ele>807</ele>
        <time>2019-05-15T08:59:52.063Z</time>
      </trkpt>
      <trkpt lat="48.45081" lon="7.13755">
        <ele>807</ele>
        <time>2019-05-15T08:59:53.063Z</time>
      </trkpt>
      <trkpt lat="48.45081" lon="7.13755">
        <ele>806</ele>
        <time>2019-05-15T08:59:54.063Z</time>
      </trkpt>
      <trkpt lat="48.45081" lon="7.13755">
        <ele>806</ele>
        <time>2019-05-15T08:59:55.063Z</time>
      </trkpt>
      <trkpt lat="48.45082" lon="7.13755">
        <ele>806</ele>
        <time>2019-05-15T08:59:56.063Z</time>
      </trkpt>
      <trkpt lat="48.45082" lon="7.13755">
        <ele>806</ele>
        <time>2019-05-15T08:59:57.063Z</time>
      </trkpt>
      <trkpt lat="48.45083" lon="7.13754">
        <ele>806</ele>
        <time>2019-05-15T08:59:58.063Z</time>
      </trkpt>
      <trkpt lat="48.45083" lon="7.13754">
        <ele>806</ele>
        <time>2019-05-15T08:59:59.063Z</time>
      </trkpt>
      <trkpt lat="48.45083" lon="7.13754">
        <ele>806</ele>
        <time>2019-05-15T09:00:00.063Z</time>
      </trkpt>
      <trkpt lat="48.45083" lon="7.13753">
        <ele>806</ele>
        <time>2019-05-15T09:00:01.063Z</time>
      </trkpt>
      <trkpt lat="48.45083" lon="7.13753">
        <ele>806</ele>
        <time>2019-05-15T09:00:02.063Z</time>
      </trkpt>
      <trkpt lat="48.45084" lon="7.13753">
        <ele>806</ele>
        <time>2019-05-15T09:00:03.063Z</time>
      </trkpt>
      <trkpt lat="48.45084" lon="7.13753">
        <ele>806</ele>
        <time>2019-05-15T09:00:04.063Z</time>
      </trkpt>
      <trkpt lat="48.45084" lon="7.13752">
        <ele>806</ele>
        <time>2019-05-15T09:00:05.063Z</time>
      </trkpt>
      <trkpt lat="48.45084" lon="7.13752">
        <ele>807</ele>
        <time>2019-05-15T09:00:06.063Z</time>
      </trkpt>
      <trkpt lat="48.45084" lon="7.13752">
        <ele>807</ele>
        <time>2019-05-15T09:00:07.063Z</time>
      </trkpt>
      <trkpt lat="48.45084" lon="7.13752">
        <ele>806</ele>
        <time>2019-05-15T09:00:08.063Z</time>
      </trkpt>
      <trkpt lat="48.45084" lon="7.13752">
        <ele>807</ele>
        <time>2019-05-15T09:00:09.063Z</time>
      </trkpt>
      <trkpt lat="48.45084" lon="7.13752">
        <ele>807</ele>
        <time>2019-05-15T09:00:10.063Z</time>
      </trkpt>
      <trkpt lat="48.45085" lon="7.13752">
        <ele>806</ele>
        <time>2019-05-15T09:00:11.063Z</time>
      </trkpt>
      <trkpt lat="48.45085" lon="7.13753">
        <ele>806</ele>
        <time>2019-05-15T09:00:12.063Z</time>
      </trkpt>
      <trkpt lat="48.45085" lon="7.13753">
        <ele>806</ele>
        <time>2019-05-15T09:00:13.063Z</time>
      </trkpt>
      <trkpt lat="48.45085" lon="7.13754">
        <ele>807</ele>
        <time>2019-05-15T09:00:14.063Z</time>
      </trkpt>
      <trkpt lat="48.45085" lon="7.13754">
        <ele>806</ele>
        <time>2019-05-15T09:00:15.063Z</time>
      </trkpt>
      <trkpt lat="48.45085" lon="7.13754">
        <ele>807</ele>
        <time>2019-05-15T09:00:16.063Z</time>
      </trkpt>
      <trkpt lat="48.45085" lon="7.13754">
        <ele>806</ele>
        <time>2019-05-15T09:00:17.063Z</time>
      </trkpt>
      <trkpt lat="48.45085" lon="7.13755">
        <ele>806</ele>
        <time>2019-05-15T09:00:18.063Z</time>
      </trkpt>
      <trkpt lat="48.45085" lon="7.13755">
        <ele>806</ele>
        <time>2019-05-15T09:00:19.063Z</time>
      </trkpt>
      <trkpt lat="48.45085" lon="7.13756">
        <ele>805</ele>
        <time>2019-05-15T09:00:20.063Z</time>
      </trkpt>
      <trkpt lat="48.45085" lon="7.13756">
        <ele>805</ele>
        <time>2019-05-15T09:00:21.063Z</time>
      </trkpt>
      <trkpt lat="48.45086" lon="7.13756">
        <ele>806</ele>
        <time>2019-05-15T09:00:22.063Z</time>
      </trkpt>
      <trkpt lat="48.45086" lon="7.13756">
        <ele>806</ele>
        <time>2019-05-15T09:00:23.063Z</time>
      </trkpt>
      <trkpt lat="48.45086" lon="7.13756">
        <ele>805</ele>
        <time>2019-05-15T09:00:24.063Z</time>
      </trkpt>
      <trkpt lat="48.45086" lon="7.13757">
        <ele>805</ele>
        <time>2019-05-15T09:00:25.063Z</time>
      </trkpt>
      <trkpt lat="48.45086" lon="7.13757">
        <ele>805</ele>
        <time>2019-05-15T09:00:26.063Z</time>
      </trkpt>
      <trkpt lat="48.45085" lon="7.13757">
        <ele>805</ele>
        <time>2019-05-15T09:00:27.063Z</time>
      </trkpt>
      <trkpt lat="48.45085" lon="7.13757">
        <ele>804</ele>
        <time>2019-05-15T09:00:28.063Z</time>
      </trkpt>
      <trkpt lat="48.45085" lon="7.13757">
        <ele>804</ele>
        <time>2019-05-15T09:00:29.063Z</time>
      </trkpt>
      <trkpt lat="48.45085" lon="7.13757">
        <ele>804</ele>
        <time>2019-05-15T09:00:30.063Z</time>
      </trkpt>
      <trkpt lat="48.45085" lon="7.13758">
        <ele>804</ele>
        <time>2019-05-15T09:00:31.063Z</time>
      </trkpt>
      <trkpt lat="48.45085" lon="7.13758">
        <ele>803</ele>
        <time>2019-05-15T09:00:32.063Z</time>
      </trkpt>
      <trkpt lat="48.45085" lon="7.13758">
        <ele>803</ele>
        <time>2019-05-15T09:00:33.063Z</time>
      </trkpt>
      <trkpt lat="48.45085" lon="7.13758">
        <ele>803</ele>
        <time>2019-05-15T09:00:34.063Z</time>
      </trkpt>
      <trkpt lat="48.45085" lon="7.13759">
        <ele>803</ele>
        <time>2019-05-15T09:00:35.063Z</time>
      </trkpt>
      <trkpt lat="48.45085" lon="7.13759">
        <ele>803</ele>
        <time>2019-05-15T09:00:36.063Z</time>
      </trkpt>
      <trkpt lat="48.45085" lon="7.13759">
        <ele>803</ele>
        <time>2019-05-15T09:00:37.063Z</time>
      </trkpt>
      <trkpt lat="48.45084" lon="7.1376">
        <ele>803</ele>
        <time>2019-05-15T09:00:38.063Z</time>
      </trkpt>
      <trkpt lat="48.45084" lon="7.13761">
        <ele>804</ele>
        <time>2019-05-15T09:00:39.063Z</time>
      </trkpt>
      <trkpt lat="48.45084" lon="7.13762">
        <ele>803</ele>
        <time>2019-05-15T09:00:40.063Z</time>
      </trkpt>
      <trkpt lat="48.45083" lon="7.13764">
        <ele>803</ele>
        <time>2019-05-15T09:00:41.063Z</time>
      </trkpt>
      <trkpt lat="48.45083" lon="7.13766">
        <ele>803</ele>
        <time>2019-05-15T09:00:42.063Z</time>
      </trkpt>
      <trkpt lat="48.45083" lon="7.13767">
        <ele>803</ele>
        <time>2019-05-15T09:00:43.063Z</time>
      </trkpt>
      <trkpt lat="48.45083" lon="7.13769">
        <ele>803</ele>
        <time>2019-05-15T09:00:44.063Z</time>
      </trkpt>
      <trkpt lat="48.45083" lon="7.13771">
        <ele>803</ele>
        <time>2019-05-15T09:00:45.063Z</time>
      </trkpt>
      <trkpt lat="48.45083" lon="7.13772">
        <ele>803</ele>
        <time>2019-05-15T09:00:46.063Z</time>
      </trkpt>
      <trkpt lat="48.45084" lon="7.13774">
        <ele>803</ele>
        <time>2019-05-15T09:00:47.063Z</time>
      </trkpt>
      <trkpt lat="48.45084" lon="7.13776">
        <ele>803</ele>
        <time>2019-05-15T09:00:48.063Z</time>
      </trkpt>
      <trkpt lat="48.45085" lon="7.13777">
        <ele>802</ele>
        <time>2019-05-15T09:00:49.063Z</time>
      </trkpt>
      <trkpt lat="48.45086" lon="7.13779">
        <ele>802</ele>
        <time>2019-05-15T09:00:50.063Z</time>
      </trkpt>
      <trkpt lat="48.45086" lon="7.1378">
        <ele>802</ele>
        <time>2019-05-15T09:00:51.063Z</time>
      </trkpt>
      <trkpt lat="48.45086" lon="7.13782">
        <ele>802</ele>
        <time>2019-05-15T09:00:52.063Z</time>
      </trkpt>
      <trkpt lat="48.45087" lon="7.13783">
        <ele>801</ele>
        <time>2019-05-15T09:00:53.063Z</time>
      </trkpt>
      <trkpt lat="48.45087" lon="7.13784">
        <ele>801</ele>
        <time>2019-05-15T09:00:54.063Z</time>
      </trkpt>
      <trkpt lat="48.45087" lon="7.13785">
        <ele>801</ele>
        <time>2019-05-15T09:00:55.063Z</time>
      </trkpt>
      <trkpt lat="48.45087" lon="7.13786">
        <ele>801</ele>
        <time>2019-05-15T09:00:56.063Z</time>
      </trkpt>
      <trkpt lat="48.45087" lon="7.13786">
        <ele>801</ele>
        <time>2019-05-15T09:00:57.063Z</time>
      </trkpt>
      <trkpt lat="48.45087" lon="7.13786">
        <ele>801</ele>
        <time>2019-05-15T09:00:58.063Z</time>
      </trkpt>
      <trkpt lat="48.45087" lon="7.13787">
        <ele>801</ele>
        <time>2019-05-15T09:00:59.063Z</time>
      </trkpt>
      <trkpt lat="48.45087" lon="7.13787">
        <ele>800</ele>
        <time>2019-05-15T09:01:00.063Z</time>
      </trkpt>
      <trkpt lat="48.45087" lon="7.13787">
        <ele>799</ele>
        <time>2019-05-15T09:01:01.063Z</time>
      </trkpt>
      <trkpt lat="48.45086" lon="7.13786">
        <ele>799</ele>
        <time>2019-05-15T09:01:02.063Z</time>
      </trkpt>
      <trkpt lat="48.45086" lon="7.13786">
        <ele>799</ele>
        <time>2019-05-15T09:01:03.063Z</time>
      </trkpt>
      <trkpt lat="48.45086" lon="7.13786">
        <ele>799</ele>
        <time>2019-05-15T09:01:04.063Z</time>
      </trkpt>
      <trkpt lat="48.45086" lon="7.13786">
        <ele>799</ele>
        <time>2019-05-15T09:01:05.063Z</time>
      </trkpt>
      <trkpt lat="48.45086" lon="7.13786">
        <ele>800</ele>
        <time>2019-05-15T09:01:06.063Z</time>
      </trkpt>
      <trkpt lat="48.45086" lon="7.13786">
        <ele>800</ele>
        <time>2019-05-15T09:01:07.063Z</time>
      </trkpt>
      <trkpt lat="48.45086" lon="7.13786">
        <ele>800</ele>
        <time>2019-05-15T09:01:08.063Z</time>
      </trkpt>
      <trkpt lat="48.45086" lon="7.13786">
        <ele>800</ele>
        <time>2019-05-15T09:01:09.063Z</time>
      </trkpt>
      <trkpt lat="48.45086" lon="7.13787">
        <ele>800</ele>
        <time>2019-05-15T09:01:10.063Z</time>
      </trkpt>
      <trkpt lat="48.45086" lon="7.13787">
        <ele>801</ele>
        <time>2019-05-15T09:01:11.063Z</time>
      </trkpt>
      <trkpt lat="48.45086" lon="7.13787">
        <ele>801</ele>
        <time>2019-05-15T09:01:12.063Z</time>
      </trkpt>
      <trkpt lat="48.45086" lon="7.13787">
        <ele>801</ele>
        <time>2019-05-15T09:01:13.063Z</time>
      </trkpt>
      <trkpt lat="48.45086" lon="7.13787">
        <ele>802</ele>
        <time>2019-05-15T09:01:14.063Z</time>
      </trkpt>
      <trkpt lat="48.45086" lon="7.13787">
        <ele>802</ele>
        <time>2019-05-15T09:01:15.063Z</time>
      </trkpt>
      <trkpt lat="48.45086" lon="7.13788">
        <ele>802</ele>
        <time>2019-05-15T09:01:16.063Z</time>
      </trkpt>
      <trkpt lat="48.45086" lon="7.13788">
        <ele>802</ele>
        <time>2019-05-15T09:01:17.063Z</time>
      </trkpt>
      <trkpt lat="48.45086" lon="7.13788">
        <ele>802</ele>
        <time>2019-05-15T09:01:18.063Z</time>
      </trkpt>
      <trkpt lat="48.45086" lon="7.13788">
        <ele>802</ele>
        <time>2019-05-15T09:01:19.063Z</time>
      </trkpt>
      <trkpt lat="48.45086" lon="7.13788">
        <ele>803</ele>
        <time>2019-05-15T09:01:20.063Z</time>
      </trkpt>
      <trkpt lat="48.45086" lon="7.13788">
        <ele>803</ele>
        <time>2019-05-15T09:01:21.063Z</time>
      </trkpt>
      <trkpt lat="48.45086" lon="7.13789">
        <ele>803</ele>
        <time>2019-05-15T09:01:22.063Z</time>
      </trkpt>
      <trkpt lat="48.45086" lon="7.13789">
        <ele>803</ele>
        <time>2019-05-15T09:01:23.063Z</time>
      </trkpt>
      <trkpt lat="48.45086" lon="7.13789">
        <ele>803</ele>
        <time>2019-05-15T09:01:24.063Z</time>
      </trkpt>
      <trkpt lat="48.45086" lon="7.13789">
        <ele>803</ele>
        <time>2019-05-15T09:01:25.063Z</time>
      </trkpt>
      <trkpt lat="48.45086" lon="7.13789">
        <ele>803</ele>
        <time>2019-05-15T09:01:26.063Z</time>
      </trkpt>
      <trkpt lat="48.45086" lon="7.1379">
        <ele>804</ele>
        <time>2019-05-15T09:01:27.063Z</time>
      </trkpt>
      <trkpt lat="48.45086" lon="7.1379">
        <ele>804</ele>
        <time>2019-05-15T09:01:28.063Z</time>
      </trkpt>
      <trkpt lat="48.45086" lon="7.1379">
        <ele>804</ele>
        <time>2019-05-15T09:01:29.063Z</time>
      </trkpt>
      <trkpt lat="48.45086" lon="7.13791">
        <ele>804</ele>
        <time>2019-05-15T09:01:30.063Z</time>
      </trkpt>
      <trkpt lat="48.45086" lon="7.13791">
        <ele>804</ele>
        <time>2019-05-15T09:01:31.063Z</time>
      </trkpt>
      <trkpt lat="48.45086" lon="7.13791">
        <ele>804</ele>
        <time>2019-05-15T09:01:32.063Z</time>
      </trkpt>
      <trkpt lat="48.45086" lon="7.13792">
        <ele>805</ele>
        <time>2019-05-15T09:01:33.063Z</time>
      </trkpt>
      <trkpt lat="48.45085" lon="7.13792">
        <ele>805</ele>
        <time>2019-05-15T09:01:34.063Z</time>
      </trkpt>
      <trkpt lat="48.45085" lon="7.13792">
        <ele>805</ele>
        <time>2019-05-15T09:01:35.063Z</time>
      </trkpt>
      <trkpt lat="48.45085" lon="7.13793">
        <ele>806</ele>
        <time>2019-05-15T09:01:36.063Z</time>
      </trkpt>
      <trkpt lat="48.45085" lon="7.13793">
        <ele>806</ele>
        <time>2019-05-15T09:01:37.063Z</time>
      </trkpt>
      <trkpt lat="48.45085" lon="7.13793">
        <ele>806</ele>
        <time>2019-05-15T09:01:38.063Z</time>
      </trkpt>
      <trkpt lat="48.45085" lon="7.13793">
        <ele>806</ele>
        <time>2019-05-15T09:01:39.063Z</time>
      </trkpt>
      <trkpt lat="48.45085" lon="7.13794">
        <ele>807</ele>
        <time>2019-05-15T09:01:40.063Z</time>
      </trkpt>
      <trkpt lat="48.45085" lon="7.13794">
        <ele>807</ele>
        <time>2019-05-15T09:01:41.063Z</time>
      </trkpt>
      <trkpt lat="48.45085" lon="7.13794">
        <ele>807</ele>
        <time>2019-05-15T09:01:42.063Z</time>
      </trkpt>
      <trkpt lat="48.45085" lon="7.13793">
        <ele>806</ele>
        <time>2019-05-15T09:01:43.063Z</time>
      </trkpt>
      <trkpt lat="48.45085" lon="7.13792">
        <ele>805</ele>
        <time>2019-05-15T09:01:44.063Z</time>
      </trkpt>
      <trkpt lat="48.45084" lon="7.13791">
        <ele>804</ele>
        <time>2019-05-15T09:01:45.063Z</time>
      </trkpt>
      <trkpt lat="48.45084" lon="7.13789">
        <ele>804</ele>
        <time>2019-05-15T09:01:46.063Z</time>
      </trkpt>
      <trkpt lat="48.45084" lon="7.13788">
        <ele>804</ele>
        <time>2019-05-15T09:01:47.063Z</time>
      </trkpt>
      <trkpt lat="48.45084" lon="7.13786">
        <ele>804</ele>
        <time>2019-05-15T09:01:48.063Z</time>
      </trkpt>
      <trkpt lat="48.45084" lon="7.13784">
        <ele>804</ele>
        <time>2019-05-15T09:01:49.063Z</time>
      </trkpt>
      <trkpt lat="48.45083" lon="7.13783">
        <ele>804</ele>
        <time>2019-05-15T09:01:50.063Z</time>
      </trkpt>
      <trkpt lat="48.45083" lon="7.13781">
        <ele>803</ele>
        <time>2019-05-15T09:01:51.063Z</time>
      </trkpt>
      <trkpt lat="48.45082" lon="7.1378">
        <ele>803</ele>
        <time>2019-05-15T09:01:52.063Z</time>
      </trkpt>
      <trkpt lat="48.45082" lon="7.13779">
        <ele>803</ele>
        <time>2019-05-15T09:01:53.063Z</time>
      </trkpt>
      <trkpt lat="48.45082" lon="7.13778">
        <ele>803</ele>
        <time>2019-05-15T09:01:54.063Z</time>
      </trkpt>
      <trkpt lat="48.45082" lon="7.13776">
        <ele>803</ele>
        <time>2019-05-15T09:01:55.063Z</time>
      </trkpt>
      <trkpt lat="48.45081" lon="7.13775">
        <ele>803</ele>
        <time>2019-05-15T09:01:56.063Z</time>
      </trkpt>
      <trkpt lat="48.45081" lon="7.13773">
        <ele>803</ele>
        <time>2019-05-15T09:01:57.063Z</time>
      </trkpt>
      <trkpt lat="48.45081" lon="7.13772">
        <ele>803</ele>
        <time>2019-05-15T09:01:58.063Z</time>
      </trkpt>
      <trkpt lat="48.45081" lon="7.1377">
        <ele>803</ele>
        <time>2019-05-15T09:01:59.063Z</time>
      </trkpt>
      <trkpt lat="48.45081" lon="7.13769">
        <ele>803</ele>
        <time>2019-05-15T09:02:00.063Z</time>
      </trkpt>
      <trkpt lat="48.45081" lon="7.13768">
        <ele>803</ele>
        <time>2019-05-15T09:02:01.063Z</time>
      </trkpt>
      <trkpt lat="48.45081" lon="7.13766">
        <ele>803</ele>
        <time>2019-05-15T09:02:02.063Z</time>
      </trkpt>
      <trkpt lat="48.45081" lon="7.13765">
        <ele>803</ele>
        <time>2019-05-15T09:02:03.063Z</time>
      </trkpt>
      <trkpt lat="48.45081" lon="7.13764">
        <ele>803</ele>
        <time>2019-05-15T09:02:04.063Z</time>
      </trkpt>
      <trkpt lat="48.45081" lon="7.13763">
        <ele>803</ele>
        <time>2019-05-15T09:02:05.063Z</time>
      </trkpt>
      <trkpt lat="48.45081" lon="7.13762">
        <ele>803</ele>
        <time>2019-05-15T09:02:06.063Z</time>
      </trkpt>
      <trkpt lat="48.45081" lon="7.13761">
        <ele>803</ele>
        <time>2019-05-15T09:02:07.063Z</time>
      </trkpt>
      <trkpt lat="48.45081" lon="7.1376">
        <ele>803</ele>
        <time>2019-05-15T09:02:08.063Z</time>
      </trkpt>
      <trkpt lat="48.45081" lon="7.1376">
        <ele>804</ele>
        <time>2019-05-15T09:02:09.063Z</time>
      </trkpt>
      <trkpt lat="48.45081" lon="7.1376">
        <ele>804</ele>
        <time>2019-05-15T09:02:10.063Z</time>
      </trkpt>
      <trkpt lat="48.45081" lon="7.13759">
        <ele>804</ele>
        <time>2019-05-15T09:02:11.063Z</time>
      </trkpt>
      <trkpt lat="48.45082" lon="7.13759">
        <ele>804</ele>
        <time>2019-05-15T09:02:12.063Z</time>
      </trkpt>
      <trkpt lat="48.45082" lon="7.13759">
        <ele>804</ele>
        <time>2019-05-15T09:02:13.063Z</time>
      </trkpt>
      <trkpt lat="48.45082" lon="7.13759">
        <ele>805</ele>
        <time>2019-05-15T09:02:14.063Z</time>
      </trkpt>
      <trkpt lat="48.45082" lon="7.13758">
        <ele>805</ele>
        <time>2019-05-15T09:02:15.063Z</time>
      </trkpt>
      <trkpt lat="48.45082" lon="7.13758">
        <ele>805</ele>
        <time>2019-05-15T09:02:16.063Z</time>
      </trkpt>
      <trkpt lat="48.45082" lon="7.13758">
        <ele>805</ele>
        <time>2019-05-15T09:02:17.063Z</time>
      </trkpt>
      <trkpt lat="48.45082" lon="7.13758">
        <ele>805</ele>
        <time>2019-05-15T09:02:18.063Z</time>
      </trkpt>
      <trkpt lat="48.45082" lon="7.13758">
        <ele>804</ele>
        <time>2019-05-15T09:02:19.063Z</time>
      </trkpt>
      <trkpt lat="48.45082" lon="7.13759">
        <ele>804</ele>
        <time>2019-05-15T09:02:20.063Z</time>
      </trkpt>
      <trkpt lat="48.45082" lon="7.1376">
        <ele>804</ele>
        <time>2019-05-15T09:02:21.063Z</time>
      </trkpt>
      <trkpt lat="48.45082" lon="7.1376">
        <ele>804</ele>
        <time>2019-05-15T09:02:22.063Z</time>
      </trkpt>
      <trkpt lat="48.45082" lon="7.1376">
        <ele>804</ele>
        <time>2019-05-15T09:02:23.063Z</time>
      </trkpt>
      <trkpt lat="48.45082" lon="7.1376">
        <ele>804</ele>
        <time>2019-05-15T09:02:24.063Z</time>
      </trkpt>
      <trkpt lat="48.45082" lon="7.1376">
        <ele>805</ele>
        <time>2019-05-15T09:02:25.063Z</time>
      </trkpt>
      <trkpt lat="48.45082" lon="7.1376">
        <ele>805</ele>
        <time>2019-05-15T09:02:26.063Z</time>
      </trkpt>
      <trkpt lat="48.45082" lon="7.13761">
        <ele>805</ele>
        <time>2019-05-15T09:02:27.063Z</time>
      </trkpt>
      <trkpt lat="48.45082" lon="7.13761">
        <ele>805</ele>
        <time>2019-05-15T09:02:28.063Z</time>
      </trkpt>
      <trkpt lat="48.45082" lon="7.13761">
        <ele>805</ele>
        <time>2019-05-15T09:02:29.063Z</time>
      </trkpt>
      <trkpt lat="48.45082" lon="7.13761">
        <ele>805</ele>
        <time>2019-05-15T09:02:30.063Z</time>
      </trkpt>
      <trkpt lat="48.45082" lon="7.13761">
        <ele>806</ele>
        <time>2019-05-15T09:02:31.063Z</time>
      </trkpt>
      <trkpt lat="48.45082" lon="7.13762">
        <ele>805</ele>
        <time>2019-05-15T09:02:32.063Z</time>
      </trkpt>
      <trkpt lat="48.45082" lon="7.13762">
        <ele>806</ele>
        <time>2019-05-15T09:02:33.063Z</time>
      </trkpt>
      <trkpt lat="48.45082" lon="7.13762">
        <ele>805</ele>
        <time>2019-05-15T09:02:34.063Z</time>
      </trkpt>
      <trkpt lat="48.45082" lon="7.13762">
        <ele>805</ele>
        <time>2019-05-15T09:02:35.063Z</time>
      </trkpt>
      <trkpt lat="48.45082" lon="7.13762">
        <ele>806</ele>
        <time>2019-05-15T09:02:36.063Z</time>
      </trkpt>
      <trkpt lat="48.45082" lon="7.13762">
        <ele>806</ele>
        <time>2019-05-15T09:02:37.063Z</time>
      </trkpt>
      <trkpt lat="48.45082" lon="7.13762">
        <ele>806</ele>
        <time>2019-05-15T09:02:38.063Z</time>
      </trkpt>
      <trkpt lat="48.45082" lon="7.13762">
        <ele>805</ele>
        <time>2019-05-15T09:02:39.063Z</time>
      </trkpt>
      <trkpt lat="48.45082" lon="7.13762">
        <ele>806</ele>
        <time>2019-05-15T09:02:40.063Z</time>
      </trkpt>
      <trkpt lat="48.45082" lon="7.13763">
        <ele>806</ele>
        <time>2019-05-15T09:02:41.063Z</time>
      </trkpt>
      <trkpt lat="48.45083" lon="7.13763">
        <ele>806</ele>
        <time>2019-05-15T09:02:42.063Z</time>
      </trkpt>
      <trkpt lat="48.45083" lon="7.13763">
        <ele>806</ele>
        <time>2019-05-15T09:02:43.063Z</time>
      </trkpt>
      <trkpt lat="48.45083" lon="7.13764">
        <ele>807</ele>
        <time>2019-05-15T09:02:44.063Z</time>
      </trkpt>
      <trkpt lat="48.45083" lon="7.13764">
        <ele>807</ele>
        <time>2019-05-15T09:02:45.063Z</time>
      </trkpt>
      <trkpt lat="48.45083" lon="7.13764">
        <ele>807</ele>
        <time>2019-05-15T09:02:46.063Z</time>
      </trkpt>
      <trkpt lat="48.45083" lon="7.13764">
        <ele>807</ele>
        <time>2019-05-15T09:02:47.063Z</time>
      </trkpt>
      <trkpt lat="48.45083" lon="7.13763">
        <ele>806</ele>
        <time>2019-05-15T09:02:48.063Z</time>
      </trkpt>
      <trkpt lat="48.45082" lon="7.13762">
        <ele>806</ele>
        <time>2019-05-15T09:02:49.063Z</time>
      </trkpt>
      <trkpt lat="48.45082" lon="7.13762">
        <ele>807</ele>
        <time>2019-05-15T09:02:50.063Z</time>
      </trkpt>
      <trkpt lat="48.45082" lon="7.13762">
        <ele>807</ele>
        <time>2019-05-15T09:02:51.063Z</time>
      </trkpt>
      <trkpt lat="48.45082" lon="7.13762">
        <ele>808</ele>
        <time>2019-05-15T09:02:52.063Z</time>
      </trkpt>
      <trkpt lat="48.45082" lon="7.13762">
        <ele>808</ele>
        <time>2019-05-15T09:02:53.063Z</time>
      </trkpt>
      <trkpt lat="48.45081" lon="7.13762">
        <ele>807</ele>
        <time>2019-05-15T09:02:54.063Z</time>
      </trkpt>
      <trkpt lat="48.45081" lon="7.13762">
        <ele>807</ele>
        <time>2019-05-15T09:02:55.063Z</time>
      </trkpt>
      <trkpt lat="48.45081" lon="7.13763">
        <ele>807</ele>
        <time>2019-05-15T09:02:56.063Z</time>
      </trkpt>
      <trkpt lat="48.4508" lon="7.13763">
        <ele>807</ele>
        <time>2019-05-15T09:02:57.063Z</time>
      </trkpt>
      <trkpt lat="48.4508" lon="7.13763">
        <ele>806</ele>
        <time>2019-05-15T09:02:58.063Z</time>
      </trkpt>
      <trkpt lat="48.45079" lon="7.13764">
        <ele>806</ele>
        <time>2019-05-15T09:02:59.063Z</time>
      </trkpt>
      <trkpt lat="48.45079" lon="7.13764">
        <ele>806</ele>
        <time>2019-05-15T09:03:00.063Z</time>
      </trkpt>
      <trkpt lat="48.45078" lon="7.13764">
        <ele>806</ele>
        <time>2019-05-15T09:03:01.063Z</time>
      </trkpt>
      <trkpt lat="48.45077" lon="7.13764">
        <ele>806</ele>
        <time>2019-05-15T09:03:02.063Z</time>
      </trkpt>
      <trkpt lat="48.45077" lon="7.13764">
        <ele>806</ele>
        <time>2019-05-15T09:03:03.063Z</time>
      </trkpt>
      <trkpt lat="48.45076" lon="7.13764">
        <ele>806</ele>
        <time>2019-05-15T09:03:04.063Z</time>
      </trkpt>
      <trkpt lat="48.45076" lon="7.13764">
        <ele>806</ele>
        <time>2019-05-15T09:03:05.063Z</time>
      </trkpt>
      <trkpt lat="48.45075" lon="7.13764">
        <ele>807</ele>
        <time>2019-05-15T09:03:06.063Z</time>
      </trkpt>
      <trkpt lat="48.45075" lon="7.13764">
        <ele>807</ele>
        <time>2019-05-15T09:03:07.063Z</time>
      </trkpt>
      <trkpt lat="48.45074" lon="7.13765">
        <ele>807</ele>
        <time>2019-05-15T09:03:08.063Z</time>
      </trkpt>
      <trkpt lat="48.45073" lon="7.13765">
        <ele>807</ele>
        <time>2019-05-15T09:03:09.063Z</time>
      </trkpt>
      <trkpt lat="48.45073" lon="7.13765">
        <ele>807</ele>
        <time>2019-05-15T09:03:10.063Z</time>
      </trkpt>
      <trkpt lat="48.45072" lon="7.13765">
        <ele>807</ele>
        <time>2019-05-15T09:03:11.063Z</time>
      </trkpt>
      <trkpt lat="48.45072" lon="7.13765">
        <ele>807</ele>
        <time>2019-05-15T09:03:12.063Z</time>
      </trkpt>
      <trkpt lat="48.45071" lon="7.13765">
        <ele>806</ele>
        <time>2019-05-15T09:03:13.063Z</time>
      </trkpt>
      <trkpt lat="48.45071" lon="7.13765">
        <ele>806</ele>
        <time>2019-05-15T09:03:14.063Z</time>
      </trkpt>
      <trkpt lat="48.4507" lon="7.13765">
        <ele>806</ele>
        <time>2019-05-15T09:03:15.063Z</time>
      </trkpt>
      <trkpt lat="48.4507" lon="7.13765">
        <ele>806</ele>
        <time>2019-05-15T09:03:16.063Z</time>
      </trkpt>
      <trkpt lat="48.4507" lon="7.13766">
        <ele>806</ele>
        <time>2019-05-15T09:03:17.063Z</time>
      </trkpt>
      <trkpt lat="48.45069" lon="7.13766">
        <ele>806</ele>
        <time>2019-05-15T09:03:18.063Z</time>
      </trkpt>
      <trkpt lat="48.45069" lon="7.13766">
        <ele>806</ele>
        <time>2019-05-15T09:03:19.063Z</time>
      </trkpt>
      <trkpt lat="48.45068" lon="7.13766">
        <ele>806</ele>
        <time>2019-05-15T09:03:20.063Z</time>
      </trkpt>
      <trkpt lat="48.45067" lon="7.13766">
        <ele>806</ele>
        <time>2019-05-15T09:03:21.063Z</time>
      </trkpt>
      <trkpt lat="48.45067" lon="7.13767">
        <ele>806</ele>
        <time>2019-05-15T09:03:22.063Z</time>
      </trkpt>
      <trkpt lat="48.45066" lon="7.13767">
        <ele>807</ele>
        <time>2019-05-15T09:03:23.063Z</time>
      </trkpt>
      <trkpt lat="48.45065" lon="7.13767">
        <ele>807</ele>
        <time>2019-05-15T09:03:24.063Z</time>
      </trkpt>
      <trkpt lat="48.45065" lon="7.13768">
        <ele>807</ele>
        <time>2019-05-15T09:03:25.063Z</time>
      </trkpt>
      <trkpt lat="48.45064" lon="7.13768">
        <ele>806</ele>
        <time>2019-05-15T09:03:26.063Z</time>
      </trkpt>
      <trkpt lat="48.45063" lon="7.13769">
        <ele>807</ele>
        <time>2019-05-15T09:03:27.063Z</time>
      </trkpt>
      <trkpt lat="48.45062" lon="7.13769">
        <ele>806</ele>
        <time>2019-05-15T09:03:28.063Z</time>
      </trkpt>
      <trkpt lat="48.45061" lon="7.13769">
        <ele>806</ele>
        <time>2019-05-15T09:03:29.063Z</time>
      </trkpt>
      <trkpt lat="48.4506" lon="7.13769">
        <ele>806</ele>
        <time>2019-05-15T09:03:30.063Z</time>
      </trkpt>
      <trkpt lat="48.45059" lon="7.13769">
        <ele>806</ele>
        <time>2019-05-15T09:03:31.063Z</time>
      </trkpt>
      <trkpt lat="48.45058" lon="7.13769">
        <ele>806</ele>
        <time>2019-05-15T09:03:32.063Z</time>
      </trkpt>
      <trkpt lat="48.45057" lon="7.1377">
        <ele>806</ele>
        <time>2019-05-15T09:03:33.063Z</time>
      </trkpt>
      <trkpt lat="48.45056" lon="7.1377">
        <ele>806</ele>
        <time>2019-05-15T09:03:34.063Z</time>
      </trkpt>
      <trkpt lat="48.45056" lon="7.1377">
        <ele>807</ele>
        <time>2019-05-15T09:03:35.063Z</time>
      </trkpt>
      <trkpt lat="48.45055" lon="7.1377">
        <ele>807</ele>
        <time>2019-05-15T09:03:36.063Z</time>
      </trkpt>
      <trkpt lat="48.45054" lon="7.1377">
        <ele>807</ele>
        <time>2019-05-15T09:03:37.063Z</time>
      </trkpt>
      <trkpt lat="48.45053" lon="7.1377">
        <ele>806</ele>
        <time>2019-05-15T09:03:38.063Z</time>
      </trkpt>
      <trkpt lat="48.45052" lon="7.1377">
        <ele>806</ele>
        <time>2019-05-15T09:03:39.063Z</time>
      </trkpt>
      <trkpt lat="48.45051" lon="7.1377">
        <ele>807</ele>
        <time>2019-05-15T09:03:40.063Z</time>
      </trkpt>
      <trkpt lat="48.45051" lon="7.1377">
        <ele>807</ele>
        <time>2019-05-15T09:03:41.063Z</time>
      </trkpt>
      <trkpt lat="48.4505" lon="7.13771">
        <ele>807</ele>
        <time>2019-05-15T09:03:42.063Z</time>
      </trkpt>
      <trkpt lat="48.45049" lon="7.13771">
        <ele>807</ele>
        <time>2019-05-15T09:03:43.063Z</time>
      </trkpt>
      <trkpt lat="48.45048" lon="7.13771">
        <ele>807</ele>
        <time>2019-05-15T09:03:44.063Z</time>
      </trkpt>
      <trkpt lat="48.45048" lon="7.13771">
        <ele>807</ele>
        <time>2019-05-15T09:03:45.063Z</time>
      </trkpt>
      <trkpt lat="48.45047" lon="7.13771">
        <ele>807</ele>
        <time>2019-05-15T09:03:46.063Z</time>
      </trkpt>
      <trkpt lat="48.45046" lon="7.13771">
        <ele>807</ele>
        <time>2019-05-15T09:03:47.063Z</time>
      </trkpt>
      <trkpt lat="48.45045" lon="7.13772">
        <ele>806</ele>
        <time>2019-05-15T09:03:48.063Z</time>
      </trkpt>
      <trkpt lat="48.45044" lon="7.13772">
        <ele>806</ele>
        <time>2019-05-15T09:03:49.063Z</time>
      </trkpt>
      <trkpt lat="48.45044" lon="7.13772">
        <ele>807</ele>
        <time>2019-05-15T09:03:50.063Z</time>
      </trkpt>
      <trkpt lat="48.45042" lon="7.13772">
        <ele>807</ele>
        <time>2019-05-15T09:03:51.063Z</time>
      </trkpt>
      <trkpt lat="48.45041" lon="7.13773">
        <ele>806</ele>
        <time>2019-05-15T09:03:52.063Z</time>
      </trkpt>
      <trkpt lat="48.4504" lon="7.13773">
        <ele>807</ele>
        <time>2019-05-15T09:03:53.063Z</time>
      </trkpt>
      <trkpt lat="48.45039" lon="7.13773">
        <ele>806</ele>
        <time>2019-05-15T09:03:54.063Z</time>
      </trkpt>
      <trkpt lat="48.45038" lon="7.13772">
        <ele>806</ele>
        <time>2019-05-15T09:03:55.063Z</time>
      </trkpt>
      <trkpt lat="48.45037" lon="7.13772">
        <ele>806</ele>
        <time>2019-05-15T09:03:56.063Z</time>
      </trkpt>
      <trkpt lat="48.45036" lon="7.13772">
        <ele>806</ele>
        <time>2019-05-15T09:03:57.063Z</time>
      </trkpt>
      <trkpt lat="48.45035" lon="7.13772">
        <ele>806</ele>
        <time>2019-05-15T09:03:58.063Z</time>
      </trkpt>
      <trkpt lat="48.45035" lon="7.13772">
        <ele>806</ele>
        <time>2019-05-15T09:03:59.063Z</time>
      </trkpt>
      <trkpt lat="48.45034" lon="7.13772">
        <ele>806</ele>
        <time>2019-05-15T09:04:00.063Z</time>
      </trkpt>
      <trkpt lat="48.45033" lon="7.13772">
        <ele>805</ele>
        <time>2019-05-15T09:04:01.063Z</time>
      </trkpt>
      <trkpt lat="48.45032" lon="7.13773">
        <ele>806</ele>
        <time>2019-05-15T09:04:02.063Z</time>
      </trkpt>
      <trkpt lat="48.45032" lon="7.13773">
        <ele>806</ele>
        <time>2019-05-15T09:04:03.063Z</time>
      </trkpt>
      <trkpt lat="48.45031" lon="7.13773">
        <ele>806</ele>
        <time>2019-05-15T09:04:04.063Z</time>
      </trkpt>
      <trkpt lat="48.4503" lon="7.13774">
        <ele>806</ele>
        <time>2019-05-15T09:04:05.063Z</time>
      </trkpt>
      <trkpt lat="48.45029" lon="7.13774">
        <ele>806</ele>
        <time>2019-05-15T09:04:06.063Z</time>
      </trkpt>
      <trkpt lat="48.45028" lon="7.13774">
        <ele>806</ele>
        <time>2019-05-15T09:04:07.063Z</time>
      </trkpt>
      <trkpt lat="48.45027" lon="7.13774">
        <ele>807</ele>
        <time>2019-05-15T09:04:08.063Z</time>
      </trkpt>
      <trkpt lat="48.45026" lon="7.13775">
        <ele>807</ele>
        <time>2019-05-15T09:04:09.063Z</time>
      </trkpt>
      <trkpt lat="48.45025" lon="7.13776">
        <ele>808</ele>
        <time>2019-05-15T09:04:10.063Z</time>
      </trkpt>
      <trkpt lat="48.45024" lon="7.13776">
        <ele>808</ele>
        <time>2019-05-15T09:04:11.063Z</time>
      </trkpt>
      <trkpt lat="48.45024" lon="7.13777">
        <ele>808</ele>
        <time>2019-05-15T09:04:12.063Z</time>
      </trkpt>
      <trkpt lat="48.45023" lon="7.13777">
        <ele>808</ele>
        <time>2019-05-15T09:04:13.063Z</time>
      </trkpt>
      <trkpt lat="48.45022" lon="7.13777">
        <ele>809</ele>
        <time>2019-05-15T09:04:14.063Z</time>
      </trkpt>
      <trkpt lat="48.45021" lon="7.13777">
        <ele>809</ele>
        <time>2019-05-15T09:04:15.063Z</time>
      </trkpt>
      <trkpt lat="48.4502" lon="7.13777">
        <ele>809</ele>
        <time>2019-05-15T09:04:16.063Z</time>
      </trkpt>
      <trkpt lat="48.45019" lon="7.13777">
        <ele>809</ele>
        <time>2019-05-15T09:04:17.063Z</time>
      </trkpt>
      <trkpt lat="48.45018" lon="7.13777">
        <ele>810</ele>
        <time>2019-05-15T09:04:18.063Z</time>
      </trkpt>
      <trkpt lat="48.45017" lon="7.13777">
        <ele>810</ele>
        <time>2019-05-15T09:04:19.063Z</time>
      </trkpt>
      <trkpt lat="48.45016" lon="7.13777">
        <ele>810</ele>
        <time>2019-05-15T09:04:20.063Z</time>
      </trkpt>
      <trkpt lat="48.45015" lon="7.13778">
        <ele>810</ele>
        <time>2019-05-15T09:04:21.063Z</time>
      </trkpt>
      <trkpt lat="48.45015" lon="7.13778">
        <ele>810</ele>
        <time>2019-05-15T09:04:22.063Z</time>
      </trkpt>
      <trkpt lat="48.45015" lon="7.13778">
        <ele>810</ele>
        <time>2019-05-15T09:04:23.063Z</time>
      </trkpt>
      <trkpt lat="48.45014" lon="7.13778">
        <ele>809</ele>
        <time>2019-05-15T09:04:24.063Z</time>
      </trkpt>
      <trkpt lat="48.45014" lon="7.13778">
        <ele>810</ele>
        <time>2019-05-15T09:04:25.063Z</time>
      </trkpt>
      <trkpt lat="48.45013" lon="7.13779">
        <ele>810</ele>
        <time>2019-05-15T09:04:26.063Z</time>
      </trkpt>
      <trkpt lat="48.45012" lon="7.13779">
        <ele>810</ele>
        <time>2019-05-15T09:04:27.063Z</time>
      </trkpt>
      <trkpt lat="48.45012" lon="7.13779">
        <ele>810</ele>
        <time>2019-05-15T09:04:28.063Z</time>
      </trkpt>
      <trkpt lat="48.45011" lon="7.13779">
        <ele>810</ele>
        <time>2019-05-15T09:04:29.063Z</time>
      </trkpt>
      <trkpt lat="48.4501" lon="7.13779">
        <ele>810</ele>
        <time>2019-05-15T09:04:30.063Z</time>
      </trkpt>
      <trkpt lat="48.45009" lon="7.1378">
        <ele>809</ele>
        <time>2019-05-15T09:04:31.063Z</time>
      </trkpt>
      <trkpt lat="48.45009" lon="7.1378">
        <ele>810</ele>
        <time>2019-05-15T09:04:32.063Z</time>
      </trkpt>
      <trkpt lat="48.45008" lon="7.13781">
        <ele>809</ele>
        <time>2019-05-15T09:04:33.063Z</time>
      </trkpt>
      <trkpt lat="48.45007" lon="7.13781">
        <ele>809</ele>
        <time>2019-05-15T09:04:34.063Z</time>
      </trkpt>
      <trkpt lat="48.45007" lon="7.13781">
        <ele>810</ele>
        <time>2019-05-15T09:04:35.063Z</time>
      </trkpt>
      <trkpt lat="48.45006" lon="7.1378">
        <ele>810</ele>
        <time>2019-05-15T09:04:36.063Z</time>
      </trkpt>
      <trkpt lat="48.45005" lon="7.1378">
        <ele>811</ele>
        <time>2019-05-15T09:04:37.063Z</time>
      </trkpt>
      <trkpt lat="48.45004" lon="7.1378">
        <ele>812</ele>
        <time>2019-05-15T09:04:38.063Z</time>
      </trkpt>
      <trkpt lat="48.45004" lon="7.1378">
        <ele>812</ele>
        <time>2019-05-15T09:04:39.063Z</time>
      </trkpt>
      <trkpt lat="48.45003" lon="7.1378">
        <ele>812</ele>
        <time>2019-05-15T09:04:40.063Z</time>
      </trkpt>
      <trkpt lat="48.45002" lon="7.13781">
        <ele>812</ele>
        <time>2019-05-15T09:04:41.063Z</time>
      </trkpt>
      <trkpt lat="48.45001" lon="7.13781">
        <ele>812</ele>
        <time>2019-05-15T09:04:42.063Z</time>
      </trkpt>
      <trkpt lat="48.45" lon="7.13781">
        <ele>811</ele>
        <time>2019-05-15T09:04:43.063Z</time>
      </trkpt>
      <trkpt lat="48.44999" lon="7.13781">
        <ele>811</ele>
        <time>2019-05-15T09:04:44.063Z</time>
      </trkpt>
      <trkpt lat="48.44998" lon="7.13782">
        <ele>811</ele>
        <time>2019-05-15T09:04:45.063Z</time>
      </trkpt>
      <trkpt lat="48.44997" lon="7.13782">
        <ele>811</ele>
        <time>2019-05-15T09:04:46.063Z</time>
      </trkpt>
      <trkpt lat="48.44996" lon="7.13783">
        <ele>812</ele>
        <time>2019-05-15T09:04:47.063Z</time>
      </trkpt>
      <trkpt lat="48.44995" lon="7.13783">
        <ele>811</ele>
        <time>2019-05-15T09:04:48.063Z</time>
      </trkpt>
      <trkpt lat="48.44994" lon="7.13783">
        <ele>810</ele>
        <time>2019-05-15T09:04:49.063Z</time>
      </trkpt>
      <trkpt lat="48.44993" lon="7.13783">
        <ele>810</ele>
        <time>2019-05-15T09:04:50.063Z</time>
      </trkpt>
      <trkpt lat="48.44992" lon="7.13783">
        <ele>810</ele>
        <time>2019-05-15T09:04:51.063Z</time>
      </trkpt>
      <trkpt lat="48.44991" lon="7.13783">
        <ele>809</ele>
        <time>2019-05-15T09:04:52.063Z</time>
      </trkpt>
      <trkpt lat="48.4499" lon="7.13783">
        <ele>809</ele>
        <time>2019-05-15T09:04:53.063Z</time>
      </trkpt>
      <trkpt lat="48.44989" lon="7.13784">
        <ele>809</ele>
        <time>2019-05-15T09:04:54.063Z</time>
      </trkpt>
      <trkpt lat="48.44988" lon="7.13784">
        <ele>808</ele>
        <time>2019-05-15T09:04:55.063Z</time>
      </trkpt>
      <trkpt lat="48.44987" lon="7.13784">
        <ele>808</ele>
        <time>2019-05-15T09:04:56.063Z</time>
      </trkpt>
      <trkpt lat="48.44987" lon="7.13785">
        <ele>809</ele>
        <time>2019-05-15T09:04:57.063Z</time>
      </trkpt>
      <trkpt lat="48.44986" lon="7.13785">
        <ele>809</ele>
        <time>2019-05-15T09:04:58.063Z</time>
      </trkpt>
      <trkpt lat="48.44985" lon="7.13785">
        <ele>809</ele>
        <time>2019-05-15T09:04:59.063Z</time>
      </trkpt>
      <trkpt lat="48.44985" lon="7.13786">
        <ele>809</ele>
        <time>2019-05-15T09:05:00.063Z</time>
      </trkpt>
      <trkpt lat="48.44984" lon="7.13787">
        <ele>808</ele>
        <time>2019-05-15T09:05:01.063Z</time>
      </trkpt>
      <trkpt lat="48.44983" lon="7.13787">
        <ele>808</ele>
        <time>2019-05-15T09:05:02.063Z</time>
      </trkpt>
      <trkpt lat="48.44982" lon="7.13788">
        <ele>808</ele>
        <time>2019-05-15T09:05:03.063Z</time>
      </trkpt>
      <trkpt lat="48.44981" lon="7.13788">
        <ele>809</ele>
        <time>2019-05-15T09:05:04.063Z</time>
      </trkpt>
      <trkpt lat="48.4498" lon="7.13789">
        <ele>809</ele>
        <time>2019-05-15T09:05:05.063Z</time>
      </trkpt>
      <trkpt lat="48.44979" lon="7.13789">
        <ele>809</ele>
        <time>2019-05-15T09:05:06.063Z</time>
      </trkpt>
      <trkpt lat="48.44978" lon="7.13789">
        <ele>809</ele>
        <time>2019-05-15T09:05:07.063Z</time>
      </trkpt>
      <trkpt lat="48.44978" lon="7.1379">
        <ele>809</ele>
        <time>2019-05-15T09:05:08.063Z</time>
      </trkpt>
      <trkpt lat="48.44977" lon="7.1379">
        <ele>809</ele>
        <time>2019-05-15T09:05:09.063Z</time>
      </trkpt>
      <trkpt lat="48.44976" lon="7.1379">
        <ele>809</ele>
        <time>2019-05-15T09:05:10.063Z</time>
      </trkpt>
      <trkpt lat="48.44976" lon="7.13791">
        <ele>809</ele>
        <time>2019-05-15T09:05:11.063Z</time>
      </trkpt>
      <trkpt lat="48.44976" lon="7.13791">
        <ele>809</ele>
        <time>2019-05-15T09:05:12.063Z</time>
      </trkpt>
      <trkpt lat="48.44975" lon="7.13791">
        <ele>808</ele>
        <time>2019-05-15T09:05:13.063Z</time>
      </trkpt>
      <trkpt lat="48.44975" lon="7.13791">
        <ele>808</ele>
        <time>2019-05-15T09:05:14.063Z</time>
      </trkpt>
      <trkpt lat="48.44974" lon="7.13791">
        <ele>808</ele>
        <time>2019-05-15T09:05:15.063Z</time>
      </trkpt>
      <trkpt lat="48.44973" lon="7.13791">
        <ele>808</ele>
        <time>2019-05-15T09:05:16.063Z</time>
      </trkpt>
      <trkpt lat="48.44972" lon="7.13791">
        <ele>808</ele>
        <time>2019-05-15T09:05:17.063Z</time>
      </trkpt>
      <trkpt lat="48.44972" lon="7.13791">
        <ele>809</ele>
        <time>2019-05-15T09:05:18.063Z</time>
      </trkpt>
      <trkpt lat="48.44971" lon="7.13791">
        <ele>809</ele>
        <time>2019-05-15T09:05:19.063Z</time>
      </trkpt>
      <trkpt lat="48.4497" lon="7.13792">
        <ele>809</ele>
        <time>2019-05-15T09:05:20.063Z</time>
      </trkpt>
      <trkpt lat="48.44969" lon="7.13792">
        <ele>809</ele>
        <time>2019-05-15T09:05:21.063Z</time>
      </trkpt>
      <trkpt lat="48.44969" lon="7.13792">
        <ele>809</ele>
        <time>2019-05-15T09:05:22.063Z</time>
      </trkpt>
      <trkpt lat="48.44968" lon="7.13792">
        <ele>809</ele>
        <time>2019-05-15T09:05:23.063Z</time>
      </trkpt>
      <trkpt lat="48.44968" lon="7.13793">
        <ele>809</ele>
        <time>2019-05-15T09:05:24.063Z</time>
      </trkpt>
      <trkpt lat="48.44967" lon="7.13793">
        <ele>810</ele>
        <time>2019-05-15T09:05:25.063Z</time>
      </trkpt>
      <trkpt lat="48.44966" lon="7.13794">
        <ele>810</ele>
        <time>2019-05-15T09:05:26.063Z</time>
      </trkpt>
      <trkpt lat="48.44966" lon="7.13795">
        <ele>811</ele>
        <time>2019-05-15T09:05:27.063Z</time>
      </trkpt>
      <trkpt lat="48.44965" lon="7.13795">
        <ele>811</ele>
        <time>2019-05-15T09:05:28.063Z</time>
      </trkpt>
      <trkpt lat="48.44964" lon="7.13796">
        <ele>811</ele>
        <time>2019-05-15T09:05:29.063Z</time>
      </trkpt>
      <trkpt lat="48.44964" lon="7.13796">
        <ele>811</ele>
        <time>2019-05-15T09:05:30.063Z</time>
      </trkpt>
      <trkpt lat="48.44963" lon="7.13796">
        <ele>811</ele>
        <time>2019-05-15T09:05:31.063Z</time>
      </trkpt>
      <trkpt lat="48.44963" lon="7.13796">
        <ele>811</ele>
        <time>2019-05-15T09:05:32.063Z</time>
      </trkpt>
      <trkpt lat="48.44963" lon="7.13796">
        <ele>810</ele>
        <time>2019-05-15T09:05:33.063Z</time>
      </trkpt>
      <trkpt lat="48.44963" lon="7.13796">
        <ele>810</ele>
        <time>2019-05-15T09:05:34.063Z</time>
      </trkpt>
      <trkpt lat="48.44962" lon="7.13796">
        <ele>810</ele>
        <time>2019-05-15T09:05:35.063Z</time>
      </trkpt>
      <trkpt lat="48.44962" lon="7.13796">
        <ele>810</ele>
        <time>2019-05-15T09:05:36.063Z</time>
      </trkpt>
      <trkpt lat="48.44962" lon="7.13796">
        <ele>811</ele>
        <time>2019-05-15T09:05:37.063Z</time>
      </trkpt>
      <trkpt lat="48.44961" lon="7.13796">
        <ele>810</ele>
        <time>2019-05-15T09:05:38.063Z</time>
      </trkpt>
      <trkpt lat="48.44961" lon="7.13796">
        <ele>809</ele>
        <time>2019-05-15T09:05:39.063Z</time>
      </trkpt>
      <trkpt lat="48.44961" lon="7.13796">
        <ele>809</ele>
        <time>2019-05-15T09:05:40.063Z</time>
      </trkpt>
      <trkpt lat="48.44961" lon="7.13796">
        <ele>809</ele>
        <time>2019-05-15T09:05:41.063Z</time>
      </trkpt>
      <trkpt lat="48.44961" lon="7.13796">
        <ele>808</ele>
        <time>2019-05-15T09:05:42.063Z</time>
      </trkpt>
      <trkpt lat="48.4496" lon="7.13796">
        <ele>808</ele>
        <time>2019-05-15T09:05:43.063Z</time>
      </trkpt>
      <trkpt lat="48.4496" lon="7.13795">
        <ele>807</ele>
        <time>2019-05-15T09:05:44.063Z</time>
      </trkpt>
      <trkpt lat="48.4496" lon="7.13795">
        <ele>807</ele>
        <time>2019-05-15T09:05:45.063Z</time>
      </trkpt>
      <trkpt lat="48.4496" lon="7.13795">
        <ele>806</ele>
        <time>2019-05-15T09:05:46.063Z</time>
      </trkpt>
      <trkpt lat="48.4496" lon="7.13795">
        <ele>806</ele>
        <time>2019-05-15T09:05:47.063Z</time>
      </trkpt>
      <trkpt lat="48.4496" lon="7.13795">
        <ele>806</ele>
        <time>2019-05-15T09:05:48.063Z</time>
      </trkpt>
      <trkpt lat="48.4496" lon="7.13795">
        <ele>806</ele>
        <time>2019-05-15T09:05:49.063Z</time>
      </trkpt>
      <trkpt lat="48.4496" lon="7.13795">
        <ele>806</ele>
        <time>2019-05-15T09:05:50.063Z</time>
      </trkpt>
      <trkpt lat="48.4496" lon="7.13795">
        <ele>805</ele>
        <time>2019-05-15T09:05:51.063Z</time>
      </trkpt>
      <trkpt lat="48.44959" lon="7.13795">
        <ele>805</ele>
        <time>2019-05-15T09:05:52.063Z</time>
      </trkpt>
      <trkpt lat="48.44959" lon="7.13795">
        <ele>805</ele>
        <time>2019-05-15T09:05:53.063Z</time>
      </trkpt>
      <trkpt lat="48.44959" lon="7.13795">
        <ele>805</ele>
        <time>2019-05-15T09:05:54.063Z</time>
      </trkpt>
      <trkpt lat="48.44958" lon="7.13795">
        <ele>805</ele>
        <time>2019-05-15T09:05:55.063Z</time>
      </trkpt>
      <trkpt lat="48.44958" lon="7.13795">
        <ele>805</ele>
        <time>2019-05-15T09:05:56.063Z</time>
      </trkpt>
      <trkpt lat="48.44958" lon="7.13795">
        <ele>805</ele>
        <time>2019-05-15T09:05:57.063Z</time>
      </trkpt>
      <trkpt lat="48.44957" lon="7.13796">
        <ele>805</ele>
        <time>2019-05-15T09:05:58.063Z</time>
      </trkpt>
      <trkpt lat="48.44957" lon="7.13796">
        <ele>804</ele>
        <time>2019-05-15T09:05:59.063Z</time>
      </trkpt>
      <trkpt lat="48.44957" lon="7.13797">
        <ele>804</ele>
        <time>2019-05-15T09:06:00.063Z</time>
      </trkpt>
      <trkpt lat="48.44956" lon="7.13797">
        <ele>804</ele>
        <time>2019-05-15T09:06:01.063Z</time>
      </trkpt>
      <trkpt lat="48.44956" lon="7.13798">
        <ele>805</ele>
        <time>2019-05-15T09:06:02.063Z</time>
      </trkpt>
      <trkpt lat="48.44955" lon="7.13798">
        <ele>804</ele>
        <time>2019-05-15T09:06:03.063Z</time>
      </trkpt>
      <trkpt lat="48.44955" lon="7.13799">
        <ele>805</ele>
        <time>2019-05-15T09:06:04.063Z</time>
      </trkpt>
      <trkpt lat="48.44954" lon="7.13799">
        <ele>804</ele>
        <time>2019-05-15T09:06:05.063Z</time>
      </trkpt>
      <trkpt lat="48.44953" lon="7.13799">
        <ele>804</ele>
        <time>2019-05-15T09:06:06.063Z</time>
      </trkpt>
      <trkpt lat="48.44952" lon="7.13798">
        <ele>803</ele>
        <time>2019-05-15T09:06:07.063Z</time>
      </trkpt>
      <trkpt lat="48.44952" lon="7.13797">
        <ele>804</ele>
        <time>2019-05-15T09:06:08.063Z</time>
      </trkpt>
      <trkpt lat="48.44951" lon="7.13797">
        <ele>803</ele>
        <time>2019-05-15T09:06:09.063Z</time>
      </trkpt>
      <trkpt lat="48.44951" lon="7.13797">
        <ele>803</ele>
        <time>2019-05-15T09:06:10.063Z</time>
      </trkpt>
      <trkpt lat="48.44951" lon="7.13796">
        <ele>803</ele>
        <time>2019-05-15T09:06:11.063Z</time>
      </trkpt>
      <trkpt lat="48.44951" lon="7.13795">
        <ele>804</ele>
        <time>2019-05-15T09:06:12.063Z</time>
      </trkpt>
      <trkpt lat="48.44951" lon="7.13795">
        <ele>804</ele>
        <time>2019-05-15T09:06:13.063Z</time>
      </trkpt>
      <trkpt lat="48.44951" lon="7.13794">
        <ele>804</ele>
        <time>2019-05-15T09:06:14.063Z</time>
      </trkpt>
      <trkpt lat="48.44951" lon="7.13794">
        <ele>805</ele>
        <time>2019-05-15T09:06:15.063Z</time>
      </trkpt>
      <trkpt lat="48.4495" lon="7.13793">
        <ele>805</ele>
        <time>2019-05-15T09:06:16.063Z</time>
      </trkpt>
      <trkpt lat="48.4495" lon="7.13794">
        <ele>805</ele>
        <time>2019-05-15T09:06:17.063Z</time>
      </trkpt>
      <trkpt lat="48.4495" lon="7.13794">
        <ele>806</ele>
        <time>2019-05-15T09:06:18.063Z</time>
      </trkpt>
      <trkpt lat="48.44949" lon="7.13794">
        <ele>805</ele>
        <time>2019-05-15T09:06:19.063Z</time>
      </trkpt>
      <trkpt lat="48.44949" lon="7.13794">
        <ele>806</ele>
        <time>2019-05-15T09:06:20.063Z</time>
      </trkpt>
      <trkpt lat="48.44949" lon="7.13794">
        <ele>806</ele>
        <time>2019-05-15T09:06:21.063Z</time>
      </trkpt>
      <trkpt lat="48.44948" lon="7.13793">
        <ele>806</ele>
        <time>2019-05-15T09:06:22.063Z</time>
      </trkpt>
      <trkpt lat="48.44948" lon="7.13793">
        <ele>806</ele>
        <time>2019-05-15T09:06:23.063Z</time>
      </trkpt>
      <trkpt lat="48.44947" lon="7.13793">
        <ele>805</ele>
        <time>2019-05-15T09:06:24.063Z</time>
      </trkpt>
      <trkpt lat="48.44946" lon="7.13794">
        <ele>805</ele>
        <time>2019-05-15T09:06:25.063Z</time>
      </trkpt>
      <trkpt lat="48.44945" lon="7.13794">
        <ele>805</ele>
        <time>2019-05-15T09:06:26.063Z</time>
      </trkpt>
      <trkpt lat="48.44944" lon="7.13794">
        <ele>806</ele>
        <time>2019-05-15T09:06:27.063Z</time>
      </trkpt>
      <trkpt lat="48.44943" lon="7.13794">
        <ele>806</ele>
        <time>2019-05-15T09:06:28.063Z</time>
      </trkpt>
      <trkpt lat="48.44943" lon="7.13795">
        <ele>806</ele>
        <time>2019-05-15T09:06:29.063Z</time>
      </trkpt>
      <trkpt lat="48.44942" lon="7.13795">
        <ele>806</ele>
        <time>2019-05-15T09:06:30.063Z</time>
      </trkpt>
      <trkpt lat="48.44941" lon="7.13796">
        <ele>806</ele>
        <time>2019-05-15T09:06:31.063Z</time>
      </trkpt>
      <trkpt lat="48.4494" lon="7.13796">
        <ele>807</ele>
        <time>2019-05-15T09:06:32.063Z</time>
      </trkpt>
      <trkpt lat="48.4494" lon="7.13797">
        <ele>806</ele>
        <time>2019-05-15T09:06:33.063Z</time>
      </trkpt>
      <trkpt lat="48.44939" lon="7.13798">
        <ele>806</ele>
        <time>2019-05-15T09:06:34.063Z</time>
      </trkpt>
      <trkpt lat="48.44938" lon="7.13798">
        <ele>806</ele>
        <time>2019-05-15T09:06:35.063Z</time>
      </trkpt>
      <trkpt lat="48.44937" lon="7.13799">
        <ele>806</ele>
        <time>2019-05-15T09:06:36.063Z</time>
      </trkpt>
      <trkpt lat="48.44936" lon="7.13799">
        <ele>806</ele>
        <time>2019-05-15T09:06:37.063Z</time>
      </trkpt>
      <trkpt lat="48.44935" lon="7.13799">
        <ele>805</ele>
        <time>2019-05-15T09:06:38.063Z</time>
      </trkpt>
      <trkpt lat="48.44934" lon="7.13799">
        <ele>805</ele>
        <time>2019-05-15T09:06:39.063Z</time>
      </trkpt>
      <trkpt lat="48.44934" lon="7.13799">
        <ele>805</ele>
        <time>2019-05-15T09:06:40.063Z</time>
      </trkpt>
      <trkpt lat="48.44933" lon="7.13799">
        <ele>805</ele>
        <time>2019-05-15T09:06:41.063Z</time>
      </trkpt>
      <trkpt lat="48.44933" lon="7.13799">
        <ele>806</ele>
        <time>2019-05-15T09:06:42.063Z</time>
      </trkpt>
      <trkpt lat="48.44932" lon="7.138">
        <ele>806</ele>
        <time>2019-05-15T09:06:43.063Z</time>
      </trkpt>
      <trkpt lat="48.44932" lon="7.138">
        <ele>808</ele>
        <time>2019-05-15T09:06:44.063Z</time>
      </trkpt>
      <trkpt lat="48.44931" lon="7.138">
        <ele>808</ele>
        <time>2019-05-15T09:06:45.063Z</time>
      </trkpt>
      <trkpt lat="48.4493" lon="7.13801">
        <ele>809</ele>
        <time>2019-05-15T09:06:46.063Z</time>
      </trkpt>
      <trkpt lat="48.4493" lon="7.13801">
        <ele>809</ele>
        <time>2019-05-15T09:06:47.063Z</time>
      </trkpt>
      <trkpt lat="48.44929" lon="7.13801">
        <ele>809</ele>
        <time>2019-05-15T09:06:48.063Z</time>
      </trkpt>
      <trkpt lat="48.44929" lon="7.13802">
        <ele>810</ele>
        <time>2019-05-15T09:06:49.063Z</time>
      </trkpt>
      <trkpt lat="48.44928" lon="7.13802">
        <ele>810</ele>
        <time>2019-05-15T09:06:50.063Z</time>
      </trkpt>
      <trkpt lat="48.44928" lon="7.13803">
        <ele>810</ele>
        <time>2019-05-15T09:06:51.063Z</time>
      </trkpt>
      <trkpt lat="48.44927" lon="7.13804">
        <ele>810</ele>
        <time>2019-05-15T09:06:52.063Z</time>
      </trkpt>
      <trkpt lat="48.44926" lon="7.13804">
        <ele>810</ele>
        <time>2019-05-15T09:06:53.063Z</time>
      </trkpt>
      <trkpt lat="48.44926" lon="7.13804">
        <ele>810</ele>
        <time>2019-05-15T09:06:54.063Z</time>
      </trkpt>
      <trkpt lat="48.44925" lon="7.13805">
        <ele>810</ele>
        <time>2019-05-15T09:06:55.063Z</time>
      </trkpt>
      <trkpt lat="48.44924" lon="7.13805">
        <ele>810</ele>
        <time>2019-05-15T09:06:56.063Z</time>
      </trkpt>
      <trkpt lat="48.44924" lon="7.13806">
        <ele>810</ele>
        <time>2019-05-15T09:06:57.063Z</time>
      </trkpt>
      <trkpt lat="48.44923" lon="7.13806">
        <ele>810</ele>
        <time>2019-05-15T09:06:58.063Z</time>
      </trkpt>
      <trkpt lat="48.44922" lon="7.13806">
        <ele>811</ele>
        <time>2019-05-15T09:06:59.063Z</time>
      </trkpt>
      <trkpt lat="48.44922" lon="7.13807">
        <ele>812</ele>
        <time>2019-05-15T09:07:00.063Z</time>
      </trkpt>
      <trkpt lat="48.44921" lon="7.13808">
        <ele>811</ele>
        <time>2019-05-15T09:07:01.063Z</time>
      </trkpt>
      <trkpt lat="48.44921" lon="7.13809">
        <ele>811</ele>
        <time>2019-05-15T09:07:02.063Z</time>
      </trkpt>
      <trkpt lat="48.4492" lon="7.1381">
        <ele>811</ele>
        <time>2019-05-15T09:07:03.063Z</time>
      </trkpt>
      <trkpt lat="48.44919" lon="7.1381">
        <ele>811</ele>
        <time>2019-05-15T09:07:04.063Z</time>
      </trkpt>
      <trkpt lat="48.44918" lon="7.1381">
        <ele>811</ele>
        <time>2019-05-15T09:07:05.063Z</time>
      </trkpt>
      <trkpt lat="48.44918" lon="7.1381">
        <ele>810</ele>
        <time>2019-05-15T09:07:06.063Z</time>
      </trkpt>
      <trkpt lat="48.44917" lon="7.13811">
        <ele>810</ele>
        <time>2019-05-15T09:07:07.063Z</time>
      </trkpt>
      <trkpt lat="48.44916" lon="7.13811">
        <ele>810</ele>
        <time>2019-05-15T09:07:08.063Z</time>
      </trkpt>
      <trkpt lat="48.44916" lon="7.13812">
        <ele>810</ele>
        <time>2019-05-15T09:07:09.063Z</time>
      </trkpt>
      <trkpt lat="48.44915" lon="7.13812">
        <ele>811</ele>
        <time>2019-05-15T09:07:10.063Z</time>
      </trkpt>
      <trkpt lat="48.44915" lon="7.13813">
        <ele>811</ele>
        <time>2019-05-15T09:07:11.063Z</time>
      </trkpt>
      <trkpt lat="48.44914" lon="7.13813">
        <ele>811</ele>
        <time>2019-05-15T09:07:12.063Z</time>
      </trkpt>
      <trkpt lat="48.44913" lon="7.13814">
        <ele>811</ele>
        <time>2019-05-15T09:07:13.063Z</time>
      </trkpt>
      <trkpt lat="48.44913" lon="7.13814">
        <ele>810</ele>
        <time>2019-05-15T09:07:14.063Z</time>
      </trkpt>
      <trkpt lat="48.44912" lon="7.13814">
        <ele>811</ele>
        <time>2019-05-15T09:07:15.063Z</time>
      </trkpt>
      <trkpt lat="48.44912" lon="7.13815">
        <ele>811</ele>
        <time>2019-05-15T09:07:16.063Z</time>
      </trkpt>
      <trkpt lat="48.44911" lon="7.13816">
        <ele>811</ele>
        <time>2019-05-15T09:07:17.063Z</time>
      </trkpt>
      <trkpt lat="48.4491" lon="7.13817">
        <ele>812</ele>
        <time>2019-05-15T09:07:18.063Z</time>
      </trkpt>
      <trkpt lat="48.44909" lon="7.13817">
        <ele>812</ele>
        <time>2019-05-15T09:07:19.063Z</time>
      </trkpt>
      <trkpt lat="48.44909" lon="7.13818">
        <ele>812</ele>
        <time>2019-05-15T09:07:20.063Z</time>
      </trkpt>
      <trkpt lat="48.44908" lon="7.13818">
        <ele>812</ele>
        <time>2019-05-15T09:07:21.063Z</time>
      </trkpt>
      <trkpt lat="48.44908" lon="7.13819">
        <ele>813</ele>
        <time>2019-05-15T09:07:22.063Z</time>
      </trkpt>
      <trkpt lat="48.44907" lon="7.13819">
        <ele>813</ele>
        <time>2019-05-15T09:07:23.063Z</time>
      </trkpt>
      <trkpt lat="48.44906" lon="7.13819">
        <ele>813</ele>
        <time>2019-05-15T09:07:24.063Z</time>
      </trkpt>
      <trkpt lat="48.44905" lon="7.1382">
        <ele>814</ele>
        <time>2019-05-15T09:07:25.063Z</time>
      </trkpt>
      <trkpt lat="48.44905" lon="7.1382">
        <ele>814</ele>
        <time>2019-05-15T09:07:26.063Z</time>
      </trkpt>
      <trkpt lat="48.44905" lon="7.13821">
        <ele>814</ele>
        <time>2019-05-15T09:07:27.063Z</time>
      </trkpt>
      <trkpt lat="48.44904" lon="7.13821">
        <ele>814</ele>
        <time>2019-05-15T09:07:28.063Z</time>
      </trkpt>
      <trkpt lat="48.44903" lon="7.13822">
        <ele>814</ele>
        <time>2019-05-15T09:07:29.063Z</time>
      </trkpt>
      <trkpt lat="48.44903" lon="7.13822">
        <ele>814</ele>
        <time>2019-05-15T09:07:30.063Z</time>
      </trkpt>
      <trkpt lat="48.44902" lon="7.13823">
        <ele>814</ele>
        <time>2019-05-15T09:07:31.063Z</time>
      </trkpt>
      <trkpt lat="48.44902" lon="7.13823">
        <ele>814</ele>
        <time>2019-05-15T09:07:32.063Z</time>
      </trkpt>
      <trkpt lat="48.44901" lon="7.13823">
        <ele>814</ele>
        <time>2019-05-15T09:07:33.063Z</time>
      </trkpt>
      <trkpt lat="48.44901" lon="7.13823">
        <ele>814</ele>
        <time>2019-05-15T09:07:34.063Z</time>
      </trkpt>
      <trkpt lat="48.44901" lon="7.13823">
        <ele>814</ele>
        <time>2019-05-15T09:07:35.063Z</time>
      </trkpt>
      <trkpt lat="48.44901" lon="7.13824">
        <ele>814</ele>
        <time>2019-05-15T09:07:36.063Z</time>
      </trkpt>
      <trkpt lat="48.449" lon="7.13824">
        <ele>814</ele>
        <time>2019-05-15T09:07:37.063Z</time>
      </trkpt>
      <trkpt lat="48.449" lon="7.13825">
        <ele>814</ele>
        <time>2019-05-15T09:07:38.063Z</time>
      </trkpt>
      <trkpt lat="48.44899" lon="7.13825">
        <ele>815</ele>
        <time>2019-05-15T09:07:39.063Z</time>
      </trkpt>
      <trkpt lat="48.44899" lon="7.13825">
        <ele>815</ele>
        <time>2019-05-15T09:07:40.063Z</time>
      </trkpt>
      <trkpt lat="48.44899" lon="7.13825">
        <ele>815</ele>
        <time>2019-05-15T09:07:41.063Z</time>
      </trkpt>
      <trkpt lat="48.44898" lon="7.13826">
        <ele>816</ele>
        <time>2019-05-15T09:07:42.063Z</time>
      </trkpt>
      <trkpt lat="48.44898" lon="7.13826">
        <ele>816</ele>
        <time>2019-05-15T09:07:43.063Z</time>
      </trkpt>
      <trkpt lat="48.44898" lon="7.13826">
        <ele>816</ele>
        <time>2019-05-15T09:07:44.063Z</time>
      </trkpt>
      <trkpt lat="48.44897" lon="7.13826">
        <ele>816</ele>
        <time>2019-05-15T09:07:45.063Z</time>
      </trkpt>
      <trkpt lat="48.44897" lon="7.13826">
        <ele>816</ele>
        <time>2019-05-15T09:07:46.063Z</time>
      </trkpt>
      <trkpt lat="48.44896" lon="7.13827">
        <ele>816</ele>
        <time>2019-05-15T09:07:47.063Z</time>
      </trkpt>
      <trkpt lat="48.44896" lon="7.13827">
        <ele>816</ele>
        <time>2019-05-15T09:07:48.063Z</time>
      </trkpt>
      <trkpt lat="48.44896" lon="7.13828">
        <ele>817</ele>
        <time>2019-05-15T09:07:49.063Z</time>
      </trkpt>
      <trkpt lat="48.44896" lon="7.13828">
        <ele>817</ele>
        <time>2019-05-15T09:07:50.063Z</time>
      </trkpt>
      <trkpt lat="48.44895" lon="7.13828">
        <ele>816</ele>
        <time>2019-05-15T09:07:51.063Z</time>
      </trkpt>
      <trkpt lat="48.44895" lon="7.13828">
        <ele>816</ele>
        <time>2019-05-15T09:07:52.063Z</time>
      </trkpt>
      <trkpt lat="48.44895" lon="7.13828">
        <ele>816</ele>
        <time>2019-05-15T09:07:53.063Z</time>
      </trkpt>
      <trkpt lat="48.44895" lon="7.13828">
        <ele>816</ele>
        <time>2019-05-15T09:07:54.063Z</time>
      </trkpt>
      <trkpt lat="48.44895" lon="7.13828">
        <ele>817</ele>
        <time>2019-05-15T09:07:55.063Z</time>
      </trkpt>
      <trkpt lat="48.44894" lon="7.13829">
        <ele>817</ele>
        <time>2019-05-15T09:07:56.063Z</time>
      </trkpt>
      <trkpt lat="48.44894" lon="7.13829">
        <ele>817</ele>
        <time>2019-05-15T09:07:57.063Z</time>
      </trkpt>
      <trkpt lat="48.44894" lon="7.13829">
        <ele>817</ele>
        <time>2019-05-15T09:07:58.063Z</time>
      </trkpt>
      <trkpt lat="48.44893" lon="7.13829">
        <ele>817</ele>
        <time>2019-05-15T09:07:59.063Z</time>
      </trkpt>
      <trkpt lat="48.44893" lon="7.13829">
        <ele>816</ele>
        <time>2019-05-15T09:08:00.063Z</time>
      </trkpt>
      <trkpt lat="48.44893" lon="7.13829">
        <ele>816</ele>
        <time>2019-05-15T09:08:01.063Z</time>
      </trkpt>
      <trkpt lat="48.44892" lon="7.13829">
        <ele>815</ele>
        <time>2019-05-15T09:08:02.063Z</time>
      </trkpt>
      <trkpt lat="48.44892" lon="7.13829">
        <ele>815</ele>
        <time>2019-05-15T09:08:03.063Z</time>
      </trkpt>
      <trkpt lat="48.44892" lon="7.13828">
        <ele>815</ele>
        <time>2019-05-15T09:08:04.063Z</time>
      </trkpt>
      <trkpt lat="48.44892" lon="7.13829">
        <ele>815</ele>
        <time>2019-05-15T09:08:05.063Z</time>
      </trkpt>
      <trkpt lat="48.44891" lon="7.13829">
        <ele>815</ele>
        <time>2019-05-15T09:08:06.063Z</time>
      </trkpt>
      <trkpt lat="48.44891" lon="7.13829">
        <ele>815</ele>
        <time>2019-05-15T09:08:07.063Z</time>
      </trkpt>
      <trkpt lat="48.44891" lon="7.13829">
        <ele>815</ele>
        <time>2019-05-15T09:08:08.063Z</time>
      </trkpt>
      <trkpt lat="48.44891" lon="7.13829">
        <ele>814</ele>
        <time>2019-05-15T09:08:09.063Z</time>
      </trkpt>
      <trkpt lat="48.44891" lon="7.13829">
        <ele>815</ele>
        <time>2019-05-15T09:08:10.063Z</time>
      </trkpt>
      <trkpt lat="48.44891" lon="7.13829">
        <ele>815</ele>
        <time>2019-05-15T09:08:11.063Z</time>
      </trkpt>
      <trkpt lat="48.44891" lon="7.13829">
        <ele>815</ele>
        <time>2019-05-15T09:08:12.063Z</time>
      </trkpt>
      <trkpt lat="48.44891" lon="7.13829">
        <ele>815</ele>
        <time>2019-05-15T09:08:13.063Z</time>
      </trkpt>
      <trkpt lat="48.44891" lon="7.13829">
        <ele>815</ele>
        <time>2019-05-15T09:08:14.063Z</time>
      </trkpt>
      <trkpt lat="48.4489" lon="7.13829">
        <ele>815</ele>
        <time>2019-05-15T09:08:15.063Z</time>
      </trkpt>
      <trkpt lat="48.4489" lon="7.13829">
        <ele>815</ele>
        <time>2019-05-15T09:08:16.063Z</time>
      </trkpt>
      <trkpt lat="48.4489" lon="7.13829">
        <ele>815</ele>
        <time>2019-05-15T09:08:17.063Z</time>
      </trkpt>
      <trkpt lat="48.44889" lon="7.13829">
        <ele>815</ele>
        <time>2019-05-15T09:08:18.063Z</time>
      </trkpt>
      <trkpt lat="48.44889" lon="7.13829">
        <ele>815</ele>
        <time>2019-05-15T09:08:19.063Z</time>
      </trkpt>
      <trkpt lat="48.44888" lon="7.13829">
        <ele>816</ele>
        <time>2019-05-15T09:08:20.063Z</time>
      </trkpt>
      <trkpt lat="48.44888" lon="7.1383">
        <ele>816</ele>
        <time>2019-05-15T09:08:21.063Z</time>
      </trkpt>
      <trkpt lat="48.44887" lon="7.1383">
        <ele>816</ele>
        <time>2019-05-15T09:08:22.063Z</time>
      </trkpt>
      <trkpt lat="48.44887" lon="7.13831">
        <ele>816</ele>
        <time>2019-05-15T09:08:23.063Z</time>
      </trkpt>
      <trkpt lat="48.44887" lon="7.13831">
        <ele>815</ele>
        <time>2019-05-15T09:08:24.063Z</time>
      </trkpt>
      <trkpt lat="48.44886" lon="7.13831">
        <ele>815</ele>
        <time>2019-05-15T09:08:25.063Z</time>
      </trkpt>
      <trkpt lat="48.44886" lon="7.13832">
        <ele>815</ele>
        <time>2019-05-15T09:08:26.063Z</time>
      </trkpt>
      <trkpt lat="48.44885" lon="7.13833">
        <ele>815</ele>
        <time>2019-05-15T09:08:27.063Z</time>
      </trkpt>
      <trkpt lat="48.44885" lon="7.13833">
        <ele>815</ele>
        <time>2019-05-15T09:08:28.063Z</time>
      </trkpt>
      <trkpt lat="48.44885" lon="7.13834">
        <ele>815</ele>
        <time>2019-05-15T09:08:29.063Z</time>
      </trkpt>
      <trkpt lat="48.44884" lon="7.13835">
        <ele>815</ele>
        <time>2019-05-15T09:08:30.063Z</time>
      </trkpt>
      <trkpt lat="48.44884" lon="7.13835">
        <ele>815</ele>
        <time>2019-05-15T09:08:31.063Z</time>
      </trkpt>
      <trkpt lat="48.44883" lon="7.13836">
        <ele>815</ele>
        <time>2019-05-15T09:08:32.063Z</time>
      </trkpt>
      <trkpt lat="48.44883" lon="7.13836">
        <ele>815</ele>
        <time>2019-05-15T09:08:33.063Z</time>
      </trkpt>
      <trkpt lat="48.44882" lon="7.13837">
        <ele>815</ele>
        <time>2019-05-15T09:08:34.063Z</time>
      </trkpt>
      <trkpt lat="48.44882" lon="7.13838">
        <ele>815</ele>
        <time>2019-05-15T09:08:35.063Z</time>
      </trkpt>
      <trkpt lat="48.44881" lon="7.13839">
        <ele>816</ele>
        <time>2019-05-15T09:08:36.063Z</time>
      </trkpt>
      <trkpt lat="48.44881" lon="7.13839">
        <ele>817</ele>
        <time>2019-05-15T09:08:37.063Z</time>
      </trkpt>
      <trkpt lat="48.44881" lon="7.13839">
        <ele>817</ele>
        <time>2019-05-15T09:08:38.063Z</time>
      </trkpt>
      <trkpt lat="48.4488" lon="7.13839">
        <ele>817</ele>
        <time>2019-05-15T09:08:39.063Z</time>
      </trkpt>
      <trkpt lat="48.4488" lon="7.13839">
        <ele>817</ele>
        <time>2019-05-15T09:08:40.063Z</time>
      </trkpt>
      <trkpt lat="48.4488" lon="7.1384">
        <ele>816</ele>
        <time>2019-05-15T09:08:41.063Z</time>
      </trkpt>
      <trkpt lat="48.44879" lon="7.1384">
        <ele>816</ele>
        <time>2019-05-15T09:08:42.063Z</time>
      </trkpt>
      <trkpt lat="48.44878" lon="7.1384">
        <ele>814</ele>
        <time>2019-05-15T09:08:43.063Z</time>
      </trkpt>
      <trkpt lat="48.44877" lon="7.13841">
        <ele>813</ele>
        <time>2019-05-15T09:08:44.063Z</time>
      </trkpt>
      <trkpt lat="48.44876" lon="7.13842">
        <ele>813</ele>
        <time>2019-05-15T09:08:45.063Z</time>
      </trkpt>
      <trkpt lat="48.44875" lon="7.13842">
        <ele>813</ele>
        <time>2019-05-15T09:08:46.063Z</time>
      </trkpt>
      <trkpt lat="48.44875" lon="7.13843">
        <ele>813</ele>
        <time>2019-05-15T09:08:47.063Z</time>
      </trkpt>
      <trkpt lat="48.44874" lon="7.13844">
        <ele>813</ele>
        <time>2019-05-15T09:08:48.063Z</time>
      </trkpt>
      <trkpt lat="48.44874" lon="7.13844">
        <ele>813</ele>
        <time>2019-05-15T09:08:49.063Z</time>
      </trkpt>
      <trkpt lat="48.44873" lon="7.13845">
        <ele>813</ele>
        <time>2019-05-15T09:08:50.063Z</time>
      </trkpt>
      <trkpt lat="48.44873" lon="7.13846">
        <ele>813</ele>
        <time>2019-05-15T09:08:51.063Z</time>
      </trkpt>
      <trkpt lat="48.44872" lon="7.13846">
        <ele>813</ele>
        <time>2019-05-15T09:08:52.063Z</time>
      </trkpt>
      <trkpt lat="48.44872" lon="7.13846">
        <ele>813</ele>
        <time>2019-05-15T09:08:53.063Z</time>
      </trkpt>
      <trkpt lat="48.44872" lon="7.13846">
        <ele>813</ele>
        <time>2019-05-15T09:08:54.063Z</time>
      </trkpt>
      <trkpt lat="48.44871" lon="7.13846">
        <ele>813</ele>
        <time>2019-05-15T09:08:55.063Z</time>
      </trkpt>
      <trkpt lat="48.44871" lon="7.13846">
        <ele>813</ele>
        <time>2019-05-15T09:08:56.063Z</time>
      </trkpt>
      <trkpt lat="48.44871" lon="7.13846">
        <ele>813</ele>
        <time>2019-05-15T09:08:57.063Z</time>
      </trkpt>
      <trkpt lat="48.4487" lon="7.13846">
        <ele>814</ele>
        <time>2019-05-15T09:08:58.063Z</time>
      </trkpt>
      <trkpt lat="48.44869" lon="7.13847">
        <ele>814</ele>
        <time>2019-05-15T09:08:59.063Z</time>
      </trkpt>
      <trkpt lat="48.44869" lon="7.13847">
        <ele>814</ele>
        <time>2019-05-15T09:09:00.063Z</time>
      </trkpt>
      <trkpt lat="48.44868" lon="7.13847">
        <ele>814</ele>
        <time>2019-05-15T09:09:01.063Z</time>
      </trkpt>
      <trkpt lat="48.44868" lon="7.13848">
        <ele>814</ele>
        <time>2019-05-15T09:09:02.063Z</time>
      </trkpt>
      <trkpt lat="48.44868" lon="7.13848">
        <ele>815</ele>
        <time>2019-05-15T09:09:03.063Z</time>
      </trkpt>
      <trkpt lat="48.44868" lon="7.13849">
        <ele>814</ele>
        <time>2019-05-15T09:09:04.063Z</time>
      </trkpt>
      <trkpt lat="48.44867" lon="7.1385">
        <ele>815</ele>
        <time>2019-05-15T09:09:05.063Z</time>
      </trkpt>
      <trkpt lat="48.44867" lon="7.13851">
        <ele>814</ele>
        <time>2019-05-15T09:09:06.063Z</time>
      </trkpt>
      <trkpt lat="48.44866" lon="7.13852">
        <ele>814</ele>
        <time>2019-05-15T09:09:07.063Z</time>
      </trkpt>
      <trkpt lat="48.44866" lon="7.13853">
        <ele>814</ele>
        <time>2019-05-15T09:09:08.063Z</time>
      </trkpt>
      <trkpt lat="48.44865" lon="7.13854">
        <ele>813</ele>
        <time>2019-05-15T09:09:09.063Z</time>
      </trkpt>
      <trkpt lat="48.44865" lon="7.13854">
        <ele>813</ele>
        <time>2019-05-15T09:09:10.063Z</time>
      </trkpt>
      <trkpt lat="48.44864" lon="7.13855">
        <ele>813</ele>
        <time>2019-05-15T09:09:11.063Z</time>
      </trkpt>
      <trkpt lat="48.44864" lon="7.13856">
        <ele>813</ele>
        <time>2019-05-15T09:09:12.063Z</time>
      </trkpt>
      <trkpt lat="48.44863" lon="7.13857">
        <ele>813</ele>
        <time>2019-05-15T09:09:13.063Z</time>
      </trkpt>
      <trkpt lat="48.44862" lon="7.13857">
        <ele>813</ele>
        <time>2019-05-15T09:09:14.063Z</time>
      </trkpt>
      <trkpt lat="48.44862" lon="7.13857">
        <ele>813</ele>
        <time>2019-05-15T09:09:15.063Z</time>
      </trkpt>
      <trkpt lat="48.44862" lon="7.13858">
        <ele>813</ele>
        <time>2019-05-15T09:09:16.063Z</time>
      </trkpt>
      <trkpt lat="48.44862" lon="7.13858">
        <ele>813</ele>
        <time>2019-05-15T09:09:17.063Z</time>
      </trkpt>
      <trkpt lat="48.44861" lon="7.13858">
        <ele>812</ele>
        <time>2019-05-15T09:09:18.063Z</time>
      </trkpt>
      <trkpt lat="48.44861" lon="7.13858">
        <ele>812</ele>
        <time>2019-05-15T09:09:19.063Z</time>
      </trkpt>
      <trkpt lat="48.44861" lon="7.13859">
        <ele>812</ele>
        <time>2019-05-15T09:09:20.063Z</time>
      </trkpt>
      <trkpt lat="48.44861" lon="7.13859">
        <ele>813</ele>
        <time>2019-05-15T09:09:21.063Z</time>
      </trkpt>
      <trkpt lat="48.44861" lon="7.1386">
        <ele>813</ele>
        <time>2019-05-15T09:09:22.063Z</time>
      </trkpt>
      <trkpt lat="48.44861" lon="7.1386">
        <ele>813</ele>
        <time>2019-05-15T09:09:23.063Z</time>
      </trkpt>
      <trkpt lat="48.44861" lon="7.13861">
        <ele>813</ele>
        <time>2019-05-15T09:09:24.063Z</time>
      </trkpt>
      <trkpt lat="48.44861" lon="7.13861">
        <ele>813</ele>
        <time>2019-05-15T09:09:25.063Z</time>
      </trkpt>
      <trkpt lat="48.44861" lon="7.13862">
        <ele>812</ele>
        <time>2019-05-15T09:09:26.063Z</time>
      </trkpt>
      <trkpt lat="48.44861" lon="7.13862">
        <ele>812</ele>
        <time>2019-05-15T09:09:27.063Z</time>
      </trkpt>
      <trkpt lat="48.44861" lon="7.13863">
        <ele>812</ele>
        <time>2019-05-15T09:09:28.063Z</time>
      </trkpt>
      <trkpt lat="48.4486" lon="7.13864">
        <ele>812</ele>
        <time>2019-05-15T09:09:29.063Z</time>
      </trkpt>
      <trkpt lat="48.44859" lon="7.13866">
        <ele>811</ele>
        <time>2019-05-15T09:09:30.063Z</time>
      </trkpt>
      <trkpt lat="48.44859" lon="7.13867">
        <ele>812</ele>
        <time>2019-05-15T09:09:31.063Z</time>
      </trkpt>
      <trkpt lat="48.44858" lon="7.13868">
        <ele>812</ele>
        <time>2019-05-15T09:09:32.063Z</time>
      </trkpt>
      <trkpt lat="48.44857" lon="7.13868">
        <ele>812</ele>
        <time>2019-05-15T09:09:33.063Z</time>
      </trkpt>
      <trkpt lat="48.44857" lon="7.13869">
        <ele>812</ele>
        <time>2019-05-15T09:09:34.063Z</time>
      </trkpt>
      <trkpt lat="48.44856" lon="7.13869">
        <ele>812</ele>
        <time>2019-05-15T09:09:35.063Z</time>
      </trkpt>
      <trkpt lat="48.44856" lon="7.1387">
        <ele>812</ele>
        <time>2019-05-15T09:09:36.063Z</time>
      </trkpt>
      <trkpt lat="48.44855" lon="7.1387">
        <ele>813</ele>
        <time>2019-05-15T09:09:37.063Z</time>
      </trkpt>
      <trkpt lat="48.44855" lon="7.13871">
        <ele>813</ele>
        <time>2019-05-15T09:09:38.063Z</time>
      </trkpt>
      <trkpt lat="48.44854" lon="7.13872">
        <ele>813</ele>
        <time>2019-05-15T09:09:39.063Z</time>
      </trkpt>
      <trkpt lat="48.44854" lon="7.13872">
        <ele>813</ele>
        <time>2019-05-15T09:09:40.063Z</time>
      </trkpt>
      <trkpt lat="48.44854" lon="7.13873">
        <ele>813</ele>
        <time>2019-05-15T09:09:41.063Z</time>
      </trkpt>
      <trkpt lat="48.44853" lon="7.13873">
        <ele>814</ele>
        <time>2019-05-15T09:09:42.063Z</time>
      </trkpt>
      <trkpt lat="48.44853" lon="7.13874">
        <ele>813</ele>
        <time>2019-05-15T09:09:43.063Z</time>
      </trkpt>
      <trkpt lat="48.44852" lon="7.13874">
        <ele>814</ele>
        <time>2019-05-15T09:09:44.063Z</time>
      </trkpt>
      <trkpt lat="48.44852" lon="7.13875">
        <ele>814</ele>
        <time>2019-05-15T09:09:45.063Z</time>
      </trkpt>
      <trkpt lat="48.44852" lon="7.13876">
        <ele>815</ele>
        <time>2019-05-15T09:09:46.063Z</time>
      </trkpt>
      <trkpt lat="48.44852" lon="7.13876">
        <ele>816</ele>
        <time>2019-05-15T09:09:47.063Z</time>
      </trkpt>
      <trkpt lat="48.44852" lon="7.13877">
        <ele>816</ele>
        <time>2019-05-15T09:09:48.063Z</time>
      </trkpt>
      <trkpt lat="48.44852" lon="7.13878">
        <ele>816</ele>
        <time>2019-05-15T09:09:49.063Z</time>
      </trkpt>
      <trkpt lat="48.44851" lon="7.13878">
        <ele>816</ele>
        <time>2019-05-15T09:09:50.063Z</time>
      </trkpt>
      <trkpt lat="48.44851" lon="7.13879">
        <ele>816</ele>
        <time>2019-05-15T09:09:51.063Z</time>
      </trkpt>
      <trkpt lat="48.44851" lon="7.13879">
        <ele>816</ele>
        <time>2019-05-15T09:09:52.063Z</time>
      </trkpt>
      <trkpt lat="48.4485" lon="7.13879">
        <ele>816</ele>
        <time>2019-05-15T09:09:53.063Z</time>
      </trkpt>
      <trkpt lat="48.4485" lon="7.1388">
        <ele>817</ele>
        <time>2019-05-15T09:09:54.063Z</time>
      </trkpt>
      <trkpt lat="48.4485" lon="7.13881">
        <ele>816</ele>
        <time>2019-05-15T09:09:55.063Z</time>
      </trkpt>
      <trkpt lat="48.4485" lon="7.13882">
        <ele>817</ele>
        <time>2019-05-15T09:09:56.063Z</time>
      </trkpt>
      <trkpt lat="48.4485" lon="7.13883">
        <ele>817</ele>
        <time>2019-05-15T09:09:57.063Z</time>
      </trkpt>
      <trkpt lat="48.44849" lon="7.13883">
        <ele>817</ele>
        <time>2019-05-15T09:09:58.063Z</time>
      </trkpt>
      <trkpt lat="48.44849" lon="7.13884">
        <ele>818</ele>
        <time>2019-05-15T09:09:59.063Z</time>
      </trkpt>
      <trkpt lat="48.4485" lon="7.13884">
        <ele>818</ele>
        <time>2019-05-15T09:10:00.063Z</time>
      </trkpt>
      <trkpt lat="48.4485" lon="7.13885">
        <ele>818</ele>
        <time>2019-05-15T09:10:01.063Z</time>
      </trkpt>
      <trkpt lat="48.44849" lon="7.13885">
        <ele>819</ele>
        <time>2019-05-15T09:10:02.063Z</time>
      </trkpt>
      <trkpt lat="48.44849" lon="7.13885">
        <ele>819</ele>
        <time>2019-05-15T09:10:03.063Z</time>
      </trkpt>
      <trkpt lat="48.44849" lon="7.13886">
        <ele>819</ele>
        <time>2019-05-15T09:10:04.063Z</time>
      </trkpt>
      <trkpt lat="48.44848" lon="7.13886">
        <ele>819</ele>
        <time>2019-05-15T09:10:05.063Z</time>
      </trkpt>
      <trkpt lat="48.44847" lon="7.13886">
        <ele>819</ele>
        <time>2019-05-15T09:10:06.063Z</time>
      </trkpt>
      <trkpt lat="48.44847" lon="7.13887">
        <ele>819</ele>
        <time>2019-05-15T09:10:07.063Z</time>
      </trkpt>
      <trkpt lat="48.44847" lon="7.13887">
        <ele>819</ele>
        <time>2019-05-15T09:10:08.063Z</time>
      </trkpt>
      <trkpt lat="48.44847" lon="7.13888">
        <ele>819</ele>
        <time>2019-05-15T09:10:09.063Z</time>
      </trkpt>
      <trkpt lat="48.44846" lon="7.13888">
        <ele>819</ele>
        <time>2019-05-15T09:10:10.063Z</time>
      </trkpt>
      <trkpt lat="48.44846" lon="7.13888">
        <ele>819</ele>
        <time>2019-05-15T09:10:11.063Z</time>
      </trkpt>
      <trkpt lat="48.44846" lon="7.13888">
        <ele>819</ele>
        <time>2019-05-15T09:10:12.063Z</time>
      </trkpt>
      <trkpt lat="48.44845" lon="7.13888">
        <ele>819</ele>
        <time>2019-05-15T09:10:13.063Z</time>
      </trkpt>
      <trkpt lat="48.44844" lon="7.13889">
        <ele>817</ele>
        <time>2019-05-15T09:10:14.063Z</time>
      </trkpt>
      <trkpt lat="48.44844" lon="7.13889">
        <ele>817</ele>
        <time>2019-05-15T09:10:15.063Z</time>
      </trkpt>
      <trkpt lat="48.44843" lon="7.13889">
        <ele>817</ele>
        <time>2019-05-15T09:10:16.063Z</time>
      </trkpt>
      <trkpt lat="48.44843" lon="7.1389">
        <ele>816</ele>
        <time>2019-05-15T09:10:17.063Z</time>
      </trkpt>
      <trkpt lat="48.44842" lon="7.1389">
        <ele>816</ele>
        <time>2019-05-15T09:10:18.063Z</time>
      </trkpt>
      <trkpt lat="48.44842" lon="7.13891">
        <ele>816</ele>
        <time>2019-05-15T09:10:19.063Z</time>
      </trkpt>
      <trkpt lat="48.44842" lon="7.13892">
        <ele>816</ele>
        <time>2019-05-15T09:10:20.063Z</time>
      </trkpt>
      <trkpt lat="48.44842" lon="7.13892">
        <ele>816</ele>
        <time>2019-05-15T09:10:21.063Z</time>
      </trkpt>
      <trkpt lat="48.44841" lon="7.13892">
        <ele>816</ele>
        <time>2019-05-15T09:10:22.063Z</time>
      </trkpt>
      <trkpt lat="48.44841" lon="7.13893">
        <ele>816</ele>
        <time>2019-05-15T09:10:23.063Z</time>
      </trkpt>
      <trkpt lat="48.44841" lon="7.13893">
        <ele>816</ele>
        <time>2019-05-15T09:10:24.063Z</time>
      </trkpt>
      <trkpt lat="48.4484" lon="7.13893">
        <ele>816</ele>
        <time>2019-05-15T09:10:25.063Z</time>
      </trkpt>
      <trkpt lat="48.4484" lon="7.13894">
        <ele>817</ele>
        <time>2019-05-15T09:10:26.063Z</time>
      </trkpt>
      <trkpt lat="48.4484" lon="7.13894">
        <ele>817</ele>
        <time>2019-05-15T09:10:27.063Z</time>
      </trkpt>
      <trkpt lat="48.4484" lon="7.13894">
        <ele>817</ele>
        <time>2019-05-15T09:10:28.063Z</time>
      </trkpt>
      <trkpt lat="48.44839" lon="7.13895">
        <ele>817</ele>
        <time>2019-05-15T09:10:29.063Z</time>
      </trkpt>
      <trkpt lat="48.44839" lon="7.13895">
        <ele>816</ele>
        <time>2019-05-15T09:10:30.063Z</time>
      </trkpt>
      <trkpt lat="48.44838" lon="7.13896">
        <ele>816</ele>
        <time>2019-05-15T09:10:31.063Z</time>
      </trkpt>
      <trkpt lat="48.44838" lon="7.13896">
        <ele>815</ele>
        <time>2019-05-15T09:10:32.063Z</time>
      </trkpt>
      <trkpt lat="48.44837" lon="7.13897">
        <ele>815</ele>
        <time>2019-05-15T09:10:33.063Z</time>
      </trkpt>
      <trkpt lat="48.44837" lon="7.13898">
        <ele>815</ele>
        <time>2019-05-15T09:10:34.063Z</time>
      </trkpt>
      <trkpt lat="48.44836" lon="7.13898">
        <ele>815</ele>
        <time>2019-05-15T09:10:35.063Z</time>
      </trkpt>
      <trkpt lat="48.44836" lon="7.13899">
        <ele>815</ele>
        <time>2019-05-15T09:10:36.063Z</time>
      </trkpt>
      <trkpt lat="48.44836" lon="7.13899">
        <ele>815</ele>
        <time>2019-05-15T09:10:37.063Z</time>
      </trkpt>
      <trkpt lat="48.44836" lon="7.13899">
        <ele>815</ele>
        <time>2019-05-15T09:10:38.063Z</time>
      </trkpt>
      <trkpt lat="48.44836" lon="7.13899">
        <ele>816</ele>
        <time>2019-05-15T09:10:39.063Z</time>
      </trkpt>
      <trkpt lat="48.44836" lon="7.139">
        <ele>816</ele>
        <time>2019-05-15T09:10:40.063Z</time>
      </trkpt>
      <trkpt lat="48.44836" lon="7.139">
        <ele>816</ele>
        <time>2019-05-15T09:10:41.063Z</time>
      </trkpt>
      <trkpt lat="48.44836" lon="7.139">
        <ele>817</ele>
        <time>2019-05-15T09:10:42.063Z</time>
      </trkpt>
      <trkpt lat="48.44835" lon="7.139">
        <ele>817</ele>
        <time>2019-05-15T09:10:43.063Z</time>
      </trkpt>
      <trkpt lat="48.44835" lon="7.13901">
        <ele>817</ele>
        <time>2019-05-15T09:10:44.063Z</time>
      </trkpt>
      <trkpt lat="48.44835" lon="7.13901">
        <ele>818</ele>
        <time>2019-05-15T09:10:45.063Z</time>
      </trkpt>
      <trkpt lat="48.44835" lon="7.13901">
        <ele>818</ele>
        <time>2019-05-15T09:10:46.063Z</time>
      </trkpt>
      <trkpt lat="48.44834" lon="7.13901">
        <ele>818</ele>
        <time>2019-05-15T09:10:47.063Z</time>
      </trkpt>
      <trkpt lat="48.44834" lon="7.13901">
        <ele>818</ele>
        <time>2019-05-15T09:10:48.063Z</time>
      </trkpt>
      <trkpt lat="48.44834" lon="7.13901">
        <ele>818</ele>
        <time>2019-05-15T09:10:49.063Z</time>
      </trkpt>
      <trkpt lat="48.44834" lon="7.13902">
        <ele>818</ele>
        <time>2019-05-15T09:10:50.063Z</time>
      </trkpt>
      <trkpt lat="48.44834" lon="7.13903">
        <ele>818</ele>
        <time>2019-05-15T09:10:51.063Z</time>
      </trkpt>
      <trkpt lat="48.44833" lon="7.13904">
        <ele>818</ele>
        <time>2019-05-15T09:10:52.063Z</time>
      </trkpt>
      <trkpt lat="48.44833" lon="7.13905">
        <ele>817</ele>
        <time>2019-05-15T09:10:53.063Z</time>
      </trkpt>
      <trkpt lat="48.44833" lon="7.13906">
        <ele>817</ele>
        <time>2019-05-15T09:10:54.063Z</time>
      </trkpt>
      <trkpt lat="48.44832" lon="7.13907">
        <ele>818</ele>
        <time>2019-05-15T09:10:55.063Z</time>
      </trkpt>
      <trkpt lat="48.44832" lon="7.13907">
        <ele>818</ele>
        <time>2019-05-15T09:10:56.063Z</time>
      </trkpt>
      <trkpt lat="48.44832" lon="7.13908">
        <ele>818</ele>
        <time>2019-05-15T09:10:57.063Z</time>
      </trkpt>
      <trkpt lat="48.44831" lon="7.13908">
        <ele>817</ele>
        <time>2019-05-15T09:10:58.063Z</time>
      </trkpt>
      <trkpt lat="48.44831" lon="7.13908">
        <ele>817</ele>
        <time>2019-05-15T09:10:59.063Z</time>
      </trkpt>
      <trkpt lat="48.44831" lon="7.13908">
        <ele>817</ele>
        <time>2019-05-15T09:11:00.063Z</time>
      </trkpt>
      <trkpt lat="48.44831" lon="7.13909">
        <ele>817</ele>
        <time>2019-05-15T09:11:01.063Z</time>
      </trkpt>
      <trkpt lat="48.4483" lon="7.1391">
        <ele>816</ele>
        <time>2019-05-15T09:11:02.063Z</time>
      </trkpt>
      <trkpt lat="48.4483" lon="7.13911">
        <ele>816</ele>
        <time>2019-05-15T09:11:03.063Z</time>
      </trkpt>
      <trkpt lat="48.4483" lon="7.13911">
        <ele>816</ele>
        <time>2019-05-15T09:11:04.063Z</time>
      </trkpt>
      <trkpt lat="48.44829" lon="7.13912">
        <ele>816</ele>
        <time>2019-05-15T09:11:05.063Z</time>
      </trkpt>
      <trkpt lat="48.44829" lon="7.13912">
        <ele>816</ele>
        <time>2019-05-15T09:11:06.063Z</time>
      </trkpt>
      <trkpt lat="48.44829" lon="7.13913">
        <ele>816</ele>
        <time>2019-05-15T09:11:07.063Z</time>
      </trkpt>
      <trkpt lat="48.44829" lon="7.13913">
        <ele>816</ele>
        <time>2019-05-15T09:11:08.063Z</time>
      </trkpt>
      <trkpt lat="48.44828" lon="7.13914">
        <ele>816</ele>
        <time>2019-05-15T09:11:09.063Z</time>
      </trkpt>
      <trkpt lat="48.44828" lon="7.13914">
        <ele>816</ele>
        <time>2019-05-15T09:11:10.063Z</time>
      </trkpt>
      <trkpt lat="48.44828" lon="7.13915">
        <ele>816</ele>
        <time>2019-05-15T09:11:11.063Z</time>
      </trkpt>
      <trkpt lat="48.44827" lon="7.13916">
        <ele>816</ele>
        <time>2019-05-15T09:11:12.063Z</time>
      </trkpt>
      <trkpt lat="48.44827" lon="7.13917">
        <ele>816</ele>
        <time>2019-05-15T09:11:13.063Z</time>
      </trkpt>
      <trkpt lat="48.44827" lon="7.13917">
        <ele>816</ele>
        <time>2019-05-15T09:11:14.063Z</time>
      </trkpt>
      <trkpt lat="48.44826" lon="7.13918">
        <ele>816</ele>
        <time>2019-05-15T09:11:15.063Z</time>
      </trkpt>
      <trkpt lat="48.44826" lon="7.13918">
        <ele>816</ele>
        <time>2019-05-15T09:11:16.063Z</time>
      </trkpt>
      <trkpt lat="48.44826" lon="7.13919">
        <ele>815</ele>
        <time>2019-05-15T09:11:17.063Z</time>
      </trkpt>
      <trkpt lat="48.44826" lon="7.13919">
        <ele>816</ele>
        <time>2019-05-15T09:11:18.063Z</time>
      </trkpt>
      <trkpt lat="48.44825" lon="7.13919">
        <ele>815</ele>
        <time>2019-05-15T09:11:19.063Z</time>
      </trkpt>
      <trkpt lat="48.44825" lon="7.1392">
        <ele>815</ele>
        <time>2019-05-15T09:11:20.063Z</time>
      </trkpt>
      <trkpt lat="48.44824" lon="7.1392">
        <ele>814</ele>
        <time>2019-05-15T09:11:21.063Z</time>
      </trkpt>
      <trkpt lat="48.44824" lon="7.1392">
        <ele>814</ele>
        <time>2019-05-15T09:11:22.063Z</time>
      </trkpt>
      <trkpt lat="48.44824" lon="7.1392">
        <ele>814</ele>
        <time>2019-05-15T09:11:23.063Z</time>
      </trkpt>
      <trkpt lat="48.44824" lon="7.13921">
        <ele>814</ele>
        <time>2019-05-15T09:11:24.063Z</time>
      </trkpt>
      <trkpt lat="48.44824" lon="7.13921">
        <ele>814</ele>
        <time>2019-05-15T09:11:25.063Z</time>
      </trkpt>
      <trkpt lat="48.44824" lon="7.13922">
        <ele>814</ele>
        <time>2019-05-15T09:11:26.063Z</time>
      </trkpt>
      <trkpt lat="48.44823" lon="7.13922">
        <ele>814</ele>
        <time>2019-05-15T09:11:27.063Z</time>
      </trkpt>
      <trkpt lat="48.44823" lon="7.13922">
        <ele>814</ele>
        <time>2019-05-15T09:11:28.063Z</time>
      </trkpt>
      <trkpt lat="48.44823" lon="7.13923">
        <ele>814</ele>
        <time>2019-05-15T09:11:29.063Z</time>
      </trkpt>
      <trkpt lat="48.44823" lon="7.13923">
        <ele>814</ele>
        <time>2019-05-15T09:11:30.063Z</time>
      </trkpt>
      <trkpt lat="48.44823" lon="7.13924">
        <ele>815</ele>
        <time>2019-05-15T09:11:31.063Z</time>
      </trkpt>
      <trkpt lat="48.44823" lon="7.13925">
        <ele>814</ele>
        <time>2019-05-15T09:11:32.063Z</time>
      </trkpt>
      <trkpt lat="48.44822" lon="7.13927">
        <ele>814</ele>
        <time>2019-05-15T09:11:33.063Z</time>
      </trkpt>
      <trkpt lat="48.44821" lon="7.13928">
        <ele>814</ele>
        <time>2019-05-15T09:11:34.063Z</time>
      </trkpt>
      <trkpt lat="48.44821" lon="7.13929">
        <ele>814</ele>
        <time>2019-05-15T09:11:35.063Z</time>
      </trkpt>
      <trkpt lat="48.4482" lon="7.1393">
        <ele>814</ele>
        <time>2019-05-15T09:11:36.063Z</time>
      </trkpt>
      <trkpt lat="48.44819" lon="7.13931">
        <ele>814</ele>
        <time>2019-05-15T09:11:37.063Z</time>
      </trkpt>
      <trkpt lat="48.44819" lon="7.13931">
        <ele>814</ele>
        <time>2019-05-15T09:11:38.063Z</time>
      </trkpt>
      <trkpt lat="48.44818" lon="7.13932">
        <ele>814</ele>
        <time>2019-05-15T09:11:39.063Z</time>
      </trkpt>
      <trkpt lat="48.44818" lon="7.13933">
        <ele>814</ele>
        <time>2019-05-15T09:11:40.063Z</time>
      </trkpt>
      <trkpt lat="48.44817" lon="7.13933">
        <ele>814</ele>
        <time>2019-05-15T09:11:41.063Z</time>
      </trkpt>
      <trkpt lat="48.44817" lon="7.13934">
        <ele>815</ele>
        <time>2019-05-15T09:11:42.063Z</time>
      </trkpt>
      <trkpt lat="48.44816" lon="7.13935">
        <ele>815</ele>
        <time>2019-05-15T09:11:43.063Z</time>
      </trkpt>
      <trkpt lat="48.44816" lon="7.13935">
        <ele>815</ele>
        <time>2019-05-15T09:11:44.063Z</time>
      </trkpt>
      <trkpt lat="48.44816" lon="7.13936">
        <ele>815</ele>
        <time>2019-05-15T09:11:45.063Z</time>
      </trkpt>
      <trkpt lat="48.44816" lon="7.13936">
        <ele>815</ele>
        <time>2019-05-15T09:11:46.063Z</time>
      </trkpt>
      <trkpt lat="48.44816" lon="7.13936">
        <ele>815</ele>
        <time>2019-05-15T09:11:47.063Z</time>
      </trkpt>
      <trkpt lat="48.44815" lon="7.13937">
        <ele>816</ele>
        <time>2019-05-15T09:11:48.063Z</time>
      </trkpt>
      <trkpt lat="48.44815" lon="7.13938">
        <ele>816</ele>
        <time>2019-05-15T09:11:49.063Z</time>
      </trkpt>
      <trkpt lat="48.44815" lon="7.13939">
        <ele>816</ele>
        <time>2019-05-15T09:11:50.063Z</time>
      </trkpt>
      <trkpt lat="48.44814" lon="7.1394">
        <ele>816</ele>
        <time>2019-05-15T09:11:51.063Z</time>
      </trkpt>
      <trkpt lat="48.44814" lon="7.1394">
        <ele>816</ele>
        <time>2019-05-15T09:11:52.063Z</time>
      </trkpt>
      <trkpt lat="48.44814" lon="7.13941">
        <ele>817</ele>
        <time>2019-05-15T09:11:53.063Z</time>
      </trkpt>
      <trkpt lat="48.44813" lon="7.13941">
        <ele>817</ele>
        <time>2019-05-15T09:11:54.063Z</time>
      </trkpt>
      <trkpt lat="48.44813" lon="7.13942">
        <ele>817</ele>
        <time>2019-05-15T09:11:55.063Z</time>
      </trkpt>
      <trkpt lat="48.44812" lon="7.13942">
        <ele>817</ele>
        <time>2019-05-15T09:11:56.063Z</time>
      </trkpt>
      <trkpt lat="48.44812" lon="7.13943">
        <ele>817</ele>
        <time>2019-05-15T09:11:57.063Z</time>
      </trkpt>
      <trkpt lat="48.44811" lon="7.13943">
        <ele>817</ele>
        <time>2019-05-15T09:11:58.063Z</time>
      </trkpt>
      <trkpt lat="48.44811" lon="7.13943">
        <ele>819</ele>
        <time>2019-05-15T09:11:59.063Z</time>
      </trkpt>
      <trkpt lat="48.44811" lon="7.13943">
        <ele>819</ele>
        <time>2019-05-15T09:12:00.063Z</time>
      </trkpt>
      <trkpt lat="48.44811" lon="7.13944">
        <ele>820</ele>
        <time>2019-05-15T09:12:01.063Z</time>
      </trkpt>
      <trkpt lat="48.44811" lon="7.13945">
        <ele>820</ele>
        <time>2019-05-15T09:12:02.063Z</time>
      </trkpt>
      <trkpt lat="48.44811" lon="7.13946">
        <ele>820</ele>
        <time>2019-05-15T09:12:03.063Z</time>
      </trkpt>
      <trkpt lat="48.44811" lon="7.13946">
        <ele>820</ele>
        <time>2019-05-15T09:12:04.063Z</time>
      </trkpt>
      <trkpt lat="48.4481" lon="7.13947">
        <ele>820</ele>
        <time>2019-05-15T09:12:05.063Z</time>
      </trkpt>
      <trkpt lat="48.4481" lon="7.13948">
        <ele>820</ele>
        <time>2019-05-15T09:12:06.063Z</time>
      </trkpt>
      <trkpt lat="48.4481" lon="7.13948">
        <ele>821</ele>
        <time>2019-05-15T09:12:07.063Z</time>
      </trkpt>
      <trkpt lat="48.4481" lon="7.13949">
        <ele>821</ele>
        <time>2019-05-15T09:12:08.063Z</time>
      </trkpt>
      <trkpt lat="48.4481" lon="7.13949">
        <ele>821</ele>
        <time>2019-05-15T09:12:09.063Z</time>
      </trkpt>
      <trkpt lat="48.4481" lon="7.13949">
        <ele>821</ele>
        <time>2019-05-15T09:12:10.063Z</time>
      </trkpt>
      <trkpt lat="48.4481" lon="7.1395">
        <ele>821</ele>
        <time>2019-05-15T09:12:11.063Z</time>
      </trkpt>
      <trkpt lat="48.44809" lon="7.1395">
        <ele>821</ele>
        <time>2019-05-15T09:12:12.063Z</time>
      </trkpt>
      <trkpt lat="48.44809" lon="7.13951">
        <ele>822</ele>
        <time>2019-05-15T09:12:13.063Z</time>
      </trkpt>
      <trkpt lat="48.44809" lon="7.13952">
        <ele>822</ele>
        <time>2019-05-15T09:12:14.063Z</time>
      </trkpt>
      <trkpt lat="48.44808" lon="7.13952">
        <ele>822</ele>
        <time>2019-05-15T09:12:15.063Z</time>
      </trkpt>
      <trkpt lat="48.44808" lon="7.13953">
        <ele>821</ele>
        <time>2019-05-15T09:12:16.063Z</time>
      </trkpt>
      <trkpt lat="48.44807" lon="7.13953">
        <ele>821</ele>
        <time>2019-05-15T09:12:17.063Z</time>
      </trkpt>
      <trkpt lat="48.44807" lon="7.13954">
        <ele>821</ele>
        <time>2019-05-15T09:12:18.063Z</time>
      </trkpt>
      <trkpt lat="48.44806" lon="7.13955">
        <ele>822</ele>
        <time>2019-05-15T09:12:19.063Z</time>
      </trkpt>
      <trkpt lat="48.44806" lon="7.13955">
        <ele>822</ele>
        <time>2019-05-15T09:12:20.063Z</time>
      </trkpt>
      <trkpt lat="48.44805" lon="7.13956">
        <ele>822</ele>
        <time>2019-05-15T09:12:21.063Z</time>
      </trkpt>
      <trkpt lat="48.44805" lon="7.13957">
        <ele>822</ele>
        <time>2019-05-15T09:12:22.063Z</time>
      </trkpt>
      <trkpt lat="48.44804" lon="7.13958">
        <ele>823</ele>
        <time>2019-05-15T09:12:23.063Z</time>
      </trkpt>
      <trkpt lat="48.44804" lon="7.1396">
        <ele>824</ele>
        <time>2019-05-15T09:12:24.063Z</time>
      </trkpt>
      <trkpt lat="48.44804" lon="7.13961">
        <ele>824</ele>
        <time>2019-05-15T09:12:25.063Z</time>
      </trkpt>
      <trkpt lat="48.44803" lon="7.13962">
        <ele>824</ele>
        <time>2019-05-15T09:12:26.063Z</time>
      </trkpt>
      <trkpt lat="48.44803" lon="7.13962">
        <ele>824</ele>
        <time>2019-05-15T09:12:27.063Z</time>
      </trkpt>
      <trkpt lat="48.44803" lon="7.13963">
        <ele>824</ele>
        <time>2019-05-15T09:12:28.063Z</time>
      </trkpt>
      <trkpt lat="48.44803" lon="7.13964">
        <ele>825</ele>
        <time>2019-05-15T09:12:29.063Z</time>
      </trkpt>
      <trkpt lat="48.44803" lon="7.13964">
        <ele>824</ele>
        <time>2019-05-15T09:12:30.063Z</time>
      </trkpt>
      <trkpt lat="48.44802" lon="7.13965">
        <ele>824</ele>
        <time>2019-05-15T09:12:31.063Z</time>
      </trkpt>
      <trkpt lat="48.44802" lon="7.13966">
        <ele>824</ele>
        <time>2019-05-15T09:12:32.063Z</time>
      </trkpt>
      <trkpt lat="48.44801" lon="7.13966">
        <ele>824</ele>
        <time>2019-05-15T09:12:33.063Z</time>
      </trkpt>
      <trkpt lat="48.44801" lon="7.13967">
        <ele>824</ele>
        <time>2019-05-15T09:12:34.063Z</time>
      </trkpt>
      <trkpt lat="48.44801" lon="7.13968">
        <ele>824</ele>
        <time>2019-05-15T09:12:35.063Z</time>
      </trkpt>
      <trkpt lat="48.448" lon="7.13968">
        <ele>824</ele>
        <time>2019-05-15T09:12:36.063Z</time>
      </trkpt>
      <trkpt lat="48.448" lon="7.13969">
        <ele>824</ele>
        <time>2019-05-15T09:12:37.063Z</time>
      </trkpt>
      <trkpt lat="48.44799" lon="7.1397">
        <ele>825</ele>
        <time>2019-05-15T09:12:38.063Z</time>
      </trkpt>
      <trkpt lat="48.44799" lon="7.13971">
        <ele>825</ele>
        <time>2019-05-15T09:12:39.063Z</time>
      </trkpt>
      <trkpt lat="48.44799" lon="7.13972">
        <ele>825</ele>
        <time>2019-05-15T09:12:40.063Z</time>
      </trkpt>
      <trkpt lat="48.44798" lon="7.13973">
        <ele>824</ele>
        <time>2019-05-15T09:12:41.063Z</time>
      </trkpt>
      <trkpt lat="48.44798" lon="7.13973">
        <ele>824</ele>
        <time>2019-05-15T09:12:42.063Z</time>
      </trkpt>
      <trkpt lat="48.44797" lon="7.13974">
        <ele>824</ele>
        <time>2019-05-15T09:12:43.063Z</time>
      </trkpt>
      <trkpt lat="48.44797" lon="7.13974">
        <ele>824</ele>
        <time>2019-05-15T09:12:44.063Z</time>
      </trkpt>
      <trkpt lat="48.44796" lon="7.13975">
        <ele>824</ele>
        <time>2019-05-15T09:12:45.063Z</time>
      </trkpt>
      <trkpt lat="48.44796" lon="7.13975">
        <ele>823</ele>
        <time>2019-05-15T09:12:46.063Z</time>
      </trkpt>
      <trkpt lat="48.44795" lon="7.13976">
        <ele>823</ele>
        <time>2019-05-15T09:12:47.063Z</time>
      </trkpt>
      <trkpt lat="48.44795" lon="7.13976">
        <ele>823</ele>
        <time>2019-05-15T09:12:48.063Z</time>
      </trkpt>
      <trkpt lat="48.44794" lon="7.13976">
        <ele>823</ele>
        <time>2019-05-15T09:12:49.063Z</time>
      </trkpt>
      <trkpt lat="48.44794" lon="7.13977">
        <ele>823</ele>
        <time>2019-05-15T09:12:50.063Z</time>
      </trkpt>
      <trkpt lat="48.44794" lon="7.13977">
        <ele>823</ele>
        <time>2019-05-15T09:12:51.063Z</time>
      </trkpt>
      <trkpt lat="48.44793" lon="7.13977">
        <ele>824</ele>
        <time>2019-05-15T09:12:52.063Z</time>
      </trkpt>
      <trkpt lat="48.44793" lon="7.13977">
        <ele>824</ele>
        <time>2019-05-15T09:12:53.063Z</time>
      </trkpt>
      <trkpt lat="48.44792" lon="7.13977">
        <ele>824</ele>
        <time>2019-05-15T09:12:54.063Z</time>
      </trkpt>
      <trkpt lat="48.44792" lon="7.13978">
        <ele>825</ele>
        <time>2019-05-15T09:12:55.063Z</time>
      </trkpt>
      <trkpt lat="48.44792" lon="7.13978">
        <ele>826</ele>
        <time>2019-05-15T09:12:56.063Z</time>
      </trkpt>
      <trkpt lat="48.44792" lon="7.13978">
        <ele>826</ele>
        <time>2019-05-15T09:12:57.063Z</time>
      </trkpt>
      <trkpt lat="48.44792" lon="7.13979">
        <ele>826</ele>
        <time>2019-05-15T09:12:58.063Z</time>
      </trkpt>
      <trkpt lat="48.44792" lon="7.13979">
        <ele>827</ele>
        <time>2019-05-15T09:12:59.063Z</time>
      </trkpt>
      <trkpt lat="48.44791" lon="7.1398">
        <ele>827</ele>
        <time>2019-05-15T09:13:00.063Z</time>
      </trkpt>
      <trkpt lat="48.44791" lon="7.13981">
        <ele>827</ele>
        <time>2019-05-15T09:13:01.063Z</time>
      </trkpt>
      <trkpt lat="48.44791" lon="7.13981">
        <ele>827</ele>
        <time>2019-05-15T09:13:02.063Z</time>
      </trkpt>
      <trkpt lat="48.4479" lon="7.13981">
        <ele>826</ele>
        <time>2019-05-15T09:13:03.063Z</time>
      </trkpt>
      <trkpt lat="48.4479" lon="7.13981">
        <ele>826</ele>
        <time>2019-05-15T09:13:04.063Z</time>
      </trkpt>
      <trkpt lat="48.44789" lon="7.13982">
        <ele>826</ele>
        <time>2019-05-15T09:13:05.063Z</time>
      </trkpt>
      <trkpt lat="48.44789" lon="7.13982">
        <ele>827</ele>
        <time>2019-05-15T09:13:06.063Z</time>
      </trkpt>
      <trkpt lat="48.44789" lon="7.13982">
        <ele>828</ele>
        <time>2019-05-15T09:13:07.063Z</time>
      </trkpt>
      <trkpt lat="48.4479" lon="7.13983">
        <ele>829</ele>
        <time>2019-05-15T09:13:08.063Z</time>
      </trkpt>
      <trkpt lat="48.44789" lon="7.13984">
        <ele>829</ele>
        <time>2019-05-15T09:13:09.063Z</time>
      </trkpt>
      <trkpt lat="48.44789" lon="7.13985">
        <ele>829</ele>
        <time>2019-05-15T09:13:10.063Z</time>
      </trkpt>
      <trkpt lat="48.44789" lon="7.13986">
        <ele>830</ele>
        <time>2019-05-15T09:13:11.063Z</time>
      </trkpt>
      <trkpt lat="48.44789" lon="7.13987">
        <ele>830</ele>
        <time>2019-05-15T09:13:12.063Z</time>
      </trkpt>
      <trkpt lat="48.44788" lon="7.13988">
        <ele>830</ele>
        <time>2019-05-15T09:13:13.063Z</time>
      </trkpt>
      <trkpt lat="48.44788" lon="7.13988">
        <ele>830</ele>
        <time>2019-05-15T09:13:14.063Z</time>
      </trkpt>
      <trkpt lat="48.44788" lon="7.13989">
        <ele>830</ele>
        <time>2019-05-15T09:13:15.063Z</time>
      </trkpt>
      <trkpt lat="48.44787" lon="7.1399">
        <ele>830</ele>
        <time>2019-05-15T09:13:16.063Z</time>
      </trkpt>
      <trkpt lat="48.44787" lon="7.1399">
        <ele>830</ele>
        <time>2019-05-15T09:13:17.063Z</time>
      </trkpt>
      <trkpt lat="48.44786" lon="7.13991">
        <ele>830</ele>
        <time>2019-05-15T09:13:18.063Z</time>
      </trkpt>
      <trkpt lat="48.44786" lon="7.13991">
        <ele>829</ele>
        <time>2019-05-15T09:13:19.063Z</time>
      </trkpt>
      <trkpt lat="48.44785" lon="7.13992">
        <ele>829</ele>
        <time>2019-05-15T09:13:20.063Z</time>
      </trkpt>
      <trkpt lat="48.44785" lon="7.13992">
        <ele>829</ele>
        <time>2019-05-15T09:13:21.063Z</time>
      </trkpt>
      <trkpt lat="48.44784" lon="7.13993">
        <ele>828</ele>
        <time>2019-05-15T09:13:22.063Z</time>
      </trkpt>
      <trkpt lat="48.44784" lon="7.13994">
        <ele>829</ele>
        <time>2019-05-15T09:13:23.063Z</time>
      </trkpt>
      <trkpt lat="48.44783" lon="7.13994">
        <ele>828</ele>
        <time>2019-05-15T09:13:24.063Z</time>
      </trkpt>
      <trkpt lat="48.44783" lon="7.13995">
        <ele>829</ele>
        <time>2019-05-15T09:13:25.063Z</time>
      </trkpt>
      <trkpt lat="48.44782" lon="7.13996">
        <ele>829</ele>
        <time>2019-05-15T09:13:26.063Z</time>
      </trkpt>
      <trkpt lat="48.44781" lon="7.13996">
        <ele>828</ele>
        <time>2019-05-15T09:13:27.063Z</time>
      </trkpt>
      <trkpt lat="48.44781" lon="7.13996">
        <ele>828</ele>
        <time>2019-05-15T09:13:28.063Z</time>
      </trkpt>
      <trkpt lat="48.4478" lon="7.13997">
        <ele>829</ele>
        <time>2019-05-15T09:13:29.063Z</time>
      </trkpt>
      <trkpt lat="48.4478" lon="7.13997">
        <ele>828</ele>
        <time>2019-05-15T09:13:30.063Z</time>
      </trkpt>
      <trkpt lat="48.4478" lon="7.13998">
        <ele>829</ele>
        <time>2019-05-15T09:13:31.063Z</time>
      </trkpt>
      <trkpt lat="48.4478" lon="7.13999">
        <ele>829</ele>
        <time>2019-05-15T09:13:32.063Z</time>
      </trkpt>
      <trkpt lat="48.4478" lon="7.14">
        <ele>829</ele>
        <time>2019-05-15T09:13:33.063Z</time>
      </trkpt>
      <trkpt lat="48.4478" lon="7.14001">
        <ele>829</ele>
        <time>2019-05-15T09:13:34.063Z</time>
      </trkpt>
      <trkpt lat="48.4478" lon="7.14001">
        <ele>830</ele>
        <time>2019-05-15T09:13:35.063Z</time>
      </trkpt>
      <trkpt lat="48.4478" lon="7.14002">
        <ele>831</ele>
        <time>2019-05-15T09:13:36.063Z</time>
      </trkpt>
      <trkpt lat="48.4478" lon="7.14003">
        <ele>831</ele>
        <time>2019-05-15T09:13:37.063Z</time>
      </trkpt>
      <trkpt lat="48.4478" lon="7.14004">
        <ele>831</ele>
        <time>2019-05-15T09:13:38.063Z</time>
      </trkpt>
      <trkpt lat="48.4478" lon="7.14005">
        <ele>831</ele>
        <time>2019-05-15T09:13:39.063Z</time>
      </trkpt>
      <trkpt lat="48.4478" lon="7.14006">
        <ele>831</ele>
        <time>2019-05-15T09:13:40.063Z</time>
      </trkpt>
      <trkpt lat="48.4478" lon="7.14007">
        <ele>831</ele>
        <time>2019-05-15T09:13:41.063Z</time>
      </trkpt>
      <trkpt lat="48.4478" lon="7.14008">
        <ele>831</ele>
        <time>2019-05-15T09:13:42.063Z</time>
      </trkpt>
      <trkpt lat="48.44779" lon="7.14009">
        <ele>831</ele>
        <time>2019-05-15T09:13:43.063Z</time>
      </trkpt>
      <trkpt lat="48.44779" lon="7.14009">
        <ele>832</ele>
        <time>2019-05-15T09:13:44.063Z</time>
      </trkpt>
      <trkpt lat="48.44779" lon="7.1401">
        <ele>832</ele>
        <time>2019-05-15T09:13:45.063Z</time>
      </trkpt>
      <trkpt lat="48.44779" lon="7.1401">
        <ele>832</ele>
        <time>2019-05-15T09:13:46.063Z</time>
      </trkpt>
      <trkpt lat="48.44778" lon="7.14011">
        <ele>832</ele>
        <time>2019-05-15T09:13:47.063Z</time>
      </trkpt>
      <trkpt lat="48.44778" lon="7.14011">
        <ele>831</ele>
        <time>2019-05-15T09:13:48.063Z</time>
      </trkpt>
      <trkpt lat="48.44777" lon="7.14012">
        <ele>831</ele>
        <time>2019-05-15T09:13:49.063Z</time>
      </trkpt>
      <trkpt lat="48.44777" lon="7.14012">
        <ele>832</ele>
        <time>2019-05-15T09:13:50.063Z</time>
      </trkpt>
      <trkpt lat="48.44777" lon="7.14013">
        <ele>832</ele>
        <time>2019-05-15T09:13:51.063Z</time>
      </trkpt>
      <trkpt lat="48.44776" lon="7.14013">
        <ele>831</ele>
        <time>2019-05-15T09:13:52.063Z</time>
      </trkpt>
      <trkpt lat="48.44776" lon="7.14014">
        <ele>831</ele>
        <time>2019-05-15T09:13:53.063Z</time>
      </trkpt>
      <trkpt lat="48.44775" lon="7.14014">
        <ele>831</ele>
        <time>2019-05-15T09:13:54.063Z</time>
      </trkpt>
      <trkpt lat="48.44775" lon="7.14015">
        <ele>830</ele>
        <time>2019-05-15T09:13:55.063Z</time>
      </trkpt>
      <trkpt lat="48.44774" lon="7.14016">
        <ele>830</ele>
        <time>2019-05-15T09:13:56.063Z</time>
      </trkpt>
      <trkpt lat="48.44774" lon="7.14016">
        <ele>829</ele>
        <time>2019-05-15T09:13:57.063Z</time>
      </trkpt>
      <trkpt lat="48.44773" lon="7.14016">
        <ele>829</ele>
        <time>2019-05-15T09:13:58.063Z</time>
      </trkpt>
      <trkpt lat="48.44773" lon="7.14017">
        <ele>829</ele>
        <time>2019-05-15T09:13:59.063Z</time>
      </trkpt>
      <trkpt lat="48.44772" lon="7.14017">
        <ele>829</ele>
        <time>2019-05-15T09:14:00.063Z</time>
      </trkpt>
      <trkpt lat="48.44772" lon="7.14017">
        <ele>829</ele>
        <time>2019-05-15T09:14:01.063Z</time>
      </trkpt>
      <trkpt lat="48.44771" lon="7.14017">
        <ele>829</ele>
        <time>2019-05-15T09:14:02.063Z</time>
      </trkpt>
      <trkpt lat="48.44771" lon="7.14017">
        <ele>829</ele>
        <time>2019-05-15T09:14:03.063Z</time>
      </trkpt>
      <trkpt lat="48.44771" lon="7.14018">
        <ele>830</ele>
        <time>2019-05-15T09:14:04.063Z</time>
      </trkpt>
      <trkpt lat="48.44771" lon="7.14018">
        <ele>831</ele>
        <time>2019-05-15T09:14:05.063Z</time>
      </trkpt>
      <trkpt lat="48.44771" lon="7.14018">
        <ele>831</ele>
        <time>2019-05-15T09:14:06.063Z</time>
      </trkpt>
      <trkpt lat="48.44771" lon="7.14019">
        <ele>831</ele>
        <time>2019-05-15T09:14:07.063Z</time>
      </trkpt>
      <trkpt lat="48.4477" lon="7.14019">
        <ele>832</ele>
        <time>2019-05-15T09:14:08.063Z</time>
      </trkpt>
      <trkpt lat="48.4477" lon="7.14019">
        <ele>832</ele>
        <time>2019-05-15T09:14:09.063Z</time>
      </trkpt>
      <trkpt lat="48.4477" lon="7.1402">
        <ele>832</ele>
        <time>2019-05-15T09:14:10.063Z</time>
      </trkpt>
      <trkpt lat="48.44769" lon="7.1402">
        <ele>831</ele>
        <time>2019-05-15T09:14:11.063Z</time>
      </trkpt>
      <trkpt lat="48.44769" lon="7.14021">
        <ele>831</ele>
        <time>2019-05-15T09:14:12.063Z</time>
      </trkpt>
      <trkpt lat="48.44768" lon="7.14021">
        <ele>831</ele>
        <time>2019-05-15T09:14:13.063Z</time>
      </trkpt>
      <trkpt lat="48.44768" lon="7.14021">
        <ele>832</ele>
        <time>2019-05-15T09:14:14.063Z</time>
      </trkpt>
      <trkpt lat="48.44768" lon="7.14021">
        <ele>832</ele>
        <time>2019-05-15T09:14:15.063Z</time>
      </trkpt>
      <trkpt lat="48.44768" lon="7.14022">
        <ele>832</ele>
        <time>2019-05-15T09:14:16.063Z</time>
      </trkpt>
      <trkpt lat="48.44767" lon="7.14022">
        <ele>833</ele>
        <time>2019-05-15T09:14:17.063Z</time>
      </trkpt>
      <trkpt lat="48.44767" lon="7.14022">
        <ele>833</ele>
        <time>2019-05-15T09:14:18.063Z</time>
      </trkpt>
      <trkpt lat="48.44766" lon="7.14023">
        <ele>834</ele>
        <time>2019-05-15T09:14:19.063Z</time>
      </trkpt>
      <trkpt lat="48.44766" lon="7.14024">
        <ele>834</ele>
        <time>2019-05-15T09:14:20.063Z</time>
      </trkpt>
      <trkpt lat="48.44766" lon="7.14025">
        <ele>834</ele>
        <time>2019-05-15T09:14:21.063Z</time>
      </trkpt>
      <trkpt lat="48.44766" lon="7.14025">
        <ele>835</ele>
        <time>2019-05-15T09:14:22.063Z</time>
      </trkpt>
      <trkpt lat="48.44765" lon="7.14025">
        <ele>836</ele>
        <time>2019-05-15T09:14:23.063Z</time>
      </trkpt>
      <trkpt lat="48.44765" lon="7.14026">
        <ele>836</ele>
        <time>2019-05-15T09:14:24.063Z</time>
      </trkpt>
      <trkpt lat="48.44764" lon="7.14027">
        <ele>836</ele>
        <time>2019-05-15T09:14:25.063Z</time>
      </trkpt>
      <trkpt lat="48.44764" lon="7.14027">
        <ele>835</ele>
        <time>2019-05-15T09:14:26.063Z</time>
      </trkpt>
      <trkpt lat="48.44763" lon="7.14027">
        <ele>835</ele>
        <time>2019-05-15T09:14:27.063Z</time>
      </trkpt>
      <trkpt lat="48.44763" lon="7.14027">
        <ele>835</ele>
        <time>2019-05-15T09:14:28.063Z</time>
      </trkpt>
      <trkpt lat="48.44763" lon="7.14028">
        <ele>834</ele>
        <time>2019-05-15T09:14:29.063Z</time>
      </trkpt>
      <trkpt lat="48.44763" lon="7.14029">
        <ele>835</ele>
        <time>2019-05-15T09:14:30.063Z</time>
      </trkpt>
      <trkpt lat="48.44762" lon="7.14029">
        <ele>835</ele>
        <time>2019-05-15T09:14:31.063Z</time>
      </trkpt>
      <trkpt lat="48.44762" lon="7.1403">
        <ele>834</ele>
        <time>2019-05-15T09:14:32.063Z</time>
      </trkpt>
      <trkpt lat="48.44761" lon="7.14031">
        <ele>834</ele>
        <time>2019-05-15T09:14:33.063Z</time>
      </trkpt>
      <trkpt lat="48.44761" lon="7.14031">
        <ele>834</ele>
        <time>2019-05-15T09:14:34.063Z</time>
      </trkpt>
      <trkpt lat="48.4476" lon="7.14032">
        <ele>834</ele>
        <time>2019-05-15T09:14:35.063Z</time>
      </trkpt>
      <trkpt lat="48.4476" lon="7.14032">
        <ele>834</ele>
        <time>2019-05-15T09:14:36.063Z</time>
      </trkpt>
      <trkpt lat="48.44759" lon="7.14033">
        <ele>833</ele>
        <time>2019-05-15T09:14:37.063Z</time>
      </trkpt>
      <trkpt lat="48.44758" lon="7.14034">
        <ele>834</ele>
        <time>2019-05-15T09:14:38.063Z</time>
      </trkpt>
      <trkpt lat="48.44758" lon="7.14034">
        <ele>835</ele>
        <time>2019-05-15T09:14:39.063Z</time>
      </trkpt>
      <trkpt lat="48.44758" lon="7.14035">
        <ele>835</ele>
        <time>2019-05-15T09:14:40.063Z</time>
      </trkpt>
      <trkpt lat="48.44758" lon="7.14035">
        <ele>835</ele>
        <time>2019-05-15T09:14:41.063Z</time>
      </trkpt>
      <trkpt lat="48.44757" lon="7.14035">
        <ele>836</ele>
        <time>2019-05-15T09:14:42.063Z</time>
      </trkpt>
      <trkpt lat="48.44757" lon="7.14036">
        <ele>836</ele>
        <time>2019-05-15T09:14:43.063Z</time>
      </trkpt>
      <trkpt lat="48.44757" lon="7.14037">
        <ele>836</ele>
        <time>2019-05-15T09:14:44.063Z</time>
      </trkpt>
      <trkpt lat="48.44756" lon="7.14037">
        <ele>836</ele>
        <time>2019-05-15T09:14:45.063Z</time>
      </trkpt>
      <trkpt lat="48.44756" lon="7.14038">
        <ele>836</ele>
        <time>2019-05-15T09:14:46.063Z</time>
      </trkpt>
      <trkpt lat="48.44756" lon="7.14039">
        <ele>836</ele>
        <time>2019-05-15T09:14:47.063Z</time>
      </trkpt>
      <trkpt lat="48.44755" lon="7.14039">
        <ele>837</ele>
        <time>2019-05-15T09:14:48.063Z</time>
      </trkpt>
      <trkpt lat="48.44755" lon="7.14039">
        <ele>837</ele>
        <time>2019-05-15T09:14:49.063Z</time>
      </trkpt>
      <trkpt lat="48.44755" lon="7.1404">
        <ele>837</ele>
        <time>2019-05-15T09:14:50.063Z</time>
      </trkpt>
      <trkpt lat="48.44754" lon="7.1404">
        <ele>837</ele>
        <time>2019-05-15T09:14:51.063Z</time>
      </trkpt>
      <trkpt lat="48.44754" lon="7.1404">
        <ele>838</ele>
        <time>2019-05-15T09:14:52.063Z</time>
      </trkpt>
      <trkpt lat="48.44754" lon="7.1404">
        <ele>838</ele>
        <time>2019-05-15T09:14:53.063Z</time>
      </trkpt>
      <trkpt lat="48.44754" lon="7.1404">
        <ele>838</ele>
        <time>2019-05-15T09:14:54.063Z</time>
      </trkpt>
      <trkpt lat="48.44753" lon="7.14041">
        <ele>838</ele>
        <time>2019-05-15T09:14:55.063Z</time>
      </trkpt>
      <trkpt lat="48.44753" lon="7.14041">
        <ele>839</ele>
        <time>2019-05-15T09:14:56.063Z</time>
      </trkpt>
      <trkpt lat="48.44752" lon="7.14041">
        <ele>838</ele>
        <time>2019-05-15T09:14:57.063Z</time>
      </trkpt>
      <trkpt lat="48.44752" lon="7.14042">
        <ele>839</ele>
        <time>2019-05-15T09:14:58.063Z</time>
      </trkpt>
      <trkpt lat="48.44751" lon="7.14042">
        <ele>839</ele>
        <time>2019-05-15T09:14:59.063Z</time>
      </trkpt>
      <trkpt lat="48.44751" lon="7.14042">
        <ele>840</ele>
        <time>2019-05-15T09:15:00.063Z</time>
      </trkpt>
      <trkpt lat="48.44751" lon="7.14042">
        <ele>840</ele>
        <time>2019-05-15T09:15:01.063Z</time>
      </trkpt>
      <trkpt lat="48.44751" lon="7.14042">
        <ele>840</ele>
        <time>2019-05-15T09:15:02.063Z</time>
      </trkpt>
      <trkpt lat="48.4475" lon="7.14042">
        <ele>841</ele>
        <time>2019-05-15T09:15:03.063Z</time>
      </trkpt>
      <trkpt lat="48.4475" lon="7.14042">
        <ele>840</ele>
        <time>2019-05-15T09:15:04.063Z</time>
      </trkpt>
      <trkpt lat="48.44749" lon="7.14042">
        <ele>839</ele>
        <time>2019-05-15T09:15:05.063Z</time>
      </trkpt>
      <trkpt lat="48.44748" lon="7.14043">
        <ele>839</ele>
        <time>2019-05-15T09:15:06.063Z</time>
      </trkpt>
      <trkpt lat="48.44748" lon="7.14043">
        <ele>839</ele>
        <time>2019-05-15T09:15:07.063Z</time>
      </trkpt>
      <trkpt lat="48.44747" lon="7.14043">
        <ele>838</ele>
        <time>2019-05-15T09:15:08.063Z</time>
      </trkpt>
      <trkpt lat="48.44747" lon="7.14043">
        <ele>838</ele>
        <time>2019-05-15T09:15:09.063Z</time>
      </trkpt>
      <trkpt lat="48.44747" lon="7.14044">
        <ele>837</ele>
        <time>2019-05-15T09:15:10.063Z</time>
      </trkpt>
      <trkpt lat="48.44746" lon="7.14044">
        <ele>837</ele>
        <time>2019-05-15T09:15:11.063Z</time>
      </trkpt>
      <trkpt lat="48.44746" lon="7.14044">
        <ele>837</ele>
        <time>2019-05-15T09:15:12.063Z</time>
      </trkpt>
      <trkpt lat="48.44746" lon="7.14044">
        <ele>837</ele>
        <time>2019-05-15T09:15:13.063Z</time>
      </trkpt>
      <trkpt lat="48.44746" lon="7.14044">
        <ele>837</ele>
        <time>2019-05-15T09:15:14.063Z</time>
      </trkpt>
      <trkpt lat="48.44746" lon="7.14044">
        <ele>838</ele>
        <time>2019-05-15T09:15:15.063Z</time>
      </trkpt>
      <trkpt lat="48.44746" lon="7.14044">
        <ele>838</ele>
        <time>2019-05-15T09:15:16.063Z</time>
      </trkpt>
      <trkpt lat="48.44746" lon="7.14044">
        <ele>838</ele>
        <time>2019-05-15T09:15:17.063Z</time>
      </trkpt>
      <trkpt lat="48.44746" lon="7.14044">
        <ele>838</ele>
        <time>2019-05-15T09:15:18.063Z</time>
      </trkpt>
      <trkpt lat="48.44746" lon="7.14044">
        <ele>838</ele>
        <time>2019-05-15T09:15:19.063Z</time>
      </trkpt>
      <trkpt lat="48.44746" lon="7.14044">
        <ele>838</ele>
        <time>2019-05-15T09:15:20.063Z</time>
      </trkpt>
      <trkpt lat="48.44746" lon="7.14044">
        <ele>839</ele>
        <time>2019-05-15T09:15:21.063Z</time>
      </trkpt>
      <trkpt lat="48.44746" lon="7.14044">
        <ele>839</ele>
        <time>2019-05-15T09:15:22.063Z</time>
      </trkpt>
      <trkpt lat="48.44746" lon="7.14044">
        <ele>839</ele>
        <time>2019-05-15T09:15:23.063Z</time>
      </trkpt>
      <trkpt lat="48.44747" lon="7.14044">
        <ele>840</ele>
        <time>2019-05-15T09:15:24.063Z</time>
      </trkpt>
      <trkpt lat="48.44747" lon="7.14044">
        <ele>840</ele>
        <time>2019-05-15T09:15:25.063Z</time>
      </trkpt>
      <trkpt lat="48.44747" lon="7.14044">
        <ele>840</ele>
        <time>2019-05-15T09:15:26.063Z</time>
      </trkpt>
      <trkpt lat="48.44747" lon="7.14044">
        <ele>840</ele>
        <time>2019-05-15T09:15:27.063Z</time>
      </trkpt>
      <trkpt lat="48.44747" lon="7.14044">
        <ele>840</ele>
        <time>2019-05-15T09:15:28.063Z</time>
      </trkpt>
      <trkpt lat="48.44747" lon="7.14044">
        <ele>840</ele>
        <time>2019-05-15T09:15:29.063Z</time>
      </trkpt>
      <trkpt lat="48.44747" lon="7.14044">
        <ele>840</ele>
        <time>2019-05-15T09:15:30.063Z</time>
      </trkpt>
      <trkpt lat="48.44747" lon="7.14044">
        <ele>841</ele>
        <time>2019-05-15T09:15:31.063Z</time>
      </trkpt>
      <trkpt lat="48.44747" lon="7.14044">
        <ele>840</ele>
        <time>2019-05-15T09:15:32.063Z</time>
      </trkpt>
      <trkpt lat="48.44747" lon="7.14044">
        <ele>839</ele>
        <time>2019-05-15T09:15:33.063Z</time>
      </trkpt>
      <trkpt lat="48.44747" lon="7.14043">
        <ele>839</ele>
        <time>2019-05-15T09:15:34.063Z</time>
      </trkpt>
      <trkpt lat="48.44747" lon="7.14043">
        <ele>839</ele>
        <time>2019-05-15T09:15:35.063Z</time>
      </trkpt>
      <trkpt lat="48.44747" lon="7.14043">
        <ele>839</ele>
        <time>2019-05-15T09:15:36.063Z</time>
      </trkpt>
      <trkpt lat="48.44747" lon="7.14043">
        <ele>839</ele>
        <time>2019-05-15T09:15:37.063Z</time>
      </trkpt>
      <trkpt lat="48.44747" lon="7.14043">
        <ele>839</ele>
        <time>2019-05-15T09:15:38.063Z</time>
      </trkpt>
      <trkpt lat="48.44747" lon="7.14043">
        <ele>839</ele>
        <time>2019-05-15T09:15:39.063Z</time>
      </trkpt>
      <trkpt lat="48.44746" lon="7.14043">
        <ele>839</ele>
        <time>2019-05-15T09:15:40.063Z</time>
      </trkpt>
      <trkpt lat="48.44746" lon="7.14043">
        <ele>839</ele>
        <time>2019-05-15T09:15:41.063Z</time>
      </trkpt>
      <trkpt lat="48.44746" lon="7.14043">
        <ele>839</ele>
        <time>2019-05-15T09:15:42.063Z</time>
      </trkpt>
      <trkpt lat="48.44746" lon="7.14043">
        <ele>838</ele>
        <time>2019-05-15T09:15:43.063Z</time>
      </trkpt>
      <trkpt lat="48.44746" lon="7.14043">
        <ele>838</ele>
        <time>2019-05-15T09:15:44.063Z</time>
      </trkpt>
      <trkpt lat="48.44746" lon="7.14043">
        <ele>838</ele>
        <time>2019-05-15T09:15:45.063Z</time>
      </trkpt>
      <trkpt lat="48.44746" lon="7.14043">
        <ele>838</ele>
        <time>2019-05-15T09:15:46.063Z</time>
      </trkpt>
      <trkpt lat="48.44745" lon="7.14043">
        <ele>838</ele>
        <time>2019-05-15T09:15:47.063Z</time>
      </trkpt>
      <trkpt lat="48.44745" lon="7.14043">
        <ele>837</ele>
        <time>2019-05-15T09:15:48.063Z</time>
      </trkpt>
      <trkpt lat="48.44745" lon="7.14043">
        <ele>837</ele>
        <time>2019-05-15T09:15:49.063Z</time>
      </trkpt>
      <trkpt lat="48.44745" lon="7.14042">
        <ele>837</ele>
        <time>2019-05-15T09:15:50.063Z</time>
      </trkpt>
      <trkpt lat="48.44745" lon="7.14042">
        <ele>837</ele>
        <time>2019-05-15T09:15:51.063Z</time>
      </trkpt>
      <trkpt lat="48.44745" lon="7.14042">
        <ele>837</ele>
        <time>2019-05-15T09:15:52.063Z</time>
      </trkpt>
      <trkpt lat="48.44746" lon="7.14042">
        <ele>837</ele>
        <time>2019-05-15T09:15:53.063Z</time>
      </trkpt>
      <trkpt lat="48.44746" lon="7.14042">
        <ele>837</ele>
        <time>2019-05-15T09:15:54.063Z</time>
      </trkpt>
      <trkpt lat="48.44746" lon="7.14042">
        <ele>837</ele>
        <time>2019-05-15T09:15:55.063Z</time>
      </trkpt>
      <trkpt lat="48.44746" lon="7.14042">
        <ele>837</ele>
        <time>2019-05-15T09:15:56.063Z</time>
      </trkpt>
      <trkpt lat="48.44746" lon="7.14042">
        <ele>836</ele>
        <time>2019-05-15T09:15:57.063Z</time>
      </trkpt>
      <trkpt lat="48.44746" lon="7.14042">
        <ele>836</ele>
        <time>2019-05-15T09:15:58.063Z</time>
      </trkpt>
      <trkpt lat="48.44746" lon="7.14042">
        <ele>836</ele>
        <time>2019-05-15T09:15:59.063Z</time>
      </trkpt>
      <trkpt lat="48.44746" lon="7.14042">
        <ele>837</ele>
        <time>2019-05-15T09:16:00.063Z</time>
      </trkpt>
      <trkpt lat="48.44746" lon="7.14042">
        <ele>837</ele>
        <time>2019-05-15T09:16:01.063Z</time>
      </trkpt>
      <trkpt lat="48.44746" lon="7.14042">
        <ele>837</ele>
        <time>2019-05-15T09:16:02.063Z</time>
      </trkpt>
      <trkpt lat="48.44746" lon="7.14042">
        <ele>837</ele>
        <time>2019-05-15T09:16:03.063Z</time>
      </trkpt>
      <trkpt lat="48.44747" lon="7.14043">
        <ele>837</ele>
        <time>2019-05-15T09:16:04.063Z</time>
      </trkpt>
      <trkpt lat="48.44747" lon="7.14043">
        <ele>837</ele>
        <time>2019-05-15T09:16:05.063Z</time>
      </trkpt>
      <trkpt lat="48.44747" lon="7.14043">
        <ele>837</ele>
        <time>2019-05-15T09:16:06.063Z</time>
      </trkpt>
      <trkpt lat="48.44747" lon="7.14043">
        <ele>837</ele>
        <time>2019-05-15T09:16:07.063Z</time>
      </trkpt>
      <trkpt lat="48.44747" lon="7.14043">
        <ele>837</ele>
        <time>2019-05-15T09:16:08.063Z</time>
      </trkpt>
      <trkpt lat="48.44747" lon="7.14043">
        <ele>837</ele>
        <time>2019-05-15T09:16:09.063Z</time>
      </trkpt>
      <trkpt lat="48.44747" lon="7.14043">
        <ele>837</ele>
        <time>2019-05-15T09:16:10.063Z</time>
      </trkpt>
      <trkpt lat="48.44747" lon="7.14043">
        <ele>837</ele>
        <time>2019-05-15T09:16:11.063Z</time>
      </trkpt>
      <trkpt lat="48.44747" lon="7.14043">
        <ele>837</ele>
        <time>2019-05-15T09:16:12.063Z</time>
      </trkpt>
      <trkpt lat="48.44747" lon="7.14043">
        <ele>837</ele>
        <time>2019-05-15T09:16:13.063Z</time>
      </trkpt>
      <trkpt lat="48.44747" lon="7.14043">
        <ele>837</ele>
        <time>2019-05-15T09:16:14.063Z</time>
      </trkpt>
      <trkpt lat="48.44747" lon="7.14043">
        <ele>837</ele>
        <time>2019-05-15T09:16:15.063Z</time>
      </trkpt>
      <trkpt lat="48.44748" lon="7.14043">
        <ele>837</ele>
        <time>2019-05-15T09:16:16.063Z</time>
      </trkpt>
      <trkpt lat="48.44748" lon="7.14043">
        <ele>837</ele>
        <time>2019-05-15T09:16:17.063Z</time>
      </trkpt>
      <trkpt lat="48.44748" lon="7.14042">
        <ele>837</ele>
        <time>2019-05-15T09:16:18.063Z</time>
      </trkpt>
      <trkpt lat="48.44748" lon="7.14042">
        <ele>837</ele>
        <time>2019-05-15T09:16:19.063Z</time>
      </trkpt>
      <trkpt lat="48.44748" lon="7.14042">
        <ele>837</ele>
        <time>2019-05-15T09:16:20.063Z</time>
      </trkpt>
      <trkpt lat="48.44748" lon="7.14043">
        <ele>838</ele>
        <time>2019-05-15T09:16:21.063Z</time>
      </trkpt>
      <trkpt lat="48.44748" lon="7.14043">
        <ele>838</ele>
        <time>2019-05-15T09:16:22.063Z</time>
      </trkpt>
      <trkpt lat="48.44748" lon="7.14043">
        <ele>838</ele>
        <time>2019-05-15T09:16:23.063Z</time>
      </trkpt>
      <trkpt lat="48.44748" lon="7.14043">
        <ele>838</ele>
        <time>2019-05-15T09:16:24.063Z</time>
      </trkpt>
      <trkpt lat="48.44748" lon="7.14042">
        <ele>838</ele>
        <time>2019-05-15T09:16:25.063Z</time>
      </trkpt>
      <trkpt lat="48.44748" lon="7.14042">
        <ele>838</ele>
        <time>2019-05-15T09:16:26.063Z</time>
      </trkpt>
      <trkpt lat="48.44748" lon="7.14042">
        <ele>838</ele>
        <time>2019-05-15T09:16:27.063Z</time>
      </trkpt>
      <trkpt lat="48.44748" lon="7.14043">
        <ele>838</ele>
        <time>2019-05-15T09:16:28.063Z</time>
      </trkpt>
      <trkpt lat="48.44748" lon="7.14043">
        <ele>838</ele>
        <time>2019-05-15T09:16:29.063Z</time>
      </trkpt>
      <trkpt lat="48.44748" lon="7.14043">
        <ele>838</ele>
        <time>2019-05-15T09:16:30.063Z</time>
      </trkpt>
      <trkpt lat="48.44748" lon="7.14043">
        <ele>838</ele>
        <time>2019-05-15T09:16:31.063Z</time>
      </trkpt>
      <trkpt lat="48.44748" lon="7.14043">
        <ele>838</ele>
        <time>2019-05-15T09:16:32.063Z</time>
      </trkpt>
      <trkpt lat="48.44748" lon="7.14043">
        <ele>838</ele>
        <time>2019-05-15T09:16:33.063Z</time>
      </trkpt>
      <trkpt lat="48.44748" lon="7.14043">
        <ele>838</ele>
        <time>2019-05-15T09:16:34.063Z</time>
      </trkpt>
      <trkpt lat="48.44748" lon="7.14043">
        <ele>838</ele>
        <time>2019-05-15T09:16:35.063Z</time>
      </trkpt>
      <trkpt lat="48.44748" lon="7.14043">
        <ele>838</ele>
        <time>2019-05-15T09:16:36.063Z</time>
      </trkpt>
      <trkpt lat="48.44748" lon="7.14043">
        <ele>838</ele>
        <time>2019-05-15T09:16:37.063Z</time>
      </trkpt>
      <trkpt lat="48.44748" lon="7.14043">
        <ele>838</ele>
        <time>2019-05-15T09:16:38.063Z</time>
      </trkpt>
      <trkpt lat="48.44748" lon="7.14043">
        <ele>838</ele>
        <time>2019-05-15T09:16:39.063Z</time>
      </trkpt>
      <trkpt lat="48.44748" lon="7.14043">
        <ele>838</ele>
        <time>2019-05-15T09:16:40.063Z</time>
      </trkpt>
      <trkpt lat="48.44748" lon="7.14042">
        <ele>839</ele>
        <time>2019-05-15T09:16:41.063Z</time>
      </trkpt>
      <trkpt lat="48.44748" lon="7.14042">
        <ele>839</ele>
        <time>2019-05-15T09:16:42.063Z</time>
      </trkpt>
      <trkpt lat="48.44748" lon="7.14042">
        <ele>838</ele>
        <time>2019-05-15T09:16:43.063Z</time>
      </trkpt>
      <trkpt lat="48.44748" lon="7.14042">
        <ele>838</ele>
        <time>2019-05-15T09:16:44.063Z</time>
      </trkpt>
      <trkpt lat="48.44747" lon="7.14042">
        <ele>838</ele>
        <time>2019-05-15T09:16:45.063Z</time>
      </trkpt>
      <trkpt lat="48.44747" lon="7.14042">
        <ele>838</ele>
        <time>2019-05-15T09:16:46.063Z</time>
      </trkpt>
      <trkpt lat="48.44747" lon="7.14042">
        <ele>838</ele>
        <time>2019-05-15T09:16:47.063Z</time>
      </trkpt>
      <trkpt lat="48.44746" lon="7.14042">
        <ele>838</ele>
        <time>2019-05-15T09:16:48.063Z</time>
      </trkpt>
      <trkpt lat="48.44746" lon="7.14042">
        <ele>838</ele>
        <time>2019-05-15T09:16:49.063Z</time>
      </trkpt>
      <trkpt lat="48.44747" lon="7.14042">
        <ele>838</ele>
        <time>2019-05-15T09:16:50.063Z</time>
      </trkpt>
      <trkpt lat="48.44747" lon="7.14042">
        <ele>838</ele>
        <time>2019-05-15T09:16:51.063Z</time>
      </trkpt>
      <trkpt lat="48.44747" lon="7.14042">
        <ele>838</ele>
        <time>2019-05-15T09:16:52.063Z</time>
      </trkpt>
      <trkpt lat="48.44747" lon="7.14042">
        <ele>838</ele>
        <time>2019-05-15T09:16:53.063Z</time>
      </trkpt>
      <trkpt lat="48.44747" lon="7.14042">
        <ele>838</ele>
        <time>2019-05-15T09:16:54.063Z</time>
      </trkpt>
      <trkpt lat="48.44747" lon="7.14042">
        <ele>838</ele>
        <time>2019-05-15T09:16:55.063Z</time>
      </trkpt>
      <trkpt lat="48.44747" lon="7.14042">
        <ele>838</ele>
        <time>2019-05-15T09:16:56.063Z</time>
      </trkpt>
      <trkpt lat="48.44747" lon="7.14042">
        <ele>838</ele>
        <time>2019-05-15T09:16:57.063Z</time>
      </trkpt>
      <trkpt lat="48.44747" lon="7.14042">
        <ele>838</ele>
        <time>2019-05-15T09:16:58.063Z</time>
      </trkpt>
      <trkpt lat="48.44746" lon="7.14042">
        <ele>837</ele>
        <time>2019-05-15T09:16:59.063Z</time>
      </trkpt>
      <trkpt lat="48.44746" lon="7.14042">
        <ele>837</ele>
        <time>2019-05-15T09:17:00.063Z</time>
      </trkpt>
      <trkpt lat="48.44746" lon="7.14042">
        <ele>837</ele>
        <time>2019-05-15T09:17:01.063Z</time>
      </trkpt>
      <trkpt lat="48.44746" lon="7.14042">
        <ele>837</ele>
        <time>2019-05-15T09:17:02.063Z</time>
      </trkpt>
      <trkpt lat="48.44745" lon="7.14042">
        <ele>837</ele>
        <time>2019-05-15T09:17:03.063Z</time>
      </trkpt>
      <trkpt lat="48.44745" lon="7.14042">
        <ele>837</ele>
        <time>2019-05-15T09:17:04.063Z</time>
      </trkpt>
      <trkpt lat="48.44745" lon="7.14042">
        <ele>837</ele>
        <time>2019-05-15T09:17:05.063Z</time>
      </trkpt>
      <trkpt lat="48.44745" lon="7.14042">
        <ele>837</ele>
        <time>2019-05-15T09:17:06.063Z</time>
      </trkpt>
      <trkpt lat="48.44745" lon="7.14042">
        <ele>837</ele>
        <time>2019-05-15T09:17:07.063Z</time>
      </trkpt>
      <trkpt lat="48.44745" lon="7.14042">
        <ele>836</ele>
        <time>2019-05-15T09:17:08.063Z</time>
      </trkpt>
      <trkpt lat="48.44745" lon="7.14043">
        <ele>836</ele>
        <time>2019-05-15T09:17:09.063Z</time>
      </trkpt>
      <trkpt lat="48.44745" lon="7.14043">
        <ele>836</ele>
        <time>2019-05-15T09:17:10.063Z</time>
      </trkpt>
      <trkpt lat="48.44745" lon="7.14043">
        <ele>836</ele>
        <time>2019-05-15T09:17:11.063Z</time>
      </trkpt>
      <trkpt lat="48.44745" lon="7.14043">
        <ele>836</ele>
        <time>2019-05-15T09:17:12.063Z</time>
      </trkpt>
      <trkpt lat="48.44745" lon="7.14043">
        <ele>836</ele>
        <time>2019-05-15T09:17:13.063Z</time>
      </trkpt>
      <trkpt lat="48.44745" lon="7.14043">
        <ele>837</ele>
        <time>2019-05-15T09:17:14.063Z</time>
      </trkpt>
      <trkpt lat="48.44745" lon="7.14044">
        <ele>837</ele>
        <time>2019-05-15T09:17:15.063Z</time>
      </trkpt>
      <trkpt lat="48.44744" lon="7.14044">
        <ele>837</ele>
        <time>2019-05-15T09:17:16.063Z</time>
      </trkpt>
      <trkpt lat="48.44744" lon="7.14044">
        <ele>837</ele>
        <time>2019-05-15T09:17:17.063Z</time>
      </trkpt>
      <trkpt lat="48.44743" lon="7.14045">
        <ele>837</ele>
        <time>2019-05-15T09:17:18.063Z</time>
      </trkpt>
      <trkpt lat="48.44743" lon="7.14045">
        <ele>837</ele>
        <time>2019-05-15T09:17:19.063Z</time>
      </trkpt>
      <trkpt lat="48.44742" lon="7.14046">
        <ele>837</ele>
        <time>2019-05-15T09:17:20.063Z</time>
      </trkpt>
      <trkpt lat="48.44742" lon="7.14046">
        <ele>837</ele>
        <time>2019-05-15T09:17:21.063Z</time>
      </trkpt>
      <trkpt lat="48.44741" lon="7.14047">
        <ele>838</ele>
        <time>2019-05-15T09:17:22.063Z</time>
      </trkpt>
      <trkpt lat="48.44741" lon="7.14048">
        <ele>837</ele>
        <time>2019-05-15T09:17:23.063Z</time>
      </trkpt>
      <trkpt lat="48.4474" lon="7.14049">
        <ele>837</ele>
        <time>2019-05-15T09:17:24.063Z</time>
      </trkpt>
      <trkpt lat="48.44739" lon="7.1405">
        <ele>837</ele>
        <time>2019-05-15T09:17:25.063Z</time>
      </trkpt>
      <trkpt lat="48.44739" lon="7.14051">
        <ele>837</ele>
        <time>2019-05-15T09:17:26.063Z</time>
      </trkpt>
      <trkpt lat="48.44738" lon="7.14052">
        <ele>837</ele>
        <time>2019-05-15T09:17:27.063Z</time>
      </trkpt>
      <trkpt lat="48.44737" lon="7.14052">
        <ele>837</ele>
        <time>2019-05-15T09:17:28.063Z</time>
      </trkpt>
      <trkpt lat="48.44737" lon="7.14053">
        <ele>838</ele>
        <time>2019-05-15T09:17:29.063Z</time>
      </trkpt>
      <trkpt lat="48.44736" lon="7.14053">
        <ele>838</ele>
        <time>2019-05-15T09:17:30.063Z</time>
      </trkpt>
      <trkpt lat="48.44736" lon="7.14054">
        <ele>838</ele>
        <time>2019-05-15T09:17:31.063Z</time>
      </trkpt>
      <trkpt lat="48.44735" lon="7.14054">
        <ele>838</ele>
        <time>2019-05-15T09:17:32.063Z</time>
      </trkpt>
      <trkpt lat="48.44735" lon="7.14055">
        <ele>838</ele>
        <time>2019-05-15T09:17:33.063Z</time>
      </trkpt>
      <trkpt lat="48.44734" lon="7.14055">
        <ele>839</ele>
        <time>2019-05-15T09:17:34.063Z</time>
      </trkpt>
      <trkpt lat="48.44734" lon="7.14055">
        <ele>839</ele>
        <time>2019-05-15T09:17:35.063Z</time>
      </trkpt>
      <trkpt lat="48.44734" lon="7.14056">
        <ele>839</ele>
        <time>2019-05-15T09:17:36.063Z</time>
      </trkpt>
      <trkpt lat="48.44733" lon="7.14056">
        <ele>839</ele>
        <time>2019-05-15T09:17:37.063Z</time>
      </trkpt>
      <trkpt lat="48.44733" lon="7.14057">
        <ele>839</ele>
        <time>2019-05-15T09:17:38.063Z</time>
      </trkpt>
      <trkpt lat="48.44732" lon="7.14058">
        <ele>839</ele>
        <time>2019-05-15T09:17:39.063Z</time>
      </trkpt>
      <trkpt lat="48.44732" lon="7.14059">
        <ele>839</ele>
        <time>2019-05-15T09:17:40.063Z</time>
      </trkpt>
      <trkpt lat="48.44731" lon="7.14059">
        <ele>838</ele>
        <time>2019-05-15T09:17:41.063Z</time>
      </trkpt>
      <trkpt lat="48.4473" lon="7.1406">
        <ele>838</ele>
        <time>2019-05-15T09:17:42.063Z</time>
      </trkpt>
      <trkpt lat="48.4473" lon="7.1406">
        <ele>839</ele>
        <time>2019-05-15T09:17:43.063Z</time>
      </trkpt>
      <trkpt lat="48.44729" lon="7.14061">
        <ele>839</ele>
        <time>2019-05-15T09:17:44.063Z</time>
      </trkpt>
      <trkpt lat="48.44729" lon="7.14061">
        <ele>839</ele>
        <time>2019-05-15T09:17:45.063Z</time>
      </trkpt>
      <trkpt lat="48.44729" lon="7.14062">
        <ele>839</ele>
        <time>2019-05-15T09:17:46.063Z</time>
      </trkpt>
      <trkpt lat="48.44728" lon="7.14063">
        <ele>839</ele>
        <time>2019-05-15T09:17:47.063Z</time>
      </trkpt>
      <trkpt lat="48.44727" lon="7.14063">
        <ele>839</ele>
        <time>2019-05-15T09:17:48.063Z</time>
      </trkpt>
      <trkpt lat="48.44726" lon="7.14064">
        <ele>839</ele>
        <time>2019-05-15T09:17:49.063Z</time>
      </trkpt>
      <trkpt lat="48.44726" lon="7.14064">
        <ele>839</ele>
        <time>2019-05-15T09:17:50.063Z</time>
      </trkpt>
      <trkpt lat="48.44725" lon="7.14065">
        <ele>839</ele>
        <time>2019-05-15T09:17:51.063Z</time>
      </trkpt>
      <trkpt lat="48.44725" lon="7.14065">
        <ele>840</ele>
        <time>2019-05-15T09:17:52.063Z</time>
      </trkpt>
      <trkpt lat="48.44724" lon="7.14065">
        <ele>840</ele>
        <time>2019-05-15T09:17:53.063Z</time>
      </trkpt>
      <trkpt lat="48.44724" lon="7.14066">
        <ele>840</ele>
        <time>2019-05-15T09:17:54.063Z</time>
      </trkpt>
      <trkpt lat="48.44723" lon="7.14066">
        <ele>840</ele>
        <time>2019-05-15T09:17:55.063Z</time>
      </trkpt>
      <trkpt lat="48.44723" lon="7.14067">
        <ele>840</ele>
        <time>2019-05-15T09:17:56.063Z</time>
      </trkpt>
      <trkpt lat="48.44722" lon="7.14068">
        <ele>840</ele>
        <time>2019-05-15T09:17:57.063Z</time>
      </trkpt>
      <trkpt lat="48.44722" lon="7.14069">
        <ele>841</ele>
        <time>2019-05-15T09:17:58.063Z</time>
      </trkpt>
      <trkpt lat="48.44721" lon="7.1407">
        <ele>840</ele>
        <time>2019-05-15T09:17:59.063Z</time>
      </trkpt>
      <trkpt lat="48.4472" lon="7.14071">
        <ele>840</ele>
        <time>2019-05-15T09:18:00.063Z</time>
      </trkpt>
      <trkpt lat="48.4472" lon="7.14072">
        <ele>841</ele>
        <time>2019-05-15T09:18:01.063Z</time>
      </trkpt>
      <trkpt lat="48.44719" lon="7.14072">
        <ele>841</ele>
        <time>2019-05-15T09:18:02.063Z</time>
      </trkpt>
      <trkpt lat="48.44718" lon="7.14073">
        <ele>841</ele>
        <time>2019-05-15T09:18:03.063Z</time>
      </trkpt>
      <trkpt lat="48.44718" lon="7.14074">
        <ele>841</ele>
        <time>2019-05-15T09:18:04.063Z</time>
      </trkpt>
      <trkpt lat="48.44717" lon="7.14074">
        <ele>841</ele>
        <time>2019-05-15T09:18:05.063Z</time>
      </trkpt>
      <trkpt lat="48.44717" lon="7.14075">
        <ele>841</ele>
        <time>2019-05-15T09:18:06.063Z</time>
      </trkpt>
      <trkpt lat="48.44716" lon="7.14076">
        <ele>841</ele>
        <time>2019-05-15T09:18:07.063Z</time>
      </trkpt>
      <trkpt lat="48.44715" lon="7.14077">
        <ele>841</ele>
        <time>2019-05-15T09:18:08.063Z</time>
      </trkpt>
      <trkpt lat="48.44715" lon="7.14077">
        <ele>841</ele>
        <time>2019-05-15T09:18:09.063Z</time>
      </trkpt>
      <trkpt lat="48.44714" lon="7.14077">
        <ele>841</ele>
        <time>2019-05-15T09:18:10.063Z</time>
      </trkpt>
      <trkpt lat="48.44714" lon="7.14078">
        <ele>842</ele>
        <time>2019-05-15T09:18:11.063Z</time>
      </trkpt>
      <trkpt lat="48.44714" lon="7.14078">
        <ele>842</ele>
        <time>2019-05-15T09:18:12.063Z</time>
      </trkpt>
      <trkpt lat="48.44713" lon="7.14079">
        <ele>842</ele>
        <time>2019-05-15T09:18:13.063Z</time>
      </trkpt>
      <trkpt lat="48.44713" lon="7.14079">
        <ele>842</ele>
        <time>2019-05-15T09:18:14.063Z</time>
      </trkpt>
      <trkpt lat="48.44712" lon="7.1408">
        <ele>843</ele>
        <time>2019-05-15T09:18:15.063Z</time>
      </trkpt>
      <trkpt lat="48.44712" lon="7.14081">
        <ele>843</ele>
        <time>2019-05-15T09:18:16.063Z</time>
      </trkpt>
      <trkpt lat="48.44711" lon="7.14081">
        <ele>844</ele>
        <time>2019-05-15T09:18:17.063Z</time>
      </trkpt>
      <trkpt lat="48.44711" lon="7.14082">
        <ele>844</ele>
        <time>2019-05-15T09:18:18.063Z</time>
      </trkpt>
      <trkpt lat="48.4471" lon="7.14083">
        <ele>845</ele>
        <time>2019-05-15T09:18:19.063Z</time>
      </trkpt>
      <trkpt lat="48.4471" lon="7.14083">
        <ele>845</ele>
        <time>2019-05-15T09:18:20.063Z</time>
      </trkpt>
      <trkpt lat="48.44709" lon="7.14083">
        <ele>845</ele>
        <time>2019-05-15T09:18:21.063Z</time>
      </trkpt>
      <trkpt lat="48.44709" lon="7.14083">
        <ele>845</ele>
        <time>2019-05-15T09:18:22.063Z</time>
      </trkpt>
      <trkpt lat="48.44709" lon="7.14084">
        <ele>846</ele>
        <time>2019-05-15T09:18:23.063Z</time>
      </trkpt>
      <trkpt lat="48.44708" lon="7.14084">
        <ele>847</ele>
        <time>2019-05-15T09:18:24.063Z</time>
      </trkpt>
      <trkpt lat="48.44708" lon="7.14084">
        <ele>847</ele>
        <time>2019-05-15T09:18:25.063Z</time>
      </trkpt>
      <trkpt lat="48.44707" lon="7.14085">
        <ele>848</ele>
        <time>2019-05-15T09:18:26.063Z</time>
      </trkpt>
      <trkpt lat="48.44707" lon="7.14085">
        <ele>848</ele>
        <time>2019-05-15T09:18:27.063Z</time>
      </trkpt>
      <trkpt lat="48.44706" lon="7.14086">
        <ele>848</ele>
        <time>2019-05-15T09:18:28.063Z</time>
      </trkpt>
      <trkpt lat="48.44705" lon="7.14087">
        <ele>848</ele>
        <time>2019-05-15T09:18:29.063Z</time>
      </trkpt>
      <trkpt lat="48.44705" lon="7.14087">
        <ele>849</ele>
        <time>2019-05-15T09:18:30.063Z</time>
      </trkpt>
      <trkpt lat="48.44704" lon="7.14088">
        <ele>849</ele>
        <time>2019-05-15T09:18:31.063Z</time>
      </trkpt>
      <trkpt lat="48.44704" lon="7.14088">
        <ele>848</ele>
        <time>2019-05-15T09:18:32.063Z</time>
      </trkpt>
      <trkpt lat="48.44703" lon="7.14088">
        <ele>848</ele>
        <time>2019-05-15T09:18:33.063Z</time>
      </trkpt>
      <trkpt lat="48.44702" lon="7.14089">
        <ele>848</ele>
        <time>2019-05-15T09:18:34.063Z</time>
      </trkpt>
      <trkpt lat="48.44701" lon="7.14089">
        <ele>849</ele>
        <time>2019-05-15T09:18:35.063Z</time>
      </trkpt>
      <trkpt lat="48.44701" lon="7.1409">
        <ele>849</ele>
        <time>2019-05-15T09:18:36.063Z</time>
      </trkpt>
      <trkpt lat="48.447" lon="7.1409">
        <ele>849</ele>
        <time>2019-05-15T09:18:37.063Z</time>
      </trkpt>
      <trkpt lat="48.44699" lon="7.1409">
        <ele>850</ele>
        <time>2019-05-15T09:18:38.063Z</time>
      </trkpt>
      <trkpt lat="48.44699" lon="7.1409">
        <ele>850</ele>
        <time>2019-05-15T09:18:39.063Z</time>
      </trkpt>
      <trkpt lat="48.44698" lon="7.14091">
        <ele>849</ele>
        <time>2019-05-15T09:18:40.063Z</time>
      </trkpt>
      <trkpt lat="48.44698" lon="7.14091">
        <ele>850</ele>
        <time>2019-05-15T09:18:41.063Z</time>
      </trkpt>
      <trkpt lat="48.44697" lon="7.14091">
        <ele>850</ele>
        <time>2019-05-15T09:18:42.063Z</time>
      </trkpt>
      <trkpt lat="48.44696" lon="7.14091">
        <ele>850</ele>
        <time>2019-05-15T09:18:43.063Z</time>
      </trkpt>
      <trkpt lat="48.44696" lon="7.14091">
        <ele>850</ele>
        <time>2019-05-15T09:18:44.063Z</time>
      </trkpt>
      <trkpt lat="48.44695" lon="7.14091">
        <ele>850</ele>
        <time>2019-05-15T09:18:45.063Z</time>
      </trkpt>
      <trkpt lat="48.44694" lon="7.14091">
        <ele>849</ele>
        <time>2019-05-15T09:18:46.063Z</time>
      </trkpt>
      <trkpt lat="48.44693" lon="7.14091">
        <ele>849</ele>
        <time>2019-05-15T09:18:47.063Z</time>
      </trkpt>
      <trkpt lat="48.44692" lon="7.14091">
        <ele>849</ele>
        <time>2019-05-15T09:18:48.063Z</time>
      </trkpt>
      <trkpt lat="48.44692" lon="7.14091">
        <ele>849</ele>
        <time>2019-05-15T09:18:49.063Z</time>
      </trkpt>
      <trkpt lat="48.44691" lon="7.14091">
        <ele>849</ele>
        <time>2019-05-15T09:18:50.063Z</time>
      </trkpt>
      <trkpt lat="48.4469" lon="7.14091">
        <ele>849</ele>
        <time>2019-05-15T09:18:51.063Z</time>
      </trkpt>
      <trkpt lat="48.4469" lon="7.14091">
        <ele>849</ele>
        <time>2019-05-15T09:18:52.063Z</time>
      </trkpt>
      <trkpt lat="48.44689" lon="7.14091">
        <ele>849</ele>
        <time>2019-05-15T09:18:53.063Z</time>
      </trkpt>
      <trkpt lat="48.44689" lon="7.14091">
        <ele>848</ele>
        <time>2019-05-15T09:18:54.063Z</time>
      </trkpt>
      <trkpt lat="48.44688" lon="7.14091">
        <ele>848</ele>
        <time>2019-05-15T09:18:55.063Z</time>
      </trkpt>
      <trkpt lat="48.44688" lon="7.14091">
        <ele>849</ele>
        <time>2019-05-15T09:18:56.063Z</time>
      </trkpt>
      <trkpt lat="48.44687" lon="7.14091">
        <ele>849</ele>
        <time>2019-05-15T09:18:57.063Z</time>
      </trkpt>
      <trkpt lat="48.44687" lon="7.14091">
        <ele>849</ele>
        <time>2019-05-15T09:18:58.063Z</time>
      </trkpt>
      <trkpt lat="48.44687" lon="7.14091">
        <ele>849</ele>
        <time>2019-05-15T09:18:59.063Z</time>
      </trkpt>
      <trkpt lat="48.44686" lon="7.14091">
        <ele>849</ele>
        <time>2019-05-15T09:19:00.063Z</time>
      </trkpt>
      <trkpt lat="48.44686" lon="7.14091">
        <ele>849</ele>
        <time>2019-05-15T09:19:01.063Z</time>
      </trkpt>
      <trkpt lat="48.44686" lon="7.1409">
        <ele>849</ele>
        <time>2019-05-15T09:19:02.063Z</time>
      </trkpt>
      <trkpt lat="48.44685" lon="7.1409">
        <ele>848</ele>
        <time>2019-05-15T09:19:03.063Z</time>
      </trkpt>
      <trkpt lat="48.44685" lon="7.14089">
        <ele>848</ele>
        <time>2019-05-15T09:19:04.063Z</time>
      </trkpt>
      <trkpt lat="48.44684" lon="7.14089">
        <ele>848</ele>
        <time>2019-05-15T09:19:05.063Z</time>
      </trkpt>
      <trkpt lat="48.44684" lon="7.14089">
        <ele>848</ele>
        <time>2019-05-15T09:19:06.063Z</time>
      </trkpt>
      <trkpt lat="48.44684" lon="7.14089">
        <ele>849</ele>
        <time>2019-05-15T09:19:07.063Z</time>
      </trkpt>
      <trkpt lat="48.44684" lon="7.14088">
        <ele>849</ele>
        <time>2019-05-15T09:19:08.063Z</time>
      </trkpt>
      <trkpt lat="48.44684" lon="7.14088">
        <ele>849</ele>
        <time>2019-05-15T09:19:09.063Z</time>
      </trkpt>
      <trkpt lat="48.44683" lon="7.14087">
        <ele>849</ele>
        <time>2019-05-15T09:19:10.063Z</time>
      </trkpt>
      <trkpt lat="48.44683" lon="7.14086">
        <ele>849</ele>
        <time>2019-05-15T09:19:11.063Z</time>
      </trkpt>
      <trkpt lat="48.44683" lon="7.14085">
        <ele>849</ele>
        <time>2019-05-15T09:19:12.063Z</time>
      </trkpt>
      <trkpt lat="48.44683" lon="7.14085">
        <ele>848</ele>
        <time>2019-05-15T09:19:13.063Z</time>
      </trkpt>
      <trkpt lat="48.44682" lon="7.14084">
        <ele>848</ele>
        <time>2019-05-15T09:19:14.063Z</time>
      </trkpt>
      <trkpt lat="48.44682" lon="7.14083">
        <ele>848</ele>
        <time>2019-05-15T09:19:15.063Z</time>
      </trkpt>
      <trkpt lat="48.44681" lon="7.14082">
        <ele>848</ele>
        <time>2019-05-15T09:19:16.063Z</time>
      </trkpt>
      <trkpt lat="48.44681" lon="7.14081">
        <ele>848</ele>
        <time>2019-05-15T09:19:17.063Z</time>
      </trkpt>
      <trkpt lat="48.44681" lon="7.1408">
        <ele>848</ele>
        <time>2019-05-15T09:19:18.063Z</time>
      </trkpt>
      <trkpt lat="48.44681" lon="7.14079">
        <ele>848</ele>
        <time>2019-05-15T09:19:19.063Z</time>
      </trkpt>
      <trkpt lat="48.4468" lon="7.14078">
        <ele>848</ele>
        <time>2019-05-15T09:19:20.063Z</time>
      </trkpt>
      <trkpt lat="48.4468" lon="7.14077">
        <ele>848</ele>
        <time>2019-05-15T09:19:21.063Z</time>
      </trkpt>
      <trkpt lat="48.4468" lon="7.14076">
        <ele>848</ele>
        <time>2019-05-15T09:19:22.063Z</time>
      </trkpt>
      <trkpt lat="48.4468" lon="7.14074">
        <ele>848</ele>
        <time>2019-05-15T09:19:23.063Z</time>
      </trkpt>
      <trkpt lat="48.4468" lon="7.14073">
        <ele>849</ele>
        <time>2019-05-15T09:19:24.063Z</time>
      </trkpt>
      <trkpt lat="48.4468" lon="7.14072">
        <ele>849</ele>
        <time>2019-05-15T09:19:25.063Z</time>
      </trkpt>
      <trkpt lat="48.4468" lon="7.14071">
        <ele>849</ele>
        <time>2019-05-15T09:19:26.063Z</time>
      </trkpt>
      <trkpt lat="48.4468" lon="7.1407">
        <ele>849</ele>
        <time>2019-05-15T09:19:27.063Z</time>
      </trkpt>
      <trkpt lat="48.4468" lon="7.14069">
        <ele>849</ele>
        <time>2019-05-15T09:19:28.063Z</time>
      </trkpt>
      <trkpt lat="48.4468" lon="7.14068">
        <ele>849</ele>
        <time>2019-05-15T09:19:29.063Z</time>
      </trkpt>
      <trkpt lat="48.4468" lon="7.14067">
        <ele>849</ele>
        <time>2019-05-15T09:19:30.063Z</time>
      </trkpt>
      <trkpt lat="48.4468" lon="7.14065">
        <ele>849</ele>
        <time>2019-05-15T09:19:31.063Z</time>
      </trkpt>
      <trkpt lat="48.4468" lon="7.14064">
        <ele>849</ele>
        <time>2019-05-15T09:19:32.063Z</time>
      </trkpt>
      <trkpt lat="48.4468" lon="7.14062">
        <ele>849</ele>
        <time>2019-05-15T09:19:33.063Z</time>
      </trkpt>
      <trkpt lat="48.4468" lon="7.14061">
        <ele>849</ele>
        <time>2019-05-15T09:19:34.063Z</time>
      </trkpt>
      <trkpt lat="48.4468" lon="7.14059">
        <ele>849</ele>
        <time>2019-05-15T09:19:35.063Z</time>
      </trkpt>
      <trkpt lat="48.4468" lon="7.14059">
        <ele>849</ele>
        <time>2019-05-15T09:19:36.063Z</time>
      </trkpt>
      <trkpt lat="48.44681" lon="7.14058">
        <ele>848</ele>
        <time>2019-05-15T09:19:37.063Z</time>
      </trkpt>
      <trkpt lat="48.44681" lon="7.14057">
        <ele>848</ele>
        <time>2019-05-15T09:19:38.063Z</time>
      </trkpt>
      <trkpt lat="48.44681" lon="7.14056">
        <ele>849</ele>
        <time>2019-05-15T09:19:39.063Z</time>
      </trkpt>
      <trkpt lat="48.44682" lon="7.14055">
        <ele>849</ele>
        <time>2019-05-15T09:19:40.063Z</time>
      </trkpt>
      <trkpt lat="48.44682" lon="7.14054">
        <ele>849</ele>
        <time>2019-05-15T09:19:41.063Z</time>
      </trkpt>
      <trkpt lat="48.44682" lon="7.14053">
        <ele>849</ele>
        <time>2019-05-15T09:19:42.063Z</time>
      </trkpt>
      <trkpt lat="48.44682" lon="7.14052">
        <ele>849</ele>
        <time>2019-05-15T09:19:43.063Z</time>
      </trkpt>
      <trkpt lat="48.44682" lon="7.1405">
        <ele>848</ele>
        <time>2019-05-15T09:19:44.063Z</time>
      </trkpt>
      <trkpt lat="48.44682" lon="7.14049">
        <ele>848</ele>
        <time>2019-05-15T09:19:45.063Z</time>
      </trkpt>
      <trkpt lat="48.44682" lon="7.14048">
        <ele>848</ele>
        <time>2019-05-15T09:19:46.063Z</time>
      </trkpt>
      <trkpt lat="48.44682" lon="7.14047">
        <ele>848</ele>
        <time>2019-05-15T09:19:47.063Z</time>
      </trkpt>
      <trkpt lat="48.44682" lon="7.14046">
        <ele>848</ele>
        <time>2019-05-15T09:19:48.063Z</time>
      </trkpt>
      <trkpt lat="48.44682" lon="7.14044">
        <ele>847</ele>
        <time>2019-05-15T09:19:49.063Z</time>
      </trkpt>
      <trkpt lat="48.44681" lon="7.14043">
        <ele>847</ele>
        <time>2019-05-15T09:19:50.063Z</time>
      </trkpt>
      <trkpt lat="48.44681" lon="7.14041">
        <ele>848</ele>
        <time>2019-05-15T09:19:51.063Z</time>
      </trkpt>
      <trkpt lat="48.44681" lon="7.14039">
        <ele>847</ele>
        <time>2019-05-15T09:19:52.063Z</time>
      </trkpt>
      <trkpt lat="48.44681" lon="7.14038">
        <ele>847</ele>
        <time>2019-05-15T09:19:53.063Z</time>
      </trkpt>
      <trkpt lat="48.44681" lon="7.14036">
        <ele>847</ele>
        <time>2019-05-15T09:19:54.063Z</time>
      </trkpt>
      <trkpt lat="48.44681" lon="7.14034">
        <ele>847</ele>
        <time>2019-05-15T09:19:55.063Z</time>
      </trkpt>
      <trkpt lat="48.44681" lon="7.14033">
        <ele>847</ele>
        <time>2019-05-15T09:19:56.063Z</time>
      </trkpt>
      <trkpt lat="48.44681" lon="7.14031">
        <ele>847</ele>
        <time>2019-05-15T09:19:57.063Z</time>
      </trkpt>
      <trkpt lat="48.44681" lon="7.1403">
        <ele>847</ele>
        <time>2019-05-15T09:19:58.063Z</time>
      </trkpt>
      <trkpt lat="48.44681" lon="7.14028">
        <ele>847</ele>
        <time>2019-05-15T09:19:59.063Z</time>
      </trkpt>
      <trkpt lat="48.44681" lon="7.14026">
        <ele>847</ele>
        <time>2019-05-15T09:20:00.063Z</time>
      </trkpt>
      <trkpt lat="48.44681" lon="7.14025">
        <ele>847</ele>
        <time>2019-05-15T09:20:01.063Z</time>
      </trkpt>
      <trkpt lat="48.44681" lon="7.14023">
        <ele>848</ele>
        <time>2019-05-15T09:20:02.063Z</time>
      </trkpt>
      <trkpt lat="48.44681" lon="7.14022">
        <ele>848</ele>
        <time>2019-05-15T09:20:03.063Z</time>
      </trkpt>
      <trkpt lat="48.44681" lon="7.1402">
        <ele>848</ele>
        <time>2019-05-15T09:20:04.063Z</time>
      </trkpt>
      <trkpt lat="48.44681" lon="7.14018">
        <ele>848</ele>
        <time>2019-05-15T09:20:05.063Z</time>
      </trkpt>
      <trkpt lat="48.44681" lon="7.14017">
        <ele>848</ele>
        <time>2019-05-15T09:20:06.063Z</time>
      </trkpt>
      <trkpt lat="48.44681" lon="7.14016">
        <ele>848</ele>
        <time>2019-05-15T09:20:07.063Z</time>
      </trkpt>
      <trkpt lat="48.4468" lon="7.14014">
        <ele>848</ele>
        <time>2019-05-15T09:20:08.063Z</time>
      </trkpt>
      <trkpt lat="48.4468" lon="7.14013">
        <ele>849</ele>
        <time>2019-05-15T09:20:09.063Z</time>
      </trkpt>
      <trkpt lat="48.4468" lon="7.14012">
        <ele>849</ele>
        <time>2019-05-15T09:20:10.063Z</time>
      </trkpt>
      <trkpt lat="48.4468" lon="7.1401">
        <ele>849</ele>
        <time>2019-05-15T09:20:11.063Z</time>
      </trkpt>
      <trkpt lat="48.44679" lon="7.14009">
        <ele>849</ele>
        <time>2019-05-15T09:20:12.063Z</time>
      </trkpt>
      <trkpt lat="48.44679" lon="7.14008">
        <ele>849</ele>
        <time>2019-05-15T09:20:13.063Z</time>
      </trkpt>
      <trkpt lat="48.44679" lon="7.14007">
        <ele>849</ele>
        <time>2019-05-15T09:20:14.063Z</time>
      </trkpt>
      <trkpt lat="48.44679" lon="7.14005">
        <ele>849</ele>
        <time>2019-05-15T09:20:15.063Z</time>
      </trkpt>
      <trkpt lat="48.44679" lon="7.14004">
        <ele>849</ele>
        <time>2019-05-15T09:20:16.063Z</time>
      </trkpt>
      <trkpt lat="48.44679" lon="7.14003">
        <ele>849</ele>
        <time>2019-05-15T09:20:17.063Z</time>
      </trkpt>
      <trkpt lat="48.44679" lon="7.14002">
        <ele>849</ele>
        <time>2019-05-15T09:20:18.063Z</time>
      </trkpt>
      <trkpt lat="48.44679" lon="7.14">
        <ele>848</ele>
        <time>2019-05-15T09:20:19.063Z</time>
      </trkpt>
      <trkpt lat="48.44679" lon="7.13999">
        <ele>848</ele>
        <time>2019-05-15T09:20:20.063Z</time>
      </trkpt>
      <trkpt lat="48.44679" lon="7.13998">
        <ele>848</ele>
        <time>2019-05-15T09:20:21.063Z</time>
      </trkpt>
      <trkpt lat="48.44679" lon="7.13997">
        <ele>848</ele>
        <time>2019-05-15T09:20:22.063Z</time>
      </trkpt>
      <trkpt lat="48.44679" lon="7.13996">
        <ele>848</ele>
        <time>2019-05-15T09:20:23.063Z</time>
      </trkpt>
      <trkpt lat="48.44679" lon="7.13995">
        <ele>848</ele>
        <time>2019-05-15T09:20:24.063Z</time>
      </trkpt>
      <trkpt lat="48.44679" lon="7.13993">
        <ele>848</ele>
        <time>2019-05-15T09:20:25.063Z</time>
      </trkpt>
      <trkpt lat="48.44679" lon="7.13993">
        <ele>848</ele>
        <time>2019-05-15T09:20:26.063Z</time>
      </trkpt>
      <trkpt lat="48.44679" lon="7.13992">
        <ele>848</ele>
        <time>2019-05-15T09:20:27.063Z</time>
      </trkpt>
      <trkpt lat="48.44679" lon="7.13992">
        <ele>849</ele>
        <time>2019-05-15T09:20:28.063Z</time>
      </trkpt>
      <trkpt lat="48.44679" lon="7.13991">
        <ele>849</ele>
        <time>2019-05-15T09:20:29.063Z</time>
      </trkpt>
      <trkpt lat="48.44679" lon="7.1399">
        <ele>848</ele>
        <time>2019-05-15T09:20:30.063Z</time>
      </trkpt>
      <trkpt lat="48.44679" lon="7.1399">
        <ele>848</ele>
        <time>2019-05-15T09:20:31.063Z</time>
      </trkpt>
      <trkpt lat="48.44679" lon="7.13988">
        <ele>848</ele>
        <time>2019-05-15T09:20:32.063Z</time>
      </trkpt>
      <trkpt lat="48.4468" lon="7.13987">
        <ele>848</ele>
        <time>2019-05-15T09:20:33.063Z</time>
      </trkpt>
      <trkpt lat="48.4468" lon="7.13986">
        <ele>848</ele>
        <time>2019-05-15T09:20:34.063Z</time>
      </trkpt>
      <trkpt lat="48.4468" lon="7.13985">
        <ele>848</ele>
        <time>2019-05-15T09:20:35.063Z</time>
      </trkpt>
      <trkpt lat="48.4468" lon="7.13984">
        <ele>848</ele>
        <time>2019-05-15T09:20:36.063Z</time>
      </trkpt>
      <trkpt lat="48.4468" lon="7.13982">
        <ele>848</ele>
        <time>2019-05-15T09:20:37.063Z</time>
      </trkpt>
      <trkpt lat="48.4468" lon="7.13981">
        <ele>848</ele>
        <time>2019-05-15T09:20:38.063Z</time>
      </trkpt>
      <trkpt lat="48.44681" lon="7.13979">
        <ele>847</ele>
        <time>2019-05-15T09:20:39.063Z</time>
      </trkpt>
      <trkpt lat="48.44681" lon="7.13977">
        <ele>847</ele>
        <time>2019-05-15T09:20:40.063Z</time>
      </trkpt>
      <trkpt lat="48.44681" lon="7.13975">
        <ele>847</ele>
        <time>2019-05-15T09:20:41.063Z</time>
      </trkpt>
      <trkpt lat="48.44681" lon="7.13974">
        <ele>847</ele>
        <time>2019-05-15T09:20:42.063Z</time>
      </trkpt>
      <trkpt lat="48.44681" lon="7.13972">
        <ele>847</ele>
        <time>2019-05-15T09:20:43.063Z</time>
      </trkpt>
      <trkpt lat="48.44681" lon="7.13971">
        <ele>847</ele>
        <time>2019-05-15T09:20:44.063Z</time>
      </trkpt>
      <trkpt lat="48.4468" lon="7.13969">
        <ele>848</ele>
        <time>2019-05-15T09:20:45.063Z</time>
      </trkpt>
      <trkpt lat="48.4468" lon="7.13968">
        <ele>848</ele>
        <time>2019-05-15T09:20:46.063Z</time>
      </trkpt>
      <trkpt lat="48.4468" lon="7.13966">
        <ele>847</ele>
        <time>2019-05-15T09:20:47.063Z</time>
      </trkpt>
      <trkpt lat="48.4468" lon="7.13965">
        <ele>847</ele>
        <time>2019-05-15T09:20:48.063Z</time>
      </trkpt>
      <trkpt lat="48.4468" lon="7.13963">
        <ele>847</ele>
        <time>2019-05-15T09:20:49.063Z</time>
      </trkpt>
      <trkpt lat="48.4468" lon="7.13962">
        <ele>848</ele>
        <time>2019-05-15T09:20:50.063Z</time>
      </trkpt>
      <trkpt lat="48.4468" lon="7.1396">
        <ele>848</ele>
        <time>2019-05-15T09:20:51.063Z</time>
      </trkpt>
      <trkpt lat="48.4468" lon="7.13959">
        <ele>849</ele>
        <time>2019-05-15T09:20:52.063Z</time>
      </trkpt>
      <trkpt lat="48.4468" lon="7.13957">
        <ele>848</ele>
        <time>2019-05-15T09:20:53.063Z</time>
      </trkpt>
      <trkpt lat="48.4468" lon="7.13956">
        <ele>848</ele>
        <time>2019-05-15T09:20:54.063Z</time>
      </trkpt>
      <trkpt lat="48.4468" lon="7.13955">
        <ele>848</ele>
        <time>2019-05-15T09:20:55.063Z</time>
      </trkpt>
      <trkpt lat="48.4468" lon="7.13953">
        <ele>848</ele>
        <time>2019-05-15T09:20:56.063Z</time>
      </trkpt>
      <trkpt lat="48.44679" lon="7.13952">
        <ele>849</ele>
        <time>2019-05-15T09:20:57.063Z</time>
      </trkpt>
      <trkpt lat="48.44679" lon="7.13951">
        <ele>849</ele>
        <time>2019-05-15T09:20:58.063Z</time>
      </trkpt>
      <trkpt lat="48.44679" lon="7.1395">
        <ele>849</ele>
        <time>2019-05-15T09:20:59.063Z</time>
      </trkpt>
      <trkpt lat="48.44679" lon="7.13949">
        <ele>849</ele>
        <time>2019-05-15T09:21:00.063Z</time>
      </trkpt>
      <trkpt lat="48.44678" lon="7.13948">
        <ele>849</ele>
        <time>2019-05-15T09:21:01.063Z</time>
      </trkpt>
      <trkpt lat="48.44678" lon="7.13947">
        <ele>849</ele>
        <time>2019-05-15T09:21:02.063Z</time>
      </trkpt>
      <trkpt lat="48.44678" lon="7.13946">
        <ele>849</ele>
        <time>2019-05-15T09:21:03.063Z</time>
      </trkpt>
      <trkpt lat="48.44678" lon="7.13946">
        <ele>849</ele>
        <time>2019-05-15T09:21:04.063Z</time>
      </trkpt>
      <trkpt lat="48.44678" lon="7.13945">
        <ele>849</ele>
        <time>2019-05-15T09:21:05.063Z</time>
      </trkpt>
      <trkpt lat="48.44678" lon="7.13944">
        <ele>849</ele>
        <time>2019-05-15T09:21:06.063Z</time>
      </trkpt>
      <trkpt lat="48.44678" lon="7.13944">
        <ele>849</ele>
        <time>2019-05-15T09:21:07.063Z</time>
      </trkpt>
      <trkpt lat="48.44678" lon="7.13943">
        <ele>850</ele>
        <time>2019-05-15T09:21:08.063Z</time>
      </trkpt>
      <trkpt lat="48.44678" lon="7.13942">
        <ele>850</ele>
        <time>2019-05-15T09:21:09.063Z</time>
      </trkpt>
      <trkpt lat="48.44678" lon="7.13941">
        <ele>850</ele>
        <time>2019-05-15T09:21:10.063Z</time>
      </trkpt>
      <trkpt lat="48.44678" lon="7.1394">
        <ele>849</ele>
        <time>2019-05-15T09:21:11.063Z</time>
      </trkpt>
      <trkpt lat="48.44678" lon="7.13939">
        <ele>849</ele>
        <time>2019-05-15T09:21:12.063Z</time>
      </trkpt>
      <trkpt lat="48.44678" lon="7.13938">
        <ele>849</ele>
        <time>2019-05-15T09:21:13.063Z</time>
      </trkpt>
      <trkpt lat="48.44678" lon="7.13937">
        <ele>849</ele>
        <time>2019-05-15T09:21:14.063Z</time>
      </trkpt>
      <trkpt lat="48.44677" lon="7.13936">
        <ele>849</ele>
        <time>2019-05-15T09:21:15.063Z</time>
      </trkpt>
      <trkpt lat="48.44677" lon="7.13934">
        <ele>849</ele>
        <time>2019-05-15T09:21:16.063Z</time>
      </trkpt>
      <trkpt lat="48.44677" lon="7.13933">
        <ele>849</ele>
        <time>2019-05-15T09:21:17.063Z</time>
      </trkpt>
      <trkpt lat="48.44677" lon="7.13932">
        <ele>849</ele>
        <time>2019-05-15T09:21:18.063Z</time>
      </trkpt>
      <trkpt lat="48.44677" lon="7.13931">
        <ele>849</ele>
        <time>2019-05-15T09:21:19.063Z</time>
      </trkpt>
      <trkpt lat="48.44677" lon="7.1393">
        <ele>849</ele>
        <time>2019-05-15T09:21:20.063Z</time>
      </trkpt>
      <trkpt lat="48.44676" lon="7.13929">
        <ele>849</ele>
        <time>2019-05-15T09:21:21.063Z</time>
      </trkpt>
      <trkpt lat="48.44676" lon="7.13928">
        <ele>848</ele>
        <time>2019-05-15T09:21:22.063Z</time>
      </trkpt>
      <trkpt lat="48.44676" lon="7.13927">
        <ele>848</ele>
        <time>2019-05-15T09:21:23.063Z</time>
      </trkpt>
      <trkpt lat="48.44676" lon="7.13926">
        <ele>848</ele>
        <time>2019-05-15T09:21:24.063Z</time>
      </trkpt>
      <trkpt lat="48.44676" lon="7.13925">
        <ele>848</ele>
        <time>2019-05-15T09:21:25.063Z</time>
      </trkpt>
      <trkpt lat="48.44676" lon="7.13924">
        <ele>849</ele>
        <time>2019-05-15T09:21:26.063Z</time>
      </trkpt>
      <trkpt lat="48.44676" lon="7.13923">
        <ele>849</ele>
        <time>2019-05-15T09:21:27.063Z</time>
      </trkpt>
      <trkpt lat="48.44676" lon="7.13922">
        <ele>848</ele>
        <time>2019-05-15T09:21:28.063Z</time>
      </trkpt>
      <trkpt lat="48.44676" lon="7.13921">
        <ele>848</ele>
        <time>2019-05-15T09:21:29.063Z</time>
      </trkpt>
      <trkpt lat="48.44676" lon="7.13919">
        <ele>848</ele>
        <time>2019-05-15T09:21:30.063Z</time>
      </trkpt>
      <trkpt lat="48.44676" lon="7.13918">
        <ele>848</ele>
        <time>2019-05-15T09:21:31.063Z</time>
      </trkpt>
      <trkpt lat="48.44676" lon="7.13917">
        <ele>848</ele>
        <time>2019-05-15T09:21:32.063Z</time>
      </trkpt>
      <trkpt lat="48.44676" lon="7.13915">
        <ele>848</ele>
        <time>2019-05-15T09:21:33.063Z</time>
      </trkpt>
      <trkpt lat="48.44676" lon="7.13914">
        <ele>847</ele>
        <time>2019-05-15T09:21:34.063Z</time>
      </trkpt>
      <trkpt lat="48.44676" lon="7.13912">
        <ele>848</ele>
        <time>2019-05-15T09:21:35.063Z</time>
      </trkpt>
      <trkpt lat="48.44676" lon="7.13911">
        <ele>848</ele>
        <time>2019-05-15T09:21:36.063Z</time>
      </trkpt>
      <trkpt lat="48.44675" lon="7.13909">
        <ele>848</ele>
        <time>2019-05-15T09:21:37.063Z</time>
      </trkpt>
      <trkpt lat="48.44675" lon="7.13908">
        <ele>848</ele>
        <time>2019-05-15T09:21:38.063Z</time>
      </trkpt>
      <trkpt lat="48.44675" lon="7.13907">
        <ele>848</ele>
        <time>2019-05-15T09:21:39.063Z</time>
      </trkpt>
      <trkpt lat="48.44675" lon="7.13905">
        <ele>848</ele>
        <time>2019-05-15T09:21:40.063Z</time>
      </trkpt>
      <trkpt lat="48.44675" lon="7.13904">
        <ele>848</ele>
        <time>2019-05-15T09:21:41.063Z</time>
      </trkpt>
      <trkpt lat="48.44675" lon="7.13902">
        <ele>848</ele>
        <time>2019-05-15T09:21:42.063Z</time>
      </trkpt>
      <trkpt lat="48.44675" lon="7.139">
        <ele>847</ele>
        <time>2019-05-15T09:21:43.063Z</time>
      </trkpt>
      <trkpt lat="48.44675" lon="7.13899">
        <ele>847</ele>
        <time>2019-05-15T09:21:44.063Z</time>
      </trkpt>
      <trkpt lat="48.44675" lon="7.13898">
        <ele>847</ele>
        <time>2019-05-15T09:21:45.063Z</time>
      </trkpt>
      <trkpt lat="48.44674" lon="7.13896">
        <ele>847</ele>
        <time>2019-05-15T09:21:46.063Z</time>
      </trkpt>
      <trkpt lat="48.44674" lon="7.13895">
        <ele>846</ele>
        <time>2019-05-15T09:21:47.063Z</time>
      </trkpt>
      <trkpt lat="48.44674" lon="7.13894">
        <ele>846</ele>
        <time>2019-05-15T09:21:48.063Z</time>
      </trkpt>
      <trkpt lat="48.44674" lon="7.13893">
        <ele>846</ele>
        <time>2019-05-15T09:21:49.063Z</time>
      </trkpt>
      <trkpt lat="48.44673" lon="7.13892">
        <ele>846</ele>
        <time>2019-05-15T09:21:50.063Z</time>
      </trkpt>
      <trkpt lat="48.44673" lon="7.1389">
        <ele>846</ele>
        <time>2019-05-15T09:21:51.063Z</time>
      </trkpt>
      <trkpt lat="48.44673" lon="7.13889">
        <ele>846</ele>
        <time>2019-05-15T09:21:52.063Z</time>
      </trkpt>
      <trkpt lat="48.44673" lon="7.13888">
        <ele>846</ele>
        <time>2019-05-15T09:21:53.063Z</time>
      </trkpt>
      <trkpt lat="48.44672" lon="7.13886">
        <ele>846</ele>
        <time>2019-05-15T09:21:54.063Z</time>
      </trkpt>
      <trkpt lat="48.44672" lon="7.13885">
        <ele>846</ele>
        <time>2019-05-15T09:21:55.063Z</time>
      </trkpt>
      <trkpt lat="48.44672" lon="7.13883">
        <ele>846</ele>
        <time>2019-05-15T09:21:56.063Z</time>
      </trkpt>
      <trkpt lat="48.44672" lon="7.13882">
        <ele>847</ele>
        <time>2019-05-15T09:21:57.063Z</time>
      </trkpt>
      <trkpt lat="48.44671" lon="7.1388">
        <ele>847</ele>
        <time>2019-05-15T09:21:58.063Z</time>
      </trkpt>
      <trkpt lat="48.44671" lon="7.13879">
        <ele>847</ele>
        <time>2019-05-15T09:21:59.063Z</time>
      </trkpt>
      <trkpt lat="48.44671" lon="7.13878">
        <ele>847</ele>
        <time>2019-05-15T09:22:00.063Z</time>
      </trkpt>
      <trkpt lat="48.4467" lon="7.13877">
        <ele>847</ele>
        <time>2019-05-15T09:22:01.063Z</time>
      </trkpt>
      <trkpt lat="48.4467" lon="7.13875">
        <ele>847</ele>
        <time>2019-05-15T09:22:02.063Z</time>
      </trkpt>
      <trkpt lat="48.44669" lon="7.13874">
        <ele>847</ele>
        <time>2019-05-15T09:22:03.063Z</time>
      </trkpt>
      <trkpt lat="48.44669" lon="7.13873">
        <ele>847</ele>
        <time>2019-05-15T09:22:04.063Z</time>
      </trkpt>
      <trkpt lat="48.44668" lon="7.13871">
        <ele>847</ele>
        <time>2019-05-15T09:22:05.063Z</time>
      </trkpt>
      <trkpt lat="48.44668" lon="7.13869">
        <ele>847</ele>
        <time>2019-05-15T09:22:06.063Z</time>
      </trkpt>
      <trkpt lat="48.44668" lon="7.13868">
        <ele>847</ele>
        <time>2019-05-15T09:22:07.063Z</time>
      </trkpt>
      <trkpt lat="48.44668" lon="7.13866">
        <ele>847</ele>
        <time>2019-05-15T09:22:08.063Z</time>
      </trkpt>
      <trkpt lat="48.44667" lon="7.13865">
        <ele>847</ele>
        <time>2019-05-15T09:22:09.063Z</time>
      </trkpt>
      <trkpt lat="48.44667" lon="7.13863">
        <ele>848</ele>
        <time>2019-05-15T09:22:10.063Z</time>
      </trkpt>
      <trkpt lat="48.44666" lon="7.13862">
        <ele>848</ele>
        <time>2019-05-15T09:22:11.063Z</time>
      </trkpt>
      <trkpt lat="48.44666" lon="7.1386">
        <ele>848</ele>
        <time>2019-05-15T09:22:12.063Z</time>
      </trkpt>
      <trkpt lat="48.44665" lon="7.13859">
        <ele>848</ele>
        <time>2019-05-15T09:22:13.063Z</time>
      </trkpt>
      <trkpt lat="48.44665" lon="7.13857">
        <ele>848</ele>
        <time>2019-05-15T09:22:14.063Z</time>
      </trkpt>
      <trkpt lat="48.44664" lon="7.13855">
        <ele>848</ele>
        <time>2019-05-15T09:22:15.063Z</time>
      </trkpt>
      <trkpt lat="48.44664" lon="7.13853">
        <ele>848</ele>
        <time>2019-05-15T09:22:16.063Z</time>
      </trkpt>
      <trkpt lat="48.44663" lon="7.13851">
        <ele>848</ele>
        <time>2019-05-15T09:22:17.063Z</time>
      </trkpt>
      <trkpt lat="48.44663" lon="7.1385">
        <ele>847</ele>
        <time>2019-05-15T09:22:18.063Z</time>
      </trkpt>
      <trkpt lat="48.44663" lon="7.13848">
        <ele>847</ele>
        <time>2019-05-15T09:22:19.063Z</time>
      </trkpt>
      <trkpt lat="48.44662" lon="7.13846">
        <ele>847</ele>
        <time>2019-05-15T09:22:20.063Z</time>
      </trkpt>
      <trkpt lat="48.44662" lon="7.13845">
        <ele>847</ele>
        <time>2019-05-15T09:22:21.063Z</time>
      </trkpt>
      <trkpt lat="48.44661" lon="7.13843">
        <ele>847</ele>
        <time>2019-05-15T09:22:22.063Z</time>
      </trkpt>
      <trkpt lat="48.44661" lon="7.13842">
        <ele>847</ele>
        <time>2019-05-15T09:22:23.063Z</time>
      </trkpt>
      <trkpt lat="48.4466" lon="7.1384">
        <ele>847</ele>
        <time>2019-05-15T09:22:24.063Z</time>
      </trkpt>
      <trkpt lat="48.4466" lon="7.13839">
        <ele>847</ele>
        <time>2019-05-15T09:22:25.063Z</time>
      </trkpt>
      <trkpt lat="48.44659" lon="7.13838">
        <ele>848</ele>
        <time>2019-05-15T09:22:26.063Z</time>
      </trkpt>
      <trkpt lat="48.44659" lon="7.13837">
        <ele>849</ele>
        <time>2019-05-15T09:22:27.063Z</time>
      </trkpt>
      <trkpt lat="48.44659" lon="7.13835">
        <ele>849</ele>
        <time>2019-05-15T09:22:28.063Z</time>
      </trkpt>
      <trkpt lat="48.44658" lon="7.13833">
        <ele>849</ele>
        <time>2019-05-15T09:22:29.063Z</time>
      </trkpt>
      <trkpt lat="48.44658" lon="7.13832">
        <ele>849</ele>
        <time>2019-05-15T09:22:30.063Z</time>
      </trkpt>
      <trkpt lat="48.44658" lon="7.13831">
        <ele>850</ele>
        <time>2019-05-15T09:22:31.063Z</time>
      </trkpt>
      <trkpt lat="48.44657" lon="7.1383">
        <ele>850</ele>
        <time>2019-05-15T09:22:32.063Z</time>
      </trkpt>
      <trkpt lat="48.44657" lon="7.13829">
        <ele>851</ele>
        <time>2019-05-15T09:22:33.063Z</time>
      </trkpt>
      <trkpt lat="48.44656" lon="7.13828">
        <ele>851</ele>
        <time>2019-05-15T09:22:34.063Z</time>
      </trkpt>
      <trkpt lat="48.44655" lon="7.13827">
        <ele>851</ele>
        <time>2019-05-15T09:22:35.063Z</time>
      </trkpt>
      <trkpt lat="48.44655" lon="7.13826">
        <ele>852</ele>
        <time>2019-05-15T09:22:36.063Z</time>
      </trkpt>
      <trkpt lat="48.44654" lon="7.13825">
        <ele>852</ele>
        <time>2019-05-15T09:22:37.063Z</time>
      </trkpt>
      <trkpt lat="48.44654" lon="7.13824">
        <ele>852</ele>
        <time>2019-05-15T09:22:38.063Z</time>
      </trkpt>
      <trkpt lat="48.44653" lon="7.13823">
        <ele>852</ele>
        <time>2019-05-15T09:22:39.063Z</time>
      </trkpt>
      <trkpt lat="48.44653" lon="7.13822">
        <ele>852</ele>
        <time>2019-05-15T09:22:40.063Z</time>
      </trkpt>
      <trkpt lat="48.44652" lon="7.1382">
        <ele>853</ele>
        <time>2019-05-15T09:22:41.063Z</time>
      </trkpt>
      <trkpt lat="48.44651" lon="7.13819">
        <ele>852</ele>
        <time>2019-05-15T09:22:42.063Z</time>
      </trkpt>
      <trkpt lat="48.44651" lon="7.13818">
        <ele>852</ele>
        <time>2019-05-15T09:22:43.063Z</time>
      </trkpt>
      <trkpt lat="48.4465" lon="7.13816">
        <ele>852</ele>
        <time>2019-05-15T09:22:44.063Z</time>
      </trkpt>
      <trkpt lat="48.4465" lon="7.13815">
        <ele>853</ele>
        <time>2019-05-15T09:22:45.063Z</time>
      </trkpt>
      <trkpt lat="48.44649" lon="7.13814">
        <ele>853</ele>
        <time>2019-05-15T09:22:46.063Z</time>
      </trkpt>
      <trkpt lat="48.44649" lon="7.13813">
        <ele>852</ele>
        <time>2019-05-15T09:22:47.063Z</time>
      </trkpt>
      <trkpt lat="48.44648" lon="7.13812">
        <ele>853</ele>
        <time>2019-05-15T09:22:48.063Z</time>
      </trkpt>
      <trkpt lat="48.44648" lon="7.13811">
        <ele>852</ele>
        <time>2019-05-15T09:22:49.063Z</time>
      </trkpt>
      <trkpt lat="48.44647" lon="7.1381">
        <ele>852</ele>
        <time>2019-05-15T09:22:50.063Z</time>
      </trkpt>
      <trkpt lat="48.44647" lon="7.13809">
        <ele>852</ele>
        <time>2019-05-15T09:22:51.063Z</time>
      </trkpt>
      <trkpt lat="48.44647" lon="7.13809">
        <ele>852</ele>
        <time>2019-05-15T09:22:52.063Z</time>
      </trkpt>
      <trkpt lat="48.44646" lon="7.13808">
        <ele>852</ele>
        <time>2019-05-15T09:22:53.063Z</time>
      </trkpt>
      <trkpt lat="48.44646" lon="7.13806">
        <ele>852</ele>
        <time>2019-05-15T09:22:54.063Z</time>
      </trkpt>
      <trkpt lat="48.44646" lon="7.13805">
        <ele>852</ele>
        <time>2019-05-15T09:22:55.063Z</time>
      </trkpt>
      <trkpt lat="48.44646" lon="7.13804">
        <ele>852</ele>
        <time>2019-05-15T09:22:56.063Z</time>
      </trkpt>
      <trkpt lat="48.44646" lon="7.13803">
        <ele>852</ele>
        <time>2019-05-15T09:22:57.063Z</time>
      </trkpt>
      <trkpt lat="48.44646" lon="7.13803">
        <ele>852</ele>
        <time>2019-05-15T09:22:58.063Z</time>
      </trkpt>
      <trkpt lat="48.44646" lon="7.13802">
        <ele>853</ele>
        <time>2019-05-15T09:22:59.063Z</time>
      </trkpt>
      <trkpt lat="48.44646" lon="7.13802">
        <ele>853</ele>
        <time>2019-05-15T09:23:00.063Z</time>
      </trkpt>
      <trkpt lat="48.44646" lon="7.13802">
        <ele>852</ele>
        <time>2019-05-15T09:23:01.063Z</time>
      </trkpt>
      <trkpt lat="48.44646" lon="7.13801">
        <ele>852</ele>
        <time>2019-05-15T09:23:02.063Z</time>
      </trkpt>
      <trkpt lat="48.44646" lon="7.138">
        <ele>851</ele>
        <time>2019-05-15T09:23:03.063Z</time>
      </trkpt>
      <trkpt lat="48.44645" lon="7.138">
        <ele>851</ele>
        <time>2019-05-15T09:23:04.063Z</time>
      </trkpt>
      <trkpt lat="48.44645" lon="7.13799">
        <ele>851</ele>
        <time>2019-05-15T09:23:05.063Z</time>
      </trkpt>
      <trkpt lat="48.44645" lon="7.13798">
        <ele>851</ele>
        <time>2019-05-15T09:23:06.063Z</time>
      </trkpt>
      <trkpt lat="48.44645" lon="7.13797">
        <ele>851</ele>
        <time>2019-05-15T09:23:07.063Z</time>
      </trkpt>
      <trkpt lat="48.44645" lon="7.13796">
        <ele>852</ele>
        <time>2019-05-15T09:23:08.063Z</time>
      </trkpt>
      <trkpt lat="48.44644" lon="7.13796">
        <ele>852</ele>
        <time>2019-05-15T09:23:09.063Z</time>
      </trkpt>
      <trkpt lat="48.44644" lon="7.13795">
        <ele>853</ele>
        <time>2019-05-15T09:23:10.063Z</time>
      </trkpt>
      <trkpt lat="48.44644" lon="7.13794">
        <ele>853</ele>
        <time>2019-05-15T09:23:11.063Z</time>
      </trkpt>
      <trkpt lat="48.44644" lon="7.13793">
        <ele>853</ele>
        <time>2019-05-15T09:23:12.063Z</time>
      </trkpt>
      <trkpt lat="48.44643" lon="7.13792">
        <ele>853</ele>
        <time>2019-05-15T09:23:13.063Z</time>
      </trkpt>
      <trkpt lat="48.44643" lon="7.13791">
        <ele>853</ele>
        <time>2019-05-15T09:23:14.063Z</time>
      </trkpt>
      <trkpt lat="48.44642" lon="7.1379">
        <ele>853</ele>
        <time>2019-05-15T09:23:15.063Z</time>
      </trkpt>
      <trkpt lat="48.44642" lon="7.13789">
        <ele>852</ele>
        <time>2019-05-15T09:23:16.063Z</time>
      </trkpt>
      <trkpt lat="48.44642" lon="7.13787">
        <ele>852</ele>
        <time>2019-05-15T09:23:17.063Z</time>
      </trkpt>
      <trkpt lat="48.44641" lon="7.13786">
        <ele>852</ele>
        <time>2019-05-15T09:23:18.063Z</time>
      </trkpt>
      <trkpt lat="48.44641" lon="7.13784">
        <ele>852</ele>
        <time>2019-05-15T09:23:19.063Z</time>
      </trkpt>
      <trkpt lat="48.44641" lon="7.13783">
        <ele>852</ele>
        <time>2019-05-15T09:23:20.063Z</time>
      </trkpt>
      <trkpt lat="48.4464" lon="7.13781">
        <ele>852</ele>
        <time>2019-05-15T09:23:21.063Z</time>
      </trkpt>
      <trkpt lat="48.4464" lon="7.1378">
        <ele>852</ele>
        <time>2019-05-15T09:23:22.063Z</time>
      </trkpt>
      <trkpt lat="48.4464" lon="7.13778">
        <ele>852</ele>
        <time>2019-05-15T09:23:23.063Z</time>
      </trkpt>
      <trkpt lat="48.44639" lon="7.13777">
        <ele>852</ele>
        <time>2019-05-15T09:23:24.063Z</time>
      </trkpt>
      <trkpt lat="48.44639" lon="7.13776">
        <ele>852</ele>
        <time>2019-05-15T09:23:25.063Z</time>
      </trkpt>
      <trkpt lat="48.44639" lon="7.13775">
        <ele>851</ele>
        <time>2019-05-15T09:23:26.063Z</time>
      </trkpt>
      <trkpt lat="48.44638" lon="7.13773">
        <ele>852</ele>
        <time>2019-05-15T09:23:27.063Z</time>
      </trkpt>
      <trkpt lat="48.44638" lon="7.13771">
        <ele>852</ele>
        <time>2019-05-15T09:23:28.063Z</time>
      </trkpt>
      <trkpt lat="48.44637" lon="7.13769">
        <ele>851</ele>
        <time>2019-05-15T09:23:29.063Z</time>
      </trkpt>
      <trkpt lat="48.44637" lon="7.13768">
        <ele>851</ele>
        <time>2019-05-15T09:23:30.063Z</time>
      </trkpt>
      <trkpt lat="48.44636" lon="7.13766">
        <ele>852</ele>
        <time>2019-05-15T09:23:31.063Z</time>
      </trkpt>
      <trkpt lat="48.44635" lon="7.13764">
        <ele>852</ele>
        <time>2019-05-15T09:23:32.063Z</time>
      </trkpt>
      <trkpt lat="48.44635" lon="7.13763">
        <ele>851</ele>
        <time>2019-05-15T09:23:33.063Z</time>
      </trkpt>
      <trkpt lat="48.44634" lon="7.13762">
        <ele>851</ele>
        <time>2019-05-15T09:23:34.063Z</time>
      </trkpt>
      <trkpt lat="48.44633" lon="7.13762">
        <ele>851</ele>
        <time>2019-05-15T09:23:35.063Z</time>
      </trkpt>
      <trkpt lat="48.44633" lon="7.13761">
        <ele>851</ele>
        <time>2019-05-15T09:23:36.063Z</time>
      </trkpt>
      <trkpt lat="48.44632" lon="7.13761">
        <ele>851</ele>
        <time>2019-05-15T09:23:37.063Z</time>
      </trkpt>
      <trkpt lat="48.44631" lon="7.1376">
        <ele>851</ele>
        <time>2019-05-15T09:23:38.063Z</time>
      </trkpt>
      <trkpt lat="48.44631" lon="7.1376">
        <ele>851</ele>
        <time>2019-05-15T09:23:39.063Z</time>
      </trkpt>
      <trkpt lat="48.4463" lon="7.1376">
        <ele>851</ele>
        <time>2019-05-15T09:23:40.063Z</time>
      </trkpt>
      <trkpt lat="48.44629" lon="7.1376">
        <ele>851</ele>
        <time>2019-05-15T09:23:41.063Z</time>
      </trkpt>
      <trkpt lat="48.44629" lon="7.1376">
        <ele>851</ele>
        <time>2019-05-15T09:23:42.063Z</time>
      </trkpt>
      <trkpt lat="48.44629" lon="7.13759">
        <ele>851</ele>
        <time>2019-05-15T09:23:43.063Z</time>
      </trkpt>
      <trkpt lat="48.44628" lon="7.13759">
        <ele>851</ele>
        <time>2019-05-15T09:23:44.063Z</time>
      </trkpt>
      <trkpt lat="48.44628" lon="7.13759">
        <ele>851</ele>
        <time>2019-05-15T09:23:45.063Z</time>
      </trkpt>
      <trkpt lat="48.44627" lon="7.13759">
        <ele>851</ele>
        <time>2019-05-15T09:23:46.063Z</time>
      </trkpt>
      <trkpt lat="48.44627" lon="7.13759">
        <ele>851</ele>
        <time>2019-05-15T09:23:47.063Z</time>
      </trkpt>
      <trkpt lat="48.44627" lon="7.13759">
        <ele>850</ele>
        <time>2019-05-15T09:23:48.063Z</time>
      </trkpt>
      <trkpt lat="48.44627" lon="7.13759">
        <ele>850</ele>
        <time>2019-05-15T09:23:49.063Z</time>
      </trkpt>
      <trkpt lat="48.44626" lon="7.13759">
        <ele>850</ele>
        <time>2019-05-15T09:23:50.063Z</time>
      </trkpt>
      <trkpt lat="48.44626" lon="7.13759">
        <ele>850</ele>
        <time>2019-05-15T09:23:51.063Z</time>
      </trkpt>
      <trkpt lat="48.44626" lon="7.13759">
        <ele>850</ele>
        <time>2019-05-15T09:23:52.063Z</time>
      </trkpt>
      <trkpt lat="48.44625" lon="7.13759">
        <ele>850</ele>
        <time>2019-05-15T09:23:53.063Z</time>
      </trkpt>
      <trkpt lat="48.44625" lon="7.13759">
        <ele>850</ele>
        <time>2019-05-15T09:23:54.063Z</time>
      </trkpt>
      <trkpt lat="48.44624" lon="7.13758">
        <ele>849</ele>
        <time>2019-05-15T09:23:55.063Z</time>
      </trkpt>
      <trkpt lat="48.44624" lon="7.13758">
        <ele>849</ele>
        <time>2019-05-15T09:23:56.063Z</time>
      </trkpt>
      <trkpt lat="48.44624" lon="7.13758">
        <ele>849</ele>
        <time>2019-05-15T09:23:57.063Z</time>
      </trkpt>
      <trkpt lat="48.44624" lon="7.13757">
        <ele>848</ele>
        <time>2019-05-15T09:23:58.063Z</time>
      </trkpt>
      <trkpt lat="48.44624" lon="7.13755">
        <ele>847</ele>
        <time>2019-05-15T09:23:59.063Z</time>
      </trkpt>
      <trkpt lat="48.44624" lon="7.13754">
        <ele>847</ele>
        <time>2019-05-15T09:24:00.063Z</time>
      </trkpt>
      <trkpt lat="48.44625" lon="7.13753">
        <ele>848</ele>
        <time>2019-05-15T09:24:01.063Z</time>
      </trkpt>
      <trkpt lat="48.44625" lon="7.13752">
        <ele>848</ele>
        <time>2019-05-15T09:24:02.063Z</time>
      </trkpt>
      <trkpt lat="48.44625" lon="7.13751">
        <ele>847</ele>
        <time>2019-05-15T09:24:03.063Z</time>
      </trkpt>
      <trkpt lat="48.44625" lon="7.1375">
        <ele>848</ele>
        <time>2019-05-15T09:24:04.063Z</time>
      </trkpt>
      <trkpt lat="48.44624" lon="7.13749">
        <ele>848</ele>
        <time>2019-05-15T09:24:05.063Z</time>
      </trkpt>
      <trkpt lat="48.44624" lon="7.13748">
        <ele>848</ele>
        <time>2019-05-15T09:24:06.063Z</time>
      </trkpt>
      <trkpt lat="48.44623" lon="7.13747">
        <ele>848</ele>
        <time>2019-05-15T09:24:07.063Z</time>
      </trkpt>
      <trkpt lat="48.44622" lon="7.13746">
        <ele>848</ele>
        <time>2019-05-15T09:24:08.063Z</time>
      </trkpt>
      <trkpt lat="48.44621" lon="7.13745">
        <ele>849</ele>
        <time>2019-05-15T09:24:09.063Z</time>
      </trkpt>
      <trkpt lat="48.4462" lon="7.13745">
        <ele>849</ele>
        <time>2019-05-15T09:24:10.063Z</time>
      </trkpt>
      <trkpt lat="48.4462" lon="7.13744">
        <ele>849</ele>
        <time>2019-05-15T09:24:11.063Z</time>
      </trkpt>
      <trkpt lat="48.44619" lon="7.13743">
        <ele>849</ele>
        <time>2019-05-15T09:24:12.063Z</time>
      </trkpt>
      <trkpt lat="48.44618" lon="7.13742">
        <ele>849</ele>
        <time>2019-05-15T09:24:13.063Z</time>
      </trkpt>
      <trkpt lat="48.44617" lon="7.13742">
        <ele>849</ele>
        <time>2019-05-15T09:24:14.063Z</time>
      </trkpt>
      <trkpt lat="48.44616" lon="7.13741">
        <ele>849</ele>
        <time>2019-05-15T09:24:15.063Z</time>
      </trkpt>
      <trkpt lat="48.44615" lon="7.13741">
        <ele>849</ele>
        <time>2019-05-15T09:24:16.063Z</time>
      </trkpt>
      <trkpt lat="48.44614" lon="7.1374">
        <ele>850</ele>
        <time>2019-05-15T09:24:17.063Z</time>
      </trkpt>
      <trkpt lat="48.44614" lon="7.1374">
        <ele>850</ele>
        <time>2019-05-15T09:24:18.063Z</time>
      </trkpt>
      <trkpt lat="48.44613" lon="7.13739">
        <ele>851</ele>
        <time>2019-05-15T09:24:19.063Z</time>
      </trkpt>
      <trkpt lat="48.44613" lon="7.13739">
        <ele>851</ele>
        <time>2019-05-15T09:24:20.063Z</time>
      </trkpt>
      <trkpt lat="48.44612" lon="7.13739">
        <ele>851</ele>
        <time>2019-05-15T09:24:21.063Z</time>
      </trkpt>
      <trkpt lat="48.44611" lon="7.13738">
        <ele>852</ele>
        <time>2019-05-15T09:24:22.063Z</time>
      </trkpt>
      <trkpt lat="48.4461" lon="7.13737">
        <ele>852</ele>
        <time>2019-05-15T09:24:23.063Z</time>
      </trkpt>
      <trkpt lat="48.4461" lon="7.13736">
        <ele>852</ele>
        <time>2019-05-15T09:24:24.063Z</time>
      </trkpt>
      <trkpt lat="48.44609" lon="7.13735">
        <ele>852</ele>
        <time>2019-05-15T09:24:25.063Z</time>
      </trkpt>
      <trkpt lat="48.44609" lon="7.13733">
        <ele>852</ele>
        <time>2019-05-15T09:24:26.063Z</time>
      </trkpt>
      <trkpt lat="48.44609" lon="7.13733">
        <ele>852</ele>
        <time>2019-05-15T09:24:27.063Z</time>
      </trkpt>
      <trkpt lat="48.44608" lon="7.13732">
        <ele>852</ele>
        <time>2019-05-15T09:24:28.063Z</time>
      </trkpt>
      <trkpt lat="48.44608" lon="7.13731">
        <ele>852</ele>
        <time>2019-05-15T09:24:29.063Z</time>
      </trkpt>
      <trkpt lat="48.44607" lon="7.13731">
        <ele>852</ele>
        <time>2019-05-15T09:24:30.063Z</time>
      </trkpt>
      <trkpt lat="48.44606" lon="7.1373">
        <ele>852</ele>
        <time>2019-05-15T09:24:31.063Z</time>
      </trkpt>
      <trkpt lat="48.44605" lon="7.13729">
        <ele>851</ele>
        <time>2019-05-15T09:24:32.063Z</time>
      </trkpt>
      <trkpt lat="48.44605" lon="7.13728">
        <ele>851</ele>
        <time>2019-05-15T09:24:33.063Z</time>
      </trkpt>
      <trkpt lat="48.44604" lon="7.13727">
        <ele>850</ele>
        <time>2019-05-15T09:24:34.063Z</time>
      </trkpt>
      <trkpt lat="48.44604" lon="7.13726">
        <ele>850</ele>
        <time>2019-05-15T09:24:35.063Z</time>
      </trkpt>
      <trkpt lat="48.44603" lon="7.13725">
        <ele>850</ele>
        <time>2019-05-15T09:24:36.063Z</time>
      </trkpt>
      <trkpt lat="48.44603" lon="7.13724">
        <ele>850</ele>
        <time>2019-05-15T09:24:37.063Z</time>
      </trkpt>
      <trkpt lat="48.44602" lon="7.13723">
        <ele>850</ele>
        <time>2019-05-15T09:24:38.063Z</time>
      </trkpt>
      <trkpt lat="48.44601" lon="7.13722">
        <ele>850</ele>
        <time>2019-05-15T09:24:39.063Z</time>
      </trkpt>
      <trkpt lat="48.44601" lon="7.13721">
        <ele>849</ele>
        <time>2019-05-15T09:24:40.063Z</time>
      </trkpt>
      <trkpt lat="48.446" lon="7.13721">
        <ele>849</ele>
        <time>2019-05-15T09:24:41.063Z</time>
      </trkpt>
      <trkpt lat="48.446" lon="7.1372">
        <ele>849</ele>
        <time>2019-05-15T09:24:42.063Z</time>
      </trkpt>
      <trkpt lat="48.44599" lon="7.1372">
        <ele>849</ele>
        <time>2019-05-15T09:24:43.063Z</time>
      </trkpt>
      <trkpt lat="48.44598" lon="7.13719">
        <ele>849</ele>
        <time>2019-05-15T09:24:44.063Z</time>
      </trkpt>
      <trkpt lat="48.44598" lon="7.13718">
        <ele>849</ele>
        <time>2019-05-15T09:24:45.063Z</time>
      </trkpt>
      <trkpt lat="48.44597" lon="7.13718">
        <ele>849</ele>
        <time>2019-05-15T09:24:46.063Z</time>
      </trkpt>
      <trkpt lat="48.44597" lon="7.13717">
        <ele>848</ele>
        <time>2019-05-15T09:24:47.063Z</time>
      </trkpt>
      <trkpt lat="48.44597" lon="7.13716">
        <ele>848</ele>
        <time>2019-05-15T09:24:48.063Z</time>
      </trkpt>
      <trkpt lat="48.44597" lon="7.13715">
        <ele>848</ele>
        <time>2019-05-15T09:24:49.063Z</time>
      </trkpt>
      <trkpt lat="48.44596" lon="7.13714">
        <ele>848</ele>
        <time>2019-05-15T09:24:50.063Z</time>
      </trkpt>
      <trkpt lat="48.44596" lon="7.13713">
        <ele>848</ele>
        <time>2019-05-15T09:24:51.063Z</time>
      </trkpt>
      <trkpt lat="48.44596" lon="7.13712">
        <ele>848</ele>
        <time>2019-05-15T09:24:52.063Z</time>
      </trkpt>
      <trkpt lat="48.44595" lon="7.13711">
        <ele>848</ele>
        <time>2019-05-15T09:24:53.063Z</time>
      </trkpt>
      <trkpt lat="48.44595" lon="7.13711">
        <ele>848</ele>
        <time>2019-05-15T09:24:54.063Z</time>
      </trkpt>
      <trkpt lat="48.44594" lon="7.13711">
        <ele>848</ele>
        <time>2019-05-15T09:24:55.063Z</time>
      </trkpt>
      <trkpt lat="48.44594" lon="7.1371">
        <ele>848</ele>
        <time>2019-05-15T09:24:56.063Z</time>
      </trkpt>
      <trkpt lat="48.44593" lon="7.1371">
        <ele>848</ele>
        <time>2019-05-15T09:24:57.063Z</time>
      </trkpt>
      <trkpt lat="48.44592" lon="7.13709">
        <ele>848</ele>
        <time>2019-05-15T09:24:58.063Z</time>
      </trkpt>
      <trkpt lat="48.44591" lon="7.13708">
        <ele>848</ele>
        <time>2019-05-15T09:24:59.063Z</time>
      </trkpt>
      <trkpt lat="48.44591" lon="7.13707">
        <ele>848</ele>
        <time>2019-05-15T09:25:00.063Z</time>
      </trkpt>
      <trkpt lat="48.4459" lon="7.13706">
        <ele>848</ele>
        <time>2019-05-15T09:25:01.063Z</time>
      </trkpt>
      <trkpt lat="48.4459" lon="7.13705">
        <ele>848</ele>
        <time>2019-05-15T09:25:02.063Z</time>
      </trkpt>
      <trkpt lat="48.44589" lon="7.13705">
        <ele>849</ele>
        <time>2019-05-15T09:25:03.063Z</time>
      </trkpt>
      <trkpt lat="48.44589" lon="7.13704">
        <ele>849</ele>
        <time>2019-05-15T09:25:04.063Z</time>
      </trkpt>
      <trkpt lat="48.44588" lon="7.13704">
        <ele>849</ele>
        <time>2019-05-15T09:25:05.063Z</time>
      </trkpt>
      <trkpt lat="48.44587" lon="7.13704">
        <ele>848</ele>
        <time>2019-05-15T09:25:06.063Z</time>
      </trkpt>
      <trkpt lat="48.44586" lon="7.13704">
        <ele>848</ele>
        <time>2019-05-15T09:25:07.063Z</time>
      </trkpt>
      <trkpt lat="48.44586" lon="7.13703">
        <ele>848</ele>
        <time>2019-05-15T09:25:08.063Z</time>
      </trkpt>
      <trkpt lat="48.44585" lon="7.13703">
        <ele>848</ele>
        <time>2019-05-15T09:25:09.063Z</time>
      </trkpt>
      <trkpt lat="48.44584" lon="7.13702">
        <ele>849</ele>
        <time>2019-05-15T09:25:10.063Z</time>
      </trkpt>
      <trkpt lat="48.44584" lon="7.13701">
        <ele>849</ele>
        <time>2019-05-15T09:25:11.063Z</time>
      </trkpt>
      <trkpt lat="48.44583" lon="7.137">
        <ele>848</ele>
        <time>2019-05-15T09:25:12.063Z</time>
      </trkpt>
      <trkpt lat="48.44583" lon="7.13699">
        <ele>848</ele>
        <time>2019-05-15T09:25:13.063Z</time>
      </trkpt>
      <trkpt lat="48.44582" lon="7.13697">
        <ele>848</ele>
        <time>2019-05-15T09:25:14.063Z</time>
      </trkpt>
      <trkpt lat="48.44582" lon="7.13697">
        <ele>849</ele>
        <time>2019-05-15T09:25:15.063Z</time>
      </trkpt>
      <trkpt lat="48.44581" lon="7.13696">
        <ele>849</ele>
        <time>2019-05-15T09:25:16.063Z</time>
      </trkpt>
      <trkpt lat="48.44581" lon="7.13695">
        <ele>849</ele>
        <time>2019-05-15T09:25:17.063Z</time>
      </trkpt>
      <trkpt lat="48.4458" lon="7.13695">
        <ele>849</ele>
        <time>2019-05-15T09:25:18.063Z</time>
      </trkpt>
      <trkpt lat="48.44579" lon="7.13694">
        <ele>849</ele>
        <time>2019-05-15T09:25:19.063Z</time>
      </trkpt>
      <trkpt lat="48.44579" lon="7.13693">
        <ele>849</ele>
        <time>2019-05-15T09:25:20.063Z</time>
      </trkpt>
      <trkpt lat="48.44578" lon="7.13692">
        <ele>849</ele>
        <time>2019-05-15T09:25:21.063Z</time>
      </trkpt>
      <trkpt lat="48.44578" lon="7.13691">
        <ele>848</ele>
        <time>2019-05-15T09:25:22.063Z</time>
      </trkpt>
      <trkpt lat="48.44577" lon="7.1369">
        <ele>849</ele>
        <time>2019-05-15T09:25:23.063Z</time>
      </trkpt>
      <trkpt lat="48.44577" lon="7.13689">
        <ele>849</ele>
        <time>2019-05-15T09:25:24.063Z</time>
      </trkpt>
      <trkpt lat="48.44576" lon="7.13687">
        <ele>849</ele>
        <time>2019-05-15T09:25:25.063Z</time>
      </trkpt>
      <trkpt lat="48.44575" lon="7.13686">
        <ele>849</ele>
        <time>2019-05-15T09:25:26.063Z</time>
      </trkpt>
      <trkpt lat="48.44575" lon="7.13686">
        <ele>849</ele>
        <time>2019-05-15T09:25:27.063Z</time>
      </trkpt>
      <trkpt lat="48.44574" lon="7.13685">
        <ele>849</ele>
        <time>2019-05-15T09:25:28.063Z</time>
      </trkpt>
      <trkpt lat="48.44573" lon="7.13684">
        <ele>849</ele>
        <time>2019-05-15T09:25:29.063Z</time>
      </trkpt>
      <trkpt lat="48.44573" lon="7.13682">
        <ele>849</ele>
        <time>2019-05-15T09:25:30.063Z</time>
      </trkpt>
      <trkpt lat="48.44572" lon="7.13681">
        <ele>849</ele>
        <time>2019-05-15T09:25:31.063Z</time>
      </trkpt>
      <trkpt lat="48.44572" lon="7.1368">
        <ele>849</ele>
        <time>2019-05-15T09:25:32.063Z</time>
      </trkpt>
      <trkpt lat="48.44571" lon="7.13679">
        <ele>849</ele>
        <time>2019-05-15T09:25:33.063Z</time>
      </trkpt>
      <trkpt lat="48.44571" lon="7.13678">
        <ele>849</ele>
        <time>2019-05-15T09:25:34.063Z</time>
      </trkpt>
      <trkpt lat="48.4457" lon="7.13678">
        <ele>849</ele>
        <time>2019-05-15T09:25:35.063Z</time>
      </trkpt>
      <trkpt lat="48.44569" lon="7.13677">
        <ele>849</ele>
        <time>2019-05-15T09:25:36.063Z</time>
      </trkpt>
      <trkpt lat="48.44568" lon="7.13676">
        <ele>849</ele>
        <time>2019-05-15T09:25:37.063Z</time>
      </trkpt>
      <trkpt lat="48.44567" lon="7.13675">
        <ele>849</ele>
        <time>2019-05-15T09:25:38.063Z</time>
      </trkpt>
      <trkpt lat="48.44566" lon="7.13674">
        <ele>849</ele>
        <time>2019-05-15T09:25:39.063Z</time>
      </trkpt>
      <trkpt lat="48.44566" lon="7.13673">
        <ele>849</ele>
        <time>2019-05-15T09:25:40.063Z</time>
      </trkpt>
      <trkpt lat="48.44565" lon="7.13672">
        <ele>849</ele>
        <time>2019-05-15T09:25:41.063Z</time>
      </trkpt>
      <trkpt lat="48.44564" lon="7.13672">
        <ele>849</ele>
        <time>2019-05-15T09:25:42.063Z</time>
      </trkpt>
      <trkpt lat="48.44564" lon="7.13671">
        <ele>849</ele>
        <time>2019-05-15T09:25:43.063Z</time>
      </trkpt>
      <trkpt lat="48.44563" lon="7.1367">
        <ele>849</ele>
        <time>2019-05-15T09:25:44.063Z</time>
      </trkpt>
      <trkpt lat="48.44563" lon="7.13668">
        <ele>849</ele>
        <time>2019-05-15T09:25:45.063Z</time>
      </trkpt>
      <trkpt lat="48.44562" lon="7.13668">
        <ele>850</ele>
        <time>2019-05-15T09:25:46.063Z</time>
      </trkpt>
      <trkpt lat="48.44562" lon="7.13667">
        <ele>849</ele>
        <time>2019-05-15T09:25:47.063Z</time>
      </trkpt>
      <trkpt lat="48.44561" lon="7.13666">
        <ele>849</ele>
        <time>2019-05-15T09:25:48.063Z</time>
      </trkpt>
      <trkpt lat="48.44561" lon="7.13665">
        <ele>849</ele>
        <time>2019-05-15T09:25:49.063Z</time>
      </trkpt>
      <trkpt lat="48.4456" lon="7.13664">
        <ele>849</ele>
        <time>2019-05-15T09:25:50.063Z</time>
      </trkpt>
      <trkpt lat="48.4456" lon="7.13663">
        <ele>849</ele>
        <time>2019-05-15T09:25:51.063Z</time>
      </trkpt>
      <trkpt lat="48.4456" lon="7.13661">
        <ele>849</ele>
        <time>2019-05-15T09:25:52.063Z</time>
      </trkpt>
      <trkpt lat="48.44559" lon="7.1366">
        <ele>849</ele>
        <time>2019-05-15T09:25:53.063Z</time>
      </trkpt>
      <trkpt lat="48.44559" lon="7.13659">
        <ele>849</ele>
        <time>2019-05-15T09:25:54.063Z</time>
      </trkpt>
      <trkpt lat="48.44559" lon="7.13658">
        <ele>848</ele>
        <time>2019-05-15T09:25:55.063Z</time>
      </trkpt>
      <trkpt lat="48.44558" lon="7.13656">
        <ele>848</ele>
        <time>2019-05-15T09:25:56.063Z</time>
      </trkpt>
      <trkpt lat="48.44558" lon="7.13654">
        <ele>848</ele>
        <time>2019-05-15T09:25:57.063Z</time>
      </trkpt>
      <trkpt lat="48.44557" lon="7.13653">
        <ele>848</ele>
        <time>2019-05-15T09:25:58.063Z</time>
      </trkpt>
      <trkpt lat="48.44557" lon="7.13651">
        <ele>848</ele>
        <time>2019-05-15T09:25:59.063Z</time>
      </trkpt>
      <trkpt lat="48.44557" lon="7.1365">
        <ele>847</ele>
        <time>2019-05-15T09:26:00.063Z</time>
      </trkpt>
      <trkpt lat="48.44556" lon="7.13649">
        <ele>847</ele>
        <time>2019-05-15T09:26:01.063Z</time>
      </trkpt>
      <trkpt lat="48.44556" lon="7.13648">
        <ele>847</ele>
        <time>2019-05-15T09:26:02.063Z</time>
      </trkpt>
      <trkpt lat="48.44555" lon="7.13647">
        <ele>847</ele>
        <time>2019-05-15T09:26:03.063Z</time>
      </trkpt>
      <trkpt lat="48.44554" lon="7.13646">
        <ele>847</ele>
        <time>2019-05-15T09:26:04.063Z</time>
      </trkpt>
      <trkpt lat="48.44554" lon="7.13645">
        <ele>847</ele>
        <time>2019-05-15T09:26:05.063Z</time>
      </trkpt>
      <trkpt lat="48.44553" lon="7.13644">
        <ele>847</ele>
        <time>2019-05-15T09:26:06.063Z</time>
      </trkpt>
      <trkpt lat="48.44553" lon="7.13643">
        <ele>847</ele>
        <time>2019-05-15T09:26:07.063Z</time>
      </trkpt>
      <trkpt lat="48.44552" lon="7.13643">
        <ele>847</ele>
        <time>2019-05-15T09:26:08.063Z</time>
      </trkpt>
      <trkpt lat="48.44552" lon="7.13642">
        <ele>847</ele>
        <time>2019-05-15T09:26:09.063Z</time>
      </trkpt>
      <trkpt lat="48.44552" lon="7.13641">
        <ele>847</ele>
        <time>2019-05-15T09:26:10.063Z</time>
      </trkpt>
      <trkpt lat="48.44552" lon="7.1364">
        <ele>847</ele>
        <time>2019-05-15T09:26:11.063Z</time>
      </trkpt>
      <trkpt lat="48.44551" lon="7.13639">
        <ele>846</ele>
        <time>2019-05-15T09:26:12.063Z</time>
      </trkpt>
      <trkpt lat="48.44551" lon="7.13638">
        <ele>846</ele>
        <time>2019-05-15T09:26:13.063Z</time>
      </trkpt>
      <trkpt lat="48.44551" lon="7.13636">
        <ele>846</ele>
        <time>2019-05-15T09:26:14.063Z</time>
      </trkpt>
      <trkpt lat="48.4455" lon="7.13636">
        <ele>846</ele>
        <time>2019-05-15T09:26:15.063Z</time>
      </trkpt>
      <trkpt lat="48.4455" lon="7.13634">
        <ele>846</ele>
        <time>2019-05-15T09:26:16.063Z</time>
      </trkpt>
      <trkpt lat="48.44549" lon="7.13633">
        <ele>847</ele>
        <time>2019-05-15T09:26:17.063Z</time>
      </trkpt>
      <trkpt lat="48.44549" lon="7.13633">
        <ele>847</ele>
        <time>2019-05-15T09:26:18.063Z</time>
      </trkpt>
      <trkpt lat="48.44548" lon="7.13632">
        <ele>847</ele>
        <time>2019-05-15T09:26:19.063Z</time>
      </trkpt>
      <trkpt lat="48.44548" lon="7.13631">
        <ele>847</ele>
        <time>2019-05-15T09:26:20.063Z</time>
      </trkpt>
      <trkpt lat="48.44547" lon="7.1363">
        <ele>847</ele>
        <time>2019-05-15T09:26:21.063Z</time>
      </trkpt>
      <trkpt lat="48.44547" lon="7.13628">
        <ele>847</ele>
        <time>2019-05-15T09:26:22.063Z</time>
      </trkpt>
      <trkpt lat="48.44546" lon="7.13627">
        <ele>847</ele>
        <time>2019-05-15T09:26:23.063Z</time>
      </trkpt>
      <trkpt lat="48.44546" lon="7.13625">
        <ele>847</ele>
        <time>2019-05-15T09:26:24.063Z</time>
      </trkpt>
      <trkpt lat="48.44545" lon="7.13624">
        <ele>847</ele>
        <time>2019-05-15T09:26:25.063Z</time>
      </trkpt>
      <trkpt lat="48.44545" lon="7.13623">
        <ele>847</ele>
        <time>2019-05-15T09:26:26.063Z</time>
      </trkpt>
      <trkpt lat="48.44545" lon="7.13621">
        <ele>847</ele>
        <time>2019-05-15T09:26:27.063Z</time>
      </trkpt>
      <trkpt lat="48.44544" lon="7.1362">
        <ele>847</ele>
        <time>2019-05-15T09:26:28.063Z</time>
      </trkpt>
      <trkpt lat="48.44544" lon="7.13619">
        <ele>847</ele>
        <time>2019-05-15T09:26:29.063Z</time>
      </trkpt>
      <trkpt lat="48.44544" lon="7.13618">
        <ele>847</ele>
        <time>2019-05-15T09:26:30.063Z</time>
      </trkpt>
      <trkpt lat="48.44544" lon="7.13617">
        <ele>848</ele>
        <time>2019-05-15T09:26:31.063Z</time>
      </trkpt>
      <trkpt lat="48.44544" lon="7.13616">
        <ele>848</ele>
        <time>2019-05-15T09:26:32.063Z</time>
      </trkpt>
      <trkpt lat="48.44544" lon="7.13615">
        <ele>848</ele>
        <time>2019-05-15T09:26:33.063Z</time>
      </trkpt>
      <trkpt lat="48.44544" lon="7.13615">
        <ele>848</ele>
        <time>2019-05-15T09:26:34.063Z</time>
      </trkpt>
      <trkpt lat="48.44544" lon="7.13614">
        <ele>849</ele>
        <time>2019-05-15T09:26:35.063Z</time>
      </trkpt>
      <trkpt lat="48.44544" lon="7.13614">
        <ele>850</ele>
        <time>2019-05-15T09:26:36.063Z</time>
      </trkpt>
      <trkpt lat="48.44544" lon="7.13613">
        <ele>850</ele>
        <time>2019-05-15T09:26:37.063Z</time>
      </trkpt>
      <trkpt lat="48.44543" lon="7.13612">
        <ele>850</ele>
        <time>2019-05-15T09:26:38.063Z</time>
      </trkpt>
      <trkpt lat="48.44543" lon="7.13612">
        <ele>850</ele>
        <time>2019-05-15T09:26:39.063Z</time>
      </trkpt>
      <trkpt lat="48.44543" lon="7.13611">
        <ele>850</ele>
        <time>2019-05-15T09:26:40.063Z</time>
      </trkpt>
      <trkpt lat="48.44544" lon="7.13611">
        <ele>850</ele>
        <time>2019-05-15T09:26:41.063Z</time>
      </trkpt>
      <trkpt lat="48.44544" lon="7.1361">
        <ele>850</ele>
        <time>2019-05-15T09:26:42.063Z</time>
      </trkpt>
      <trkpt lat="48.44544" lon="7.13609">
        <ele>850</ele>
        <time>2019-05-15T09:26:43.063Z</time>
      </trkpt>
      <trkpt lat="48.44544" lon="7.13609">
        <ele>850</ele>
        <time>2019-05-15T09:26:44.063Z</time>
      </trkpt>
      <trkpt lat="48.44544" lon="7.13608">
        <ele>851</ele>
        <time>2019-05-15T09:26:45.063Z</time>
      </trkpt>
      <trkpt lat="48.44544" lon="7.13607">
        <ele>851</ele>
        <time>2019-05-15T09:26:46.063Z</time>
      </trkpt>
      <trkpt lat="48.44544" lon="7.13606">
        <ele>851</ele>
        <time>2019-05-15T09:26:47.063Z</time>
      </trkpt>
      <trkpt lat="48.44543" lon="7.13605">
        <ele>851</ele>
        <time>2019-05-15T09:26:48.063Z</time>
      </trkpt>
      <trkpt lat="48.44543" lon="7.13605">
        <ele>851</ele>
        <time>2019-05-15T09:26:49.063Z</time>
      </trkpt>
      <trkpt lat="48.44543" lon="7.13604">
        <ele>851</ele>
        <time>2019-05-15T09:26:50.063Z</time>
      </trkpt>
      <trkpt lat="48.44543" lon="7.13603">
        <ele>851</ele>
        <time>2019-05-15T09:26:51.063Z</time>
      </trkpt>
      <trkpt lat="48.44543" lon="7.13602">
        <ele>851</ele>
        <time>2019-05-15T09:26:52.063Z</time>
      </trkpt>
      <trkpt lat="48.44543" lon="7.136">
        <ele>851</ele>
        <time>2019-05-15T09:26:53.063Z</time>
      </trkpt>
      <trkpt lat="48.44543" lon="7.13599">
        <ele>851</ele>
        <time>2019-05-15T09:26:54.063Z</time>
      </trkpt>
      <trkpt lat="48.44543" lon="7.13598">
        <ele>851</ele>
        <time>2019-05-15T09:26:55.063Z</time>
      </trkpt>
      <trkpt lat="48.44543" lon="7.13597">
        <ele>851</ele>
        <time>2019-05-15T09:26:56.063Z</time>
      </trkpt>
      <trkpt lat="48.44543" lon="7.13596">
        <ele>850</ele>
        <time>2019-05-15T09:26:57.063Z</time>
      </trkpt>
      <trkpt lat="48.44543" lon="7.13594">
        <ele>850</ele>
        <time>2019-05-15T09:26:58.063Z</time>
      </trkpt>
      <trkpt lat="48.44543" lon="7.13593">
        <ele>850</ele>
        <time>2019-05-15T09:26:59.063Z</time>
      </trkpt>
      <trkpt lat="48.44543" lon="7.13593">
        <ele>850</ele>
        <time>2019-05-15T09:27:00.063Z</time>
      </trkpt>
      <trkpt lat="48.44543" lon="7.13592">
        <ele>850</ele>
        <time>2019-05-15T09:27:01.063Z</time>
      </trkpt>
      <trkpt lat="48.44543" lon="7.13591">
        <ele>850</ele>
        <time>2019-05-15T09:27:02.063Z</time>
      </trkpt>
      <trkpt lat="48.44543" lon="7.13589">
        <ele>850</ele>
        <time>2019-05-15T09:27:03.063Z</time>
      </trkpt>
      <trkpt lat="48.44543" lon="7.13588">
        <ele>849</ele>
        <time>2019-05-15T09:27:04.063Z</time>
      </trkpt>
      <trkpt lat="48.44542" lon="7.13587">
        <ele>849</ele>
        <time>2019-05-15T09:27:05.063Z</time>
      </trkpt>
      <trkpt lat="48.44542" lon="7.13586">
        <ele>849</ele>
        <time>2019-05-15T09:27:06.063Z</time>
      </trkpt>
      <trkpt lat="48.44541" lon="7.13585">
        <ele>848</ele>
        <time>2019-05-15T09:27:07.063Z</time>
      </trkpt>
      <trkpt lat="48.44541" lon="7.13584">
        <ele>849</ele>
        <time>2019-05-15T09:27:08.063Z</time>
      </trkpt>
      <trkpt lat="48.4454" lon="7.13583">
        <ele>849</ele>
        <time>2019-05-15T09:27:09.063Z</time>
      </trkpt>
      <trkpt lat="48.44539" lon="7.13582">
        <ele>849</ele>
        <time>2019-05-15T09:27:10.063Z</time>
      </trkpt>
      <trkpt lat="48.44539" lon="7.1358">
        <ele>849</ele>
        <time>2019-05-15T09:27:11.063Z</time>
      </trkpt>
      <trkpt lat="48.44538" lon="7.13579">
        <ele>849</ele>
        <time>2019-05-15T09:27:12.063Z</time>
      </trkpt>
      <trkpt lat="48.44538" lon="7.13578">
        <ele>849</ele>
        <time>2019-05-15T09:27:13.063Z</time>
      </trkpt>
      <trkpt lat="48.44538" lon="7.13577">
        <ele>850</ele>
        <time>2019-05-15T09:27:14.063Z</time>
      </trkpt>
      <trkpt lat="48.44538" lon="7.13575">
        <ele>850</ele>
        <time>2019-05-15T09:27:15.063Z</time>
      </trkpt>
      <trkpt lat="48.44537" lon="7.13574">
        <ele>849</ele>
        <time>2019-05-15T09:27:16.063Z</time>
      </trkpt>
      <trkpt lat="48.44537" lon="7.13573">
        <ele>849</ele>
        <time>2019-05-15T09:27:17.063Z</time>
      </trkpt>
      <trkpt lat="48.44536" lon="7.13571">
        <ele>849</ele>
        <time>2019-05-15T09:27:18.063Z</time>
      </trkpt>
      <trkpt lat="48.44536" lon="7.1357">
        <ele>849</ele>
        <time>2019-05-15T09:27:19.063Z</time>
      </trkpt>
      <trkpt lat="48.44536" lon="7.13569">
        <ele>849</ele>
        <time>2019-05-15T09:27:20.063Z</time>
      </trkpt>
      <trkpt lat="48.44535" lon="7.13567">
        <ele>849</ele>
        <time>2019-05-15T09:27:21.063Z</time>
      </trkpt>
      <trkpt lat="48.44535" lon="7.13566">
        <ele>848</ele>
        <time>2019-05-15T09:27:22.063Z</time>
      </trkpt>
      <trkpt lat="48.44535" lon="7.13565">
        <ele>848</ele>
        <time>2019-05-15T09:27:23.063Z</time>
      </trkpt>
      <trkpt lat="48.44535" lon="7.13563">
        <ele>848</ele>
        <time>2019-05-15T09:27:24.063Z</time>
      </trkpt>
      <trkpt lat="48.44535" lon="7.13562">
        <ele>848</ele>
        <time>2019-05-15T09:27:25.063Z</time>
      </trkpt>
      <trkpt lat="48.44535" lon="7.13561">
        <ele>848</ele>
        <time>2019-05-15T09:27:26.063Z</time>
      </trkpt>
      <trkpt lat="48.44535" lon="7.13561">
        <ele>848</ele>
        <time>2019-05-15T09:27:27.063Z</time>
      </trkpt>
      <trkpt lat="48.44535" lon="7.1356">
        <ele>848</ele>
        <time>2019-05-15T09:27:28.063Z</time>
      </trkpt>
      <trkpt lat="48.44534" lon="7.13559">
        <ele>848</ele>
        <time>2019-05-15T09:27:29.063Z</time>
      </trkpt>
      <trkpt lat="48.44534" lon="7.13557">
        <ele>848</ele>
        <time>2019-05-15T09:27:30.063Z</time>
      </trkpt>
      <trkpt lat="48.44534" lon="7.13556">
        <ele>848</ele>
        <time>2019-05-15T09:27:31.063Z</time>
      </trkpt>
      <trkpt lat="48.44533" lon="7.13555">
        <ele>849</ele>
        <time>2019-05-15T09:27:32.063Z</time>
      </trkpt>
      <trkpt lat="48.44533" lon="7.13553">
        <ele>849</ele>
        <time>2019-05-15T09:27:33.063Z</time>
      </trkpt>
      <trkpt lat="48.44533" lon="7.13552">
        <ele>849</ele>
        <time>2019-05-15T09:27:34.063Z</time>
      </trkpt>
      <trkpt lat="48.44533" lon="7.13551">
        <ele>849</ele>
        <time>2019-05-15T09:27:35.063Z</time>
      </trkpt>
      <trkpt lat="48.44533" lon="7.1355">
        <ele>849</ele>
        <time>2019-05-15T09:27:36.063Z</time>
      </trkpt>
      <trkpt lat="48.44533" lon="7.13549">
        <ele>850</ele>
        <time>2019-05-15T09:27:37.063Z</time>
      </trkpt>
      <trkpt lat="48.44533" lon="7.13549">
        <ele>850</ele>
        <time>2019-05-15T09:27:38.063Z</time>
      </trkpt>
      <trkpt lat="48.44533" lon="7.13548">
        <ele>850</ele>
        <time>2019-05-15T09:27:39.063Z</time>
      </trkpt>
      <trkpt lat="48.44533" lon="7.13547">
        <ele>850</ele>
        <time>2019-05-15T09:27:40.063Z</time>
      </trkpt>
      <trkpt lat="48.44533" lon="7.13546">
        <ele>850</ele>
        <time>2019-05-15T09:27:41.063Z</time>
      </trkpt>
      <trkpt lat="48.44533" lon="7.13545">
        <ele>850</ele>
        <time>2019-05-15T09:27:42.063Z</time>
      </trkpt>
      <trkpt lat="48.44533" lon="7.13544">
        <ele>849</ele>
        <time>2019-05-15T09:27:43.063Z</time>
      </trkpt>
      <trkpt lat="48.44533" lon="7.13543">
        <ele>850</ele>
        <time>2019-05-15T09:27:44.063Z</time>
      </trkpt>
      <trkpt lat="48.44533" lon="7.13542">
        <ele>849</ele>
        <time>2019-05-15T09:27:45.063Z</time>
      </trkpt>
      <trkpt lat="48.44533" lon="7.1354">
        <ele>849</ele>
        <time>2019-05-15T09:27:46.063Z</time>
      </trkpt>
      <trkpt lat="48.44532" lon="7.13539">
        <ele>849</ele>
        <time>2019-05-15T09:27:47.063Z</time>
      </trkpt>
      <trkpt lat="48.44532" lon="7.13538">
        <ele>849</ele>
        <time>2019-05-15T09:27:48.063Z</time>
      </trkpt>
      <trkpt lat="48.44532" lon="7.13537">
        <ele>849</ele>
        <time>2019-05-15T09:27:49.063Z</time>
      </trkpt>
      <trkpt lat="48.44532" lon="7.13535">
        <ele>849</ele>
        <time>2019-05-15T09:27:50.063Z</time>
      </trkpt>
      <trkpt lat="48.44531" lon="7.13534">
        <ele>849</ele>
        <time>2019-05-15T09:27:51.063Z</time>
      </trkpt>
      <trkpt lat="48.44531" lon="7.13533">
        <ele>849</ele>
        <time>2019-05-15T09:27:52.063Z</time>
      </trkpt>
      <trkpt lat="48.4453" lon="7.13532">
        <ele>849</ele>
        <time>2019-05-15T09:27:53.063Z</time>
      </trkpt>
      <trkpt lat="48.4453" lon="7.13531">
        <ele>849</ele>
        <time>2019-05-15T09:27:54.063Z</time>
      </trkpt>
      <trkpt lat="48.44529" lon="7.1353">
        <ele>848</ele>
        <time>2019-05-15T09:27:55.063Z</time>
      </trkpt>
      <trkpt lat="48.44529" lon="7.13529">
        <ele>848</ele>
        <time>2019-05-15T09:27:56.063Z</time>
      </trkpt>
      <trkpt lat="48.44529" lon="7.13528">
        <ele>848</ele>
        <time>2019-05-15T09:27:57.063Z</time>
      </trkpt>
      <trkpt lat="48.44528" lon="7.13527">
        <ele>848</ele>
        <time>2019-05-15T09:27:58.063Z</time>
      </trkpt>
      <trkpt lat="48.44528" lon="7.13526">
        <ele>848</ele>
        <time>2019-05-15T09:27:59.063Z</time>
      </trkpt>
      <trkpt lat="48.44528" lon="7.13525">
        <ele>848</ele>
        <time>2019-05-15T09:28:00.063Z</time>
      </trkpt>
      <trkpt lat="48.44528" lon="7.13524">
        <ele>848</ele>
        <time>2019-05-15T09:28:01.063Z</time>
      </trkpt>
      <trkpt lat="48.44527" lon="7.13523">
        <ele>848</ele>
        <time>2019-05-15T09:28:02.063Z</time>
      </trkpt>
      <trkpt lat="48.44527" lon="7.13522">
        <ele>848</ele>
        <time>2019-05-15T09:28:03.063Z</time>
      </trkpt>
      <trkpt lat="48.44526" lon="7.13522">
        <ele>848</ele>
        <time>2019-05-15T09:28:04.063Z</time>
      </trkpt>
      <trkpt lat="48.44526" lon="7.1352">
        <ele>847</ele>
        <time>2019-05-15T09:28:05.063Z</time>
      </trkpt>
      <trkpt lat="48.44525" lon="7.1352">
        <ele>847</ele>
        <time>2019-05-15T09:28:06.063Z</time>
      </trkpt>
      <trkpt lat="48.44525" lon="7.13519">
        <ele>847</ele>
        <time>2019-05-15T09:28:07.063Z</time>
      </trkpt>
      <trkpt lat="48.44525" lon="7.13518">
        <ele>847</ele>
        <time>2019-05-15T09:28:08.063Z</time>
      </trkpt>
      <trkpt lat="48.44524" lon="7.13517">
        <ele>847</ele>
        <time>2019-05-15T09:28:09.063Z</time>
      </trkpt>
      <trkpt lat="48.44524" lon="7.13516">
        <ele>847</ele>
        <time>2019-05-15T09:28:10.063Z</time>
      </trkpt>
      <trkpt lat="48.44523" lon="7.13516">
        <ele>846</ele>
        <time>2019-05-15T09:28:11.063Z</time>
      </trkpt>
      <trkpt lat="48.44523" lon="7.13514">
        <ele>846</ele>
        <time>2019-05-15T09:28:12.063Z</time>
      </trkpt>
      <trkpt lat="48.44522" lon="7.13513">
        <ele>846</ele>
        <time>2019-05-15T09:28:13.063Z</time>
      </trkpt>
      <trkpt lat="48.44522" lon="7.13512">
        <ele>846</ele>
        <time>2019-05-15T09:28:14.063Z</time>
      </trkpt>
      <trkpt lat="48.44521" lon="7.13511">
        <ele>846</ele>
        <time>2019-05-15T09:28:15.063Z</time>
      </trkpt>
      <trkpt lat="48.44521" lon="7.1351">
        <ele>846</ele>
        <time>2019-05-15T09:28:16.063Z</time>
      </trkpt>
      <trkpt lat="48.4452" lon="7.13509">
        <ele>846</ele>
        <time>2019-05-15T09:28:17.063Z</time>
      </trkpt>
      <trkpt lat="48.4452" lon="7.13508">
        <ele>846</ele>
        <time>2019-05-15T09:28:18.063Z</time>
      </trkpt>
      <trkpt lat="48.44519" lon="7.13507">
        <ele>846</ele>
        <time>2019-05-15T09:28:19.063Z</time>
      </trkpt>
      <trkpt lat="48.44519" lon="7.13507">
        <ele>846</ele>
        <time>2019-05-15T09:28:20.063Z</time>
      </trkpt>
      <trkpt lat="48.44519" lon="7.13506">
        <ele>846</ele>
        <time>2019-05-15T09:28:21.063Z</time>
      </trkpt>
      <trkpt lat="48.44518" lon="7.13505">
        <ele>846</ele>
        <time>2019-05-15T09:28:22.063Z</time>
      </trkpt>
      <trkpt lat="48.44518" lon="7.13505">
        <ele>846</ele>
        <time>2019-05-15T09:28:23.063Z</time>
      </trkpt>
      <trkpt lat="48.44517" lon="7.13504">
        <ele>845</ele>
        <time>2019-05-15T09:28:24.063Z</time>
      </trkpt>
      <trkpt lat="48.44517" lon="7.13503">
        <ele>845</ele>
        <time>2019-05-15T09:28:25.063Z</time>
      </trkpt>
      <trkpt lat="48.44517" lon="7.13502">
        <ele>845</ele>
        <time>2019-05-15T09:28:26.063Z</time>
      </trkpt>
      <trkpt lat="48.44517" lon="7.13501">
        <ele>845</ele>
        <time>2019-05-15T09:28:27.063Z</time>
      </trkpt>
      <trkpt lat="48.44517" lon="7.135">
        <ele>845</ele>
        <time>2019-05-15T09:28:28.063Z</time>
      </trkpt>
      <trkpt lat="48.44517" lon="7.13499">
        <ele>845</ele>
        <time>2019-05-15T09:28:29.063Z</time>
      </trkpt>
      <trkpt lat="48.44517" lon="7.13498">
        <ele>845</ele>
        <time>2019-05-15T09:28:30.063Z</time>
      </trkpt>
      <trkpt lat="48.44517" lon="7.13497">
        <ele>845</ele>
        <time>2019-05-15T09:28:31.063Z</time>
      </trkpt>
      <trkpt lat="48.44518" lon="7.13497">
        <ele>845</ele>
        <time>2019-05-15T09:28:32.063Z</time>
      </trkpt>
      <trkpt lat="48.44518" lon="7.13496">
        <ele>845</ele>
        <time>2019-05-15T09:28:33.063Z</time>
      </trkpt>
      <trkpt lat="48.44518" lon="7.13495">
        <ele>845</ele>
        <time>2019-05-15T09:28:34.063Z</time>
      </trkpt>
      <trkpt lat="48.44518" lon="7.13495">
        <ele>845</ele>
        <time>2019-05-15T09:28:35.063Z</time>
      </trkpt>
      <trkpt lat="48.44518" lon="7.13494">
        <ele>846</ele>
        <time>2019-05-15T09:28:36.063Z</time>
      </trkpt>
      <trkpt lat="48.44518" lon="7.13494">
        <ele>845</ele>
        <time>2019-05-15T09:28:37.063Z</time>
      </trkpt>
      <trkpt lat="48.44518" lon="7.13493">
        <ele>845</ele>
        <time>2019-05-15T09:28:38.063Z</time>
      </trkpt>
      <trkpt lat="48.44518" lon="7.13493">
        <ele>845</ele>
        <time>2019-05-15T09:28:39.063Z</time>
      </trkpt>
      <trkpt lat="48.44518" lon="7.13492">
        <ele>845</ele>
        <time>2019-05-15T09:28:40.063Z</time>
      </trkpt>
      <trkpt lat="48.44518" lon="7.13492">
        <ele>845</ele>
        <time>2019-05-15T09:28:41.063Z</time>
      </trkpt>
      <trkpt lat="48.44518" lon="7.13491">
        <ele>845</ele>
        <time>2019-05-15T09:28:42.063Z</time>
      </trkpt>
      <trkpt lat="48.44518" lon="7.13491">
        <ele>845</ele>
        <time>2019-05-15T09:28:43.063Z</time>
      </trkpt>
      <trkpt lat="48.44518" lon="7.13491">
        <ele>845</ele>
        <time>2019-05-15T09:28:44.063Z</time>
      </trkpt>
      <trkpt lat="48.44518" lon="7.13491">
        <ele>845</ele>
        <time>2019-05-15T09:28:45.063Z</time>
      </trkpt>
      <trkpt lat="48.44518" lon="7.13491">
        <ele>845</ele>
        <time>2019-05-15T09:28:46.063Z</time>
      </trkpt>
      <trkpt lat="48.44517" lon="7.13491">
        <ele>845</ele>
        <time>2019-05-15T09:28:47.063Z</time>
      </trkpt>
      <trkpt lat="48.44517" lon="7.13491">
        <ele>845</ele>
        <time>2019-05-15T09:28:48.063Z</time>
      </trkpt>
      <trkpt lat="48.44517" lon="7.13491">
        <ele>845</ele>
        <time>2019-05-15T09:28:49.063Z</time>
      </trkpt>
      <trkpt lat="48.44517" lon="7.1349">
        <ele>845</ele>
        <time>2019-05-15T09:28:50.063Z</time>
      </trkpt>
      <trkpt lat="48.44517" lon="7.1349">
        <ele>846</ele>
        <time>2019-05-15T09:28:51.063Z</time>
      </trkpt>
      <trkpt lat="48.44517" lon="7.13489">
        <ele>846</ele>
        <time>2019-05-15T09:28:52.063Z</time>
      </trkpt>
      <trkpt lat="48.44517" lon="7.13488">
        <ele>846</ele>
        <time>2019-05-15T09:28:53.063Z</time>
      </trkpt>
      <trkpt lat="48.44517" lon="7.13488">
        <ele>846</ele>
        <time>2019-05-15T09:28:54.063Z</time>
      </trkpt>
      <trkpt lat="48.44518" lon="7.13488">
        <ele>847</ele>
        <time>2019-05-15T09:28:55.063Z</time>
      </trkpt>
      <trkpt lat="48.44518" lon="7.13487">
        <ele>846</ele>
        <time>2019-05-15T09:28:56.063Z</time>
      </trkpt>
      <trkpt lat="48.44518" lon="7.13487">
        <ele>846</ele>
        <time>2019-05-15T09:28:57.063Z</time>
      </trkpt>
      <trkpt lat="48.44518" lon="7.13487">
        <ele>847</ele>
        <time>2019-05-15T09:28:58.063Z</time>
      </trkpt>
      <trkpt lat="48.44518" lon="7.13486">
        <ele>846</ele>
        <time>2019-05-15T09:28:59.063Z</time>
      </trkpt>
      <trkpt lat="48.44518" lon="7.13486">
        <ele>846</ele>
        <time>2019-05-15T09:29:00.063Z</time>
      </trkpt>
      <trkpt lat="48.44518" lon="7.13486">
        <ele>846</ele>
        <time>2019-05-15T09:29:01.063Z</time>
      </trkpt>
      <trkpt lat="48.44518" lon="7.13485">
        <ele>846</ele>
        <time>2019-05-15T09:29:02.063Z</time>
      </trkpt>
      <trkpt lat="48.44518" lon="7.13485">
        <ele>846</ele>
        <time>2019-05-15T09:29:03.063Z</time>
      </trkpt>
      <trkpt lat="48.44518" lon="7.13484">
        <ele>846</ele>
        <time>2019-05-15T09:29:04.063Z</time>
      </trkpt>
      <trkpt lat="48.44518" lon="7.13483">
        <ele>845</ele>
        <time>2019-05-15T09:29:05.063Z</time>
      </trkpt>
      <trkpt lat="48.44518" lon="7.13483">
        <ele>845</ele>
        <time>2019-05-15T09:29:06.063Z</time>
      </trkpt>
      <trkpt lat="48.44518" lon="7.13481">
        <ele>845</ele>
        <time>2019-05-15T09:29:07.063Z</time>
      </trkpt>
      <trkpt lat="48.44518" lon="7.1348">
        <ele>844</ele>
        <time>2019-05-15T09:29:08.063Z</time>
      </trkpt>
      <trkpt lat="48.44518" lon="7.13479">
        <ele>844</ele>
        <time>2019-05-15T09:29:09.063Z</time>
      </trkpt>
      <trkpt lat="48.44518" lon="7.13478">
        <ele>844</ele>
        <time>2019-05-15T09:29:10.063Z</time>
      </trkpt>
      <trkpt lat="48.44518" lon="7.13477">
        <ele>844</ele>
        <time>2019-05-15T09:29:11.063Z</time>
      </trkpt>
      <trkpt lat="48.44517" lon="7.13476">
        <ele>844</ele>
        <time>2019-05-15T09:29:12.063Z</time>
      </trkpt>
      <trkpt lat="48.44517" lon="7.13476">
        <ele>844</ele>
        <time>2019-05-15T09:29:13.063Z</time>
      </trkpt>
      <trkpt lat="48.44517" lon="7.13475">
        <ele>844</ele>
        <time>2019-05-15T09:29:14.063Z</time>
      </trkpt>
      <trkpt lat="48.44516" lon="7.13474">
        <ele>844</ele>
        <time>2019-05-15T09:29:15.063Z</time>
      </trkpt>
      <trkpt lat="48.44516" lon="7.13474">
        <ele>844</ele>
        <time>2019-05-15T09:29:16.063Z</time>
      </trkpt>
      <trkpt lat="48.44516" lon="7.13473">
        <ele>844</ele>
        <time>2019-05-15T09:29:17.063Z</time>
      </trkpt>
      <trkpt lat="48.44516" lon="7.13473">
        <ele>844</ele>
        <time>2019-05-15T09:29:18.063Z</time>
      </trkpt>
      <trkpt lat="48.44516" lon="7.13473">
        <ele>845</ele>
        <time>2019-05-15T09:29:19.063Z</time>
      </trkpt>
      <trkpt lat="48.44516" lon="7.13472">
        <ele>845</ele>
        <time>2019-05-15T09:29:20.063Z</time>
      </trkpt>
      <trkpt lat="48.44515" lon="7.13472">
        <ele>845</ele>
        <time>2019-05-15T09:29:21.063Z</time>
      </trkpt>
      <trkpt lat="48.44515" lon="7.13472">
        <ele>845</ele>
        <time>2019-05-15T09:29:22.063Z</time>
      </trkpt>
      <trkpt lat="48.44515" lon="7.13472">
        <ele>845</ele>
        <time>2019-05-15T09:29:23.063Z</time>
      </trkpt>
      <trkpt lat="48.44515" lon="7.13472">
        <ele>845</ele>
        <time>2019-05-15T09:29:24.063Z</time>
      </trkpt>
      <trkpt lat="48.44515" lon="7.13472">
        <ele>845</ele>
        <time>2019-05-15T09:29:25.063Z</time>
      </trkpt>
      <trkpt lat="48.44515" lon="7.13472">
        <ele>846</ele>
        <time>2019-05-15T09:29:26.063Z</time>
      </trkpt>
      <trkpt lat="48.44515" lon="7.13472">
        <ele>846</ele>
        <time>2019-05-15T09:29:27.063Z</time>
      </trkpt>
      <trkpt lat="48.44515" lon="7.13472">
        <ele>846</ele>
        <time>2019-05-15T09:29:28.063Z</time>
      </trkpt>
      <trkpt lat="48.44515" lon="7.13473">
        <ele>846</ele>
        <time>2019-05-15T09:29:29.063Z</time>
      </trkpt>
      <trkpt lat="48.44515" lon="7.13473">
        <ele>846</ele>
        <time>2019-05-15T09:29:30.063Z</time>
      </trkpt>
      <trkpt lat="48.44515" lon="7.13473">
        <ele>846</ele>
        <time>2019-05-15T09:29:31.063Z</time>
      </trkpt>
      <trkpt lat="48.44515" lon="7.13473">
        <ele>846</ele>
        <time>2019-05-15T09:29:32.063Z</time>
      </trkpt>
      <trkpt lat="48.44514" lon="7.13472">
        <ele>846</ele>
        <time>2019-05-15T09:29:33.063Z</time>
      </trkpt>
      <trkpt lat="48.44514" lon="7.13472">
        <ele>846</ele>
        <time>2019-05-15T09:29:34.063Z</time>
      </trkpt>
      <trkpt lat="48.44514" lon="7.13472">
        <ele>846</ele>
        <time>2019-05-15T09:29:35.063Z</time>
      </trkpt>
      <trkpt lat="48.44514" lon="7.13472">
        <ele>847</ele>
        <time>2019-05-15T09:29:36.063Z</time>
      </trkpt>
      <trkpt lat="48.44514" lon="7.13472">
        <ele>846</ele>
        <time>2019-05-15T09:29:37.063Z</time>
      </trkpt>
      <trkpt lat="48.44514" lon="7.13472">
        <ele>846</ele>
        <time>2019-05-15T09:29:38.063Z</time>
      </trkpt>
      <trkpt lat="48.44514" lon="7.13472">
        <ele>846</ele>
        <time>2019-05-15T09:29:39.063Z</time>
      </trkpt>
      <trkpt lat="48.44514" lon="7.13472">
        <ele>846</ele>
        <time>2019-05-15T09:29:40.063Z</time>
      </trkpt>
      <trkpt lat="48.44514" lon="7.13471">
        <ele>846</ele>
        <time>2019-05-15T09:29:41.063Z</time>
      </trkpt>
      <trkpt lat="48.44514" lon="7.13471">
        <ele>846</ele>
        <time>2019-05-15T09:29:42.063Z</time>
      </trkpt>
      <trkpt lat="48.44514" lon="7.13471">
        <ele>846</ele>
        <time>2019-05-15T09:29:43.063Z</time>
      </trkpt>
      <trkpt lat="48.44514" lon="7.13471">
        <ele>846</ele>
        <time>2019-05-15T09:29:44.063Z</time>
      </trkpt>
      <trkpt lat="48.44514" lon="7.13471">
        <ele>846</ele>
        <time>2019-05-15T09:29:45.063Z</time>
      </trkpt>
      <trkpt lat="48.44514" lon="7.13471">
        <ele>845</ele>
        <time>2019-05-15T09:29:46.063Z</time>
      </trkpt>
      <trkpt lat="48.44514" lon="7.13471">
        <ele>845</ele>
        <time>2019-05-15T09:29:47.063Z</time>
      </trkpt>
      <trkpt lat="48.44514" lon="7.13471">
        <ele>845</ele>
        <time>2019-05-15T09:29:48.063Z</time>
      </trkpt>
      <trkpt lat="48.44514" lon="7.13471">
        <ele>845</ele>
        <time>2019-05-15T09:29:49.063Z</time>
      </trkpt>
      <trkpt lat="48.44514" lon="7.13471">
        <ele>845</ele>
        <time>2019-05-15T09:29:50.063Z</time>
      </trkpt>
      <trkpt lat="48.44514" lon="7.1347">
        <ele>845</ele>
        <time>2019-05-15T09:29:51.063Z</time>
      </trkpt>
      <trkpt lat="48.44514" lon="7.1347">
        <ele>845</ele>
        <time>2019-05-15T09:29:52.063Z</time>
      </trkpt>
      <trkpt lat="48.44514" lon="7.1347">
        <ele>845</ele>
        <time>2019-05-15T09:29:53.063Z</time>
      </trkpt>
      <trkpt lat="48.44514" lon="7.1347">
        <ele>845</ele>
        <time>2019-05-15T09:29:54.063Z</time>
      </trkpt>
      <trkpt lat="48.44514" lon="7.1347">
        <ele>845</ele>
        <time>2019-05-15T09:29:55.063Z</time>
      </trkpt>
      <trkpt lat="48.44514" lon="7.1347">
        <ele>845</ele>
        <time>2019-05-15T09:29:56.063Z</time>
      </trkpt>
      <trkpt lat="48.44514" lon="7.1347">
        <ele>845</ele>
        <time>2019-05-15T09:29:57.063Z</time>
      </trkpt>
      <trkpt lat="48.44514" lon="7.1347">
        <ele>845</ele>
        <time>2019-05-15T09:29:58.063Z</time>
      </trkpt>
      <trkpt lat="48.44514" lon="7.1347">
        <ele>845</ele>
        <time>2019-05-15T09:29:59.063Z</time>
      </trkpt>
      <trkpt lat="48.44514" lon="7.1347">
        <ele>845</ele>
        <time>2019-05-15T09:30:00.063Z</time>
      </trkpt>
      <trkpt lat="48.44513" lon="7.13469">
        <ele>845</ele>
        <time>2019-05-15T09:30:01.063Z</time>
      </trkpt>
      <trkpt lat="48.44513" lon="7.13469">
        <ele>846</ele>
        <time>2019-05-15T09:30:02.063Z</time>
      </trkpt>
      <trkpt lat="48.44513" lon="7.13468">
        <ele>846</ele>
        <time>2019-05-15T09:30:03.063Z</time>
      </trkpt>
      <trkpt lat="48.44513" lon="7.13468">
        <ele>846</ele>
        <time>2019-05-15T09:30:04.063Z</time>
      </trkpt>
      <trkpt lat="48.44512" lon="7.13467">
        <ele>846</ele>
        <time>2019-05-15T09:30:05.063Z</time>
      </trkpt>
      <trkpt lat="48.44512" lon="7.13466">
        <ele>846</ele>
        <time>2019-05-15T09:30:06.063Z</time>
      </trkpt>
      <trkpt lat="48.44512" lon="7.13466">
        <ele>845</ele>
        <time>2019-05-15T09:30:07.063Z</time>
      </trkpt>
      <trkpt lat="48.44512" lon="7.13465">
        <ele>845</ele>
        <time>2019-05-15T09:30:08.063Z</time>
      </trkpt>
      <trkpt lat="48.44512" lon="7.13465">
        <ele>846</ele>
        <time>2019-05-15T09:30:09.063Z</time>
      </trkpt>
      <trkpt lat="48.44512" lon="7.13465">
        <ele>846</ele>
        <time>2019-05-15T09:30:10.063Z</time>
      </trkpt>
      <trkpt lat="48.44512" lon="7.13465">
        <ele>846</ele>
        <time>2019-05-15T09:30:11.063Z</time>
      </trkpt>
      <trkpt lat="48.44512" lon="7.13465">
        <ele>846</ele>
        <time>2019-05-15T09:30:12.063Z</time>
      </trkpt>
      <trkpt lat="48.44512" lon="7.13464">
        <ele>846</ele>
        <time>2019-05-15T09:30:13.063Z</time>
      </trkpt>
      <trkpt lat="48.44512" lon="7.13464">
        <ele>846</ele>
        <time>2019-05-15T09:30:14.063Z</time>
      </trkpt>
      <trkpt lat="48.44512" lon="7.13464">
        <ele>846</ele>
        <time>2019-05-15T09:30:15.063Z</time>
      </trkpt>
      <trkpt lat="48.44512" lon="7.13464">
        <ele>846</ele>
        <time>2019-05-15T09:30:16.063Z</time>
      </trkpt>
      <trkpt lat="48.44512" lon="7.13464">
        <ele>846</ele>
        <time>2019-05-15T09:30:17.063Z</time>
      </trkpt>
      <trkpt lat="48.44512" lon="7.13463">
        <ele>846</ele>
        <time>2019-05-15T09:30:18.063Z</time>
      </trkpt>
      <trkpt lat="48.44512" lon="7.13463">
        <ele>846</ele>
        <time>2019-05-15T09:30:19.063Z</time>
      </trkpt>
      <trkpt lat="48.44512" lon="7.13462">
        <ele>846</ele>
        <time>2019-05-15T09:30:20.063Z</time>
      </trkpt>
      <trkpt lat="48.44512" lon="7.13462">
        <ele>846</ele>
        <time>2019-05-15T09:30:21.063Z</time>
      </trkpt>
      <trkpt lat="48.44512" lon="7.13462">
        <ele>847</ele>
        <time>2019-05-15T09:30:22.063Z</time>
      </trkpt>
      <trkpt lat="48.44512" lon="7.13462">
        <ele>847</ele>
        <time>2019-05-15T09:30:23.063Z</time>
      </trkpt>
      <trkpt lat="48.44512" lon="7.13462">
        <ele>847</ele>
        <time>2019-05-15T09:30:24.063Z</time>
      </trkpt>
      <trkpt lat="48.44512" lon="7.13461">
        <ele>846</ele>
        <time>2019-05-15T09:30:25.063Z</time>
      </trkpt>
      <trkpt lat="48.44511" lon="7.13461">
        <ele>847</ele>
        <time>2019-05-15T09:30:26.063Z</time>
      </trkpt>
      <trkpt lat="48.44511" lon="7.1346">
        <ele>846</ele>
        <time>2019-05-15T09:30:27.063Z</time>
      </trkpt>
      <trkpt lat="48.44511" lon="7.13459">
        <ele>846</ele>
        <time>2019-05-15T09:30:28.063Z</time>
      </trkpt>
      <trkpt lat="48.4451" lon="7.13458">
        <ele>846</ele>
        <time>2019-05-15T09:30:29.063Z</time>
      </trkpt>
      <trkpt lat="48.4451" lon="7.13457">
        <ele>846</ele>
        <time>2019-05-15T09:30:30.063Z</time>
      </trkpt>
      <trkpt lat="48.44509" lon="7.13456">
        <ele>846</ele>
        <time>2019-05-15T09:30:31.063Z</time>
      </trkpt>
      <trkpt lat="48.44509" lon="7.13455">
        <ele>846</ele>
        <time>2019-05-15T09:30:32.063Z</time>
      </trkpt>
      <trkpt lat="48.44509" lon="7.13454">
        <ele>845</ele>
        <time>2019-05-15T09:30:33.063Z</time>
      </trkpt>
      <trkpt lat="48.44509" lon="7.13453">
        <ele>845</ele>
        <time>2019-05-15T09:30:34.063Z</time>
      </trkpt>
      <trkpt lat="48.44508" lon="7.13452">
        <ele>845</ele>
        <time>2019-05-15T09:30:35.063Z</time>
      </trkpt>
      <trkpt lat="48.44507" lon="7.13451">
        <ele>845</ele>
        <time>2019-05-15T09:30:36.063Z</time>
      </trkpt>
      <trkpt lat="48.44507" lon="7.1345">
        <ele>845</ele>
        <time>2019-05-15T09:30:37.063Z</time>
      </trkpt>
      <trkpt lat="48.44506" lon="7.13449">
        <ele>845</ele>
        <time>2019-05-15T09:30:38.063Z</time>
      </trkpt>
      <trkpt lat="48.44506" lon="7.13448">
        <ele>845</ele>
        <time>2019-05-15T09:30:39.063Z</time>
      </trkpt>
      <trkpt lat="48.44505" lon="7.13447">
        <ele>845</ele>
        <time>2019-05-15T09:30:40.063Z</time>
      </trkpt>
      <trkpt lat="48.44505" lon="7.13446">
        <ele>844</ele>
        <time>2019-05-15T09:30:41.063Z</time>
      </trkpt>
      <trkpt lat="48.44505" lon="7.13445">
        <ele>845</ele>
        <time>2019-05-15T09:30:42.063Z</time>
      </trkpt>
      <trkpt lat="48.44504" lon="7.13445">
        <ele>844</ele>
        <time>2019-05-15T09:30:43.063Z</time>
      </trkpt>
      <trkpt lat="48.44504" lon="7.13444">
        <ele>844</ele>
        <time>2019-05-15T09:30:44.063Z</time>
      </trkpt>
      <trkpt lat="48.44504" lon="7.13444">
        <ele>844</ele>
        <time>2019-05-15T09:30:45.063Z</time>
      </trkpt>
      <trkpt lat="48.44504" lon="7.13443">
        <ele>844</ele>
        <time>2019-05-15T09:30:46.063Z</time>
      </trkpt>
      <trkpt lat="48.44504" lon="7.13442">
        <ele>844</ele>
        <time>2019-05-15T09:30:47.063Z</time>
      </trkpt>
      <trkpt lat="48.44503" lon="7.13442">
        <ele>844</ele>
        <time>2019-05-15T09:30:48.063Z</time>
      </trkpt>
      <trkpt lat="48.44503" lon="7.13441">
        <ele>844</ele>
        <time>2019-05-15T09:30:49.063Z</time>
      </trkpt>
      <trkpt lat="48.44502" lon="7.13441">
        <ele>844</ele>
        <time>2019-05-15T09:30:50.063Z</time>
      </trkpt>
      <trkpt lat="48.44502" lon="7.1344">
        <ele>844</ele>
        <time>2019-05-15T09:30:51.063Z</time>
      </trkpt>
      <trkpt lat="48.44501" lon="7.1344">
        <ele>844</ele>
        <time>2019-05-15T09:30:52.063Z</time>
      </trkpt>
      <trkpt lat="48.445" lon="7.1344">
        <ele>844</ele>
        <time>2019-05-15T09:30:53.063Z</time>
      </trkpt>
      <trkpt lat="48.445" lon="7.13439">
        <ele>844</ele>
        <time>2019-05-15T09:30:54.063Z</time>
      </trkpt>
      <trkpt lat="48.44499" lon="7.13439">
        <ele>844</ele>
        <time>2019-05-15T09:30:55.063Z</time>
      </trkpt>
      <trkpt lat="48.44499" lon="7.13438">
        <ele>844</ele>
        <time>2019-05-15T09:30:56.063Z</time>
      </trkpt>
      <trkpt lat="48.44498" lon="7.13437">
        <ele>843</ele>
        <time>2019-05-15T09:30:57.063Z</time>
      </trkpt>
      <trkpt lat="48.44498" lon="7.13437">
        <ele>843</ele>
        <time>2019-05-15T09:30:58.063Z</time>
      </trkpt>
      <trkpt lat="48.44498" lon="7.13437">
        <ele>843</ele>
        <time>2019-05-15T09:30:59.063Z</time>
      </trkpt>
      <trkpt lat="48.44497" lon="7.13437">
        <ele>843</ele>
        <time>2019-05-15T09:31:00.063Z</time>
      </trkpt>
      <trkpt lat="48.44497" lon="7.13437">
        <ele>843</ele>
        <time>2019-05-15T09:31:01.063Z</time>
      </trkpt>
      <trkpt lat="48.44496" lon="7.13437">
        <ele>843</ele>
        <time>2019-05-15T09:31:02.063Z</time>
      </trkpt>
      <trkpt lat="48.44495" lon="7.13437">
        <ele>843</ele>
        <time>2019-05-15T09:31:03.063Z</time>
      </trkpt>
      <trkpt lat="48.44495" lon="7.13438">
        <ele>843</ele>
        <time>2019-05-15T09:31:04.063Z</time>
      </trkpt>
      <trkpt lat="48.44494" lon="7.13438">
        <ele>842</ele>
        <time>2019-05-15T09:31:05.063Z</time>
      </trkpt>
      <trkpt lat="48.44493" lon="7.13439">
        <ele>842</ele>
        <time>2019-05-15T09:31:06.063Z</time>
      </trkpt>
      <trkpt lat="48.44493" lon="7.1344">
        <ele>842</ele>
        <time>2019-05-15T09:31:07.063Z</time>
      </trkpt>
      <trkpt lat="48.44492" lon="7.1344">
        <ele>842</ele>
        <time>2019-05-15T09:31:08.063Z</time>
      </trkpt>
      <trkpt lat="48.44491" lon="7.13441">
        <ele>842</ele>
        <time>2019-05-15T09:31:09.063Z</time>
      </trkpt>
      <trkpt lat="48.44491" lon="7.13441">
        <ele>842</ele>
        <time>2019-05-15T09:31:10.063Z</time>
      </trkpt>
      <trkpt lat="48.4449" lon="7.13441">
        <ele>841</ele>
        <time>2019-05-15T09:31:11.063Z</time>
      </trkpt>
      <trkpt lat="48.4449" lon="7.13442">
        <ele>841</ele>
        <time>2019-05-15T09:31:12.063Z</time>
      </trkpt>
      <trkpt lat="48.44489" lon="7.13442">
        <ele>841</ele>
        <time>2019-05-15T09:31:13.063Z</time>
      </trkpt>
      <trkpt lat="48.44489" lon="7.13442">
        <ele>841</ele>
        <time>2019-05-15T09:31:14.063Z</time>
      </trkpt>
      <trkpt lat="48.44488" lon="7.13442">
        <ele>841</ele>
        <time>2019-05-15T09:31:15.063Z</time>
      </trkpt>
      <trkpt lat="48.44488" lon="7.13442">
        <ele>841</ele>
        <time>2019-05-15T09:31:16.063Z</time>
      </trkpt>
      <trkpt lat="48.44487" lon="7.13441">
        <ele>841</ele>
        <time>2019-05-15T09:31:17.063Z</time>
      </trkpt>
      <trkpt lat="48.44487" lon="7.13441">
        <ele>841</ele>
        <time>2019-05-15T09:31:18.063Z</time>
      </trkpt>
      <trkpt lat="48.44486" lon="7.13441">
        <ele>841</ele>
        <time>2019-05-15T09:31:19.063Z</time>
      </trkpt>
      <trkpt lat="48.44486" lon="7.1344">
        <ele>841</ele>
        <time>2019-05-15T09:31:20.063Z</time>
      </trkpt>
      <trkpt lat="48.44485" lon="7.13439">
        <ele>841</ele>
        <time>2019-05-15T09:31:21.063Z</time>
      </trkpt>
      <trkpt lat="48.44485" lon="7.13439">
        <ele>841</ele>
        <time>2019-05-15T09:31:22.063Z</time>
      </trkpt>
      <trkpt lat="48.44485" lon="7.13438">
        <ele>842</ele>
        <time>2019-05-15T09:31:23.063Z</time>
      </trkpt>
      <trkpt lat="48.44484" lon="7.13437">
        <ele>842</ele>
        <time>2019-05-15T09:31:24.063Z</time>
      </trkpt>
      <trkpt lat="48.44484" lon="7.13437">
        <ele>841</ele>
        <time>2019-05-15T09:31:25.063Z</time>
      </trkpt>
      <trkpt lat="48.44484" lon="7.13436">
        <ele>841</ele>
        <time>2019-05-15T09:31:26.063Z</time>
      </trkpt>
      <trkpt lat="48.44483" lon="7.13434">
        <ele>841</ele>
        <time>2019-05-15T09:31:27.063Z</time>
      </trkpt>
      <trkpt lat="48.44483" lon="7.13434">
        <ele>841</ele>
        <time>2019-05-15T09:31:28.063Z</time>
      </trkpt>
      <trkpt lat="48.44483" lon="7.13433">
        <ele>841</ele>
        <time>2019-05-15T09:31:29.063Z</time>
      </trkpt>
      <trkpt lat="48.44483" lon="7.13432">
        <ele>841</ele>
        <time>2019-05-15T09:31:30.063Z</time>
      </trkpt>
      <trkpt lat="48.44483" lon="7.13431">
        <ele>841</ele>
        <time>2019-05-15T09:31:31.063Z</time>
      </trkpt>
      <trkpt lat="48.44483" lon="7.13429">
        <ele>841</ele>
        <time>2019-05-15T09:31:32.063Z</time>
      </trkpt>
      <trkpt lat="48.44483" lon="7.13429">
        <ele>841</ele>
        <time>2019-05-15T09:31:33.063Z</time>
      </trkpt>
      <trkpt lat="48.44483" lon="7.13428">
        <ele>841</ele>
        <time>2019-05-15T09:31:34.063Z</time>
      </trkpt>
      <trkpt lat="48.44483" lon="7.13427">
        <ele>841</ele>
        <time>2019-05-15T09:31:35.063Z</time>
      </trkpt>
      <trkpt lat="48.44483" lon="7.13426">
        <ele>841</ele>
        <time>2019-05-15T09:31:36.063Z</time>
      </trkpt>
      <trkpt lat="48.44483" lon="7.13425">
        <ele>841</ele>
        <time>2019-05-15T09:31:37.063Z</time>
      </trkpt>
      <trkpt lat="48.44482" lon="7.13425">
        <ele>841</ele>
        <time>2019-05-15T09:31:38.063Z</time>
      </trkpt>
      <trkpt lat="48.44482" lon="7.13424">
        <ele>840</ele>
        <time>2019-05-15T09:31:39.063Z</time>
      </trkpt>
      <trkpt lat="48.44482" lon="7.13423">
        <ele>840</ele>
        <time>2019-05-15T09:31:40.063Z</time>
      </trkpt>
      <trkpt lat="48.44481" lon="7.13422">
        <ele>840</ele>
        <time>2019-05-15T09:31:41.063Z</time>
      </trkpt>
      <trkpt lat="48.44481" lon="7.13422">
        <ele>840</ele>
        <time>2019-05-15T09:31:42.063Z</time>
      </trkpt>
      <trkpt lat="48.44481" lon="7.13421">
        <ele>839</ele>
        <time>2019-05-15T09:31:43.063Z</time>
      </trkpt>
      <trkpt lat="48.44481" lon="7.1342">
        <ele>839</ele>
        <time>2019-05-15T09:31:44.063Z</time>
      </trkpt>
      <trkpt lat="48.44481" lon="7.13419">
        <ele>839</ele>
        <time>2019-05-15T09:31:45.063Z</time>
      </trkpt>
      <trkpt lat="48.44482" lon="7.13418">
        <ele>839</ele>
        <time>2019-05-15T09:31:46.063Z</time>
      </trkpt>
      <trkpt lat="48.44482" lon="7.13417">
        <ele>839</ele>
        <time>2019-05-15T09:31:47.063Z</time>
      </trkpt>
      <trkpt lat="48.44482" lon="7.13417">
        <ele>839</ele>
        <time>2019-05-15T09:31:48.063Z</time>
      </trkpt>
      <trkpt lat="48.44482" lon="7.13416">
        <ele>838</ele>
        <time>2019-05-15T09:31:49.063Z</time>
      </trkpt>
      <trkpt lat="48.44482" lon="7.13416">
        <ele>838</ele>
        <time>2019-05-15T09:31:50.063Z</time>
      </trkpt>
      <trkpt lat="48.44482" lon="7.13415">
        <ele>838</ele>
        <time>2019-05-15T09:31:51.063Z</time>
      </trkpt>
      <trkpt lat="48.44482" lon="7.13415">
        <ele>838</ele>
        <time>2019-05-15T09:31:52.063Z</time>
      </trkpt>
      <trkpt lat="48.44482" lon="7.13414">
        <ele>838</ele>
        <time>2019-05-15T09:31:53.063Z</time>
      </trkpt>
      <trkpt lat="48.44483" lon="7.13413">
        <ele>838</ele>
        <time>2019-05-15T09:31:54.063Z</time>
      </trkpt>
      <trkpt lat="48.44482" lon="7.13412">
        <ele>839</ele>
        <time>2019-05-15T09:31:55.063Z</time>
      </trkpt>
      <trkpt lat="48.44482" lon="7.13411">
        <ele>839</ele>
        <time>2019-05-15T09:31:56.063Z</time>
      </trkpt>
      <trkpt lat="48.44482" lon="7.1341">
        <ele>839</ele>
        <time>2019-05-15T09:31:57.063Z</time>
      </trkpt>
      <trkpt lat="48.44482" lon="7.13409">
        <ele>839</ele>
        <time>2019-05-15T09:31:58.063Z</time>
      </trkpt>
      <trkpt lat="48.44482" lon="7.13407">
        <ele>838</ele>
        <time>2019-05-15T09:31:59.063Z</time>
      </trkpt>
      <trkpt lat="48.44482" lon="7.13406">
        <ele>838</ele>
        <time>2019-05-15T09:32:00.063Z</time>
      </trkpt>
      <trkpt lat="48.44482" lon="7.13405">
        <ele>838</ele>
        <time>2019-05-15T09:32:01.063Z</time>
      </trkpt>
      <trkpt lat="48.44482" lon="7.13404">
        <ele>838</ele>
        <time>2019-05-15T09:32:02.063Z</time>
      </trkpt>
      <trkpt lat="48.44481" lon="7.13402">
        <ele>838</ele>
        <time>2019-05-15T09:32:03.063Z</time>
      </trkpt>
      <trkpt lat="48.44481" lon="7.13401">
        <ele>838</ele>
        <time>2019-05-15T09:32:04.063Z</time>
      </trkpt>
      <trkpt lat="48.4448" lon="7.134">
        <ele>838</ele>
        <time>2019-05-15T09:32:05.063Z</time>
      </trkpt>
      <trkpt lat="48.4448" lon="7.13399">
        <ele>838</ele>
        <time>2019-05-15T09:32:06.063Z</time>
      </trkpt>
      <trkpt lat="48.4448" lon="7.13398">
        <ele>838</ele>
        <time>2019-05-15T09:32:07.063Z</time>
      </trkpt>
      <trkpt lat="48.4448" lon="7.13397">
        <ele>838</ele>
        <time>2019-05-15T09:32:08.063Z</time>
      </trkpt>
      <trkpt lat="48.44479" lon="7.13396">
        <ele>838</ele>
        <time>2019-05-15T09:32:09.063Z</time>
      </trkpt>
      <trkpt lat="48.44479" lon="7.13395">
        <ele>839</ele>
        <time>2019-05-15T09:32:10.063Z</time>
      </trkpt>
      <trkpt lat="48.44478" lon="7.13394">
        <ele>839</ele>
        <time>2019-05-15T09:32:11.063Z</time>
      </trkpt>
      <trkpt lat="48.44478" lon="7.13393">
        <ele>839</ele>
        <time>2019-05-15T09:32:12.063Z</time>
      </trkpt>
      <trkpt lat="48.44477" lon="7.13392">
        <ele>839</ele>
        <time>2019-05-15T09:32:13.063Z</time>
      </trkpt>
      <trkpt lat="48.44476" lon="7.13391">
        <ele>839</ele>
        <time>2019-05-15T09:32:14.063Z</time>
      </trkpt>
      <trkpt lat="48.44476" lon="7.1339">
        <ele>839</ele>
        <time>2019-05-15T09:32:15.063Z</time>
      </trkpt>
      <trkpt lat="48.44475" lon="7.13388">
        <ele>839</ele>
        <time>2019-05-15T09:32:16.063Z</time>
      </trkpt>
      <trkpt lat="48.44475" lon="7.13387">
        <ele>839</ele>
        <time>2019-05-15T09:32:17.063Z</time>
      </trkpt>
      <trkpt lat="48.44475" lon="7.13386">
        <ele>839</ele>
        <time>2019-05-15T09:32:18.063Z</time>
      </trkpt>
      <trkpt lat="48.44474" lon="7.13385">
        <ele>839</ele>
        <time>2019-05-15T09:32:19.063Z</time>
      </trkpt>
      <trkpt lat="48.44473" lon="7.13383">
        <ele>839</ele>
        <time>2019-05-15T09:32:20.063Z</time>
      </trkpt>
      <trkpt lat="48.44473" lon="7.13382">
        <ele>839</ele>
        <time>2019-05-15T09:32:21.063Z</time>
      </trkpt>
      <trkpt lat="48.44472" lon="7.13381">
        <ele>839</ele>
        <time>2019-05-15T09:32:22.063Z</time>
      </trkpt>
      <trkpt lat="48.44472" lon="7.1338">
        <ele>839</ele>
        <time>2019-05-15T09:32:23.063Z</time>
      </trkpt>
      <trkpt lat="48.44471" lon="7.13379">
        <ele>839</ele>
        <time>2019-05-15T09:32:24.063Z</time>
      </trkpt>
      <trkpt lat="48.44472" lon="7.13378">
        <ele>838</ele>
        <time>2019-05-15T09:32:25.063Z</time>
      </trkpt>
      <trkpt lat="48.44472" lon="7.13376">
        <ele>838</ele>
        <time>2019-05-15T09:32:26.063Z</time>
      </trkpt>
      <trkpt lat="48.44472" lon="7.13375">
        <ele>838</ele>
        <time>2019-05-15T09:32:27.063Z</time>
      </trkpt>
      <trkpt lat="48.44472" lon="7.13374">
        <ele>838</ele>
        <time>2019-05-15T09:32:28.063Z</time>
      </trkpt>
      <trkpt lat="48.44473" lon="7.13372">
        <ele>838</ele>
        <time>2019-05-15T09:32:29.063Z</time>
      </trkpt>
      <trkpt lat="48.44473" lon="7.13371">
        <ele>838</ele>
        <time>2019-05-15T09:32:30.063Z</time>
      </trkpt>
      <trkpt lat="48.44473" lon="7.1337">
        <ele>838</ele>
        <time>2019-05-15T09:32:31.063Z</time>
      </trkpt>
      <trkpt lat="48.44473" lon="7.13369">
        <ele>838</ele>
        <time>2019-05-15T09:32:32.063Z</time>
      </trkpt>
      <trkpt lat="48.44474" lon="7.13368">
        <ele>838</ele>
        <time>2019-05-15T09:32:33.063Z</time>
      </trkpt>
      <trkpt lat="48.44474" lon="7.13367">
        <ele>838</ele>
        <time>2019-05-15T09:32:34.063Z</time>
      </trkpt>
      <trkpt lat="48.44474" lon="7.13366">
        <ele>838</ele>
        <time>2019-05-15T09:32:35.063Z</time>
      </trkpt>
      <trkpt lat="48.44474" lon="7.13365">
        <ele>838</ele>
        <time>2019-05-15T09:32:36.063Z</time>
      </trkpt>
      <trkpt lat="48.44473" lon="7.13364">
        <ele>838</ele>
        <time>2019-05-15T09:32:37.063Z</time>
      </trkpt>
      <trkpt lat="48.44472" lon="7.13363">
        <ele>838</ele>
        <time>2019-05-15T09:32:38.063Z</time>
      </trkpt>
      <trkpt lat="48.44472" lon="7.13362">
        <ele>838</ele>
        <time>2019-05-15T09:32:39.063Z</time>
      </trkpt>
      <trkpt lat="48.44472" lon="7.13361">
        <ele>838</ele>
        <time>2019-05-15T09:32:40.063Z</time>
      </trkpt>
      <trkpt lat="48.44472" lon="7.1336">
        <ele>838</ele>
        <time>2019-05-15T09:32:41.063Z</time>
      </trkpt>
      <trkpt lat="48.44471" lon="7.13359">
        <ele>838</ele>
        <time>2019-05-15T09:32:42.063Z</time>
      </trkpt>
      <trkpt lat="48.44471" lon="7.13359">
        <ele>838</ele>
        <time>2019-05-15T09:32:43.063Z</time>
      </trkpt>
      <trkpt lat="48.4447" lon="7.13358">
        <ele>838</ele>
        <time>2019-05-15T09:32:44.063Z</time>
      </trkpt>
      <trkpt lat="48.4447" lon="7.13357">
        <ele>838</ele>
        <time>2019-05-15T09:32:45.063Z</time>
      </trkpt>
      <trkpt lat="48.44469" lon="7.13357">
        <ele>838</ele>
        <time>2019-05-15T09:32:46.063Z</time>
      </trkpt>
      <trkpt lat="48.44468" lon="7.13356">
        <ele>838</ele>
        <time>2019-05-15T09:32:47.063Z</time>
      </trkpt>
      <trkpt lat="48.44467" lon="7.13355">
        <ele>838</ele>
        <time>2019-05-15T09:32:48.063Z</time>
      </trkpt>
      <trkpt lat="48.44467" lon="7.13355">
        <ele>838</ele>
        <time>2019-05-15T09:32:49.063Z</time>
      </trkpt>
      <trkpt lat="48.44466" lon="7.13354">
        <ele>838</ele>
        <time>2019-05-15T09:32:50.063Z</time>
      </trkpt>
      <trkpt lat="48.44466" lon="7.13353">
        <ele>838</ele>
        <time>2019-05-15T09:32:51.063Z</time>
      </trkpt>
      <trkpt lat="48.44465" lon="7.13353">
        <ele>838</ele>
        <time>2019-05-15T09:32:52.063Z</time>
      </trkpt>
      <trkpt lat="48.44465" lon="7.13352">
        <ele>838</ele>
        <time>2019-05-15T09:32:53.063Z</time>
      </trkpt>
      <trkpt lat="48.44464" lon="7.13352">
        <ele>838</ele>
        <time>2019-05-15T09:32:54.063Z</time>
      </trkpt>
      <trkpt lat="48.44463" lon="7.13351">
        <ele>838</ele>
        <time>2019-05-15T09:32:55.063Z</time>
      </trkpt>
      <trkpt lat="48.44463" lon="7.1335">
        <ele>838</ele>
        <time>2019-05-15T09:32:56.063Z</time>
      </trkpt>
      <trkpt lat="48.44462" lon="7.1335">
        <ele>838</ele>
        <time>2019-05-15T09:32:57.063Z</time>
      </trkpt>
      <trkpt lat="48.44461" lon="7.13349">
        <ele>838</ele>
        <time>2019-05-15T09:32:58.063Z</time>
      </trkpt>
      <trkpt lat="48.44461" lon="7.13348">
        <ele>838</ele>
        <time>2019-05-15T09:32:59.063Z</time>
      </trkpt>
      <trkpt lat="48.4446" lon="7.13347">
        <ele>838</ele>
        <time>2019-05-15T09:33:00.063Z</time>
      </trkpt>
      <trkpt lat="48.44459" lon="7.13346">
        <ele>838</ele>
        <time>2019-05-15T09:33:01.063Z</time>
      </trkpt>
      <trkpt lat="48.44459" lon="7.13346">
        <ele>838</ele>
        <time>2019-05-15T09:33:02.063Z</time>
      </trkpt>
      <trkpt lat="48.44458" lon="7.13345">
        <ele>837</ele>
        <time>2019-05-15T09:33:03.063Z</time>
      </trkpt>
      <trkpt lat="48.44457" lon="7.13345">
        <ele>837</ele>
        <time>2019-05-15T09:33:04.063Z</time>
      </trkpt>
      <trkpt lat="48.44456" lon="7.13344">
        <ele>837</ele>
        <time>2019-05-15T09:33:05.063Z</time>
      </trkpt>
      <trkpt lat="48.44455" lon="7.13343">
        <ele>837</ele>
        <time>2019-05-15T09:33:06.063Z</time>
      </trkpt>
      <trkpt lat="48.44455" lon="7.13343">
        <ele>837</ele>
        <time>2019-05-15T09:33:07.063Z</time>
      </trkpt>
      <trkpt lat="48.44454" lon="7.13342">
        <ele>837</ele>
        <time>2019-05-15T09:33:08.063Z</time>
      </trkpt>
      <trkpt lat="48.44453" lon="7.13342">
        <ele>837</ele>
        <time>2019-05-15T09:33:09.063Z</time>
      </trkpt>
      <trkpt lat="48.44453" lon="7.13341">
        <ele>837</ele>
        <time>2019-05-15T09:33:10.063Z</time>
      </trkpt>
      <trkpt lat="48.44452" lon="7.13341">
        <ele>837</ele>
        <time>2019-05-15T09:33:11.063Z</time>
      </trkpt>
      <trkpt lat="48.44451" lon="7.1334">
        <ele>837</ele>
        <time>2019-05-15T09:33:12.063Z</time>
      </trkpt>
      <trkpt lat="48.4445" lon="7.1334">
        <ele>837</ele>
        <time>2019-05-15T09:33:13.063Z</time>
      </trkpt>
      <trkpt lat="48.4445" lon="7.13339">
        <ele>837</ele>
        <time>2019-05-15T09:33:14.063Z</time>
      </trkpt>
      <trkpt lat="48.44449" lon="7.13339">
        <ele>837</ele>
        <time>2019-05-15T09:33:15.063Z</time>
      </trkpt>
      <trkpt lat="48.44449" lon="7.13339">
        <ele>837</ele>
        <time>2019-05-15T09:33:16.063Z</time>
      </trkpt>
      <trkpt lat="48.44448" lon="7.13338">
        <ele>837</ele>
        <time>2019-05-15T09:33:17.063Z</time>
      </trkpt>
      <trkpt lat="48.44447" lon="7.13337">
        <ele>837</ele>
        <time>2019-05-15T09:33:18.063Z</time>
      </trkpt>
      <trkpt lat="48.44447" lon="7.13337">
        <ele>837</ele>
        <time>2019-05-15T09:33:19.063Z</time>
      </trkpt>
      <trkpt lat="48.44447" lon="7.13336">
        <ele>837</ele>
        <time>2019-05-15T09:33:20.063Z</time>
      </trkpt>
      <trkpt lat="48.44446" lon="7.13336">
        <ele>837</ele>
        <time>2019-05-15T09:33:21.063Z</time>
      </trkpt>
      <trkpt lat="48.44446" lon="7.13336">
        <ele>837</ele>
        <time>2019-05-15T09:33:22.063Z</time>
      </trkpt>
      <trkpt lat="48.44446" lon="7.13336">
        <ele>837</ele>
        <time>2019-05-15T09:33:23.063Z</time>
      </trkpt>
      <trkpt lat="48.44446" lon="7.13336">
        <ele>838</ele>
        <time>2019-05-15T09:33:24.063Z</time>
      </trkpt>
      <trkpt lat="48.44446" lon="7.13336">
        <ele>838</ele>
        <time>2019-05-15T09:33:25.063Z</time>
      </trkpt>
      <trkpt lat="48.44446" lon="7.13336">
        <ele>839</ele>
        <time>2019-05-15T09:33:26.063Z</time>
      </trkpt>
      <trkpt lat="48.44446" lon="7.13336">
        <ele>839</ele>
        <time>2019-05-15T09:33:27.063Z</time>
      </trkpt>
      <trkpt lat="48.44445" lon="7.13336">
        <ele>839</ele>
        <time>2019-05-15T09:33:28.063Z</time>
      </trkpt>
      <trkpt lat="48.44445" lon="7.13336">
        <ele>839</ele>
        <time>2019-05-15T09:33:29.063Z</time>
      </trkpt>
      <trkpt lat="48.44445" lon="7.13336">
        <ele>839</ele>
        <time>2019-05-15T09:33:30.063Z</time>
      </trkpt>
      <trkpt lat="48.44445" lon="7.13336">
        <ele>839</ele>
        <time>2019-05-15T09:33:31.063Z</time>
      </trkpt>
      <trkpt lat="48.44444" lon="7.13336">
        <ele>839</ele>
        <time>2019-05-15T09:33:32.063Z</time>
      </trkpt>
      <trkpt lat="48.44444" lon="7.13336">
        <ele>839</ele>
        <time>2019-05-15T09:33:33.063Z</time>
      </trkpt>
      <trkpt lat="48.44444" lon="7.13336">
        <ele>840</ele>
        <time>2019-05-15T09:33:34.063Z</time>
      </trkpt>
      <trkpt lat="48.44444" lon="7.13336">
        <ele>840</ele>
        <time>2019-05-15T09:33:35.063Z</time>
      </trkpt>
      <trkpt lat="48.44443" lon="7.13336">
        <ele>840</ele>
        <time>2019-05-15T09:33:36.063Z</time>
      </trkpt>
      <trkpt lat="48.44443" lon="7.13336">
        <ele>840</ele>
        <time>2019-05-15T09:33:37.063Z</time>
      </trkpt>
      <trkpt lat="48.44443" lon="7.13336">
        <ele>840</ele>
        <time>2019-05-15T09:33:38.063Z</time>
      </trkpt>
      <trkpt lat="48.44443" lon="7.13336">
        <ele>840</ele>
        <time>2019-05-15T09:33:39.063Z</time>
      </trkpt>
      <trkpt lat="48.44443" lon="7.13336">
        <ele>840</ele>
        <time>2019-05-15T09:33:40.063Z</time>
      </trkpt>
      <trkpt lat="48.44443" lon="7.13336">
        <ele>840</ele>
        <time>2019-05-15T09:33:41.063Z</time>
      </trkpt>
      <trkpt lat="48.44443" lon="7.13336">
        <ele>840</ele>
        <time>2019-05-15T09:33:42.063Z</time>
      </trkpt>
      <trkpt lat="48.44443" lon="7.13336">
        <ele>840</ele>
        <time>2019-05-15T09:33:43.063Z</time>
      </trkpt>
      <trkpt lat="48.44443" lon="7.13337">
        <ele>841</ele>
        <time>2019-05-15T09:33:44.063Z</time>
      </trkpt>
      <trkpt lat="48.44442" lon="7.13337">
        <ele>841</ele>
        <time>2019-05-15T09:33:45.063Z</time>
      </trkpt>
      <trkpt lat="48.44442" lon="7.13337">
        <ele>841</ele>
        <time>2019-05-15T09:33:46.063Z</time>
      </trkpt>
      <trkpt lat="48.44442" lon="7.13337">
        <ele>841</ele>
        <time>2019-05-15T09:33:47.063Z</time>
      </trkpt>
      <trkpt lat="48.44442" lon="7.13337">
        <ele>841</ele>
        <time>2019-05-15T09:33:48.063Z</time>
      </trkpt>
      <trkpt lat="48.44442" lon="7.13337">
        <ele>841</ele>
        <time>2019-05-15T09:33:49.063Z</time>
      </trkpt>
      <trkpt lat="48.44442" lon="7.13337">
        <ele>841</ele>
        <time>2019-05-15T09:33:50.063Z</time>
      </trkpt>
      <trkpt lat="48.44441" lon="7.13336">
        <ele>841</ele>
        <time>2019-05-15T09:33:51.063Z</time>
      </trkpt>
      <trkpt lat="48.44441" lon="7.13336">
        <ele>841</ele>
        <time>2019-05-15T09:33:52.063Z</time>
      </trkpt>
      <trkpt lat="48.44441" lon="7.13336">
        <ele>841</ele>
        <time>2019-05-15T09:33:53.063Z</time>
      </trkpt>
      <trkpt lat="48.4444" lon="7.13336">
        <ele>840</ele>
        <time>2019-05-15T09:33:54.063Z</time>
      </trkpt>
      <trkpt lat="48.4444" lon="7.13336">
        <ele>840</ele>
        <time>2019-05-15T09:33:55.063Z</time>
      </trkpt>
      <trkpt lat="48.4444" lon="7.13335">
        <ele>840</ele>
        <time>2019-05-15T09:33:56.063Z</time>
      </trkpt>
      <trkpt lat="48.44439" lon="7.13335">
        <ele>839</ele>
        <time>2019-05-15T09:33:57.063Z</time>
      </trkpt>
      <trkpt lat="48.44438" lon="7.13334">
        <ele>839</ele>
        <time>2019-05-15T09:33:58.063Z</time>
      </trkpt>
      <trkpt lat="48.44438" lon="7.13333">
        <ele>838</ele>
        <time>2019-05-15T09:33:59.063Z</time>
      </trkpt>
      <trkpt lat="48.44437" lon="7.13332">
        <ele>838</ele>
        <time>2019-05-15T09:34:00.063Z</time>
      </trkpt>
      <trkpt lat="48.44437" lon="7.13332">
        <ele>838</ele>
        <time>2019-05-15T09:34:01.063Z</time>
      </trkpt>
      <trkpt lat="48.44437" lon="7.13331">
        <ele>838</ele>
        <time>2019-05-15T09:34:02.063Z</time>
      </trkpt>
      <trkpt lat="48.44436" lon="7.13331">
        <ele>838</ele>
        <time>2019-05-15T09:34:03.063Z</time>
      </trkpt>
      <trkpt lat="48.44436" lon="7.13331">
        <ele>838</ele>
        <time>2019-05-15T09:34:04.063Z</time>
      </trkpt>
      <trkpt lat="48.44435" lon="7.1333">
        <ele>837</ele>
        <time>2019-05-15T09:34:05.063Z</time>
      </trkpt>
      <trkpt lat="48.44434" lon="7.1333">
        <ele>837</ele>
        <time>2019-05-15T09:34:06.063Z</time>
      </trkpt>
      <trkpt lat="48.44433" lon="7.13329">
        <ele>837</ele>
        <time>2019-05-15T09:34:07.063Z</time>
      </trkpt>
      <trkpt lat="48.44433" lon="7.13328">
        <ele>837</ele>
        <time>2019-05-15T09:34:08.063Z</time>
      </trkpt>
      <trkpt lat="48.44432" lon="7.13328">
        <ele>838</ele>
        <time>2019-05-15T09:34:09.063Z</time>
      </trkpt>
      <trkpt lat="48.44431" lon="7.13328">
        <ele>837</ele>
        <time>2019-05-15T09:34:10.063Z</time>
      </trkpt>
      <trkpt lat="48.4443" lon="7.13327">
        <ele>837</ele>
        <time>2019-05-15T09:34:11.063Z</time>
      </trkpt>
      <trkpt lat="48.44429" lon="7.13327">
        <ele>837</ele>
        <time>2019-05-15T09:34:12.063Z</time>
      </trkpt>
      <trkpt lat="48.44428" lon="7.13326">
        <ele>837</ele>
        <time>2019-05-15T09:34:13.063Z</time>
      </trkpt>
      <trkpt lat="48.44427" lon="7.13325">
        <ele>837</ele>
        <time>2019-05-15T09:34:14.063Z</time>
      </trkpt>
      <trkpt lat="48.44426" lon="7.13324">
        <ele>836</ele>
        <time>2019-05-15T09:34:15.063Z</time>
      </trkpt>
      <trkpt lat="48.44426" lon="7.13324">
        <ele>836</ele>
        <time>2019-05-15T09:34:16.063Z</time>
      </trkpt>
      <trkpt lat="48.44425" lon="7.13324">
        <ele>836</ele>
        <time>2019-05-15T09:34:17.063Z</time>
      </trkpt>
      <trkpt lat="48.44425" lon="7.13323">
        <ele>836</ele>
        <time>2019-05-15T09:34:18.063Z</time>
      </trkpt>
      <trkpt lat="48.44425" lon="7.13323">
        <ele>836</ele>
        <time>2019-05-15T09:34:19.063Z</time>
      </trkpt>
      <trkpt lat="48.44425" lon="7.13323">
        <ele>837</ele>
        <time>2019-05-15T09:34:20.063Z</time>
      </trkpt>
      <trkpt lat="48.44424" lon="7.13323">
        <ele>837</ele>
        <time>2019-05-15T09:34:21.063Z</time>
      </trkpt>
      <trkpt lat="48.44424" lon="7.13324">
        <ele>837</ele>
        <time>2019-05-15T09:34:22.063Z</time>
      </trkpt>
      <trkpt lat="48.44424" lon="7.13324">
        <ele>837</ele>
        <time>2019-05-15T09:34:23.063Z</time>
      </trkpt>
      <trkpt lat="48.44424" lon="7.13323">
        <ele>837</ele>
        <time>2019-05-15T09:34:24.063Z</time>
      </trkpt>
      <trkpt lat="48.44424" lon="7.13323">
        <ele>836</ele>
        <time>2019-05-15T09:34:25.063Z</time>
      </trkpt>
      <trkpt lat="48.44423" lon="7.13322">
        <ele>836</ele>
        <time>2019-05-15T09:34:26.063Z</time>
      </trkpt>
      <trkpt lat="48.44422" lon="7.13321">
        <ele>836</ele>
        <time>2019-05-15T09:34:27.063Z</time>
      </trkpt>
      <trkpt lat="48.44422" lon="7.1332">
        <ele>836</ele>
        <time>2019-05-15T09:34:28.063Z</time>
      </trkpt>
      <trkpt lat="48.44421" lon="7.1332">
        <ele>836</ele>
        <time>2019-05-15T09:34:29.063Z</time>
      </trkpt>
      <trkpt lat="48.44421" lon="7.13318">
        <ele>836</ele>
        <time>2019-05-15T09:34:30.063Z</time>
      </trkpt>
      <trkpt lat="48.4442" lon="7.13317">
        <ele>836</ele>
        <time>2019-05-15T09:34:31.063Z</time>
      </trkpt>
      <trkpt lat="48.4442" lon="7.13316">
        <ele>836</ele>
        <time>2019-05-15T09:34:32.063Z</time>
      </trkpt>
      <trkpt lat="48.44419" lon="7.13315">
        <ele>836</ele>
        <time>2019-05-15T09:34:33.063Z</time>
      </trkpt>
      <trkpt lat="48.44418" lon="7.13314">
        <ele>836</ele>
        <time>2019-05-15T09:34:34.063Z</time>
      </trkpt>
      <trkpt lat="48.44418" lon="7.13313">
        <ele>836</ele>
        <time>2019-05-15T09:34:35.063Z</time>
      </trkpt>
      <trkpt lat="48.44417" lon="7.13312">
        <ele>837</ele>
        <time>2019-05-15T09:34:36.063Z</time>
      </trkpt>
      <trkpt lat="48.44417" lon="7.13312">
        <ele>837</ele>
        <time>2019-05-15T09:34:37.063Z</time>
      </trkpt>
      <trkpt lat="48.44417" lon="7.13311">
        <ele>838</ele>
        <time>2019-05-15T09:34:38.063Z</time>
      </trkpt>
      <trkpt lat="48.44416" lon="7.13311">
        <ele>838</ele>
        <time>2019-05-15T09:34:39.063Z</time>
      </trkpt>
      <trkpt lat="48.44415" lon="7.1331">
        <ele>838</ele>
        <time>2019-05-15T09:34:40.063Z</time>
      </trkpt>
      <trkpt lat="48.44415" lon="7.13309">
        <ele>838</ele>
        <time>2019-05-15T09:34:41.063Z</time>
      </trkpt>
      <trkpt lat="48.44415" lon="7.13308">
        <ele>838</ele>
        <time>2019-05-15T09:34:42.063Z</time>
      </trkpt>
      <trkpt lat="48.44414" lon="7.13307">
        <ele>838</ele>
        <time>2019-05-15T09:34:43.063Z</time>
      </trkpt>
      <trkpt lat="48.44414" lon="7.13306">
        <ele>838</ele>
        <time>2019-05-15T09:34:44.063Z</time>
      </trkpt>
      <trkpt lat="48.44414" lon="7.13305">
        <ele>838</ele>
        <time>2019-05-15T09:34:45.063Z</time>
      </trkpt>
      <trkpt lat="48.44414" lon="7.13305">
        <ele>838</ele>
        <time>2019-05-15T09:34:46.063Z</time>
      </trkpt>
      <trkpt lat="48.44414" lon="7.13305">
        <ele>838</ele>
        <time>2019-05-15T09:34:47.063Z</time>
      </trkpt>
      <trkpt lat="48.44414" lon="7.13304">
        <ele>838</ele>
        <time>2019-05-15T09:34:48.063Z</time>
      </trkpt>
      <trkpt lat="48.44414" lon="7.13304">
        <ele>838</ele>
        <time>2019-05-15T09:34:49.063Z</time>
      </trkpt>
      <trkpt lat="48.44414" lon="7.13304">
        <ele>838</ele>
        <time>2019-05-15T09:34:50.063Z</time>
      </trkpt>
      <trkpt lat="48.44414" lon="7.13303">
        <ele>838</ele>
        <time>2019-05-15T09:34:51.063Z</time>
      </trkpt>
      <trkpt lat="48.44414" lon="7.13303">
        <ele>838</ele>
        <time>2019-05-15T09:34:52.063Z</time>
      </trkpt>
      <trkpt lat="48.44414" lon="7.13303">
        <ele>838</ele>
        <time>2019-05-15T09:34:53.063Z</time>
      </trkpt>
      <trkpt lat="48.44414" lon="7.13303">
        <ele>839</ele>
        <time>2019-05-15T09:34:54.063Z</time>
      </trkpt>
      <trkpt lat="48.44414" lon="7.13303">
        <ele>839</ele>
        <time>2019-05-15T09:34:55.063Z</time>
      </trkpt>
      <trkpt lat="48.44414" lon="7.13302">
        <ele>838</ele>
        <time>2019-05-15T09:34:56.063Z</time>
      </trkpt>
      <trkpt lat="48.44414" lon="7.13302">
        <ele>839</ele>
        <time>2019-05-15T09:34:57.063Z</time>
      </trkpt>
      <trkpt lat="48.44414" lon="7.13302">
        <ele>839</ele>
        <time>2019-05-15T09:34:58.063Z</time>
      </trkpt>
      <trkpt lat="48.44414" lon="7.13302">
        <ele>838</ele>
        <time>2019-05-15T09:34:59.063Z</time>
      </trkpt>
      <trkpt lat="48.44414" lon="7.13302">
        <ele>839</ele>
        <time>2019-05-15T09:35:00.063Z</time>
      </trkpt>
      <trkpt lat="48.44414" lon="7.13302">
        <ele>839</ele>
        <time>2019-05-15T09:35:01.063Z</time>
      </trkpt>
      <trkpt lat="48.44414" lon="7.13302">
        <ele>839</ele>
        <time>2019-05-15T09:35:02.063Z</time>
      </trkpt>
      <trkpt lat="48.44414" lon="7.13302">
        <ele>838</ele>
        <time>2019-05-15T09:35:03.063Z</time>
      </trkpt>
      <trkpt lat="48.44414" lon="7.13302">
        <ele>839</ele>
        <time>2019-05-15T09:35:04.063Z</time>
      </trkpt>
      <trkpt lat="48.44414" lon="7.13302">
        <ele>839</ele>
        <time>2019-05-15T09:35:05.063Z</time>
      </trkpt>
      <trkpt lat="48.44415" lon="7.13302">
        <ele>839</ele>
        <time>2019-05-15T09:35:06.063Z</time>
      </trkpt>
      <trkpt lat="48.44415" lon="7.13302">
        <ele>840</ele>
        <time>2019-05-15T09:35:07.063Z</time>
      </trkpt>
      <trkpt lat="48.44415" lon="7.13302">
        <ele>840</ele>
        <time>2019-05-15T09:35:08.063Z</time>
      </trkpt>
      <trkpt lat="48.44415" lon="7.13302">
        <ele>840</ele>
        <time>2019-05-15T09:35:09.063Z</time>
      </trkpt>
      <trkpt lat="48.44415" lon="7.13302">
        <ele>840</ele>
        <time>2019-05-15T09:35:10.063Z</time>
      </trkpt>
      <trkpt lat="48.44415" lon="7.13302">
        <ele>841</ele>
        <time>2019-05-15T09:35:11.063Z</time>
      </trkpt>
      <trkpt lat="48.44415" lon="7.13302">
        <ele>841</ele>
        <time>2019-05-15T09:35:12.063Z</time>
      </trkpt>
      <trkpt lat="48.44415" lon="7.13302">
        <ele>841</ele>
        <time>2019-05-15T09:35:13.063Z</time>
      </trkpt>
      <trkpt lat="48.44415" lon="7.13302">
        <ele>842</ele>
        <time>2019-05-15T09:35:14.063Z</time>
      </trkpt>
      <trkpt lat="48.44415" lon="7.13302">
        <ele>842</ele>
        <time>2019-05-15T09:35:15.063Z</time>
      </trkpt>
      <trkpt lat="48.44415" lon="7.13302">
        <ele>842</ele>
        <time>2019-05-15T09:35:16.063Z</time>
      </trkpt>
      <trkpt lat="48.44415" lon="7.13302">
        <ele>841</ele>
        <time>2019-05-15T09:35:17.063Z</time>
      </trkpt>
      <trkpt lat="48.44415" lon="7.13302">
        <ele>842</ele>
        <time>2019-05-15T09:35:18.063Z</time>
      </trkpt>
      <trkpt lat="48.44414" lon="7.13301">
        <ele>841</ele>
        <time>2019-05-15T09:35:19.063Z</time>
      </trkpt>
      <trkpt lat="48.44414" lon="7.13301">
        <ele>841</ele>
        <time>2019-05-15T09:35:20.063Z</time>
      </trkpt>
      <trkpt lat="48.44414" lon="7.133">
        <ele>840</ele>
        <time>2019-05-15T09:35:21.063Z</time>
      </trkpt>
      <trkpt lat="48.44413" lon="7.13299">
        <ele>840</ele>
        <time>2019-05-15T09:35:22.063Z</time>
      </trkpt>
      <trkpt lat="48.44413" lon="7.13298">
        <ele>840</ele>
        <time>2019-05-15T09:35:23.063Z</time>
      </trkpt>
      <trkpt lat="48.44413" lon="7.13297">
        <ele>840</ele>
        <time>2019-05-15T09:35:24.063Z</time>
      </trkpt>
      <trkpt lat="48.44413" lon="7.13296">
        <ele>839</ele>
        <time>2019-05-15T09:35:25.063Z</time>
      </trkpt>
      <trkpt lat="48.44412" lon="7.13295">
        <ele>839</ele>
        <time>2019-05-15T09:35:26.063Z</time>
      </trkpt>
      <trkpt lat="48.44412" lon="7.13294">
        <ele>839</ele>
        <time>2019-05-15T09:35:27.063Z</time>
      </trkpt>
      <trkpt lat="48.44411" lon="7.13292">
        <ele>839</ele>
        <time>2019-05-15T09:35:28.063Z</time>
      </trkpt>
      <trkpt lat="48.44411" lon="7.13291">
        <ele>838</ele>
        <time>2019-05-15T09:35:29.063Z</time>
      </trkpt>
      <trkpt lat="48.44411" lon="7.1329">
        <ele>838</ele>
        <time>2019-05-15T09:35:30.063Z</time>
      </trkpt>
      <trkpt lat="48.4441" lon="7.13288">
        <ele>838</ele>
        <time>2019-05-15T09:35:31.063Z</time>
      </trkpt>
      <trkpt lat="48.4441" lon="7.13287">
        <ele>838</ele>
        <time>2019-05-15T09:35:32.063Z</time>
      </trkpt>
      <trkpt lat="48.44409" lon="7.13286">
        <ele>838</ele>
        <time>2019-05-15T09:35:33.063Z</time>
      </trkpt>
      <trkpt lat="48.44409" lon="7.13284">
        <ele>838</ele>
        <time>2019-05-15T09:35:34.063Z</time>
      </trkpt>
      <trkpt lat="48.44408" lon="7.13283">
        <ele>838</ele>
        <time>2019-05-15T09:35:35.063Z</time>
      </trkpt>
      <trkpt lat="48.44408" lon="7.13282">
        <ele>838</ele>
        <time>2019-05-15T09:35:36.063Z</time>
      </trkpt>
      <trkpt lat="48.44407" lon="7.13281">
        <ele>838</ele>
        <time>2019-05-15T09:35:37.063Z</time>
      </trkpt>
      <trkpt lat="48.44407" lon="7.13279">
        <ele>839</ele>
        <time>2019-05-15T09:35:38.063Z</time>
      </trkpt>
      <trkpt lat="48.44406" lon="7.13278">
        <ele>839</ele>
        <time>2019-05-15T09:35:39.063Z</time>
      </trkpt>
      <trkpt lat="48.44405" lon="7.13278">
        <ele>838</ele>
        <time>2019-05-15T09:35:40.063Z</time>
      </trkpt>
      <trkpt lat="48.44405" lon="7.13277">
        <ele>838</ele>
        <time>2019-05-15T09:35:41.063Z</time>
      </trkpt>
      <trkpt lat="48.44404" lon="7.13276">
        <ele>838</ele>
        <time>2019-05-15T09:35:42.063Z</time>
      </trkpt>
      <trkpt lat="48.44404" lon="7.13276">
        <ele>838</ele>
        <time>2019-05-15T09:35:43.063Z</time>
      </trkpt>
      <trkpt lat="48.44403" lon="7.13275">
        <ele>838</ele>
        <time>2019-05-15T09:35:44.063Z</time>
      </trkpt>
      <trkpt lat="48.44403" lon="7.13275">
        <ele>839</ele>
        <time>2019-05-15T09:35:45.063Z</time>
      </trkpt>
      <trkpt lat="48.44402" lon="7.13274">
        <ele>839</ele>
        <time>2019-05-15T09:35:46.063Z</time>
      </trkpt>
      <trkpt lat="48.44402" lon="7.13273">
        <ele>839</ele>
        <time>2019-05-15T09:35:47.063Z</time>
      </trkpt>
      <trkpt lat="48.44402" lon="7.13272">
        <ele>839</ele>
        <time>2019-05-15T09:35:48.063Z</time>
      </trkpt>
      <trkpt lat="48.44401" lon="7.13271">
        <ele>839</ele>
        <time>2019-05-15T09:35:49.063Z</time>
      </trkpt>
      <trkpt lat="48.44401" lon="7.1327">
        <ele>839</ele>
        <time>2019-05-15T09:35:50.063Z</time>
      </trkpt>
      <trkpt lat="48.444" lon="7.13269">
        <ele>838</ele>
        <time>2019-05-15T09:35:51.063Z</time>
      </trkpt>
      <trkpt lat="48.444" lon="7.13268">
        <ele>838</ele>
        <time>2019-05-15T09:35:52.063Z</time>
      </trkpt>
      <trkpt lat="48.44399" lon="7.13267">
        <ele>839</ele>
        <time>2019-05-15T09:35:53.063Z</time>
      </trkpt>
      <trkpt lat="48.44398" lon="7.13266">
        <ele>838</ele>
        <time>2019-05-15T09:35:54.063Z</time>
      </trkpt>
      <trkpt lat="48.44397" lon="7.13265">
        <ele>838</ele>
        <time>2019-05-15T09:35:55.063Z</time>
      </trkpt>
      <trkpt lat="48.44397" lon="7.13264">
        <ele>839</ele>
        <time>2019-05-15T09:35:56.063Z</time>
      </trkpt>
      <trkpt lat="48.44396" lon="7.13263">
        <ele>839</ele>
        <time>2019-05-15T09:35:57.063Z</time>
      </trkpt>
      <trkpt lat="48.44395" lon="7.13262">
        <ele>839</ele>
        <time>2019-05-15T09:35:58.063Z</time>
      </trkpt>
      <trkpt lat="48.44394" lon="7.13261">
        <ele>840</ele>
        <time>2019-05-15T09:35:59.063Z</time>
      </trkpt>
      <trkpt lat="48.44393" lon="7.1326">
        <ele>840</ele>
        <time>2019-05-15T09:36:00.063Z</time>
      </trkpt>
      <trkpt lat="48.44392" lon="7.13259">
        <ele>840</ele>
        <time>2019-05-15T09:36:01.063Z</time>
      </trkpt>
      <trkpt lat="48.44391" lon="7.13259">
        <ele>840</ele>
        <time>2019-05-15T09:36:02.063Z</time>
      </trkpt>
      <trkpt lat="48.44391" lon="7.13258">
        <ele>840</ele>
        <time>2019-05-15T09:36:03.063Z</time>
      </trkpt>
      <trkpt lat="48.4439" lon="7.13257">
        <ele>841</ele>
        <time>2019-05-15T09:36:04.063Z</time>
      </trkpt>
      <trkpt lat="48.44389" lon="7.13256">
        <ele>841</ele>
        <time>2019-05-15T09:36:05.063Z</time>
      </trkpt>
      <trkpt lat="48.44388" lon="7.13256">
        <ele>841</ele>
        <time>2019-05-15T09:36:06.063Z</time>
      </trkpt>
      <trkpt lat="48.44387" lon="7.13255">
        <ele>841</ele>
        <time>2019-05-15T09:36:07.063Z</time>
      </trkpt>
      <trkpt lat="48.44387" lon="7.13254">
        <ele>842</ele>
        <time>2019-05-15T09:36:08.063Z</time>
      </trkpt>
      <trkpt lat="48.44386" lon="7.13254">
        <ele>842</ele>
        <time>2019-05-15T09:36:09.063Z</time>
      </trkpt>
      <trkpt lat="48.44385" lon="7.13253">
        <ele>842</ele>
        <time>2019-05-15T09:36:10.063Z</time>
      </trkpt>
      <trkpt lat="48.44385" lon="7.13252">
        <ele>842</ele>
        <time>2019-05-15T09:36:11.063Z</time>
      </trkpt>
      <trkpt lat="48.44384" lon="7.13251">
        <ele>842</ele>
        <time>2019-05-15T09:36:12.063Z</time>
      </trkpt>
      <trkpt lat="48.44383" lon="7.13249">
        <ele>841</ele>
        <time>2019-05-15T09:36:13.063Z</time>
      </trkpt>
      <trkpt lat="48.44382" lon="7.13248">
        <ele>841</ele>
        <time>2019-05-15T09:36:14.063Z</time>
      </trkpt>
      <trkpt lat="48.44382" lon="7.13246">
        <ele>841</ele>
        <time>2019-05-15T09:36:15.063Z</time>
      </trkpt>
      <trkpt lat="48.44381" lon="7.13245">
        <ele>841</ele>
        <time>2019-05-15T09:36:16.063Z</time>
      </trkpt>
      <trkpt lat="48.4438" lon="7.13245">
        <ele>841</ele>
        <time>2019-05-15T09:36:17.063Z</time>
      </trkpt>
      <trkpt lat="48.4438" lon="7.13244">
        <ele>841</ele>
        <time>2019-05-15T09:36:18.063Z</time>
      </trkpt>
      <trkpt lat="48.44379" lon="7.13244">
        <ele>841</ele>
        <time>2019-05-15T09:36:19.063Z</time>
      </trkpt>
      <trkpt lat="48.44378" lon="7.13243">
        <ele>841</ele>
        <time>2019-05-15T09:36:20.063Z</time>
      </trkpt>
      <trkpt lat="48.44378" lon="7.13242">
        <ele>841</ele>
        <time>2019-05-15T09:36:21.063Z</time>
      </trkpt>
      <trkpt lat="48.44377" lon="7.13242">
        <ele>841</ele>
        <time>2019-05-15T09:36:22.063Z</time>
      </trkpt>
      <trkpt lat="48.44376" lon="7.13241">
        <ele>841</ele>
        <time>2019-05-15T09:36:23.063Z</time>
      </trkpt>
      <trkpt lat="48.44376" lon="7.13241">
        <ele>841</ele>
        <time>2019-05-15T09:36:24.063Z</time>
      </trkpt>
      <trkpt lat="48.44375" lon="7.1324">
        <ele>841</ele>
        <time>2019-05-15T09:36:25.063Z</time>
      </trkpt>
      <trkpt lat="48.44375" lon="7.1324">
        <ele>841</ele>
        <time>2019-05-15T09:36:26.063Z</time>
      </trkpt>
      <trkpt lat="48.44374" lon="7.13239">
        <ele>842</ele>
        <time>2019-05-15T09:36:27.063Z</time>
      </trkpt>
      <trkpt lat="48.44374" lon="7.13239">
        <ele>842</ele>
        <time>2019-05-15T09:36:28.063Z</time>
      </trkpt>
      <trkpt lat="48.44373" lon="7.13238">
        <ele>841</ele>
        <time>2019-05-15T09:36:29.063Z</time>
      </trkpt>
      <trkpt lat="48.44373" lon="7.13237">
        <ele>841</ele>
        <time>2019-05-15T09:36:30.063Z</time>
      </trkpt>
      <trkpt lat="48.44372" lon="7.13237">
        <ele>841</ele>
        <time>2019-05-15T09:36:31.063Z</time>
      </trkpt>
      <trkpt lat="48.44371" lon="7.13236">
        <ele>841</ele>
        <time>2019-05-15T09:36:32.063Z</time>
      </trkpt>
      <trkpt lat="48.44371" lon="7.13235">
        <ele>841</ele>
        <time>2019-05-15T09:36:33.063Z</time>
      </trkpt>
      <trkpt lat="48.4437" lon="7.13234">
        <ele>841</ele>
        <time>2019-05-15T09:36:34.063Z</time>
      </trkpt>
      <trkpt lat="48.44369" lon="7.13233">
        <ele>841</ele>
        <time>2019-05-15T09:36:35.063Z</time>
      </trkpt>
      <trkpt lat="48.44369" lon="7.13232">
        <ele>840</ele>
        <time>2019-05-15T09:36:36.063Z</time>
      </trkpt>
      <trkpt lat="48.44369" lon="7.13231">
        <ele>841</ele>
        <time>2019-05-15T09:36:37.063Z</time>
      </trkpt>
      <trkpt lat="48.44368" lon="7.1323">
        <ele>841</ele>
        <time>2019-05-15T09:36:38.063Z</time>
      </trkpt>
      <trkpt lat="48.44368" lon="7.13229">
        <ele>841</ele>
        <time>2019-05-15T09:36:39.063Z</time>
      </trkpt>
      <trkpt lat="48.44367" lon="7.13228">
        <ele>842</ele>
        <time>2019-05-15T09:36:40.063Z</time>
      </trkpt>
      <trkpt lat="48.44367" lon="7.13228">
        <ele>842</ele>
        <time>2019-05-15T09:36:41.063Z</time>
      </trkpt>
      <trkpt lat="48.44366" lon="7.13227">
        <ele>841</ele>
        <time>2019-05-15T09:36:42.063Z</time>
      </trkpt>
      <trkpt lat="48.44365" lon="7.13226">
        <ele>841</ele>
        <time>2019-05-15T09:36:43.063Z</time>
      </trkpt>
      <trkpt lat="48.44365" lon="7.13226">
        <ele>841</ele>
        <time>2019-05-15T09:36:44.063Z</time>
      </trkpt>
      <trkpt lat="48.44364" lon="7.13226">
        <ele>841</ele>
        <time>2019-05-15T09:36:45.063Z</time>
      </trkpt>
      <trkpt lat="48.44363" lon="7.13225">
        <ele>841</ele>
        <time>2019-05-15T09:36:46.063Z</time>
      </trkpt>
      <trkpt lat="48.44362" lon="7.13224">
        <ele>841</ele>
        <time>2019-05-15T09:36:47.063Z</time>
      </trkpt>
      <trkpt lat="48.44361" lon="7.13223">
        <ele>841</ele>
        <time>2019-05-15T09:36:48.063Z</time>
      </trkpt>
      <trkpt lat="48.44361" lon="7.13223">
        <ele>841</ele>
        <time>2019-05-15T09:36:49.063Z</time>
      </trkpt>
      <trkpt lat="48.4436" lon="7.13222">
        <ele>841</ele>
        <time>2019-05-15T09:36:50.063Z</time>
      </trkpt>
      <trkpt lat="48.44359" lon="7.13221">
        <ele>841</ele>
        <time>2019-05-15T09:36:51.063Z</time>
      </trkpt>
      <trkpt lat="48.44359" lon="7.13221">
        <ele>841</ele>
        <time>2019-05-15T09:36:52.063Z</time>
      </trkpt>
      <trkpt lat="48.44358" lon="7.1322">
        <ele>842</ele>
        <time>2019-05-15T09:36:53.063Z</time>
      </trkpt>
      <trkpt lat="48.44358" lon="7.1322">
        <ele>842</ele>
        <time>2019-05-15T09:36:54.063Z</time>
      </trkpt>
      <trkpt lat="48.44357" lon="7.13219">
        <ele>842</ele>
        <time>2019-05-15T09:36:55.063Z</time>
      </trkpt>
      <trkpt lat="48.44357" lon="7.13219">
        <ele>842</ele>
        <time>2019-05-15T09:36:56.063Z</time>
      </trkpt>
      <trkpt lat="48.44356" lon="7.13219">
        <ele>841</ele>
        <time>2019-05-15T09:36:57.063Z</time>
      </trkpt>
      <trkpt lat="48.44356" lon="7.13218">
        <ele>841</ele>
        <time>2019-05-15T09:36:58.063Z</time>
      </trkpt>
      <trkpt lat="48.44355" lon="7.13218">
        <ele>841</ele>
        <time>2019-05-15T09:36:59.063Z</time>
      </trkpt>
      <trkpt lat="48.44355" lon="7.13218">
        <ele>841</ele>
        <time>2019-05-15T09:37:00.063Z</time>
      </trkpt>
      <trkpt lat="48.44355" lon="7.13218">
        <ele>841</ele>
        <time>2019-05-15T09:37:01.063Z</time>
      </trkpt>
      <trkpt lat="48.44355" lon="7.13218">
        <ele>841</ele>
        <time>2019-05-15T09:37:02.063Z</time>
      </trkpt>
      <trkpt lat="48.44354" lon="7.13217">
        <ele>841</ele>
        <time>2019-05-15T09:37:03.063Z</time>
      </trkpt>
      <trkpt lat="48.44354" lon="7.13218">
        <ele>842</ele>
        <time>2019-05-15T09:37:04.063Z</time>
      </trkpt>
      <trkpt lat="48.44354" lon="7.13218">
        <ele>842</ele>
        <time>2019-05-15T09:37:05.063Z</time>
      </trkpt>
      <trkpt lat="48.44354" lon="7.13218">
        <ele>842</ele>
        <time>2019-05-15T09:37:06.063Z</time>
      </trkpt>
      <trkpt lat="48.44354" lon="7.13218">
        <ele>842</ele>
        <time>2019-05-15T09:37:07.063Z</time>
      </trkpt>
      <trkpt lat="48.44353" lon="7.13218">
        <ele>841</ele>
        <time>2019-05-15T09:37:08.063Z</time>
      </trkpt>
      <trkpt lat="48.44353" lon="7.13218">
        <ele>842</ele>
        <time>2019-05-15T09:37:09.063Z</time>
      </trkpt>
      <trkpt lat="48.44353" lon="7.13218">
        <ele>842</ele>
        <time>2019-05-15T09:37:10.063Z</time>
      </trkpt>
      <trkpt lat="48.44352" lon="7.13218">
        <ele>842</ele>
        <time>2019-05-15T09:37:11.063Z</time>
      </trkpt>
      <trkpt lat="48.44352" lon="7.13217">
        <ele>842</ele>
        <time>2019-05-15T09:37:12.063Z</time>
      </trkpt>
      <trkpt lat="48.44351" lon="7.13217">
        <ele>841</ele>
        <time>2019-05-15T09:37:13.063Z</time>
      </trkpt>
      <trkpt lat="48.4435" lon="7.13217">
        <ele>842</ele>
        <time>2019-05-15T09:37:14.063Z</time>
      </trkpt>
      <trkpt lat="48.4435" lon="7.13217">
        <ele>842</ele>
        <time>2019-05-15T09:37:15.063Z</time>
      </trkpt>
      <trkpt lat="48.44349" lon="7.13216">
        <ele>842</ele>
        <time>2019-05-15T09:37:16.063Z</time>
      </trkpt>
      <trkpt lat="48.44349" lon="7.13216">
        <ele>841</ele>
        <time>2019-05-15T09:37:17.063Z</time>
      </trkpt>
      <trkpt lat="48.44349" lon="7.13215">
        <ele>841</ele>
        <time>2019-05-15T09:37:18.063Z</time>
      </trkpt>
      <trkpt lat="48.44349" lon="7.13215">
        <ele>841</ele>
        <time>2019-05-15T09:37:19.063Z</time>
      </trkpt>
      <trkpt lat="48.44349" lon="7.13214">
        <ele>840</ele>
        <time>2019-05-15T09:37:20.063Z</time>
      </trkpt>
      <trkpt lat="48.44349" lon="7.13214">
        <ele>840</ele>
        <time>2019-05-15T09:37:21.063Z</time>
      </trkpt>
      <trkpt lat="48.44349" lon="7.13214">
        <ele>839</ele>
        <time>2019-05-15T09:37:22.063Z</time>
      </trkpt>
      <trkpt lat="48.44349" lon="7.13213">
        <ele>839</ele>
        <time>2019-05-15T09:37:23.063Z</time>
      </trkpt>
      <trkpt lat="48.44349" lon="7.13213">
        <ele>839</ele>
        <time>2019-05-15T09:37:24.063Z</time>
      </trkpt>
      <trkpt lat="48.44349" lon="7.13213">
        <ele>839</ele>
        <time>2019-05-15T09:37:25.063Z</time>
      </trkpt>
      <trkpt lat="48.44349" lon="7.13213">
        <ele>839</ele>
        <time>2019-05-15T09:37:26.063Z</time>
      </trkpt>
      <trkpt lat="48.44349" lon="7.13213">
        <ele>839</ele>
        <time>2019-05-15T09:37:27.063Z</time>
      </trkpt>
      <trkpt lat="48.44349" lon="7.13213">
        <ele>839</ele>
        <time>2019-05-15T09:37:28.063Z</time>
      </trkpt>
      <trkpt lat="48.44349" lon="7.13213">
        <ele>839</ele>
        <time>2019-05-15T09:37:29.063Z</time>
      </trkpt>
      <trkpt lat="48.44349" lon="7.13213">
        <ele>839</ele>
        <time>2019-05-15T09:37:30.063Z</time>
      </trkpt>
      <trkpt lat="48.44349" lon="7.13213">
        <ele>839</ele>
        <time>2019-05-15T09:37:31.063Z</time>
      </trkpt>
      <trkpt lat="48.44349" lon="7.13213">
        <ele>839</ele>
        <time>2019-05-15T09:37:32.063Z</time>
      </trkpt>
      <trkpt lat="48.44349" lon="7.13213">
        <ele>839</ele>
        <time>2019-05-15T09:37:33.063Z</time>
      </trkpt>
      <trkpt lat="48.44349" lon="7.13213">
        <ele>839</ele>
        <time>2019-05-15T09:37:34.063Z</time>
      </trkpt>
      <trkpt lat="48.44349" lon="7.13213">
        <ele>839</ele>
        <time>2019-05-15T09:37:35.063Z</time>
      </trkpt>
      <trkpt lat="48.44349" lon="7.13212">
        <ele>839</ele>
        <time>2019-05-15T09:37:36.063Z</time>
      </trkpt>
      <trkpt lat="48.44349" lon="7.13212">
        <ele>840</ele>
        <time>2019-05-15T09:37:37.063Z</time>
      </trkpt>
      <trkpt lat="48.44349" lon="7.13211">
        <ele>840</ele>
        <time>2019-05-15T09:37:38.063Z</time>
      </trkpt>
      <trkpt lat="48.44349" lon="7.13211">
        <ele>840</ele>
        <time>2019-05-15T09:37:39.063Z</time>
      </trkpt>
      <trkpt lat="48.44349" lon="7.1321">
        <ele>839</ele>
        <time>2019-05-15T09:37:40.063Z</time>
      </trkpt>
      <trkpt lat="48.44349" lon="7.1321">
        <ele>840</ele>
        <time>2019-05-15T09:37:41.063Z</time>
      </trkpt>
      <trkpt lat="48.44349" lon="7.1321">
        <ele>840</ele>
        <time>2019-05-15T09:37:42.063Z</time>
      </trkpt>
      <trkpt lat="48.44349" lon="7.13209">
        <ele>840</ele>
        <time>2019-05-15T09:37:43.063Z</time>
      </trkpt>
      <trkpt lat="48.44349" lon="7.13209">
        <ele>840</ele>
        <time>2019-05-15T09:37:44.063Z</time>
      </trkpt>
      <trkpt lat="48.44349" lon="7.13209">
        <ele>840</ele>
        <time>2019-05-15T09:37:45.063Z</time>
      </trkpt>
      <trkpt lat="48.44349" lon="7.13209">
        <ele>840</ele>
        <time>2019-05-15T09:37:46.063Z</time>
      </trkpt>
      <trkpt lat="48.44349" lon="7.13209">
        <ele>841</ele>
        <time>2019-05-15T09:37:47.063Z</time>
      </trkpt>
      <trkpt lat="48.44349" lon="7.13209">
        <ele>841</ele>
        <time>2019-05-15T09:37:48.063Z</time>
      </trkpt>
      <trkpt lat="48.44349" lon="7.13209">
        <ele>841</ele>
        <time>2019-05-15T09:37:49.063Z</time>
      </trkpt>
      <trkpt lat="48.44349" lon="7.13209">
        <ele>842</ele>
        <time>2019-05-15T09:37:50.063Z</time>
      </trkpt>
      <trkpt lat="48.44349" lon="7.13208">
        <ele>841</ele>
        <time>2019-05-15T09:37:51.063Z</time>
      </trkpt>
      <trkpt lat="48.44349" lon="7.13208">
        <ele>841</ele>
        <time>2019-05-15T09:37:52.063Z</time>
      </trkpt>
      <trkpt lat="48.44348" lon="7.13208">
        <ele>841</ele>
        <time>2019-05-15T09:37:53.063Z</time>
      </trkpt>
      <trkpt lat="48.44349" lon="7.13207">
        <ele>840</ele>
        <time>2019-05-15T09:37:54.063Z</time>
      </trkpt>
      <trkpt lat="48.44349" lon="7.13207">
        <ele>840</ele>
        <time>2019-05-15T09:37:55.063Z</time>
      </trkpt>
      <trkpt lat="48.44349" lon="7.13207">
        <ele>840</ele>
        <time>2019-05-15T09:37:56.063Z</time>
      </trkpt>
      <trkpt lat="48.44349" lon="7.13206">
        <ele>840</ele>
        <time>2019-05-15T09:37:57.063Z</time>
      </trkpt>
      <trkpt lat="48.44349" lon="7.13206">
        <ele>840</ele>
        <time>2019-05-15T09:37:58.063Z</time>
      </trkpt>
      <trkpt lat="48.44349" lon="7.13206">
        <ele>840</ele>
        <time>2019-05-15T09:37:59.063Z</time>
      </trkpt>
      <trkpt lat="48.44349" lon="7.13206">
        <ele>840</ele>
        <time>2019-05-15T09:38:00.063Z</time>
      </trkpt>
      <trkpt lat="48.44349" lon="7.13206">
        <ele>839</ele>
        <time>2019-05-15T09:38:01.063Z</time>
      </trkpt>
      <trkpt lat="48.44349" lon="7.13207">
        <ele>839</ele>
        <time>2019-05-15T09:38:02.063Z</time>
      </trkpt>
      <trkpt lat="48.44349" lon="7.13207">
        <ele>839</ele>
        <time>2019-05-15T09:38:03.063Z</time>
      </trkpt>
      <trkpt lat="48.44349" lon="7.13207">
        <ele>839</ele>
        <time>2019-05-15T09:38:04.063Z</time>
      </trkpt>
      <trkpt lat="48.44349" lon="7.13208">
        <ele>839</ele>
        <time>2019-05-15T09:38:05.063Z</time>
      </trkpt>
      <trkpt lat="48.44349" lon="7.13208">
        <ele>838</ele>
        <time>2019-05-15T09:38:06.063Z</time>
      </trkpt>
      <trkpt lat="48.44349" lon="7.13208">
        <ele>838</ele>
        <time>2019-05-15T09:38:07.063Z</time>
      </trkpt>
      <trkpt lat="48.44348" lon="7.13209">
        <ele>837</ele>
        <time>2019-05-15T09:38:08.063Z</time>
      </trkpt>
      <trkpt lat="48.44348" lon="7.13208">
        <ele>837</ele>
        <time>2019-05-15T09:38:09.063Z</time>
      </trkpt>
      <trkpt lat="48.44348" lon="7.13208">
        <ele>838</ele>
        <time>2019-05-15T09:38:10.063Z</time>
      </trkpt>
      <trkpt lat="48.44348" lon="7.13208">
        <ele>838</ele>
        <time>2019-05-15T09:38:11.063Z</time>
      </trkpt>
      <trkpt lat="48.44348" lon="7.13208">
        <ele>838</ele>
        <time>2019-05-15T09:38:12.063Z</time>
      </trkpt>
      <trkpt lat="48.44347" lon="7.13208">
        <ele>838</ele>
        <time>2019-05-15T09:38:13.063Z</time>
      </trkpt>
      <trkpt lat="48.44347" lon="7.13207">
        <ele>838</ele>
        <time>2019-05-15T09:38:14.063Z</time>
      </trkpt>
      <trkpt lat="48.44347" lon="7.13207">
        <ele>838</ele>
        <time>2019-05-15T09:38:15.063Z</time>
      </trkpt>
      <trkpt lat="48.44347" lon="7.13207">
        <ele>838</ele>
        <time>2019-05-15T09:38:16.063Z</time>
      </trkpt>
      <trkpt lat="48.44347" lon="7.13207">
        <ele>838</ele>
        <time>2019-05-15T09:38:17.063Z</time>
      </trkpt>
      <trkpt lat="48.44347" lon="7.13207">
        <ele>838</ele>
        <time>2019-05-15T09:38:18.063Z</time>
      </trkpt>
      <trkpt lat="48.44347" lon="7.13207">
        <ele>838</ele>
        <time>2019-05-15T09:38:19.063Z</time>
      </trkpt>
      <trkpt lat="48.44347" lon="7.13207">
        <ele>839</ele>
        <time>2019-05-15T09:38:20.063Z</time>
      </trkpt>
      <trkpt lat="48.44347" lon="7.13207">
        <ele>839</ele>
        <time>2019-05-15T09:38:21.063Z</time>
      </trkpt>
      <trkpt lat="48.44347" lon="7.13207">
        <ele>839</ele>
        <time>2019-05-15T09:38:22.063Z</time>
      </trkpt>
      <trkpt lat="48.44347" lon="7.13207">
        <ele>839</ele>
        <time>2019-05-15T09:38:23.063Z</time>
      </trkpt>
      <trkpt lat="48.44347" lon="7.13207">
        <ele>839</ele>
        <time>2019-05-15T09:38:24.063Z</time>
      </trkpt>
      <trkpt lat="48.44347" lon="7.13207">
        <ele>839</ele>
        <time>2019-05-15T09:38:25.063Z</time>
      </trkpt>
      <trkpt lat="48.44347" lon="7.13207">
        <ele>839</ele>
        <time>2019-05-15T09:38:26.063Z</time>
      </trkpt>
      <trkpt lat="48.44347" lon="7.13207">
        <ele>839</ele>
        <time>2019-05-15T09:38:27.063Z</time>
      </trkpt>
      <trkpt lat="48.44347" lon="7.13207">
        <ele>839</ele>
        <time>2019-05-15T09:38:28.063Z</time>
      </trkpt>
      <trkpt lat="48.44348" lon="7.13207">
        <ele>839</ele>
        <time>2019-05-15T09:38:29.063Z</time>
      </trkpt>
      <trkpt lat="48.44347" lon="7.13207">
        <ele>839</ele>
        <time>2019-05-15T09:38:30.063Z</time>
      </trkpt>
      <trkpt lat="48.44347" lon="7.13207">
        <ele>839</ele>
        <time>2019-05-15T09:38:31.063Z</time>
      </trkpt>
      <trkpt lat="48.44347" lon="7.13207">
        <ele>839</ele>
        <time>2019-05-15T09:38:32.063Z</time>
      </trkpt>
      <trkpt lat="48.44347" lon="7.13207">
        <ele>839</ele>
        <time>2019-05-15T09:38:33.063Z</time>
      </trkpt>
      <trkpt lat="48.44347" lon="7.13207">
        <ele>839</ele>
        <time>2019-05-15T09:38:34.063Z</time>
      </trkpt>
      <trkpt lat="48.44347" lon="7.13207">
        <ele>839</ele>
        <time>2019-05-15T09:38:35.063Z</time>
      </trkpt>
      <trkpt lat="48.44347" lon="7.13207">
        <ele>839</ele>
        <time>2019-05-15T09:38:36.063Z</time>
      </trkpt>
      <trkpt lat="48.44347" lon="7.13207">
        <ele>839</ele>
        <time>2019-05-15T09:38:37.063Z</time>
      </trkpt>
      <trkpt lat="48.44347" lon="7.13207">
        <ele>839</ele>
        <time>2019-05-15T09:38:38.063Z</time>
      </trkpt>
      <trkpt lat="48.44347" lon="7.13207">
        <ele>839</ele>
        <time>2019-05-15T09:38:39.063Z</time>
      </trkpt>
      <trkpt lat="48.44348" lon="7.13207">
        <ele>840</ele>
        <time>2019-05-15T09:38:40.063Z</time>
      </trkpt>
      <trkpt lat="48.44348" lon="7.13207">
        <ele>840</ele>
        <time>2019-05-15T09:38:41.063Z</time>
      </trkpt>
      <trkpt lat="48.44348" lon="7.13207">
        <ele>840</ele>
        <time>2019-05-15T09:38:42.063Z</time>
      </trkpt>
      <trkpt lat="48.44348" lon="7.13206">
        <ele>840</ele>
        <time>2019-05-15T09:38:43.063Z</time>
      </trkpt>
      <trkpt lat="48.44348" lon="7.13206">
        <ele>840</ele>
        <time>2019-05-15T09:38:44.063Z</time>
      </trkpt>
      <trkpt lat="48.44348" lon="7.13206">
        <ele>840</ele>
        <time>2019-05-15T09:38:45.063Z</time>
      </trkpt>
      <trkpt lat="48.44347" lon="7.13205">
        <ele>841</ele>
        <time>2019-05-15T09:38:46.063Z</time>
      </trkpt>
      <trkpt lat="48.44347" lon="7.13205">
        <ele>841</ele>
        <time>2019-05-15T09:38:47.063Z</time>
      </trkpt>
      <trkpt lat="48.44347" lon="7.13205">
        <ele>842</ele>
        <time>2019-05-15T09:38:48.063Z</time>
      </trkpt>
      <trkpt lat="48.44347" lon="7.13204">
        <ele>842</ele>
        <time>2019-05-15T09:38:49.063Z</time>
      </trkpt>
      <trkpt lat="48.44347" lon="7.13203">
        <ele>842</ele>
        <time>2019-05-15T09:38:50.063Z</time>
      </trkpt>
      <trkpt lat="48.44346" lon="7.13203">
        <ele>843</ele>
        <time>2019-05-15T09:38:51.063Z</time>
      </trkpt>
      <trkpt lat="48.44346" lon="7.13202">
        <ele>843</ele>
        <time>2019-05-15T09:38:52.063Z</time>
      </trkpt>
      <trkpt lat="48.44346" lon="7.13202">
        <ele>844</ele>
        <time>2019-05-15T09:38:53.063Z</time>
      </trkpt>
      <trkpt lat="48.44346" lon="7.13201">
        <ele>844</ele>
        <time>2019-05-15T09:38:54.063Z</time>
      </trkpt>
      <trkpt lat="48.44345" lon="7.13201">
        <ele>843</ele>
        <time>2019-05-15T09:38:55.063Z</time>
      </trkpt>
      <trkpt lat="48.44345" lon="7.132">
        <ele>843</ele>
        <time>2019-05-15T09:38:56.063Z</time>
      </trkpt>
      <trkpt lat="48.44344" lon="7.132">
        <ele>843</ele>
        <time>2019-05-15T09:38:57.063Z</time>
      </trkpt>
      <trkpt lat="48.44344" lon="7.13199">
        <ele>842</ele>
        <time>2019-05-15T09:38:58.063Z</time>
      </trkpt>
      <trkpt lat="48.44343" lon="7.13199">
        <ele>843</ele>
        <time>2019-05-15T09:38:59.063Z</time>
      </trkpt>
      <trkpt lat="48.44343" lon="7.13199">
        <ele>843</ele>
        <time>2019-05-15T09:39:00.063Z</time>
      </trkpt>
      <trkpt lat="48.44342" lon="7.13199">
        <ele>843</ele>
        <time>2019-05-15T09:39:01.063Z</time>
      </trkpt>
      <trkpt lat="48.44341" lon="7.13199">
        <ele>843</ele>
        <time>2019-05-15T09:39:02.063Z</time>
      </trkpt>
      <trkpt lat="48.44341" lon="7.13198">
        <ele>843</ele>
        <time>2019-05-15T09:39:03.063Z</time>
      </trkpt>
      <trkpt lat="48.4434" lon="7.13198">
        <ele>842</ele>
        <time>2019-05-15T09:39:04.063Z</time>
      </trkpt>
      <trkpt lat="48.44339" lon="7.13198">
        <ele>843</ele>
        <time>2019-05-15T09:39:05.063Z</time>
      </trkpt>
      <trkpt lat="48.44339" lon="7.13198">
        <ele>843</ele>
        <time>2019-05-15T09:39:06.063Z</time>
      </trkpt>
      <trkpt lat="48.44339" lon="7.13198">
        <ele>843</ele>
        <time>2019-05-15T09:39:07.063Z</time>
      </trkpt>
      <trkpt lat="48.44338" lon="7.13198">
        <ele>843</ele>
        <time>2019-05-15T09:39:08.063Z</time>
      </trkpt>
      <trkpt lat="48.44337" lon="7.13198">
        <ele>843</ele>
        <time>2019-05-15T09:39:09.063Z</time>
      </trkpt>
      <trkpt lat="48.44337" lon="7.13198">
        <ele>842</ele>
        <time>2019-05-15T09:39:10.063Z</time>
      </trkpt>
      <trkpt lat="48.44336" lon="7.13198">
        <ele>842</ele>
        <time>2019-05-15T09:39:11.063Z</time>
      </trkpt>
      <trkpt lat="48.44336" lon="7.13197">
        <ele>842</ele>
        <time>2019-05-15T09:39:12.063Z</time>
      </trkpt>
      <trkpt lat="48.44335" lon="7.13197">
        <ele>843</ele>
        <time>2019-05-15T09:39:13.063Z</time>
      </trkpt>
      <trkpt lat="48.44335" lon="7.13197">
        <ele>843</ele>
        <time>2019-05-15T09:39:14.063Z</time>
      </trkpt>
      <trkpt lat="48.44335" lon="7.13197">
        <ele>843</ele>
        <time>2019-05-15T09:39:15.063Z</time>
      </trkpt>
      <trkpt lat="48.44334" lon="7.13196">
        <ele>844</ele>
        <time>2019-05-15T09:39:16.063Z</time>
      </trkpt>
      <trkpt lat="48.44333" lon="7.13196">
        <ele>844</ele>
        <time>2019-05-15T09:39:17.063Z</time>
      </trkpt>
      <trkpt lat="48.44333" lon="7.13196">
        <ele>844</ele>
        <time>2019-05-15T09:39:18.063Z</time>
      </trkpt>
      <trkpt lat="48.44332" lon="7.13195">
        <ele>844</ele>
        <time>2019-05-15T09:39:19.063Z</time>
      </trkpt>
      <trkpt lat="48.44332" lon="7.13195">
        <ele>844</ele>
        <time>2019-05-15T09:39:20.063Z</time>
      </trkpt>
      <trkpt lat="48.44331" lon="7.13194">
        <ele>844</ele>
        <time>2019-05-15T09:39:21.063Z</time>
      </trkpt>
      <trkpt lat="48.44331" lon="7.13194">
        <ele>844</ele>
        <time>2019-05-15T09:39:22.063Z</time>
      </trkpt>
      <trkpt lat="48.4433" lon="7.13194">
        <ele>844</ele>
        <time>2019-05-15T09:39:23.063Z</time>
      </trkpt>
      <trkpt lat="48.4433" lon="7.13194">
        <ele>844</ele>
        <time>2019-05-15T09:39:24.063Z</time>
      </trkpt>
      <trkpt lat="48.44329" lon="7.13194">
        <ele>845</ele>
        <time>2019-05-15T09:39:25.063Z</time>
      </trkpt>
      <trkpt lat="48.44329" lon="7.13194">
        <ele>845</ele>
        <time>2019-05-15T09:39:26.063Z</time>
      </trkpt>
      <trkpt lat="48.44329" lon="7.13194">
        <ele>845</ele>
        <time>2019-05-15T09:39:27.063Z</time>
      </trkpt>
      <trkpt lat="48.44328" lon="7.13194">
        <ele>845</ele>
        <time>2019-05-15T09:39:28.063Z</time>
      </trkpt>
      <trkpt lat="48.44328" lon="7.13194">
        <ele>846</ele>
        <time>2019-05-15T09:39:29.063Z</time>
      </trkpt>
      <trkpt lat="48.44328" lon="7.13194">
        <ele>846</ele>
        <time>2019-05-15T09:39:30.063Z</time>
      </trkpt>
      <trkpt lat="48.44327" lon="7.13194">
        <ele>846</ele>
        <time>2019-05-15T09:39:31.063Z</time>
      </trkpt>
      <trkpt lat="48.44327" lon="7.13194">
        <ele>847</ele>
        <time>2019-05-15T09:39:32.063Z</time>
      </trkpt>
      <trkpt lat="48.44326" lon="7.13195">
        <ele>846</ele>
        <time>2019-05-15T09:39:33.063Z</time>
      </trkpt>
      <trkpt lat="48.44326" lon="7.13195">
        <ele>846</ele>
        <time>2019-05-15T09:39:34.063Z</time>
      </trkpt>
      <trkpt lat="48.44325" lon="7.13195">
        <ele>846</ele>
        <time>2019-05-15T09:39:35.063Z</time>
      </trkpt>
      <trkpt lat="48.44325" lon="7.13195">
        <ele>847</ele>
        <time>2019-05-15T09:39:36.063Z</time>
      </trkpt>
      <trkpt lat="48.44324" lon="7.13195">
        <ele>847</ele>
        <time>2019-05-15T09:39:37.063Z</time>
      </trkpt>
      <trkpt lat="48.44323" lon="7.13195">
        <ele>847</ele>
        <time>2019-05-15T09:39:38.063Z</time>
      </trkpt>
      <trkpt lat="48.44323" lon="7.13195">
        <ele>847</ele>
        <time>2019-05-15T09:39:39.063Z</time>
      </trkpt>
      <trkpt lat="48.44322" lon="7.13196">
        <ele>847</ele>
        <time>2019-05-15T09:39:40.063Z</time>
      </trkpt>
      <trkpt lat="48.44321" lon="7.13196">
        <ele>847</ele>
        <time>2019-05-15T09:39:41.063Z</time>
      </trkpt>
      <trkpt lat="48.44321" lon="7.13196">
        <ele>847</ele>
        <time>2019-05-15T09:39:42.063Z</time>
      </trkpt>
      <trkpt lat="48.4432" lon="7.13196">
        <ele>847</ele>
        <time>2019-05-15T09:39:43.063Z</time>
      </trkpt>
      <trkpt lat="48.44319" lon="7.13196">
        <ele>847</ele>
        <time>2019-05-15T09:39:44.063Z</time>
      </trkpt>
      <trkpt lat="48.44318" lon="7.13196">
        <ele>847</ele>
        <time>2019-05-15T09:39:45.063Z</time>
      </trkpt>
      <trkpt lat="48.44317" lon="7.13195">
        <ele>846</ele>
        <time>2019-05-15T09:39:46.063Z</time>
      </trkpt>
      <trkpt lat="48.44316" lon="7.13195">
        <ele>846</ele>
        <time>2019-05-15T09:39:47.063Z</time>
      </trkpt>
      <trkpt lat="48.44315" lon="7.13195">
        <ele>847</ele>
        <time>2019-05-15T09:39:48.063Z</time>
      </trkpt>
      <trkpt lat="48.44314" lon="7.13194">
        <ele>845</ele>
        <time>2019-05-15T09:39:49.063Z</time>
      </trkpt>
      <trkpt lat="48.44314" lon="7.13194">
        <ele>846</ele>
        <time>2019-05-15T09:39:50.063Z</time>
      </trkpt>
      <trkpt lat="48.44313" lon="7.13194">
        <ele>845</ele>
        <time>2019-05-15T09:39:51.063Z</time>
      </trkpt>
      <trkpt lat="48.44313" lon="7.13193">
        <ele>845</ele>
        <time>2019-05-15T09:39:52.063Z</time>
      </trkpt>
      <trkpt lat="48.44312" lon="7.13193">
        <ele>846</ele>
        <time>2019-05-15T09:39:53.063Z</time>
      </trkpt>
      <trkpt lat="48.44312" lon="7.13192">
        <ele>845</ele>
        <time>2019-05-15T09:39:54.063Z</time>
      </trkpt>
      <trkpt lat="48.44311" lon="7.13192">
        <ele>845</ele>
        <time>2019-05-15T09:39:55.063Z</time>
      </trkpt>
      <trkpt lat="48.44311" lon="7.13192">
        <ele>844</ele>
        <time>2019-05-15T09:39:56.063Z</time>
      </trkpt>
      <trkpt lat="48.44311" lon="7.13192">
        <ele>845</ele>
        <time>2019-05-15T09:39:57.063Z</time>
      </trkpt>
      <trkpt lat="48.44311" lon="7.13192">
        <ele>845</ele>
        <time>2019-05-15T09:39:58.063Z</time>
      </trkpt>
      <trkpt lat="48.4431" lon="7.13192">
        <ele>845</ele>
        <time>2019-05-15T09:39:59.063Z</time>
      </trkpt>
      <trkpt lat="48.4431" lon="7.13192">
        <ele>845</ele>
        <time>2019-05-15T09:40:00.063Z</time>
      </trkpt>
      <trkpt lat="48.4431" lon="7.13192">
        <ele>845</ele>
        <time>2019-05-15T09:40:01.063Z</time>
      </trkpt>
      <trkpt lat="48.44309" lon="7.13192">
        <ele>845</ele>
        <time>2019-05-15T09:40:02.063Z</time>
      </trkpt>
      <trkpt lat="48.44309" lon="7.13193">
        <ele>846</ele>
        <time>2019-05-15T09:40:03.063Z</time>
      </trkpt>
      <trkpt lat="48.44308" lon="7.13193">
        <ele>846</ele>
        <time>2019-05-15T09:40:04.063Z</time>
      </trkpt>
      <trkpt lat="48.44308" lon="7.13193">
        <ele>846</ele>
        <time>2019-05-15T09:40:05.063Z</time>
      </trkpt>
      <trkpt lat="48.44308" lon="7.13193">
        <ele>846</ele>
        <time>2019-05-15T09:40:06.063Z</time>
      </trkpt>
      <trkpt lat="48.44307" lon="7.13193">
        <ele>846</ele>
        <time>2019-05-15T09:40:07.063Z</time>
      </trkpt>
      <trkpt lat="48.44307" lon="7.13192">
        <ele>846</ele>
        <time>2019-05-15T09:40:08.063Z</time>
      </trkpt>
      <trkpt lat="48.44306" lon="7.13192">
        <ele>846</ele>
        <time>2019-05-15T09:40:09.063Z</time>
      </trkpt>
      <trkpt lat="48.44306" lon="7.13192">
        <ele>847</ele>
        <time>2019-05-15T09:40:10.063Z</time>
      </trkpt>
      <trkpt lat="48.44305" lon="7.13192">
        <ele>847</ele>
        <time>2019-05-15T09:40:11.063Z</time>
      </trkpt>
      <trkpt lat="48.44305" lon="7.13192">
        <ele>847</ele>
        <time>2019-05-15T09:40:12.063Z</time>
      </trkpt>
      <trkpt lat="48.44304" lon="7.13192">
        <ele>847</ele>
        <time>2019-05-15T09:40:13.063Z</time>
      </trkpt>
      <trkpt lat="48.44303" lon="7.13192">
        <ele>847</ele>
        <time>2019-05-15T09:40:14.063Z</time>
      </trkpt>
      <trkpt lat="48.44303" lon="7.13192">
        <ele>847</ele>
        <time>2019-05-15T09:40:15.063Z</time>
      </trkpt>
      <trkpt lat="48.44302" lon="7.13192">
        <ele>847</ele>
        <time>2019-05-15T09:40:16.063Z</time>
      </trkpt>
      <trkpt lat="48.44301" lon="7.13192">
        <ele>847</ele>
        <time>2019-05-15T09:40:17.063Z</time>
      </trkpt>
      <trkpt lat="48.44301" lon="7.13191">
        <ele>847</ele>
        <time>2019-05-15T09:40:18.063Z</time>
      </trkpt>
      <trkpt lat="48.44301" lon="7.1319">
        <ele>847</ele>
        <time>2019-05-15T09:40:19.063Z</time>
      </trkpt>
      <trkpt lat="48.443" lon="7.1319">
        <ele>847</ele>
        <time>2019-05-15T09:40:20.063Z</time>
      </trkpt>
      <trkpt lat="48.443" lon="7.13189">
        <ele>848</ele>
        <time>2019-05-15T09:40:21.063Z</time>
      </trkpt>
      <trkpt lat="48.44299" lon="7.13189">
        <ele>847</ele>
        <time>2019-05-15T09:40:22.063Z</time>
      </trkpt>
      <trkpt lat="48.44299" lon="7.13188">
        <ele>848</ele>
        <time>2019-05-15T09:40:23.063Z</time>
      </trkpt>
      <trkpt lat="48.44299" lon="7.13188">
        <ele>848</ele>
        <time>2019-05-15T09:40:24.063Z</time>
      </trkpt>
      <trkpt lat="48.44298" lon="7.13188">
        <ele>849</ele>
        <time>2019-05-15T09:40:25.063Z</time>
      </trkpt>
      <trkpt lat="48.44298" lon="7.13188">
        <ele>849</ele>
        <time>2019-05-15T09:40:26.063Z</time>
      </trkpt>
      <trkpt lat="48.44297" lon="7.13188">
        <ele>849</ele>
        <time>2019-05-15T09:40:27.063Z</time>
      </trkpt>
      <trkpt lat="48.44297" lon="7.13188">
        <ele>849</ele>
        <time>2019-05-15T09:40:28.063Z</time>
      </trkpt>
      <trkpt lat="48.44297" lon="7.13188">
        <ele>849</ele>
        <time>2019-05-15T09:40:29.063Z</time>
      </trkpt>
      <trkpt lat="48.44296" lon="7.13188">
        <ele>849</ele>
        <time>2019-05-15T09:40:30.063Z</time>
      </trkpt>
      <trkpt lat="48.44296" lon="7.13188">
        <ele>850</ele>
        <time>2019-05-15T09:40:31.063Z</time>
      </trkpt>
      <trkpt lat="48.44296" lon="7.13188">
        <ele>850</ele>
        <time>2019-05-15T09:40:32.063Z</time>
      </trkpt>
      <trkpt lat="48.44295" lon="7.13188">
        <ele>850</ele>
        <time>2019-05-15T09:40:33.063Z</time>
      </trkpt>
      <trkpt lat="48.44295" lon="7.13188">
        <ele>850</ele>
        <time>2019-05-15T09:40:34.063Z</time>
      </trkpt>
      <trkpt lat="48.44294" lon="7.13187">
        <ele>850</ele>
        <time>2019-05-15T09:40:35.063Z</time>
      </trkpt>
      <trkpt lat="48.44293" lon="7.13187">
        <ele>850</ele>
        <time>2019-05-15T09:40:36.063Z</time>
      </trkpt>
      <trkpt lat="48.44293" lon="7.13187">
        <ele>851</ele>
        <time>2019-05-15T09:40:37.063Z</time>
      </trkpt>
      <trkpt lat="48.44293" lon="7.13187">
        <ele>851</ele>
        <time>2019-05-15T09:40:38.063Z</time>
      </trkpt>
      <trkpt lat="48.44293" lon="7.13187">
        <ele>851</ele>
        <time>2019-05-15T09:40:39.063Z</time>
      </trkpt>
      <trkpt lat="48.44292" lon="7.13186">
        <ele>851</ele>
        <time>2019-05-15T09:40:40.063Z</time>
      </trkpt>
      <trkpt lat="48.44292" lon="7.13186">
        <ele>852</ele>
        <time>2019-05-15T09:40:41.063Z</time>
      </trkpt>
      <trkpt lat="48.44292" lon="7.13186">
        <ele>852</ele>
        <time>2019-05-15T09:40:42.063Z</time>
      </trkpt>
      <trkpt lat="48.44291" lon="7.13186">
        <ele>852</ele>
        <time>2019-05-15T09:40:43.063Z</time>
      </trkpt>
      <trkpt lat="48.44291" lon="7.13186">
        <ele>852</ele>
        <time>2019-05-15T09:40:44.063Z</time>
      </trkpt>
      <trkpt lat="48.4429" lon="7.13185">
        <ele>853</ele>
        <time>2019-05-15T09:40:45.063Z</time>
      </trkpt>
      <trkpt lat="48.4429" lon="7.13185">
        <ele>853</ele>
        <time>2019-05-15T09:40:46.063Z</time>
      </trkpt>
      <trkpt lat="48.4429" lon="7.13185">
        <ele>853</ele>
        <time>2019-05-15T09:40:47.063Z</time>
      </trkpt>
      <trkpt lat="48.44289" lon="7.13184">
        <ele>852</ele>
        <time>2019-05-15T09:40:48.063Z</time>
      </trkpt>
      <trkpt lat="48.44289" lon="7.13184">
        <ele>852</ele>
        <time>2019-05-15T09:40:49.063Z</time>
      </trkpt>
      <trkpt lat="48.44289" lon="7.13183">
        <ele>853</ele>
        <time>2019-05-15T09:40:50.063Z</time>
      </trkpt>
      <trkpt lat="48.44289" lon="7.13183">
        <ele>852</ele>
        <time>2019-05-15T09:40:51.063Z</time>
      </trkpt>
      <trkpt lat="48.44288" lon="7.13183">
        <ele>852</ele>
        <time>2019-05-15T09:40:52.063Z</time>
      </trkpt>
      <trkpt lat="48.44288" lon="7.13183">
        <ele>853</ele>
        <time>2019-05-15T09:40:53.063Z</time>
      </trkpt>
      <trkpt lat="48.44288" lon="7.13182">
        <ele>853</ele>
        <time>2019-05-15T09:40:54.063Z</time>
      </trkpt>
      <trkpt lat="48.44287" lon="7.13182">
        <ele>853</ele>
        <time>2019-05-15T09:40:55.063Z</time>
      </trkpt>
      <trkpt lat="48.44287" lon="7.13182">
        <ele>853</ele>
        <time>2019-05-15T09:40:56.063Z</time>
      </trkpt>
      <trkpt lat="48.44287" lon="7.13182">
        <ele>853</ele>
        <time>2019-05-15T09:40:57.063Z</time>
      </trkpt>
      <trkpt lat="48.44286" lon="7.13182">
        <ele>853</ele>
        <time>2019-05-15T09:40:58.063Z</time>
      </trkpt>
      <trkpt lat="48.44286" lon="7.13181">
        <ele>853</ele>
        <time>2019-05-15T09:40:59.063Z</time>
      </trkpt>
      <trkpt lat="48.44285" lon="7.13181">
        <ele>853</ele>
        <time>2019-05-15T09:41:00.063Z</time>
      </trkpt>
      <trkpt lat="48.44285" lon="7.13181">
        <ele>853</ele>
        <time>2019-05-15T09:41:01.063Z</time>
      </trkpt>
      <trkpt lat="48.44285" lon="7.13181">
        <ele>853</ele>
        <time>2019-05-15T09:41:02.063Z</time>
      </trkpt>
      <trkpt lat="48.44284" lon="7.13181">
        <ele>853</ele>
        <time>2019-05-15T09:41:03.063Z</time>
      </trkpt>
      <trkpt lat="48.44284" lon="7.13181">
        <ele>853</ele>
        <time>2019-05-15T09:41:04.063Z</time>
      </trkpt>
      <trkpt lat="48.44283" lon="7.13181">
        <ele>853</ele>
        <time>2019-05-15T09:41:05.063Z</time>
      </trkpt>
      <trkpt lat="48.44283" lon="7.13181">
        <ele>853</ele>
        <time>2019-05-15T09:41:06.063Z</time>
      </trkpt>
      <trkpt lat="48.44282" lon="7.13181">
        <ele>853</ele>
        <time>2019-05-15T09:41:07.063Z</time>
      </trkpt>
      <trkpt lat="48.44282" lon="7.13181">
        <ele>853</ele>
        <time>2019-05-15T09:41:08.063Z</time>
      </trkpt>
      <trkpt lat="48.44282" lon="7.13181">
        <ele>853</ele>
        <time>2019-05-15T09:41:09.063Z</time>
      </trkpt>
      <trkpt lat="48.44282" lon="7.13181">
        <ele>854</ele>
        <time>2019-05-15T09:41:10.063Z</time>
      </trkpt>
      <trkpt lat="48.44281" lon="7.13181">
        <ele>853</ele>
        <time>2019-05-15T09:41:11.063Z</time>
      </trkpt>
      <trkpt lat="48.4428" lon="7.13181">
        <ele>854</ele>
        <time>2019-05-15T09:41:12.063Z</time>
      </trkpt>
      <trkpt lat="48.4428" lon="7.13181">
        <ele>854</ele>
        <time>2019-05-15T09:41:13.063Z</time>
      </trkpt>
      <trkpt lat="48.44279" lon="7.13181">
        <ele>854</ele>
        <time>2019-05-15T09:41:14.063Z</time>
      </trkpt>
      <trkpt lat="48.44279" lon="7.13181">
        <ele>854</ele>
        <time>2019-05-15T09:41:15.063Z</time>
      </trkpt>
      <trkpt lat="48.44279" lon="7.13181">
        <ele>854</ele>
        <time>2019-05-15T09:41:16.063Z</time>
      </trkpt>
      <trkpt lat="48.44278" lon="7.13181">
        <ele>855</ele>
        <time>2019-05-15T09:41:17.063Z</time>
      </trkpt>
      <trkpt lat="48.44278" lon="7.13181">
        <ele>855</ele>
        <time>2019-05-15T09:41:18.063Z</time>
      </trkpt>
      <trkpt lat="48.44277" lon="7.13182">
        <ele>855</ele>
        <time>2019-05-15T09:41:19.063Z</time>
      </trkpt>
      <trkpt lat="48.44277" lon="7.13182">
        <ele>855</ele>
        <time>2019-05-15T09:41:20.063Z</time>
      </trkpt>
      <trkpt lat="48.44276" lon="7.13182">
        <ele>855</ele>
        <time>2019-05-15T09:41:21.063Z</time>
      </trkpt>
      <trkpt lat="48.44276" lon="7.13182">
        <ele>854</ele>
        <time>2019-05-15T09:41:22.063Z</time>
      </trkpt>
      <trkpt lat="48.44275" lon="7.13182">
        <ele>854</ele>
        <time>2019-05-15T09:41:23.063Z</time>
      </trkpt>
      <trkpt lat="48.44275" lon="7.13182">
        <ele>854</ele>
        <time>2019-05-15T09:41:24.063Z</time>
      </trkpt>
      <trkpt lat="48.44274" lon="7.13182">
        <ele>854</ele>
        <time>2019-05-15T09:41:25.063Z</time>
      </trkpt>
      <trkpt lat="48.44274" lon="7.13182">
        <ele>854</ele>
        <time>2019-05-15T09:41:26.063Z</time>
      </trkpt>
      <trkpt lat="48.44273" lon="7.13182">
        <ele>854</ele>
        <time>2019-05-15T09:41:27.063Z</time>
      </trkpt>
      <trkpt lat="48.44273" lon="7.13182">
        <ele>854</ele>
        <time>2019-05-15T09:41:28.063Z</time>
      </trkpt>
      <trkpt lat="48.44273" lon="7.13183">
        <ele>855</ele>
        <time>2019-05-15T09:41:29.063Z</time>
      </trkpt>
      <trkpt lat="48.44272" lon="7.13183">
        <ele>854</ele>
        <time>2019-05-15T09:41:30.063Z</time>
      </trkpt>
      <trkpt lat="48.44272" lon="7.13183">
        <ele>854</ele>
        <time>2019-05-15T09:41:31.063Z</time>
      </trkpt>
      <trkpt lat="48.44271" lon="7.13183">
        <ele>854</ele>
        <time>2019-05-15T09:41:32.063Z</time>
      </trkpt>
      <trkpt lat="48.44271" lon="7.13183">
        <ele>854</ele>
        <time>2019-05-15T09:41:33.063Z</time>
      </trkpt>
      <trkpt lat="48.4427" lon="7.13183">
        <ele>855</ele>
        <time>2019-05-15T09:41:34.063Z</time>
      </trkpt>
      <trkpt lat="48.4427" lon="7.13183">
        <ele>855</ele>
        <time>2019-05-15T09:41:35.063Z</time>
      </trkpt>
      <trkpt lat="48.44269" lon="7.13183">
        <ele>855</ele>
        <time>2019-05-15T09:41:36.063Z</time>
      </trkpt>
      <trkpt lat="48.44269" lon="7.13183">
        <ele>857</ele>
        <time>2019-05-15T09:41:37.063Z</time>
      </trkpt>
      <trkpt lat="48.44269" lon="7.13183">
        <ele>857</ele>
        <time>2019-05-15T09:41:38.063Z</time>
      </trkpt>
      <trkpt lat="48.44269" lon="7.13183">
        <ele>857</ele>
        <time>2019-05-15T09:41:39.063Z</time>
      </trkpt>
      <trkpt lat="48.44268" lon="7.13183">
        <ele>857</ele>
        <time>2019-05-15T09:41:40.063Z</time>
      </trkpt>
      <trkpt lat="48.44268" lon="7.13183">
        <ele>857</ele>
        <time>2019-05-15T09:41:41.063Z</time>
      </trkpt>
      <trkpt lat="48.44267" lon="7.13183">
        <ele>857</ele>
        <time>2019-05-15T09:41:42.063Z</time>
      </trkpt>
      <trkpt lat="48.44266" lon="7.13182">
        <ele>857</ele>
        <time>2019-05-15T09:41:43.063Z</time>
      </trkpt>
      <trkpt lat="48.44266" lon="7.13181">
        <ele>857</ele>
        <time>2019-05-15T09:41:44.063Z</time>
      </trkpt>
      <trkpt lat="48.44265" lon="7.1318">
        <ele>857</ele>
        <time>2019-05-15T09:41:45.063Z</time>
      </trkpt>
      <trkpt lat="48.44265" lon="7.13179">
        <ele>857</ele>
        <time>2019-05-15T09:41:46.063Z</time>
      </trkpt>
      <trkpt lat="48.44265" lon="7.13178">
        <ele>856</ele>
        <time>2019-05-15T09:41:47.063Z</time>
      </trkpt>
      <trkpt lat="48.44265" lon="7.13177">
        <ele>856</ele>
        <time>2019-05-15T09:41:48.063Z</time>
      </trkpt>
      <trkpt lat="48.44265" lon="7.13176">
        <ele>856</ele>
        <time>2019-05-15T09:41:49.063Z</time>
      </trkpt>
      <trkpt lat="48.44265" lon="7.13175">
        <ele>855</ele>
        <time>2019-05-15T09:41:50.063Z</time>
      </trkpt>
      <trkpt lat="48.44265" lon="7.13174">
        <ele>856</ele>
        <time>2019-05-15T09:41:51.063Z</time>
      </trkpt>
      <trkpt lat="48.44265" lon="7.13173">
        <ele>856</ele>
        <time>2019-05-15T09:41:52.063Z</time>
      </trkpt>
      <trkpt lat="48.44265" lon="7.13172">
        <ele>856</ele>
        <time>2019-05-15T09:41:53.063Z</time>
      </trkpt>
      <trkpt lat="48.44265" lon="7.13172">
        <ele>856</ele>
        <time>2019-05-15T09:41:54.063Z</time>
      </trkpt>
      <trkpt lat="48.44265" lon="7.13171">
        <ele>856</ele>
        <time>2019-05-15T09:41:55.063Z</time>
      </trkpt>
      <trkpt lat="48.44265" lon="7.1317">
        <ele>856</ele>
        <time>2019-05-15T09:41:56.063Z</time>
      </trkpt>
      <trkpt lat="48.44265" lon="7.13169">
        <ele>856</ele>
        <time>2019-05-15T09:41:57.063Z</time>
      </trkpt>
      <trkpt lat="48.44265" lon="7.13168">
        <ele>856</ele>
        <time>2019-05-15T09:41:58.063Z</time>
      </trkpt>
      <trkpt lat="48.44265" lon="7.13167">
        <ele>856</ele>
        <time>2019-05-15T09:41:59.063Z</time>
      </trkpt>
      <trkpt lat="48.44265" lon="7.13167">
        <ele>856</ele>
        <time>2019-05-15T09:42:00.063Z</time>
      </trkpt>
      <trkpt lat="48.44265" lon="7.13166">
        <ele>856</ele>
        <time>2019-05-15T09:42:01.063Z</time>
      </trkpt>
      <trkpt lat="48.44265" lon="7.13165">
        <ele>856</ele>
        <time>2019-05-15T09:42:02.063Z</time>
      </trkpt>
      <trkpt lat="48.44264" lon="7.13164">
        <ele>856</ele>
        <time>2019-05-15T09:42:03.063Z</time>
      </trkpt>
      <trkpt lat="48.44264" lon="7.13163">
        <ele>857</ele>
        <time>2019-05-15T09:42:04.063Z</time>
      </trkpt>
      <trkpt lat="48.44263" lon="7.13163">
        <ele>857</ele>
        <time>2019-05-15T09:42:05.063Z</time>
      </trkpt>
      <trkpt lat="48.44263" lon="7.13162">
        <ele>857</ele>
        <time>2019-05-15T09:42:06.063Z</time>
      </trkpt>
      <trkpt lat="48.44263" lon="7.13161">
        <ele>857</ele>
        <time>2019-05-15T09:42:07.063Z</time>
      </trkpt>
      <trkpt lat="48.44262" lon="7.13161">
        <ele>858</ele>
        <time>2019-05-15T09:42:08.063Z</time>
      </trkpt>
      <trkpt lat="48.44262" lon="7.1316">
        <ele>858</ele>
        <time>2019-05-15T09:42:09.063Z</time>
      </trkpt>
      <trkpt lat="48.44262" lon="7.1316">
        <ele>858</ele>
        <time>2019-05-15T09:42:10.063Z</time>
      </trkpt>
      <trkpt lat="48.44262" lon="7.13159">
        <ele>858</ele>
        <time>2019-05-15T09:42:11.063Z</time>
      </trkpt>
      <trkpt lat="48.44262" lon="7.13158">
        <ele>858</ele>
        <time>2019-05-15T09:42:12.063Z</time>
      </trkpt>
      <trkpt lat="48.44262" lon="7.13157">
        <ele>858</ele>
        <time>2019-05-15T09:42:13.063Z</time>
      </trkpt>
      <trkpt lat="48.44261" lon="7.13157">
        <ele>858</ele>
        <time>2019-05-15T09:42:14.063Z</time>
      </trkpt>
      <trkpt lat="48.44261" lon="7.13156">
        <ele>858</ele>
        <time>2019-05-15T09:42:15.063Z</time>
      </trkpt>
      <trkpt lat="48.44261" lon="7.13155">
        <ele>858</ele>
        <time>2019-05-15T09:42:16.063Z</time>
      </trkpt>
      <trkpt lat="48.44261" lon="7.13155">
        <ele>859</ele>
        <time>2019-05-15T09:42:17.063Z</time>
      </trkpt>
      <trkpt lat="48.44261" lon="7.13154">
        <ele>859</ele>
        <time>2019-05-15T09:42:18.063Z</time>
      </trkpt>
      <trkpt lat="48.4426" lon="7.13153">
        <ele>859</ele>
        <time>2019-05-15T09:42:19.063Z</time>
      </trkpt>
      <trkpt lat="48.4426" lon="7.13153">
        <ele>860</ele>
        <time>2019-05-15T09:42:20.063Z</time>
      </trkpt>
      <trkpt lat="48.4426" lon="7.13152">
        <ele>860</ele>
        <time>2019-05-15T09:42:21.063Z</time>
      </trkpt>
      <trkpt lat="48.4426" lon="7.13151">
        <ele>860</ele>
        <time>2019-05-15T09:42:22.063Z</time>
      </trkpt>
      <trkpt lat="48.4426" lon="7.13151">
        <ele>861</ele>
        <time>2019-05-15T09:42:23.063Z</time>
      </trkpt>
      <trkpt lat="48.44259" lon="7.1315">
        <ele>861</ele>
        <time>2019-05-15T09:42:24.063Z</time>
      </trkpt>
      <trkpt lat="48.44259" lon="7.1315">
        <ele>861</ele>
        <time>2019-05-15T09:42:25.063Z</time>
      </trkpt>
      <trkpt lat="48.44259" lon="7.13149">
        <ele>861</ele>
        <time>2019-05-15T09:42:26.063Z</time>
      </trkpt>
      <trkpt lat="48.44259" lon="7.13149">
        <ele>861</ele>
        <time>2019-05-15T09:42:27.063Z</time>
      </trkpt>
      <trkpt lat="48.44259" lon="7.13149">
        <ele>862</ele>
        <time>2019-05-15T09:42:28.063Z</time>
      </trkpt>
      <trkpt lat="48.44259" lon="7.13149">
        <ele>862</ele>
        <time>2019-05-15T09:42:29.063Z</time>
      </trkpt>
      <trkpt lat="48.44258" lon="7.13148">
        <ele>862</ele>
        <time>2019-05-15T09:42:30.063Z</time>
      </trkpt>
      <trkpt lat="48.44258" lon="7.13148">
        <ele>862</ele>
        <time>2019-05-15T09:42:31.063Z</time>
      </trkpt>
      <trkpt lat="48.44258" lon="7.13148">
        <ele>862</ele>
        <time>2019-05-15T09:42:32.063Z</time>
      </trkpt>
      <trkpt lat="48.44258" lon="7.13147">
        <ele>863</ele>
        <time>2019-05-15T09:42:33.063Z</time>
      </trkpt>
      <trkpt lat="48.44258" lon="7.13147">
        <ele>863</ele>
        <time>2019-05-15T09:42:34.063Z</time>
      </trkpt>
      <trkpt lat="48.44258" lon="7.13146">
        <ele>864</ele>
        <time>2019-05-15T09:42:35.063Z</time>
      </trkpt>
      <trkpt lat="48.44257" lon="7.13146">
        <ele>863</ele>
        <time>2019-05-15T09:42:36.063Z</time>
      </trkpt>
      <trkpt lat="48.44257" lon="7.13145">
        <ele>864</ele>
        <time>2019-05-15T09:42:37.063Z</time>
      </trkpt>
      <trkpt lat="48.44257" lon="7.13145">
        <ele>864</ele>
        <time>2019-05-15T09:42:38.063Z</time>
      </trkpt>
      <trkpt lat="48.44257" lon="7.13145">
        <ele>864</ele>
        <time>2019-05-15T09:42:39.063Z</time>
      </trkpt>
      <trkpt lat="48.44257" lon="7.13144">
        <ele>864</ele>
        <time>2019-05-15T09:42:40.063Z</time>
      </trkpt>
      <trkpt lat="48.44257" lon="7.13144">
        <ele>864</ele>
        <time>2019-05-15T09:42:41.063Z</time>
      </trkpt>
      <trkpt lat="48.44257" lon="7.13144">
        <ele>864</ele>
        <time>2019-05-15T09:42:42.063Z</time>
      </trkpt>
      <trkpt lat="48.44257" lon="7.13144">
        <ele>863</ele>
        <time>2019-05-15T09:42:43.063Z</time>
      </trkpt>
      <trkpt lat="48.44257" lon="7.13144">
        <ele>864</ele>
        <time>2019-05-15T09:42:44.063Z</time>
      </trkpt>
      <trkpt lat="48.44257" lon="7.13144">
        <ele>864</ele>
        <time>2019-05-15T09:42:45.063Z</time>
      </trkpt>
      <trkpt lat="48.44257" lon="7.13143">
        <ele>864</ele>
        <time>2019-05-15T09:42:46.063Z</time>
      </trkpt>
      <trkpt lat="48.44257" lon="7.13143">
        <ele>864</ele>
        <time>2019-05-15T09:42:47.063Z</time>
      </trkpt>
      <trkpt lat="48.44257" lon="7.13142">
        <ele>864</ele>
        <time>2019-05-15T09:42:48.063Z</time>
      </trkpt>
      <trkpt lat="48.44256" lon="7.13142">
        <ele>864</ele>
        <time>2019-05-15T09:42:49.063Z</time>
      </trkpt>
      <trkpt lat="48.44256" lon="7.13141">
        <ele>863</ele>
        <time>2019-05-15T09:42:50.063Z</time>
      </trkpt>
      <trkpt lat="48.44256" lon="7.1314">
        <ele>863</ele>
        <time>2019-05-15T09:42:51.063Z</time>
      </trkpt>
      <trkpt lat="48.44256" lon="7.1314">
        <ele>864</ele>
        <time>2019-05-15T09:42:52.063Z</time>
      </trkpt>
      <trkpt lat="48.44256" lon="7.13139">
        <ele>865</ele>
        <time>2019-05-15T09:42:53.063Z</time>
      </trkpt>
      <trkpt lat="48.44256" lon="7.13139">
        <ele>865</ele>
        <time>2019-05-15T09:42:54.063Z</time>
      </trkpt>
      <trkpt lat="48.44255" lon="7.13138">
        <ele>865</ele>
        <time>2019-05-15T09:42:55.063Z</time>
      </trkpt>
      <trkpt lat="48.44255" lon="7.13138">
        <ele>865</ele>
        <time>2019-05-15T09:42:56.063Z</time>
      </trkpt>
      <trkpt lat="48.44255" lon="7.13138">
        <ele>865</ele>
        <time>2019-05-15T09:42:57.063Z</time>
      </trkpt>
      <trkpt lat="48.44254" lon="7.13137">
        <ele>865</ele>
        <time>2019-05-15T09:42:58.063Z</time>
      </trkpt>
      <trkpt lat="48.44254" lon="7.13137">
        <ele>866</ele>
        <time>2019-05-15T09:42:59.063Z</time>
      </trkpt>
      <trkpt lat="48.44254" lon="7.13136">
        <ele>865</ele>
        <time>2019-05-15T09:43:00.063Z</time>
      </trkpt>
      <trkpt lat="48.44254" lon="7.13136">
        <ele>866</ele>
        <time>2019-05-15T09:43:01.063Z</time>
      </trkpt>
      <trkpt lat="48.44253" lon="7.13136">
        <ele>866</ele>
        <time>2019-05-15T09:43:02.063Z</time>
      </trkpt>
      <trkpt lat="48.44253" lon="7.13136">
        <ele>866</ele>
        <time>2019-05-15T09:43:03.063Z</time>
      </trkpt>
      <trkpt lat="48.44253" lon="7.13136">
        <ele>866</ele>
        <time>2019-05-15T09:43:04.063Z</time>
      </trkpt>
      <trkpt lat="48.44253" lon="7.13136">
        <ele>866</ele>
        <time>2019-05-15T09:43:05.063Z</time>
      </trkpt>
      <trkpt lat="48.44252" lon="7.13136">
        <ele>866</ele>
        <time>2019-05-15T09:43:06.063Z</time>
      </trkpt>
      <trkpt lat="48.44252" lon="7.13137">
        <ele>867</ele>
        <time>2019-05-15T09:43:07.063Z</time>
      </trkpt>
      <trkpt lat="48.44252" lon="7.13137">
        <ele>866</ele>
        <time>2019-05-15T09:43:08.063Z</time>
      </trkpt>
      <trkpt lat="48.44251" lon="7.13138">
        <ele>866</ele>
        <time>2019-05-15T09:43:09.063Z</time>
      </trkpt>
      <trkpt lat="48.44251" lon="7.13139">
        <ele>866</ele>
        <time>2019-05-15T09:43:10.063Z</time>
      </trkpt>
      <trkpt lat="48.4425" lon="7.13139">
        <ele>866</ele>
        <time>2019-05-15T09:43:11.063Z</time>
      </trkpt>
      <trkpt lat="48.44249" lon="7.1314">
        <ele>867</ele>
        <time>2019-05-15T09:43:12.063Z</time>
      </trkpt>
      <trkpt lat="48.44249" lon="7.1314">
        <ele>867</ele>
        <time>2019-05-15T09:43:13.063Z</time>
      </trkpt>
      <trkpt lat="48.44248" lon="7.13141">
        <ele>867</ele>
        <time>2019-05-15T09:43:14.063Z</time>
      </trkpt>
      <trkpt lat="48.44248" lon="7.13141">
        <ele>866</ele>
        <time>2019-05-15T09:43:15.063Z</time>
      </trkpt>
      <trkpt lat="48.44247" lon="7.13142">
        <ele>867</ele>
        <time>2019-05-15T09:43:16.063Z</time>
      </trkpt>
      <trkpt lat="48.44247" lon="7.13142">
        <ele>867</ele>
        <time>2019-05-15T09:43:17.063Z</time>
      </trkpt>
      <trkpt lat="48.44246" lon="7.13143">
        <ele>868</ele>
        <time>2019-05-15T09:43:18.063Z</time>
      </trkpt>
      <trkpt lat="48.44246" lon="7.13144">
        <ele>868</ele>
        <time>2019-05-15T09:43:19.063Z</time>
      </trkpt>
      <trkpt lat="48.44245" lon="7.13145">
        <ele>868</ele>
        <time>2019-05-15T09:43:20.063Z</time>
      </trkpt>
      <trkpt lat="48.44245" lon="7.13145">
        <ele>868</ele>
        <time>2019-05-15T09:43:21.063Z</time>
      </trkpt>
      <trkpt lat="48.44244" lon="7.13146">
        <ele>868</ele>
        <time>2019-05-15T09:43:22.063Z</time>
      </trkpt>
      <trkpt lat="48.44244" lon="7.13146">
        <ele>868</ele>
        <time>2019-05-15T09:43:23.063Z</time>
      </trkpt>
      <trkpt lat="48.44243" lon="7.13146">
        <ele>868</ele>
        <time>2019-05-15T09:43:24.063Z</time>
      </trkpt>
      <trkpt lat="48.44242" lon="7.13146">
        <ele>868</ele>
        <time>2019-05-15T09:43:25.063Z</time>
      </trkpt>
      <trkpt lat="48.44242" lon="7.13146">
        <ele>868</ele>
        <time>2019-05-15T09:43:26.063Z</time>
      </trkpt>
      <trkpt lat="48.44241" lon="7.13146">
        <ele>869</ele>
        <time>2019-05-15T09:43:27.063Z</time>
      </trkpt>
      <trkpt lat="48.44241" lon="7.13147">
        <ele>869</ele>
        <time>2019-05-15T09:43:28.063Z</time>
      </trkpt>
      <trkpt lat="48.4424" lon="7.13147">
        <ele>869</ele>
        <time>2019-05-15T09:43:29.063Z</time>
      </trkpt>
      <trkpt lat="48.4424" lon="7.13148">
        <ele>869</ele>
        <time>2019-05-15T09:43:30.063Z</time>
      </trkpt>
      <trkpt lat="48.4424" lon="7.13148">
        <ele>869</ele>
        <time>2019-05-15T09:43:31.063Z</time>
      </trkpt>
      <trkpt lat="48.44239" lon="7.13149">
        <ele>868</ele>
        <time>2019-05-15T09:43:32.063Z</time>
      </trkpt>
      <trkpt lat="48.44239" lon="7.13149">
        <ele>868</ele>
        <time>2019-05-15T09:43:33.063Z</time>
      </trkpt>
      <trkpt lat="48.44239" lon="7.13149">
        <ele>868</ele>
        <time>2019-05-15T09:43:34.063Z</time>
      </trkpt>
      <trkpt lat="48.44238" lon="7.13149">
        <ele>868</ele>
        <time>2019-05-15T09:43:35.063Z</time>
      </trkpt>
      <trkpt lat="48.44238" lon="7.13149">
        <ele>868</ele>
        <time>2019-05-15T09:43:36.063Z</time>
      </trkpt>
      <trkpt lat="48.44238" lon="7.13149">
        <ele>868</ele>
        <time>2019-05-15T09:43:37.063Z</time>
      </trkpt>
      <trkpt lat="48.44237" lon="7.1315">
        <ele>869</ele>
        <time>2019-05-15T09:43:38.063Z</time>
      </trkpt>
      <trkpt lat="48.44237" lon="7.1315">
        <ele>869</ele>
        <time>2019-05-15T09:43:39.063Z</time>
      </trkpt>
      <trkpt lat="48.44236" lon="7.1315">
        <ele>869</ele>
        <time>2019-05-15T09:43:40.063Z</time>
      </trkpt>
      <trkpt lat="48.44236" lon="7.13151">
        <ele>869</ele>
        <time>2019-05-15T09:43:41.063Z</time>
      </trkpt>
      <trkpt lat="48.44235" lon="7.13151">
        <ele>869</ele>
        <time>2019-05-15T09:43:42.063Z</time>
      </trkpt>
      <trkpt lat="48.44235" lon="7.13151">
        <ele>869</ele>
        <time>2019-05-15T09:43:43.063Z</time>
      </trkpt>
      <trkpt lat="48.44234" lon="7.13151">
        <ele>869</ele>
        <time>2019-05-15T09:43:44.063Z</time>
      </trkpt>
      <trkpt lat="48.44233" lon="7.13152">
        <ele>869</ele>
        <time>2019-05-15T09:43:45.063Z</time>
      </trkpt>
      <trkpt lat="48.44233" lon="7.13152">
        <ele>869</ele>
        <time>2019-05-15T09:43:46.063Z</time>
      </trkpt>
      <trkpt lat="48.44232" lon="7.13153">
        <ele>869</ele>
        <time>2019-05-15T09:43:47.063Z</time>
      </trkpt>
      <trkpt lat="48.44232" lon="7.13154">
        <ele>869</ele>
        <time>2019-05-15T09:43:48.063Z</time>
      </trkpt>
      <trkpt lat="48.44232" lon="7.13154">
        <ele>869</ele>
        <time>2019-05-15T09:43:49.063Z</time>
      </trkpt>
      <trkpt lat="48.44231" lon="7.13155">
        <ele>869</ele>
        <time>2019-05-15T09:43:50.063Z</time>
      </trkpt>
      <trkpt lat="48.4423" lon="7.13155">
        <ele>869</ele>
        <time>2019-05-15T09:43:51.063Z</time>
      </trkpt>
      <trkpt lat="48.4423" lon="7.13155">
        <ele>869</ele>
        <time>2019-05-15T09:43:52.063Z</time>
      </trkpt>
      <trkpt lat="48.44229" lon="7.13155">
        <ele>868</ele>
        <time>2019-05-15T09:43:53.063Z</time>
      </trkpt>
      <trkpt lat="48.44229" lon="7.13156">
        <ele>869</ele>
        <time>2019-05-15T09:43:54.063Z</time>
      </trkpt>
      <trkpt lat="48.44228" lon="7.13156">
        <ele>869</ele>
        <time>2019-05-15T09:43:55.063Z</time>
      </trkpt>
      <trkpt lat="48.44228" lon="7.13157">
        <ele>869</ele>
        <time>2019-05-15T09:43:56.063Z</time>
      </trkpt>
      <trkpt lat="48.44227" lon="7.13157">
        <ele>869</ele>
        <time>2019-05-15T09:43:57.063Z</time>
      </trkpt>
      <trkpt lat="48.44226" lon="7.13157">
        <ele>869</ele>
        <time>2019-05-15T09:43:58.063Z</time>
      </trkpt>
      <trkpt lat="48.44226" lon="7.13158">
        <ele>869</ele>
        <time>2019-05-15T09:43:59.063Z</time>
      </trkpt>
      <trkpt lat="48.44225" lon="7.13158">
        <ele>869</ele>
        <time>2019-05-15T09:44:00.063Z</time>
      </trkpt>
      <trkpt lat="48.44224" lon="7.13158">
        <ele>869</ele>
        <time>2019-05-15T09:44:01.063Z</time>
      </trkpt>
      <trkpt lat="48.44224" lon="7.13159">
        <ele>869</ele>
        <time>2019-05-15T09:44:02.063Z</time>
      </trkpt>
      <trkpt lat="48.44223" lon="7.13159">
        <ele>869</ele>
        <time>2019-05-15T09:44:03.063Z</time>
      </trkpt>
      <trkpt lat="48.44223" lon="7.13159">
        <ele>869</ele>
        <time>2019-05-15T09:44:04.063Z</time>
      </trkpt>
      <trkpt lat="48.44222" lon="7.13159">
        <ele>870</ele>
        <time>2019-05-15T09:44:05.063Z</time>
      </trkpt>
      <trkpt lat="48.44222" lon="7.13159">
        <ele>870</ele>
        <time>2019-05-15T09:44:06.063Z</time>
      </trkpt>
      <trkpt lat="48.44221" lon="7.13159">
        <ele>870</ele>
        <time>2019-05-15T09:44:07.063Z</time>
      </trkpt>
      <trkpt lat="48.44221" lon="7.13158">
        <ele>870</ele>
        <time>2019-05-15T09:44:08.063Z</time>
      </trkpt>
      <trkpt lat="48.44221" lon="7.13158">
        <ele>870</ele>
        <time>2019-05-15T09:44:09.063Z</time>
      </trkpt>
      <trkpt lat="48.44221" lon="7.13157">
        <ele>870</ele>
        <time>2019-05-15T09:44:10.063Z</time>
      </trkpt>
      <trkpt lat="48.44221" lon="7.13157">
        <ele>871</ele>
        <time>2019-05-15T09:44:11.063Z</time>
      </trkpt>
      <trkpt lat="48.44221" lon="7.13156">
        <ele>871</ele>
        <time>2019-05-15T09:44:12.063Z</time>
      </trkpt>
      <trkpt lat="48.44221" lon="7.13156">
        <ele>872</ele>
        <time>2019-05-15T09:44:13.063Z</time>
      </trkpt>
      <trkpt lat="48.44221" lon="7.13155">
        <ele>872</ele>
        <time>2019-05-15T09:44:14.063Z</time>
      </trkpt>
      <trkpt lat="48.44221" lon="7.13155">
        <ele>873</ele>
        <time>2019-05-15T09:44:15.063Z</time>
      </trkpt>
      <trkpt lat="48.44221" lon="7.13154">
        <ele>873</ele>
        <time>2019-05-15T09:44:16.063Z</time>
      </trkpt>
      <trkpt lat="48.44221" lon="7.13153">
        <ele>873</ele>
        <time>2019-05-15T09:44:17.063Z</time>
      </trkpt>
      <trkpt lat="48.44221" lon="7.13152">
        <ele>873</ele>
        <time>2019-05-15T09:44:18.063Z</time>
      </trkpt>
      <trkpt lat="48.44221" lon="7.13151">
        <ele>874</ele>
        <time>2019-05-15T09:44:19.063Z</time>
      </trkpt>
      <trkpt lat="48.4422" lon="7.1315">
        <ele>874</ele>
        <time>2019-05-15T09:44:20.063Z</time>
      </trkpt>
      <trkpt lat="48.4422" lon="7.1315">
        <ele>874</ele>
        <time>2019-05-15T09:44:21.063Z</time>
      </trkpt>
      <trkpt lat="48.4422" lon="7.13149">
        <ele>874</ele>
        <time>2019-05-15T09:44:22.063Z</time>
      </trkpt>
      <trkpt lat="48.44219" lon="7.13148">
        <ele>874</ele>
        <time>2019-05-15T09:44:23.063Z</time>
      </trkpt>
      <trkpt lat="48.44219" lon="7.13148">
        <ele>874</ele>
        <time>2019-05-15T09:44:24.063Z</time>
      </trkpt>
      <trkpt lat="48.44219" lon="7.13146">
        <ele>874</ele>
        <time>2019-05-15T09:44:25.063Z</time>
      </trkpt>
      <trkpt lat="48.44219" lon="7.13146">
        <ele>874</ele>
        <time>2019-05-15T09:44:26.063Z</time>
      </trkpt>
      <trkpt lat="48.44219" lon="7.13145">
        <ele>874</ele>
        <time>2019-05-15T09:44:27.063Z</time>
      </trkpt>
      <trkpt lat="48.44219" lon="7.13144">
        <ele>875</ele>
        <time>2019-05-15T09:44:28.063Z</time>
      </trkpt>
      <trkpt lat="48.44219" lon="7.13143">
        <ele>874</ele>
        <time>2019-05-15T09:44:29.063Z</time>
      </trkpt>
      <trkpt lat="48.44218" lon="7.13142">
        <ele>874</ele>
        <time>2019-05-15T09:44:30.063Z</time>
      </trkpt>
      <trkpt lat="48.44218" lon="7.13142">
        <ele>874</ele>
        <time>2019-05-15T09:44:31.063Z</time>
      </trkpt>
      <trkpt lat="48.44218" lon="7.13141">
        <ele>874</ele>
        <time>2019-05-15T09:44:32.063Z</time>
      </trkpt>
      <trkpt lat="48.44218" lon="7.1314">
        <ele>874</ele>
        <time>2019-05-15T09:44:33.063Z</time>
      </trkpt>
      <trkpt lat="48.44218" lon="7.13139">
        <ele>874</ele>
        <time>2019-05-15T09:44:34.063Z</time>
      </trkpt>
      <trkpt lat="48.44217" lon="7.13138">
        <ele>875</ele>
        <time>2019-05-15T09:44:35.063Z</time>
      </trkpt>
      <trkpt lat="48.44217" lon="7.13138">
        <ele>875</ele>
        <time>2019-05-15T09:44:36.063Z</time>
      </trkpt>
      <trkpt lat="48.44217" lon="7.13137">
        <ele>875</ele>
        <time>2019-05-15T09:44:37.063Z</time>
      </trkpt>
      <trkpt lat="48.44217" lon="7.13136">
        <ele>875</ele>
        <time>2019-05-15T09:44:38.063Z</time>
      </trkpt>
      <trkpt lat="48.44217" lon="7.13136">
        <ele>875</ele>
        <time>2019-05-15T09:44:39.063Z</time>
      </trkpt>
      <trkpt lat="48.44217" lon="7.13135">
        <ele>875</ele>
        <time>2019-05-15T09:44:40.063Z</time>
      </trkpt>
      <trkpt lat="48.44216" lon="7.13134">
        <ele>875</ele>
        <time>2019-05-15T09:44:41.063Z</time>
      </trkpt>
      <trkpt lat="48.44216" lon="7.13133">
        <ele>875</ele>
        <time>2019-05-15T09:44:42.063Z</time>
      </trkpt>
      <trkpt lat="48.44217" lon="7.13133">
        <ele>876</ele>
        <time>2019-05-15T09:44:43.063Z</time>
      </trkpt>
      <trkpt lat="48.44217" lon="7.13132">
        <ele>875</ele>
        <time>2019-05-15T09:44:44.063Z</time>
      </trkpt>
      <trkpt lat="48.44217" lon="7.13131">
        <ele>875</ele>
        <time>2019-05-15T09:44:45.063Z</time>
      </trkpt>
      <trkpt lat="48.44217" lon="7.1313">
        <ele>875</ele>
        <time>2019-05-15T09:44:46.063Z</time>
      </trkpt>
      <trkpt lat="48.44217" lon="7.13129">
        <ele>876</ele>
        <time>2019-05-15T09:44:47.063Z</time>
      </trkpt>
      <trkpt lat="48.44217" lon="7.13127">
        <ele>876</ele>
        <time>2019-05-15T09:44:48.063Z</time>
      </trkpt>
      <trkpt lat="48.44217" lon="7.13127">
        <ele>877</ele>
        <time>2019-05-15T09:44:49.063Z</time>
      </trkpt>
      <trkpt lat="48.44216" lon="7.13126">
        <ele>878</ele>
        <time>2019-05-15T09:44:50.063Z</time>
      </trkpt>
      <trkpt lat="48.44216" lon="7.13125">
        <ele>878</ele>
        <time>2019-05-15T09:44:51.063Z</time>
      </trkpt>
      <trkpt lat="48.44216" lon="7.13125">
        <ele>878</ele>
        <time>2019-05-15T09:44:52.063Z</time>
      </trkpt>
      <trkpt lat="48.44216" lon="7.13125">
        <ele>878</ele>
        <time>2019-05-15T09:44:53.063Z</time>
      </trkpt>
      <trkpt lat="48.44216" lon="7.13124">
        <ele>879</ele>
        <time>2019-05-15T09:44:54.063Z</time>
      </trkpt>
      <trkpt lat="48.44216" lon="7.13123">
        <ele>878</ele>
        <time>2019-05-15T09:44:55.063Z</time>
      </trkpt>
      <trkpt lat="48.44215" lon="7.13122">
        <ele>879</ele>
        <time>2019-05-15T09:44:56.063Z</time>
      </trkpt>
      <trkpt lat="48.44215" lon="7.13122">
        <ele>879</ele>
        <time>2019-05-15T09:44:57.063Z</time>
      </trkpt>
      <trkpt lat="48.44215" lon="7.13121">
        <ele>879</ele>
        <time>2019-05-15T09:44:58.063Z</time>
      </trkpt>
      <trkpt lat="48.44215" lon="7.1312">
        <ele>879</ele>
        <time>2019-05-15T09:44:59.063Z</time>
      </trkpt>
      <trkpt lat="48.44215" lon="7.13119">
        <ele>879</ele>
        <time>2019-05-15T09:45:00.063Z</time>
      </trkpt>
      <trkpt lat="48.44214" lon="7.13118">
        <ele>879</ele>
        <time>2019-05-15T09:45:01.063Z</time>
      </trkpt>
      <trkpt lat="48.44214" lon="7.13117">
        <ele>879</ele>
        <time>2019-05-15T09:45:02.063Z</time>
      </trkpt>
      <trkpt lat="48.44214" lon="7.13116">
        <ele>879</ele>
        <time>2019-05-15T09:45:03.063Z</time>
      </trkpt>
      <trkpt lat="48.44214" lon="7.13115">
        <ele>879</ele>
        <time>2019-05-15T09:45:04.063Z</time>
      </trkpt>
      <trkpt lat="48.44214" lon="7.13114">
        <ele>880</ele>
        <time>2019-05-15T09:45:05.063Z</time>
      </trkpt>
      <trkpt lat="48.44213" lon="7.13113">
        <ele>880</ele>
        <time>2019-05-15T09:45:06.063Z</time>
      </trkpt>
      <trkpt lat="48.44213" lon="7.13113">
        <ele>881</ele>
        <time>2019-05-15T09:45:07.063Z</time>
      </trkpt>
      <trkpt lat="48.44213" lon="7.13112">
        <ele>881</ele>
        <time>2019-05-15T09:45:08.063Z</time>
      </trkpt>
      <trkpt lat="48.44212" lon="7.13112">
        <ele>881</ele>
        <time>2019-05-15T09:45:09.063Z</time>
      </trkpt>
      <trkpt lat="48.44212" lon="7.13111">
        <ele>881</ele>
        <time>2019-05-15T09:45:10.063Z</time>
      </trkpt>
      <trkpt lat="48.44212" lon="7.13111">
        <ele>881</ele>
        <time>2019-05-15T09:45:11.063Z</time>
      </trkpt>
      <trkpt lat="48.44212" lon="7.13111">
        <ele>881</ele>
        <time>2019-05-15T09:45:12.063Z</time>
      </trkpt>
      <trkpt lat="48.44211" lon="7.13111">
        <ele>882</ele>
        <time>2019-05-15T09:45:13.063Z</time>
      </trkpt>
      <trkpt lat="48.44211" lon="7.13111">
        <ele>882</ele>
        <time>2019-05-15T09:45:14.063Z</time>
      </trkpt>
      <trkpt lat="48.44211" lon="7.13111">
        <ele>882</ele>
        <time>2019-05-15T09:45:15.063Z</time>
      </trkpt>
      <trkpt lat="48.4421" lon="7.13111">
        <ele>883</ele>
        <time>2019-05-15T09:45:16.063Z</time>
      </trkpt>
      <trkpt lat="48.4421" lon="7.13112">
        <ele>884</ele>
        <time>2019-05-15T09:45:17.063Z</time>
      </trkpt>
      <trkpt lat="48.4421" lon="7.13112">
        <ele>884</ele>
        <time>2019-05-15T09:45:18.063Z</time>
      </trkpt>
      <trkpt lat="48.4421" lon="7.13113">
        <ele>884</ele>
        <time>2019-05-15T09:45:19.063Z</time>
      </trkpt>
      <trkpt lat="48.4421" lon="7.13113">
        <ele>885</ele>
        <time>2019-05-15T09:45:20.063Z</time>
      </trkpt>
      <trkpt lat="48.44209" lon="7.13114">
        <ele>884</ele>
        <time>2019-05-15T09:45:21.063Z</time>
      </trkpt>
      <trkpt lat="48.44209" lon="7.13114">
        <ele>884</ele>
        <time>2019-05-15T09:45:22.063Z</time>
      </trkpt>
      <trkpt lat="48.44209" lon="7.13114">
        <ele>885</ele>
        <time>2019-05-15T09:45:23.063Z</time>
      </trkpt>
      <trkpt lat="48.44208" lon="7.13115">
        <ele>885</ele>
        <time>2019-05-15T09:45:24.063Z</time>
      </trkpt>
      <trkpt lat="48.44208" lon="7.13115">
        <ele>885</ele>
        <time>2019-05-15T09:45:25.063Z</time>
      </trkpt>
      <trkpt lat="48.44208" lon="7.13115">
        <ele>885</ele>
        <time>2019-05-15T09:45:26.063Z</time>
      </trkpt>
      <trkpt lat="48.44208" lon="7.13116">
        <ele>885</ele>
        <time>2019-05-15T09:45:27.063Z</time>
      </trkpt>
      <trkpt lat="48.44208" lon="7.13116">
        <ele>885</ele>
        <time>2019-05-15T09:45:28.063Z</time>
      </trkpt>
      <trkpt lat="48.44208" lon="7.13116">
        <ele>885</ele>
        <time>2019-05-15T09:45:29.063Z</time>
      </trkpt>
      <trkpt lat="48.44208" lon="7.13116">
        <ele>885</ele>
        <time>2019-05-15T09:45:30.063Z</time>
      </trkpt>
      <trkpt lat="48.44208" lon="7.13116">
        <ele>885</ele>
        <time>2019-05-15T09:45:31.063Z</time>
      </trkpt>
      <trkpt lat="48.44207" lon="7.13116">
        <ele>885</ele>
        <time>2019-05-15T09:45:32.063Z</time>
      </trkpt>
      <trkpt lat="48.44207" lon="7.13117">
        <ele>885</ele>
        <time>2019-05-15T09:45:33.063Z</time>
      </trkpt>
      <trkpt lat="48.44207" lon="7.13117">
        <ele>885</ele>
        <time>2019-05-15T09:45:34.063Z</time>
      </trkpt>
      <trkpt lat="48.44207" lon="7.13117">
        <ele>885</ele>
        <time>2019-05-15T09:45:35.063Z</time>
      </trkpt>
      <trkpt lat="48.44206" lon="7.13118">
        <ele>885</ele>
        <time>2019-05-15T09:45:36.063Z</time>
      </trkpt>
      <trkpt lat="48.44206" lon="7.13118">
        <ele>886</ele>
        <time>2019-05-15T09:45:37.063Z</time>
      </trkpt>
      <trkpt lat="48.44206" lon="7.13119">
        <ele>885</ele>
        <time>2019-05-15T09:45:38.063Z</time>
      </trkpt>
      <trkpt lat="48.44206" lon="7.13119">
        <ele>885</ele>
        <time>2019-05-15T09:45:39.063Z</time>
      </trkpt>
      <trkpt lat="48.44205" lon="7.1312">
        <ele>885</ele>
        <time>2019-05-15T09:45:40.063Z</time>
      </trkpt>
      <trkpt lat="48.44205" lon="7.1312">
        <ele>885</ele>
        <time>2019-05-15T09:45:41.063Z</time>
      </trkpt>
      <trkpt lat="48.44204" lon="7.13121">
        <ele>885</ele>
        <time>2019-05-15T09:45:42.063Z</time>
      </trkpt>
      <trkpt lat="48.44204" lon="7.13122">
        <ele>886</ele>
        <time>2019-05-15T09:45:43.063Z</time>
      </trkpt>
      <trkpt lat="48.44204" lon="7.13122">
        <ele>886</ele>
        <time>2019-05-15T09:45:44.063Z</time>
      </trkpt>
      <trkpt lat="48.44204" lon="7.13123">
        <ele>886</ele>
        <time>2019-05-15T09:45:45.063Z</time>
      </trkpt>
      <trkpt lat="48.44203" lon="7.13124">
        <ele>887</ele>
        <time>2019-05-15T09:45:46.063Z</time>
      </trkpt>
      <trkpt lat="48.44203" lon="7.13124">
        <ele>886</ele>
        <time>2019-05-15T09:45:47.063Z</time>
      </trkpt>
      <trkpt lat="48.44203" lon="7.13124">
        <ele>886</ele>
        <time>2019-05-15T09:45:48.063Z</time>
      </trkpt>
      <trkpt lat="48.44203" lon="7.13125">
        <ele>886</ele>
        <time>2019-05-15T09:45:49.063Z</time>
      </trkpt>
      <trkpt lat="48.44202" lon="7.13125">
        <ele>886</ele>
        <time>2019-05-15T09:45:50.063Z</time>
      </trkpt>
      <trkpt lat="48.44202" lon="7.13126">
        <ele>886</ele>
        <time>2019-05-15T09:45:51.063Z</time>
      </trkpt>
      <trkpt lat="48.44202" lon="7.13126">
        <ele>885</ele>
        <time>2019-05-15T09:45:52.063Z</time>
      </trkpt>
      <trkpt lat="48.44201" lon="7.13127">
        <ele>885</ele>
        <time>2019-05-15T09:45:53.063Z</time>
      </trkpt>
      <trkpt lat="48.44201" lon="7.13127">
        <ele>886</ele>
        <time>2019-05-15T09:45:54.063Z</time>
      </trkpt>
      <trkpt lat="48.44201" lon="7.13127">
        <ele>885</ele>
        <time>2019-05-15T09:45:55.063Z</time>
      </trkpt>
      <trkpt lat="48.442" lon="7.13128">
        <ele>886</ele>
        <time>2019-05-15T09:45:56.063Z</time>
      </trkpt>
      <trkpt lat="48.442" lon="7.13129">
        <ele>886</ele>
        <time>2019-05-15T09:45:57.063Z</time>
      </trkpt>
      <trkpt lat="48.442" lon="7.1313">
        <ele>886</ele>
        <time>2019-05-15T09:45:58.063Z</time>
      </trkpt>
      <trkpt lat="48.442" lon="7.1313">
        <ele>886</ele>
        <time>2019-05-15T09:45:59.063Z</time>
      </trkpt>
      <trkpt lat="48.44199" lon="7.13131">
        <ele>887</ele>
        <time>2019-05-15T09:46:00.063Z</time>
      </trkpt>
      <trkpt lat="48.44199" lon="7.13131">
        <ele>886</ele>
        <time>2019-05-15T09:46:01.063Z</time>
      </trkpt>
      <trkpt lat="48.44198" lon="7.13131">
        <ele>886</ele>
        <time>2019-05-15T09:46:02.063Z</time>
      </trkpt>
      <trkpt lat="48.44198" lon="7.13132">
        <ele>887</ele>
        <time>2019-05-15T09:46:03.063Z</time>
      </trkpt>
      <trkpt lat="48.44198" lon="7.13132">
        <ele>887</ele>
        <time>2019-05-15T09:46:04.063Z</time>
      </trkpt>
      <trkpt lat="48.44197" lon="7.13133">
        <ele>887</ele>
        <time>2019-05-15T09:46:05.063Z</time>
      </trkpt>
      <trkpt lat="48.44197" lon="7.13133">
        <ele>887</ele>
        <time>2019-05-15T09:46:06.063Z</time>
      </trkpt>
      <trkpt lat="48.44196" lon="7.13133">
        <ele>887</ele>
        <time>2019-05-15T09:46:07.063Z</time>
      </trkpt>
      <trkpt lat="48.44196" lon="7.13133">
        <ele>887</ele>
        <time>2019-05-15T09:46:08.063Z</time>
      </trkpt>
      <trkpt lat="48.44195" lon="7.13132">
        <ele>887</ele>
        <time>2019-05-15T09:46:09.063Z</time>
      </trkpt>
      <trkpt lat="48.44195" lon="7.13132">
        <ele>888</ele>
        <time>2019-05-15T09:46:10.063Z</time>
      </trkpt>
      <trkpt lat="48.44195" lon="7.13131">
        <ele>888</ele>
        <time>2019-05-15T09:46:11.063Z</time>
      </trkpt>
      <trkpt lat="48.44195" lon="7.13131">
        <ele>888</ele>
        <time>2019-05-15T09:46:12.063Z</time>
      </trkpt>
      <trkpt lat="48.44195" lon="7.1313">
        <ele>888</ele>
        <time>2019-05-15T09:46:13.063Z</time>
      </trkpt>
      <trkpt lat="48.44195" lon="7.13129">
        <ele>888</ele>
        <time>2019-05-15T09:46:14.063Z</time>
      </trkpt>
      <trkpt lat="48.44195" lon="7.13129">
        <ele>888</ele>
        <time>2019-05-15T09:46:15.063Z</time>
      </trkpt>
      <trkpt lat="48.44195" lon="7.13128">
        <ele>889</ele>
        <time>2019-05-15T09:46:16.063Z</time>
      </trkpt>
      <trkpt lat="48.44195" lon="7.13128">
        <ele>889</ele>
        <time>2019-05-15T09:46:17.063Z</time>
      </trkpt>
      <trkpt lat="48.44195" lon="7.13128">
        <ele>890</ele>
        <time>2019-05-15T09:46:18.063Z</time>
      </trkpt>
      <trkpt lat="48.44194" lon="7.13128">
        <ele>890</ele>
        <time>2019-05-15T09:46:19.063Z</time>
      </trkpt>
      <trkpt lat="48.44194" lon="7.13127">
        <ele>890</ele>
        <time>2019-05-15T09:46:20.063Z</time>
      </trkpt>
      <trkpt lat="48.44194" lon="7.13127">
        <ele>891</ele>
        <time>2019-05-15T09:46:21.063Z</time>
      </trkpt>
      <trkpt lat="48.44194" lon="7.13127">
        <ele>891</ele>
        <time>2019-05-15T09:46:22.063Z</time>
      </trkpt>
      <trkpt lat="48.44194" lon="7.13126">
        <ele>891</ele>
        <time>2019-05-15T09:46:23.063Z</time>
      </trkpt>
      <trkpt lat="48.44193" lon="7.13126">
        <ele>891</ele>
        <time>2019-05-15T09:46:24.063Z</time>
      </trkpt>
      <trkpt lat="48.44193" lon="7.13125">
        <ele>892</ele>
        <time>2019-05-15T09:46:25.063Z</time>
      </trkpt>
      <trkpt lat="48.44193" lon="7.13125">
        <ele>892</ele>
        <time>2019-05-15T09:46:26.063Z</time>
      </trkpt>
      <trkpt lat="48.44192" lon="7.13124">
        <ele>892</ele>
        <time>2019-05-15T09:46:27.063Z</time>
      </trkpt>
      <trkpt lat="48.44192" lon="7.13124">
        <ele>891</ele>
        <time>2019-05-15T09:46:28.063Z</time>
      </trkpt>
      <trkpt lat="48.44192" lon="7.13123">
        <ele>891</ele>
        <time>2019-05-15T09:46:29.063Z</time>
      </trkpt>
      <trkpt lat="48.44192" lon="7.13123">
        <ele>892</ele>
        <time>2019-05-15T09:46:30.063Z</time>
      </trkpt>
      <trkpt lat="48.44192" lon="7.13122">
        <ele>892</ele>
        <time>2019-05-15T09:46:31.063Z</time>
      </trkpt>
      <trkpt lat="48.44191" lon="7.13122">
        <ele>892</ele>
        <time>2019-05-15T09:46:32.063Z</time>
      </trkpt>
      <trkpt lat="48.44191" lon="7.13121">
        <ele>892</ele>
        <time>2019-05-15T09:46:33.063Z</time>
      </trkpt>
      <trkpt lat="48.44191" lon="7.1312">
        <ele>893</ele>
        <time>2019-05-15T09:46:34.063Z</time>
      </trkpt>
      <trkpt lat="48.44191" lon="7.1312">
        <ele>893</ele>
        <time>2019-05-15T09:46:35.063Z</time>
      </trkpt>
      <trkpt lat="48.44191" lon="7.13119">
        <ele>893</ele>
        <time>2019-05-15T09:46:36.063Z</time>
      </trkpt>
      <trkpt lat="48.4419" lon="7.13119">
        <ele>893</ele>
        <time>2019-05-15T09:46:37.063Z</time>
      </trkpt>
      <trkpt lat="48.4419" lon="7.13118">
        <ele>894</ele>
        <time>2019-05-15T09:46:38.063Z</time>
      </trkpt>
      <trkpt lat="48.4419" lon="7.13118">
        <ele>894</ele>
        <time>2019-05-15T09:46:39.063Z</time>
      </trkpt>
      <trkpt lat="48.4419" lon="7.13117">
        <ele>894</ele>
        <time>2019-05-15T09:46:40.063Z</time>
      </trkpt>
      <trkpt lat="48.4419" lon="7.13117">
        <ele>895</ele>
        <time>2019-05-15T09:46:41.063Z</time>
      </trkpt>
      <trkpt lat="48.4419" lon="7.13116">
        <ele>895</ele>
        <time>2019-05-15T09:46:42.063Z</time>
      </trkpt>
      <trkpt lat="48.44189" lon="7.13115">
        <ele>895</ele>
        <time>2019-05-15T09:46:43.063Z</time>
      </trkpt>
      <trkpt lat="48.44189" lon="7.13115">
        <ele>895</ele>
        <time>2019-05-15T09:46:44.063Z</time>
      </trkpt>
      <trkpt lat="48.44189" lon="7.13114">
        <ele>895</ele>
        <time>2019-05-15T09:46:45.063Z</time>
      </trkpt>
      <trkpt lat="48.44188" lon="7.13113">
        <ele>895</ele>
        <time>2019-05-15T09:46:46.063Z</time>
      </trkpt>
      <trkpt lat="48.44188" lon="7.13112">
        <ele>895</ele>
        <time>2019-05-15T09:46:47.063Z</time>
      </trkpt>
      <trkpt lat="48.44187" lon="7.13111">
        <ele>895</ele>
        <time>2019-05-15T09:46:48.063Z</time>
      </trkpt>
      <trkpt lat="48.44187" lon="7.13111">
        <ele>895</ele>
        <time>2019-05-15T09:46:49.063Z</time>
      </trkpt>
      <trkpt lat="48.44187" lon="7.1311">
        <ele>895</ele>
        <time>2019-05-15T09:46:50.063Z</time>
      </trkpt>
      <trkpt lat="48.44186" lon="7.13109">
        <ele>895</ele>
        <time>2019-05-15T09:46:51.063Z</time>
      </trkpt>
      <trkpt lat="48.44186" lon="7.13109">
        <ele>894</ele>
        <time>2019-05-15T09:46:52.063Z</time>
      </trkpt>
      <trkpt lat="48.44185" lon="7.13108">
        <ele>895</ele>
        <time>2019-05-15T09:46:53.063Z</time>
      </trkpt>
      <trkpt lat="48.44185" lon="7.13108">
        <ele>895</ele>
        <time>2019-05-15T09:46:54.063Z</time>
      </trkpt>
      <trkpt lat="48.44184" lon="7.13108">
        <ele>895</ele>
        <time>2019-05-15T09:46:55.063Z</time>
      </trkpt>
      <trkpt lat="48.44184" lon="7.13107">
        <ele>896</ele>
        <time>2019-05-15T09:46:56.063Z</time>
      </trkpt>
      <trkpt lat="48.44183" lon="7.13107">
        <ele>896</ele>
        <time>2019-05-15T09:46:57.063Z</time>
      </trkpt>
      <trkpt lat="48.44183" lon="7.13107">
        <ele>896</ele>
        <time>2019-05-15T09:46:58.063Z</time>
      </trkpt>
      <trkpt lat="48.44183" lon="7.13106">
        <ele>896</ele>
        <time>2019-05-15T09:46:59.063Z</time>
      </trkpt>
      <trkpt lat="48.44182" lon="7.13106">
        <ele>896</ele>
        <time>2019-05-15T09:47:00.063Z</time>
      </trkpt>
      <trkpt lat="48.44182" lon="7.13106">
        <ele>896</ele>
        <time>2019-05-15T09:47:01.063Z</time>
      </trkpt>
      <trkpt lat="48.44181" lon="7.13106">
        <ele>897</ele>
        <time>2019-05-15T09:47:02.063Z</time>
      </trkpt>
      <trkpt lat="48.44181" lon="7.13105">
        <ele>897</ele>
        <time>2019-05-15T09:47:03.063Z</time>
      </trkpt>
      <trkpt lat="48.4418" lon="7.13105">
        <ele>897</ele>
        <time>2019-05-15T09:47:04.063Z</time>
      </trkpt>
      <trkpt lat="48.4418" lon="7.13105">
        <ele>897</ele>
        <time>2019-05-15T09:47:05.063Z</time>
      </trkpt>
      <trkpt lat="48.4418" lon="7.13105">
        <ele>898</ele>
        <time>2019-05-15T09:47:06.063Z</time>
      </trkpt>
      <trkpt lat="48.4418" lon="7.13105">
        <ele>898</ele>
        <time>2019-05-15T09:47:07.063Z</time>
      </trkpt>
      <trkpt lat="48.44179" lon="7.13105">
        <ele>897</ele>
        <time>2019-05-15T09:47:08.063Z</time>
      </trkpt>
      <trkpt lat="48.44179" lon="7.13105">
        <ele>898</ele>
        <time>2019-05-15T09:47:09.063Z</time>
      </trkpt>
      <trkpt lat="48.44179" lon="7.13105">
        <ele>898</ele>
        <time>2019-05-15T09:47:10.063Z</time>
      </trkpt>
      <trkpt lat="48.44179" lon="7.13105">
        <ele>898</ele>
        <time>2019-05-15T09:47:11.063Z</time>
      </trkpt>
      <trkpt lat="48.44178" lon="7.13104">
        <ele>899</ele>
        <time>2019-05-15T09:47:12.063Z</time>
      </trkpt>
      <trkpt lat="48.44178" lon="7.13104">
        <ele>899</ele>
        <time>2019-05-15T09:47:13.063Z</time>
      </trkpt>
      <trkpt lat="48.44177" lon="7.13103">
        <ele>898</ele>
        <time>2019-05-15T09:47:14.063Z</time>
      </trkpt>
      <trkpt lat="48.44177" lon="7.13103">
        <ele>898</ele>
        <time>2019-05-15T09:47:15.063Z</time>
      </trkpt>
      <trkpt lat="48.44176" lon="7.13102">
        <ele>898</ele>
        <time>2019-05-15T09:47:16.063Z</time>
      </trkpt>
      <trkpt lat="48.44176" lon="7.13102">
        <ele>898</ele>
        <time>2019-05-15T09:47:17.063Z</time>
      </trkpt>
      <trkpt lat="48.44176" lon="7.13102">
        <ele>898</ele>
        <time>2019-05-15T09:47:18.063Z</time>
      </trkpt>
      <trkpt lat="48.44175" lon="7.13101">
        <ele>898</ele>
        <time>2019-05-15T09:47:19.063Z</time>
      </trkpt>
      <trkpt lat="48.44174" lon="7.13101">
        <ele>898</ele>
        <time>2019-05-15T09:47:20.063Z</time>
      </trkpt>
      <trkpt lat="48.44174" lon="7.131">
        <ele>898</ele>
        <time>2019-05-15T09:47:21.063Z</time>
      </trkpt>
      <trkpt lat="48.44173" lon="7.131">
        <ele>898</ele>
        <time>2019-05-15T09:47:22.063Z</time>
      </trkpt>
      <trkpt lat="48.44173" lon="7.131">
        <ele>898</ele>
        <time>2019-05-15T09:47:23.063Z</time>
      </trkpt>
      <trkpt lat="48.44172" lon="7.13099">
        <ele>898</ele>
        <time>2019-05-15T09:47:24.063Z</time>
      </trkpt>
      <trkpt lat="48.44172" lon="7.13099">
        <ele>898</ele>
        <time>2019-05-15T09:47:25.063Z</time>
      </trkpt>
      <trkpt lat="48.44171" lon="7.13098">
        <ele>899</ele>
        <time>2019-05-15T09:47:26.063Z</time>
      </trkpt>
      <trkpt lat="48.4417" lon="7.13098">
        <ele>898</ele>
        <time>2019-05-15T09:47:27.063Z</time>
      </trkpt>
      <trkpt lat="48.4417" lon="7.13098">
        <ele>898</ele>
        <time>2019-05-15T09:47:28.063Z</time>
      </trkpt>
      <trkpt lat="48.44169" lon="7.13098">
        <ele>898</ele>
        <time>2019-05-15T09:47:29.063Z</time>
      </trkpt>
      <trkpt lat="48.44168" lon="7.13098">
        <ele>899</ele>
        <time>2019-05-15T09:47:30.063Z</time>
      </trkpt>
      <trkpt lat="48.44168" lon="7.13098">
        <ele>899</ele>
        <time>2019-05-15T09:47:31.063Z</time>
      </trkpt>
      <trkpt lat="48.44168" lon="7.13098">
        <ele>899</ele>
        <time>2019-05-15T09:47:32.063Z</time>
      </trkpt>
      <trkpt lat="48.44167" lon="7.13098">
        <ele>899</ele>
        <time>2019-05-15T09:47:33.063Z</time>
      </trkpt>
      <trkpt lat="48.44167" lon="7.13098">
        <ele>900</ele>
        <time>2019-05-15T09:47:34.063Z</time>
      </trkpt>
      <trkpt lat="48.44166" lon="7.13098">
        <ele>899</ele>
        <time>2019-05-15T09:47:35.063Z</time>
      </trkpt>
      <trkpt lat="48.44166" lon="7.13098">
        <ele>899</ele>
        <time>2019-05-15T09:47:36.063Z</time>
      </trkpt>
      <trkpt lat="48.44166" lon="7.13098">
        <ele>899</ele>
        <time>2019-05-15T09:47:37.063Z</time>
      </trkpt>
      <trkpt lat="48.44166" lon="7.13098">
        <ele>899</ele>
        <time>2019-05-15T09:47:38.063Z</time>
      </trkpt>
      <trkpt lat="48.44165" lon="7.13099">
        <ele>899</ele>
        <time>2019-05-15T09:47:39.063Z</time>
      </trkpt>
      <trkpt lat="48.44165" lon="7.13099">
        <ele>899</ele>
        <time>2019-05-15T09:47:40.063Z</time>
      </trkpt>
      <trkpt lat="48.44165" lon="7.13099">
        <ele>900</ele>
        <time>2019-05-15T09:47:41.063Z</time>
      </trkpt>
      <trkpt lat="48.44165" lon="7.13099">
        <ele>900</ele>
        <time>2019-05-15T09:47:42.063Z</time>
      </trkpt>
      <trkpt lat="48.44165" lon="7.13099">
        <ele>900</ele>
        <time>2019-05-15T09:47:43.063Z</time>
      </trkpt>
      <trkpt lat="48.44165" lon="7.13099">
        <ele>900</ele>
        <time>2019-05-15T09:47:44.063Z</time>
      </trkpt>
      <trkpt lat="48.44165" lon="7.131">
        <ele>901</ele>
        <time>2019-05-15T09:47:45.063Z</time>
      </trkpt>
      <trkpt lat="48.44164" lon="7.131">
        <ele>901</ele>
        <time>2019-05-15T09:47:46.063Z</time>
      </trkpt>
      <trkpt lat="48.44164" lon="7.131">
        <ele>901</ele>
        <time>2019-05-15T09:47:47.063Z</time>
      </trkpt>
      <trkpt lat="48.44164" lon="7.131">
        <ele>901</ele>
        <time>2019-05-15T09:47:48.063Z</time>
      </trkpt>
      <trkpt lat="48.44164" lon="7.13101">
        <ele>901</ele>
        <time>2019-05-15T09:47:49.063Z</time>
      </trkpt>
      <trkpt lat="48.44164" lon="7.13101">
        <ele>901</ele>
        <time>2019-05-15T09:47:50.063Z</time>
      </trkpt>
      <trkpt lat="48.44164" lon="7.13101">
        <ele>901</ele>
        <time>2019-05-15T09:47:51.063Z</time>
      </trkpt>
      <trkpt lat="48.44164" lon="7.13101">
        <ele>902</ele>
        <time>2019-05-15T09:47:52.063Z</time>
      </trkpt>
      <trkpt lat="48.44164" lon="7.13101">
        <ele>902</ele>
        <time>2019-05-15T09:47:53.063Z</time>
      </trkpt>
      <trkpt lat="48.44164" lon="7.13101">
        <ele>902</ele>
        <time>2019-05-15T09:47:54.063Z</time>
      </trkpt>
      <trkpt lat="48.44164" lon="7.13101">
        <ele>902</ele>
        <time>2019-05-15T09:47:55.063Z</time>
      </trkpt>
      <trkpt lat="48.44163" lon="7.13101">
        <ele>902</ele>
        <time>2019-05-15T09:47:56.063Z</time>
      </trkpt>
      <trkpt lat="48.44163" lon="7.13101">
        <ele>902</ele>
        <time>2019-05-15T09:47:57.063Z</time>
      </trkpt>
      <trkpt lat="48.44163" lon="7.13101">
        <ele>901</ele>
        <time>2019-05-15T09:47:58.063Z</time>
      </trkpt>
      <trkpt lat="48.44163" lon="7.13101">
        <ele>902</ele>
        <time>2019-05-15T09:47:59.063Z</time>
      </trkpt>
      <trkpt lat="48.44163" lon="7.13101">
        <ele>902</ele>
        <time>2019-05-15T09:48:00.063Z</time>
      </trkpt>
      <trkpt lat="48.44163" lon="7.13101">
        <ele>901</ele>
        <time>2019-05-15T09:48:01.063Z</time>
      </trkpt>
      <trkpt lat="48.44163" lon="7.13101">
        <ele>901</ele>
        <time>2019-05-15T09:48:02.063Z</time>
      </trkpt>
      <trkpt lat="48.44163" lon="7.13101">
        <ele>901</ele>
        <time>2019-05-15T09:48:03.063Z</time>
      </trkpt>
      <trkpt lat="48.44163" lon="7.13101">
        <ele>901</ele>
        <time>2019-05-15T09:48:04.063Z</time>
      </trkpt>
      <trkpt lat="48.44163" lon="7.131">
        <ele>901</ele>
        <time>2019-05-15T09:48:05.063Z</time>
      </trkpt>
      <trkpt lat="48.44163" lon="7.131">
        <ele>901</ele>
        <time>2019-05-15T09:48:06.063Z</time>
      </trkpt>
      <trkpt lat="48.44163" lon="7.131">
        <ele>900</ele>
        <time>2019-05-15T09:48:07.063Z</time>
      </trkpt>
      <trkpt lat="48.44163" lon="7.131">
        <ele>900</ele>
        <time>2019-05-15T09:48:08.063Z</time>
      </trkpt>
      <trkpt lat="48.44163" lon="7.131">
        <ele>900</ele>
        <time>2019-05-15T09:48:09.063Z</time>
      </trkpt>
      <trkpt lat="48.44163" lon="7.131">
        <ele>900</ele>
        <time>2019-05-15T09:48:10.063Z</time>
      </trkpt>
      <trkpt lat="48.44163" lon="7.131">
        <ele>899</ele>
        <time>2019-05-15T09:48:11.063Z</time>
      </trkpt>
      <trkpt lat="48.44163" lon="7.13099">
        <ele>899</ele>
        <time>2019-05-15T09:48:12.063Z</time>
      </trkpt>
      <trkpt lat="48.44163" lon="7.13099">
        <ele>899</ele>
        <time>2019-05-15T09:48:13.063Z</time>
      </trkpt>
      <trkpt lat="48.44163" lon="7.13099">
        <ele>899</ele>
        <time>2019-05-15T09:48:14.063Z</time>
      </trkpt>
      <trkpt lat="48.44163" lon="7.13099">
        <ele>898</ele>
        <time>2019-05-15T09:48:15.063Z</time>
      </trkpt>
      <trkpt lat="48.44163" lon="7.13099">
        <ele>898</ele>
        <time>2019-05-15T09:48:16.063Z</time>
      </trkpt>
      <trkpt lat="48.44163" lon="7.13099">
        <ele>898</ele>
        <time>2019-05-15T09:48:17.063Z</time>
      </trkpt>
      <trkpt lat="48.44163" lon="7.13099">
        <ele>898</ele>
        <time>2019-05-15T09:48:18.063Z</time>
      </trkpt>
      <trkpt lat="48.44163" lon="7.13099">
        <ele>898</ele>
        <time>2019-05-15T09:48:19.063Z</time>
      </trkpt>
      <trkpt lat="48.44163" lon="7.13099">
        <ele>898</ele>
        <time>2019-05-15T09:48:20.063Z</time>
      </trkpt>
      <trkpt lat="48.44163" lon="7.13099">
        <ele>898</ele>
        <time>2019-05-15T09:48:21.063Z</time>
      </trkpt>
      <trkpt lat="48.44163" lon="7.13099">
        <ele>898</ele>
        <time>2019-05-15T09:48:22.063Z</time>
      </trkpt>
      <trkpt lat="48.44163" lon="7.13098">
        <ele>898</ele>
        <time>2019-05-15T09:48:23.063Z</time>
      </trkpt>
      <trkpt lat="48.44163" lon="7.13098">
        <ele>899</ele>
        <time>2019-05-15T09:48:24.063Z</time>
      </trkpt>
      <trkpt lat="48.44163" lon="7.13099">
        <ele>899</ele>
        <time>2019-05-15T09:48:25.063Z</time>
      </trkpt>
      <trkpt lat="48.44163" lon="7.13099">
        <ele>899</ele>
        <time>2019-05-15T09:48:26.063Z</time>
      </trkpt>
      <trkpt lat="48.44163" lon="7.13099">
        <ele>899</ele>
        <time>2019-05-15T09:48:27.063Z</time>
      </trkpt>
      <trkpt lat="48.44162" lon="7.13099">
        <ele>900</ele>
        <time>2019-05-15T09:48:28.063Z</time>
      </trkpt>
      <trkpt lat="48.44162" lon="7.13099">
        <ele>900</ele>
        <time>2019-05-15T09:48:29.063Z</time>
      </trkpt>
      <trkpt lat="48.44162" lon="7.13099">
        <ele>900</ele>
        <time>2019-05-15T09:48:30.063Z</time>
      </trkpt>
      <trkpt lat="48.44162" lon="7.13099">
        <ele>900</ele>
        <time>2019-05-15T09:48:31.063Z</time>
      </trkpt>
      <trkpt lat="48.44162" lon="7.13099">
        <ele>901</ele>
        <time>2019-05-15T09:48:32.063Z</time>
      </trkpt>
      <trkpt lat="48.44162" lon="7.13099">
        <ele>901</ele>
        <time>2019-05-15T09:48:33.063Z</time>
      </trkpt>
      <trkpt lat="48.44162" lon="7.13099">
        <ele>901</ele>
        <time>2019-05-15T09:48:34.063Z</time>
      </trkpt>
      <trkpt lat="48.44162" lon="7.13099">
        <ele>901</ele>
        <time>2019-05-15T09:48:35.063Z</time>
      </trkpt>
      <trkpt lat="48.44162" lon="7.13099">
        <ele>902</ele>
        <time>2019-05-15T09:48:36.063Z</time>
      </trkpt>
      <trkpt lat="48.44162" lon="7.13099">
        <ele>902</ele>
        <time>2019-05-15T09:48:37.063Z</time>
      </trkpt>
      <trkpt lat="48.44162" lon="7.131">
        <ele>902</ele>
        <time>2019-05-15T09:48:38.063Z</time>
      </trkpt>
      <trkpt lat="48.44162" lon="7.131">
        <ele>902</ele>
        <time>2019-05-15T09:48:39.063Z</time>
      </trkpt>
      <trkpt lat="48.44162" lon="7.13101">
        <ele>902</ele>
        <time>2019-05-15T09:48:40.063Z</time>
      </trkpt>
      <trkpt lat="48.44161" lon="7.13102">
        <ele>902</ele>
        <time>2019-05-15T09:48:41.063Z</time>
      </trkpt>
      <trkpt lat="48.44161" lon="7.13103">
        <ele>902</ele>
        <time>2019-05-15T09:48:42.063Z</time>
      </trkpt>
      <trkpt lat="48.4416" lon="7.13104">
        <ele>902</ele>
        <time>2019-05-15T09:48:43.063Z</time>
      </trkpt>
      <trkpt lat="48.4416" lon="7.13104">
        <ele>902</ele>
        <time>2019-05-15T09:48:44.063Z</time>
      </trkpt>
      <trkpt lat="48.44159" lon="7.13105">
        <ele>901</ele>
        <time>2019-05-15T09:48:45.063Z</time>
      </trkpt>
      <trkpt lat="48.44159" lon="7.13105">
        <ele>901</ele>
        <time>2019-05-15T09:48:46.063Z</time>
      </trkpt>
      <trkpt lat="48.44158" lon="7.13106">
        <ele>901</ele>
        <time>2019-05-15T09:48:47.063Z</time>
      </trkpt>
      <trkpt lat="48.44158" lon="7.13107">
        <ele>902</ele>
        <time>2019-05-15T09:48:48.063Z</time>
      </trkpt>
      <trkpt lat="48.44157" lon="7.13107">
        <ele>902</ele>
        <time>2019-05-15T09:48:49.063Z</time>
      </trkpt>
      <trkpt lat="48.44157" lon="7.13108">
        <ele>902</ele>
        <time>2019-05-15T09:48:50.063Z</time>
      </trkpt>
      <trkpt lat="48.44156" lon="7.13109">
        <ele>902</ele>
        <time>2019-05-15T09:48:51.063Z</time>
      </trkpt>
      <trkpt lat="48.44156" lon="7.1311">
        <ele>903</ele>
        <time>2019-05-15T09:48:52.063Z</time>
      </trkpt>
      <trkpt lat="48.44155" lon="7.1311">
        <ele>903</ele>
        <time>2019-05-15T09:48:53.063Z</time>
      </trkpt>
      <trkpt lat="48.44154" lon="7.13111">
        <ele>903</ele>
        <time>2019-05-15T09:48:54.063Z</time>
      </trkpt>
      <trkpt lat="48.44154" lon="7.13112">
        <ele>903</ele>
        <time>2019-05-15T09:48:55.063Z</time>
      </trkpt>
      <trkpt lat="48.44153" lon="7.13113">
        <ele>903</ele>
        <time>2019-05-15T09:48:56.063Z</time>
      </trkpt>
      <trkpt lat="48.44152" lon="7.13114">
        <ele>902</ele>
        <time>2019-05-15T09:48:57.063Z</time>
      </trkpt>
      <trkpt lat="48.44151" lon="7.13114">
        <ele>902</ele>
        <time>2019-05-15T09:48:58.063Z</time>
      </trkpt>
      <trkpt lat="48.44151" lon="7.13115">
        <ele>903</ele>
        <time>2019-05-15T09:48:59.063Z</time>
      </trkpt>
      <trkpt lat="48.4415" lon="7.13116">
        <ele>903</ele>
        <time>2019-05-15T09:49:00.063Z</time>
      </trkpt>
      <trkpt lat="48.4415" lon="7.13117">
        <ele>902</ele>
        <time>2019-05-15T09:49:01.063Z</time>
      </trkpt>
      <trkpt lat="48.44149" lon="7.13118">
        <ele>902</ele>
        <time>2019-05-15T09:49:02.063Z</time>
      </trkpt>
      <trkpt lat="48.44148" lon="7.13118">
        <ele>902</ele>
        <time>2019-05-15T09:49:03.063Z</time>
      </trkpt>
      <trkpt lat="48.44147" lon="7.13119">
        <ele>902</ele>
        <time>2019-05-15T09:49:04.063Z</time>
      </trkpt>
      <trkpt lat="48.44147" lon="7.1312">
        <ele>902</ele>
        <time>2019-05-15T09:49:05.063Z</time>
      </trkpt>
      <trkpt lat="48.44146" lon="7.13121">
        <ele>902</ele>
        <time>2019-05-15T09:49:06.063Z</time>
      </trkpt>
      <trkpt lat="48.44145" lon="7.13122">
        <ele>902</ele>
        <time>2019-05-15T09:49:07.063Z</time>
      </trkpt>
      <trkpt lat="48.44145" lon="7.13124">
        <ele>901</ele>
        <time>2019-05-15T09:49:08.063Z</time>
      </trkpt>
      <trkpt lat="48.44144" lon="7.13125">
        <ele>901</ele>
        <time>2019-05-15T09:49:09.063Z</time>
      </trkpt>
      <trkpt lat="48.44143" lon="7.13126">
        <ele>901</ele>
        <time>2019-05-15T09:49:10.063Z</time>
      </trkpt>
      <trkpt lat="48.44143" lon="7.13128">
        <ele>901</ele>
        <time>2019-05-15T09:49:11.063Z</time>
      </trkpt>
      <trkpt lat="48.44142" lon="7.13129">
        <ele>901</ele>
        <time>2019-05-15T09:49:12.063Z</time>
      </trkpt>
      <trkpt lat="48.44141" lon="7.1313">
        <ele>901</ele>
        <time>2019-05-15T09:49:13.063Z</time>
      </trkpt>
      <trkpt lat="48.4414" lon="7.13131">
        <ele>901</ele>
        <time>2019-05-15T09:49:14.063Z</time>
      </trkpt>
      <trkpt lat="48.4414" lon="7.13132">
        <ele>901</ele>
        <time>2019-05-15T09:49:15.063Z</time>
      </trkpt>
      <trkpt lat="48.44139" lon="7.13134">
        <ele>902</ele>
        <time>2019-05-15T09:49:16.063Z</time>
      </trkpt>
      <trkpt lat="48.44139" lon="7.13136">
        <ele>902</ele>
        <time>2019-05-15T09:49:17.063Z</time>
      </trkpt>
      <trkpt lat="48.44138" lon="7.13138">
        <ele>902</ele>
        <time>2019-05-15T09:49:18.063Z</time>
      </trkpt>
      <trkpt lat="48.44138" lon="7.13139">
        <ele>902</ele>
        <time>2019-05-15T09:49:19.063Z</time>
      </trkpt>
      <trkpt lat="48.44137" lon="7.1314">
        <ele>902</ele>
        <time>2019-05-15T09:49:20.063Z</time>
      </trkpt>
      <trkpt lat="48.44136" lon="7.13142">
        <ele>902</ele>
        <time>2019-05-15T09:49:21.063Z</time>
      </trkpt>
      <trkpt lat="48.44136" lon="7.13143">
        <ele>902</ele>
        <time>2019-05-15T09:49:22.063Z</time>
      </trkpt>
      <trkpt lat="48.44135" lon="7.13144">
        <ele>902</ele>
        <time>2019-05-15T09:49:23.063Z</time>
      </trkpt>
      <trkpt lat="48.44134" lon="7.13145">
        <ele>902</ele>
        <time>2019-05-15T09:49:24.063Z</time>
      </trkpt>
      <trkpt lat="48.44133" lon="7.13146">
        <ele>902</ele>
        <time>2019-05-15T09:49:25.063Z</time>
      </trkpt>
      <trkpt lat="48.44133" lon="7.13147">
        <ele>902</ele>
        <time>2019-05-15T09:49:26.063Z</time>
      </trkpt>
      <trkpt lat="48.44132" lon="7.13149">
        <ele>903</ele>
        <time>2019-05-15T09:49:27.063Z</time>
      </trkpt>
      <trkpt lat="48.44132" lon="7.1315">
        <ele>903</ele>
        <time>2019-05-15T09:49:28.063Z</time>
      </trkpt>
      <trkpt lat="48.44132" lon="7.13151">
        <ele>903</ele>
        <time>2019-05-15T09:49:29.063Z</time>
      </trkpt>
      <trkpt lat="48.44131" lon="7.13152">
        <ele>903</ele>
        <time>2019-05-15T09:49:30.063Z</time>
      </trkpt>
      <trkpt lat="48.44131" lon="7.13153">
        <ele>904</ele>
        <time>2019-05-15T09:49:31.063Z</time>
      </trkpt>
      <trkpt lat="48.44131" lon="7.13154">
        <ele>904</ele>
        <time>2019-05-15T09:49:32.063Z</time>
      </trkpt>
      <trkpt lat="48.44131" lon="7.13155">
        <ele>904</ele>
        <time>2019-05-15T09:49:33.063Z</time>
      </trkpt>
      <trkpt lat="48.4413" lon="7.13156">
        <ele>904</ele>
        <time>2019-05-15T09:49:34.063Z</time>
      </trkpt>
      <trkpt lat="48.4413" lon="7.13157">
        <ele>904</ele>
        <time>2019-05-15T09:49:35.063Z</time>
      </trkpt>
      <trkpt lat="48.44129" lon="7.13158">
        <ele>904</ele>
        <time>2019-05-15T09:49:36.063Z</time>
      </trkpt>
      <trkpt lat="48.44129" lon="7.13158">
        <ele>904</ele>
        <time>2019-05-15T09:49:37.063Z</time>
      </trkpt>
      <trkpt lat="48.44128" lon="7.13159">
        <ele>904</ele>
        <time>2019-05-15T09:49:38.063Z</time>
      </trkpt>
      <trkpt lat="48.44127" lon="7.1316">
        <ele>904</ele>
        <time>2019-05-15T09:49:39.063Z</time>
      </trkpt>
      <trkpt lat="48.44126" lon="7.13161">
        <ele>905</ele>
        <time>2019-05-15T09:49:40.063Z</time>
      </trkpt>
      <trkpt lat="48.44126" lon="7.13162">
        <ele>905</ele>
        <time>2019-05-15T09:49:41.063Z</time>
      </trkpt>
      <trkpt lat="48.44125" lon="7.13164">
        <ele>905</ele>
        <time>2019-05-15T09:49:42.063Z</time>
      </trkpt>
      <trkpt lat="48.44125" lon="7.13165">
        <ele>905</ele>
        <time>2019-05-15T09:49:43.063Z</time>
      </trkpt>
      <trkpt lat="48.44124" lon="7.13166">
        <ele>905</ele>
        <time>2019-05-15T09:49:44.063Z</time>
      </trkpt>
      <trkpt lat="48.44124" lon="7.13168">
        <ele>904</ele>
        <time>2019-05-15T09:49:45.063Z</time>
      </trkpt>
      <trkpt lat="48.44124" lon="7.13169">
        <ele>904</ele>
        <time>2019-05-15T09:49:46.063Z</time>
      </trkpt>
      <trkpt lat="48.44123" lon="7.1317">
        <ele>905</ele>
        <time>2019-05-15T09:49:47.063Z</time>
      </trkpt>
      <trkpt lat="48.44123" lon="7.13171">
        <ele>904</ele>
        <time>2019-05-15T09:49:48.063Z</time>
      </trkpt>
      <trkpt lat="48.44123" lon="7.13173">
        <ele>904</ele>
        <time>2019-05-15T09:49:49.063Z</time>
      </trkpt>
      <trkpt lat="48.44123" lon="7.13175">
        <ele>904</ele>
        <time>2019-05-15T09:49:50.063Z</time>
      </trkpt>
      <trkpt lat="48.44123" lon="7.13176">
        <ele>904</ele>
        <time>2019-05-15T09:49:51.063Z</time>
      </trkpt>
      <trkpt lat="48.44123" lon="7.13178">
        <ele>904</ele>
        <time>2019-05-15T09:49:52.063Z</time>
      </trkpt>
      <trkpt lat="48.44122" lon="7.13179">
        <ele>904</ele>
        <time>2019-05-15T09:49:53.063Z</time>
      </trkpt>
      <trkpt lat="48.44122" lon="7.1318">
        <ele>904</ele>
        <time>2019-05-15T09:49:54.063Z</time>
      </trkpt>
      <trkpt lat="48.44121" lon="7.13182">
        <ele>904</ele>
        <time>2019-05-15T09:49:55.063Z</time>
      </trkpt>
      <trkpt lat="48.4412" lon="7.13183">
        <ele>904</ele>
        <time>2019-05-15T09:49:56.063Z</time>
      </trkpt>
      <trkpt lat="48.4412" lon="7.13184">
        <ele>904</ele>
        <time>2019-05-15T09:49:57.063Z</time>
      </trkpt>
      <trkpt lat="48.4412" lon="7.13185">
        <ele>904</ele>
        <time>2019-05-15T09:49:58.063Z</time>
      </trkpt>
      <trkpt lat="48.44119" lon="7.13187">
        <ele>904</ele>
        <time>2019-05-15T09:49:59.063Z</time>
      </trkpt>
      <trkpt lat="48.44119" lon="7.13188">
        <ele>904</ele>
        <time>2019-05-15T09:50:00.063Z</time>
      </trkpt>
      <trkpt lat="48.44118" lon="7.13189">
        <ele>903</ele>
        <time>2019-05-15T09:50:01.063Z</time>
      </trkpt>
      <trkpt lat="48.44118" lon="7.1319">
        <ele>903</ele>
        <time>2019-05-15T09:50:02.063Z</time>
      </trkpt>
      <trkpt lat="48.44117" lon="7.13192">
        <ele>903</ele>
        <time>2019-05-15T09:50:03.063Z</time>
      </trkpt>
      <trkpt lat="48.44116" lon="7.13193">
        <ele>903</ele>
        <time>2019-05-15T09:50:04.063Z</time>
      </trkpt>
      <trkpt lat="48.44116" lon="7.13194">
        <ele>903</ele>
        <time>2019-05-15T09:50:05.063Z</time>
      </trkpt>
      <trkpt lat="48.44115" lon="7.13195">
        <ele>903</ele>
        <time>2019-05-15T09:50:06.063Z</time>
      </trkpt>
      <trkpt lat="48.44115" lon="7.13197">
        <ele>903</ele>
        <time>2019-05-15T09:50:07.063Z</time>
      </trkpt>
      <trkpt lat="48.44115" lon="7.13198">
        <ele>903</ele>
        <time>2019-05-15T09:50:08.063Z</time>
      </trkpt>
      <trkpt lat="48.44115" lon="7.13199">
        <ele>902</ele>
        <time>2019-05-15T09:50:09.063Z</time>
      </trkpt>
      <trkpt lat="48.44115" lon="7.132">
        <ele>902</ele>
        <time>2019-05-15T09:50:10.063Z</time>
      </trkpt>
      <trkpt lat="48.44115" lon="7.13201">
        <ele>902</ele>
        <time>2019-05-15T09:50:11.063Z</time>
      </trkpt>
      <trkpt lat="48.44115" lon="7.13203">
        <ele>902</ele>
        <time>2019-05-15T09:50:12.063Z</time>
      </trkpt>
      <trkpt lat="48.44115" lon="7.13204">
        <ele>902</ele>
        <time>2019-05-15T09:50:13.063Z</time>
      </trkpt>
      <trkpt lat="48.44115" lon="7.13205">
        <ele>903</ele>
        <time>2019-05-15T09:50:14.063Z</time>
      </trkpt>
      <trkpt lat="48.44115" lon="7.13206">
        <ele>902</ele>
        <time>2019-05-15T09:50:15.063Z</time>
      </trkpt>
      <trkpt lat="48.44115" lon="7.13206">
        <ele>902</ele>
        <time>2019-05-15T09:50:16.063Z</time>
      </trkpt>
      <trkpt lat="48.44114" lon="7.13206">
        <ele>902</ele>
        <time>2019-05-15T09:50:17.063Z</time>
      </trkpt>
      <trkpt lat="48.44114" lon="7.13207">
        <ele>902</ele>
        <time>2019-05-15T09:50:18.063Z</time>
      </trkpt>
      <trkpt lat="48.44114" lon="7.13207">
        <ele>901</ele>
        <time>2019-05-15T09:50:19.063Z</time>
      </trkpt>
      <trkpt lat="48.44114" lon="7.13207">
        <ele>901</ele>
        <time>2019-05-15T09:50:20.063Z</time>
      </trkpt>
      <trkpt lat="48.44114" lon="7.13208">
        <ele>901</ele>
        <time>2019-05-15T09:50:21.063Z</time>
      </trkpt>
      <trkpt lat="48.44114" lon="7.13208">
        <ele>901</ele>
        <time>2019-05-15T09:50:22.063Z</time>
      </trkpt>
      <trkpt lat="48.44114" lon="7.13208">
        <ele>901</ele>
        <time>2019-05-15T09:50:23.063Z</time>
      </trkpt>
      <trkpt lat="48.44114" lon="7.13207">
        <ele>902</ele>
        <time>2019-05-15T09:50:24.063Z</time>
      </trkpt>
      <trkpt lat="48.44113" lon="7.13207">
        <ele>901</ele>
        <time>2019-05-15T09:50:25.063Z</time>
      </trkpt>
      <trkpt lat="48.44113" lon="7.13207">
        <ele>901</ele>
        <time>2019-05-15T09:50:26.063Z</time>
      </trkpt>
      <trkpt lat="48.44113" lon="7.13207">
        <ele>901</ele>
        <time>2019-05-15T09:50:27.063Z</time>
      </trkpt>
      <trkpt lat="48.44113" lon="7.13207">
        <ele>901</ele>
        <time>2019-05-15T09:50:28.063Z</time>
      </trkpt>
      <trkpt lat="48.44113" lon="7.13207">
        <ele>902</ele>
        <time>2019-05-15T09:50:29.063Z</time>
      </trkpt>
      <trkpt lat="48.44113" lon="7.13207">
        <ele>902</ele>
        <time>2019-05-15T09:50:30.063Z</time>
      </trkpt>
      <trkpt lat="48.44113" lon="7.13207">
        <ele>902</ele>
        <time>2019-05-15T09:50:31.063Z</time>
      </trkpt>
      <trkpt lat="48.44113" lon="7.13207">
        <ele>902</ele>
        <time>2019-05-15T09:50:32.063Z</time>
      </trkpt>
      <trkpt lat="48.44113" lon="7.13207">
        <ele>901</ele>
        <time>2019-05-15T09:50:33.063Z</time>
      </trkpt>
      <trkpt lat="48.44113" lon="7.13207">
        <ele>901</ele>
        <time>2019-05-15T09:50:34.063Z</time>
      </trkpt>
      <trkpt lat="48.44112" lon="7.13207">
        <ele>901</ele>
        <time>2019-05-15T09:50:35.063Z</time>
      </trkpt>
      <trkpt lat="48.44112" lon="7.13207">
        <ele>901</ele>
        <time>2019-05-15T09:50:36.063Z</time>
      </trkpt>
      <trkpt lat="48.44112" lon="7.13207">
        <ele>901</ele>
        <time>2019-05-15T09:50:37.063Z</time>
      </trkpt>
      <trkpt lat="48.44112" lon="7.13207">
        <ele>901</ele>
        <time>2019-05-15T09:50:38.063Z</time>
      </trkpt>
      <trkpt lat="48.44112" lon="7.13207">
        <ele>901</ele>
        <time>2019-05-15T09:50:39.063Z</time>
      </trkpt>
      <trkpt lat="48.44112" lon="7.13207">
        <ele>900</ele>
        <time>2019-05-15T09:50:40.063Z</time>
      </trkpt>
      <trkpt lat="48.44112" lon="7.13208">
        <ele>901</ele>
        <time>2019-05-15T09:50:41.063Z</time>
      </trkpt>
      <trkpt lat="48.44112" lon="7.13208">
        <ele>901</ele>
        <time>2019-05-15T09:50:42.063Z</time>
      </trkpt>
      <trkpt lat="48.44112" lon="7.13208">
        <ele>901</ele>
        <time>2019-05-15T09:50:43.063Z</time>
      </trkpt>
      <trkpt lat="48.44112" lon="7.13208">
        <ele>902</ele>
        <time>2019-05-15T09:50:44.063Z</time>
      </trkpt>
      <trkpt lat="48.44112" lon="7.13208">
        <ele>901</ele>
        <time>2019-05-15T09:50:45.063Z</time>
      </trkpt>
      <trkpt lat="48.44112" lon="7.13208">
        <ele>901</ele>
        <time>2019-05-15T09:50:46.063Z</time>
      </trkpt>
      <trkpt lat="48.44112" lon="7.13208">
        <ele>901</ele>
        <time>2019-05-15T09:50:47.063Z</time>
      </trkpt>
      <trkpt lat="48.44112" lon="7.13208">
        <ele>901</ele>
        <time>2019-05-15T09:50:48.063Z</time>
      </trkpt>
      <trkpt lat="48.44112" lon="7.13208">
        <ele>901</ele>
        <time>2019-05-15T09:50:49.063Z</time>
      </trkpt>
      <trkpt lat="48.44112" lon="7.13208">
        <ele>901</ele>
        <time>2019-05-15T09:50:50.063Z</time>
      </trkpt>
      <trkpt lat="48.44111" lon="7.13208">
        <ele>901</ele>
        <time>2019-05-15T09:50:51.063Z</time>
      </trkpt>
      <trkpt lat="48.44111" lon="7.13208">
        <ele>901</ele>
        <time>2019-05-15T09:50:52.063Z</time>
      </trkpt>
      <trkpt lat="48.44111" lon="7.13209">
        <ele>901</ele>
        <time>2019-05-15T09:50:53.063Z</time>
      </trkpt>
      <trkpt lat="48.4411" lon="7.13209">
        <ele>901</ele>
        <time>2019-05-15T09:50:54.063Z</time>
      </trkpt>
      <trkpt lat="48.44109" lon="7.1321">
        <ele>901</ele>
        <time>2019-05-15T09:50:55.063Z</time>
      </trkpt>
      <trkpt lat="48.44109" lon="7.13211">
        <ele>902</ele>
        <time>2019-05-15T09:50:56.063Z</time>
      </trkpt>
      <trkpt lat="48.44108" lon="7.13212">
        <ele>901</ele>
        <time>2019-05-15T09:50:57.063Z</time>
      </trkpt>
      <trkpt lat="48.44108" lon="7.13213">
        <ele>902</ele>
        <time>2019-05-15T09:50:58.063Z</time>
      </trkpt>
      <trkpt lat="48.44108" lon="7.13214">
        <ele>902</ele>
        <time>2019-05-15T09:50:59.063Z</time>
      </trkpt>
      <trkpt lat="48.44107" lon="7.13215">
        <ele>902</ele>
        <time>2019-05-15T09:51:00.063Z</time>
      </trkpt>
      <trkpt lat="48.44107" lon="7.13215">
        <ele>901</ele>
        <time>2019-05-15T09:51:01.063Z</time>
      </trkpt>
      <trkpt lat="48.44106" lon="7.13216">
        <ele>902</ele>
        <time>2019-05-15T09:51:02.063Z</time>
      </trkpt>
      <trkpt lat="48.44106" lon="7.13216">
        <ele>902</ele>
        <time>2019-05-15T09:51:03.063Z</time>
      </trkpt>
      <trkpt lat="48.44106" lon="7.13217">
        <ele>902</ele>
        <time>2019-05-15T09:51:04.063Z</time>
      </trkpt>
      <trkpt lat="48.44106" lon="7.13218">
        <ele>902</ele>
        <time>2019-05-15T09:51:05.063Z</time>
      </trkpt>
      <trkpt lat="48.44106" lon="7.13219">
        <ele>902</ele>
        <time>2019-05-15T09:51:06.063Z</time>
      </trkpt>
      <trkpt lat="48.44106" lon="7.13219">
        <ele>902</ele>
        <time>2019-05-15T09:51:07.063Z</time>
      </trkpt>
      <trkpt lat="48.44106" lon="7.13219">
        <ele>901</ele>
        <time>2019-05-15T09:51:08.063Z</time>
      </trkpt>
      <trkpt lat="48.44106" lon="7.13219">
        <ele>901</ele>
        <time>2019-05-15T09:51:09.063Z</time>
      </trkpt>
      <trkpt lat="48.44106" lon="7.13219">
        <ele>900</ele>
        <time>2019-05-15T09:51:10.063Z</time>
      </trkpt>
      <trkpt lat="48.44107" lon="7.13219">
        <ele>900</ele>
        <time>2019-05-15T09:51:11.063Z</time>
      </trkpt>
      <trkpt lat="48.44107" lon="7.1322">
        <ele>900</ele>
        <time>2019-05-15T09:51:12.063Z</time>
      </trkpt>
      <trkpt lat="48.44108" lon="7.1322">
        <ele>900</ele>
        <time>2019-05-15T09:51:13.063Z</time>
      </trkpt>
      <trkpt lat="48.44108" lon="7.1322">
        <ele>900</ele>
        <time>2019-05-15T09:51:14.063Z</time>
      </trkpt>
      <trkpt lat="48.44109" lon="7.13221">
        <ele>900</ele>
        <time>2019-05-15T09:51:15.063Z</time>
      </trkpt>
      <trkpt lat="48.44109" lon="7.13222">
        <ele>901</ele>
        <time>2019-05-15T09:51:16.063Z</time>
      </trkpt>
      <trkpt lat="48.44109" lon="7.13222">
        <ele>901</ele>
        <time>2019-05-15T09:51:17.063Z</time>
      </trkpt>
      <trkpt lat="48.44109" lon="7.13222">
        <ele>900</ele>
        <time>2019-05-15T09:51:18.063Z</time>
      </trkpt>
      <trkpt lat="48.44109" lon="7.13222">
        <ele>900</ele>
        <time>2019-05-15T09:51:19.063Z</time>
      </trkpt>
      <trkpt lat="48.44109" lon="7.13222">
        <ele>900</ele>
        <time>2019-05-15T09:51:20.063Z</time>
      </trkpt>
      <trkpt lat="48.44109" lon="7.13222">
        <ele>900</ele>
        <time>2019-05-15T09:51:21.063Z</time>
      </trkpt>
      <trkpt lat="48.44109" lon="7.13221">
        <ele>900</ele>
        <time>2019-05-15T09:51:22.063Z</time>
      </trkpt>
      <trkpt lat="48.44109" lon="7.1322">
        <ele>900</ele>
        <time>2019-05-15T09:51:23.063Z</time>
      </trkpt>
      <trkpt lat="48.44108" lon="7.1322">
        <ele>900</ele>
        <time>2019-05-15T09:51:24.063Z</time>
      </trkpt>
      <trkpt lat="48.44109" lon="7.13219">
        <ele>899</ele>
        <time>2019-05-15T09:51:25.063Z</time>
      </trkpt>
      <trkpt lat="48.44109" lon="7.13218">
        <ele>899</ele>
        <time>2019-05-15T09:51:26.063Z</time>
      </trkpt>
      <trkpt lat="48.44109" lon="7.13217">
        <ele>899</ele>
        <time>2019-05-15T09:51:27.063Z</time>
      </trkpt>
      <trkpt lat="48.44109" lon="7.13216">
        <ele>899</ele>
        <time>2019-05-15T09:51:28.063Z</time>
      </trkpt>
      <trkpt lat="48.44108" lon="7.13215">
        <ele>899</ele>
        <time>2019-05-15T09:51:29.063Z</time>
      </trkpt>
      <trkpt lat="48.44108" lon="7.13214">
        <ele>898</ele>
        <time>2019-05-15T09:51:30.063Z</time>
      </trkpt>
      <trkpt lat="48.44108" lon="7.13214">
        <ele>898</ele>
        <time>2019-05-15T09:51:31.063Z</time>
      </trkpt>
      <trkpt lat="48.44109" lon="7.13213">
        <ele>898</ele>
        <time>2019-05-15T09:51:32.063Z</time>
      </trkpt>
      <trkpt lat="48.44109" lon="7.13212">
        <ele>898</ele>
        <time>2019-05-15T09:51:33.063Z</time>
      </trkpt>
      <trkpt lat="48.4411" lon="7.13211">
        <ele>898</ele>
        <time>2019-05-15T09:51:34.063Z</time>
      </trkpt>
      <trkpt lat="48.4411" lon="7.1321">
        <ele>898</ele>
        <time>2019-05-15T09:51:35.063Z</time>
      </trkpt>
      <trkpt lat="48.4411" lon="7.1321">
        <ele>898</ele>
        <time>2019-05-15T09:51:36.063Z</time>
      </trkpt>
      <trkpt lat="48.4411" lon="7.13209">
        <ele>898</ele>
        <time>2019-05-15T09:51:37.063Z</time>
      </trkpt>
      <trkpt lat="48.4411" lon="7.13209">
        <ele>898</ele>
        <time>2019-05-15T09:51:38.063Z</time>
      </trkpt>
      <trkpt lat="48.4411" lon="7.13209">
        <ele>898</ele>
        <time>2019-05-15T09:51:39.063Z</time>
      </trkpt>
      <trkpt lat="48.4411" lon="7.13209">
        <ele>898</ele>
        <time>2019-05-15T09:51:40.063Z</time>
      </trkpt>
      <trkpt lat="48.4411" lon="7.13209">
        <ele>898</ele>
        <time>2019-05-15T09:51:41.063Z</time>
      </trkpt>
      <trkpt lat="48.4411" lon="7.13209">
        <ele>898</ele>
        <time>2019-05-15T09:51:42.063Z</time>
      </trkpt>
      <trkpt lat="48.4411" lon="7.13208">
        <ele>899</ele>
        <time>2019-05-15T09:51:43.063Z</time>
      </trkpt>
      <trkpt lat="48.4411" lon="7.13208">
        <ele>899</ele>
        <time>2019-05-15T09:51:44.063Z</time>
      </trkpt>
      <trkpt lat="48.4411" lon="7.13208">
        <ele>899</ele>
        <time>2019-05-15T09:51:45.063Z</time>
      </trkpt>
      <trkpt lat="48.4411" lon="7.13209">
        <ele>899</ele>
        <time>2019-05-15T09:51:46.063Z</time>
      </trkpt>
      <trkpt lat="48.4411" lon="7.13209">
        <ele>899</ele>
        <time>2019-05-15T09:51:47.063Z</time>
      </trkpt>
      <trkpt lat="48.44109" lon="7.1321">
        <ele>899</ele>
        <time>2019-05-15T09:51:48.063Z</time>
      </trkpt>
      <trkpt lat="48.44109" lon="7.1321">
        <ele>900</ele>
        <time>2019-05-15T09:51:49.063Z</time>
      </trkpt>
      <trkpt lat="48.44109" lon="7.1321">
        <ele>900</ele>
        <time>2019-05-15T09:51:50.063Z</time>
      </trkpt>
      <trkpt lat="48.44108" lon="7.1321">
        <ele>900</ele>
        <time>2019-05-15T09:51:51.063Z</time>
      </trkpt>
      <trkpt lat="48.44108" lon="7.1321">
        <ele>900</ele>
        <time>2019-05-15T09:51:52.063Z</time>
      </trkpt>
      <trkpt lat="48.44108" lon="7.13211">
        <ele>900</ele>
        <time>2019-05-15T09:51:53.063Z</time>
      </trkpt>
      <trkpt lat="48.44108" lon="7.13211">
        <ele>900</ele>
        <time>2019-05-15T09:51:54.063Z</time>
      </trkpt>
      <trkpt lat="48.44108" lon="7.13211">
        <ele>900</ele>
        <time>2019-05-15T09:51:55.063Z</time>
      </trkpt>
      <trkpt lat="48.44108" lon="7.13211">
        <ele>900</ele>
        <time>2019-05-15T09:51:56.063Z</time>
      </trkpt>
      <trkpt lat="48.44107" lon="7.13212">
        <ele>900</ele>
        <time>2019-05-15T09:51:57.063Z</time>
      </trkpt>
      <trkpt lat="48.44107" lon="7.13212">
        <ele>901</ele>
        <time>2019-05-15T09:51:58.063Z</time>
      </trkpt>
      <trkpt lat="48.44106" lon="7.13212">
        <ele>900</ele>
        <time>2019-05-15T09:51:59.063Z</time>
      </trkpt>
      <trkpt lat="48.44106" lon="7.13212">
        <ele>900</ele>
        <time>2019-05-15T09:52:00.063Z</time>
      </trkpt>
      <trkpt lat="48.44106" lon="7.13211">
        <ele>900</ele>
        <time>2019-05-15T09:52:01.063Z</time>
      </trkpt>
      <trkpt lat="48.44106" lon="7.13211">
        <ele>900</ele>
        <time>2019-05-15T09:52:02.063Z</time>
      </trkpt>
      <trkpt lat="48.44105" lon="7.13211">
        <ele>900</ele>
        <time>2019-05-15T09:52:03.063Z</time>
      </trkpt>
      <trkpt lat="48.44105" lon="7.13211">
        <ele>900</ele>
        <time>2019-05-15T09:52:04.063Z</time>
      </trkpt>
      <trkpt lat="48.44105" lon="7.13211">
        <ele>900</ele>
        <time>2019-05-15T09:52:05.063Z</time>
      </trkpt>
      <trkpt lat="48.44105" lon="7.13211">
        <ele>900</ele>
        <time>2019-05-15T09:52:06.063Z</time>
      </trkpt>
      <trkpt lat="48.44105" lon="7.13211">
        <ele>900</ele>
        <time>2019-05-15T09:52:07.063Z</time>
      </trkpt>
      <trkpt lat="48.44105" lon="7.13212">
        <ele>900</ele>
        <time>2019-05-15T09:52:08.063Z</time>
      </trkpt>
      <trkpt lat="48.44105" lon="7.13212">
        <ele>901</ele>
        <time>2019-05-15T09:52:09.063Z</time>
      </trkpt>
      <trkpt lat="48.44105" lon="7.13212">
        <ele>901</ele>
        <time>2019-05-15T09:52:10.063Z</time>
      </trkpt>
      <trkpt lat="48.44105" lon="7.13212">
        <ele>901</ele>
        <time>2019-05-15T09:52:11.063Z</time>
      </trkpt>
      <trkpt lat="48.44105" lon="7.13212">
        <ele>901</ele>
        <time>2019-05-15T09:52:12.063Z</time>
      </trkpt>
      <trkpt lat="48.44105" lon="7.13212">
        <ele>901</ele>
        <time>2019-05-15T09:52:13.063Z</time>
      </trkpt>
      <trkpt lat="48.44104" lon="7.13212">
        <ele>901</ele>
        <time>2019-05-15T09:52:14.063Z</time>
      </trkpt>
      <trkpt lat="48.44105" lon="7.13212">
        <ele>901</ele>
        <time>2019-05-15T09:52:15.063Z</time>
      </trkpt>
      <trkpt lat="48.44105" lon="7.13213">
        <ele>901</ele>
        <time>2019-05-15T09:52:16.063Z</time>
      </trkpt>
      <trkpt lat="48.44105" lon="7.13213">
        <ele>901</ele>
        <time>2019-05-15T09:52:17.063Z</time>
      </trkpt>
      <trkpt lat="48.44104" lon="7.13213">
        <ele>901</ele>
        <time>2019-05-15T09:52:18.063Z</time>
      </trkpt>
      <trkpt lat="48.44104" lon="7.13213">
        <ele>901</ele>
        <time>2019-05-15T09:52:19.063Z</time>
      </trkpt>
      <trkpt lat="48.44104" lon="7.13213">
        <ele>901</ele>
        <time>2019-05-15T09:52:20.063Z</time>
      </trkpt>
      <trkpt lat="48.44104" lon="7.13213">
        <ele>901</ele>
        <time>2019-05-15T09:52:21.063Z</time>
      </trkpt>
      <trkpt lat="48.44104" lon="7.13213">
        <ele>901</ele>
        <time>2019-05-15T09:52:22.063Z</time>
      </trkpt>
      <trkpt lat="48.44104" lon="7.13213">
        <ele>901</ele>
        <time>2019-05-15T09:52:23.063Z</time>
      </trkpt>
      <trkpt lat="48.44104" lon="7.13213">
        <ele>901</ele>
        <time>2019-05-15T09:52:24.063Z</time>
      </trkpt>
      <trkpt lat="48.44104" lon="7.13213">
        <ele>901</ele>
        <time>2019-05-15T09:52:25.063Z</time>
      </trkpt>
      <trkpt lat="48.44104" lon="7.13213">
        <ele>902</ele>
        <time>2019-05-15T09:52:26.063Z</time>
      </trkpt>
      <trkpt lat="48.44104" lon="7.13213">
        <ele>902</ele>
        <time>2019-05-15T09:52:27.063Z</time>
      </trkpt>
      <trkpt lat="48.44104" lon="7.13213">
        <ele>902</ele>
        <time>2019-05-15T09:52:28.063Z</time>
      </trkpt>
      <trkpt lat="48.44104" lon="7.13213">
        <ele>902</ele>
        <time>2019-05-15T09:52:29.063Z</time>
      </trkpt>
      <trkpt lat="48.44104" lon="7.13213">
        <ele>901</ele>
        <time>2019-05-15T09:52:30.063Z</time>
      </trkpt>
      <trkpt lat="48.44104" lon="7.13213">
        <ele>901</ele>
        <time>2019-05-15T09:52:31.063Z</time>
      </trkpt>
      <trkpt lat="48.44104" lon="7.13213">
        <ele>901</ele>
        <time>2019-05-15T09:52:32.063Z</time>
      </trkpt>
      <trkpt lat="48.44104" lon="7.13213">
        <ele>902</ele>
        <time>2019-05-15T09:52:33.063Z</time>
      </trkpt>
      <trkpt lat="48.44104" lon="7.13213">
        <ele>902</ele>
        <time>2019-05-15T09:52:34.063Z</time>
      </trkpt>
      <trkpt lat="48.44103" lon="7.13213">
        <ele>902</ele>
        <time>2019-05-15T09:52:35.063Z</time>
      </trkpt>
      <trkpt lat="48.44103" lon="7.13214">
        <ele>902</ele>
        <time>2019-05-15T09:52:36.063Z</time>
      </trkpt>
      <trkpt lat="48.44103" lon="7.13214">
        <ele>902</ele>
        <time>2019-05-15T09:52:37.063Z</time>
      </trkpt>
      <trkpt lat="48.44103" lon="7.13214">
        <ele>902</ele>
        <time>2019-05-15T09:52:38.063Z</time>
      </trkpt>
      <trkpt lat="48.44103" lon="7.13214">
        <ele>902</ele>
        <time>2019-05-15T09:52:39.063Z</time>
      </trkpt>
      <trkpt lat="48.44102" lon="7.13213">
        <ele>902</ele>
        <time>2019-05-15T09:52:40.063Z</time>
      </trkpt>
      <trkpt lat="48.44102" lon="7.13212">
        <ele>903</ele>
        <time>2019-05-15T09:52:41.063Z</time>
      </trkpt>
      <trkpt lat="48.44086" lon="7.132">
        <ele>902</ele>
        <time>2019-05-15T09:52:42.078Z</time>
      </trkpt>
      <trkpt lat="48.44086" lon="7.132">
        <ele>902</ele>
        <time>2019-05-15T09:52:43.078Z</time>
      </trkpt>
      <trkpt lat="48.44086" lon="7.132">
        <ele>902</ele>
        <time>2019-05-15T09:52:44.078Z</time>
      </trkpt>
      <trkpt lat="48.44086" lon="7.132">
        <ele>902</ele>
        <time>2019-05-15T09:52:45.078Z</time>
      </trkpt>
      <trkpt lat="48.44087" lon="7.13199">
        <ele>902</ele>
        <time>2019-05-15T09:52:46.078Z</time>
      </trkpt>
      <trkpt lat="48.44087" lon="7.13199">
        <ele>902</ele>
        <time>2019-05-15T09:52:47.078Z</time>
      </trkpt>
      <trkpt lat="48.44087" lon="7.13199">
        <ele>902</ele>
        <time>2019-05-15T09:52:48.078Z</time>
      </trkpt>
      <trkpt lat="48.44087" lon="7.132">
        <ele>902</ele>
        <time>2019-05-15T09:52:49.078Z</time>
      </trkpt>
      <trkpt lat="48.44087" lon="7.132">
        <ele>902</ele>
        <time>2019-05-15T09:52:50.078Z</time>
      </trkpt>
      <trkpt lat="48.44087" lon="7.132">
        <ele>901</ele>
        <time>2019-05-15T09:52:51.078Z</time>
      </trkpt>
      <trkpt lat="48.44086" lon="7.132">
        <ele>901</ele>
        <time>2019-05-15T09:52:52.078Z</time>
      </trkpt>
      <trkpt lat="48.44086" lon="7.13199">
        <ele>902</ele>
        <time>2019-05-15T09:52:53.078Z</time>
      </trkpt>
      <trkpt lat="48.44087" lon="7.13199">
        <ele>901</ele>
        <time>2019-05-15T09:52:54.078Z</time>
      </trkpt>
      <trkpt lat="48.44087" lon="7.13198">
        <ele>902</ele>
        <time>2019-05-15T09:52:55.078Z</time>
      </trkpt>
      <trkpt lat="48.44087" lon="7.13198">
        <ele>901</ele>
        <time>2019-05-15T09:52:56.078Z</time>
      </trkpt>
      <trkpt lat="48.44087" lon="7.13198">
        <ele>901</ele>
        <time>2019-05-15T09:52:57.078Z</time>
      </trkpt>
      <trkpt lat="48.44088" lon="7.13197">
        <ele>900</ele>
        <time>2019-05-15T09:52:58.078Z</time>
      </trkpt>
      <trkpt lat="48.44088" lon="7.13197">
        <ele>900</ele>
        <time>2019-05-15T09:52:59.078Z</time>
      </trkpt>
      <trkpt lat="48.44088" lon="7.13196">
        <ele>900</ele>
        <time>2019-05-15T09:53:00.078Z</time>
      </trkpt>
      <trkpt lat="48.44088" lon="7.13196">
        <ele>900</ele>
        <time>2019-05-15T09:53:01.078Z</time>
      </trkpt>
      <trkpt lat="48.44088" lon="7.13195">
        <ele>900</ele>
        <time>2019-05-15T09:53:02.078Z</time>
      </trkpt>
      <trkpt lat="48.44089" lon="7.13195">
        <ele>900</ele>
        <time>2019-05-15T09:53:03.078Z</time>
      </trkpt>
      <trkpt lat="48.44089" lon="7.13194">
        <ele>900</ele>
        <time>2019-05-15T09:53:04.078Z</time>
      </trkpt>
      <trkpt lat="48.44089" lon="7.13193">
        <ele>900</ele>
        <time>2019-05-15T09:53:05.078Z</time>
      </trkpt>
      <trkpt lat="48.44089" lon="7.13192">
        <ele>900</ele>
        <time>2019-05-15T09:53:06.078Z</time>
      </trkpt>
      <trkpt lat="48.44089" lon="7.13192">
        <ele>900</ele>
        <time>2019-05-15T09:53:07.078Z</time>
      </trkpt>
      <trkpt lat="48.44089" lon="7.13191">
        <ele>901</ele>
        <time>2019-05-15T09:53:08.078Z</time>
      </trkpt>
      <trkpt lat="48.44089" lon="7.13191">
        <ele>901</ele>
        <time>2019-05-15T09:53:09.078Z</time>
      </trkpt>
      <trkpt lat="48.4409" lon="7.13191">
        <ele>901</ele>
        <time>2019-05-15T09:53:10.078Z</time>
      </trkpt>
      <trkpt lat="48.4409" lon="7.13191">
        <ele>901</ele>
        <time>2019-05-15T09:53:11.078Z</time>
      </trkpt>
      <trkpt lat="48.4409" lon="7.13191">
        <ele>900</ele>
        <time>2019-05-15T09:53:12.078Z</time>
      </trkpt>
      <trkpt lat="48.44091" lon="7.13191">
        <ele>900</ele>
        <time>2019-05-15T09:53:13.078Z</time>
      </trkpt>
      <trkpt lat="48.44091" lon="7.13191">
        <ele>900</ele>
        <time>2019-05-15T09:53:14.078Z</time>
      </trkpt>
      <trkpt lat="48.44092" lon="7.13191">
        <ele>900</ele>
        <time>2019-05-15T09:53:15.078Z</time>
      </trkpt>
      <trkpt lat="48.44092" lon="7.13191">
        <ele>900</ele>
        <time>2019-05-15T09:53:16.078Z</time>
      </trkpt>
      <trkpt lat="48.44092" lon="7.13191">
        <ele>901</ele>
        <time>2019-05-15T09:53:17.078Z</time>
      </trkpt>
      <trkpt lat="48.44092" lon="7.13191">
        <ele>901</ele>
        <time>2019-05-15T09:53:18.078Z</time>
      </trkpt>
      <trkpt lat="48.44092" lon="7.13191">
        <ele>900</ele>
        <time>2019-05-15T09:53:19.078Z</time>
      </trkpt>
      <trkpt lat="48.44092" lon="7.1319">
        <ele>901</ele>
        <time>2019-05-15T09:53:20.078Z</time>
      </trkpt>
      <trkpt lat="48.44093" lon="7.1319">
        <ele>901</ele>
        <time>2019-05-15T09:53:21.078Z</time>
      </trkpt>
      <trkpt lat="48.44093" lon="7.1319">
        <ele>901</ele>
        <time>2019-05-15T09:53:22.078Z</time>
      </trkpt>
      <trkpt lat="48.44094" lon="7.13189">
        <ele>901</ele>
        <time>2019-05-15T09:53:23.078Z</time>
      </trkpt>
      <trkpt lat="48.44094" lon="7.13189">
        <ele>902</ele>
        <time>2019-05-15T09:53:24.078Z</time>
      </trkpt>
      <trkpt lat="48.44094" lon="7.13189">
        <ele>902</ele>
        <time>2019-05-15T09:53:25.078Z</time>
      </trkpt>
      <trkpt lat="48.44095" lon="7.13189">
        <ele>902</ele>
        <time>2019-05-15T09:53:26.078Z</time>
      </trkpt>
      <trkpt lat="48.44095" lon="7.13188">
        <ele>902</ele>
        <time>2019-05-15T09:53:27.078Z</time>
      </trkpt>
      <trkpt lat="48.44095" lon="7.13188">
        <ele>902</ele>
        <time>2019-05-15T09:53:28.078Z</time>
      </trkpt>
      <trkpt lat="48.44095" lon="7.13187">
        <ele>902</ele>
        <time>2019-05-15T09:53:29.078Z</time>
      </trkpt>
      <trkpt lat="48.44095" lon="7.13187">
        <ele>902</ele>
        <time>2019-05-15T09:53:30.078Z</time>
      </trkpt>
      <trkpt lat="48.44095" lon="7.13187">
        <ele>902</ele>
        <time>2019-05-15T09:53:31.078Z</time>
      </trkpt>
      <trkpt lat="48.44095" lon="7.13186">
        <ele>902</ele>
        <time>2019-05-15T09:53:32.078Z</time>
      </trkpt>
      <trkpt lat="48.44096" lon="7.13186">
        <ele>902</ele>
        <time>2019-05-15T09:53:33.078Z</time>
      </trkpt>
      <trkpt lat="48.44096" lon="7.13186">
        <ele>902</ele>
        <time>2019-05-15T09:53:34.078Z</time>
      </trkpt>
      <trkpt lat="48.44096" lon="7.13185">
        <ele>901</ele>
        <time>2019-05-15T09:53:35.078Z</time>
      </trkpt>
      <trkpt lat="48.44097" lon="7.13184">
        <ele>901</ele>
        <time>2019-05-15T09:53:36.078Z</time>
      </trkpt>
      <trkpt lat="48.44097" lon="7.13183">
        <ele>902</ele>
        <time>2019-05-15T09:53:37.078Z</time>
      </trkpt>
      <trkpt lat="48.44097" lon="7.13182">
        <ele>901</ele>
        <time>2019-05-15T09:53:38.078Z</time>
      </trkpt>
      <trkpt lat="48.44097" lon="7.13181">
        <ele>901</ele>
        <time>2019-05-15T09:53:39.078Z</time>
      </trkpt>
      <trkpt lat="48.44097" lon="7.1318">
        <ele>901</ele>
        <time>2019-05-15T09:53:40.078Z</time>
      </trkpt>
      <trkpt lat="48.44098" lon="7.13179">
        <ele>901</ele>
        <time>2019-05-15T09:53:41.078Z</time>
      </trkpt>
      <trkpt lat="48.44098" lon="7.13179">
        <ele>901</ele>
        <time>2019-05-15T09:53:42.078Z</time>
      </trkpt>
      <trkpt lat="48.44098" lon="7.13178">
        <ele>900</ele>
        <time>2019-05-15T09:53:43.078Z</time>
      </trkpt>
      <trkpt lat="48.44098" lon="7.13177">
        <ele>900</ele>
        <time>2019-05-15T09:53:44.078Z</time>
      </trkpt>
      <trkpt lat="48.44098" lon="7.13176">
        <ele>900</ele>
        <time>2019-05-15T09:53:45.078Z</time>
      </trkpt>
      <trkpt lat="48.44098" lon="7.13175">
        <ele>900</ele>
        <time>2019-05-15T09:53:46.078Z</time>
      </trkpt>
      <trkpt lat="48.44098" lon="7.13174">
        <ele>900</ele>
        <time>2019-05-15T09:53:47.078Z</time>
      </trkpt>
      <trkpt lat="48.44098" lon="7.13174">
        <ele>900</ele>
        <time>2019-05-15T09:53:48.078Z</time>
      </trkpt>
      <trkpt lat="48.44098" lon="7.13173">
        <ele>900</ele>
        <time>2019-05-15T09:53:49.078Z</time>
      </trkpt>
      <trkpt lat="48.44098" lon="7.13173">
        <ele>899</ele>
        <time>2019-05-15T09:53:50.078Z</time>
      </trkpt>
      <trkpt lat="48.44098" lon="7.13172">
        <ele>899</ele>
        <time>2019-05-15T09:53:51.078Z</time>
      </trkpt>
      <trkpt lat="48.44098" lon="7.13172">
        <ele>899</ele>
        <time>2019-05-15T09:53:52.078Z</time>
      </trkpt>
      <trkpt lat="48.44097" lon="7.13172">
        <ele>899</ele>
        <time>2019-05-15T09:53:53.078Z</time>
      </trkpt>
      <trkpt lat="48.44096" lon="7.13172">
        <ele>899</ele>
        <time>2019-05-15T09:53:54.078Z</time>
      </trkpt>
      <trkpt lat="48.44096" lon="7.13172">
        <ele>899</ele>
        <time>2019-05-15T09:53:55.078Z</time>
      </trkpt>
      <trkpt lat="48.44095" lon="7.13172">
        <ele>899</ele>
        <time>2019-05-15T09:53:56.078Z</time>
      </trkpt>
      <trkpt lat="48.44094" lon="7.13171">
        <ele>899</ele>
        <time>2019-05-15T09:53:57.078Z</time>
      </trkpt>
      <trkpt lat="48.44093" lon="7.13171">
        <ele>899</ele>
        <time>2019-05-15T09:53:58.078Z</time>
      </trkpt>
      <trkpt lat="48.44093" lon="7.1317">
        <ele>898</ele>
        <time>2019-05-15T09:53:59.078Z</time>
      </trkpt>
      <trkpt lat="48.44093" lon="7.13169">
        <ele>898</ele>
        <time>2019-05-15T09:54:00.078Z</time>
      </trkpt>
      <trkpt lat="48.44092" lon="7.13169">
        <ele>898</ele>
        <time>2019-05-15T09:54:01.078Z</time>
      </trkpt>
      <trkpt lat="48.44092" lon="7.13168">
        <ele>898</ele>
        <time>2019-05-15T09:54:02.078Z</time>
      </trkpt>
      <trkpt lat="48.44091" lon="7.13168">
        <ele>898</ele>
        <time>2019-05-15T09:54:03.078Z</time>
      </trkpt>
      <trkpt lat="48.44091" lon="7.13168">
        <ele>898</ele>
        <time>2019-05-15T09:54:04.078Z</time>
      </trkpt>
      <trkpt lat="48.4409" lon="7.13168">
        <ele>898</ele>
        <time>2019-05-15T09:54:05.078Z</time>
      </trkpt>
      <trkpt lat="48.44089" lon="7.13168">
        <ele>898</ele>
        <time>2019-05-15T09:54:06.078Z</time>
      </trkpt>
      <trkpt lat="48.44089" lon="7.13168">
        <ele>897</ele>
        <time>2019-05-15T09:54:07.078Z</time>
      </trkpt>
      <trkpt lat="48.44088" lon="7.13169">
        <ele>897</ele>
        <time>2019-05-15T09:54:08.078Z</time>
      </trkpt>
      <trkpt lat="48.44087" lon="7.13169">
        <ele>897</ele>
        <time>2019-05-15T09:54:09.078Z</time>
      </trkpt>
      <trkpt lat="48.44087" lon="7.13169">
        <ele>896</ele>
        <time>2019-05-15T09:54:10.078Z</time>
      </trkpt>
      <trkpt lat="48.44086" lon="7.13169">
        <ele>896</ele>
        <time>2019-05-15T09:54:11.078Z</time>
      </trkpt>
      <trkpt lat="48.44086" lon="7.13169">
        <ele>896</ele>
        <time>2019-05-15T09:54:12.078Z</time>
      </trkpt>
      <trkpt lat="48.44086" lon="7.13168">
        <ele>896</ele>
        <time>2019-05-15T09:54:13.078Z</time>
      </trkpt>
      <trkpt lat="48.44085" lon="7.13167">
        <ele>896</ele>
        <time>2019-05-15T09:54:14.078Z</time>
      </trkpt>
      <trkpt lat="48.44085" lon="7.13167">
        <ele>896</ele>
        <time>2019-05-15T09:54:15.078Z</time>
      </trkpt>
      <trkpt lat="48.44085" lon="7.13166">
        <ele>896</ele>
        <time>2019-05-15T09:54:16.078Z</time>
      </trkpt>
      <trkpt lat="48.44084" lon="7.13166">
        <ele>896</ele>
        <time>2019-05-15T09:54:17.078Z</time>
      </trkpt>
      <trkpt lat="48.44084" lon="7.13165">
        <ele>897</ele>
        <time>2019-05-15T09:54:18.078Z</time>
      </trkpt>
      <trkpt lat="48.44084" lon="7.13165">
        <ele>897</ele>
        <time>2019-05-15T09:54:19.078Z</time>
      </trkpt>
      <trkpt lat="48.44084" lon="7.13164">
        <ele>897</ele>
        <time>2019-05-15T09:54:20.078Z</time>
      </trkpt>
      <trkpt lat="48.44083" lon="7.13164">
        <ele>896</ele>
        <time>2019-05-15T09:54:21.078Z</time>
      </trkpt>
      <trkpt lat="48.44083" lon="7.13164">
        <ele>896</ele>
        <time>2019-05-15T09:54:22.078Z</time>
      </trkpt>
      <trkpt lat="48.44083" lon="7.13164">
        <ele>895</ele>
        <time>2019-05-15T09:54:23.078Z</time>
      </trkpt>
      <trkpt lat="48.44082" lon="7.13164">
        <ele>895</ele>
        <time>2019-05-15T09:54:24.078Z</time>
      </trkpt>
      <trkpt lat="48.44082" lon="7.13164">
        <ele>895</ele>
        <time>2019-05-15T09:54:25.078Z</time>
      </trkpt>
      <trkpt lat="48.44082" lon="7.13163">
        <ele>895</ele>
        <time>2019-05-15T09:54:26.078Z</time>
      </trkpt>
      <trkpt lat="48.44081" lon="7.13163">
        <ele>895</ele>
        <time>2019-05-15T09:54:27.078Z</time>
      </trkpt>
      <trkpt lat="48.44081" lon="7.13163">
        <ele>895</ele>
        <time>2019-05-15T09:54:28.078Z</time>
      </trkpt>
      <trkpt lat="48.4408" lon="7.13162">
        <ele>894</ele>
        <time>2019-05-15T09:54:29.078Z</time>
      </trkpt>
      <trkpt lat="48.4408" lon="7.13161">
        <ele>895</ele>
        <time>2019-05-15T09:54:30.078Z</time>
      </trkpt>
      <trkpt lat="48.4408" lon="7.13159">
        <ele>895</ele>
        <time>2019-05-15T09:54:31.078Z</time>
      </trkpt>
      <trkpt lat="48.44079" lon="7.13158">
        <ele>895</ele>
        <time>2019-05-15T09:54:32.078Z</time>
      </trkpt>
      <trkpt lat="48.44079" lon="7.13157">
        <ele>894</ele>
        <time>2019-05-15T09:54:33.078Z</time>
      </trkpt>
      <trkpt lat="48.44079" lon="7.13156">
        <ele>894</ele>
        <time>2019-05-15T09:54:34.078Z</time>
      </trkpt>
      <trkpt lat="48.44079" lon="7.13155">
        <ele>894</ele>
        <time>2019-05-15T09:54:35.078Z</time>
      </trkpt>
      <trkpt lat="48.44079" lon="7.13154">
        <ele>893</ele>
        <time>2019-05-15T09:54:36.078Z</time>
      </trkpt>
      <trkpt lat="48.44079" lon="7.13153">
        <ele>893</ele>
        <time>2019-05-15T09:54:37.078Z</time>
      </trkpt>
      <trkpt lat="48.44079" lon="7.13151">
        <ele>893</ele>
        <time>2019-05-15T09:54:38.078Z</time>
      </trkpt>
      <trkpt lat="48.44079" lon="7.1315">
        <ele>892</ele>
        <time>2019-05-15T09:54:39.078Z</time>
      </trkpt>
      <trkpt lat="48.44079" lon="7.13149">
        <ele>892</ele>
        <time>2019-05-15T09:54:40.078Z</time>
      </trkpt>
      <trkpt lat="48.44079" lon="7.13148">
        <ele>892</ele>
        <time>2019-05-15T09:54:41.078Z</time>
      </trkpt>
      <trkpt lat="48.44079" lon="7.13147">
        <ele>892</ele>
        <time>2019-05-15T09:54:42.078Z</time>
      </trkpt>
      <trkpt lat="48.44079" lon="7.13146">
        <ele>892</ele>
        <time>2019-05-15T09:54:43.078Z</time>
      </trkpt>
      <trkpt lat="48.44079" lon="7.13145">
        <ele>892</ele>
        <time>2019-05-15T09:54:44.078Z</time>
      </trkpt>
      <trkpt lat="48.44078" lon="7.13144">
        <ele>892</ele>
        <time>2019-05-15T09:54:45.078Z</time>
      </trkpt>
      <trkpt lat="48.44078" lon="7.13142">
        <ele>892</ele>
        <time>2019-05-15T09:54:46.078Z</time>
      </trkpt>
      <trkpt lat="48.44078" lon="7.13141">
        <ele>891</ele>
        <time>2019-05-15T09:54:47.078Z</time>
      </trkpt>
      <trkpt lat="48.44077" lon="7.1314">
        <ele>891</ele>
        <time>2019-05-15T09:54:48.078Z</time>
      </trkpt>
      <trkpt lat="48.44077" lon="7.13138">
        <ele>891</ele>
        <time>2019-05-15T09:54:49.078Z</time>
      </trkpt>
      <trkpt lat="48.44077" lon="7.13137">
        <ele>890</ele>
        <time>2019-05-15T09:54:50.078Z</time>
      </trkpt>
      <trkpt lat="48.44077" lon="7.13136">
        <ele>890</ele>
        <time>2019-05-15T09:54:51.078Z</time>
      </trkpt>
      <trkpt lat="48.44077" lon="7.13135">
        <ele>890</ele>
        <time>2019-05-15T09:54:52.078Z</time>
      </trkpt>
      <trkpt lat="48.44077" lon="7.13134">
        <ele>889</ele>
        <time>2019-05-15T09:54:53.078Z</time>
      </trkpt>
      <trkpt lat="48.44077" lon="7.13133">
        <ele>889</ele>
        <time>2019-05-15T09:54:54.078Z</time>
      </trkpt>
      <trkpt lat="48.44077" lon="7.13131">
        <ele>889</ele>
        <time>2019-05-15T09:54:55.078Z</time>
      </trkpt>
      <trkpt lat="48.44077" lon="7.1313">
        <ele>888</ele>
        <time>2019-05-15T09:54:56.078Z</time>
      </trkpt>
      <trkpt lat="48.44077" lon="7.13129">
        <ele>889</ele>
        <time>2019-05-15T09:54:57.078Z</time>
      </trkpt>
      <trkpt lat="48.44077" lon="7.13128">
        <ele>889</ele>
        <time>2019-05-15T09:54:58.078Z</time>
      </trkpt>
      <trkpt lat="48.44077" lon="7.13127">
        <ele>889</ele>
        <time>2019-05-15T09:54:59.078Z</time>
      </trkpt>
      <trkpt lat="48.44076" lon="7.13126">
        <ele>888</ele>
        <time>2019-05-15T09:55:00.078Z</time>
      </trkpt>
      <trkpt lat="48.44077" lon="7.13124">
        <ele>888</ele>
        <time>2019-05-15T09:55:01.078Z</time>
      </trkpt>
      <trkpt lat="48.44077" lon="7.13123">
        <ele>888</ele>
        <time>2019-05-15T09:55:02.078Z</time>
      </trkpt>
      <trkpt lat="48.44077" lon="7.13122">
        <ele>888</ele>
        <time>2019-05-15T09:55:03.078Z</time>
      </trkpt>
      <trkpt lat="48.44077" lon="7.13121">
        <ele>888</ele>
        <time>2019-05-15T09:55:04.078Z</time>
      </trkpt>
      <trkpt lat="48.44077" lon="7.13119">
        <ele>888</ele>
        <time>2019-05-15T09:55:05.078Z</time>
      </trkpt>
      <trkpt lat="48.44077" lon="7.13118">
        <ele>887</ele>
        <time>2019-05-15T09:55:06.078Z</time>
      </trkpt>
      <trkpt lat="48.44077" lon="7.13117">
        <ele>887</ele>
        <time>2019-05-15T09:55:07.078Z</time>
      </trkpt>
      <trkpt lat="48.44077" lon="7.13116">
        <ele>887</ele>
        <time>2019-05-15T09:55:08.078Z</time>
      </trkpt>
      <trkpt lat="48.44077" lon="7.13115">
        <ele>888</ele>
        <time>2019-05-15T09:55:09.078Z</time>
      </trkpt>
      <trkpt lat="48.44077" lon="7.13113">
        <ele>887</ele>
        <time>2019-05-15T09:55:10.078Z</time>
      </trkpt>
      <trkpt lat="48.44077" lon="7.13112">
        <ele>887</ele>
        <time>2019-05-15T09:55:11.078Z</time>
      </trkpt>
      <trkpt lat="48.44077" lon="7.1311">
        <ele>887</ele>
        <time>2019-05-15T09:55:12.078Z</time>
      </trkpt>
      <trkpt lat="48.44077" lon="7.13109">
        <ele>886</ele>
        <time>2019-05-15T09:55:13.078Z</time>
      </trkpt>
      <trkpt lat="48.44077" lon="7.13108">
        <ele>886</ele>
        <time>2019-05-15T09:55:14.078Z</time>
      </trkpt>
      <trkpt lat="48.44077" lon="7.13107">
        <ele>886</ele>
        <time>2019-05-15T09:55:15.078Z</time>
      </trkpt>
      <trkpt lat="48.44077" lon="7.13105">
        <ele>885</ele>
        <time>2019-05-15T09:55:16.078Z</time>
      </trkpt>
      <trkpt lat="48.44077" lon="7.13104">
        <ele>885</ele>
        <time>2019-05-15T09:55:17.078Z</time>
      </trkpt>
      <trkpt lat="48.44076" lon="7.13102">
        <ele>886</ele>
        <time>2019-05-15T09:55:18.078Z</time>
      </trkpt>
      <trkpt lat="48.44076" lon="7.13101">
        <ele>886</ele>
        <time>2019-05-15T09:55:19.078Z</time>
      </trkpt>
      <trkpt lat="48.44076" lon="7.131">
        <ele>886</ele>
        <time>2019-05-15T09:55:20.078Z</time>
      </trkpt>
      <trkpt lat="48.44076" lon="7.13098">
        <ele>886</ele>
        <time>2019-05-15T09:55:21.078Z</time>
      </trkpt>
      <trkpt lat="48.44076" lon="7.13097">
        <ele>886</ele>
        <time>2019-05-15T09:55:22.078Z</time>
      </trkpt>
      <trkpt lat="48.44075" lon="7.13096">
        <ele>887</ele>
        <time>2019-05-15T09:55:23.078Z</time>
      </trkpt>
      <trkpt lat="48.44075" lon="7.13095">
        <ele>887</ele>
        <time>2019-05-15T09:55:24.078Z</time>
      </trkpt>
      <trkpt lat="48.44074" lon="7.13094">
        <ele>887</ele>
        <time>2019-05-15T09:55:25.078Z</time>
      </trkpt>
      <trkpt lat="48.44074" lon="7.13093">
        <ele>886</ele>
        <time>2019-05-15T09:55:26.078Z</time>
      </trkpt>
      <trkpt lat="48.44073" lon="7.13092">
        <ele>887</ele>
        <time>2019-05-15T09:55:27.078Z</time>
      </trkpt>
      <trkpt lat="48.44073" lon="7.13091">
        <ele>887</ele>
        <time>2019-05-15T09:55:28.078Z</time>
      </trkpt>
      <trkpt lat="48.44073" lon="7.1309">
        <ele>887</ele>
        <time>2019-05-15T09:55:29.078Z</time>
      </trkpt>
      <trkpt lat="48.44073" lon="7.1309">
        <ele>886</ele>
        <time>2019-05-15T09:55:30.078Z</time>
      </trkpt>
      <trkpt lat="48.44073" lon="7.13089">
        <ele>886</ele>
        <time>2019-05-15T09:55:31.078Z</time>
      </trkpt>
      <trkpt lat="48.44072" lon="7.13088">
        <ele>886</ele>
        <time>2019-05-15T09:55:32.078Z</time>
      </trkpt>
      <trkpt lat="48.44073" lon="7.13086">
        <ele>887</ele>
        <time>2019-05-15T09:55:33.078Z</time>
      </trkpt>
      <trkpt lat="48.44072" lon="7.13085">
        <ele>886</ele>
        <time>2019-05-15T09:55:34.078Z</time>
      </trkpt>
      <trkpt lat="48.44072" lon="7.13084">
        <ele>886</ele>
        <time>2019-05-15T09:55:35.078Z</time>
      </trkpt>
      <trkpt lat="48.44072" lon="7.13083">
        <ele>886</ele>
        <time>2019-05-15T09:55:36.078Z</time>
      </trkpt>
      <trkpt lat="48.44072" lon="7.13082">
        <ele>885</ele>
        <time>2019-05-15T09:55:37.078Z</time>
      </trkpt>
      <trkpt lat="48.44072" lon="7.13081">
        <ele>885</ele>
        <time>2019-05-15T09:55:38.078Z</time>
      </trkpt>
      <trkpt lat="48.44072" lon="7.13081">
        <ele>885</ele>
        <time>2019-05-15T09:55:39.078Z</time>
      </trkpt>
      <trkpt lat="48.44072" lon="7.1308">
        <ele>885</ele>
        <time>2019-05-15T09:55:40.078Z</time>
      </trkpt>
      <trkpt lat="48.44072" lon="7.1308">
        <ele>885</ele>
        <time>2019-05-15T09:55:41.078Z</time>
      </trkpt>
      <trkpt lat="48.44072" lon="7.1308">
        <ele>886</ele>
        <time>2019-05-15T09:55:42.078Z</time>
      </trkpt>
      <trkpt lat="48.44072" lon="7.13079">
        <ele>886</ele>
        <time>2019-05-15T09:55:43.078Z</time>
      </trkpt>
      <trkpt lat="48.44073" lon="7.13079">
        <ele>886</ele>
        <time>2019-05-15T09:55:44.078Z</time>
      </trkpt>
      <trkpt lat="48.44073" lon="7.13078">
        <ele>886</ele>
        <time>2019-05-15T09:55:45.078Z</time>
      </trkpt>
      <trkpt lat="48.44073" lon="7.13077">
        <ele>886</ele>
        <time>2019-05-15T09:55:46.078Z</time>
      </trkpt>
      <trkpt lat="48.44073" lon="7.13077">
        <ele>886</ele>
        <time>2019-05-15T09:55:47.078Z</time>
      </trkpt>
      <trkpt lat="48.44073" lon="7.13076">
        <ele>885</ele>
        <time>2019-05-15T09:55:48.078Z</time>
      </trkpt>
      <trkpt lat="48.44073" lon="7.13075">
        <ele>885</ele>
        <time>2019-05-15T09:55:49.078Z</time>
      </trkpt>
      <trkpt lat="48.44073" lon="7.13074">
        <ele>885</ele>
        <time>2019-05-15T09:55:50.078Z</time>
      </trkpt>
      <trkpt lat="48.44073" lon="7.13073">
        <ele>885</ele>
        <time>2019-05-15T09:55:51.078Z</time>
      </trkpt>
      <trkpt lat="48.44073" lon="7.13073">
        <ele>885</ele>
        <time>2019-05-15T09:55:52.078Z</time>
      </trkpt>
      <trkpt lat="48.44073" lon="7.13073">
        <ele>885</ele>
        <time>2019-05-15T09:55:53.078Z</time>
      </trkpt>
      <trkpt lat="48.44072" lon="7.13073">
        <ele>886</ele>
        <time>2019-05-15T09:55:54.078Z</time>
      </trkpt>
      <trkpt lat="48.44072" lon="7.13072">
        <ele>886</ele>
        <time>2019-05-15T09:55:55.078Z</time>
      </trkpt>
      <trkpt lat="48.44072" lon="7.13071">
        <ele>887</ele>
        <time>2019-05-15T09:55:56.078Z</time>
      </trkpt>
      <trkpt lat="48.44072" lon="7.1307">
        <ele>887</ele>
        <time>2019-05-15T09:55:57.078Z</time>
      </trkpt>
      <trkpt lat="48.44072" lon="7.13069">
        <ele>887</ele>
        <time>2019-05-15T09:55:58.078Z</time>
      </trkpt>
      <trkpt lat="48.44072" lon="7.13068">
        <ele>887</ele>
        <time>2019-05-15T09:55:59.078Z</time>
      </trkpt>
      <trkpt lat="48.44072" lon="7.13068">
        <ele>887</ele>
        <time>2019-05-15T09:56:00.078Z</time>
      </trkpt>
      <trkpt lat="48.44071" lon="7.13067">
        <ele>887</ele>
        <time>2019-05-15T09:56:01.078Z</time>
      </trkpt>
      <trkpt lat="48.44071" lon="7.13067">
        <ele>888</ele>
        <time>2019-05-15T09:56:02.078Z</time>
      </trkpt>
      <trkpt lat="48.44071" lon="7.13067">
        <ele>888</ele>
        <time>2019-05-15T09:56:03.078Z</time>
      </trkpt>
      <trkpt lat="48.44071" lon="7.13066">
        <ele>888</ele>
        <time>2019-05-15T09:56:04.078Z</time>
      </trkpt>
      <trkpt lat="48.44071" lon="7.13065">
        <ele>888</ele>
        <time>2019-05-15T09:56:05.078Z</time>
      </trkpt>
      <trkpt lat="48.44071" lon="7.13064">
        <ele>888</ele>
        <time>2019-05-15T09:56:06.078Z</time>
      </trkpt>
      <trkpt lat="48.44071" lon="7.13063">
        <ele>888</ele>
        <time>2019-05-15T09:56:07.078Z</time>
      </trkpt>
      <trkpt lat="48.44071" lon="7.13061">
        <ele>888</ele>
        <time>2019-05-15T09:56:08.078Z</time>
      </trkpt>
      <trkpt lat="48.44071" lon="7.1306">
        <ele>888</ele>
        <time>2019-05-15T09:56:09.078Z</time>
      </trkpt>
      <trkpt lat="48.44071" lon="7.13058">
        <ele>887</ele>
        <time>2019-05-15T09:56:10.078Z</time>
      </trkpt>
      <trkpt lat="48.44071" lon="7.13057">
        <ele>887</ele>
        <time>2019-05-15T09:56:11.078Z</time>
      </trkpt>
      <trkpt lat="48.44071" lon="7.13056">
        <ele>887</ele>
        <time>2019-05-15T09:56:12.078Z</time>
      </trkpt>
      <trkpt lat="48.4407" lon="7.13055">
        <ele>887</ele>
        <time>2019-05-15T09:56:13.078Z</time>
      </trkpt>
      <trkpt lat="48.4407" lon="7.13054">
        <ele>887</ele>
        <time>2019-05-15T09:56:14.078Z</time>
      </trkpt>
      <trkpt lat="48.4407" lon="7.13052">
        <ele>887</ele>
        <time>2019-05-15T09:56:15.078Z</time>
      </trkpt>
      <trkpt lat="48.4407" lon="7.13051">
        <ele>887</ele>
        <time>2019-05-15T09:56:16.078Z</time>
      </trkpt>
      <trkpt lat="48.4407" lon="7.1305">
        <ele>886</ele>
        <time>2019-05-15T09:56:17.078Z</time>
      </trkpt>
      <trkpt lat="48.4407" lon="7.13048">
        <ele>886</ele>
        <time>2019-05-15T09:56:18.078Z</time>
      </trkpt>
      <trkpt lat="48.4407" lon="7.13047">
        <ele>886</ele>
        <time>2019-05-15T09:56:19.078Z</time>
      </trkpt>
      <trkpt lat="48.44069" lon="7.13046">
        <ele>886</ele>
        <time>2019-05-15T09:56:20.078Z</time>
      </trkpt>
      <trkpt lat="48.44069" lon="7.13045">
        <ele>886</ele>
        <time>2019-05-15T09:56:21.078Z</time>
      </trkpt>
      <trkpt lat="48.44069" lon="7.13044">
        <ele>886</ele>
        <time>2019-05-15T09:56:22.078Z</time>
      </trkpt>
      <trkpt lat="48.44069" lon="7.13043">
        <ele>886</ele>
        <time>2019-05-15T09:56:23.078Z</time>
      </trkpt>
      <trkpt lat="48.44069" lon="7.13042">
        <ele>886</ele>
        <time>2019-05-15T09:56:24.078Z</time>
      </trkpt>
      <trkpt lat="48.44069" lon="7.13041">
        <ele>886</ele>
        <time>2019-05-15T09:56:25.078Z</time>
      </trkpt>
      <trkpt lat="48.44069" lon="7.13041">
        <ele>886</ele>
        <time>2019-05-15T09:56:26.078Z</time>
      </trkpt>
      <trkpt lat="48.44068" lon="7.1304">
        <ele>886</ele>
        <time>2019-05-15T09:56:27.078Z</time>
      </trkpt>
      <trkpt lat="48.44068" lon="7.1304">
        <ele>886</ele>
        <time>2019-05-15T09:56:28.078Z</time>
      </trkpt>
      <trkpt lat="48.44068" lon="7.13039">
        <ele>885</ele>
        <time>2019-05-15T09:56:29.078Z</time>
      </trkpt>
      <trkpt lat="48.44068" lon="7.13037">
        <ele>885</ele>
        <time>2019-05-15T09:56:30.078Z</time>
      </trkpt>
      <trkpt lat="48.44068" lon="7.13036">
        <ele>884</ele>
        <time>2019-05-15T09:56:31.078Z</time>
      </trkpt>
      <trkpt lat="48.44068" lon="7.13035">
        <ele>885</ele>
        <time>2019-05-15T09:56:32.078Z</time>
      </trkpt>
      <trkpt lat="48.44068" lon="7.13034">
        <ele>884</ele>
        <time>2019-05-15T09:56:33.078Z</time>
      </trkpt>
      <trkpt lat="48.44068" lon="7.13033">
        <ele>884</ele>
        <time>2019-05-15T09:56:34.078Z</time>
      </trkpt>
      <trkpt lat="48.44067" lon="7.13032">
        <ele>883</ele>
        <time>2019-05-15T09:56:35.078Z</time>
      </trkpt>
      <trkpt lat="48.44067" lon="7.1303">
        <ele>883</ele>
        <time>2019-05-15T09:56:36.078Z</time>
      </trkpt>
      <trkpt lat="48.44067" lon="7.13029">
        <ele>883</ele>
        <time>2019-05-15T09:56:37.078Z</time>
      </trkpt>
      <trkpt lat="48.44066" lon="7.13029">
        <ele>883</ele>
        <time>2019-05-15T09:56:38.078Z</time>
      </trkpt>
      <trkpt lat="48.44066" lon="7.13028">
        <ele>883</ele>
        <time>2019-05-15T09:56:39.078Z</time>
      </trkpt>
      <trkpt lat="48.44066" lon="7.13027">
        <ele>883</ele>
        <time>2019-05-15T09:56:40.078Z</time>
      </trkpt>
      <trkpt lat="48.44065" lon="7.13027">
        <ele>883</ele>
        <time>2019-05-15T09:56:41.078Z</time>
      </trkpt>
      <trkpt lat="48.44065" lon="7.13026">
        <ele>883</ele>
        <time>2019-05-15T09:56:42.078Z</time>
      </trkpt>
      <trkpt lat="48.44065" lon="7.13026">
        <ele>883</ele>
        <time>2019-05-15T09:56:43.078Z</time>
      </trkpt>
      <trkpt lat="48.44065" lon="7.13026">
        <ele>883</ele>
        <time>2019-05-15T09:56:44.078Z</time>
      </trkpt>
      <trkpt lat="48.44065" lon="7.13026">
        <ele>883</ele>
        <time>2019-05-15T09:56:45.078Z</time>
      </trkpt>
      <trkpt lat="48.44065" lon="7.13026">
        <ele>883</ele>
        <time>2019-05-15T09:56:46.078Z</time>
      </trkpt>
      <trkpt lat="48.44065" lon="7.13026">
        <ele>883</ele>
        <time>2019-05-15T09:56:47.078Z</time>
      </trkpt>
      <trkpt lat="48.44065" lon="7.13026">
        <ele>883</ele>
        <time>2019-05-15T09:56:48.078Z</time>
      </trkpt>
      <trkpt lat="48.44065" lon="7.13026">
        <ele>884</ele>
        <time>2019-05-15T09:56:49.078Z</time>
      </trkpt>
      <trkpt lat="48.44065" lon="7.13026">
        <ele>884</ele>
        <time>2019-05-15T09:56:50.078Z</time>
      </trkpt>
      <trkpt lat="48.44065" lon="7.13026">
        <ele>884</ele>
        <time>2019-05-15T09:56:51.078Z</time>
      </trkpt>
      <trkpt lat="48.44065" lon="7.13026">
        <ele>884</ele>
        <time>2019-05-15T09:56:52.078Z</time>
      </trkpt>
      <trkpt lat="48.44064" lon="7.13025">
        <ele>885</ele>
        <time>2019-05-15T09:56:53.078Z</time>
      </trkpt>
      <trkpt lat="48.44064" lon="7.13025">
        <ele>885</ele>
        <time>2019-05-15T09:56:54.078Z</time>
      </trkpt>
      <trkpt lat="48.44064" lon="7.13024">
        <ele>885</ele>
        <time>2019-05-15T09:56:55.078Z</time>
      </trkpt>
      <trkpt lat="48.44064" lon="7.13024">
        <ele>885</ele>
        <time>2019-05-15T09:56:56.078Z</time>
      </trkpt>
      <trkpt lat="48.44063" lon="7.13023">
        <ele>884</ele>
        <time>2019-05-15T09:56:57.078Z</time>
      </trkpt>
      <trkpt lat="48.44063" lon="7.13023">
        <ele>884</ele>
        <time>2019-05-15T09:56:58.078Z</time>
      </trkpt>
      <trkpt lat="48.44063" lon="7.13022">
        <ele>884</ele>
        <time>2019-05-15T09:56:59.078Z</time>
      </trkpt>
      <trkpt lat="48.44063" lon="7.13022">
        <ele>884</ele>
        <time>2019-05-15T09:57:00.078Z</time>
      </trkpt>
      <trkpt lat="48.44063" lon="7.13022">
        <ele>884</ele>
        <time>2019-05-15T09:57:01.078Z</time>
      </trkpt>
      <trkpt lat="48.44063" lon="7.13022">
        <ele>884</ele>
        <time>2019-05-15T09:57:02.078Z</time>
      </trkpt>
      <trkpt lat="48.44063" lon="7.13022">
        <ele>883</ele>
        <time>2019-05-15T09:57:03.078Z</time>
      </trkpt>
      <trkpt lat="48.44063" lon="7.13021">
        <ele>884</ele>
        <time>2019-05-15T09:57:04.078Z</time>
      </trkpt>
      <trkpt lat="48.44063" lon="7.13021">
        <ele>884</ele>
        <time>2019-05-15T09:57:05.078Z</time>
      </trkpt>
      <trkpt lat="48.44063" lon="7.13021">
        <ele>883</ele>
        <time>2019-05-15T09:57:06.078Z</time>
      </trkpt>
      <trkpt lat="48.44063" lon="7.13021">
        <ele>883</ele>
        <time>2019-05-15T09:57:07.078Z</time>
      </trkpt>
      <trkpt lat="48.44063" lon="7.13021">
        <ele>883</ele>
        <time>2019-05-15T09:57:08.078Z</time>
      </trkpt>
      <trkpt lat="48.44063" lon="7.13021">
        <ele>882</ele>
        <time>2019-05-15T09:57:09.078Z</time>
      </trkpt>
      <trkpt lat="48.44063" lon="7.1302">
        <ele>883</ele>
        <time>2019-05-15T09:57:10.078Z</time>
      </trkpt>
      <trkpt lat="48.44063" lon="7.1302">
        <ele>883</ele>
        <time>2019-05-15T09:57:11.078Z</time>
      </trkpt>
      <trkpt lat="48.44064" lon="7.1302">
        <ele>883</ele>
        <time>2019-05-15T09:57:12.078Z</time>
      </trkpt>
      <trkpt lat="48.44064" lon="7.1302">
        <ele>883</ele>
        <time>2019-05-15T09:57:13.078Z</time>
      </trkpt>
      <trkpt lat="48.44064" lon="7.1302">
        <ele>882</ele>
        <time>2019-05-15T09:57:14.078Z</time>
      </trkpt>
      <trkpt lat="48.44064" lon="7.1302">
        <ele>882</ele>
        <time>2019-05-15T09:57:15.078Z</time>
      </trkpt>
      <trkpt lat="48.44064" lon="7.13021">
        <ele>882</ele>
        <time>2019-05-15T09:57:16.078Z</time>
      </trkpt>
      <trkpt lat="48.44065" lon="7.13021">
        <ele>882</ele>
        <time>2019-05-15T09:57:17.078Z</time>
      </trkpt>
      <trkpt lat="48.44065" lon="7.1302">
        <ele>882</ele>
        <time>2019-05-15T09:57:18.078Z</time>
      </trkpt>
      <trkpt lat="48.44065" lon="7.1302">
        <ele>882</ele>
        <time>2019-05-15T09:57:19.078Z</time>
      </trkpt>
      <trkpt lat="48.44065" lon="7.13019">
        <ele>882</ele>
        <time>2019-05-15T09:57:20.078Z</time>
      </trkpt>
      <trkpt lat="48.44065" lon="7.13019">
        <ele>882</ele>
        <time>2019-05-15T09:57:21.078Z</time>
      </trkpt>
      <trkpt lat="48.44065" lon="7.13018">
        <ele>881</ele>
        <time>2019-05-15T09:57:22.078Z</time>
      </trkpt>
      <trkpt lat="48.44065" lon="7.13017">
        <ele>881</ele>
        <time>2019-05-15T09:57:23.078Z</time>
      </trkpt>
      <trkpt lat="48.44065" lon="7.13016">
        <ele>881</ele>
        <time>2019-05-15T09:57:24.078Z</time>
      </trkpt>
      <trkpt lat="48.44065" lon="7.13015">
        <ele>881</ele>
        <time>2019-05-15T09:57:25.078Z</time>
      </trkpt>
      <trkpt lat="48.44064" lon="7.13014">
        <ele>881</ele>
        <time>2019-05-15T09:57:26.078Z</time>
      </trkpt>
      <trkpt lat="48.44064" lon="7.13012">
        <ele>881</ele>
        <time>2019-05-15T09:57:27.078Z</time>
      </trkpt>
      <trkpt lat="48.44064" lon="7.13011">
        <ele>880</ele>
        <time>2019-05-15T09:57:28.078Z</time>
      </trkpt>
      <trkpt lat="48.44064" lon="7.1301">
        <ele>880</ele>
        <time>2019-05-15T09:57:29.078Z</time>
      </trkpt>
      <trkpt lat="48.44064" lon="7.13009">
        <ele>880</ele>
        <time>2019-05-15T09:57:30.078Z</time>
      </trkpt>
      <trkpt lat="48.44064" lon="7.13008">
        <ele>880</ele>
        <time>2019-05-15T09:57:31.078Z</time>
      </trkpt>
      <trkpt lat="48.44064" lon="7.13006">
        <ele>880</ele>
        <time>2019-05-15T09:57:32.078Z</time>
      </trkpt>
      <trkpt lat="48.44064" lon="7.13005">
        <ele>880</ele>
        <time>2019-05-15T09:57:33.078Z</time>
      </trkpt>
      <trkpt lat="48.44064" lon="7.13004">
        <ele>879</ele>
        <time>2019-05-15T09:57:34.078Z</time>
      </trkpt>
      <trkpt lat="48.44064" lon="7.13002">
        <ele>879</ele>
        <time>2019-05-15T09:57:35.078Z</time>
      </trkpt>
      <trkpt lat="48.44064" lon="7.13001">
        <ele>879</ele>
        <time>2019-05-15T09:57:36.078Z</time>
      </trkpt>
      <trkpt lat="48.44065" lon="7.13">
        <ele>878</ele>
        <time>2019-05-15T09:57:37.078Z</time>
      </trkpt>
      <trkpt lat="48.44065" lon="7.12999">
        <ele>878</ele>
        <time>2019-05-15T09:57:38.078Z</time>
      </trkpt>
      <trkpt lat="48.44066" lon="7.12998">
        <ele>878</ele>
        <time>2019-05-15T09:57:39.078Z</time>
      </trkpt>
      <trkpt lat="48.44066" lon="7.12997">
        <ele>878</ele>
        <time>2019-05-15T09:57:40.078Z</time>
      </trkpt>
      <trkpt lat="48.44066" lon="7.12997">
        <ele>878</ele>
        <time>2019-05-15T09:57:41.078Z</time>
      </trkpt>
      <trkpt lat="48.44066" lon="7.12996">
        <ele>878</ele>
        <time>2019-05-15T09:57:42.078Z</time>
      </trkpt>
      <trkpt lat="48.44066" lon="7.12995">
        <ele>878</ele>
        <time>2019-05-15T09:57:43.078Z</time>
      </trkpt>
      <trkpt lat="48.44066" lon="7.12995">
        <ele>878</ele>
        <time>2019-05-15T09:57:44.078Z</time>
      </trkpt>
      <trkpt lat="48.44066" lon="7.12994">
        <ele>878</ele>
        <time>2019-05-15T09:57:45.078Z</time>
      </trkpt>
      <trkpt lat="48.44066" lon="7.12993">
        <ele>877</ele>
        <time>2019-05-15T09:57:46.078Z</time>
      </trkpt>
      <trkpt lat="48.44066" lon="7.12993">
        <ele>877</ele>
        <time>2019-05-15T09:57:47.078Z</time>
      </trkpt>
      <trkpt lat="48.44066" lon="7.12993">
        <ele>876</ele>
        <time>2019-05-15T09:57:48.078Z</time>
      </trkpt>
      <trkpt lat="48.44066" lon="7.12992">
        <ele>877</ele>
        <time>2019-05-15T09:57:49.078Z</time>
      </trkpt>
      <trkpt lat="48.44066" lon="7.12991">
        <ele>876</ele>
        <time>2019-05-15T09:57:50.078Z</time>
      </trkpt>
      <trkpt lat="48.44066" lon="7.1299">
        <ele>876</ele>
        <time>2019-05-15T09:57:51.078Z</time>
      </trkpt>
      <trkpt lat="48.44066" lon="7.12989">
        <ele>876</ele>
        <time>2019-05-15T09:57:52.078Z</time>
      </trkpt>
      <trkpt lat="48.44066" lon="7.12989">
        <ele>875</ele>
        <time>2019-05-15T09:57:53.078Z</time>
      </trkpt>
      <trkpt lat="48.44066" lon="7.12988">
        <ele>875</ele>
        <time>2019-05-15T09:57:54.078Z</time>
      </trkpt>
      <trkpt lat="48.44067" lon="7.12987">
        <ele>875</ele>
        <time>2019-05-15T09:57:55.078Z</time>
      </trkpt>
      <trkpt lat="48.44067" lon="7.12986">
        <ele>874</ele>
        <time>2019-05-15T09:57:56.078Z</time>
      </trkpt>
      <trkpt lat="48.44067" lon="7.12985">
        <ele>874</ele>
        <time>2019-05-15T09:57:57.078Z</time>
      </trkpt>
      <trkpt lat="48.44067" lon="7.12984">
        <ele>874</ele>
        <time>2019-05-15T09:57:58.078Z</time>
      </trkpt>
      <trkpt lat="48.44067" lon="7.12982">
        <ele>874</ele>
        <time>2019-05-15T09:57:59.078Z</time>
      </trkpt>
      <trkpt lat="48.44067" lon="7.12981">
        <ele>874</ele>
        <time>2019-05-15T09:58:00.078Z</time>
      </trkpt>
      <trkpt lat="48.44067" lon="7.1298">
        <ele>874</ele>
        <time>2019-05-15T09:58:01.078Z</time>
      </trkpt>
      <trkpt lat="48.44067" lon="7.12979">
        <ele>874</ele>
        <time>2019-05-15T09:58:02.078Z</time>
      </trkpt>
      <trkpt lat="48.44067" lon="7.12979">
        <ele>874</ele>
        <time>2019-05-15T09:58:03.078Z</time>
      </trkpt>
      <trkpt lat="48.44067" lon="7.12979">
        <ele>873</ele>
        <time>2019-05-15T09:58:04.078Z</time>
      </trkpt>
      <trkpt lat="48.44067" lon="7.12978">
        <ele>872</ele>
        <time>2019-05-15T09:58:05.078Z</time>
      </trkpt>
      <trkpt lat="48.44067" lon="7.12976">
        <ele>872</ele>
        <time>2019-05-15T09:58:06.078Z</time>
      </trkpt>
      <trkpt lat="48.44067" lon="7.12975">
        <ele>872</ele>
        <time>2019-05-15T09:58:07.078Z</time>
      </trkpt>
      <trkpt lat="48.44067" lon="7.12973">
        <ele>872</ele>
        <time>2019-05-15T09:58:08.078Z</time>
      </trkpt>
      <trkpt lat="48.44067" lon="7.12972">
        <ele>872</ele>
        <time>2019-05-15T09:58:09.078Z</time>
      </trkpt>
      <trkpt lat="48.44067" lon="7.12971">
        <ele>872</ele>
        <time>2019-05-15T09:58:10.078Z</time>
      </trkpt>
      <trkpt lat="48.44067" lon="7.12969">
        <ele>872</ele>
        <time>2019-05-15T09:58:11.078Z</time>
      </trkpt>
      <trkpt lat="48.44066" lon="7.12968">
        <ele>872</ele>
        <time>2019-05-15T09:58:12.078Z</time>
      </trkpt>
      <trkpt lat="48.44066" lon="7.12967">
        <ele>872</ele>
        <time>2019-05-15T09:58:13.078Z</time>
      </trkpt>
      <trkpt lat="48.44066" lon="7.12965">
        <ele>872</ele>
        <time>2019-05-15T09:58:14.078Z</time>
      </trkpt>
      <trkpt lat="48.44066" lon="7.12964">
        <ele>871</ele>
        <time>2019-05-15T09:58:15.078Z</time>
      </trkpt>
      <trkpt lat="48.44066" lon="7.12963">
        <ele>871</ele>
        <time>2019-05-15T09:58:16.078Z</time>
      </trkpt>
      <trkpt lat="48.44066" lon="7.12962">
        <ele>871</ele>
        <time>2019-05-15T09:58:17.078Z</time>
      </trkpt>
      <trkpt lat="48.44066" lon="7.12961">
        <ele>870</ele>
        <time>2019-05-15T09:58:18.078Z</time>
      </trkpt>
      <trkpt lat="48.44065" lon="7.12961">
        <ele>870</ele>
        <time>2019-05-15T09:58:19.078Z</time>
      </trkpt>
      <trkpt lat="48.44065" lon="7.1296">
        <ele>870</ele>
        <time>2019-05-15T09:58:20.078Z</time>
      </trkpt>
      <trkpt lat="48.44064" lon="7.12959">
        <ele>872</ele>
        <time>2019-05-15T09:58:21.078Z</time>
      </trkpt>
      <trkpt lat="48.44064" lon="7.12957">
        <ele>872</ele>
        <time>2019-05-15T09:58:22.078Z</time>
      </trkpt>
      <trkpt lat="48.44063" lon="7.12955">
        <ele>872</ele>
        <time>2019-05-15T09:58:23.078Z</time>
      </trkpt>
      <trkpt lat="48.44063" lon="7.12954">
        <ele>873</ele>
        <time>2019-05-15T09:58:24.078Z</time>
      </trkpt>
      <trkpt lat="48.44063" lon="7.12952">
        <ele>872</ele>
        <time>2019-05-15T09:58:25.078Z</time>
      </trkpt>
      <trkpt lat="48.44063" lon="7.1295">
        <ele>872</ele>
        <time>2019-05-15T09:58:26.078Z</time>
      </trkpt>
      <trkpt lat="48.44063" lon="7.12949">
        <ele>873</ele>
        <time>2019-05-15T09:58:27.078Z</time>
      </trkpt>
      <trkpt lat="48.44063" lon="7.12947">
        <ele>872</ele>
        <time>2019-05-15T09:58:28.078Z</time>
      </trkpt>
      <trkpt lat="48.44063" lon="7.12946">
        <ele>871</ele>
        <time>2019-05-15T09:58:29.078Z</time>
      </trkpt>
      <trkpt lat="48.44063" lon="7.12945">
        <ele>871</ele>
        <time>2019-05-15T09:58:30.078Z</time>
      </trkpt>
      <trkpt lat="48.44063" lon="7.12943">
        <ele>871</ele>
        <time>2019-05-15T09:58:31.078Z</time>
      </trkpt>
      <trkpt lat="48.44063" lon="7.12942">
        <ele>871</ele>
        <time>2019-05-15T09:58:32.078Z</time>
      </trkpt>
      <trkpt lat="48.44063" lon="7.12941">
        <ele>870</ele>
        <time>2019-05-15T09:58:33.078Z</time>
      </trkpt>
      <trkpt lat="48.44063" lon="7.1294">
        <ele>871</ele>
        <time>2019-05-15T09:58:34.078Z</time>
      </trkpt>
      <trkpt lat="48.44063" lon="7.12938">
        <ele>870</ele>
        <time>2019-05-15T09:58:35.078Z</time>
      </trkpt>
      <trkpt lat="48.44063" lon="7.12937">
        <ele>870</ele>
        <time>2019-05-15T09:58:36.078Z</time>
      </trkpt>
      <trkpt lat="48.44063" lon="7.12935">
        <ele>870</ele>
        <time>2019-05-15T09:58:37.078Z</time>
      </trkpt>
      <trkpt lat="48.44063" lon="7.12934">
        <ele>870</ele>
        <time>2019-05-15T09:58:38.078Z</time>
      </trkpt>
      <trkpt lat="48.44063" lon="7.12932">
        <ele>870</ele>
        <time>2019-05-15T09:58:39.078Z</time>
      </trkpt>
      <trkpt lat="48.44063" lon="7.12931">
        <ele>870</ele>
        <time>2019-05-15T09:58:40.078Z</time>
      </trkpt>
      <trkpt lat="48.44062" lon="7.1293">
        <ele>870</ele>
        <time>2019-05-15T09:58:41.078Z</time>
      </trkpt>
      <trkpt lat="48.44062" lon="7.12929">
        <ele>870</ele>
        <time>2019-05-15T09:58:42.078Z</time>
      </trkpt>
      <trkpt lat="48.44062" lon="7.12928">
        <ele>870</ele>
        <time>2019-05-15T09:58:43.078Z</time>
      </trkpt>
      <trkpt lat="48.44062" lon="7.12926">
        <ele>870</ele>
        <time>2019-05-15T09:58:44.078Z</time>
      </trkpt>
      <trkpt lat="48.44062" lon="7.12925">
        <ele>869</ele>
        <time>2019-05-15T09:58:45.078Z</time>
      </trkpt>
      <trkpt lat="48.44061" lon="7.12924">
        <ele>869</ele>
        <time>2019-05-15T09:58:46.078Z</time>
      </trkpt>
      <trkpt lat="48.44061" lon="7.12923">
        <ele>869</ele>
        <time>2019-05-15T09:58:47.078Z</time>
      </trkpt>
      <trkpt lat="48.44061" lon="7.12923">
        <ele>869</ele>
        <time>2019-05-15T09:58:48.078Z</time>
      </trkpt>
      <trkpt lat="48.44061" lon="7.12922">
        <ele>868</ele>
        <time>2019-05-15T09:58:49.078Z</time>
      </trkpt>
      <trkpt lat="48.4406" lon="7.12921">
        <ele>868</ele>
        <time>2019-05-15T09:58:50.078Z</time>
      </trkpt>
      <trkpt lat="48.4406" lon="7.12919">
        <ele>869</ele>
        <time>2019-05-15T09:58:51.078Z</time>
      </trkpt>
      <trkpt lat="48.44059" lon="7.12918">
        <ele>869</ele>
        <time>2019-05-15T09:58:52.078Z</time>
      </trkpt>
      <trkpt lat="48.44058" lon="7.12918">
        <ele>869</ele>
        <time>2019-05-15T09:58:53.078Z</time>
      </trkpt>
      <trkpt lat="48.44058" lon="7.12917">
        <ele>868</ele>
        <time>2019-05-15T09:58:54.078Z</time>
      </trkpt>
      <trkpt lat="48.44058" lon="7.12916">
        <ele>868</ele>
        <time>2019-05-15T09:58:55.078Z</time>
      </trkpt>
      <trkpt lat="48.44058" lon="7.12915">
        <ele>867</ele>
        <time>2019-05-15T09:58:56.078Z</time>
      </trkpt>
      <trkpt lat="48.44058" lon="7.12913">
        <ele>867</ele>
        <time>2019-05-15T09:58:57.078Z</time>
      </trkpt>
      <trkpt lat="48.44058" lon="7.12912">
        <ele>867</ele>
        <time>2019-05-15T09:58:58.078Z</time>
      </trkpt>
      <trkpt lat="48.44058" lon="7.12911">
        <ele>867</ele>
        <time>2019-05-15T09:58:59.078Z</time>
      </trkpt>
      <trkpt lat="48.44058" lon="7.1291">
        <ele>866</ele>
        <time>2019-05-15T09:59:00.078Z</time>
      </trkpt>
      <trkpt lat="48.44058" lon="7.12909">
        <ele>865</ele>
        <time>2019-05-15T09:59:01.078Z</time>
      </trkpt>
      <trkpt lat="48.44057" lon="7.12907">
        <ele>865</ele>
        <time>2019-05-15T09:59:02.078Z</time>
      </trkpt>
      <trkpt lat="48.44057" lon="7.12906">
        <ele>865</ele>
        <time>2019-05-15T09:59:03.078Z</time>
      </trkpt>
      <trkpt lat="48.44057" lon="7.12905">
        <ele>865</ele>
        <time>2019-05-15T09:59:04.078Z</time>
      </trkpt>
      <trkpt lat="48.44056" lon="7.12904">
        <ele>865</ele>
        <time>2019-05-15T09:59:05.078Z</time>
      </trkpt>
      <trkpt lat="48.44056" lon="7.12903">
        <ele>865</ele>
        <time>2019-05-15T09:59:06.078Z</time>
      </trkpt>
      <trkpt lat="48.44056" lon="7.12901">
        <ele>864</ele>
        <time>2019-05-15T09:59:07.078Z</time>
      </trkpt>
      <trkpt lat="48.44055" lon="7.129">
        <ele>864</ele>
        <time>2019-05-15T09:59:08.078Z</time>
      </trkpt>
      <trkpt lat="48.44055" lon="7.12899">
        <ele>864</ele>
        <time>2019-05-15T09:59:09.078Z</time>
      </trkpt>
      <trkpt lat="48.44055" lon="7.12898">
        <ele>864</ele>
        <time>2019-05-15T09:59:10.078Z</time>
      </trkpt>
      <trkpt lat="48.44055" lon="7.12896">
        <ele>865</ele>
        <time>2019-05-15T09:59:11.078Z</time>
      </trkpt>
      <trkpt lat="48.44055" lon="7.12894">
        <ele>866</ele>
        <time>2019-05-15T09:59:12.078Z</time>
      </trkpt>
      <trkpt lat="48.44054" lon="7.12893">
        <ele>866</ele>
        <time>2019-05-15T09:59:13.078Z</time>
      </trkpt>
      <trkpt lat="48.44054" lon="7.12891">
        <ele>866</ele>
        <time>2019-05-15T09:59:14.078Z</time>
      </trkpt>
      <trkpt lat="48.44054" lon="7.1289">
        <ele>866</ele>
        <time>2019-05-15T09:59:15.078Z</time>
      </trkpt>
      <trkpt lat="48.44054" lon="7.12889">
        <ele>866</ele>
        <time>2019-05-15T09:59:16.078Z</time>
      </trkpt>
      <trkpt lat="48.44054" lon="7.12888">
        <ele>866</ele>
        <time>2019-05-15T09:59:17.078Z</time>
      </trkpt>
      <trkpt lat="48.44053" lon="7.12887">
        <ele>866</ele>
        <time>2019-05-15T09:59:18.078Z</time>
      </trkpt>
      <trkpt lat="48.44053" lon="7.12886">
        <ele>866</ele>
        <time>2019-05-15T09:59:19.078Z</time>
      </trkpt>
      <trkpt lat="48.44053" lon="7.12885">
        <ele>866</ele>
        <time>2019-05-15T09:59:20.078Z</time>
      </trkpt>
      <trkpt lat="48.44053" lon="7.12885">
        <ele>866</ele>
        <time>2019-05-15T09:59:21.078Z</time>
      </trkpt>
      <trkpt lat="48.44053" lon="7.12884">
        <ele>866</ele>
        <time>2019-05-15T09:59:22.078Z</time>
      </trkpt>
      <trkpt lat="48.44052" lon="7.12883">
        <ele>866</ele>
        <time>2019-05-15T09:59:23.078Z</time>
      </trkpt>
      <trkpt lat="48.44052" lon="7.12883">
        <ele>866</ele>
        <time>2019-05-15T09:59:24.078Z</time>
      </trkpt>
      <trkpt lat="48.44051" lon="7.12882">
        <ele>866</ele>
        <time>2019-05-15T09:59:25.078Z</time>
      </trkpt>
      <trkpt lat="48.44051" lon="7.12881">
        <ele>867</ele>
        <time>2019-05-15T09:59:26.078Z</time>
      </trkpt>
      <trkpt lat="48.4405" lon="7.1288">
        <ele>867</ele>
        <time>2019-05-15T09:59:27.078Z</time>
      </trkpt>
      <trkpt lat="48.4405" lon="7.12879">
        <ele>868</ele>
        <time>2019-05-15T09:59:28.078Z</time>
      </trkpt>
      <trkpt lat="48.44049" lon="7.12878">
        <ele>868</ele>
        <time>2019-05-15T09:59:29.078Z</time>
      </trkpt>
      <trkpt lat="48.44049" lon="7.12877">
        <ele>867</ele>
        <time>2019-05-15T09:59:30.078Z</time>
      </trkpt>
      <trkpt lat="48.44049" lon="7.12876">
        <ele>867</ele>
        <time>2019-05-15T09:59:31.078Z</time>
      </trkpt>
      <trkpt lat="48.44049" lon="7.12876">
        <ele>867</ele>
        <time>2019-05-15T09:59:32.078Z</time>
      </trkpt>
      <trkpt lat="48.44048" lon="7.12875">
        <ele>867</ele>
        <time>2019-05-15T09:59:33.078Z</time>
      </trkpt>
      <trkpt lat="48.44048" lon="7.12874">
        <ele>867</ele>
        <time>2019-05-15T09:59:34.078Z</time>
      </trkpt>
      <trkpt lat="48.44048" lon="7.12873">
        <ele>868</ele>
        <time>2019-05-15T09:59:35.078Z</time>
      </trkpt>
      <trkpt lat="48.44047" lon="7.12871">
        <ele>867</ele>
        <time>2019-05-15T09:59:36.078Z</time>
      </trkpt>
      <trkpt lat="48.44047" lon="7.1287">
        <ele>866</ele>
        <time>2019-05-15T09:59:37.078Z</time>
      </trkpt>
      <trkpt lat="48.44047" lon="7.12869">
        <ele>866</ele>
        <time>2019-05-15T09:59:38.078Z</time>
      </trkpt>
      <trkpt lat="48.44047" lon="7.12868">
        <ele>866</ele>
        <time>2019-05-15T09:59:39.078Z</time>
      </trkpt>
      <trkpt lat="48.44047" lon="7.12868">
        <ele>866</ele>
        <time>2019-05-15T09:59:40.078Z</time>
      </trkpt>
      <trkpt lat="48.44046" lon="7.12867">
        <ele>866</ele>
        <time>2019-05-15T09:59:41.078Z</time>
      </trkpt>
      <trkpt lat="48.44046" lon="7.12865">
        <ele>866</ele>
        <time>2019-05-15T09:59:42.078Z</time>
      </trkpt>
      <trkpt lat="48.44045" lon="7.12864">
        <ele>866</ele>
        <time>2019-05-15T09:59:43.078Z</time>
      </trkpt>
      <trkpt lat="48.44045" lon="7.12863">
        <ele>866</ele>
        <time>2019-05-15T09:59:44.078Z</time>
      </trkpt>
      <trkpt lat="48.44044" lon="7.12862">
        <ele>866</ele>
        <time>2019-05-15T09:59:45.078Z</time>
      </trkpt>
      <trkpt lat="48.44044" lon="7.12861">
        <ele>865</ele>
        <time>2019-05-15T09:59:46.078Z</time>
      </trkpt>
      <trkpt lat="48.44043" lon="7.1286">
        <ele>866</ele>
        <time>2019-05-15T09:59:47.078Z</time>
      </trkpt>
      <trkpt lat="48.44043" lon="7.12858">
        <ele>865</ele>
        <time>2019-05-15T09:59:48.078Z</time>
      </trkpt>
      <trkpt lat="48.44043" lon="7.12856">
        <ele>865</ele>
        <time>2019-05-15T09:59:49.078Z</time>
      </trkpt>
      <trkpt lat="48.44043" lon="7.12855">
        <ele>865</ele>
        <time>2019-05-15T09:59:50.078Z</time>
      </trkpt>
      <trkpt lat="48.44042" lon="7.12853">
        <ele>865</ele>
        <time>2019-05-15T09:59:51.078Z</time>
      </trkpt>
      <trkpt lat="48.44042" lon="7.12852">
        <ele>866</ele>
        <time>2019-05-15T09:59:52.078Z</time>
      </trkpt>
      <trkpt lat="48.44042" lon="7.12851">
        <ele>866</ele>
        <time>2019-05-15T09:59:53.078Z</time>
      </trkpt>
      <trkpt lat="48.44042" lon="7.12849">
        <ele>865</ele>
        <time>2019-05-15T09:59:54.078Z</time>
      </trkpt>
      <trkpt lat="48.44042" lon="7.12848">
        <ele>865</ele>
        <time>2019-05-15T09:59:55.078Z</time>
      </trkpt>
      <trkpt lat="48.44042" lon="7.12847">
        <ele>865</ele>
        <time>2019-05-15T09:59:56.078Z</time>
      </trkpt>
      <trkpt lat="48.44041" lon="7.12846">
        <ele>865</ele>
        <time>2019-05-15T09:59:57.078Z</time>
      </trkpt>
      <trkpt lat="48.44041" lon="7.12845">
        <ele>865</ele>
        <time>2019-05-15T09:59:58.078Z</time>
      </trkpt>
      <trkpt lat="48.44041" lon="7.12844">
        <ele>865</ele>
        <time>2019-05-15T09:59:59.078Z</time>
      </trkpt>
      <trkpt lat="48.4404" lon="7.12843">
        <ele>864</ele>
        <time>2019-05-15T10:00:00.078Z</time>
      </trkpt>
      <trkpt lat="48.4404" lon="7.12842">
        <ele>864</ele>
        <time>2019-05-15T10:00:01.078Z</time>
      </trkpt>
      <trkpt lat="48.4404" lon="7.1284">
        <ele>864</ele>
        <time>2019-05-15T10:00:02.078Z</time>
      </trkpt>
      <trkpt lat="48.44039" lon="7.12839">
        <ele>863</ele>
        <time>2019-05-15T10:00:03.078Z</time>
      </trkpt>
      <trkpt lat="48.44039" lon="7.12837">
        <ele>863</ele>
        <time>2019-05-15T10:00:04.078Z</time>
      </trkpt>
      <trkpt lat="48.44039" lon="7.12835">
        <ele>863</ele>
        <time>2019-05-15T10:00:05.078Z</time>
      </trkpt>
      <trkpt lat="48.44038" lon="7.12834">
        <ele>864</ele>
        <time>2019-05-15T10:00:06.078Z</time>
      </trkpt>
      <trkpt lat="48.44038" lon="7.12833">
        <ele>865</ele>
        <time>2019-05-15T10:00:07.078Z</time>
      </trkpt>
      <trkpt lat="48.44037" lon="7.12831">
        <ele>865</ele>
        <time>2019-05-15T10:00:08.078Z</time>
      </trkpt>
      <trkpt lat="48.44037" lon="7.1283">
        <ele>865</ele>
        <time>2019-05-15T10:00:09.078Z</time>
      </trkpt>
      <trkpt lat="48.44036" lon="7.12829">
        <ele>866</ele>
        <time>2019-05-15T10:00:10.078Z</time>
      </trkpt>
      <trkpt lat="48.44036" lon="7.12827">
        <ele>866</ele>
        <time>2019-05-15T10:00:11.078Z</time>
      </trkpt>
      <trkpt lat="48.44035" lon="7.12827">
        <ele>866</ele>
        <time>2019-05-15T10:00:12.078Z</time>
      </trkpt>
      <trkpt lat="48.44035" lon="7.12826">
        <ele>867</ele>
        <time>2019-05-15T10:00:13.078Z</time>
      </trkpt>
      <trkpt lat="48.44035" lon="7.12825">
        <ele>867</ele>
        <time>2019-05-15T10:00:14.078Z</time>
      </trkpt>
      <trkpt lat="48.44034" lon="7.12824">
        <ele>867</ele>
        <time>2019-05-15T10:00:15.078Z</time>
      </trkpt>
      <trkpt lat="48.44034" lon="7.12823">
        <ele>867</ele>
        <time>2019-05-15T10:00:16.078Z</time>
      </trkpt>
      <trkpt lat="48.44033" lon="7.12821">
        <ele>866</ele>
        <time>2019-05-15T10:00:17.078Z</time>
      </trkpt>
      <trkpt lat="48.44033" lon="7.1282">
        <ele>865</ele>
        <time>2019-05-15T10:00:18.078Z</time>
      </trkpt>
      <trkpt lat="48.44033" lon="7.12818">
        <ele>865</ele>
        <time>2019-05-15T10:00:19.078Z</time>
      </trkpt>
      <trkpt lat="48.44033" lon="7.12817">
        <ele>864</ele>
        <time>2019-05-15T10:00:20.078Z</time>
      </trkpt>
      <trkpt lat="48.44032" lon="7.12817">
        <ele>864</ele>
        <time>2019-05-15T10:00:21.078Z</time>
      </trkpt>
      <trkpt lat="48.44032" lon="7.12816">
        <ele>863</ele>
        <time>2019-05-15T10:00:22.078Z</time>
      </trkpt>
      <trkpt lat="48.44031" lon="7.12815">
        <ele>863</ele>
        <time>2019-05-15T10:00:23.078Z</time>
      </trkpt>
      <trkpt lat="48.44031" lon="7.12813">
        <ele>861</ele>
        <time>2019-05-15T10:00:24.078Z</time>
      </trkpt>
      <trkpt lat="48.44031" lon="7.12812">
        <ele>860</ele>
        <time>2019-05-15T10:00:25.078Z</time>
      </trkpt>
      <trkpt lat="48.44031" lon="7.12811">
        <ele>861</ele>
        <time>2019-05-15T10:00:26.078Z</time>
      </trkpt>
      <trkpt lat="48.4403" lon="7.12809">
        <ele>860</ele>
        <time>2019-05-15T10:00:27.078Z</time>
      </trkpt>
      <trkpt lat="48.4403" lon="7.12808">
        <ele>861</ele>
        <time>2019-05-15T10:00:28.078Z</time>
      </trkpt>
      <trkpt lat="48.4403" lon="7.12807">
        <ele>861</ele>
        <time>2019-05-15T10:00:29.078Z</time>
      </trkpt>
      <trkpt lat="48.4403" lon="7.12805">
        <ele>861</ele>
        <time>2019-05-15T10:00:30.078Z</time>
      </trkpt>
      <trkpt lat="48.44029" lon="7.12803">
        <ele>861</ele>
        <time>2019-05-15T10:00:31.078Z</time>
      </trkpt>
      <trkpt lat="48.4403" lon="7.12801">
        <ele>860</ele>
        <time>2019-05-15T10:00:32.078Z</time>
      </trkpt>
      <trkpt lat="48.4403" lon="7.12799">
        <ele>859</ele>
        <time>2019-05-15T10:00:33.078Z</time>
      </trkpt>
      <trkpt lat="48.4403" lon="7.12798">
        <ele>860</ele>
        <time>2019-05-15T10:00:34.078Z</time>
      </trkpt>
      <trkpt lat="48.4403" lon="7.12797">
        <ele>860</ele>
        <time>2019-05-15T10:00:35.078Z</time>
      </trkpt>
      <trkpt lat="48.44029" lon="7.12796">
        <ele>860</ele>
        <time>2019-05-15T10:00:36.078Z</time>
      </trkpt>
      <trkpt lat="48.44028" lon="7.12795">
        <ele>860</ele>
        <time>2019-05-15T10:00:37.078Z</time>
      </trkpt>
      <trkpt lat="48.44028" lon="7.12794">
        <ele>860</ele>
        <time>2019-05-15T10:00:38.078Z</time>
      </trkpt>
      <trkpt lat="48.44027" lon="7.12793">
        <ele>861</ele>
        <time>2019-05-15T10:00:39.078Z</time>
      </trkpt>
      <trkpt lat="48.44027" lon="7.12792">
        <ele>861</ele>
        <time>2019-05-15T10:00:40.078Z</time>
      </trkpt>
      <trkpt lat="48.44026" lon="7.12791">
        <ele>861</ele>
        <time>2019-05-15T10:00:41.078Z</time>
      </trkpt>
      <trkpt lat="48.44026" lon="7.12791">
        <ele>861</ele>
        <time>2019-05-15T10:00:42.078Z</time>
      </trkpt>
      <trkpt lat="48.44026" lon="7.1279">
        <ele>861</ele>
        <time>2019-05-15T10:00:43.078Z</time>
      </trkpt>
      <trkpt lat="48.44025" lon="7.12789">
        <ele>861</ele>
        <time>2019-05-15T10:00:44.078Z</time>
      </trkpt>
      <trkpt lat="48.44025" lon="7.12788">
        <ele>860</ele>
        <time>2019-05-15T10:00:45.078Z</time>
      </trkpt>
      <trkpt lat="48.44024" lon="7.12787">
        <ele>860</ele>
        <time>2019-05-15T10:00:46.078Z</time>
      </trkpt>
      <trkpt lat="48.44024" lon="7.12786">
        <ele>859</ele>
        <time>2019-05-15T10:00:47.078Z</time>
      </trkpt>
      <trkpt lat="48.44024" lon="7.12785">
        <ele>857</ele>
        <time>2019-05-15T10:00:48.078Z</time>
      </trkpt>
      <trkpt lat="48.44024" lon="7.12783">
        <ele>857</ele>
        <time>2019-05-15T10:00:49.078Z</time>
      </trkpt>
      <trkpt lat="48.44025" lon="7.12781">
        <ele>855</ele>
        <time>2019-05-15T10:00:50.078Z</time>
      </trkpt>
      <trkpt lat="48.44025" lon="7.1278">
        <ele>855</ele>
        <time>2019-05-15T10:00:51.078Z</time>
      </trkpt>
      <trkpt lat="48.44025" lon="7.12779">
        <ele>855</ele>
        <time>2019-05-15T10:00:52.078Z</time>
      </trkpt>
      <trkpt lat="48.44025" lon="7.12777">
        <ele>853</ele>
        <time>2019-05-15T10:00:53.078Z</time>
      </trkpt>
      <trkpt lat="48.44025" lon="7.12776">
        <ele>852</ele>
        <time>2019-05-15T10:00:54.078Z</time>
      </trkpt>
      <trkpt lat="48.44025" lon="7.12775">
        <ele>852</ele>
        <time>2019-05-15T10:00:55.078Z</time>
      </trkpt>
      <trkpt lat="48.44025" lon="7.12775">
        <ele>851</ele>
        <time>2019-05-15T10:00:56.078Z</time>
      </trkpt>
      <trkpt lat="48.44024" lon="7.12774">
        <ele>851</ele>
        <time>2019-05-15T10:00:57.078Z</time>
      </trkpt>
      <trkpt lat="48.44024" lon="7.12773">
        <ele>850</ele>
        <time>2019-05-15T10:00:58.078Z</time>
      </trkpt>
      <trkpt lat="48.44024" lon="7.12773">
        <ele>850</ele>
        <time>2019-05-15T10:00:59.078Z</time>
      </trkpt>
      <trkpt lat="48.44024" lon="7.12772">
        <ele>849</ele>
        <time>2019-05-15T10:01:00.078Z</time>
      </trkpt>
      <trkpt lat="48.44024" lon="7.12772">
        <ele>849</ele>
        <time>2019-05-15T10:01:01.078Z</time>
      </trkpt>
      <trkpt lat="48.44023" lon="7.12771">
        <ele>849</ele>
        <time>2019-05-15T10:01:02.078Z</time>
      </trkpt>
      <trkpt lat="48.44023" lon="7.1277">
        <ele>849</ele>
        <time>2019-05-15T10:01:03.078Z</time>
      </trkpt>
      <trkpt lat="48.44022" lon="7.12769">
        <ele>849</ele>
        <time>2019-05-15T10:01:04.078Z</time>
      </trkpt>
      <trkpt lat="48.44022" lon="7.12768">
        <ele>849</ele>
        <time>2019-05-15T10:01:05.078Z</time>
      </trkpt>
      <trkpt lat="48.44022" lon="7.12767">
        <ele>849</ele>
        <time>2019-05-15T10:01:06.078Z</time>
      </trkpt>
      <trkpt lat="48.44022" lon="7.12765">
        <ele>849</ele>
        <time>2019-05-15T10:01:07.078Z</time>
      </trkpt>
      <trkpt lat="48.44021" lon="7.12764">
        <ele>848</ele>
        <time>2019-05-15T10:01:08.078Z</time>
      </trkpt>
      <trkpt lat="48.44021" lon="7.12763">
        <ele>848</ele>
        <time>2019-05-15T10:01:09.078Z</time>
      </trkpt>
      <trkpt lat="48.44021" lon="7.12761">
        <ele>848</ele>
        <time>2019-05-15T10:01:10.078Z</time>
      </trkpt>
      <trkpt lat="48.44021" lon="7.1276">
        <ele>847</ele>
        <time>2019-05-15T10:01:11.078Z</time>
      </trkpt>
      <trkpt lat="48.4402" lon="7.12758">
        <ele>847</ele>
        <time>2019-05-15T10:01:12.078Z</time>
      </trkpt>
      <trkpt lat="48.4402" lon="7.12757">
        <ele>847</ele>
        <time>2019-05-15T10:01:13.078Z</time>
      </trkpt>
      <trkpt lat="48.4402" lon="7.12755">
        <ele>847</ele>
        <time>2019-05-15T10:01:14.078Z</time>
      </trkpt>
      <trkpt lat="48.4402" lon="7.12754">
        <ele>847</ele>
        <time>2019-05-15T10:01:15.078Z</time>
      </trkpt>
      <trkpt lat="48.44019" lon="7.12753">
        <ele>847</ele>
        <time>2019-05-15T10:01:16.078Z</time>
      </trkpt>
      <trkpt lat="48.44019" lon="7.12751">
        <ele>846</ele>
        <time>2019-05-15T10:01:17.078Z</time>
      </trkpt>
      <trkpt lat="48.44019" lon="7.1275">
        <ele>846</ele>
        <time>2019-05-15T10:01:18.078Z</time>
      </trkpt>
      <trkpt lat="48.44018" lon="7.12748">
        <ele>847</ele>
        <time>2019-05-15T10:01:19.078Z</time>
      </trkpt>
      <trkpt lat="48.44018" lon="7.12746">
        <ele>846</ele>
        <time>2019-05-15T10:01:20.078Z</time>
      </trkpt>
      <trkpt lat="48.44018" lon="7.12744">
        <ele>846</ele>
        <time>2019-05-15T10:01:21.078Z</time>
      </trkpt>
      <trkpt lat="48.44018" lon="7.12743">
        <ele>846</ele>
        <time>2019-05-15T10:01:22.078Z</time>
      </trkpt>
      <trkpt lat="48.44018" lon="7.12741">
        <ele>846</ele>
        <time>2019-05-15T10:01:23.078Z</time>
      </trkpt>
      <trkpt lat="48.44019" lon="7.1274">
        <ele>846</ele>
        <time>2019-05-15T10:01:24.078Z</time>
      </trkpt>
      <trkpt lat="48.44019" lon="7.12739">
        <ele>846</ele>
        <time>2019-05-15T10:01:25.078Z</time>
      </trkpt>
      <trkpt lat="48.44019" lon="7.12738">
        <ele>846</ele>
        <time>2019-05-15T10:01:26.078Z</time>
      </trkpt>
      <trkpt lat="48.44018" lon="7.12738">
        <ele>846</ele>
        <time>2019-05-15T10:01:27.078Z</time>
      </trkpt>
      <trkpt lat="48.44018" lon="7.12737">
        <ele>847</ele>
        <time>2019-05-15T10:01:28.078Z</time>
      </trkpt>
      <trkpt lat="48.44018" lon="7.12736">
        <ele>847</ele>
        <time>2019-05-15T10:01:29.078Z</time>
      </trkpt>
      <trkpt lat="48.44017" lon="7.12735">
        <ele>846</ele>
        <time>2019-05-15T10:01:30.078Z</time>
      </trkpt>
      <trkpt lat="48.44017" lon="7.12735">
        <ele>846</ele>
        <time>2019-05-15T10:01:31.078Z</time>
      </trkpt>
      <trkpt lat="48.44016" lon="7.12734">
        <ele>846</ele>
        <time>2019-05-15T10:01:32.078Z</time>
      </trkpt>
      <trkpt lat="48.44016" lon="7.12734">
        <ele>847</ele>
        <time>2019-05-15T10:01:33.078Z</time>
      </trkpt>
      <trkpt lat="48.44015" lon="7.12733">
        <ele>848</ele>
        <time>2019-05-15T10:01:34.078Z</time>
      </trkpt>
      <trkpt lat="48.44015" lon="7.12732">
        <ele>848</ele>
        <time>2019-05-15T10:01:35.078Z</time>
      </trkpt>
      <trkpt lat="48.44014" lon="7.12731">
        <ele>848</ele>
        <time>2019-05-15T10:01:36.078Z</time>
      </trkpt>
      <trkpt lat="48.44014" lon="7.1273">
        <ele>847</ele>
        <time>2019-05-15T10:01:37.078Z</time>
      </trkpt>
      <trkpt lat="48.44013" lon="7.12729">
        <ele>847</ele>
        <time>2019-05-15T10:01:38.078Z</time>
      </trkpt>
      <trkpt lat="48.44013" lon="7.12728">
        <ele>847</ele>
        <time>2019-05-15T10:01:39.078Z</time>
      </trkpt>
      <trkpt lat="48.44012" lon="7.12727">
        <ele>846</ele>
        <time>2019-05-15T10:01:40.078Z</time>
      </trkpt>
      <trkpt lat="48.44012" lon="7.12726">
        <ele>847</ele>
        <time>2019-05-15T10:01:41.078Z</time>
      </trkpt>
      <trkpt lat="48.44012" lon="7.12724">
        <ele>846</ele>
        <time>2019-05-15T10:01:42.078Z</time>
      </trkpt>
      <trkpt lat="48.44012" lon="7.12723">
        <ele>846</ele>
        <time>2019-05-15T10:01:43.078Z</time>
      </trkpt>
      <trkpt lat="48.44011" lon="7.12722">
        <ele>846</ele>
        <time>2019-05-15T10:01:44.078Z</time>
      </trkpt>
      <trkpt lat="48.44011" lon="7.12722">
        <ele>846</ele>
        <time>2019-05-15T10:01:45.078Z</time>
      </trkpt>
      <trkpt lat="48.4401" lon="7.12721">
        <ele>847</ele>
        <time>2019-05-15T10:01:46.078Z</time>
      </trkpt>
      <trkpt lat="48.4401" lon="7.1272">
        <ele>846</ele>
        <time>2019-05-15T10:01:47.078Z</time>
      </trkpt>
      <trkpt lat="48.4401" lon="7.12718">
        <ele>846</ele>
        <time>2019-05-15T10:01:48.078Z</time>
      </trkpt>
      <trkpt lat="48.4401" lon="7.12717">
        <ele>846</ele>
        <time>2019-05-15T10:01:49.078Z</time>
      </trkpt>
      <trkpt lat="48.4401" lon="7.12716">
        <ele>845</ele>
        <time>2019-05-15T10:01:50.078Z</time>
      </trkpt>
      <trkpt lat="48.4401" lon="7.12715">
        <ele>844</ele>
        <time>2019-05-15T10:01:51.078Z</time>
      </trkpt>
      <trkpt lat="48.44011" lon="7.12714">
        <ele>844</ele>
        <time>2019-05-15T10:01:52.078Z</time>
      </trkpt>
      <trkpt lat="48.44011" lon="7.12713">
        <ele>844</ele>
        <time>2019-05-15T10:01:53.078Z</time>
      </trkpt>
      <trkpt lat="48.44012" lon="7.12712">
        <ele>843</ele>
        <time>2019-05-15T10:01:54.078Z</time>
      </trkpt>
      <trkpt lat="48.44012" lon="7.12712">
        <ele>844</ele>
        <time>2019-05-15T10:01:55.078Z</time>
      </trkpt>
      <trkpt lat="48.44012" lon="7.12711">
        <ele>844</ele>
        <time>2019-05-15T10:01:56.078Z</time>
      </trkpt>
      <trkpt lat="48.44012" lon="7.1271">
        <ele>845</ele>
        <time>2019-05-15T10:01:57.078Z</time>
      </trkpt>
      <trkpt lat="48.44012" lon="7.12709">
        <ele>845</ele>
        <time>2019-05-15T10:01:58.078Z</time>
      </trkpt>
      <trkpt lat="48.44012" lon="7.12708">
        <ele>845</ele>
        <time>2019-05-15T10:01:59.078Z</time>
      </trkpt>
      <trkpt lat="48.44012" lon="7.12708">
        <ele>845</ele>
        <time>2019-05-15T10:02:00.078Z</time>
      </trkpt>
      <trkpt lat="48.44012" lon="7.12707">
        <ele>844</ele>
        <time>2019-05-15T10:02:01.078Z</time>
      </trkpt>
      <trkpt lat="48.44012" lon="7.12707">
        <ele>845</ele>
        <time>2019-05-15T10:02:02.078Z</time>
      </trkpt>
      <trkpt lat="48.44012" lon="7.12706">
        <ele>845</ele>
        <time>2019-05-15T10:02:03.078Z</time>
      </trkpt>
      <trkpt lat="48.44012" lon="7.12705">
        <ele>845</ele>
        <time>2019-05-15T10:02:04.078Z</time>
      </trkpt>
      <trkpt lat="48.44012" lon="7.12704">
        <ele>846</ele>
        <time>2019-05-15T10:02:05.078Z</time>
      </trkpt>
      <trkpt lat="48.44011" lon="7.12703">
        <ele>846</ele>
        <time>2019-05-15T10:02:06.078Z</time>
      </trkpt>
      <trkpt lat="48.44011" lon="7.12702">
        <ele>846</ele>
        <time>2019-05-15T10:02:07.078Z</time>
      </trkpt>
      <trkpt lat="48.44011" lon="7.127">
        <ele>846</ele>
        <time>2019-05-15T10:02:08.078Z</time>
      </trkpt>
      <trkpt lat="48.4401" lon="7.12699">
        <ele>846</ele>
        <time>2019-05-15T10:02:09.078Z</time>
      </trkpt>
      <trkpt lat="48.4401" lon="7.12697">
        <ele>847</ele>
        <time>2019-05-15T10:02:10.078Z</time>
      </trkpt>
      <trkpt lat="48.4401" lon="7.12696">
        <ele>847</ele>
        <time>2019-05-15T10:02:11.078Z</time>
      </trkpt>
      <trkpt lat="48.44009" lon="7.12695">
        <ele>847</ele>
        <time>2019-05-15T10:02:12.078Z</time>
      </trkpt>
      <trkpt lat="48.44009" lon="7.12693">
        <ele>847</ele>
        <time>2019-05-15T10:02:13.078Z</time>
      </trkpt>
      <trkpt lat="48.44009" lon="7.12692">
        <ele>847</ele>
        <time>2019-05-15T10:02:14.078Z</time>
      </trkpt>
      <trkpt lat="48.44008" lon="7.12691">
        <ele>847</ele>
        <time>2019-05-15T10:02:15.078Z</time>
      </trkpt>
      <trkpt lat="48.44008" lon="7.1269">
        <ele>848</ele>
        <time>2019-05-15T10:02:16.078Z</time>
      </trkpt>
      <trkpt lat="48.44008" lon="7.12689">
        <ele>848</ele>
        <time>2019-05-15T10:02:17.078Z</time>
      </trkpt>
      <trkpt lat="48.44008" lon="7.12688">
        <ele>848</ele>
        <time>2019-05-15T10:02:18.078Z</time>
      </trkpt>
      <trkpt lat="48.44007" lon="7.12686">
        <ele>848</ele>
        <time>2019-05-15T10:02:19.078Z</time>
      </trkpt>
      <trkpt lat="48.44007" lon="7.12685">
        <ele>848</ele>
        <time>2019-05-15T10:02:20.078Z</time>
      </trkpt>
      <trkpt lat="48.44007" lon="7.12684">
        <ele>848</ele>
        <time>2019-05-15T10:02:21.078Z</time>
      </trkpt>
      <trkpt lat="48.44006" lon="7.12684">
        <ele>848</ele>
        <time>2019-05-15T10:02:22.078Z</time>
      </trkpt>
      <trkpt lat="48.44005" lon="7.12683">
        <ele>849</ele>
        <time>2019-05-15T10:02:23.078Z</time>
      </trkpt>
      <trkpt lat="48.44005" lon="7.12682">
        <ele>849</ele>
        <time>2019-05-15T10:02:24.078Z</time>
      </trkpt>
      <trkpt lat="48.44004" lon="7.12681">
        <ele>849</ele>
        <time>2019-05-15T10:02:25.078Z</time>
      </trkpt>
      <trkpt lat="48.44003" lon="7.1268">
        <ele>849</ele>
        <time>2019-05-15T10:02:26.078Z</time>
      </trkpt>
      <trkpt lat="48.44003" lon="7.12679">
        <ele>849</ele>
        <time>2019-05-15T10:02:27.078Z</time>
      </trkpt>
      <trkpt lat="48.44003" lon="7.12678">
        <ele>850</ele>
        <time>2019-05-15T10:02:28.078Z</time>
      </trkpt>
      <trkpt lat="48.44002" lon="7.12677">
        <ele>850</ele>
        <time>2019-05-15T10:02:29.078Z</time>
      </trkpt>
      <trkpt lat="48.44002" lon="7.12677">
        <ele>851</ele>
        <time>2019-05-15T10:02:30.078Z</time>
      </trkpt>
      <trkpt lat="48.44001" lon="7.12676">
        <ele>852</ele>
        <time>2019-05-15T10:02:31.078Z</time>
      </trkpt>
      <trkpt lat="48.44" lon="7.12675">
        <ele>851</ele>
        <time>2019-05-15T10:02:32.078Z</time>
      </trkpt>
      <trkpt lat="48.44" lon="7.12674">
        <ele>851</ele>
        <time>2019-05-15T10:02:33.078Z</time>
      </trkpt>
      <trkpt lat="48.44" lon="7.12673">
        <ele>851</ele>
        <time>2019-05-15T10:02:34.078Z</time>
      </trkpt>
      <trkpt lat="48.44" lon="7.12672">
        <ele>852</ele>
        <time>2019-05-15T10:02:35.078Z</time>
      </trkpt>
      <trkpt lat="48.44" lon="7.12671">
        <ele>853</ele>
        <time>2019-05-15T10:02:36.078Z</time>
      </trkpt>
      <trkpt lat="48.43999" lon="7.1267">
        <ele>853</ele>
        <time>2019-05-15T10:02:37.078Z</time>
      </trkpt>
      <trkpt lat="48.43999" lon="7.1267">
        <ele>854</ele>
        <time>2019-05-15T10:02:38.078Z</time>
      </trkpt>
      <trkpt lat="48.43999" lon="7.12669">
        <ele>855</ele>
        <time>2019-05-15T10:02:39.078Z</time>
      </trkpt>
      <trkpt lat="48.43999" lon="7.12668">
        <ele>855</ele>
        <time>2019-05-15T10:02:40.078Z</time>
      </trkpt>
      <trkpt lat="48.43999" lon="7.12667">
        <ele>855</ele>
        <time>2019-05-15T10:02:41.078Z</time>
      </trkpt>
      <trkpt lat="48.43999" lon="7.12666">
        <ele>855</ele>
        <time>2019-05-15T10:02:42.078Z</time>
      </trkpt>
      <trkpt lat="48.43998" lon="7.12665">
        <ele>855</ele>
        <time>2019-05-15T10:02:43.078Z</time>
      </trkpt>
      <trkpt lat="48.43998" lon="7.12664">
        <ele>855</ele>
        <time>2019-05-15T10:02:44.078Z</time>
      </trkpt>
      <trkpt lat="48.43998" lon="7.12663">
        <ele>854</ele>
        <time>2019-05-15T10:02:45.078Z</time>
      </trkpt>
      <trkpt lat="48.43997" lon="7.12663">
        <ele>854</ele>
        <time>2019-05-15T10:02:46.078Z</time>
      </trkpt>
      <trkpt lat="48.43997" lon="7.12662">
        <ele>854</ele>
        <time>2019-05-15T10:02:47.078Z</time>
      </trkpt>
      <trkpt lat="48.43997" lon="7.12661">
        <ele>854</ele>
        <time>2019-05-15T10:02:48.078Z</time>
      </trkpt>
      <trkpt lat="48.43996" lon="7.12661">
        <ele>855</ele>
        <time>2019-05-15T10:02:49.078Z</time>
      </trkpt>
      <trkpt lat="48.43996" lon="7.1266">
        <ele>854</ele>
        <time>2019-05-15T10:02:50.078Z</time>
      </trkpt>
      <trkpt lat="48.43996" lon="7.12659">
        <ele>854</ele>
        <time>2019-05-15T10:02:51.078Z</time>
      </trkpt>
      <trkpt lat="48.43996" lon="7.12658">
        <ele>854</ele>
        <time>2019-05-15T10:02:52.078Z</time>
      </trkpt>
      <trkpt lat="48.43996" lon="7.12657">
        <ele>854</ele>
        <time>2019-05-15T10:02:53.078Z</time>
      </trkpt>
      <trkpt lat="48.43996" lon="7.12656">
        <ele>853</ele>
        <time>2019-05-15T10:02:54.078Z</time>
      </trkpt>
      <trkpt lat="48.43996" lon="7.12655">
        <ele>853</ele>
        <time>2019-05-15T10:02:55.078Z</time>
      </trkpt>
      <trkpt lat="48.43996" lon="7.12654">
        <ele>852</ele>
        <time>2019-05-15T10:02:56.078Z</time>
      </trkpt>
      <trkpt lat="48.43995" lon="7.12653">
        <ele>852</ele>
        <time>2019-05-15T10:02:57.078Z</time>
      </trkpt>
      <trkpt lat="48.43995" lon="7.12652">
        <ele>851</ele>
        <time>2019-05-15T10:02:58.078Z</time>
      </trkpt>
      <trkpt lat="48.43995" lon="7.12651">
        <ele>851</ele>
        <time>2019-05-15T10:02:59.078Z</time>
      </trkpt>
      <trkpt lat="48.43994" lon="7.1265">
        <ele>851</ele>
        <time>2019-05-15T10:03:00.078Z</time>
      </trkpt>
      <trkpt lat="48.43994" lon="7.1265">
        <ele>851</ele>
        <time>2019-05-15T10:03:01.078Z</time>
      </trkpt>
      <trkpt lat="48.43993" lon="7.12649">
        <ele>851</ele>
        <time>2019-05-15T10:03:02.078Z</time>
      </trkpt>
      <trkpt lat="48.43993" lon="7.12648">
        <ele>850</ele>
        <time>2019-05-15T10:03:03.078Z</time>
      </trkpt>
      <trkpt lat="48.43993" lon="7.12646">
        <ele>849</ele>
        <time>2019-05-15T10:03:04.078Z</time>
      </trkpt>
      <trkpt lat="48.43993" lon="7.12645">
        <ele>848</ele>
        <time>2019-05-15T10:03:05.078Z</time>
      </trkpt>
      <trkpt lat="48.43993" lon="7.12644">
        <ele>847</ele>
        <time>2019-05-15T10:03:06.078Z</time>
      </trkpt>
      <trkpt lat="48.43993" lon="7.12643">
        <ele>846</ele>
        <time>2019-05-15T10:03:07.078Z</time>
      </trkpt>
      <trkpt lat="48.43993" lon="7.12642">
        <ele>847</ele>
        <time>2019-05-15T10:03:08.078Z</time>
      </trkpt>
      <trkpt lat="48.43993" lon="7.12641">
        <ele>846</ele>
        <time>2019-05-15T10:03:09.078Z</time>
      </trkpt>
      <trkpt lat="48.43993" lon="7.1264">
        <ele>844</ele>
        <time>2019-05-15T10:03:10.078Z</time>
      </trkpt>
      <trkpt lat="48.43994" lon="7.12638">
        <ele>843</ele>
        <time>2019-05-15T10:03:11.078Z</time>
      </trkpt>
      <trkpt lat="48.43994" lon="7.12637">
        <ele>841</ele>
        <time>2019-05-15T10:03:12.078Z</time>
      </trkpt>
      <trkpt lat="48.43995" lon="7.12635">
        <ele>840</ele>
        <time>2019-05-15T10:03:13.078Z</time>
      </trkpt>
      <trkpt lat="48.43995" lon="7.12634">
        <ele>839</ele>
        <time>2019-05-15T10:03:14.078Z</time>
      </trkpt>
      <trkpt lat="48.43996" lon="7.12634">
        <ele>838</ele>
        <time>2019-05-15T10:03:15.078Z</time>
      </trkpt>
      <trkpt lat="48.43996" lon="7.12633">
        <ele>838</ele>
        <time>2019-05-15T10:03:16.078Z</time>
      </trkpt>
      <trkpt lat="48.43996" lon="7.12632">
        <ele>837</ele>
        <time>2019-05-15T10:03:17.078Z</time>
      </trkpt>
      <trkpt lat="48.43996" lon="7.12632">
        <ele>837</ele>
        <time>2019-05-15T10:03:18.078Z</time>
      </trkpt>
      <trkpt lat="48.43996" lon="7.12631">
        <ele>837</ele>
        <time>2019-05-15T10:03:19.078Z</time>
      </trkpt>
      <trkpt lat="48.43996" lon="7.1263">
        <ele>837</ele>
        <time>2019-05-15T10:03:20.078Z</time>
      </trkpt>
      <trkpt lat="48.43996" lon="7.12629">
        <ele>837</ele>
        <time>2019-05-15T10:03:21.078Z</time>
      </trkpt>
      <trkpt lat="48.43996" lon="7.12629">
        <ele>837</ele>
        <time>2019-05-15T10:03:22.078Z</time>
      </trkpt>
      <trkpt lat="48.43996" lon="7.12628">
        <ele>837</ele>
        <time>2019-05-15T10:03:23.078Z</time>
      </trkpt>
      <trkpt lat="48.43996" lon="7.12627">
        <ele>838</ele>
        <time>2019-05-15T10:03:24.078Z</time>
      </trkpt>
      <trkpt lat="48.43996" lon="7.12626">
        <ele>838</ele>
        <time>2019-05-15T10:03:25.078Z</time>
      </trkpt>
      <trkpt lat="48.43995" lon="7.12625">
        <ele>838</ele>
        <time>2019-05-15T10:03:26.078Z</time>
      </trkpt>
      <trkpt lat="48.43995" lon="7.12624">
        <ele>839</ele>
        <time>2019-05-15T10:03:27.078Z</time>
      </trkpt>
      <trkpt lat="48.43995" lon="7.12624">
        <ele>840</ele>
        <time>2019-05-15T10:03:28.078Z</time>
      </trkpt>
      <trkpt lat="48.43995" lon="7.12623">
        <ele>840</ele>
        <time>2019-05-15T10:03:29.078Z</time>
      </trkpt>
      <trkpt lat="48.43995" lon="7.12622">
        <ele>840</ele>
        <time>2019-05-15T10:03:30.078Z</time>
      </trkpt>
      <trkpt lat="48.43995" lon="7.12621">
        <ele>840</ele>
        <time>2019-05-15T10:03:31.078Z</time>
      </trkpt>
      <trkpt lat="48.43995" lon="7.1262">
        <ele>840</ele>
        <time>2019-05-15T10:03:32.078Z</time>
      </trkpt>
      <trkpt lat="48.43995" lon="7.12619">
        <ele>840</ele>
        <time>2019-05-15T10:03:33.078Z</time>
      </trkpt>
      <trkpt lat="48.43995" lon="7.12619">
        <ele>840</ele>
        <time>2019-05-15T10:03:34.078Z</time>
      </trkpt>
      <trkpt lat="48.43995" lon="7.12618">
        <ele>840</ele>
        <time>2019-05-15T10:03:35.078Z</time>
      </trkpt>
      <trkpt lat="48.43995" lon="7.12618">
        <ele>840</ele>
        <time>2019-05-15T10:03:36.078Z</time>
      </trkpt>
      <trkpt lat="48.43995" lon="7.12618">
        <ele>841</ele>
        <time>2019-05-15T10:03:37.078Z</time>
      </trkpt>
      <trkpt lat="48.43995" lon="7.12618">
        <ele>841</ele>
        <time>2019-05-15T10:03:38.078Z</time>
      </trkpt>
      <trkpt lat="48.43995" lon="7.12617">
        <ele>842</ele>
        <time>2019-05-15T10:03:39.078Z</time>
      </trkpt>
      <trkpt lat="48.43995" lon="7.12616">
        <ele>842</ele>
        <time>2019-05-15T10:03:40.078Z</time>
      </trkpt>
      <trkpt lat="48.43994" lon="7.12615">
        <ele>842</ele>
        <time>2019-05-15T10:03:41.078Z</time>
      </trkpt>
      <trkpt lat="48.43994" lon="7.12615">
        <ele>842</ele>
        <time>2019-05-15T10:03:42.078Z</time>
      </trkpt>
      <trkpt lat="48.43994" lon="7.12614">
        <ele>842</ele>
        <time>2019-05-15T10:03:43.078Z</time>
      </trkpt>
      <trkpt lat="48.43994" lon="7.12614">
        <ele>842</ele>
        <time>2019-05-15T10:03:44.078Z</time>
      </trkpt>
      <trkpt lat="48.43993" lon="7.12613">
        <ele>842</ele>
        <time>2019-05-15T10:03:45.078Z</time>
      </trkpt>
      <trkpt lat="48.43993" lon="7.12613">
        <ele>843</ele>
        <time>2019-05-15T10:03:46.078Z</time>
      </trkpt>
      <trkpt lat="48.43993" lon="7.12613">
        <ele>843</ele>
        <time>2019-05-15T10:03:47.078Z</time>
      </trkpt>
      <trkpt lat="48.43992" lon="7.12613">
        <ele>843</ele>
        <time>2019-05-15T10:03:48.078Z</time>
      </trkpt>
      <trkpt lat="48.43992" lon="7.12612">
        <ele>843</ele>
        <time>2019-05-15T10:03:49.078Z</time>
      </trkpt>
      <trkpt lat="48.43991" lon="7.12611">
        <ele>843</ele>
        <time>2019-05-15T10:03:50.078Z</time>
      </trkpt>
      <trkpt lat="48.43991" lon="7.1261">
        <ele>843</ele>
        <time>2019-05-15T10:03:51.078Z</time>
      </trkpt>
      <trkpt lat="48.43991" lon="7.12609">
        <ele>842</ele>
        <time>2019-05-15T10:03:52.078Z</time>
      </trkpt>
      <trkpt lat="48.43991" lon="7.12608">
        <ele>843</ele>
        <time>2019-05-15T10:03:53.078Z</time>
      </trkpt>
      <trkpt lat="48.43991" lon="7.12607">
        <ele>842</ele>
        <time>2019-05-15T10:03:54.078Z</time>
      </trkpt>
      <trkpt lat="48.43991" lon="7.12607">
        <ele>842</ele>
        <time>2019-05-15T10:03:55.078Z</time>
      </trkpt>
      <trkpt lat="48.43991" lon="7.12606">
        <ele>843</ele>
        <time>2019-05-15T10:03:56.078Z</time>
      </trkpt>
      <trkpt lat="48.43991" lon="7.12606">
        <ele>842</ele>
        <time>2019-05-15T10:03:57.078Z</time>
      </trkpt>
      <trkpt lat="48.43991" lon="7.12605">
        <ele>842</ele>
        <time>2019-05-15T10:03:58.078Z</time>
      </trkpt>
      <trkpt lat="48.43991" lon="7.12605">
        <ele>842</ele>
        <time>2019-05-15T10:03:59.078Z</time>
      </trkpt>
      <trkpt lat="48.4399" lon="7.12605">
        <ele>842</ele>
        <time>2019-05-15T10:04:00.078Z</time>
      </trkpt>
      <trkpt lat="48.4399" lon="7.12604">
        <ele>842</ele>
        <time>2019-05-15T10:04:01.078Z</time>
      </trkpt>
      <trkpt lat="48.4399" lon="7.12604">
        <ele>842</ele>
        <time>2019-05-15T10:04:02.078Z</time>
      </trkpt>
      <trkpt lat="48.43989" lon="7.12603">
        <ele>843</ele>
        <time>2019-05-15T10:04:03.078Z</time>
      </trkpt>
      <trkpt lat="48.43989" lon="7.12601">
        <ele>843</ele>
        <time>2019-05-15T10:04:04.078Z</time>
      </trkpt>
      <trkpt lat="48.43988" lon="7.126">
        <ele>843</ele>
        <time>2019-05-15T10:04:05.078Z</time>
      </trkpt>
      <trkpt lat="48.43988" lon="7.12599">
        <ele>843</ele>
        <time>2019-05-15T10:04:06.078Z</time>
      </trkpt>
      <trkpt lat="48.43987" lon="7.12598">
        <ele>842</ele>
        <time>2019-05-15T10:04:07.078Z</time>
      </trkpt>
      <trkpt lat="48.43987" lon="7.12597">
        <ele>842</ele>
        <time>2019-05-15T10:04:08.078Z</time>
      </trkpt>
      <trkpt lat="48.43986" lon="7.12596">
        <ele>842</ele>
        <time>2019-05-15T10:04:09.078Z</time>
      </trkpt>
      <trkpt lat="48.43986" lon="7.12595">
        <ele>842</ele>
        <time>2019-05-15T10:04:10.078Z</time>
      </trkpt>
      <trkpt lat="48.43986" lon="7.12595">
        <ele>841</ele>
        <time>2019-05-15T10:04:11.078Z</time>
      </trkpt>
      <trkpt lat="48.43986" lon="7.12594">
        <ele>842</ele>
        <time>2019-05-15T10:04:12.078Z</time>
      </trkpt>
      <trkpt lat="48.43985" lon="7.12594">
        <ele>841</ele>
        <time>2019-05-15T10:04:13.078Z</time>
      </trkpt>
      <trkpt lat="48.43986" lon="7.12593">
        <ele>839</ele>
        <time>2019-05-15T10:04:14.078Z</time>
      </trkpt>
      <trkpt lat="48.43987" lon="7.12592">
        <ele>838</ele>
        <time>2019-05-15T10:04:15.078Z</time>
      </trkpt>
      <trkpt lat="48.43987" lon="7.12591">
        <ele>838</ele>
        <time>2019-05-15T10:04:16.078Z</time>
      </trkpt>
      <trkpt lat="48.43987" lon="7.1259">
        <ele>838</ele>
        <time>2019-05-15T10:04:17.078Z</time>
      </trkpt>
      <trkpt lat="48.43986" lon="7.12589">
        <ele>838</ele>
        <time>2019-05-15T10:04:18.078Z</time>
      </trkpt>
      <trkpt lat="48.43986" lon="7.12588">
        <ele>837</ele>
        <time>2019-05-15T10:04:19.078Z</time>
      </trkpt>
      <trkpt lat="48.43986" lon="7.12587">
        <ele>837</ele>
        <time>2019-05-15T10:04:20.078Z</time>
      </trkpt>
      <trkpt lat="48.43985" lon="7.12586">
        <ele>837</ele>
        <time>2019-05-15T10:04:21.078Z</time>
      </trkpt>
      <trkpt lat="48.43985" lon="7.12585">
        <ele>837</ele>
        <time>2019-05-15T10:04:22.078Z</time>
      </trkpt>
      <trkpt lat="48.43985" lon="7.12584">
        <ele>837</ele>
        <time>2019-05-15T10:04:23.078Z</time>
      </trkpt>
      <trkpt lat="48.43985" lon="7.12583">
        <ele>837</ele>
        <time>2019-05-15T10:04:24.078Z</time>
      </trkpt>
      <trkpt lat="48.43985" lon="7.12582">
        <ele>838</ele>
        <time>2019-05-15T10:04:25.078Z</time>
      </trkpt>
      <trkpt lat="48.43984" lon="7.12581">
        <ele>838</ele>
        <time>2019-05-15T10:04:26.078Z</time>
      </trkpt>
      <trkpt lat="48.43984" lon="7.1258">
        <ele>838</ele>
        <time>2019-05-15T10:04:27.078Z</time>
      </trkpt>
      <trkpt lat="48.43984" lon="7.12579">
        <ele>838</ele>
        <time>2019-05-15T10:04:28.078Z</time>
      </trkpt>
      <trkpt lat="48.43983" lon="7.12578">
        <ele>837</ele>
        <time>2019-05-15T10:04:29.078Z</time>
      </trkpt>
      <trkpt lat="48.43983" lon="7.12577">
        <ele>837</ele>
        <time>2019-05-15T10:04:30.078Z</time>
      </trkpt>
      <trkpt lat="48.43982" lon="7.12576">
        <ele>837</ele>
        <time>2019-05-15T10:04:31.078Z</time>
      </trkpt>
      <trkpt lat="48.43981" lon="7.12575">
        <ele>838</ele>
        <time>2019-05-15T10:04:32.078Z</time>
      </trkpt>
      <trkpt lat="48.43981" lon="7.12573">
        <ele>839</ele>
        <time>2019-05-15T10:04:33.078Z</time>
      </trkpt>
      <trkpt lat="48.4398" lon="7.12572">
        <ele>839</ele>
        <time>2019-05-15T10:04:34.078Z</time>
      </trkpt>
      <trkpt lat="48.43979" lon="7.12571">
        <ele>839</ele>
        <time>2019-05-15T10:04:35.078Z</time>
      </trkpt>
      <trkpt lat="48.43979" lon="7.1257">
        <ele>839</ele>
        <time>2019-05-15T10:04:36.078Z</time>
      </trkpt>
      <trkpt lat="48.43979" lon="7.12568">
        <ele>839</ele>
        <time>2019-05-15T10:04:37.078Z</time>
      </trkpt>
      <trkpt lat="48.43979" lon="7.12567">
        <ele>838</ele>
        <time>2019-05-15T10:04:38.078Z</time>
      </trkpt>
      <trkpt lat="48.43979" lon="7.12566">
        <ele>839</ele>
        <time>2019-05-15T10:04:39.078Z</time>
      </trkpt>
      <trkpt lat="48.43978" lon="7.12565">
        <ele>839</ele>
        <time>2019-05-15T10:04:40.078Z</time>
      </trkpt>
      <trkpt lat="48.43978" lon="7.12565">
        <ele>838</ele>
        <time>2019-05-15T10:04:41.078Z</time>
      </trkpt>
      <trkpt lat="48.43977" lon="7.12564">
        <ele>838</ele>
        <time>2019-05-15T10:04:42.078Z</time>
      </trkpt>
      <trkpt lat="48.43977" lon="7.12563">
        <ele>837</ele>
        <time>2019-05-15T10:04:43.078Z</time>
      </trkpt>
      <trkpt lat="48.43977" lon="7.12562">
        <ele>837</ele>
        <time>2019-05-15T10:04:44.078Z</time>
      </trkpt>
      <trkpt lat="48.43977" lon="7.12561">
        <ele>837</ele>
        <time>2019-05-15T10:04:45.078Z</time>
      </trkpt>
      <trkpt lat="48.43977" lon="7.12559">
        <ele>837</ele>
        <time>2019-05-15T10:04:46.078Z</time>
      </trkpt>
      <trkpt lat="48.43976" lon="7.12558">
        <ele>837</ele>
        <time>2019-05-15T10:04:47.078Z</time>
      </trkpt>
      <trkpt lat="48.43976" lon="7.12557">
        <ele>837</ele>
        <time>2019-05-15T10:04:48.078Z</time>
      </trkpt>
      <trkpt lat="48.43975" lon="7.12556">
        <ele>837</ele>
        <time>2019-05-15T10:04:49.078Z</time>
      </trkpt>
      <trkpt lat="48.43975" lon="7.12555">
        <ele>837</ele>
        <time>2019-05-15T10:04:50.078Z</time>
      </trkpt>
      <trkpt lat="48.43975" lon="7.12555">
        <ele>838</ele>
        <time>2019-05-15T10:04:51.078Z</time>
      </trkpt>
      <trkpt lat="48.43974" lon="7.12554">
        <ele>838</ele>
        <time>2019-05-15T10:04:52.078Z</time>
      </trkpt>
      <trkpt lat="48.43974" lon="7.12554">
        <ele>839</ele>
        <time>2019-05-15T10:04:53.078Z</time>
      </trkpt>
      <trkpt lat="48.43973" lon="7.12553">
        <ele>839</ele>
        <time>2019-05-15T10:04:54.078Z</time>
      </trkpt>
      <trkpt lat="48.43973" lon="7.12553">
        <ele>838</ele>
        <time>2019-05-15T10:04:55.078Z</time>
      </trkpt>
      <trkpt lat="48.43973" lon="7.12552">
        <ele>838</ele>
        <time>2019-05-15T10:04:56.078Z</time>
      </trkpt>
      <trkpt lat="48.43973" lon="7.12552">
        <ele>837</ele>
        <time>2019-05-15T10:04:57.078Z</time>
      </trkpt>
      <trkpt lat="48.43973" lon="7.12551">
        <ele>838</ele>
        <time>2019-05-15T10:04:58.078Z</time>
      </trkpt>
      <trkpt lat="48.43972" lon="7.12551">
        <ele>838</ele>
        <time>2019-05-15T10:04:59.078Z</time>
      </trkpt>
      <trkpt lat="48.43972" lon="7.12551">
        <ele>838</ele>
        <time>2019-05-15T10:05:00.078Z</time>
      </trkpt>
      <trkpt lat="48.43972" lon="7.12551">
        <ele>839</ele>
        <time>2019-05-15T10:05:01.078Z</time>
      </trkpt>
      <trkpt lat="48.43972" lon="7.12551">
        <ele>839</ele>
        <time>2019-05-15T10:05:02.078Z</time>
      </trkpt>
      <trkpt lat="48.43972" lon="7.12551">
        <ele>839</ele>
        <time>2019-05-15T10:05:03.078Z</time>
      </trkpt>
      <trkpt lat="48.43971" lon="7.1255">
        <ele>839</ele>
        <time>2019-05-15T10:05:04.078Z</time>
      </trkpt>
      <trkpt lat="48.43971" lon="7.1255">
        <ele>838</ele>
        <time>2019-05-15T10:05:05.078Z</time>
      </trkpt>
      <trkpt lat="48.43971" lon="7.12549">
        <ele>837</ele>
        <time>2019-05-15T10:05:06.078Z</time>
      </trkpt>
      <trkpt lat="48.43971" lon="7.12549">
        <ele>837</ele>
        <time>2019-05-15T10:05:07.078Z</time>
      </trkpt>
      <trkpt lat="48.43971" lon="7.12549">
        <ele>836</ele>
        <time>2019-05-15T10:05:08.078Z</time>
      </trkpt>
      <trkpt lat="48.43971" lon="7.12549">
        <ele>836</ele>
        <time>2019-05-15T10:05:09.078Z</time>
      </trkpt>
      <trkpt lat="48.43971" lon="7.12549">
        <ele>836</ele>
        <time>2019-05-15T10:05:10.078Z</time>
      </trkpt>
      <trkpt lat="48.43971" lon="7.12548">
        <ele>836</ele>
        <time>2019-05-15T10:05:11.078Z</time>
      </trkpt>
      <trkpt lat="48.43971" lon="7.12548">
        <ele>836</ele>
        <time>2019-05-15T10:05:12.078Z</time>
      </trkpt>
      <trkpt lat="48.43971" lon="7.12547">
        <ele>836</ele>
        <time>2019-05-15T10:05:13.078Z</time>
      </trkpt>
      <trkpt lat="48.43971" lon="7.12547">
        <ele>836</ele>
        <time>2019-05-15T10:05:14.078Z</time>
      </trkpt>
      <trkpt lat="48.43971" lon="7.12546">
        <ele>836</ele>
        <time>2019-05-15T10:05:15.078Z</time>
      </trkpt>
      <trkpt lat="48.43971" lon="7.12546">
        <ele>835</ele>
        <time>2019-05-15T10:05:16.078Z</time>
      </trkpt>
      <trkpt lat="48.43971" lon="7.12545">
        <ele>835</ele>
        <time>2019-05-15T10:05:17.078Z</time>
      </trkpt>
      <trkpt lat="48.4397" lon="7.12545">
        <ele>835</ele>
        <time>2019-05-15T10:05:18.078Z</time>
      </trkpt>
      <trkpt lat="48.4397" lon="7.12544">
        <ele>835</ele>
        <time>2019-05-15T10:05:19.078Z</time>
      </trkpt>
      <trkpt lat="48.4397" lon="7.12544">
        <ele>835</ele>
        <time>2019-05-15T10:05:20.078Z</time>
      </trkpt>
      <trkpt lat="48.4397" lon="7.12543">
        <ele>835</ele>
        <time>2019-05-15T10:05:21.078Z</time>
      </trkpt>
      <trkpt lat="48.4397" lon="7.12543">
        <ele>835</ele>
        <time>2019-05-15T10:05:22.078Z</time>
      </trkpt>
      <trkpt lat="48.4397" lon="7.12542">
        <ele>835</ele>
        <time>2019-05-15T10:05:23.078Z</time>
      </trkpt>
      <trkpt lat="48.4397" lon="7.12542">
        <ele>835</ele>
        <time>2019-05-15T10:05:24.078Z</time>
      </trkpt>
      <trkpt lat="48.43969" lon="7.12541">
        <ele>835</ele>
        <time>2019-05-15T10:05:25.078Z</time>
      </trkpt>
      <trkpt lat="48.43969" lon="7.12541">
        <ele>835</ele>
        <time>2019-05-15T10:05:26.078Z</time>
      </trkpt>
      <trkpt lat="48.43969" lon="7.1254">
        <ele>835</ele>
        <time>2019-05-15T10:05:27.078Z</time>
      </trkpt>
      <trkpt lat="48.43969" lon="7.12539">
        <ele>834</ele>
        <time>2019-05-15T10:05:28.078Z</time>
      </trkpt>
      <trkpt lat="48.43969" lon="7.12539">
        <ele>834</ele>
        <time>2019-05-15T10:05:29.078Z</time>
      </trkpt>
      <trkpt lat="48.43969" lon="7.12538">
        <ele>834</ele>
        <time>2019-05-15T10:05:30.078Z</time>
      </trkpt>
      <trkpt lat="48.43968" lon="7.12538">
        <ele>833</ele>
        <time>2019-05-15T10:05:31.078Z</time>
      </trkpt>
      <trkpt lat="48.43968" lon="7.12537">
        <ele>835</ele>
        <time>2019-05-15T10:05:32.078Z</time>
      </trkpt>
      <trkpt lat="48.43968" lon="7.12536">
        <ele>835</ele>
        <time>2019-05-15T10:05:33.078Z</time>
      </trkpt>
      <trkpt lat="48.43968" lon="7.12536">
        <ele>835</ele>
        <time>2019-05-15T10:05:34.078Z</time>
      </trkpt>
      <trkpt lat="48.43968" lon="7.12536">
        <ele>836</ele>
        <time>2019-05-15T10:05:35.078Z</time>
      </trkpt>
      <trkpt lat="48.43967" lon="7.12536">
        <ele>836</ele>
        <time>2019-05-15T10:05:36.078Z</time>
      </trkpt>
      <trkpt lat="48.43967" lon="7.12536">
        <ele>837</ele>
        <time>2019-05-15T10:05:37.078Z</time>
      </trkpt>
      <trkpt lat="48.43967" lon="7.12537">
        <ele>837</ele>
        <time>2019-05-15T10:05:38.078Z</time>
      </trkpt>
      <trkpt lat="48.43967" lon="7.12537">
        <ele>837</ele>
        <time>2019-05-15T10:05:39.078Z</time>
      </trkpt>
      <trkpt lat="48.43967" lon="7.12537">
        <ele>837</ele>
        <time>2019-05-15T10:05:40.078Z</time>
      </trkpt>
      <trkpt lat="48.43967" lon="7.12537">
        <ele>837</ele>
        <time>2019-05-15T10:05:41.078Z</time>
      </trkpt>
      <trkpt lat="48.43967" lon="7.12537">
        <ele>837</ele>
        <time>2019-05-15T10:05:42.078Z</time>
      </trkpt>
      <trkpt lat="48.43967" lon="7.12536">
        <ele>837</ele>
        <time>2019-05-15T10:05:43.078Z</time>
      </trkpt>
      <trkpt lat="48.43967" lon="7.12536">
        <ele>837</ele>
        <time>2019-05-15T10:05:44.078Z</time>
      </trkpt>
      <trkpt lat="48.43967" lon="7.12536">
        <ele>836</ele>
        <time>2019-05-15T10:05:45.078Z</time>
      </trkpt>
      <trkpt lat="48.43967" lon="7.12535">
        <ele>836</ele>
        <time>2019-05-15T10:05:46.078Z</time>
      </trkpt>
      <trkpt lat="48.43967" lon="7.12535">
        <ele>836</ele>
        <time>2019-05-15T10:05:47.078Z</time>
      </trkpt>
      <trkpt lat="48.43967" lon="7.12535">
        <ele>836</ele>
        <time>2019-05-15T10:05:48.078Z</time>
      </trkpt>
      <trkpt lat="48.43967" lon="7.12534">
        <ele>836</ele>
        <time>2019-05-15T10:05:49.078Z</time>
      </trkpt>
      <trkpt lat="48.43967" lon="7.12534">
        <ele>835</ele>
        <time>2019-05-15T10:05:50.078Z</time>
      </trkpt>
      <trkpt lat="48.43967" lon="7.12534">
        <ele>836</ele>
        <time>2019-05-15T10:05:51.078Z</time>
      </trkpt>
      <trkpt lat="48.43967" lon="7.12533">
        <ele>836</ele>
        <time>2019-05-15T10:05:52.078Z</time>
      </trkpt>
      <trkpt lat="48.43967" lon="7.12533">
        <ele>837</ele>
        <time>2019-05-15T10:05:53.078Z</time>
      </trkpt>
      <trkpt lat="48.43967" lon="7.12533">
        <ele>837</ele>
        <time>2019-05-15T10:05:54.078Z</time>
      </trkpt>
      <trkpt lat="48.43967" lon="7.12533">
        <ele>838</ele>
        <time>2019-05-15T10:05:55.078Z</time>
      </trkpt>
      <trkpt lat="48.43967" lon="7.12533">
        <ele>839</ele>
        <time>2019-05-15T10:05:56.078Z</time>
      </trkpt>
      <trkpt lat="48.43967" lon="7.12532">
        <ele>839</ele>
        <time>2019-05-15T10:05:57.078Z</time>
      </trkpt>
      <trkpt lat="48.43967" lon="7.12532">
        <ele>840</ele>
        <time>2019-05-15T10:05:58.078Z</time>
      </trkpt>
      <trkpt lat="48.43967" lon="7.12532">
        <ele>840</ele>
        <time>2019-05-15T10:05:59.078Z</time>
      </trkpt>
      <trkpt lat="48.43967" lon="7.12533">
        <ele>839</ele>
        <time>2019-05-15T10:06:00.078Z</time>
      </trkpt>
      <trkpt lat="48.43967" lon="7.12533">
        <ele>839</ele>
        <time>2019-05-15T10:06:01.078Z</time>
      </trkpt>
      <trkpt lat="48.43966" lon="7.12533">
        <ele>839</ele>
        <time>2019-05-15T10:06:02.078Z</time>
      </trkpt>
      <trkpt lat="48.43966" lon="7.12533">
        <ele>838</ele>
        <time>2019-05-15T10:06:03.078Z</time>
      </trkpt>
      <trkpt lat="48.43966" lon="7.12532">
        <ele>837</ele>
        <time>2019-05-15T10:06:04.078Z</time>
      </trkpt>
      <trkpt lat="48.43965" lon="7.12532">
        <ele>838</ele>
        <time>2019-05-15T10:06:05.078Z</time>
      </trkpt>
      <trkpt lat="48.43965" lon="7.12532">
        <ele>837</ele>
        <time>2019-05-15T10:06:06.078Z</time>
      </trkpt>
      <trkpt lat="48.43964" lon="7.12531">
        <ele>837</ele>
        <time>2019-05-15T10:06:07.078Z</time>
      </trkpt>
      <trkpt lat="48.43964" lon="7.12529">
        <ele>837</ele>
        <time>2019-05-15T10:06:08.078Z</time>
      </trkpt>
      <trkpt lat="48.43964" lon="7.12528">
        <ele>836</ele>
        <time>2019-05-15T10:06:09.078Z</time>
      </trkpt>
      <trkpt lat="48.43963" lon="7.12526">
        <ele>836</ele>
        <time>2019-05-15T10:06:10.078Z</time>
      </trkpt>
      <trkpt lat="48.43963" lon="7.12524">
        <ele>836</ele>
        <time>2019-05-15T10:06:11.078Z</time>
      </trkpt>
      <trkpt lat="48.43963" lon="7.12523">
        <ele>835</ele>
        <time>2019-05-15T10:06:12.078Z</time>
      </trkpt>
      <trkpt lat="48.43963" lon="7.12522">
        <ele>835</ele>
        <time>2019-05-15T10:06:13.078Z</time>
      </trkpt>
      <trkpt lat="48.43963" lon="7.1252">
        <ele>836</ele>
        <time>2019-05-15T10:06:14.078Z</time>
      </trkpt>
      <trkpt lat="48.43963" lon="7.12519">
        <ele>836</ele>
        <time>2019-05-15T10:06:15.078Z</time>
      </trkpt>
      <trkpt lat="48.43963" lon="7.12518">
        <ele>836</ele>
        <time>2019-05-15T10:06:16.078Z</time>
      </trkpt>
      <trkpt lat="48.43962" lon="7.12517">
        <ele>836</ele>
        <time>2019-05-15T10:06:17.078Z</time>
      </trkpt>
      <trkpt lat="48.43962" lon="7.12516">
        <ele>836</ele>
        <time>2019-05-15T10:06:18.078Z</time>
      </trkpt>
      <trkpt lat="48.43962" lon="7.12514">
        <ele>836</ele>
        <time>2019-05-15T10:06:19.078Z</time>
      </trkpt>
      <trkpt lat="48.43962" lon="7.12513">
        <ele>836</ele>
        <time>2019-05-15T10:06:20.078Z</time>
      </trkpt>
      <trkpt lat="48.43961" lon="7.12512">
        <ele>835</ele>
        <time>2019-05-15T10:06:21.078Z</time>
      </trkpt>
      <trkpt lat="48.43961" lon="7.12511">
        <ele>835</ele>
        <time>2019-05-15T10:06:22.078Z</time>
      </trkpt>
      <trkpt lat="48.4396" lon="7.1251">
        <ele>835</ele>
        <time>2019-05-15T10:06:23.078Z</time>
      </trkpt>
      <trkpt lat="48.4396" lon="7.12509">
        <ele>834</ele>
        <time>2019-05-15T10:06:24.078Z</time>
      </trkpt>
      <trkpt lat="48.4396" lon="7.12508">
        <ele>834</ele>
        <time>2019-05-15T10:06:25.078Z</time>
      </trkpt>
      <trkpt lat="48.43959" lon="7.12508">
        <ele>834</ele>
        <time>2019-05-15T10:06:26.078Z</time>
      </trkpt>
      <trkpt lat="48.43958" lon="7.12507">
        <ele>834</ele>
        <time>2019-05-15T10:06:27.078Z</time>
      </trkpt>
      <trkpt lat="48.43958" lon="7.12507">
        <ele>834</ele>
        <time>2019-05-15T10:06:28.078Z</time>
      </trkpt>
      <trkpt lat="48.43958" lon="7.12506">
        <ele>834</ele>
        <time>2019-05-15T10:06:29.078Z</time>
      </trkpt>
      <trkpt lat="48.43958" lon="7.12506">
        <ele>832</ele>
        <time>2019-05-15T10:06:30.078Z</time>
      </trkpt>
      <trkpt lat="48.43957" lon="7.12506">
        <ele>832</ele>
        <time>2019-05-15T10:06:31.078Z</time>
      </trkpt>
      <trkpt lat="48.43957" lon="7.12505">
        <ele>832</ele>
        <time>2019-05-15T10:06:32.078Z</time>
      </trkpt>
      <trkpt lat="48.43957" lon="7.12505">
        <ele>831</ele>
        <time>2019-05-15T10:06:33.078Z</time>
      </trkpt>
      <trkpt lat="48.43957" lon="7.12504">
        <ele>831</ele>
        <time>2019-05-15T10:06:34.078Z</time>
      </trkpt>
      <trkpt lat="48.43957" lon="7.12503">
        <ele>830</ele>
        <time>2019-05-15T10:06:35.078Z</time>
      </trkpt>
      <trkpt lat="48.43957" lon="7.12503">
        <ele>828</ele>
        <time>2019-05-15T10:06:36.078Z</time>
      </trkpt>
      <trkpt lat="48.43958" lon="7.12502">
        <ele>828</ele>
        <time>2019-05-15T10:06:37.078Z</time>
      </trkpt>
      <trkpt lat="48.43958" lon="7.12502">
        <ele>827</ele>
        <time>2019-05-15T10:06:38.078Z</time>
      </trkpt>
      <trkpt lat="48.43958" lon="7.12501">
        <ele>826</ele>
        <time>2019-05-15T10:06:39.078Z</time>
      </trkpt>
      <trkpt lat="48.43959" lon="7.12501">
        <ele>825</ele>
        <time>2019-05-15T10:06:40.078Z</time>
      </trkpt>
      <trkpt lat="48.43959" lon="7.12501">
        <ele>825</ele>
        <time>2019-05-15T10:06:41.078Z</time>
      </trkpt>
      <trkpt lat="48.43959" lon="7.12501">
        <ele>824</ele>
        <time>2019-05-15T10:06:42.078Z</time>
      </trkpt>
      <trkpt lat="48.43959" lon="7.125">
        <ele>824</ele>
        <time>2019-05-15T10:06:43.078Z</time>
      </trkpt>
      <trkpt lat="48.4396" lon="7.125">
        <ele>825</ele>
        <time>2019-05-15T10:06:44.078Z</time>
      </trkpt>
      <trkpt lat="48.4396" lon="7.125">
        <ele>824</ele>
        <time>2019-05-15T10:06:45.078Z</time>
      </trkpt>
      <trkpt lat="48.43961" lon="7.125">
        <ele>825</ele>
        <time>2019-05-15T10:06:46.078Z</time>
      </trkpt>
      <trkpt lat="48.43962" lon="7.125">
        <ele>826</ele>
        <time>2019-05-15T10:06:47.078Z</time>
      </trkpt>
      <trkpt lat="48.43962" lon="7.12499">
        <ele>826</ele>
        <time>2019-05-15T10:06:48.078Z</time>
      </trkpt>
      <trkpt lat="48.43962" lon="7.12498">
        <ele>827</ele>
        <time>2019-05-15T10:06:49.078Z</time>
      </trkpt>
      <trkpt lat="48.43962" lon="7.12497">
        <ele>827</ele>
        <time>2019-05-15T10:06:50.078Z</time>
      </trkpt>
      <trkpt lat="48.43962" lon="7.12496">
        <ele>827</ele>
        <time>2019-05-15T10:06:51.078Z</time>
      </trkpt>
      <trkpt lat="48.43962" lon="7.12495">
        <ele>827</ele>
        <time>2019-05-15T10:06:52.078Z</time>
      </trkpt>
      <trkpt lat="48.43962" lon="7.12494">
        <ele>828</ele>
        <time>2019-05-15T10:06:53.078Z</time>
      </trkpt>
      <trkpt lat="48.43961" lon="7.12492">
        <ele>828</ele>
        <time>2019-05-15T10:06:54.078Z</time>
      </trkpt>
      <trkpt lat="48.43961" lon="7.12491">
        <ele>828</ele>
        <time>2019-05-15T10:06:55.078Z</time>
      </trkpt>
      <trkpt lat="48.43961" lon="7.12489">
        <ele>828</ele>
        <time>2019-05-15T10:06:56.078Z</time>
      </trkpt>
      <trkpt lat="48.43961" lon="7.12487">
        <ele>828</ele>
        <time>2019-05-15T10:06:57.078Z</time>
      </trkpt>
      <trkpt lat="48.4396" lon="7.12486">
        <ele>828</ele>
        <time>2019-05-15T10:06:58.078Z</time>
      </trkpt>
      <trkpt lat="48.4396" lon="7.12484">
        <ele>829</ele>
        <time>2019-05-15T10:06:59.078Z</time>
      </trkpt>
      <trkpt lat="48.4396" lon="7.12482">
        <ele>829</ele>
        <time>2019-05-15T10:07:00.078Z</time>
      </trkpt>
      <trkpt lat="48.43959" lon="7.12481">
        <ele>829</ele>
        <time>2019-05-15T10:07:01.078Z</time>
      </trkpt>
      <trkpt lat="48.43959" lon="7.12479">
        <ele>829</ele>
        <time>2019-05-15T10:07:02.078Z</time>
      </trkpt>
      <trkpt lat="48.43958" lon="7.12477">
        <ele>829</ele>
        <time>2019-05-15T10:07:03.078Z</time>
      </trkpt>
      <trkpt lat="48.43958" lon="7.12476">
        <ele>829</ele>
        <time>2019-05-15T10:07:04.078Z</time>
      </trkpt>
      <trkpt lat="48.43958" lon="7.12474">
        <ele>830</ele>
        <time>2019-05-15T10:07:05.078Z</time>
      </trkpt>
      <trkpt lat="48.43958" lon="7.12472">
        <ele>831</ele>
        <time>2019-05-15T10:07:06.078Z</time>
      </trkpt>
      <trkpt lat="48.43957" lon="7.12471">
        <ele>830</ele>
        <time>2019-05-15T10:07:07.078Z</time>
      </trkpt>
      <trkpt lat="48.43957" lon="7.12469">
        <ele>831</ele>
        <time>2019-05-15T10:07:08.078Z</time>
      </trkpt>
      <trkpt lat="48.43957" lon="7.12467">
        <ele>831</ele>
        <time>2019-05-15T10:07:09.078Z</time>
      </trkpt>
      <trkpt lat="48.43957" lon="7.12466">
        <ele>831</ele>
        <time>2019-05-15T10:07:10.078Z</time>
      </trkpt>
      <trkpt lat="48.43957" lon="7.12464">
        <ele>831</ele>
        <time>2019-05-15T10:07:11.078Z</time>
      </trkpt>
      <trkpt lat="48.43956" lon="7.12462">
        <ele>831</ele>
        <time>2019-05-15T10:07:12.078Z</time>
      </trkpt>
      <trkpt lat="48.43956" lon="7.12461">
        <ele>830</ele>
        <time>2019-05-15T10:07:13.078Z</time>
      </trkpt>
      <trkpt lat="48.43956" lon="7.12459">
        <ele>829</ele>
        <time>2019-05-15T10:07:14.078Z</time>
      </trkpt>
      <trkpt lat="48.43956" lon="7.12457">
        <ele>829</ele>
        <time>2019-05-15T10:07:15.078Z</time>
      </trkpt>
      <trkpt lat="48.43955" lon="7.12455">
        <ele>829</ele>
        <time>2019-05-15T10:07:16.078Z</time>
      </trkpt>
      <trkpt lat="48.43955" lon="7.12453">
        <ele>829</ele>
        <time>2019-05-15T10:07:17.078Z</time>
      </trkpt>
      <trkpt lat="48.43954" lon="7.12451">
        <ele>829</ele>
        <time>2019-05-15T10:07:18.078Z</time>
      </trkpt>
      <trkpt lat="48.43954" lon="7.1245">
        <ele>829</ele>
        <time>2019-05-15T10:07:19.078Z</time>
      </trkpt>
      <trkpt lat="48.43953" lon="7.12448">
        <ele>829</ele>
        <time>2019-05-15T10:07:20.078Z</time>
      </trkpt>
      <trkpt lat="48.43953" lon="7.12447">
        <ele>831</ele>
        <time>2019-05-15T10:07:21.078Z</time>
      </trkpt>
      <trkpt lat="48.43952" lon="7.12446">
        <ele>831</ele>
        <time>2019-05-15T10:07:22.078Z</time>
      </trkpt>
      <trkpt lat="48.43951" lon="7.12444">
        <ele>832</ele>
        <time>2019-05-15T10:07:23.078Z</time>
      </trkpt>
      <trkpt lat="48.4395" lon="7.12443">
        <ele>833</ele>
        <time>2019-05-15T10:07:24.078Z</time>
      </trkpt>
      <trkpt lat="48.43949" lon="7.12441">
        <ele>833</ele>
        <time>2019-05-15T10:07:25.078Z</time>
      </trkpt>
      <trkpt lat="48.43949" lon="7.1244">
        <ele>834</ele>
        <time>2019-05-15T10:07:26.078Z</time>
      </trkpt>
      <trkpt lat="48.43947" lon="7.12438">
        <ele>834</ele>
        <time>2019-05-15T10:07:27.078Z</time>
      </trkpt>
      <trkpt lat="48.43946" lon="7.12437">
        <ele>834</ele>
        <time>2019-05-15T10:07:28.078Z</time>
      </trkpt>
      <trkpt lat="48.43946" lon="7.12435">
        <ele>834</ele>
        <time>2019-05-15T10:07:29.078Z</time>
      </trkpt>
      <trkpt lat="48.43945" lon="7.12434">
        <ele>834</ele>
        <time>2019-05-15T10:07:30.078Z</time>
      </trkpt>
      <trkpt lat="48.43944" lon="7.12432">
        <ele>834</ele>
        <time>2019-05-15T10:07:31.078Z</time>
      </trkpt>
      <trkpt lat="48.43944" lon="7.12431">
        <ele>834</ele>
        <time>2019-05-15T10:07:32.078Z</time>
      </trkpt>
      <trkpt lat="48.43943" lon="7.1243">
        <ele>834</ele>
        <time>2019-05-15T10:07:33.078Z</time>
      </trkpt>
      <trkpt lat="48.43942" lon="7.12429">
        <ele>834</ele>
        <time>2019-05-15T10:07:34.078Z</time>
      </trkpt>
      <trkpt lat="48.43942" lon="7.12428">
        <ele>833</ele>
        <time>2019-05-15T10:07:35.078Z</time>
      </trkpt>
      <trkpt lat="48.43941" lon="7.12427">
        <ele>830</ele>
        <time>2019-05-15T10:07:36.078Z</time>
      </trkpt>
      <trkpt lat="48.43941" lon="7.12426">
        <ele>830</ele>
        <time>2019-05-15T10:07:37.078Z</time>
      </trkpt>
      <trkpt lat="48.4394" lon="7.12425">
        <ele>830</ele>
        <time>2019-05-15T10:07:38.078Z</time>
      </trkpt>
      <trkpt lat="48.43939" lon="7.12424">
        <ele>830</ele>
        <time>2019-05-15T10:07:39.078Z</time>
      </trkpt>
      <trkpt lat="48.43938" lon="7.12423">
        <ele>829</ele>
        <time>2019-05-15T10:07:40.078Z</time>
      </trkpt>
      <trkpt lat="48.43937" lon="7.12421">
        <ele>829</ele>
        <time>2019-05-15T10:07:41.078Z</time>
      </trkpt>
      <trkpt lat="48.43936" lon="7.1242">
        <ele>828</ele>
        <time>2019-05-15T10:07:42.078Z</time>
      </trkpt>
      <trkpt lat="48.43935" lon="7.12419">
        <ele>828</ele>
        <time>2019-05-15T10:07:43.078Z</time>
      </trkpt>
      <trkpt lat="48.43934" lon="7.12418">
        <ele>828</ele>
        <time>2019-05-15T10:07:44.078Z</time>
      </trkpt>
      <trkpt lat="48.43933" lon="7.12418">
        <ele>827</ele>
        <time>2019-05-15T10:07:45.078Z</time>
      </trkpt>
      <trkpt lat="48.43932" lon="7.12417">
        <ele>827</ele>
        <time>2019-05-15T10:07:46.078Z</time>
      </trkpt>
      <trkpt lat="48.43931" lon="7.12416">
        <ele>827</ele>
        <time>2019-05-15T10:07:47.078Z</time>
      </trkpt>
      <trkpt lat="48.4393" lon="7.12415">
        <ele>827</ele>
        <time>2019-05-15T10:07:48.078Z</time>
      </trkpt>
      <trkpt lat="48.43929" lon="7.12415">
        <ele>827</ele>
        <time>2019-05-15T10:07:49.078Z</time>
      </trkpt>
      <trkpt lat="48.43928" lon="7.12414">
        <ele>828</ele>
        <time>2019-05-15T10:07:50.078Z</time>
      </trkpt>
      <trkpt lat="48.43927" lon="7.12414">
        <ele>828</ele>
        <time>2019-05-15T10:07:51.078Z</time>
      </trkpt>
      <trkpt lat="48.43927" lon="7.12413">
        <ele>828</ele>
        <time>2019-05-15T10:07:52.078Z</time>
      </trkpt>
      <trkpt lat="48.43926" lon="7.12412">
        <ele>828</ele>
        <time>2019-05-15T10:07:53.078Z</time>
      </trkpt>
      <trkpt lat="48.43925" lon="7.12412">
        <ele>828</ele>
        <time>2019-05-15T10:07:54.078Z</time>
      </trkpt>
      <trkpt lat="48.43924" lon="7.12411">
        <ele>828</ele>
        <time>2019-05-15T10:07:55.078Z</time>
      </trkpt>
      <trkpt lat="48.43923" lon="7.12411">
        <ele>828</ele>
        <time>2019-05-15T10:07:56.078Z</time>
      </trkpt>
      <trkpt lat="48.43922" lon="7.12411">
        <ele>827</ele>
        <time>2019-05-15T10:07:57.078Z</time>
      </trkpt>
      <trkpt lat="48.43921" lon="7.1241">
        <ele>827</ele>
        <time>2019-05-15T10:07:58.078Z</time>
      </trkpt>
      <trkpt lat="48.4392" lon="7.12409">
        <ele>826</ele>
        <time>2019-05-15T10:07:59.078Z</time>
      </trkpt>
      <trkpt lat="48.43919" lon="7.12408">
        <ele>827</ele>
        <time>2019-05-15T10:08:00.078Z</time>
      </trkpt>
      <trkpt lat="48.43918" lon="7.12408">
        <ele>826</ele>
        <time>2019-05-15T10:08:01.078Z</time>
      </trkpt>
      <trkpt lat="48.43917" lon="7.12407">
        <ele>826</ele>
        <time>2019-05-15T10:08:02.078Z</time>
      </trkpt>
      <trkpt lat="48.43916" lon="7.12406">
        <ele>826</ele>
        <time>2019-05-15T10:08:03.078Z</time>
      </trkpt>
      <trkpt lat="48.43915" lon="7.12405">
        <ele>825</ele>
        <time>2019-05-15T10:08:04.078Z</time>
      </trkpt>
      <trkpt lat="48.43914" lon="7.12404">
        <ele>825</ele>
        <time>2019-05-15T10:08:05.078Z</time>
      </trkpt>
      <trkpt lat="48.43913" lon="7.12404">
        <ele>824</ele>
        <time>2019-05-15T10:08:06.078Z</time>
      </trkpt>
      <trkpt lat="48.43912" lon="7.12403">
        <ele>824</ele>
        <time>2019-05-15T10:08:07.078Z</time>
      </trkpt>
      <trkpt lat="48.43911" lon="7.12402">
        <ele>824</ele>
        <time>2019-05-15T10:08:08.078Z</time>
      </trkpt>
      <trkpt lat="48.4391" lon="7.12402">
        <ele>824</ele>
        <time>2019-05-15T10:08:09.078Z</time>
      </trkpt>
      <trkpt lat="48.43909" lon="7.12401">
        <ele>824</ele>
        <time>2019-05-15T10:08:10.078Z</time>
      </trkpt>
      <trkpt lat="48.43908" lon="7.12401">
        <ele>825</ele>
        <time>2019-05-15T10:08:11.078Z</time>
      </trkpt>
      <trkpt lat="48.43907" lon="7.124">
        <ele>825</ele>
        <time>2019-05-15T10:08:12.078Z</time>
      </trkpt>
      <trkpt lat="48.43905" lon="7.124">
        <ele>825</ele>
        <time>2019-05-15T10:08:13.078Z</time>
      </trkpt>
      <trkpt lat="48.43905" lon="7.124">
        <ele>825</ele>
        <time>2019-05-15T10:08:14.078Z</time>
      </trkpt>
      <trkpt lat="48.43904" lon="7.12399">
        <ele>825</ele>
        <time>2019-05-15T10:08:15.078Z</time>
      </trkpt>
      <trkpt lat="48.43903" lon="7.12398">
        <ele>826</ele>
        <time>2019-05-15T10:08:16.078Z</time>
      </trkpt>
      <trkpt lat="48.43902" lon="7.12397">
        <ele>825</ele>
        <time>2019-05-15T10:08:17.078Z</time>
      </trkpt>
      <trkpt lat="48.43901" lon="7.12396">
        <ele>825</ele>
        <time>2019-05-15T10:08:18.078Z</time>
      </trkpt>
      <trkpt lat="48.439" lon="7.12395">
        <ele>825</ele>
        <time>2019-05-15T10:08:19.078Z</time>
      </trkpt>
      <trkpt lat="48.43899" lon="7.12395">
        <ele>825</ele>
        <time>2019-05-15T10:08:20.078Z</time>
      </trkpt>
      <trkpt lat="48.43899" lon="7.12394">
        <ele>824</ele>
        <time>2019-05-15T10:08:21.078Z</time>
      </trkpt>
      <trkpt lat="48.43898" lon="7.12393">
        <ele>822</ele>
        <time>2019-05-15T10:08:22.078Z</time>
      </trkpt>
      <trkpt lat="48.43897" lon="7.12393">
        <ele>821</ele>
        <time>2019-05-15T10:08:23.078Z</time>
      </trkpt>
      <trkpt lat="48.43897" lon="7.12392">
        <ele>821</ele>
        <time>2019-05-15T10:08:24.078Z</time>
      </trkpt>
      <trkpt lat="48.43896" lon="7.12392">
        <ele>821</ele>
        <time>2019-05-15T10:08:25.078Z</time>
      </trkpt>
      <trkpt lat="48.43895" lon="7.12391">
        <ele>821</ele>
        <time>2019-05-15T10:08:26.078Z</time>
      </trkpt>
      <trkpt lat="48.43894" lon="7.1239">
        <ele>821</ele>
        <time>2019-05-15T10:08:27.078Z</time>
      </trkpt>
      <trkpt lat="48.43893" lon="7.1239">
        <ele>821</ele>
        <time>2019-05-15T10:08:28.078Z</time>
      </trkpt>
      <trkpt lat="48.43892" lon="7.1239">
        <ele>821</ele>
        <time>2019-05-15T10:08:29.078Z</time>
      </trkpt>
      <trkpt lat="48.43891" lon="7.12389">
        <ele>821</ele>
        <time>2019-05-15T10:08:30.078Z</time>
      </trkpt>
      <trkpt lat="48.4389" lon="7.12389">
        <ele>821</ele>
        <time>2019-05-15T10:08:31.078Z</time>
      </trkpt>
      <trkpt lat="48.43889" lon="7.12388">
        <ele>821</ele>
        <time>2019-05-15T10:08:32.078Z</time>
      </trkpt>
      <trkpt lat="48.43887" lon="7.12388">
        <ele>821</ele>
        <time>2019-05-15T10:08:33.078Z</time>
      </trkpt>
      <trkpt lat="48.43886" lon="7.12387">
        <ele>821</ele>
        <time>2019-05-15T10:08:34.078Z</time>
      </trkpt>
      <trkpt lat="48.43886" lon="7.12387">
        <ele>821</ele>
        <time>2019-05-15T10:08:35.078Z</time>
      </trkpt>
      <trkpt lat="48.43885" lon="7.12386">
        <ele>820</ele>
        <time>2019-05-15T10:08:36.078Z</time>
      </trkpt>
      <trkpt lat="48.43884" lon="7.12385">
        <ele>820</ele>
        <time>2019-05-15T10:08:37.078Z</time>
      </trkpt>
      <trkpt lat="48.43883" lon="7.12385">
        <ele>820</ele>
        <time>2019-05-15T10:08:38.078Z</time>
      </trkpt>
      <trkpt lat="48.43882" lon="7.12384">
        <ele>819</ele>
        <time>2019-05-15T10:08:39.078Z</time>
      </trkpt>
      <trkpt lat="48.43881" lon="7.12384">
        <ele>820</ele>
        <time>2019-05-15T10:08:40.078Z</time>
      </trkpt>
      <trkpt lat="48.4388" lon="7.12383">
        <ele>820</ele>
        <time>2019-05-15T10:08:41.078Z</time>
      </trkpt>
      <trkpt lat="48.43879" lon="7.12383">
        <ele>820</ele>
        <time>2019-05-15T10:08:42.078Z</time>
      </trkpt>
      <trkpt lat="48.43878" lon="7.12383">
        <ele>820</ele>
        <time>2019-05-15T10:08:43.078Z</time>
      </trkpt>
      <trkpt lat="48.43877" lon="7.12382">
        <ele>819</ele>
        <time>2019-05-15T10:08:44.078Z</time>
      </trkpt>
      <trkpt lat="48.43877" lon="7.12381">
        <ele>819</ele>
        <time>2019-05-15T10:08:45.078Z</time>
      </trkpt>
      <trkpt lat="48.43876" lon="7.12381">
        <ele>819</ele>
        <time>2019-05-15T10:08:46.078Z</time>
      </trkpt>
      <trkpt lat="48.43875" lon="7.1238">
        <ele>818</ele>
        <time>2019-05-15T10:08:47.078Z</time>
      </trkpt>
      <trkpt lat="48.43874" lon="7.12379">
        <ele>818</ele>
        <time>2019-05-15T10:08:48.078Z</time>
      </trkpt>
      <trkpt lat="48.43873" lon="7.12379">
        <ele>818</ele>
        <time>2019-05-15T10:08:49.078Z</time>
      </trkpt>
      <trkpt lat="48.43873" lon="7.12378">
        <ele>818</ele>
        <time>2019-05-15T10:08:50.078Z</time>
      </trkpt>
      <trkpt lat="48.43872" lon="7.12377">
        <ele>817</ele>
        <time>2019-05-15T10:08:51.078Z</time>
      </trkpt>
      <trkpt lat="48.43871" lon="7.12377">
        <ele>818</ele>
        <time>2019-05-15T10:08:52.078Z</time>
      </trkpt>
      <trkpt lat="48.4387" lon="7.12377">
        <ele>818</ele>
        <time>2019-05-15T10:08:53.078Z</time>
      </trkpt>
      <trkpt lat="48.43869" lon="7.12376">
        <ele>818</ele>
        <time>2019-05-15T10:08:54.078Z</time>
      </trkpt>
      <trkpt lat="48.43868" lon="7.12376">
        <ele>818</ele>
        <time>2019-05-15T10:08:55.078Z</time>
      </trkpt>
      <trkpt lat="48.43868" lon="7.12375">
        <ele>817</ele>
        <time>2019-05-15T10:08:56.078Z</time>
      </trkpt>
      <trkpt lat="48.43867" lon="7.12375">
        <ele>818</ele>
        <time>2019-05-15T10:08:57.078Z</time>
      </trkpt>
      <trkpt lat="48.43866" lon="7.12374">
        <ele>817</ele>
        <time>2019-05-15T10:08:58.078Z</time>
      </trkpt>
      <trkpt lat="48.43865" lon="7.12373">
        <ele>817</ele>
        <time>2019-05-15T10:08:59.078Z</time>
      </trkpt>
      <trkpt lat="48.43864" lon="7.12372">
        <ele>817</ele>
        <time>2019-05-15T10:09:00.078Z</time>
      </trkpt>
      <trkpt lat="48.43863" lon="7.12372">
        <ele>817</ele>
        <time>2019-05-15T10:09:01.078Z</time>
      </trkpt>
      <trkpt lat="48.43862" lon="7.12371">
        <ele>816</ele>
        <time>2019-05-15T10:09:02.078Z</time>
      </trkpt>
      <trkpt lat="48.43861" lon="7.1237">
        <ele>816</ele>
        <time>2019-05-15T10:09:03.078Z</time>
      </trkpt>
      <trkpt lat="48.43861" lon="7.1237">
        <ele>816</ele>
        <time>2019-05-15T10:09:04.078Z</time>
      </trkpt>
      <trkpt lat="48.4386" lon="7.12369">
        <ele>816</ele>
        <time>2019-05-15T10:09:05.078Z</time>
      </trkpt>
      <trkpt lat="48.43859" lon="7.12369">
        <ele>816</ele>
        <time>2019-05-15T10:09:06.078Z</time>
      </trkpt>
      <trkpt lat="48.43858" lon="7.12368">
        <ele>815</ele>
        <time>2019-05-15T10:09:07.078Z</time>
      </trkpt>
      <trkpt lat="48.43857" lon="7.12367">
        <ele>815</ele>
        <time>2019-05-15T10:09:08.078Z</time>
      </trkpt>
      <trkpt lat="48.43856" lon="7.12367">
        <ele>815</ele>
        <time>2019-05-15T10:09:09.078Z</time>
      </trkpt>
      <trkpt lat="48.43855" lon="7.12366">
        <ele>815</ele>
        <time>2019-05-15T10:09:10.078Z</time>
      </trkpt>
      <trkpt lat="48.43854" lon="7.12366">
        <ele>815</ele>
        <time>2019-05-15T10:09:11.078Z</time>
      </trkpt>
      <trkpt lat="48.43853" lon="7.12365">
        <ele>815</ele>
        <time>2019-05-15T10:09:12.078Z</time>
      </trkpt>
      <trkpt lat="48.43852" lon="7.12364">
        <ele>815</ele>
        <time>2019-05-15T10:09:13.078Z</time>
      </trkpt>
      <trkpt lat="48.43851" lon="7.12364">
        <ele>815</ele>
        <time>2019-05-15T10:09:14.078Z</time>
      </trkpt>
      <trkpt lat="48.43851" lon="7.12363">
        <ele>815</ele>
        <time>2019-05-15T10:09:15.078Z</time>
      </trkpt>
      <trkpt lat="48.4385" lon="7.12362">
        <ele>815</ele>
        <time>2019-05-15T10:09:16.078Z</time>
      </trkpt>
      <trkpt lat="48.43849" lon="7.12362">
        <ele>815</ele>
        <time>2019-05-15T10:09:17.078Z</time>
      </trkpt>
      <trkpt lat="48.43848" lon="7.12361">
        <ele>815</ele>
        <time>2019-05-15T10:09:18.078Z</time>
      </trkpt>
      <trkpt lat="48.43847" lon="7.12361">
        <ele>815</ele>
        <time>2019-05-15T10:09:19.078Z</time>
      </trkpt>
      <trkpt lat="48.43846" lon="7.1236">
        <ele>815</ele>
        <time>2019-05-15T10:09:20.078Z</time>
      </trkpt>
      <trkpt lat="48.43845" lon="7.12359">
        <ele>815</ele>
        <time>2019-05-15T10:09:21.078Z</time>
      </trkpt>
      <trkpt lat="48.43844" lon="7.12359">
        <ele>814</ele>
        <time>2019-05-15T10:09:22.078Z</time>
      </trkpt>
      <trkpt lat="48.43843" lon="7.12358">
        <ele>815</ele>
        <time>2019-05-15T10:09:23.078Z</time>
      </trkpt>
      <trkpt lat="48.43843" lon="7.12357">
        <ele>815</ele>
        <time>2019-05-15T10:09:24.078Z</time>
      </trkpt>
      <trkpt lat="48.43842" lon="7.12357">
        <ele>814</ele>
        <time>2019-05-15T10:09:25.078Z</time>
      </trkpt>
      <trkpt lat="48.43841" lon="7.12357">
        <ele>814</ele>
        <time>2019-05-15T10:09:26.078Z</time>
      </trkpt>
      <trkpt lat="48.4384" lon="7.12356">
        <ele>814</ele>
        <time>2019-05-15T10:09:27.078Z</time>
      </trkpt>
      <trkpt lat="48.43839" lon="7.12356">
        <ele>814</ele>
        <time>2019-05-15T10:09:28.078Z</time>
      </trkpt>
      <trkpt lat="48.43838" lon="7.12356">
        <ele>814</ele>
        <time>2019-05-15T10:09:29.078Z</time>
      </trkpt>
      <trkpt lat="48.43837" lon="7.12355">
        <ele>814</ele>
        <time>2019-05-15T10:09:30.078Z</time>
      </trkpt>
      <trkpt lat="48.43836" lon="7.12354">
        <ele>813</ele>
        <time>2019-05-15T10:09:31.078Z</time>
      </trkpt>
      <trkpt lat="48.43835" lon="7.12353">
        <ele>814</ele>
        <time>2019-05-15T10:09:32.078Z</time>
      </trkpt>
      <trkpt lat="48.43834" lon="7.12352">
        <ele>813</ele>
        <time>2019-05-15T10:09:33.078Z</time>
      </trkpt>
      <trkpt lat="48.43834" lon="7.12352">
        <ele>813</ele>
        <time>2019-05-15T10:09:34.078Z</time>
      </trkpt>
      <trkpt lat="48.43833" lon="7.12351">
        <ele>813</ele>
        <time>2019-05-15T10:09:35.078Z</time>
      </trkpt>
      <trkpt lat="48.43832" lon="7.1235">
        <ele>813</ele>
        <time>2019-05-15T10:09:36.078Z</time>
      </trkpt>
      <trkpt lat="48.43831" lon="7.1235">
        <ele>813</ele>
        <time>2019-05-15T10:09:37.078Z</time>
      </trkpt>
      <trkpt lat="48.4383" lon="7.12349">
        <ele>814</ele>
        <time>2019-05-15T10:09:38.078Z</time>
      </trkpt>
      <trkpt lat="48.4383" lon="7.12349">
        <ele>814</ele>
        <time>2019-05-15T10:09:39.078Z</time>
      </trkpt>
      <trkpt lat="48.43829" lon="7.12348">
        <ele>814</ele>
        <time>2019-05-15T10:09:40.078Z</time>
      </trkpt>
      <trkpt lat="48.43828" lon="7.12347">
        <ele>814</ele>
        <time>2019-05-15T10:09:41.078Z</time>
      </trkpt>
      <trkpt lat="48.43827" lon="7.12346">
        <ele>813</ele>
        <time>2019-05-15T10:09:42.078Z</time>
      </trkpt>
      <trkpt lat="48.43826" lon="7.12346">
        <ele>813</ele>
        <time>2019-05-15T10:09:43.078Z</time>
      </trkpt>
      <trkpt lat="48.43826" lon="7.12345">
        <ele>813</ele>
        <time>2019-05-15T10:09:44.078Z</time>
      </trkpt>
      <trkpt lat="48.43825" lon="7.12344">
        <ele>813</ele>
        <time>2019-05-15T10:09:45.078Z</time>
      </trkpt>
      <trkpt lat="48.43824" lon="7.12343">
        <ele>813</ele>
        <time>2019-05-15T10:09:46.078Z</time>
      </trkpt>
      <trkpt lat="48.43823" lon="7.12343">
        <ele>813</ele>
        <time>2019-05-15T10:09:47.078Z</time>
      </trkpt>
      <trkpt lat="48.43822" lon="7.12342">
        <ele>813</ele>
        <time>2019-05-15T10:09:48.078Z</time>
      </trkpt>
      <trkpt lat="48.43822" lon="7.12341">
        <ele>813</ele>
        <time>2019-05-15T10:09:49.078Z</time>
      </trkpt>
      <trkpt lat="48.43821" lon="7.12341">
        <ele>813</ele>
        <time>2019-05-15T10:09:50.078Z</time>
      </trkpt>
      <trkpt lat="48.4382" lon="7.1234">
        <ele>813</ele>
        <time>2019-05-15T10:09:51.078Z</time>
      </trkpt>
      <trkpt lat="48.43819" lon="7.12339">
        <ele>813</ele>
        <time>2019-05-15T10:09:52.078Z</time>
      </trkpt>
      <trkpt lat="48.43818" lon="7.12339">
        <ele>813</ele>
        <time>2019-05-15T10:09:53.078Z</time>
      </trkpt>
      <trkpt lat="48.43818" lon="7.12338">
        <ele>813</ele>
        <time>2019-05-15T10:09:54.078Z</time>
      </trkpt>
      <trkpt lat="48.43817" lon="7.12338">
        <ele>813</ele>
        <time>2019-05-15T10:09:55.078Z</time>
      </trkpt>
      <trkpt lat="48.43816" lon="7.12337">
        <ele>813</ele>
        <time>2019-05-15T10:09:56.078Z</time>
      </trkpt>
      <trkpt lat="48.43815" lon="7.12336">
        <ele>813</ele>
        <time>2019-05-15T10:09:57.078Z</time>
      </trkpt>
      <trkpt lat="48.43814" lon="7.12336">
        <ele>812</ele>
        <time>2019-05-15T10:09:58.078Z</time>
      </trkpt>
      <trkpt lat="48.43813" lon="7.12335">
        <ele>813</ele>
        <time>2019-05-15T10:09:59.078Z</time>
      </trkpt>
      <trkpt lat="48.43813" lon="7.12334">
        <ele>813</ele>
        <time>2019-05-15T10:10:00.078Z</time>
      </trkpt>
      <trkpt lat="48.43812" lon="7.12334">
        <ele>813</ele>
        <time>2019-05-15T10:10:01.078Z</time>
      </trkpt>
      <trkpt lat="48.43811" lon="7.12333">
        <ele>812</ele>
        <time>2019-05-15T10:10:02.078Z</time>
      </trkpt>
      <trkpt lat="48.4381" lon="7.12331">
        <ele>813</ele>
        <time>2019-05-15T10:10:03.078Z</time>
      </trkpt>
      <trkpt lat="48.43809" lon="7.1233">
        <ele>813</ele>
        <time>2019-05-15T10:10:04.078Z</time>
      </trkpt>
      <trkpt lat="48.43809" lon="7.12329">
        <ele>813</ele>
        <time>2019-05-15T10:10:05.078Z</time>
      </trkpt>
      <trkpt lat="48.43808" lon="7.12328">
        <ele>813</ele>
        <time>2019-05-15T10:10:06.078Z</time>
      </trkpt>
      <trkpt lat="48.43808" lon="7.12326">
        <ele>812</ele>
        <time>2019-05-15T10:10:07.078Z</time>
      </trkpt>
      <trkpt lat="48.43808" lon="7.12324">
        <ele>810</ele>
        <time>2019-05-15T10:10:08.078Z</time>
      </trkpt>
      <trkpt lat="48.43808" lon="7.12322">
        <ele>810</ele>
        <time>2019-05-15T10:10:09.078Z</time>
      </trkpt>
      <trkpt lat="48.43808" lon="7.1232">
        <ele>810</ele>
        <time>2019-05-15T10:10:10.078Z</time>
      </trkpt>
      <trkpt lat="48.43807" lon="7.12319">
        <ele>810</ele>
        <time>2019-05-15T10:10:11.078Z</time>
      </trkpt>
      <trkpt lat="48.43806" lon="7.12317">
        <ele>810</ele>
        <time>2019-05-15T10:10:12.078Z</time>
      </trkpt>
      <trkpt lat="48.43806" lon="7.12315">
        <ele>810</ele>
        <time>2019-05-15T10:10:13.078Z</time>
      </trkpt>
      <trkpt lat="48.43806" lon="7.12314">
        <ele>811</ele>
        <time>2019-05-15T10:10:14.078Z</time>
      </trkpt>
      <trkpt lat="48.43805" lon="7.12312">
        <ele>810</ele>
        <time>2019-05-15T10:10:15.078Z</time>
      </trkpt>
      <trkpt lat="48.43805" lon="7.1231">
        <ele>810</ele>
        <time>2019-05-15T10:10:16.078Z</time>
      </trkpt>
      <trkpt lat="48.43805" lon="7.12308">
        <ele>810</ele>
        <time>2019-05-15T10:10:17.078Z</time>
      </trkpt>
      <trkpt lat="48.43805" lon="7.12306">
        <ele>810</ele>
        <time>2019-05-15T10:10:18.078Z</time>
      </trkpt>
      <trkpt lat="48.43805" lon="7.12305">
        <ele>810</ele>
        <time>2019-05-15T10:10:19.078Z</time>
      </trkpt>
      <trkpt lat="48.43806" lon="7.12303">
        <ele>810</ele>
        <time>2019-05-15T10:10:20.078Z</time>
      </trkpt>
      <trkpt lat="48.43806" lon="7.12302">
        <ele>811</ele>
        <time>2019-05-15T10:10:21.078Z</time>
      </trkpt>
      <trkpt lat="48.43806" lon="7.12301">
        <ele>811</ele>
        <time>2019-05-15T10:10:22.078Z</time>
      </trkpt>
      <trkpt lat="48.43806" lon="7.123">
        <ele>810</ele>
        <time>2019-05-15T10:10:23.078Z</time>
      </trkpt>
      <trkpt lat="48.43806" lon="7.12298">
        <ele>811</ele>
        <time>2019-05-15T10:10:24.078Z</time>
      </trkpt>
      <trkpt lat="48.43807" lon="7.12297">
        <ele>811</ele>
        <time>2019-05-15T10:10:25.078Z</time>
      </trkpt>
      <trkpt lat="48.43807" lon="7.12296">
        <ele>811</ele>
        <time>2019-05-15T10:10:26.078Z</time>
      </trkpt>
      <trkpt lat="48.43807" lon="7.12295">
        <ele>811</ele>
        <time>2019-05-15T10:10:27.078Z</time>
      </trkpt>
      <trkpt lat="48.43807" lon="7.12294">
        <ele>811</ele>
        <time>2019-05-15T10:10:28.078Z</time>
      </trkpt>
      <trkpt lat="48.43807" lon="7.12293">
        <ele>811</ele>
        <time>2019-05-15T10:10:29.078Z</time>
      </trkpt>
      <trkpt lat="48.43807" lon="7.12292">
        <ele>812</ele>
        <time>2019-05-15T10:10:30.078Z</time>
      </trkpt>
      <trkpt lat="48.43807" lon="7.12291">
        <ele>812</ele>
        <time>2019-05-15T10:10:31.078Z</time>
      </trkpt>
      <trkpt lat="48.43807" lon="7.1229">
        <ele>812</ele>
        <time>2019-05-15T10:10:32.078Z</time>
      </trkpt>
      <trkpt lat="48.43807" lon="7.12289">
        <ele>813</ele>
        <time>2019-05-15T10:10:33.078Z</time>
      </trkpt>
      <trkpt lat="48.43807" lon="7.12287">
        <ele>813</ele>
        <time>2019-05-15T10:10:34.078Z</time>
      </trkpt>
      <trkpt lat="48.43807" lon="7.12286">
        <ele>813</ele>
        <time>2019-05-15T10:10:35.078Z</time>
      </trkpt>
      <trkpt lat="48.43807" lon="7.12285">
        <ele>813</ele>
        <time>2019-05-15T10:10:36.078Z</time>
      </trkpt>
      <trkpt lat="48.43807" lon="7.12284">
        <ele>813</ele>
        <time>2019-05-15T10:10:37.078Z</time>
      </trkpt>
      <trkpt lat="48.43807" lon="7.12283">
        <ele>813</ele>
        <time>2019-05-15T10:10:38.078Z</time>
      </trkpt>
      <trkpt lat="48.43807" lon="7.12281">
        <ele>814</ele>
        <time>2019-05-15T10:10:39.078Z</time>
      </trkpt>
      <trkpt lat="48.43807" lon="7.1228">
        <ele>814</ele>
        <time>2019-05-15T10:10:40.078Z</time>
      </trkpt>
      <trkpt lat="48.43807" lon="7.12279">
        <ele>814</ele>
        <time>2019-05-15T10:10:41.078Z</time>
      </trkpt>
      <trkpt lat="48.43807" lon="7.12277">
        <ele>814</ele>
        <time>2019-05-15T10:10:42.078Z</time>
      </trkpt>
      <trkpt lat="48.43807" lon="7.12276">
        <ele>814</ele>
        <time>2019-05-15T10:10:43.078Z</time>
      </trkpt>
      <trkpt lat="48.43807" lon="7.12275">
        <ele>814</ele>
        <time>2019-05-15T10:10:44.078Z</time>
      </trkpt>
      <trkpt lat="48.43807" lon="7.12274">
        <ele>814</ele>
        <time>2019-05-15T10:10:45.078Z</time>
      </trkpt>
      <trkpt lat="48.43807" lon="7.12273">
        <ele>814</ele>
        <time>2019-05-15T10:10:46.078Z</time>
      </trkpt>
      <trkpt lat="48.43807" lon="7.12272">
        <ele>814</ele>
        <time>2019-05-15T10:10:47.078Z</time>
      </trkpt>
      <trkpt lat="48.43807" lon="7.12271">
        <ele>815</ele>
        <time>2019-05-15T10:10:48.078Z</time>
      </trkpt>
      <trkpt lat="48.43807" lon="7.1227">
        <ele>815</ele>
        <time>2019-05-15T10:10:49.078Z</time>
      </trkpt>
      <trkpt lat="48.43806" lon="7.12269">
        <ele>815</ele>
        <time>2019-05-15T10:10:50.078Z</time>
      </trkpt>
      <trkpt lat="48.43806" lon="7.12269">
        <ele>815</ele>
        <time>2019-05-15T10:10:51.078Z</time>
      </trkpt>
      <trkpt lat="48.43806" lon="7.12268">
        <ele>815</ele>
        <time>2019-05-15T10:10:52.078Z</time>
      </trkpt>
      <trkpt lat="48.43805" lon="7.12267">
        <ele>816</ele>
        <time>2019-05-15T10:10:53.078Z</time>
      </trkpt>
      <trkpt lat="48.43805" lon="7.12267">
        <ele>816</ele>
        <time>2019-05-15T10:10:54.078Z</time>
      </trkpt>
      <trkpt lat="48.43805" lon="7.12266">
        <ele>816</ele>
        <time>2019-05-15T10:10:55.078Z</time>
      </trkpt>
      <trkpt lat="48.43805" lon="7.12265">
        <ele>816</ele>
        <time>2019-05-15T10:10:56.078Z</time>
      </trkpt>
      <trkpt lat="48.43805" lon="7.12265">
        <ele>816</ele>
        <time>2019-05-15T10:10:57.078Z</time>
      </trkpt>
      <trkpt lat="48.43804" lon="7.12264">
        <ele>817</ele>
        <time>2019-05-15T10:10:58.078Z</time>
      </trkpt>
      <trkpt lat="48.43804" lon="7.12263">
        <ele>816</ele>
        <time>2019-05-15T10:10:59.078Z</time>
      </trkpt>
      <trkpt lat="48.43804" lon="7.12261">
        <ele>816</ele>
        <time>2019-05-15T10:11:00.078Z</time>
      </trkpt>
      <trkpt lat="48.43804" lon="7.1226">
        <ele>817</ele>
        <time>2019-05-15T10:11:01.078Z</time>
      </trkpt>
      <trkpt lat="48.43804" lon="7.12258">
        <ele>816</ele>
        <time>2019-05-15T10:11:02.078Z</time>
      </trkpt>
      <trkpt lat="48.43804" lon="7.12257">
        <ele>816</ele>
        <time>2019-05-15T10:11:03.078Z</time>
      </trkpt>
      <trkpt lat="48.43804" lon="7.12256">
        <ele>816</ele>
        <time>2019-05-15T10:11:04.078Z</time>
      </trkpt>
      <trkpt lat="48.43804" lon="7.12255">
        <ele>816</ele>
        <time>2019-05-15T10:11:05.078Z</time>
      </trkpt>
      <trkpt lat="48.43805" lon="7.12254">
        <ele>815</ele>
        <time>2019-05-15T10:11:06.078Z</time>
      </trkpt>
      <trkpt lat="48.43805" lon="7.12253">
        <ele>816</ele>
        <time>2019-05-15T10:11:07.078Z</time>
      </trkpt>
      <trkpt lat="48.43805" lon="7.12252">
        <ele>816</ele>
        <time>2019-05-15T10:11:08.078Z</time>
      </trkpt>
      <trkpt lat="48.43804" lon="7.1225">
        <ele>816</ele>
        <time>2019-05-15T10:11:09.078Z</time>
      </trkpt>
      <trkpt lat="48.43804" lon="7.12249">
        <ele>816</ele>
        <time>2019-05-15T10:11:10.078Z</time>
      </trkpt>
      <trkpt lat="48.43804" lon="7.12248">
        <ele>816</ele>
        <time>2019-05-15T10:11:11.078Z</time>
      </trkpt>
      <trkpt lat="48.43804" lon="7.12247">
        <ele>816</ele>
        <time>2019-05-15T10:11:12.078Z</time>
      </trkpt>
      <trkpt lat="48.43804" lon="7.12245">
        <ele>816</ele>
        <time>2019-05-15T10:11:13.078Z</time>
      </trkpt>
      <trkpt lat="48.43804" lon="7.12244">
        <ele>815</ele>
        <time>2019-05-15T10:11:14.078Z</time>
      </trkpt>
      <trkpt lat="48.43804" lon="7.12243">
        <ele>815</ele>
        <time>2019-05-15T10:11:15.078Z</time>
      </trkpt>
      <trkpt lat="48.43804" lon="7.12241">
        <ele>814</ele>
        <time>2019-05-15T10:11:16.078Z</time>
      </trkpt>
      <trkpt lat="48.43803" lon="7.1224">
        <ele>815</ele>
        <time>2019-05-15T10:11:17.078Z</time>
      </trkpt>
      <trkpt lat="48.43803" lon="7.12239">
        <ele>815</ele>
        <time>2019-05-15T10:11:18.078Z</time>
      </trkpt>
      <trkpt lat="48.43803" lon="7.12237">
        <ele>815</ele>
        <time>2019-05-15T10:11:19.078Z</time>
      </trkpt>
      <trkpt lat="48.43803" lon="7.12236">
        <ele>816</ele>
        <time>2019-05-15T10:11:20.078Z</time>
      </trkpt>
      <trkpt lat="48.43803" lon="7.12234">
        <ele>816</ele>
        <time>2019-05-15T10:11:21.078Z</time>
      </trkpt>
      <trkpt lat="48.43803" lon="7.12233">
        <ele>816</ele>
        <time>2019-05-15T10:11:22.078Z</time>
      </trkpt>
      <trkpt lat="48.43803" lon="7.12232">
        <ele>816</ele>
        <time>2019-05-15T10:11:23.078Z</time>
      </trkpt>
      <trkpt lat="48.43803" lon="7.1223">
        <ele>815</ele>
        <time>2019-05-15T10:11:24.078Z</time>
      </trkpt>
      <trkpt lat="48.43803" lon="7.12229">
        <ele>816</ele>
        <time>2019-05-15T10:11:25.078Z</time>
      </trkpt>
      <trkpt lat="48.43803" lon="7.12228">
        <ele>816</ele>
        <time>2019-05-15T10:11:26.078Z</time>
      </trkpt>
      <trkpt lat="48.43803" lon="7.12226">
        <ele>816</ele>
        <time>2019-05-15T10:11:27.078Z</time>
      </trkpt>
      <trkpt lat="48.43803" lon="7.12225">
        <ele>816</ele>
        <time>2019-05-15T10:11:28.078Z</time>
      </trkpt>
      <trkpt lat="48.43803" lon="7.12224">
        <ele>816</ele>
        <time>2019-05-15T10:11:29.078Z</time>
      </trkpt>
      <trkpt lat="48.43802" lon="7.12223">
        <ele>817</ele>
        <time>2019-05-15T10:11:30.078Z</time>
      </trkpt>
      <trkpt lat="48.43802" lon="7.12222">
        <ele>817</ele>
        <time>2019-05-15T10:11:31.078Z</time>
      </trkpt>
      <trkpt lat="48.43802" lon="7.1222">
        <ele>817</ele>
        <time>2019-05-15T10:11:32.078Z</time>
      </trkpt>
      <trkpt lat="48.43802" lon="7.12219">
        <ele>817</ele>
        <time>2019-05-15T10:11:33.078Z</time>
      </trkpt>
      <trkpt lat="48.43802" lon="7.12218">
        <ele>817</ele>
        <time>2019-05-15T10:11:34.078Z</time>
      </trkpt>
      <trkpt lat="48.43802" lon="7.12216">
        <ele>817</ele>
        <time>2019-05-15T10:11:35.078Z</time>
      </trkpt>
      <trkpt lat="48.43802" lon="7.12215">
        <ele>816</ele>
        <time>2019-05-15T10:11:36.078Z</time>
      </trkpt>
      <trkpt lat="48.43801" lon="7.12214">
        <ele>816</ele>
        <time>2019-05-15T10:11:37.078Z</time>
      </trkpt>
      <trkpt lat="48.43801" lon="7.12212">
        <ele>815</ele>
        <time>2019-05-15T10:11:38.078Z</time>
      </trkpt>
      <trkpt lat="48.43801" lon="7.12211">
        <ele>816</ele>
        <time>2019-05-15T10:11:39.078Z</time>
      </trkpt>
      <trkpt lat="48.43801" lon="7.1221">
        <ele>815</ele>
        <time>2019-05-15T10:11:40.078Z</time>
      </trkpt>
      <trkpt lat="48.43801" lon="7.12209">
        <ele>815</ele>
        <time>2019-05-15T10:11:41.078Z</time>
      </trkpt>
      <trkpt lat="48.43801" lon="7.12207">
        <ele>815</ele>
        <time>2019-05-15T10:11:42.078Z</time>
      </trkpt>
      <trkpt lat="48.43801" lon="7.12206">
        <ele>814</ele>
        <time>2019-05-15T10:11:43.078Z</time>
      </trkpt>
      <trkpt lat="48.43801" lon="7.12205">
        <ele>815</ele>
        <time>2019-05-15T10:11:44.078Z</time>
      </trkpt>
      <trkpt lat="48.43801" lon="7.12204">
        <ele>815</ele>
        <time>2019-05-15T10:11:45.078Z</time>
      </trkpt>
      <trkpt lat="48.43801" lon="7.12202">
        <ele>815</ele>
        <time>2019-05-15T10:11:46.078Z</time>
      </trkpt>
      <trkpt lat="48.43801" lon="7.12201">
        <ele>816</ele>
        <time>2019-05-15T10:11:47.078Z</time>
      </trkpt>
      <trkpt lat="48.43801" lon="7.122">
        <ele>816</ele>
        <time>2019-05-15T10:11:48.078Z</time>
      </trkpt>
      <trkpt lat="48.43801" lon="7.12198">
        <ele>816</ele>
        <time>2019-05-15T10:11:49.078Z</time>
      </trkpt>
      <trkpt lat="48.438" lon="7.12197">
        <ele>816</ele>
        <time>2019-05-15T10:11:50.078Z</time>
      </trkpt>
      <trkpt lat="48.438" lon="7.12196">
        <ele>816</ele>
        <time>2019-05-15T10:11:51.078Z</time>
      </trkpt>
      <trkpt lat="48.438" lon="7.12194">
        <ele>816</ele>
        <time>2019-05-15T10:11:52.078Z</time>
      </trkpt>
      <trkpt lat="48.438" lon="7.12193">
        <ele>817</ele>
        <time>2019-05-15T10:11:53.078Z</time>
      </trkpt>
      <trkpt lat="48.438" lon="7.12192">
        <ele>817</ele>
        <time>2019-05-15T10:11:54.078Z</time>
      </trkpt>
      <trkpt lat="48.438" lon="7.1219">
        <ele>817</ele>
        <time>2019-05-15T10:11:55.078Z</time>
      </trkpt>
      <trkpt lat="48.438" lon="7.12189">
        <ele>817</ele>
        <time>2019-05-15T10:11:56.078Z</time>
      </trkpt>
      <trkpt lat="48.438" lon="7.12188">
        <ele>818</ele>
        <time>2019-05-15T10:11:57.078Z</time>
      </trkpt>
      <trkpt lat="48.438" lon="7.12186">
        <ele>817</ele>
        <time>2019-05-15T10:11:58.078Z</time>
      </trkpt>
      <trkpt lat="48.438" lon="7.12185">
        <ele>818</ele>
        <time>2019-05-15T10:11:59.078Z</time>
      </trkpt>
      <trkpt lat="48.438" lon="7.12184">
        <ele>818</ele>
        <time>2019-05-15T10:12:00.078Z</time>
      </trkpt>
      <trkpt lat="48.438" lon="7.12182">
        <ele>818</ele>
        <time>2019-05-15T10:12:01.078Z</time>
      </trkpt>
      <trkpt lat="48.438" lon="7.12181">
        <ele>819</ele>
        <time>2019-05-15T10:12:02.078Z</time>
      </trkpt>
      <trkpt lat="48.438" lon="7.12179">
        <ele>819</ele>
        <time>2019-05-15T10:12:03.078Z</time>
      </trkpt>
      <trkpt lat="48.438" lon="7.12178">
        <ele>819</ele>
        <time>2019-05-15T10:12:04.078Z</time>
      </trkpt>
      <trkpt lat="48.438" lon="7.12177">
        <ele>818</ele>
        <time>2019-05-15T10:12:05.078Z</time>
      </trkpt>
      <trkpt lat="48.438" lon="7.12175">
        <ele>818</ele>
        <time>2019-05-15T10:12:06.078Z</time>
      </trkpt>
      <trkpt lat="48.438" lon="7.12174">
        <ele>819</ele>
        <time>2019-05-15T10:12:07.078Z</time>
      </trkpt>
      <trkpt lat="48.438" lon="7.12172">
        <ele>819</ele>
        <time>2019-05-15T10:12:08.078Z</time>
      </trkpt>
      <trkpt lat="48.438" lon="7.12171">
        <ele>819</ele>
        <time>2019-05-15T10:12:09.078Z</time>
      </trkpt>
      <trkpt lat="48.438" lon="7.12169">
        <ele>819</ele>
        <time>2019-05-15T10:12:10.078Z</time>
      </trkpt>
      <trkpt lat="48.438" lon="7.12168">
        <ele>819</ele>
        <time>2019-05-15T10:12:11.078Z</time>
      </trkpt>
      <trkpt lat="48.438" lon="7.12166">
        <ele>819</ele>
        <time>2019-05-15T10:12:12.078Z</time>
      </trkpt>
      <trkpt lat="48.438" lon="7.12165">
        <ele>819</ele>
        <time>2019-05-15T10:12:13.078Z</time>
      </trkpt>
      <trkpt lat="48.438" lon="7.12164">
        <ele>819</ele>
        <time>2019-05-15T10:12:14.078Z</time>
      </trkpt>
      <trkpt lat="48.438" lon="7.12162">
        <ele>819</ele>
        <time>2019-05-15T10:12:15.078Z</time>
      </trkpt>
      <trkpt lat="48.438" lon="7.12161">
        <ele>819</ele>
        <time>2019-05-15T10:12:16.078Z</time>
      </trkpt>
      <trkpt lat="48.438" lon="7.12159">
        <ele>819</ele>
        <time>2019-05-15T10:12:17.078Z</time>
      </trkpt>
      <trkpt lat="48.438" lon="7.12158">
        <ele>818</ele>
        <time>2019-05-15T10:12:18.078Z</time>
      </trkpt>
      <trkpt lat="48.438" lon="7.12156">
        <ele>819</ele>
        <time>2019-05-15T10:12:19.078Z</time>
      </trkpt>
      <trkpt lat="48.438" lon="7.12155">
        <ele>819</ele>
        <time>2019-05-15T10:12:20.078Z</time>
      </trkpt>
      <trkpt lat="48.438" lon="7.12153">
        <ele>819</ele>
        <time>2019-05-15T10:12:21.078Z</time>
      </trkpt>
      <trkpt lat="48.438" lon="7.12151">
        <ele>819</ele>
        <time>2019-05-15T10:12:22.078Z</time>
      </trkpt>
      <trkpt lat="48.438" lon="7.1215">
        <ele>819</ele>
        <time>2019-05-15T10:12:23.078Z</time>
      </trkpt>
      <trkpt lat="48.438" lon="7.12149">
        <ele>819</ele>
        <time>2019-05-15T10:12:24.078Z</time>
      </trkpt>
      <trkpt lat="48.438" lon="7.12147">
        <ele>820</ele>
        <time>2019-05-15T10:12:25.078Z</time>
      </trkpt>
      <trkpt lat="48.438" lon="7.12146">
        <ele>820</ele>
        <time>2019-05-15T10:12:26.078Z</time>
      </trkpt>
      <trkpt lat="48.438" lon="7.12144">
        <ele>820</ele>
        <time>2019-05-15T10:12:27.078Z</time>
      </trkpt>
      <trkpt lat="48.438" lon="7.12143">
        <ele>820</ele>
        <time>2019-05-15T10:12:28.078Z</time>
      </trkpt>
      <trkpt lat="48.43801" lon="7.12141">
        <ele>820</ele>
        <time>2019-05-15T10:12:29.078Z</time>
      </trkpt>
      <trkpt lat="48.43801" lon="7.1214">
        <ele>820</ele>
        <time>2019-05-15T10:12:30.078Z</time>
      </trkpt>
      <trkpt lat="48.43801" lon="7.12138">
        <ele>820</ele>
        <time>2019-05-15T10:12:31.078Z</time>
      </trkpt>
      <trkpt lat="48.43801" lon="7.12136">
        <ele>820</ele>
        <time>2019-05-15T10:12:32.078Z</time>
      </trkpt>
      <trkpt lat="48.43801" lon="7.12135">
        <ele>820</ele>
        <time>2019-05-15T10:12:33.078Z</time>
      </trkpt>
      <trkpt lat="48.43802" lon="7.12133">
        <ele>820</ele>
        <time>2019-05-15T10:12:34.078Z</time>
      </trkpt>
      <trkpt lat="48.43802" lon="7.12132">
        <ele>821</ele>
        <time>2019-05-15T10:12:35.078Z</time>
      </trkpt>
      <trkpt lat="48.43802" lon="7.1213">
        <ele>821</ele>
        <time>2019-05-15T10:12:36.078Z</time>
      </trkpt>
      <trkpt lat="48.43803" lon="7.12129">
        <ele>821</ele>
        <time>2019-05-15T10:12:37.078Z</time>
      </trkpt>
      <trkpt lat="48.43803" lon="7.12127">
        <ele>821</ele>
        <time>2019-05-15T10:12:38.078Z</time>
      </trkpt>
      <trkpt lat="48.43803" lon="7.12126">
        <ele>821</ele>
        <time>2019-05-15T10:12:39.078Z</time>
      </trkpt>
      <trkpt lat="48.43803" lon="7.12124">
        <ele>821</ele>
        <time>2019-05-15T10:12:40.078Z</time>
      </trkpt>
      <trkpt lat="48.43803" lon="7.12123">
        <ele>821</ele>
        <time>2019-05-15T10:12:41.078Z</time>
      </trkpt>
      <trkpt lat="48.43803" lon="7.12121">
        <ele>821</ele>
        <time>2019-05-15T10:12:42.078Z</time>
      </trkpt>
      <trkpt lat="48.43803" lon="7.1212">
        <ele>821</ele>
        <time>2019-05-15T10:12:43.078Z</time>
      </trkpt>
      <trkpt lat="48.43803" lon="7.12118">
        <ele>821</ele>
        <time>2019-05-15T10:12:44.078Z</time>
      </trkpt>
      <trkpt lat="48.43803" lon="7.12117">
        <ele>821</ele>
        <time>2019-05-15T10:12:45.078Z</time>
      </trkpt>
      <trkpt lat="48.43803" lon="7.12115">
        <ele>821</ele>
        <time>2019-05-15T10:12:46.078Z</time>
      </trkpt>
      <trkpt lat="48.43804" lon="7.12114">
        <ele>821</ele>
        <time>2019-05-15T10:12:47.078Z</time>
      </trkpt>
      <trkpt lat="48.43804" lon="7.12112">
        <ele>821</ele>
        <time>2019-05-15T10:12:48.078Z</time>
      </trkpt>
      <trkpt lat="48.43804" lon="7.12111">
        <ele>821</ele>
        <time>2019-05-15T10:12:49.078Z</time>
      </trkpt>
      <trkpt lat="48.43804" lon="7.12109">
        <ele>822</ele>
        <time>2019-05-15T10:12:50.078Z</time>
      </trkpt>
      <trkpt lat="48.43804" lon="7.12108">
        <ele>822</ele>
        <time>2019-05-15T10:12:51.078Z</time>
      </trkpt>
      <trkpt lat="48.43804" lon="7.12106">
        <ele>822</ele>
        <time>2019-05-15T10:12:52.078Z</time>
      </trkpt>
      <trkpt lat="48.43804" lon="7.12104">
        <ele>822</ele>
        <time>2019-05-15T10:12:53.078Z</time>
      </trkpt>
      <trkpt lat="48.43804" lon="7.12103">
        <ele>822</ele>
        <time>2019-05-15T10:12:54.078Z</time>
      </trkpt>
      <trkpt lat="48.43804" lon="7.12101">
        <ele>822</ele>
        <time>2019-05-15T10:12:55.078Z</time>
      </trkpt>
      <trkpt lat="48.43804" lon="7.121">
        <ele>822</ele>
        <time>2019-05-15T10:12:56.078Z</time>
      </trkpt>
      <trkpt lat="48.43804" lon="7.12098">
        <ele>822</ele>
        <time>2019-05-15T10:12:57.078Z</time>
      </trkpt>
      <trkpt lat="48.43804" lon="7.12097">
        <ele>822</ele>
        <time>2019-05-15T10:12:58.078Z</time>
      </trkpt>
      <trkpt lat="48.43805" lon="7.12095">
        <ele>822</ele>
        <time>2019-05-15T10:12:59.078Z</time>
      </trkpt>
      <trkpt lat="48.43805" lon="7.12094">
        <ele>822</ele>
        <time>2019-05-15T10:13:00.078Z</time>
      </trkpt>
      <trkpt lat="48.43805" lon="7.12092">
        <ele>822</ele>
        <time>2019-05-15T10:13:01.078Z</time>
      </trkpt>
      <trkpt lat="48.43805" lon="7.12091">
        <ele>822</ele>
        <time>2019-05-15T10:13:02.078Z</time>
      </trkpt>
      <trkpt lat="48.43805" lon="7.12089">
        <ele>822</ele>
        <time>2019-05-15T10:13:03.078Z</time>
      </trkpt>
      <trkpt lat="48.43805" lon="7.12088">
        <ele>822</ele>
        <time>2019-05-15T10:13:04.078Z</time>
      </trkpt>
      <trkpt lat="48.43805" lon="7.12086">
        <ele>822</ele>
        <time>2019-05-15T10:13:05.078Z</time>
      </trkpt>
      <trkpt lat="48.43805" lon="7.12084">
        <ele>822</ele>
        <time>2019-05-15T10:13:06.078Z</time>
      </trkpt>
      <trkpt lat="48.43805" lon="7.12083">
        <ele>822</ele>
        <time>2019-05-15T10:13:07.078Z</time>
      </trkpt>
      <trkpt lat="48.43805" lon="7.12081">
        <ele>823</ele>
        <time>2019-05-15T10:13:08.078Z</time>
      </trkpt>
      <trkpt lat="48.43805" lon="7.1208">
        <ele>822</ele>
        <time>2019-05-15T10:13:09.078Z</time>
      </trkpt>
      <trkpt lat="48.43805" lon="7.12078">
        <ele>822</ele>
        <time>2019-05-15T10:13:10.078Z</time>
      </trkpt>
      <trkpt lat="48.43806" lon="7.12077">
        <ele>822</ele>
        <time>2019-05-15T10:13:11.078Z</time>
      </trkpt>
      <trkpt lat="48.43806" lon="7.12076">
        <ele>823</ele>
        <time>2019-05-15T10:13:12.078Z</time>
      </trkpt>
      <trkpt lat="48.43806" lon="7.12075">
        <ele>823</ele>
        <time>2019-05-15T10:13:13.078Z</time>
      </trkpt>
      <trkpt lat="48.43806" lon="7.12073">
        <ele>823</ele>
        <time>2019-05-15T10:13:14.078Z</time>
      </trkpt>
      <trkpt lat="48.43806" lon="7.12072">
        <ele>823</ele>
        <time>2019-05-15T10:13:15.078Z</time>
      </trkpt>
      <trkpt lat="48.43806" lon="7.12071">
        <ele>823</ele>
        <time>2019-05-15T10:13:16.078Z</time>
      </trkpt>
      <trkpt lat="48.43806" lon="7.12069">
        <ele>823</ele>
        <time>2019-05-15T10:13:17.078Z</time>
      </trkpt>
      <trkpt lat="48.43806" lon="7.12068">
        <ele>823</ele>
        <time>2019-05-15T10:13:18.078Z</time>
      </trkpt>
      <trkpt lat="48.43806" lon="7.12066">
        <ele>824</ele>
        <time>2019-05-15T10:13:19.078Z</time>
      </trkpt>
      <trkpt lat="48.43807" lon="7.12065">
        <ele>824</ele>
        <time>2019-05-15T10:13:20.078Z</time>
      </trkpt>
      <trkpt lat="48.43807" lon="7.12063">
        <ele>824</ele>
        <time>2019-05-15T10:13:21.078Z</time>
      </trkpt>
      <trkpt lat="48.43808" lon="7.12062">
        <ele>824</ele>
        <time>2019-05-15T10:13:22.078Z</time>
      </trkpt>
      <trkpt lat="48.43808" lon="7.1206">
        <ele>824</ele>
        <time>2019-05-15T10:13:23.078Z</time>
      </trkpt>
      <trkpt lat="48.43808" lon="7.12059">
        <ele>824</ele>
        <time>2019-05-15T10:13:24.078Z</time>
      </trkpt>
      <trkpt lat="48.43808" lon="7.12058">
        <ele>824</ele>
        <time>2019-05-15T10:13:25.078Z</time>
      </trkpt>
      <trkpt lat="48.43808" lon="7.12056">
        <ele>824</ele>
        <time>2019-05-15T10:13:26.078Z</time>
      </trkpt>
      <trkpt lat="48.43809" lon="7.12055">
        <ele>824</ele>
        <time>2019-05-15T10:13:27.078Z</time>
      </trkpt>
      <trkpt lat="48.43809" lon="7.12053">
        <ele>824</ele>
        <time>2019-05-15T10:13:28.078Z</time>
      </trkpt>
      <trkpt lat="48.43809" lon="7.12052">
        <ele>824</ele>
        <time>2019-05-15T10:13:29.078Z</time>
      </trkpt>
      <trkpt lat="48.4381" lon="7.1205">
        <ele>824</ele>
        <time>2019-05-15T10:13:30.078Z</time>
      </trkpt>
      <trkpt lat="48.4381" lon="7.12049">
        <ele>824</ele>
        <time>2019-05-15T10:13:31.078Z</time>
      </trkpt>
      <trkpt lat="48.4381" lon="7.12048">
        <ele>825</ele>
        <time>2019-05-15T10:13:32.078Z</time>
      </trkpt>
      <trkpt lat="48.43811" lon="7.12047">
        <ele>824</ele>
        <time>2019-05-15T10:13:33.078Z</time>
      </trkpt>
      <trkpt lat="48.43811" lon="7.12046">
        <ele>824</ele>
        <time>2019-05-15T10:13:34.078Z</time>
      </trkpt>
      <trkpt lat="48.43811" lon="7.12045">
        <ele>824</ele>
        <time>2019-05-15T10:13:35.078Z</time>
      </trkpt>
      <trkpt lat="48.43811" lon="7.12045">
        <ele>825</ele>
        <time>2019-05-15T10:13:36.078Z</time>
      </trkpt>
      <trkpt lat="48.43811" lon="7.12045">
        <ele>825</ele>
        <time>2019-05-15T10:13:37.078Z</time>
      </trkpt>
      <trkpt lat="48.43811" lon="7.12045">
        <ele>825</ele>
        <time>2019-05-15T10:13:38.078Z</time>
      </trkpt>
      <trkpt lat="48.43811" lon="7.12045">
        <ele>826</ele>
        <time>2019-05-15T10:13:39.078Z</time>
      </trkpt>
      <trkpt lat="48.43811" lon="7.12045">
        <ele>826</ele>
        <time>2019-05-15T10:13:40.078Z</time>
      </trkpt>
      <trkpt lat="48.43811" lon="7.12046">
        <ele>826</ele>
        <time>2019-05-15T10:13:41.078Z</time>
      </trkpt>
      <trkpt lat="48.43811" lon="7.12045">
        <ele>826</ele>
        <time>2019-05-15T10:13:42.078Z</time>
      </trkpt>
      <trkpt lat="48.43811" lon="7.12044">
        <ele>826</ele>
        <time>2019-05-15T10:13:43.078Z</time>
      </trkpt>
      <trkpt lat="48.43811" lon="7.12043">
        <ele>826</ele>
        <time>2019-05-15T10:13:44.078Z</time>
      </trkpt>
      <trkpt lat="48.43811" lon="7.12042">
        <ele>826</ele>
        <time>2019-05-15T10:13:45.078Z</time>
      </trkpt>
      <trkpt lat="48.43811" lon="7.12041">
        <ele>826</ele>
        <time>2019-05-15T10:13:46.078Z</time>
      </trkpt>
      <trkpt lat="48.43812" lon="7.12041">
        <ele>826</ele>
        <time>2019-05-15T10:13:47.078Z</time>
      </trkpt>
      <trkpt lat="48.43812" lon="7.1204">
        <ele>826</ele>
        <time>2019-05-15T10:13:48.078Z</time>
      </trkpt>
      <trkpt lat="48.43812" lon="7.1204">
        <ele>826</ele>
        <time>2019-05-15T10:13:49.078Z</time>
      </trkpt>
      <trkpt lat="48.43812" lon="7.1204">
        <ele>826</ele>
        <time>2019-05-15T10:13:50.078Z</time>
      </trkpt>
      <trkpt lat="48.43812" lon="7.1204">
        <ele>826</ele>
        <time>2019-05-15T10:13:51.078Z</time>
      </trkpt>
      <trkpt lat="48.43812" lon="7.1204">
        <ele>827</ele>
        <time>2019-05-15T10:13:52.078Z</time>
      </trkpt>
      <trkpt lat="48.43812" lon="7.1204">
        <ele>827</ele>
        <time>2019-05-15T10:13:53.078Z</time>
      </trkpt>
      <trkpt lat="48.43812" lon="7.1204">
        <ele>827</ele>
        <time>2019-05-15T10:13:54.078Z</time>
      </trkpt>
      <trkpt lat="48.43812" lon="7.1204">
        <ele>827</ele>
        <time>2019-05-15T10:13:55.078Z</time>
      </trkpt>
      <trkpt lat="48.43812" lon="7.1204">
        <ele>827</ele>
        <time>2019-05-15T10:13:56.078Z</time>
      </trkpt>
      <trkpt lat="48.43812" lon="7.1204">
        <ele>827</ele>
        <time>2019-05-15T10:13:57.078Z</time>
      </trkpt>
      <trkpt lat="48.43812" lon="7.1204">
        <ele>827</ele>
        <time>2019-05-15T10:13:58.078Z</time>
      </trkpt>
      <trkpt lat="48.43812" lon="7.1204">
        <ele>827</ele>
        <time>2019-05-15T10:13:59.078Z</time>
      </trkpt>
      <trkpt lat="48.43812" lon="7.12039">
        <ele>825</ele>
        <time>2019-05-15T10:14:00.078Z</time>
      </trkpt>
      <trkpt lat="48.43812" lon="7.12038">
        <ele>825</ele>
        <time>2019-05-15T10:14:01.078Z</time>
      </trkpt>
      <trkpt lat="48.43813" lon="7.12037">
        <ele>825</ele>
        <time>2019-05-15T10:14:02.078Z</time>
      </trkpt>
      <trkpt lat="48.43813" lon="7.12035">
        <ele>825</ele>
        <time>2019-05-15T10:14:03.078Z</time>
      </trkpt>
      <trkpt lat="48.43813" lon="7.12034">
        <ele>825</ele>
        <time>2019-05-15T10:14:04.078Z</time>
      </trkpt>
      <trkpt lat="48.43814" lon="7.12033">
        <ele>825</ele>
        <time>2019-05-15T10:14:05.078Z</time>
      </trkpt>
      <trkpt lat="48.43814" lon="7.12032">
        <ele>825</ele>
        <time>2019-05-15T10:14:06.078Z</time>
      </trkpt>
      <trkpt lat="48.43814" lon="7.12031">
        <ele>826</ele>
        <time>2019-05-15T10:14:07.078Z</time>
      </trkpt>
      <trkpt lat="48.43815" lon="7.1203">
        <ele>825</ele>
        <time>2019-05-15T10:14:08.078Z</time>
      </trkpt>
      <trkpt lat="48.43815" lon="7.12028">
        <ele>825</ele>
        <time>2019-05-15T10:14:09.078Z</time>
      </trkpt>
      <trkpt lat="48.43815" lon="7.12027">
        <ele>826</ele>
        <time>2019-05-15T10:14:10.078Z</time>
      </trkpt>
      <trkpt lat="48.43816" lon="7.12026">
        <ele>826</ele>
        <time>2019-05-15T10:14:11.078Z</time>
      </trkpt>
      <trkpt lat="48.43816" lon="7.12025">
        <ele>826</ele>
        <time>2019-05-15T10:14:12.078Z</time>
      </trkpt>
      <trkpt lat="48.43816" lon="7.12023">
        <ele>826</ele>
        <time>2019-05-15T10:14:13.078Z</time>
      </trkpt>
      <trkpt lat="48.43817" lon="7.12022">
        <ele>826</ele>
        <time>2019-05-15T10:14:14.078Z</time>
      </trkpt>
      <trkpt lat="48.43817" lon="7.1202">
        <ele>826</ele>
        <time>2019-05-15T10:14:15.078Z</time>
      </trkpt>
      <trkpt lat="48.43818" lon="7.12019">
        <ele>827</ele>
        <time>2019-05-15T10:14:16.078Z</time>
      </trkpt>
      <trkpt lat="48.43818" lon="7.12018">
        <ele>827</ele>
        <time>2019-05-15T10:14:17.078Z</time>
      </trkpt>
      <trkpt lat="48.43819" lon="7.12016">
        <ele>827</ele>
        <time>2019-05-15T10:14:18.078Z</time>
      </trkpt>
      <trkpt lat="48.43819" lon="7.12015">
        <ele>827</ele>
        <time>2019-05-15T10:14:19.078Z</time>
      </trkpt>
      <trkpt lat="48.43819" lon="7.12014">
        <ele>827</ele>
        <time>2019-05-15T10:14:20.078Z</time>
      </trkpt>
      <trkpt lat="48.4382" lon="7.12012">
        <ele>827</ele>
        <time>2019-05-15T10:14:21.078Z</time>
      </trkpt>
      <trkpt lat="48.4382" lon="7.12011">
        <ele>827</ele>
        <time>2019-05-15T10:14:22.078Z</time>
      </trkpt>
      <trkpt lat="48.43821" lon="7.1201">
        <ele>827</ele>
        <time>2019-05-15T10:14:23.078Z</time>
      </trkpt>
      <trkpt lat="48.43822" lon="7.12009">
        <ele>827</ele>
        <time>2019-05-15T10:14:24.078Z</time>
      </trkpt>
      <trkpt lat="48.43822" lon="7.12007">
        <ele>828</ele>
        <time>2019-05-15T10:14:25.078Z</time>
      </trkpt>
      <trkpt lat="48.43823" lon="7.12006">
        <ele>827</ele>
        <time>2019-05-15T10:14:26.078Z</time>
      </trkpt>
      <trkpt lat="48.43823" lon="7.12005">
        <ele>827</ele>
        <time>2019-05-15T10:14:27.078Z</time>
      </trkpt>
      <trkpt lat="48.43823" lon="7.12004">
        <ele>827</ele>
        <time>2019-05-15T10:14:28.078Z</time>
      </trkpt>
      <trkpt lat="48.43824" lon="7.12002">
        <ele>826</ele>
        <time>2019-05-15T10:14:29.078Z</time>
      </trkpt>
      <trkpt lat="48.43824" lon="7.12001">
        <ele>826</ele>
        <time>2019-05-15T10:14:30.078Z</time>
      </trkpt>
      <trkpt lat="48.43825" lon="7.12">
        <ele>826</ele>
        <time>2019-05-15T10:14:31.078Z</time>
      </trkpt>
      <trkpt lat="48.43825" lon="7.11998">
        <ele>825</ele>
        <time>2019-05-15T10:14:32.078Z</time>
      </trkpt>
      <trkpt lat="48.43826" lon="7.11997">
        <ele>825</ele>
        <time>2019-05-15T10:14:33.078Z</time>
      </trkpt>
      <trkpt lat="48.43826" lon="7.11996">
        <ele>825</ele>
        <time>2019-05-15T10:14:34.078Z</time>
      </trkpt>
      <trkpt lat="48.43827" lon="7.11995">
        <ele>825</ele>
        <time>2019-05-15T10:14:35.078Z</time>
      </trkpt>
      <trkpt lat="48.43827" lon="7.11994">
        <ele>825</ele>
        <time>2019-05-15T10:14:36.078Z</time>
      </trkpt>
      <trkpt lat="48.43828" lon="7.11992">
        <ele>825</ele>
        <time>2019-05-15T10:14:37.078Z</time>
      </trkpt>
      <trkpt lat="48.43828" lon="7.11991">
        <ele>825</ele>
        <time>2019-05-15T10:14:38.078Z</time>
      </trkpt>
      <trkpt lat="48.43828" lon="7.1199">
        <ele>825</ele>
        <time>2019-05-15T10:14:39.078Z</time>
      </trkpt>
      <trkpt lat="48.43829" lon="7.11989">
        <ele>826</ele>
        <time>2019-05-15T10:14:40.078Z</time>
      </trkpt>
      <trkpt lat="48.43829" lon="7.11987">
        <ele>826</ele>
        <time>2019-05-15T10:14:41.078Z</time>
      </trkpt>
      <trkpt lat="48.4383" lon="7.11986">
        <ele>826</ele>
        <time>2019-05-15T10:14:42.078Z</time>
      </trkpt>
      <trkpt lat="48.4383" lon="7.11985">
        <ele>826</ele>
        <time>2019-05-15T10:14:43.078Z</time>
      </trkpt>
      <trkpt lat="48.43831" lon="7.11984">
        <ele>826</ele>
        <time>2019-05-15T10:14:44.078Z</time>
      </trkpt>
      <trkpt lat="48.43831" lon="7.11982">
        <ele>826</ele>
        <time>2019-05-15T10:14:45.078Z</time>
      </trkpt>
      <trkpt lat="48.43831" lon="7.11981">
        <ele>827</ele>
        <time>2019-05-15T10:14:46.078Z</time>
      </trkpt>
      <trkpt lat="48.43832" lon="7.1198">
        <ele>827</ele>
        <time>2019-05-15T10:14:47.078Z</time>
      </trkpt>
      <trkpt lat="48.43832" lon="7.11978">
        <ele>828</ele>
        <time>2019-05-15T10:14:48.078Z</time>
      </trkpt>
      <trkpt lat="48.43832" lon="7.11976">
        <ele>828</ele>
        <time>2019-05-15T10:14:49.078Z</time>
      </trkpt>
      <trkpt lat="48.43833" lon="7.11975">
        <ele>828</ele>
        <time>2019-05-15T10:14:50.078Z</time>
      </trkpt>
      <trkpt lat="48.43833" lon="7.11973">
        <ele>828</ele>
        <time>2019-05-15T10:14:51.078Z</time>
      </trkpt>
      <trkpt lat="48.43833" lon="7.11972">
        <ele>829</ele>
        <time>2019-05-15T10:14:52.078Z</time>
      </trkpt>
      <trkpt lat="48.43834" lon="7.1197">
        <ele>829</ele>
        <time>2019-05-15T10:14:53.078Z</time>
      </trkpt>
      <trkpt lat="48.43834" lon="7.11969">
        <ele>829</ele>
        <time>2019-05-15T10:14:54.078Z</time>
      </trkpt>
      <trkpt lat="48.43835" lon="7.11968">
        <ele>829</ele>
        <time>2019-05-15T10:14:55.078Z</time>
      </trkpt>
      <trkpt lat="48.43835" lon="7.11967">
        <ele>829</ele>
        <time>2019-05-15T10:14:56.078Z</time>
      </trkpt>
      <trkpt lat="48.43836" lon="7.11965">
        <ele>830</ele>
        <time>2019-05-15T10:14:57.078Z</time>
      </trkpt>
      <trkpt lat="48.43836" lon="7.11964">
        <ele>830</ele>
        <time>2019-05-15T10:14:58.078Z</time>
      </trkpt>
      <trkpt lat="48.43837" lon="7.11963">
        <ele>830</ele>
        <time>2019-05-15T10:14:59.078Z</time>
      </trkpt>
      <trkpt lat="48.43837" lon="7.11962">
        <ele>830</ele>
        <time>2019-05-15T10:15:00.078Z</time>
      </trkpt>
      <trkpt lat="48.43838" lon="7.1196">
        <ele>830</ele>
        <time>2019-05-15T10:15:01.078Z</time>
      </trkpt>
      <trkpt lat="48.43838" lon="7.11959">
        <ele>831</ele>
        <time>2019-05-15T10:15:02.078Z</time>
      </trkpt>
      <trkpt lat="48.43839" lon="7.11958">
        <ele>831</ele>
        <time>2019-05-15T10:15:03.078Z</time>
      </trkpt>
      <trkpt lat="48.43839" lon="7.11957">
        <ele>831</ele>
        <time>2019-05-15T10:15:04.078Z</time>
      </trkpt>
      <trkpt lat="48.4384" lon="7.11956">
        <ele>831</ele>
        <time>2019-05-15T10:15:05.078Z</time>
      </trkpt>
      <trkpt lat="48.4384" lon="7.11954">
        <ele>831</ele>
        <time>2019-05-15T10:15:06.078Z</time>
      </trkpt>
      <trkpt lat="48.43841" lon="7.11953">
        <ele>832</ele>
        <time>2019-05-15T10:15:07.078Z</time>
      </trkpt>
      <trkpt lat="48.43841" lon="7.11952">
        <ele>831</ele>
        <time>2019-05-15T10:15:08.078Z</time>
      </trkpt>
      <trkpt lat="48.43842" lon="7.11951">
        <ele>831</ele>
        <time>2019-05-15T10:15:09.078Z</time>
      </trkpt>
      <trkpt lat="48.43842" lon="7.1195">
        <ele>832</ele>
        <time>2019-05-15T10:15:10.078Z</time>
      </trkpt>
      <trkpt lat="48.43843" lon="7.11949">
        <ele>832</ele>
        <time>2019-05-15T10:15:11.078Z</time>
      </trkpt>
      <trkpt lat="48.43843" lon="7.11948">
        <ele>832</ele>
        <time>2019-05-15T10:15:12.078Z</time>
      </trkpt>
      <trkpt lat="48.43844" lon="7.11946">
        <ele>832</ele>
        <time>2019-05-15T10:15:13.078Z</time>
      </trkpt>
      <trkpt lat="48.43844" lon="7.11945">
        <ele>832</ele>
        <time>2019-05-15T10:15:14.078Z</time>
      </trkpt>
      <trkpt lat="48.43845" lon="7.11944">
        <ele>832</ele>
        <time>2019-05-15T10:15:15.078Z</time>
      </trkpt>
      <trkpt lat="48.43845" lon="7.11943">
        <ele>832</ele>
        <time>2019-05-15T10:15:16.078Z</time>
      </trkpt>
      <trkpt lat="48.43846" lon="7.11942">
        <ele>832</ele>
        <time>2019-05-15T10:15:17.078Z</time>
      </trkpt>
      <trkpt lat="48.43846" lon="7.11941">
        <ele>832</ele>
        <time>2019-05-15T10:15:18.078Z</time>
      </trkpt>
      <trkpt lat="48.43847" lon="7.1194">
        <ele>832</ele>
        <time>2019-05-15T10:15:19.078Z</time>
      </trkpt>
      <trkpt lat="48.43847" lon="7.11938">
        <ele>832</ele>
        <time>2019-05-15T10:15:20.078Z</time>
      </trkpt>
      <trkpt lat="48.43848" lon="7.11937">
        <ele>832</ele>
        <time>2019-05-15T10:15:21.078Z</time>
      </trkpt>
      <trkpt lat="48.43848" lon="7.11936">
        <ele>832</ele>
        <time>2019-05-15T10:15:22.078Z</time>
      </trkpt>
      <trkpt lat="48.43849" lon="7.11935">
        <ele>833</ele>
        <time>2019-05-15T10:15:23.078Z</time>
      </trkpt>
      <trkpt lat="48.43849" lon="7.11934">
        <ele>833</ele>
        <time>2019-05-15T10:15:24.078Z</time>
      </trkpt>
      <trkpt lat="48.43849" lon="7.11933">
        <ele>833</ele>
        <time>2019-05-15T10:15:25.078Z</time>
      </trkpt>
      <trkpt lat="48.4385" lon="7.11932">
        <ele>833</ele>
        <time>2019-05-15T10:15:26.078Z</time>
      </trkpt>
      <trkpt lat="48.4385" lon="7.11931">
        <ele>834</ele>
        <time>2019-05-15T10:15:27.078Z</time>
      </trkpt>
      <trkpt lat="48.4385" lon="7.11929">
        <ele>833</ele>
        <time>2019-05-15T10:15:28.078Z</time>
      </trkpt>
      <trkpt lat="48.43851" lon="7.11928">
        <ele>833</ele>
        <time>2019-05-15T10:15:29.078Z</time>
      </trkpt>
      <trkpt lat="48.43851" lon="7.11927">
        <ele>833</ele>
        <time>2019-05-15T10:15:30.078Z</time>
      </trkpt>
      <trkpt lat="48.43852" lon="7.11926">
        <ele>833</ele>
        <time>2019-05-15T10:15:31.078Z</time>
      </trkpt>
      <trkpt lat="48.43852" lon="7.11925">
        <ele>834</ele>
        <time>2019-05-15T10:15:32.078Z</time>
      </trkpt>
      <trkpt lat="48.43852" lon="7.11924">
        <ele>834</ele>
        <time>2019-05-15T10:15:33.078Z</time>
      </trkpt>
      <trkpt lat="48.43852" lon="7.11923">
        <ele>834</ele>
        <time>2019-05-15T10:15:34.078Z</time>
      </trkpt>
      <trkpt lat="48.43852" lon="7.11922">
        <ele>834</ele>
        <time>2019-05-15T10:15:35.078Z</time>
      </trkpt>
      <trkpt lat="48.43852" lon="7.11922">
        <ele>834</ele>
        <time>2019-05-15T10:15:36.078Z</time>
      </trkpt>
      <trkpt lat="48.43852" lon="7.11921">
        <ele>834</ele>
        <time>2019-05-15T10:15:37.078Z</time>
      </trkpt>
      <trkpt lat="48.43851" lon="7.11921">
        <ele>834</ele>
        <time>2019-05-15T10:15:38.078Z</time>
      </trkpt>
      <trkpt lat="48.43851" lon="7.1192">
        <ele>835</ele>
        <time>2019-05-15T10:15:39.078Z</time>
      </trkpt>
      <trkpt lat="48.43851" lon="7.1192">
        <ele>835</ele>
        <time>2019-05-15T10:15:40.078Z</time>
      </trkpt>
      <trkpt lat="48.43852" lon="7.11919">
        <ele>834</ele>
        <time>2019-05-15T10:15:41.078Z</time>
      </trkpt>
      <trkpt lat="48.43852" lon="7.11918">
        <ele>834</ele>
        <time>2019-05-15T10:15:42.078Z</time>
      </trkpt>
      <trkpt lat="48.43853" lon="7.11917">
        <ele>834</ele>
        <time>2019-05-15T10:15:43.078Z</time>
      </trkpt>
      <trkpt lat="48.43854" lon="7.11916">
        <ele>833</ele>
        <time>2019-05-15T10:15:44.078Z</time>
      </trkpt>
      <trkpt lat="48.43854" lon="7.11915">
        <ele>833</ele>
        <time>2019-05-15T10:15:45.078Z</time>
      </trkpt>
      <trkpt lat="48.43855" lon="7.11913">
        <ele>833</ele>
        <time>2019-05-15T10:15:46.078Z</time>
      </trkpt>
      <trkpt lat="48.43855" lon="7.11912">
        <ele>833</ele>
        <time>2019-05-15T10:15:47.078Z</time>
      </trkpt>
      <trkpt lat="48.43856" lon="7.11911">
        <ele>832</ele>
        <time>2019-05-15T10:15:48.078Z</time>
      </trkpt>
      <trkpt lat="48.43856" lon="7.1191">
        <ele>832</ele>
        <time>2019-05-15T10:15:49.078Z</time>
      </trkpt>
      <trkpt lat="48.43857" lon="7.11909">
        <ele>833</ele>
        <time>2019-05-15T10:15:50.078Z</time>
      </trkpt>
      <trkpt lat="48.43857" lon="7.11908">
        <ele>833</ele>
        <time>2019-05-15T10:15:51.078Z</time>
      </trkpt>
      <trkpt lat="48.43858" lon="7.11907">
        <ele>833</ele>
        <time>2019-05-15T10:15:52.078Z</time>
      </trkpt>
      <trkpt lat="48.43858" lon="7.11906">
        <ele>833</ele>
        <time>2019-05-15T10:15:53.078Z</time>
      </trkpt>
      <trkpt lat="48.43859" lon="7.11905">
        <ele>833</ele>
        <time>2019-05-15T10:15:54.078Z</time>
      </trkpt>
      <trkpt lat="48.43859" lon="7.11904">
        <ele>834</ele>
        <time>2019-05-15T10:15:55.078Z</time>
      </trkpt>
      <trkpt lat="48.4386" lon="7.11903">
        <ele>834</ele>
        <time>2019-05-15T10:15:56.078Z</time>
      </trkpt>
      <trkpt lat="48.4386" lon="7.11902">
        <ele>834</ele>
        <time>2019-05-15T10:15:57.078Z</time>
      </trkpt>
      <trkpt lat="48.4386" lon="7.11901">
        <ele>834</ele>
        <time>2019-05-15T10:15:58.078Z</time>
      </trkpt>
      <trkpt lat="48.43861" lon="7.119">
        <ele>834</ele>
        <time>2019-05-15T10:15:59.078Z</time>
      </trkpt>
      <trkpt lat="48.43861" lon="7.11899">
        <ele>835</ele>
        <time>2019-05-15T10:16:00.078Z</time>
      </trkpt>
      <trkpt lat="48.43861" lon="7.11898">
        <ele>835</ele>
        <time>2019-05-15T10:16:01.078Z</time>
      </trkpt>
      <trkpt lat="48.43862" lon="7.11896">
        <ele>835</ele>
        <time>2019-05-15T10:16:02.078Z</time>
      </trkpt>
      <trkpt lat="48.43862" lon="7.11895">
        <ele>836</ele>
        <time>2019-05-15T10:16:03.078Z</time>
      </trkpt>
      <trkpt lat="48.43862" lon="7.11894">
        <ele>837</ele>
        <time>2019-05-15T10:16:04.078Z</time>
      </trkpt>
      <trkpt lat="48.43862" lon="7.11893">
        <ele>837</ele>
        <time>2019-05-15T10:16:05.078Z</time>
      </trkpt>
      <trkpt lat="48.43862" lon="7.11891">
        <ele>838</ele>
        <time>2019-05-15T10:16:06.078Z</time>
      </trkpt>
      <trkpt lat="48.43862" lon="7.1189">
        <ele>838</ele>
        <time>2019-05-15T10:16:07.078Z</time>
      </trkpt>
      <trkpt lat="48.43863" lon="7.11889">
        <ele>839</ele>
        <time>2019-05-15T10:16:08.078Z</time>
      </trkpt>
      <trkpt lat="48.43863" lon="7.11888">
        <ele>840</ele>
        <time>2019-05-15T10:16:09.078Z</time>
      </trkpt>
      <trkpt lat="48.43863" lon="7.11887">
        <ele>840</ele>
        <time>2019-05-15T10:16:10.078Z</time>
      </trkpt>
      <trkpt lat="48.43863" lon="7.11886">
        <ele>841</ele>
        <time>2019-05-15T10:16:11.078Z</time>
      </trkpt>
      <trkpt lat="48.43864" lon="7.11885">
        <ele>842</ele>
        <time>2019-05-15T10:16:12.078Z</time>
      </trkpt>
      <trkpt lat="48.43864" lon="7.11884">
        <ele>842</ele>
        <time>2019-05-15T10:16:13.078Z</time>
      </trkpt>
      <trkpt lat="48.43864" lon="7.11883">
        <ele>842</ele>
        <time>2019-05-15T10:16:14.078Z</time>
      </trkpt>
      <trkpt lat="48.43864" lon="7.11882">
        <ele>842</ele>
        <time>2019-05-15T10:16:15.078Z</time>
      </trkpt>
      <trkpt lat="48.43865" lon="7.1188">
        <ele>842</ele>
        <time>2019-05-15T10:16:16.078Z</time>
      </trkpt>
      <trkpt lat="48.43865" lon="7.11879">
        <ele>842</ele>
        <time>2019-05-15T10:16:17.078Z</time>
      </trkpt>
      <trkpt lat="48.43866" lon="7.11877">
        <ele>842</ele>
        <time>2019-05-15T10:16:18.078Z</time>
      </trkpt>
      <trkpt lat="48.43866" lon="7.11876">
        <ele>842</ele>
        <time>2019-05-15T10:16:19.078Z</time>
      </trkpt>
      <trkpt lat="48.43866" lon="7.11875">
        <ele>843</ele>
        <time>2019-05-15T10:16:20.078Z</time>
      </trkpt>
      <trkpt lat="48.43866" lon="7.11873">
        <ele>842</ele>
        <time>2019-05-15T10:16:21.078Z</time>
      </trkpt>
      <trkpt lat="48.43867" lon="7.11872">
        <ele>842</ele>
        <time>2019-05-15T10:16:22.078Z</time>
      </trkpt>
      <trkpt lat="48.43867" lon="7.11871">
        <ele>841</ele>
        <time>2019-05-15T10:16:23.078Z</time>
      </trkpt>
      <trkpt lat="48.43868" lon="7.11869">
        <ele>842</ele>
        <time>2019-05-15T10:16:24.078Z</time>
      </trkpt>
      <trkpt lat="48.43868" lon="7.11868">
        <ele>842</ele>
        <time>2019-05-15T10:16:25.078Z</time>
      </trkpt>
      <trkpt lat="48.43868" lon="7.11867">
        <ele>842</ele>
        <time>2019-05-15T10:16:26.078Z</time>
      </trkpt>
      <trkpt lat="48.43868" lon="7.11865">
        <ele>842</ele>
        <time>2019-05-15T10:16:27.078Z</time>
      </trkpt>
      <trkpt lat="48.43869" lon="7.11864">
        <ele>841</ele>
        <time>2019-05-15T10:16:28.078Z</time>
      </trkpt>
      <trkpt lat="48.43869" lon="7.11862">
        <ele>841</ele>
        <time>2019-05-15T10:16:29.078Z</time>
      </trkpt>
      <trkpt lat="48.43869" lon="7.11861">
        <ele>841</ele>
        <time>2019-05-15T10:16:30.078Z</time>
      </trkpt>
      <trkpt lat="48.4387" lon="7.11859">
        <ele>841</ele>
        <time>2019-05-15T10:16:31.078Z</time>
      </trkpt>
      <trkpt lat="48.4387" lon="7.11858">
        <ele>840</ele>
        <time>2019-05-15T10:16:32.078Z</time>
      </trkpt>
      <trkpt lat="48.43871" lon="7.11856">
        <ele>840</ele>
        <time>2019-05-15T10:16:33.078Z</time>
      </trkpt>
      <trkpt lat="48.43871" lon="7.11855">
        <ele>840</ele>
        <time>2019-05-15T10:16:34.078Z</time>
      </trkpt>
      <trkpt lat="48.43872" lon="7.11854">
        <ele>840</ele>
        <time>2019-05-15T10:16:35.078Z</time>
      </trkpt>
      <trkpt lat="48.43872" lon="7.11852">
        <ele>840</ele>
        <time>2019-05-15T10:16:36.078Z</time>
      </trkpt>
      <trkpt lat="48.43872" lon="7.11851">
        <ele>840</ele>
        <time>2019-05-15T10:16:37.078Z</time>
      </trkpt>
      <trkpt lat="48.43872" lon="7.1185">
        <ele>840</ele>
        <time>2019-05-15T10:16:38.078Z</time>
      </trkpt>
      <trkpt lat="48.43872" lon="7.11848">
        <ele>839</ele>
        <time>2019-05-15T10:16:39.078Z</time>
      </trkpt>
      <trkpt lat="48.43872" lon="7.11847">
        <ele>839</ele>
        <time>2019-05-15T10:16:40.078Z</time>
      </trkpt>
      <trkpt lat="48.43872" lon="7.11846">
        <ele>839</ele>
        <time>2019-05-15T10:16:41.078Z</time>
      </trkpt>
      <trkpt lat="48.43873" lon="7.11844">
        <ele>839</ele>
        <time>2019-05-15T10:16:42.078Z</time>
      </trkpt>
      <trkpt lat="48.43873" lon="7.11843">
        <ele>839</ele>
        <time>2019-05-15T10:16:43.078Z</time>
      </trkpt>
      <trkpt lat="48.43873" lon="7.11842">
        <ele>839</ele>
        <time>2019-05-15T10:16:44.078Z</time>
      </trkpt>
      <trkpt lat="48.43873" lon="7.1184">
        <ele>839</ele>
        <time>2019-05-15T10:16:45.078Z</time>
      </trkpt>
      <trkpt lat="48.43873" lon="7.11839">
        <ele>839</ele>
        <time>2019-05-15T10:16:46.078Z</time>
      </trkpt>
      <trkpt lat="48.43874" lon="7.11838">
        <ele>839</ele>
        <time>2019-05-15T10:16:47.078Z</time>
      </trkpt>
      <trkpt lat="48.43874" lon="7.11836">
        <ele>840</ele>
        <time>2019-05-15T10:16:48.078Z</time>
      </trkpt>
      <trkpt lat="48.43874" lon="7.11835">
        <ele>840</ele>
        <time>2019-05-15T10:16:49.078Z</time>
      </trkpt>
      <trkpt lat="48.43874" lon="7.11834">
        <ele>840</ele>
        <time>2019-05-15T10:16:50.078Z</time>
      </trkpt>
      <trkpt lat="48.43874" lon="7.11833">
        <ele>840</ele>
        <time>2019-05-15T10:16:51.078Z</time>
      </trkpt>
      <trkpt lat="48.43874" lon="7.11831">
        <ele>841</ele>
        <time>2019-05-15T10:16:52.078Z</time>
      </trkpt>
      <trkpt lat="48.43874" lon="7.1183">
        <ele>841</ele>
        <time>2019-05-15T10:16:53.078Z</time>
      </trkpt>
      <trkpt lat="48.43874" lon="7.11829">
        <ele>841</ele>
        <time>2019-05-15T10:16:54.078Z</time>
      </trkpt>
      <trkpt lat="48.43874" lon="7.11827">
        <ele>841</ele>
        <time>2019-05-15T10:16:55.078Z</time>
      </trkpt>
      <trkpt lat="48.43875" lon="7.11826">
        <ele>841</ele>
        <time>2019-05-15T10:16:56.078Z</time>
      </trkpt>
      <trkpt lat="48.43875" lon="7.11825">
        <ele>841</ele>
        <time>2019-05-15T10:16:57.078Z</time>
      </trkpt>
      <trkpt lat="48.43875" lon="7.11823">
        <ele>841</ele>
        <time>2019-05-15T10:16:58.078Z</time>
      </trkpt>
      <trkpt lat="48.43875" lon="7.11822">
        <ele>841</ele>
        <time>2019-05-15T10:16:59.078Z</time>
      </trkpt>
      <trkpt lat="48.43875" lon="7.11821">
        <ele>841</ele>
        <time>2019-05-15T10:17:00.078Z</time>
      </trkpt>
      <trkpt lat="48.43876" lon="7.11819">
        <ele>841</ele>
        <time>2019-05-15T10:17:01.078Z</time>
      </trkpt>
      <trkpt lat="48.43876" lon="7.11818">
        <ele>841</ele>
        <time>2019-05-15T10:17:02.078Z</time>
      </trkpt>
      <trkpt lat="48.43876" lon="7.11816">
        <ele>841</ele>
        <time>2019-05-15T10:17:03.078Z</time>
      </trkpt>
      <trkpt lat="48.43876" lon="7.11815">
        <ele>842</ele>
        <time>2019-05-15T10:17:04.078Z</time>
      </trkpt>
      <trkpt lat="48.43876" lon="7.11814">
        <ele>842</ele>
        <time>2019-05-15T10:17:05.078Z</time>
      </trkpt>
      <trkpt lat="48.43875" lon="7.11812">
        <ele>842</ele>
        <time>2019-05-15T10:17:06.078Z</time>
      </trkpt>
      <trkpt lat="48.43875" lon="7.11811">
        <ele>842</ele>
        <time>2019-05-15T10:17:07.078Z</time>
      </trkpt>
      <trkpt lat="48.43875" lon="7.11809">
        <ele>843</ele>
        <time>2019-05-15T10:17:08.078Z</time>
      </trkpt>
      <trkpt lat="48.43875" lon="7.11808">
        <ele>844</ele>
        <time>2019-05-15T10:17:09.078Z</time>
      </trkpt>
      <trkpt lat="48.43875" lon="7.11806">
        <ele>844</ele>
        <time>2019-05-15T10:17:10.078Z</time>
      </trkpt>
      <trkpt lat="48.43874" lon="7.11805">
        <ele>844</ele>
        <time>2019-05-15T10:17:11.078Z</time>
      </trkpt>
      <trkpt lat="48.43874" lon="7.11804">
        <ele>845</ele>
        <time>2019-05-15T10:17:12.078Z</time>
      </trkpt>
      <trkpt lat="48.43874" lon="7.11803">
        <ele>846</ele>
        <time>2019-05-15T10:17:13.078Z</time>
      </trkpt>
      <trkpt lat="48.43873" lon="7.11802">
        <ele>847</ele>
        <time>2019-05-15T10:17:14.078Z</time>
      </trkpt>
      <trkpt lat="48.43873" lon="7.11801">
        <ele>848</ele>
        <time>2019-05-15T10:17:15.078Z</time>
      </trkpt>
      <trkpt lat="48.43873" lon="7.118">
        <ele>848</ele>
        <time>2019-05-15T10:17:16.078Z</time>
      </trkpt>
      <trkpt lat="48.43872" lon="7.11798">
        <ele>849</ele>
        <time>2019-05-15T10:17:17.078Z</time>
      </trkpt>
      <trkpt lat="48.43872" lon="7.11797">
        <ele>849</ele>
        <time>2019-05-15T10:17:18.078Z</time>
      </trkpt>
      <trkpt lat="48.43872" lon="7.11796">
        <ele>848</ele>
        <time>2019-05-15T10:17:19.078Z</time>
      </trkpt>
      <trkpt lat="48.43871" lon="7.11794">
        <ele>848</ele>
        <time>2019-05-15T10:17:20.078Z</time>
      </trkpt>
      <trkpt lat="48.43871" lon="7.11793">
        <ele>850</ele>
        <time>2019-05-15T10:17:21.078Z</time>
      </trkpt>
      <trkpt lat="48.43871" lon="7.11792">
        <ele>850</ele>
        <time>2019-05-15T10:17:22.078Z</time>
      </trkpt>
      <trkpt lat="48.4387" lon="7.11791">
        <ele>851</ele>
        <time>2019-05-15T10:17:23.078Z</time>
      </trkpt>
      <trkpt lat="48.4387" lon="7.1179">
        <ele>851</ele>
        <time>2019-05-15T10:17:24.078Z</time>
      </trkpt>
      <trkpt lat="48.4387" lon="7.11789">
        <ele>852</ele>
        <time>2019-05-15T10:17:25.078Z</time>
      </trkpt>
      <trkpt lat="48.4387" lon="7.11787">
        <ele>853</ele>
        <time>2019-05-15T10:17:26.078Z</time>
      </trkpt>
      <trkpt lat="48.43869" lon="7.11786">
        <ele>854</ele>
        <time>2019-05-15T10:17:27.078Z</time>
      </trkpt>
      <trkpt lat="48.43869" lon="7.11785">
        <ele>854</ele>
        <time>2019-05-15T10:17:28.078Z</time>
      </trkpt>
      <trkpt lat="48.43869" lon="7.11784">
        <ele>855</ele>
        <time>2019-05-15T10:17:29.078Z</time>
      </trkpt>
      <trkpt lat="48.43868" lon="7.11783">
        <ele>856</ele>
        <time>2019-05-15T10:17:30.078Z</time>
      </trkpt>
      <trkpt lat="48.43868" lon="7.11781">
        <ele>857</ele>
        <time>2019-05-15T10:17:31.078Z</time>
      </trkpt>
      <trkpt lat="48.43867" lon="7.1178">
        <ele>856</ele>
        <time>2019-05-15T10:17:32.078Z</time>
      </trkpt>
      <trkpt lat="48.43866" lon="7.11778">
        <ele>856</ele>
        <time>2019-05-15T10:17:33.078Z</time>
      </trkpt>
      <trkpt lat="48.43866" lon="7.11777">
        <ele>857</ele>
        <time>2019-05-15T10:17:34.078Z</time>
      </trkpt>
      <trkpt lat="48.43866" lon="7.11776">
        <ele>856</ele>
        <time>2019-05-15T10:17:35.078Z</time>
      </trkpt>
      <trkpt lat="48.43865" lon="7.11775">
        <ele>857</ele>
        <time>2019-05-15T10:17:36.078Z</time>
      </trkpt>
      <trkpt lat="48.43865" lon="7.11773">
        <ele>857</ele>
        <time>2019-05-15T10:17:37.078Z</time>
      </trkpt>
      <trkpt lat="48.43865" lon="7.11772">
        <ele>859</ele>
        <time>2019-05-15T10:17:38.078Z</time>
      </trkpt>
      <trkpt lat="48.43864" lon="7.11771">
        <ele>860</ele>
        <time>2019-05-15T10:17:39.078Z</time>
      </trkpt>
      <trkpt lat="48.43864" lon="7.1177">
        <ele>861</ele>
        <time>2019-05-15T10:17:40.078Z</time>
      </trkpt>
      <trkpt lat="48.43863" lon="7.11769">
        <ele>861</ele>
        <time>2019-05-15T10:17:41.078Z</time>
      </trkpt>
      <trkpt lat="48.43863" lon="7.11768">
        <ele>861</ele>
        <time>2019-05-15T10:17:42.078Z</time>
      </trkpt>
      <trkpt lat="48.43863" lon="7.11767">
        <ele>862</ele>
        <time>2019-05-15T10:17:43.078Z</time>
      </trkpt>
      <trkpt lat="48.43863" lon="7.11766">
        <ele>863</ele>
        <time>2019-05-15T10:17:44.078Z</time>
      </trkpt>
      <trkpt lat="48.43862" lon="7.11765">
        <ele>863</ele>
        <time>2019-05-15T10:17:45.078Z</time>
      </trkpt>
      <trkpt lat="48.43862" lon="7.11764">
        <ele>864</ele>
        <time>2019-05-15T10:17:46.078Z</time>
      </trkpt>
      <trkpt lat="48.43862" lon="7.11762">
        <ele>865</ele>
        <time>2019-05-15T10:17:47.078Z</time>
      </trkpt>
      <trkpt lat="48.43861" lon="7.11761">
        <ele>866</ele>
        <time>2019-05-15T10:17:48.078Z</time>
      </trkpt>
      <trkpt lat="48.43861" lon="7.1176">
        <ele>867</ele>
        <time>2019-05-15T10:17:49.078Z</time>
      </trkpt>
      <trkpt lat="48.4386" lon="7.11759">
        <ele>868</ele>
        <time>2019-05-15T10:17:50.078Z</time>
      </trkpt>
      <trkpt lat="48.4386" lon="7.11758">
        <ele>869</ele>
        <time>2019-05-15T10:17:51.078Z</time>
      </trkpt>
      <trkpt lat="48.43859" lon="7.11757">
        <ele>869</ele>
        <time>2019-05-15T10:17:52.078Z</time>
      </trkpt>
      <trkpt lat="48.43859" lon="7.11755">
        <ele>869</ele>
        <time>2019-05-15T10:17:53.078Z</time>
      </trkpt>
      <trkpt lat="48.43858" lon="7.11754">
        <ele>869</ele>
        <time>2019-05-15T10:17:54.078Z</time>
      </trkpt>
      <trkpt lat="48.43857" lon="7.11753">
        <ele>870</ele>
        <time>2019-05-15T10:17:55.078Z</time>
      </trkpt>
      <trkpt lat="48.43857" lon="7.11751">
        <ele>870</ele>
        <time>2019-05-15T10:17:56.078Z</time>
      </trkpt>
      <trkpt lat="48.43856" lon="7.1175">
        <ele>870</ele>
        <time>2019-05-15T10:17:57.078Z</time>
      </trkpt>
      <trkpt lat="48.43856" lon="7.11748">
        <ele>870</ele>
        <time>2019-05-15T10:17:58.078Z</time>
      </trkpt>
      <trkpt lat="48.43856" lon="7.11747">
        <ele>870</ele>
        <time>2019-05-15T10:17:59.078Z</time>
      </trkpt>
      <trkpt lat="48.43855" lon="7.11745">
        <ele>870</ele>
        <time>2019-05-15T10:18:00.078Z</time>
      </trkpt>
      <trkpt lat="48.43855" lon="7.11744">
        <ele>870</ele>
        <time>2019-05-15T10:18:01.078Z</time>
      </trkpt>
      <trkpt lat="48.43855" lon="7.11743">
        <ele>871</ele>
        <time>2019-05-15T10:18:02.078Z</time>
      </trkpt>
      <trkpt lat="48.43854" lon="7.11742">
        <ele>872</ele>
        <time>2019-05-15T10:18:03.078Z</time>
      </trkpt>
      <trkpt lat="48.43854" lon="7.11741">
        <ele>872</ele>
        <time>2019-05-15T10:18:04.078Z</time>
      </trkpt>
      <trkpt lat="48.43854" lon="7.11739">
        <ele>872</ele>
        <time>2019-05-15T10:18:05.078Z</time>
      </trkpt>
      <trkpt lat="48.43854" lon="7.11738">
        <ele>873</ele>
        <time>2019-05-15T10:18:06.078Z</time>
      </trkpt>
      <trkpt lat="48.43853" lon="7.11737">
        <ele>872</ele>
        <time>2019-05-15T10:18:07.078Z</time>
      </trkpt>
      <trkpt lat="48.43853" lon="7.11736">
        <ele>872</ele>
        <time>2019-05-15T10:18:08.078Z</time>
      </trkpt>
      <trkpt lat="48.43853" lon="7.11735">
        <ele>872</ele>
        <time>2019-05-15T10:18:09.078Z</time>
      </trkpt>
      <trkpt lat="48.43853" lon="7.11733">
        <ele>872</ele>
        <time>2019-05-15T10:18:10.078Z</time>
      </trkpt>
      <trkpt lat="48.43852" lon="7.11732">
        <ele>871</ele>
        <time>2019-05-15T10:18:11.078Z</time>
      </trkpt>
      <trkpt lat="48.43852" lon="7.1173">
        <ele>869</ele>
        <time>2019-05-15T10:18:12.078Z</time>
      </trkpt>
      <trkpt lat="48.43851" lon="7.11728">
        <ele>869</ele>
        <time>2019-05-15T10:18:13.078Z</time>
      </trkpt>
      <trkpt lat="48.43851" lon="7.11726">
        <ele>869</ele>
        <time>2019-05-15T10:18:14.078Z</time>
      </trkpt>
      <trkpt lat="48.43851" lon="7.11725">
        <ele>868</ele>
        <time>2019-05-15T10:18:15.078Z</time>
      </trkpt>
      <trkpt lat="48.4385" lon="7.11724">
        <ele>869</ele>
        <time>2019-05-15T10:18:16.078Z</time>
      </trkpt>
      <trkpt lat="48.4385" lon="7.11723">
        <ele>869</ele>
        <time>2019-05-15T10:18:17.078Z</time>
      </trkpt>
      <trkpt lat="48.43849" lon="7.11721">
        <ele>868</ele>
        <time>2019-05-15T10:18:18.078Z</time>
      </trkpt>
      <trkpt lat="48.43849" lon="7.1172">
        <ele>867</ele>
        <time>2019-05-15T10:18:19.078Z</time>
      </trkpt>
      <trkpt lat="48.43849" lon="7.11719">
        <ele>867</ele>
        <time>2019-05-15T10:18:20.078Z</time>
      </trkpt>
      <trkpt lat="48.43849" lon="7.11717">
        <ele>867</ele>
        <time>2019-05-15T10:18:21.078Z</time>
      </trkpt>
      <trkpt lat="48.43848" lon="7.11716">
        <ele>866</ele>
        <time>2019-05-15T10:18:22.078Z</time>
      </trkpt>
      <trkpt lat="48.43848" lon="7.11715">
        <ele>866</ele>
        <time>2019-05-15T10:18:23.078Z</time>
      </trkpt>
      <trkpt lat="48.43848" lon="7.11713">
        <ele>866</ele>
        <time>2019-05-15T10:18:24.078Z</time>
      </trkpt>
      <trkpt lat="48.43848" lon="7.11712">
        <ele>866</ele>
        <time>2019-05-15T10:18:25.078Z</time>
      </trkpt>
      <trkpt lat="48.43848" lon="7.11711">
        <ele>866</ele>
        <time>2019-05-15T10:18:26.078Z</time>
      </trkpt>
      <trkpt lat="48.43847" lon="7.1171">
        <ele>866</ele>
        <time>2019-05-15T10:18:27.078Z</time>
      </trkpt>
      <trkpt lat="48.43847" lon="7.11708">
        <ele>865</ele>
        <time>2019-05-15T10:18:28.078Z</time>
      </trkpt>
      <trkpt lat="48.43846" lon="7.11707">
        <ele>866</ele>
        <time>2019-05-15T10:18:29.078Z</time>
      </trkpt>
      <trkpt lat="48.43846" lon="7.11706">
        <ele>865</ele>
        <time>2019-05-15T10:18:30.078Z</time>
      </trkpt>
      <trkpt lat="48.43846" lon="7.11705">
        <ele>865</ele>
        <time>2019-05-15T10:18:31.078Z</time>
      </trkpt>
      <trkpt lat="48.43846" lon="7.11704">
        <ele>866</ele>
        <time>2019-05-15T10:18:32.078Z</time>
      </trkpt>
      <trkpt lat="48.43845" lon="7.11703">
        <ele>866</ele>
        <time>2019-05-15T10:18:33.078Z</time>
      </trkpt>
      <trkpt lat="48.43845" lon="7.11701">
        <ele>867</ele>
        <time>2019-05-15T10:18:34.078Z</time>
      </trkpt>
      <trkpt lat="48.43844" lon="7.117">
        <ele>868</ele>
        <time>2019-05-15T10:18:35.078Z</time>
      </trkpt>
      <trkpt lat="48.43844" lon="7.11698">
        <ele>868</ele>
        <time>2019-05-15T10:18:36.078Z</time>
      </trkpt>
      <trkpt lat="48.43843" lon="7.11697">
        <ele>868</ele>
        <time>2019-05-15T10:18:37.078Z</time>
      </trkpt>
      <trkpt lat="48.43843" lon="7.11696">
        <ele>868</ele>
        <time>2019-05-15T10:18:38.078Z</time>
      </trkpt>
      <trkpt lat="48.43842" lon="7.11694">
        <ele>868</ele>
        <time>2019-05-15T10:18:39.078Z</time>
      </trkpt>
      <trkpt lat="48.43842" lon="7.11693">
        <ele>868</ele>
        <time>2019-05-15T10:18:40.078Z</time>
      </trkpt>
      <trkpt lat="48.43842" lon="7.11691">
        <ele>869</ele>
        <time>2019-05-15T10:18:41.078Z</time>
      </trkpt>
      <trkpt lat="48.43841" lon="7.1169">
        <ele>870</ele>
        <time>2019-05-15T10:18:42.078Z</time>
      </trkpt>
      <trkpt lat="48.43841" lon="7.11689">
        <ele>868</ele>
        <time>2019-05-15T10:18:43.078Z</time>
      </trkpt>
      <trkpt lat="48.4384" lon="7.11687">
        <ele>868</ele>
        <time>2019-05-15T10:18:44.078Z</time>
      </trkpt>
      <trkpt lat="48.4384" lon="7.11686">
        <ele>868</ele>
        <time>2019-05-15T10:18:45.078Z</time>
      </trkpt>
      <trkpt lat="48.4384" lon="7.11685">
        <ele>869</ele>
        <time>2019-05-15T10:18:46.078Z</time>
      </trkpt>
      <trkpt lat="48.43839" lon="7.11684">
        <ele>869</ele>
        <time>2019-05-15T10:18:47.078Z</time>
      </trkpt>
      <trkpt lat="48.43839" lon="7.11683">
        <ele>870</ele>
        <time>2019-05-15T10:18:48.078Z</time>
      </trkpt>
      <trkpt lat="48.43838" lon="7.11682">
        <ele>870</ele>
        <time>2019-05-15T10:18:49.078Z</time>
      </trkpt>
      <trkpt lat="48.43838" lon="7.11681">
        <ele>869</ele>
        <time>2019-05-15T10:18:50.078Z</time>
      </trkpt>
      <trkpt lat="48.43838" lon="7.1168">
        <ele>869</ele>
        <time>2019-05-15T10:18:51.078Z</time>
      </trkpt>
      <trkpt lat="48.43838" lon="7.11679">
        <ele>868</ele>
        <time>2019-05-15T10:18:52.078Z</time>
      </trkpt>
      <trkpt lat="48.43838" lon="7.11678">
        <ele>868</ele>
        <time>2019-05-15T10:18:53.078Z</time>
      </trkpt>
      <trkpt lat="48.43837" lon="7.11677">
        <ele>869</ele>
        <time>2019-05-15T10:18:54.078Z</time>
      </trkpt>
      <trkpt lat="48.43837" lon="7.11676">
        <ele>869</ele>
        <time>2019-05-15T10:18:55.078Z</time>
      </trkpt>
      <trkpt lat="48.43836" lon="7.11675">
        <ele>869</ele>
        <time>2019-05-15T10:18:56.078Z</time>
      </trkpt>
      <trkpt lat="48.43836" lon="7.11674">
        <ele>869</ele>
        <time>2019-05-15T10:18:57.078Z</time>
      </trkpt>
      <trkpt lat="48.43836" lon="7.11673">
        <ele>869</ele>
        <time>2019-05-15T10:18:58.078Z</time>
      </trkpt>
      <trkpt lat="48.43835" lon="7.11671">
        <ele>868</ele>
        <time>2019-05-15T10:18:59.078Z</time>
      </trkpt>
      <trkpt lat="48.43835" lon="7.1167">
        <ele>867</ele>
        <time>2019-05-15T10:19:00.078Z</time>
      </trkpt>
      <trkpt lat="48.43835" lon="7.11669">
        <ele>867</ele>
        <time>2019-05-15T10:19:01.078Z</time>
      </trkpt>
      <trkpt lat="48.43835" lon="7.11667">
        <ele>866</ele>
        <time>2019-05-15T10:19:02.078Z</time>
      </trkpt>
      <trkpt lat="48.43835" lon="7.11666">
        <ele>866</ele>
        <time>2019-05-15T10:19:03.078Z</time>
      </trkpt>
      <trkpt lat="48.43834" lon="7.11665">
        <ele>865</ele>
        <time>2019-05-15T10:19:04.078Z</time>
      </trkpt>
      <trkpt lat="48.43834" lon="7.11664">
        <ele>865</ele>
        <time>2019-05-15T10:19:05.078Z</time>
      </trkpt>
      <trkpt lat="48.43834" lon="7.11662">
        <ele>865</ele>
        <time>2019-05-15T10:19:06.078Z</time>
      </trkpt>
      <trkpt lat="48.43834" lon="7.11661">
        <ele>865</ele>
        <time>2019-05-15T10:19:07.078Z</time>
      </trkpt>
      <trkpt lat="48.43834" lon="7.1166">
        <ele>865</ele>
        <time>2019-05-15T10:19:08.078Z</time>
      </trkpt>
      <trkpt lat="48.43834" lon="7.11658">
        <ele>864</ele>
        <time>2019-05-15T10:19:09.078Z</time>
      </trkpt>
      <trkpt lat="48.43834" lon="7.11657">
        <ele>864</ele>
        <time>2019-05-15T10:19:10.078Z</time>
      </trkpt>
      <trkpt lat="48.43833" lon="7.11655">
        <ele>864</ele>
        <time>2019-05-15T10:19:11.078Z</time>
      </trkpt>
      <trkpt lat="48.43833" lon="7.11654">
        <ele>863</ele>
        <time>2019-05-15T10:19:12.078Z</time>
      </trkpt>
      <trkpt lat="48.43833" lon="7.11652">
        <ele>863</ele>
        <time>2019-05-15T10:19:13.078Z</time>
      </trkpt>
      <trkpt lat="48.43832" lon="7.11651">
        <ele>864</ele>
        <time>2019-05-15T10:19:14.078Z</time>
      </trkpt>
      <trkpt lat="48.43832" lon="7.1165">
        <ele>865</ele>
        <time>2019-05-15T10:19:15.078Z</time>
      </trkpt>
      <trkpt lat="48.43831" lon="7.11649">
        <ele>865</ele>
        <time>2019-05-15T10:19:16.078Z</time>
      </trkpt>
      <trkpt lat="48.43831" lon="7.11648">
        <ele>864</ele>
        <time>2019-05-15T10:19:17.078Z</time>
      </trkpt>
      <trkpt lat="48.43831" lon="7.11646">
        <ele>865</ele>
        <time>2019-05-15T10:19:18.078Z</time>
      </trkpt>
      <trkpt lat="48.4383" lon="7.11645">
        <ele>865</ele>
        <time>2019-05-15T10:19:19.078Z</time>
      </trkpt>
      <trkpt lat="48.4383" lon="7.11643">
        <ele>864</ele>
        <time>2019-05-15T10:19:20.078Z</time>
      </trkpt>
      <trkpt lat="48.4383" lon="7.11642">
        <ele>865</ele>
        <time>2019-05-15T10:19:21.078Z</time>
      </trkpt>
      <trkpt lat="48.43829" lon="7.1164">
        <ele>865</ele>
        <time>2019-05-15T10:19:22.078Z</time>
      </trkpt>
      <trkpt lat="48.43829" lon="7.11639">
        <ele>865</ele>
        <time>2019-05-15T10:19:23.078Z</time>
      </trkpt>
      <trkpt lat="48.43828" lon="7.11638">
        <ele>865</ele>
        <time>2019-05-15T10:19:24.078Z</time>
      </trkpt>
      <trkpt lat="48.43828" lon="7.11636">
        <ele>866</ele>
        <time>2019-05-15T10:19:25.078Z</time>
      </trkpt>
      <trkpt lat="48.43827" lon="7.11635">
        <ele>866</ele>
        <time>2019-05-15T10:19:26.078Z</time>
      </trkpt>
      <trkpt lat="48.43827" lon="7.11634">
        <ele>866</ele>
        <time>2019-05-15T10:19:27.078Z</time>
      </trkpt>
      <trkpt lat="48.43826" lon="7.11633">
        <ele>865</ele>
        <time>2019-05-15T10:19:28.078Z</time>
      </trkpt>
      <trkpt lat="48.43826" lon="7.11632">
        <ele>866</ele>
        <time>2019-05-15T10:19:29.078Z</time>
      </trkpt>
      <trkpt lat="48.43825" lon="7.11631">
        <ele>866</ele>
        <time>2019-05-15T10:19:30.078Z</time>
      </trkpt>
      <trkpt lat="48.43824" lon="7.1163">
        <ele>865</ele>
        <time>2019-05-15T10:19:31.078Z</time>
      </trkpt>
      <trkpt lat="48.43824" lon="7.11629">
        <ele>866</ele>
        <time>2019-05-15T10:19:32.078Z</time>
      </trkpt>
      <trkpt lat="48.43824" lon="7.11627">
        <ele>866</ele>
        <time>2019-05-15T10:19:33.078Z</time>
      </trkpt>
      <trkpt lat="48.43824" lon="7.11626">
        <ele>865</ele>
        <time>2019-05-15T10:19:34.078Z</time>
      </trkpt>
      <trkpt lat="48.43823" lon="7.11624">
        <ele>865</ele>
        <time>2019-05-15T10:19:35.078Z</time>
      </trkpt>
      <trkpt lat="48.43823" lon="7.11623">
        <ele>865</ele>
        <time>2019-05-15T10:19:36.078Z</time>
      </trkpt>
      <trkpt lat="48.43823" lon="7.11622">
        <ele>865</ele>
        <time>2019-05-15T10:19:37.078Z</time>
      </trkpt>
      <trkpt lat="48.43822" lon="7.1162">
        <ele>865</ele>
        <time>2019-05-15T10:19:38.078Z</time>
      </trkpt>
      <trkpt lat="48.43822" lon="7.11619">
        <ele>865</ele>
        <time>2019-05-15T10:19:39.078Z</time>
      </trkpt>
      <trkpt lat="48.43822" lon="7.11618">
        <ele>865</ele>
        <time>2019-05-15T10:19:40.078Z</time>
      </trkpt>
      <trkpt lat="48.43821" lon="7.11616">
        <ele>865</ele>
        <time>2019-05-15T10:19:41.078Z</time>
      </trkpt>
      <trkpt lat="48.4382" lon="7.11615">
        <ele>865</ele>
        <time>2019-05-15T10:19:42.078Z</time>
      </trkpt>
      <trkpt lat="48.4382" lon="7.11614">
        <ele>865</ele>
        <time>2019-05-15T10:19:43.078Z</time>
      </trkpt>
      <trkpt lat="48.43819" lon="7.11613">
        <ele>866</ele>
        <time>2019-05-15T10:19:44.078Z</time>
      </trkpt>
      <trkpt lat="48.43819" lon="7.11612">
        <ele>866</ele>
        <time>2019-05-15T10:19:45.078Z</time>
      </trkpt>
      <trkpt lat="48.43818" lon="7.11611">
        <ele>866</ele>
        <time>2019-05-15T10:19:46.078Z</time>
      </trkpt>
      <trkpt lat="48.43818" lon="7.11609">
        <ele>866</ele>
        <time>2019-05-15T10:19:47.078Z</time>
      </trkpt>
      <trkpt lat="48.43817" lon="7.11608">
        <ele>867</ele>
        <time>2019-05-15T10:19:48.078Z</time>
      </trkpt>
      <trkpt lat="48.43817" lon="7.11607">
        <ele>867</ele>
        <time>2019-05-15T10:19:49.078Z</time>
      </trkpt>
      <trkpt lat="48.43817" lon="7.11605">
        <ele>868</ele>
        <time>2019-05-15T10:19:50.078Z</time>
      </trkpt>
      <trkpt lat="48.43816" lon="7.11603">
        <ele>868</ele>
        <time>2019-05-15T10:19:51.078Z</time>
      </trkpt>
      <trkpt lat="48.43816" lon="7.11602">
        <ele>869</ele>
        <time>2019-05-15T10:19:52.078Z</time>
      </trkpt>
      <trkpt lat="48.43816" lon="7.116">
        <ele>869</ele>
        <time>2019-05-15T10:19:53.078Z</time>
      </trkpt>
      <trkpt lat="48.43815" lon="7.11599">
        <ele>869</ele>
        <time>2019-05-15T10:19:54.078Z</time>
      </trkpt>
      <trkpt lat="48.43815" lon="7.11598">
        <ele>869</ele>
        <time>2019-05-15T10:19:55.078Z</time>
      </trkpt>
      <trkpt lat="48.43815" lon="7.11596">
        <ele>869</ele>
        <time>2019-05-15T10:19:56.078Z</time>
      </trkpt>
      <trkpt lat="48.43814" lon="7.11595">
        <ele>869</ele>
        <time>2019-05-15T10:19:57.078Z</time>
      </trkpt>
      <trkpt lat="48.43814" lon="7.11593">
        <ele>870</ele>
        <time>2019-05-15T10:19:58.078Z</time>
      </trkpt>
      <trkpt lat="48.43814" lon="7.11592">
        <ele>870</ele>
        <time>2019-05-15T10:19:59.078Z</time>
      </trkpt>
      <trkpt lat="48.43815" lon="7.1159">
        <ele>866</ele>
        <time>2019-05-15T10:20:00.078Z</time>
      </trkpt>
      <trkpt lat="48.43815" lon="7.11588">
        <ele>865</ele>
        <time>2019-05-15T10:20:01.078Z</time>
      </trkpt>
      <trkpt lat="48.43816" lon="7.11585">
        <ele>865</ele>
        <time>2019-05-15T10:20:02.078Z</time>
      </trkpt>
      <trkpt lat="48.43816" lon="7.11584">
        <ele>865</ele>
        <time>2019-05-15T10:20:03.078Z</time>
      </trkpt>
      <trkpt lat="48.43816" lon="7.11582">
        <ele>864</ele>
        <time>2019-05-15T10:20:04.078Z</time>
      </trkpt>
      <trkpt lat="48.43816" lon="7.11581">
        <ele>863</ele>
        <time>2019-05-15T10:20:05.078Z</time>
      </trkpt>
      <trkpt lat="48.43816" lon="7.11579">
        <ele>861</ele>
        <time>2019-05-15T10:20:06.078Z</time>
      </trkpt>
      <trkpt lat="48.43816" lon="7.11578">
        <ele>861</ele>
        <time>2019-05-15T10:20:07.078Z</time>
      </trkpt>
      <trkpt lat="48.43816" lon="7.11576">
        <ele>861</ele>
        <time>2019-05-15T10:20:08.078Z</time>
      </trkpt>
      <trkpt lat="48.43816" lon="7.11574">
        <ele>860</ele>
        <time>2019-05-15T10:20:09.078Z</time>
      </trkpt>
      <trkpt lat="48.43816" lon="7.11573">
        <ele>860</ele>
        <time>2019-05-15T10:20:10.078Z</time>
      </trkpt>
      <trkpt lat="48.43816" lon="7.11571">
        <ele>860</ele>
        <time>2019-05-15T10:20:11.078Z</time>
      </trkpt>
      <trkpt lat="48.43816" lon="7.11569">
        <ele>859</ele>
        <time>2019-05-15T10:20:12.078Z</time>
      </trkpt>
      <trkpt lat="48.43816" lon="7.11568">
        <ele>860</ele>
        <time>2019-05-15T10:20:13.078Z</time>
      </trkpt>
      <trkpt lat="48.43816" lon="7.11566">
        <ele>860</ele>
        <time>2019-05-15T10:20:14.078Z</time>
      </trkpt>
      <trkpt lat="48.43816" lon="7.11565">
        <ele>860</ele>
        <time>2019-05-15T10:20:15.078Z</time>
      </trkpt>
      <trkpt lat="48.43816" lon="7.11563">
        <ele>860</ele>
        <time>2019-05-15T10:20:16.078Z</time>
      </trkpt>
      <trkpt lat="48.43816" lon="7.11561">
        <ele>860</ele>
        <time>2019-05-15T10:20:17.078Z</time>
      </trkpt>
      <trkpt lat="48.43816" lon="7.1156">
        <ele>860</ele>
        <time>2019-05-15T10:20:18.078Z</time>
      </trkpt>
      <trkpt lat="48.43816" lon="7.11558">
        <ele>860</ele>
        <time>2019-05-15T10:20:19.078Z</time>
      </trkpt>
      <trkpt lat="48.43816" lon="7.11557">
        <ele>860</ele>
        <time>2019-05-15T10:20:20.078Z</time>
      </trkpt>
      <trkpt lat="48.43816" lon="7.11555">
        <ele>860</ele>
        <time>2019-05-15T10:20:21.078Z</time>
      </trkpt>
      <trkpt lat="48.43816" lon="7.11554">
        <ele>860</ele>
        <time>2019-05-15T10:20:22.078Z</time>
      </trkpt>
      <trkpt lat="48.43816" lon="7.11552">
        <ele>860</ele>
        <time>2019-05-15T10:20:23.078Z</time>
      </trkpt>
      <trkpt lat="48.43816" lon="7.11551">
        <ele>860</ele>
        <time>2019-05-15T10:20:24.078Z</time>
      </trkpt>
      <trkpt lat="48.43816" lon="7.11549">
        <ele>860</ele>
        <time>2019-05-15T10:20:25.078Z</time>
      </trkpt>
      <trkpt lat="48.43816" lon="7.11548">
        <ele>860</ele>
        <time>2019-05-15T10:20:26.078Z</time>
      </trkpt>
      <trkpt lat="48.43816" lon="7.11546">
        <ele>860</ele>
        <time>2019-05-15T10:20:27.078Z</time>
      </trkpt>
      <trkpt lat="48.43816" lon="7.11545">
        <ele>860</ele>
        <time>2019-05-15T10:20:28.078Z</time>
      </trkpt>
      <trkpt lat="48.43817" lon="7.11543">
        <ele>859</ele>
        <time>2019-05-15T10:20:29.078Z</time>
      </trkpt>
      <trkpt lat="48.43817" lon="7.11542">
        <ele>859</ele>
        <time>2019-05-15T10:20:30.078Z</time>
      </trkpt>
      <trkpt lat="48.43817" lon="7.1154">
        <ele>858</ele>
        <time>2019-05-15T10:20:31.078Z</time>
      </trkpt>
      <trkpt lat="48.43818" lon="7.11539">
        <ele>858</ele>
        <time>2019-05-15T10:20:32.078Z</time>
      </trkpt>
      <trkpt lat="48.43818" lon="7.11537">
        <ele>858</ele>
        <time>2019-05-15T10:20:33.078Z</time>
      </trkpt>
      <trkpt lat="48.43818" lon="7.11536">
        <ele>859</ele>
        <time>2019-05-15T10:20:34.078Z</time>
      </trkpt>
      <trkpt lat="48.43818" lon="7.11535">
        <ele>858</ele>
        <time>2019-05-15T10:20:35.078Z</time>
      </trkpt>
      <trkpt lat="48.43819" lon="7.11533">
        <ele>859</ele>
        <time>2019-05-15T10:20:36.078Z</time>
      </trkpt>
      <trkpt lat="48.43819" lon="7.11532">
        <ele>859</ele>
        <time>2019-05-15T10:20:37.078Z</time>
      </trkpt>
      <trkpt lat="48.43819" lon="7.11531">
        <ele>859</ele>
        <time>2019-05-15T10:20:38.078Z</time>
      </trkpt>
      <trkpt lat="48.4382" lon="7.11529">
        <ele>859</ele>
        <time>2019-05-15T10:20:39.078Z</time>
      </trkpt>
      <trkpt lat="48.4382" lon="7.11528">
        <ele>859</ele>
        <time>2019-05-15T10:20:40.078Z</time>
      </trkpt>
      <trkpt lat="48.4382" lon="7.11526">
        <ele>859</ele>
        <time>2019-05-15T10:20:41.078Z</time>
      </trkpt>
      <trkpt lat="48.4382" lon="7.11525">
        <ele>860</ele>
        <time>2019-05-15T10:20:42.078Z</time>
      </trkpt>
      <trkpt lat="48.4382" lon="7.11524">
        <ele>860</ele>
        <time>2019-05-15T10:20:43.078Z</time>
      </trkpt>
      <trkpt lat="48.43821" lon="7.11522">
        <ele>860</ele>
        <time>2019-05-15T10:20:44.078Z</time>
      </trkpt>
      <trkpt lat="48.43821" lon="7.11521">
        <ele>860</ele>
        <time>2019-05-15T10:20:45.078Z</time>
      </trkpt>
      <trkpt lat="48.43821" lon="7.1152">
        <ele>860</ele>
        <time>2019-05-15T10:20:46.078Z</time>
      </trkpt>
      <trkpt lat="48.43822" lon="7.11518">
        <ele>860</ele>
        <time>2019-05-15T10:20:47.078Z</time>
      </trkpt>
      <trkpt lat="48.43822" lon="7.11517">
        <ele>860</ele>
        <time>2019-05-15T10:20:48.078Z</time>
      </trkpt>
      <trkpt lat="48.43822" lon="7.11515">
        <ele>860</ele>
        <time>2019-05-15T10:20:49.078Z</time>
      </trkpt>
      <trkpt lat="48.43823" lon="7.11514">
        <ele>860</ele>
        <time>2019-05-15T10:20:50.078Z</time>
      </trkpt>
      <trkpt lat="48.43823" lon="7.11513">
        <ele>860</ele>
        <time>2019-05-15T10:20:51.078Z</time>
      </trkpt>
      <trkpt lat="48.43823" lon="7.11511">
        <ele>860</ele>
        <time>2019-05-15T10:20:52.078Z</time>
      </trkpt>
      <trkpt lat="48.43824" lon="7.1151">
        <ele>860</ele>
        <time>2019-05-15T10:20:53.078Z</time>
      </trkpt>
      <trkpt lat="48.43824" lon="7.11509">
        <ele>860</ele>
        <time>2019-05-15T10:20:54.078Z</time>
      </trkpt>
      <trkpt lat="48.43824" lon="7.11508">
        <ele>860</ele>
        <time>2019-05-15T10:20:55.078Z</time>
      </trkpt>
      <trkpt lat="48.43825" lon="7.11507">
        <ele>860</ele>
        <time>2019-05-15T10:20:56.078Z</time>
      </trkpt>
      <trkpt lat="48.43825" lon="7.11505">
        <ele>860</ele>
        <time>2019-05-15T10:20:57.078Z</time>
      </trkpt>
      <trkpt lat="48.43825" lon="7.11504">
        <ele>860</ele>
        <time>2019-05-15T10:20:58.078Z</time>
      </trkpt>
      <trkpt lat="48.43826" lon="7.11502">
        <ele>860</ele>
        <time>2019-05-15T10:20:59.078Z</time>
      </trkpt>
      <trkpt lat="48.43826" lon="7.11501">
        <ele>860</ele>
        <time>2019-05-15T10:21:00.078Z</time>
      </trkpt>
      <trkpt lat="48.43826" lon="7.115">
        <ele>860</ele>
        <time>2019-05-15T10:21:01.078Z</time>
      </trkpt>
      <trkpt lat="48.43827" lon="7.11499">
        <ele>860</ele>
        <time>2019-05-15T10:21:02.078Z</time>
      </trkpt>
      <trkpt lat="48.43827" lon="7.11497">
        <ele>860</ele>
        <time>2019-05-15T10:21:03.078Z</time>
      </trkpt>
      <trkpt lat="48.43828" lon="7.11496">
        <ele>860</ele>
        <time>2019-05-15T10:21:04.078Z</time>
      </trkpt>
      <trkpt lat="48.43828" lon="7.11495">
        <ele>860</ele>
        <time>2019-05-15T10:21:05.078Z</time>
      </trkpt>
      <trkpt lat="48.43828" lon="7.11494">
        <ele>860</ele>
        <time>2019-05-15T10:21:06.078Z</time>
      </trkpt>
      <trkpt lat="48.43828" lon="7.11493">
        <ele>861</ele>
        <time>2019-05-15T10:21:07.078Z</time>
      </trkpt>
      <trkpt lat="48.43828" lon="7.11492">
        <ele>861</ele>
        <time>2019-05-15T10:21:08.078Z</time>
      </trkpt>
      <trkpt lat="48.43828" lon="7.11491">
        <ele>861</ele>
        <time>2019-05-15T10:21:09.078Z</time>
      </trkpt>
      <trkpt lat="48.43829" lon="7.1149">
        <ele>861</ele>
        <time>2019-05-15T10:21:10.078Z</time>
      </trkpt>
      <trkpt lat="48.43829" lon="7.11488">
        <ele>861</ele>
        <time>2019-05-15T10:21:11.078Z</time>
      </trkpt>
      <trkpt lat="48.4383" lon="7.11487">
        <ele>861</ele>
        <time>2019-05-15T10:21:12.078Z</time>
      </trkpt>
      <trkpt lat="48.4383" lon="7.11486">
        <ele>861</ele>
        <time>2019-05-15T10:21:13.078Z</time>
      </trkpt>
      <trkpt lat="48.43831" lon="7.11486">
        <ele>862</ele>
        <time>2019-05-15T10:21:14.078Z</time>
      </trkpt>
      <trkpt lat="48.43831" lon="7.11485">
        <ele>861</ele>
        <time>2019-05-15T10:21:15.078Z</time>
      </trkpt>
      <trkpt lat="48.43832" lon="7.11485">
        <ele>862</ele>
        <time>2019-05-15T10:21:16.078Z</time>
      </trkpt>
      <trkpt lat="48.43832" lon="7.11484">
        <ele>862</ele>
        <time>2019-05-15T10:21:17.078Z</time>
      </trkpt>
      <trkpt lat="48.43832" lon="7.11483">
        <ele>861</ele>
        <time>2019-05-15T10:21:18.078Z</time>
      </trkpt>
      <trkpt lat="48.43833" lon="7.11482">
        <ele>861</ele>
        <time>2019-05-15T10:21:19.078Z</time>
      </trkpt>
      <trkpt lat="48.43833" lon="7.11481">
        <ele>862</ele>
        <time>2019-05-15T10:21:20.078Z</time>
      </trkpt>
      <trkpt lat="48.43834" lon="7.1148">
        <ele>862</ele>
        <time>2019-05-15T10:21:21.078Z</time>
      </trkpt>
      <trkpt lat="48.43834" lon="7.11479">
        <ele>862</ele>
        <time>2019-05-15T10:21:22.078Z</time>
      </trkpt>
      <trkpt lat="48.43834" lon="7.11477">
        <ele>862</ele>
        <time>2019-05-15T10:21:23.078Z</time>
      </trkpt>
      <trkpt lat="48.43835" lon="7.11476">
        <ele>862</ele>
        <time>2019-05-15T10:21:24.078Z</time>
      </trkpt>
      <trkpt lat="48.43835" lon="7.11475">
        <ele>862</ele>
        <time>2019-05-15T10:21:25.078Z</time>
      </trkpt>
      <trkpt lat="48.43836" lon="7.11474">
        <ele>862</ele>
        <time>2019-05-15T10:21:26.078Z</time>
      </trkpt>
      <trkpt lat="48.43837" lon="7.11472">
        <ele>862</ele>
        <time>2019-05-15T10:21:27.078Z</time>
      </trkpt>
      <trkpt lat="48.43837" lon="7.11471">
        <ele>862</ele>
        <time>2019-05-15T10:21:28.078Z</time>
      </trkpt>
      <trkpt lat="48.43838" lon="7.1147">
        <ele>862</ele>
        <time>2019-05-15T10:21:29.078Z</time>
      </trkpt>
      <trkpt lat="48.43838" lon="7.1147">
        <ele>862</ele>
        <time>2019-05-15T10:21:30.078Z</time>
      </trkpt>
      <trkpt lat="48.43839" lon="7.11469">
        <ele>862</ele>
        <time>2019-05-15T10:21:31.078Z</time>
      </trkpt>
      <trkpt lat="48.4384" lon="7.11469">
        <ele>863</ele>
        <time>2019-05-15T10:21:32.078Z</time>
      </trkpt>
      <trkpt lat="48.4384" lon="7.11468">
        <ele>863</ele>
        <time>2019-05-15T10:21:33.078Z</time>
      </trkpt>
      <trkpt lat="48.43841" lon="7.11468">
        <ele>863</ele>
        <time>2019-05-15T10:21:34.078Z</time>
      </trkpt>
      <trkpt lat="48.43842" lon="7.11467">
        <ele>863</ele>
        <time>2019-05-15T10:21:35.078Z</time>
      </trkpt>
      <trkpt lat="48.43842" lon="7.11466">
        <ele>863</ele>
        <time>2019-05-15T10:21:36.078Z</time>
      </trkpt>
      <trkpt lat="48.43843" lon="7.11465">
        <ele>863</ele>
        <time>2019-05-15T10:21:37.078Z</time>
      </trkpt>
      <trkpt lat="48.43843" lon="7.11464">
        <ele>863</ele>
        <time>2019-05-15T10:21:38.078Z</time>
      </trkpt>
      <trkpt lat="48.43844" lon="7.11463">
        <ele>863</ele>
        <time>2019-05-15T10:21:39.078Z</time>
      </trkpt>
      <trkpt lat="48.43845" lon="7.11462">
        <ele>863</ele>
        <time>2019-05-15T10:21:40.078Z</time>
      </trkpt>
      <trkpt lat="48.43845" lon="7.11461">
        <ele>863</ele>
        <time>2019-05-15T10:21:41.078Z</time>
      </trkpt>
      <trkpt lat="48.43846" lon="7.11461">
        <ele>863</ele>
        <time>2019-05-15T10:21:42.078Z</time>
      </trkpt>
      <trkpt lat="48.43846" lon="7.11459">
        <ele>863</ele>
        <time>2019-05-15T10:21:43.078Z</time>
      </trkpt>
      <trkpt lat="48.43847" lon="7.11458">
        <ele>864</ele>
        <time>2019-05-15T10:21:44.078Z</time>
      </trkpt>
      <trkpt lat="48.43847" lon="7.11457">
        <ele>864</ele>
        <time>2019-05-15T10:21:45.078Z</time>
      </trkpt>
      <trkpt lat="48.43847" lon="7.11456">
        <ele>864</ele>
        <time>2019-05-15T10:21:46.078Z</time>
      </trkpt>
      <trkpt lat="48.43848" lon="7.11455">
        <ele>864</ele>
        <time>2019-05-15T10:21:47.078Z</time>
      </trkpt>
      <trkpt lat="48.43848" lon="7.11454">
        <ele>864</ele>
        <time>2019-05-15T10:21:48.078Z</time>
      </trkpt>
      <trkpt lat="48.43849" lon="7.11453">
        <ele>864</ele>
        <time>2019-05-15T10:21:49.078Z</time>
      </trkpt>
      <trkpt lat="48.43849" lon="7.11451">
        <ele>864</ele>
        <time>2019-05-15T10:21:50.078Z</time>
      </trkpt>
      <trkpt lat="48.43849" lon="7.1145">
        <ele>864</ele>
        <time>2019-05-15T10:21:51.078Z</time>
      </trkpt>
      <trkpt lat="48.4385" lon="7.11449">
        <ele>864</ele>
        <time>2019-05-15T10:21:52.078Z</time>
      </trkpt>
      <trkpt lat="48.43851" lon="7.11448">
        <ele>864</ele>
        <time>2019-05-15T10:21:53.078Z</time>
      </trkpt>
      <trkpt lat="48.43851" lon="7.11447">
        <ele>864</ele>
        <time>2019-05-15T10:21:54.078Z</time>
      </trkpt>
      <trkpt lat="48.43852" lon="7.11446">
        <ele>864</ele>
        <time>2019-05-15T10:21:55.078Z</time>
      </trkpt>
      <trkpt lat="48.43852" lon="7.11446">
        <ele>864</ele>
        <time>2019-05-15T10:21:56.078Z</time>
      </trkpt>
      <trkpt lat="48.43853" lon="7.11445">
        <ele>864</ele>
        <time>2019-05-15T10:21:57.078Z</time>
      </trkpt>
      <trkpt lat="48.43854" lon="7.11444">
        <ele>864</ele>
        <time>2019-05-15T10:21:58.078Z</time>
      </trkpt>
      <trkpt lat="48.43854" lon="7.11443">
        <ele>864</ele>
        <time>2019-05-15T10:21:59.078Z</time>
      </trkpt>
      <trkpt lat="48.43855" lon="7.11442">
        <ele>864</ele>
        <time>2019-05-15T10:22:00.078Z</time>
      </trkpt>
      <trkpt lat="48.43856" lon="7.11441">
        <ele>864</ele>
        <time>2019-05-15T10:22:01.078Z</time>
      </trkpt>
      <trkpt lat="48.43856" lon="7.1144">
        <ele>864</ele>
        <time>2019-05-15T10:22:02.078Z</time>
      </trkpt>
      <trkpt lat="48.43857" lon="7.11439">
        <ele>865</ele>
        <time>2019-05-15T10:22:03.078Z</time>
      </trkpt>
      <trkpt lat="48.43858" lon="7.11438">
        <ele>865</ele>
        <time>2019-05-15T10:22:04.078Z</time>
      </trkpt>
      <trkpt lat="48.43858" lon="7.11437">
        <ele>865</ele>
        <time>2019-05-15T10:22:05.078Z</time>
      </trkpt>
      <trkpt lat="48.43859" lon="7.11436">
        <ele>865</ele>
        <time>2019-05-15T10:22:06.078Z</time>
      </trkpt>
      <trkpt lat="48.4386" lon="7.11436">
        <ele>865</ele>
        <time>2019-05-15T10:22:07.078Z</time>
      </trkpt>
      <trkpt lat="48.43861" lon="7.11435">
        <ele>865</ele>
        <time>2019-05-15T10:22:08.078Z</time>
      </trkpt>
      <trkpt lat="48.43862" lon="7.11434">
        <ele>865</ele>
        <time>2019-05-15T10:22:09.078Z</time>
      </trkpt>
      <trkpt lat="48.43862" lon="7.11433">
        <ele>865</ele>
        <time>2019-05-15T10:22:10.078Z</time>
      </trkpt>
      <trkpt lat="48.43863" lon="7.11432">
        <ele>865</ele>
        <time>2019-05-15T10:22:11.078Z</time>
      </trkpt>
      <trkpt lat="48.43864" lon="7.11431">
        <ele>865</ele>
        <time>2019-05-15T10:22:12.078Z</time>
      </trkpt>
      <trkpt lat="48.43864" lon="7.11431">
        <ele>865</ele>
        <time>2019-05-15T10:22:13.078Z</time>
      </trkpt>
      <trkpt lat="48.43865" lon="7.1143">
        <ele>866</ele>
        <time>2019-05-15T10:22:14.078Z</time>
      </trkpt>
      <trkpt lat="48.43866" lon="7.11429">
        <ele>866</ele>
        <time>2019-05-15T10:22:15.078Z</time>
      </trkpt>
      <trkpt lat="48.43867" lon="7.11428">
        <ele>866</ele>
        <time>2019-05-15T10:22:16.078Z</time>
      </trkpt>
      <trkpt lat="48.43867" lon="7.11427">
        <ele>866</ele>
        <time>2019-05-15T10:22:17.078Z</time>
      </trkpt>
      <trkpt lat="48.43868" lon="7.11427">
        <ele>866</ele>
        <time>2019-05-15T10:22:18.078Z</time>
      </trkpt>
      <trkpt lat="48.43869" lon="7.11426">
        <ele>866</ele>
        <time>2019-05-15T10:22:19.078Z</time>
      </trkpt>
      <trkpt lat="48.4387" lon="7.11425">
        <ele>866</ele>
        <time>2019-05-15T10:22:20.078Z</time>
      </trkpt>
      <trkpt lat="48.4387" lon="7.11424">
        <ele>866</ele>
        <time>2019-05-15T10:22:21.078Z</time>
      </trkpt>
      <trkpt lat="48.43871" lon="7.11424">
        <ele>866</ele>
        <time>2019-05-15T10:22:22.078Z</time>
      </trkpt>
      <trkpt lat="48.43872" lon="7.11423">
        <ele>866</ele>
        <time>2019-05-15T10:22:23.078Z</time>
      </trkpt>
      <trkpt lat="48.43873" lon="7.11422">
        <ele>866</ele>
        <time>2019-05-15T10:22:24.078Z</time>
      </trkpt>
      <trkpt lat="48.43874" lon="7.11422">
        <ele>866</ele>
        <time>2019-05-15T10:22:25.078Z</time>
      </trkpt>
      <trkpt lat="48.43875" lon="7.11421">
        <ele>866</ele>
        <time>2019-05-15T10:22:26.078Z</time>
      </trkpt>
      <trkpt lat="48.43876" lon="7.1142">
        <ele>866</ele>
        <time>2019-05-15T10:22:27.078Z</time>
      </trkpt>
      <trkpt lat="48.43876" lon="7.1142">
        <ele>866</ele>
        <time>2019-05-15T10:22:28.078Z</time>
      </trkpt>
      <trkpt lat="48.43877" lon="7.11419">
        <ele>866</ele>
        <time>2019-05-15T10:22:29.078Z</time>
      </trkpt>
      <trkpt lat="48.43878" lon="7.11418">
        <ele>866</ele>
        <time>2019-05-15T10:22:30.078Z</time>
      </trkpt>
      <trkpt lat="48.43879" lon="7.11418">
        <ele>866</ele>
        <time>2019-05-15T10:22:31.078Z</time>
      </trkpt>
      <trkpt lat="48.4388" lon="7.11417">
        <ele>866</ele>
        <time>2019-05-15T10:22:32.078Z</time>
      </trkpt>
      <trkpt lat="48.4388" lon="7.11416">
        <ele>866</ele>
        <time>2019-05-15T10:22:33.078Z</time>
      </trkpt>
      <trkpt lat="48.43881" lon="7.11415">
        <ele>866</ele>
        <time>2019-05-15T10:22:34.078Z</time>
      </trkpt>
      <trkpt lat="48.43882" lon="7.11415">
        <ele>866</ele>
        <time>2019-05-15T10:22:35.078Z</time>
      </trkpt>
      <trkpt lat="48.43883" lon="7.11414">
        <ele>866</ele>
        <time>2019-05-15T10:22:36.078Z</time>
      </trkpt>
      <trkpt lat="48.43884" lon="7.11413">
        <ele>866</ele>
        <time>2019-05-15T10:22:37.078Z</time>
      </trkpt>
      <trkpt lat="48.43884" lon="7.11413">
        <ele>866</ele>
        <time>2019-05-15T10:22:38.078Z</time>
      </trkpt>
      <trkpt lat="48.43885" lon="7.11412">
        <ele>866</ele>
        <time>2019-05-15T10:22:39.078Z</time>
      </trkpt>
      <trkpt lat="48.43886" lon="7.11411">
        <ele>866</ele>
        <time>2019-05-15T10:22:40.078Z</time>
      </trkpt>
      <trkpt lat="48.43887" lon="7.1141">
        <ele>865</ele>
        <time>2019-05-15T10:22:41.078Z</time>
      </trkpt>
      <trkpt lat="48.43888" lon="7.1141">
        <ele>865</ele>
        <time>2019-05-15T10:22:42.078Z</time>
      </trkpt>
      <trkpt lat="48.43889" lon="7.11409">
        <ele>865</ele>
        <time>2019-05-15T10:22:43.078Z</time>
      </trkpt>
      <trkpt lat="48.4389" lon="7.11409">
        <ele>865</ele>
        <time>2019-05-15T10:22:44.078Z</time>
      </trkpt>
      <trkpt lat="48.43891" lon="7.11408">
        <ele>865</ele>
        <time>2019-05-15T10:22:45.078Z</time>
      </trkpt>
      <trkpt lat="48.43892" lon="7.11407">
        <ele>865</ele>
        <time>2019-05-15T10:22:46.078Z</time>
      </trkpt>
      <trkpt lat="48.43893" lon="7.11407">
        <ele>865</ele>
        <time>2019-05-15T10:22:47.078Z</time>
      </trkpt>
      <trkpt lat="48.43894" lon="7.11407">
        <ele>865</ele>
        <time>2019-05-15T10:22:48.078Z</time>
      </trkpt>
      <trkpt lat="48.43895" lon="7.11406">
        <ele>865</ele>
        <time>2019-05-15T10:22:49.078Z</time>
      </trkpt>
      <trkpt lat="48.43895" lon="7.11406">
        <ele>865</ele>
        <time>2019-05-15T10:22:50.078Z</time>
      </trkpt>
      <trkpt lat="48.43896" lon="7.11405">
        <ele>865</ele>
        <time>2019-05-15T10:22:51.078Z</time>
      </trkpt>
      <trkpt lat="48.43897" lon="7.11405">
        <ele>865</ele>
        <time>2019-05-15T10:22:52.078Z</time>
      </trkpt>
      <trkpt lat="48.43898" lon="7.11405">
        <ele>865</ele>
        <time>2019-05-15T10:22:53.078Z</time>
      </trkpt>
      <trkpt lat="48.43899" lon="7.11404">
        <ele>865</ele>
        <time>2019-05-15T10:22:54.078Z</time>
      </trkpt>
      <trkpt lat="48.439" lon="7.11404">
        <ele>865</ele>
        <time>2019-05-15T10:22:55.078Z</time>
      </trkpt>
      <trkpt lat="48.43901" lon="7.11403">
        <ele>865</ele>
        <time>2019-05-15T10:22:56.078Z</time>
      </trkpt>
      <trkpt lat="48.43902" lon="7.11403">
        <ele>865</ele>
        <time>2019-05-15T10:22:57.078Z</time>
      </trkpt>
      <trkpt lat="48.43902" lon="7.11402">
        <ele>865</ele>
        <time>2019-05-15T10:22:58.078Z</time>
      </trkpt>
      <trkpt lat="48.43903" lon="7.11401">
        <ele>865</ele>
        <time>2019-05-15T10:22:59.078Z</time>
      </trkpt>
      <trkpt lat="48.43904" lon="7.11401">
        <ele>865</ele>
        <time>2019-05-15T10:23:00.078Z</time>
      </trkpt>
      <trkpt lat="48.43905" lon="7.114">
        <ele>865</ele>
        <time>2019-05-15T10:23:01.078Z</time>
      </trkpt>
      <trkpt lat="48.43906" lon="7.114">
        <ele>865</ele>
        <time>2019-05-15T10:23:02.078Z</time>
      </trkpt>
      <trkpt lat="48.43907" lon="7.11399">
        <ele>865</ele>
        <time>2019-05-15T10:23:03.078Z</time>
      </trkpt>
      <trkpt lat="48.43908" lon="7.11399">
        <ele>865</ele>
        <time>2019-05-15T10:23:04.078Z</time>
      </trkpt>
      <trkpt lat="48.43908" lon="7.11398">
        <ele>865</ele>
        <time>2019-05-15T10:23:05.078Z</time>
      </trkpt>
      <trkpt lat="48.43909" lon="7.11397">
        <ele>865</ele>
        <time>2019-05-15T10:23:06.078Z</time>
      </trkpt>
      <trkpt lat="48.4391" lon="7.11397">
        <ele>865</ele>
        <time>2019-05-15T10:23:07.078Z</time>
      </trkpt>
      <trkpt lat="48.43911" lon="7.11396">
        <ele>865</ele>
        <time>2019-05-15T10:23:08.078Z</time>
      </trkpt>
      <trkpt lat="48.43912" lon="7.11396">
        <ele>865</ele>
        <time>2019-05-15T10:23:09.078Z</time>
      </trkpt>
      <trkpt lat="48.43913" lon="7.11395">
        <ele>865</ele>
        <time>2019-05-15T10:23:10.078Z</time>
      </trkpt>
      <trkpt lat="48.43913" lon="7.11395">
        <ele>865</ele>
        <time>2019-05-15T10:23:11.078Z</time>
      </trkpt>
      <trkpt lat="48.43914" lon="7.11394">
        <ele>866</ele>
        <time>2019-05-15T10:23:12.078Z</time>
      </trkpt>
      <trkpt lat="48.43915" lon="7.11394">
        <ele>866</ele>
        <time>2019-05-15T10:23:13.078Z</time>
      </trkpt>
      <trkpt lat="48.43916" lon="7.11394">
        <ele>866</ele>
        <time>2019-05-15T10:23:14.078Z</time>
      </trkpt>
      <trkpt lat="48.43917" lon="7.11393">
        <ele>866</ele>
        <time>2019-05-15T10:23:15.078Z</time>
      </trkpt>
      <trkpt lat="48.43917" lon="7.11393">
        <ele>866</ele>
        <time>2019-05-15T10:23:16.078Z</time>
      </trkpt>
      <trkpt lat="48.43918" lon="7.11393">
        <ele>866</ele>
        <time>2019-05-15T10:23:17.078Z</time>
      </trkpt>
      <trkpt lat="48.43918" lon="7.11392">
        <ele>866</ele>
        <time>2019-05-15T10:23:18.078Z</time>
      </trkpt>
      <trkpt lat="48.43919" lon="7.11392">
        <ele>866</ele>
        <time>2019-05-15T10:23:19.078Z</time>
      </trkpt>
      <trkpt lat="48.4392" lon="7.11392">
        <ele>867</ele>
        <time>2019-05-15T10:23:20.078Z</time>
      </trkpt>
      <trkpt lat="48.4392" lon="7.11391">
        <ele>867</ele>
        <time>2019-05-15T10:23:21.078Z</time>
      </trkpt>
      <trkpt lat="48.43921" lon="7.11391">
        <ele>867</ele>
        <time>2019-05-15T10:23:22.078Z</time>
      </trkpt>
      <trkpt lat="48.43922" lon="7.11391">
        <ele>867</ele>
        <time>2019-05-15T10:23:23.078Z</time>
      </trkpt>
      <trkpt lat="48.43923" lon="7.11391">
        <ele>867</ele>
        <time>2019-05-15T10:23:24.078Z</time>
      </trkpt>
      <trkpt lat="48.43923" lon="7.1139">
        <ele>868</ele>
        <time>2019-05-15T10:23:25.078Z</time>
      </trkpt>
      <trkpt lat="48.43924" lon="7.1139">
        <ele>868</ele>
        <time>2019-05-15T10:23:26.078Z</time>
      </trkpt>
      <trkpt lat="48.43925" lon="7.1139">
        <ele>868</ele>
        <time>2019-05-15T10:23:27.078Z</time>
      </trkpt>
      <trkpt lat="48.43925" lon="7.1139">
        <ele>868</ele>
        <time>2019-05-15T10:23:28.078Z</time>
      </trkpt>
      <trkpt lat="48.43926" lon="7.11389">
        <ele>869</ele>
        <time>2019-05-15T10:23:29.078Z</time>
      </trkpt>
      <trkpt lat="48.43927" lon="7.11389">
        <ele>869</ele>
        <time>2019-05-15T10:23:30.078Z</time>
      </trkpt>
      <trkpt lat="48.43928" lon="7.11389">
        <ele>869</ele>
        <time>2019-05-15T10:23:31.078Z</time>
      </trkpt>
      <trkpt lat="48.43929" lon="7.11389">
        <ele>869</ele>
        <time>2019-05-15T10:23:32.078Z</time>
      </trkpt>
      <trkpt lat="48.4393" lon="7.11388">
        <ele>869</ele>
        <time>2019-05-15T10:23:33.078Z</time>
      </trkpt>
      <trkpt lat="48.43931" lon="7.11389">
        <ele>868</ele>
        <time>2019-05-15T10:23:34.078Z</time>
      </trkpt>
      <trkpt lat="48.43932" lon="7.11389">
        <ele>868</ele>
        <time>2019-05-15T10:23:35.078Z</time>
      </trkpt>
      <trkpt lat="48.43933" lon="7.11389">
        <ele>867</ele>
        <time>2019-05-15T10:23:36.078Z</time>
      </trkpt>
      <trkpt lat="48.43933" lon="7.11389">
        <ele>867</ele>
        <time>2019-05-15T10:23:37.078Z</time>
      </trkpt>
      <trkpt lat="48.43934" lon="7.11389">
        <ele>867</ele>
        <time>2019-05-15T10:23:38.078Z</time>
      </trkpt>
      <trkpt lat="48.43935" lon="7.11389">
        <ele>867</ele>
        <time>2019-05-15T10:23:39.078Z</time>
      </trkpt>
      <trkpt lat="48.43936" lon="7.11389">
        <ele>867</ele>
        <time>2019-05-15T10:23:40.078Z</time>
      </trkpt>
      <trkpt lat="48.43937" lon="7.11389">
        <ele>866</ele>
        <time>2019-05-15T10:23:41.078Z</time>
      </trkpt>
      <trkpt lat="48.43938" lon="7.11389">
        <ele>866</ele>
        <time>2019-05-15T10:23:42.078Z</time>
      </trkpt>
      <trkpt lat="48.43939" lon="7.11389">
        <ele>866</ele>
        <time>2019-05-15T10:23:43.078Z</time>
      </trkpt>
      <trkpt lat="48.43939" lon="7.1139">
        <ele>866</ele>
        <time>2019-05-15T10:23:44.078Z</time>
      </trkpt>
      <trkpt lat="48.4394" lon="7.1139">
        <ele>866</ele>
        <time>2019-05-15T10:23:45.078Z</time>
      </trkpt>
      <trkpt lat="48.43941" lon="7.11391">
        <ele>866</ele>
        <time>2019-05-15T10:23:46.078Z</time>
      </trkpt>
      <trkpt lat="48.43942" lon="7.11392">
        <ele>866</ele>
        <time>2019-05-15T10:23:47.078Z</time>
      </trkpt>
      <trkpt lat="48.43943" lon="7.11392">
        <ele>866</ele>
        <time>2019-05-15T10:23:48.078Z</time>
      </trkpt>
      <trkpt lat="48.43944" lon="7.11393">
        <ele>865</ele>
        <time>2019-05-15T10:23:49.078Z</time>
      </trkpt>
      <trkpt lat="48.43945" lon="7.11394">
        <ele>865</ele>
        <time>2019-05-15T10:23:50.078Z</time>
      </trkpt>
      <trkpt lat="48.43946" lon="7.11395">
        <ele>864</ele>
        <time>2019-05-15T10:23:51.078Z</time>
      </trkpt>
      <trkpt lat="48.43947" lon="7.11396">
        <ele>864</ele>
        <time>2019-05-15T10:23:52.078Z</time>
      </trkpt>
      <trkpt lat="48.43948" lon="7.11397">
        <ele>864</ele>
        <time>2019-05-15T10:23:53.078Z</time>
      </trkpt>
      <trkpt lat="48.43948" lon="7.11398">
        <ele>864</ele>
        <time>2019-05-15T10:23:54.078Z</time>
      </trkpt>
      <trkpt lat="48.43949" lon="7.11399">
        <ele>863</ele>
        <time>2019-05-15T10:23:55.078Z</time>
      </trkpt>
      <trkpt lat="48.4395" lon="7.114">
        <ele>863</ele>
        <time>2019-05-15T10:23:56.078Z</time>
      </trkpt>
      <trkpt lat="48.43951" lon="7.114">
        <ele>863</ele>
        <time>2019-05-15T10:23:57.078Z</time>
      </trkpt>
      <trkpt lat="48.43952" lon="7.11401">
        <ele>863</ele>
        <time>2019-05-15T10:23:58.078Z</time>
      </trkpt>
      <trkpt lat="48.43952" lon="7.11402">
        <ele>862</ele>
        <time>2019-05-15T10:23:59.078Z</time>
      </trkpt>
      <trkpt lat="48.43953" lon="7.11402">
        <ele>862</ele>
        <time>2019-05-15T10:24:00.078Z</time>
      </trkpt>
      <trkpt lat="48.43954" lon="7.11403">
        <ele>862</ele>
        <time>2019-05-15T10:24:01.078Z</time>
      </trkpt>
      <trkpt lat="48.43955" lon="7.11404">
        <ele>862</ele>
        <time>2019-05-15T10:24:02.078Z</time>
      </trkpt>
      <trkpt lat="48.43956" lon="7.11404">
        <ele>862</ele>
        <time>2019-05-15T10:24:03.078Z</time>
      </trkpt>
      <trkpt lat="48.43956" lon="7.11405">
        <ele>861</ele>
        <time>2019-05-15T10:24:04.078Z</time>
      </trkpt>
      <trkpt lat="48.43957" lon="7.11405">
        <ele>861</ele>
        <time>2019-05-15T10:24:05.078Z</time>
      </trkpt>
      <trkpt lat="48.43958" lon="7.11405">
        <ele>861</ele>
        <time>2019-05-15T10:24:06.078Z</time>
      </trkpt>
      <trkpt lat="48.43959" lon="7.11406">
        <ele>861</ele>
        <time>2019-05-15T10:24:07.078Z</time>
      </trkpt>
      <trkpt lat="48.4396" lon="7.11406">
        <ele>861</ele>
        <time>2019-05-15T10:24:08.078Z</time>
      </trkpt>
      <trkpt lat="48.43961" lon="7.11406">
        <ele>861</ele>
        <time>2019-05-15T10:24:09.078Z</time>
      </trkpt>
      <trkpt lat="48.43962" lon="7.11407">
        <ele>861</ele>
        <time>2019-05-15T10:24:10.078Z</time>
      </trkpt>
      <trkpt lat="48.43962" lon="7.11407">
        <ele>861</ele>
        <time>2019-05-15T10:24:11.078Z</time>
      </trkpt>
      <trkpt lat="48.43963" lon="7.11407">
        <ele>861</ele>
        <time>2019-05-15T10:24:12.078Z</time>
      </trkpt>
      <trkpt lat="48.43964" lon="7.11407">
        <ele>861</ele>
        <time>2019-05-15T10:24:13.078Z</time>
      </trkpt>
      <trkpt lat="48.43965" lon="7.11407">
        <ele>861</ele>
        <time>2019-05-15T10:24:14.078Z</time>
      </trkpt>
      <trkpt lat="48.43965" lon="7.11408">
        <ele>861</ele>
        <time>2019-05-15T10:24:15.078Z</time>
      </trkpt>
      <trkpt lat="48.43966" lon="7.11408">
        <ele>861</ele>
        <time>2019-05-15T10:24:16.078Z</time>
      </trkpt>
      <trkpt lat="48.43967" lon="7.11408">
        <ele>861</ele>
        <time>2019-05-15T10:24:17.078Z</time>
      </trkpt>
      <trkpt lat="48.43967" lon="7.11409">
        <ele>861</ele>
        <time>2019-05-15T10:24:18.078Z</time>
      </trkpt>
      <trkpt lat="48.43968" lon="7.11409">
        <ele>861</ele>
        <time>2019-05-15T10:24:19.078Z</time>
      </trkpt>
      <trkpt lat="48.43969" lon="7.11409">
        <ele>860</ele>
        <time>2019-05-15T10:24:20.078Z</time>
      </trkpt>
      <trkpt lat="48.43969" lon="7.11409">
        <ele>861</ele>
        <time>2019-05-15T10:24:21.078Z</time>
      </trkpt>
      <trkpt lat="48.4397" lon="7.11409">
        <ele>861</ele>
        <time>2019-05-15T10:24:22.078Z</time>
      </trkpt>
      <trkpt lat="48.4397" lon="7.11409">
        <ele>860</ele>
        <time>2019-05-15T10:24:23.078Z</time>
      </trkpt>
      <trkpt lat="48.43971" lon="7.11409">
        <ele>860</ele>
        <time>2019-05-15T10:24:24.078Z</time>
      </trkpt>
      <trkpt lat="48.43971" lon="7.11409">
        <ele>860</ele>
        <time>2019-05-15T10:24:25.078Z</time>
      </trkpt>
      <trkpt lat="48.43971" lon="7.11409">
        <ele>860</ele>
        <time>2019-05-15T10:24:26.078Z</time>
      </trkpt>
      <trkpt lat="48.43971" lon="7.11409">
        <ele>859</ele>
        <time>2019-05-15T10:24:27.078Z</time>
      </trkpt>
      <trkpt lat="48.43971" lon="7.11409">
        <ele>859</ele>
        <time>2019-05-15T10:24:28.078Z</time>
      </trkpt>
      <trkpt lat="48.43971" lon="7.11409">
        <ele>859</ele>
        <time>2019-05-15T10:24:29.078Z</time>
      </trkpt>
      <trkpt lat="48.43971" lon="7.11409">
        <ele>858</ele>
        <time>2019-05-15T10:24:30.078Z</time>
      </trkpt>
      <trkpt lat="48.43971" lon="7.11409">
        <ele>858</ele>
        <time>2019-05-15T10:24:31.078Z</time>
      </trkpt>
      <trkpt lat="48.43971" lon="7.11409">
        <ele>858</ele>
        <time>2019-05-15T10:24:32.078Z</time>
      </trkpt>
      <trkpt lat="48.43971" lon="7.11409">
        <ele>858</ele>
        <time>2019-05-15T10:24:33.078Z</time>
      </trkpt>
      <trkpt lat="48.43971" lon="7.11408">
        <ele>859</ele>
        <time>2019-05-15T10:24:34.078Z</time>
      </trkpt>
      <trkpt lat="48.43971" lon="7.11408">
        <ele>859</ele>
        <time>2019-05-15T10:24:35.078Z</time>
      </trkpt>
      <trkpt lat="48.43972" lon="7.11408">
        <ele>859</ele>
        <time>2019-05-15T10:24:36.078Z</time>
      </trkpt>
      <trkpt lat="48.43972" lon="7.11408">
        <ele>860</ele>
        <time>2019-05-15T10:24:37.078Z</time>
      </trkpt>
      <trkpt lat="48.43973" lon="7.11408">
        <ele>860</ele>
        <time>2019-05-15T10:24:38.078Z</time>
      </trkpt>
      <trkpt lat="48.43973" lon="7.11408">
        <ele>860</ele>
        <time>2019-05-15T10:24:39.078Z</time>
      </trkpt>
      <trkpt lat="48.43973" lon="7.11409">
        <ele>859</ele>
        <time>2019-05-15T10:24:40.078Z</time>
      </trkpt>
      <trkpt lat="48.43973" lon="7.11409">
        <ele>860</ele>
        <time>2019-05-15T10:24:41.078Z</time>
      </trkpt>
      <trkpt lat="48.43973" lon="7.11409">
        <ele>860</ele>
        <time>2019-05-15T10:24:42.078Z</time>
      </trkpt>
      <trkpt lat="48.43973" lon="7.11409">
        <ele>860</ele>
        <time>2019-05-15T10:24:43.078Z</time>
      </trkpt>
      <trkpt lat="48.43972" lon="7.11409">
        <ele>860</ele>
        <time>2019-05-15T10:24:44.078Z</time>
      </trkpt>
      <trkpt lat="48.43972" lon="7.11409">
        <ele>860</ele>
        <time>2019-05-15T10:24:45.078Z</time>
      </trkpt>
      <trkpt lat="48.43972" lon="7.11409">
        <ele>859</ele>
        <time>2019-05-15T10:24:46.078Z</time>
      </trkpt>
      <trkpt lat="48.43972" lon="7.11408">
        <ele>860</ele>
        <time>2019-05-15T10:24:47.078Z</time>
      </trkpt>
      <trkpt lat="48.43971" lon="7.11407">
        <ele>860</ele>
        <time>2019-05-15T10:24:48.078Z</time>
      </trkpt>
      <trkpt lat="48.43971" lon="7.11406">
        <ele>860</ele>
        <time>2019-05-15T10:24:49.078Z</time>
      </trkpt>
      <trkpt lat="48.43971" lon="7.11405">
        <ele>860</ele>
        <time>2019-05-15T10:24:50.078Z</time>
      </trkpt>
      <trkpt lat="48.43971" lon="7.11404">
        <ele>860</ele>
        <time>2019-05-15T10:24:51.078Z</time>
      </trkpt>
      <trkpt lat="48.43971" lon="7.11403">
        <ele>860</ele>
        <time>2019-05-15T10:24:52.078Z</time>
      </trkpt>
      <trkpt lat="48.43971" lon="7.11402">
        <ele>860</ele>
        <time>2019-05-15T10:24:53.078Z</time>
      </trkpt>
      <trkpt lat="48.43971" lon="7.11401">
        <ele>860</ele>
        <time>2019-05-15T10:24:54.078Z</time>
      </trkpt>
      <trkpt lat="48.43971" lon="7.11399">
        <ele>860</ele>
        <time>2019-05-15T10:24:55.078Z</time>
      </trkpt>
      <trkpt lat="48.43971" lon="7.11398">
        <ele>860</ele>
        <time>2019-05-15T10:24:56.078Z</time>
      </trkpt>
      <trkpt lat="48.43971" lon="7.11397">
        <ele>860</ele>
        <time>2019-05-15T10:24:57.078Z</time>
      </trkpt>
      <trkpt lat="48.43971" lon="7.11395">
        <ele>861</ele>
        <time>2019-05-15T10:24:58.078Z</time>
      </trkpt>
      <trkpt lat="48.4397" lon="7.11394">
        <ele>861</ele>
        <time>2019-05-15T10:24:59.078Z</time>
      </trkpt>
      <trkpt lat="48.4397" lon="7.11393">
        <ele>861</ele>
        <time>2019-05-15T10:25:00.078Z</time>
      </trkpt>
      <trkpt lat="48.43969" lon="7.11392">
        <ele>861</ele>
        <time>2019-05-15T10:25:01.078Z</time>
      </trkpt>
      <trkpt lat="48.43969" lon="7.11391">
        <ele>862</ele>
        <time>2019-05-15T10:25:02.078Z</time>
      </trkpt>
      <trkpt lat="48.43969" lon="7.1139">
        <ele>862</ele>
        <time>2019-05-15T10:25:03.078Z</time>
      </trkpt>
      <trkpt lat="48.43969" lon="7.11389">
        <ele>862</ele>
        <time>2019-05-15T10:25:04.078Z</time>
      </trkpt>
      <trkpt lat="48.43969" lon="7.11387">
        <ele>862</ele>
        <time>2019-05-15T10:25:05.078Z</time>
      </trkpt>
      <trkpt lat="48.43968" lon="7.11387">
        <ele>862</ele>
        <time>2019-05-15T10:25:06.078Z</time>
      </trkpt>
      <trkpt lat="48.43968" lon="7.11386">
        <ele>862</ele>
        <time>2019-05-15T10:25:07.078Z</time>
      </trkpt>
      <trkpt lat="48.43967" lon="7.11385">
        <ele>862</ele>
        <time>2019-05-15T10:25:08.078Z</time>
      </trkpt>
      <trkpt lat="48.43967" lon="7.11384">
        <ele>862</ele>
        <time>2019-05-15T10:25:09.078Z</time>
      </trkpt>
      <trkpt lat="48.43967" lon="7.11384">
        <ele>862</ele>
        <time>2019-05-15T10:25:10.078Z</time>
      </trkpt>
      <trkpt lat="48.43966" lon="7.11383">
        <ele>862</ele>
        <time>2019-05-15T10:25:11.078Z</time>
      </trkpt>
      <trkpt lat="48.43966" lon="7.11383">
        <ele>862</ele>
        <time>2019-05-15T10:25:12.078Z</time>
      </trkpt>
      <trkpt lat="48.43966" lon="7.11382">
        <ele>862</ele>
        <time>2019-05-15T10:25:13.078Z</time>
      </trkpt>
      <trkpt lat="48.43966" lon="7.11381">
        <ele>861</ele>
        <time>2019-05-15T10:25:14.078Z</time>
      </trkpt>
      <trkpt lat="48.43967" lon="7.1138">
        <ele>861</ele>
        <time>2019-05-15T10:25:15.078Z</time>
      </trkpt>
      <trkpt lat="48.43967" lon="7.11379">
        <ele>861</ele>
        <time>2019-05-15T10:25:16.078Z</time>
      </trkpt>
      <trkpt lat="48.43968" lon="7.11378">
        <ele>861</ele>
        <time>2019-05-15T10:25:17.078Z</time>
      </trkpt>
      <trkpt lat="48.43968" lon="7.11377">
        <ele>861</ele>
        <time>2019-05-15T10:25:18.078Z</time>
      </trkpt>
      <trkpt lat="48.43968" lon="7.11376">
        <ele>861</ele>
        <time>2019-05-15T10:25:19.078Z</time>
      </trkpt>
      <trkpt lat="48.43968" lon="7.11374">
        <ele>862</ele>
        <time>2019-05-15T10:25:20.078Z</time>
      </trkpt>
      <trkpt lat="48.43968" lon="7.11373">
        <ele>861</ele>
        <time>2019-05-15T10:25:21.078Z</time>
      </trkpt>
      <trkpt lat="48.43968" lon="7.11372">
        <ele>861</ele>
        <time>2019-05-15T10:25:22.078Z</time>
      </trkpt>
      <trkpt lat="48.43968" lon="7.11371">
        <ele>862</ele>
        <time>2019-05-15T10:25:23.078Z</time>
      </trkpt>
      <trkpt lat="48.43968" lon="7.11369">
        <ele>862</ele>
        <time>2019-05-15T10:25:24.078Z</time>
      </trkpt>
      <trkpt lat="48.43968" lon="7.11368">
        <ele>863</ele>
        <time>2019-05-15T10:25:25.078Z</time>
      </trkpt>
      <trkpt lat="48.43968" lon="7.11367">
        <ele>863</ele>
        <time>2019-05-15T10:25:26.078Z</time>
      </trkpt>
      <trkpt lat="48.43967" lon="7.11366">
        <ele>863</ele>
        <time>2019-05-15T10:25:27.078Z</time>
      </trkpt>
      <trkpt lat="48.43967" lon="7.11365">
        <ele>863</ele>
        <time>2019-05-15T10:25:28.078Z</time>
      </trkpt>
      <trkpt lat="48.43967" lon="7.11363">
        <ele>863</ele>
        <time>2019-05-15T10:25:29.078Z</time>
      </trkpt>
      <trkpt lat="48.43967" lon="7.11362">
        <ele>863</ele>
        <time>2019-05-15T10:25:30.078Z</time>
      </trkpt>
      <trkpt lat="48.43967" lon="7.11361">
        <ele>863</ele>
        <time>2019-05-15T10:25:31.078Z</time>
      </trkpt>
      <trkpt lat="48.43967" lon="7.11359">
        <ele>863</ele>
        <time>2019-05-15T10:25:32.078Z</time>
      </trkpt>
      <trkpt lat="48.43967" lon="7.11358">
        <ele>864</ele>
        <time>2019-05-15T10:25:33.078Z</time>
      </trkpt>
      <trkpt lat="48.43967" lon="7.11357">
        <ele>864</ele>
        <time>2019-05-15T10:25:34.078Z</time>
      </trkpt>
      <trkpt lat="48.43968" lon="7.11355">
        <ele>864</ele>
        <time>2019-05-15T10:25:35.078Z</time>
      </trkpt>
      <trkpt lat="48.43968" lon="7.11354">
        <ele>864</ele>
        <time>2019-05-15T10:25:36.078Z</time>
      </trkpt>
      <trkpt lat="48.43968" lon="7.11353">
        <ele>864</ele>
        <time>2019-05-15T10:25:37.078Z</time>
      </trkpt>
      <trkpt lat="48.43968" lon="7.11351">
        <ele>864</ele>
        <time>2019-05-15T10:25:38.078Z</time>
      </trkpt>
      <trkpt lat="48.43968" lon="7.1135">
        <ele>864</ele>
        <time>2019-05-15T10:25:39.078Z</time>
      </trkpt>
      <trkpt lat="48.43968" lon="7.11349">
        <ele>864</ele>
        <time>2019-05-15T10:25:40.078Z</time>
      </trkpt>
      <trkpt lat="48.43967" lon="7.11347">
        <ele>864</ele>
        <time>2019-05-15T10:25:41.078Z</time>
      </trkpt>
      <trkpt lat="48.43967" lon="7.11346">
        <ele>864</ele>
        <time>2019-05-15T10:25:42.078Z</time>
      </trkpt>
      <trkpt lat="48.43967" lon="7.11345">
        <ele>864</ele>
        <time>2019-05-15T10:25:43.078Z</time>
      </trkpt>
      <trkpt lat="48.43967" lon="7.11345">
        <ele>864</ele>
        <time>2019-05-15T10:25:44.078Z</time>
      </trkpt>
      <trkpt lat="48.43967" lon="7.11344">
        <ele>864</ele>
        <time>2019-05-15T10:25:45.078Z</time>
      </trkpt>
      <trkpt lat="48.43968" lon="7.11344">
        <ele>864</ele>
        <time>2019-05-15T10:25:46.078Z</time>
      </trkpt>
      <trkpt lat="48.43968" lon="7.11345">
        <ele>863</ele>
        <time>2019-05-15T10:25:47.078Z</time>
      </trkpt>
      <trkpt lat="48.43968" lon="7.11346">
        <ele>863</ele>
        <time>2019-05-15T10:25:48.078Z</time>
      </trkpt>
      <trkpt lat="48.43968" lon="7.11348">
        <ele>863</ele>
        <time>2019-05-15T10:25:49.078Z</time>
      </trkpt>
      <trkpt lat="48.43968" lon="7.11349">
        <ele>863</ele>
        <time>2019-05-15T10:25:50.078Z</time>
      </trkpt>
      <trkpt lat="48.43968" lon="7.1135">
        <ele>862</ele>
        <time>2019-05-15T10:25:51.078Z</time>
      </trkpt>
      <trkpt lat="48.43968" lon="7.11351">
        <ele>862</ele>
        <time>2019-05-15T10:25:52.078Z</time>
      </trkpt>
      <trkpt lat="48.43968" lon="7.11353">
        <ele>862</ele>
        <time>2019-05-15T10:25:53.078Z</time>
      </trkpt>
      <trkpt lat="48.43968" lon="7.11354">
        <ele>862</ele>
        <time>2019-05-15T10:25:54.078Z</time>
      </trkpt>
      <trkpt lat="48.43968" lon="7.11356">
        <ele>862</ele>
        <time>2019-05-15T10:25:55.078Z</time>
      </trkpt>
      <trkpt lat="48.43968" lon="7.11357">
        <ele>861</ele>
        <time>2019-05-15T10:25:56.078Z</time>
      </trkpt>
      <trkpt lat="48.43968" lon="7.11359">
        <ele>861</ele>
        <time>2019-05-15T10:25:57.078Z</time>
      </trkpt>
      <trkpt lat="48.43968" lon="7.1136">
        <ele>861</ele>
        <time>2019-05-15T10:25:58.078Z</time>
      </trkpt>
      <trkpt lat="48.43968" lon="7.11362">
        <ele>861</ele>
        <time>2019-05-15T10:25:59.078Z</time>
      </trkpt>
      <trkpt lat="48.43968" lon="7.11363">
        <ele>861</ele>
        <time>2019-05-15T10:26:00.078Z</time>
      </trkpt>
      <trkpt lat="48.43968" lon="7.11364">
        <ele>861</ele>
        <time>2019-05-15T10:26:01.078Z</time>
      </trkpt>
      <trkpt lat="48.43968" lon="7.11366">
        <ele>861</ele>
        <time>2019-05-15T10:26:02.078Z</time>
      </trkpt>
      <trkpt lat="48.43968" lon="7.11367">
        <ele>861</ele>
        <time>2019-05-15T10:26:03.078Z</time>
      </trkpt>
      <trkpt lat="48.43968" lon="7.11369">
        <ele>861</ele>
        <time>2019-05-15T10:26:04.078Z</time>
      </trkpt>
      <trkpt lat="48.43968" lon="7.1137">
        <ele>861</ele>
        <time>2019-05-15T10:26:05.078Z</time>
      </trkpt>
      <trkpt lat="48.43968" lon="7.11372">
        <ele>861</ele>
        <time>2019-05-15T10:26:06.078Z</time>
      </trkpt>
      <trkpt lat="48.43968" lon="7.11374">
        <ele>861</ele>
        <time>2019-05-15T10:26:07.078Z</time>
      </trkpt>
      <trkpt lat="48.43969" lon="7.11375">
        <ele>861</ele>
        <time>2019-05-15T10:26:08.078Z</time>
      </trkpt>
      <trkpt lat="48.43969" lon="7.11377">
        <ele>862</ele>
        <time>2019-05-15T10:26:09.078Z</time>
      </trkpt>
      <trkpt lat="48.43969" lon="7.11378">
        <ele>861</ele>
        <time>2019-05-15T10:26:10.078Z</time>
      </trkpt>
      <trkpt lat="48.43969" lon="7.1138">
        <ele>861</ele>
        <time>2019-05-15T10:26:11.078Z</time>
      </trkpt>
      <trkpt lat="48.43969" lon="7.11382">
        <ele>861</ele>
        <time>2019-05-15T10:26:12.078Z</time>
      </trkpt>
      <trkpt lat="48.4397" lon="7.11383">
        <ele>861</ele>
        <time>2019-05-15T10:26:13.078Z</time>
      </trkpt>
      <trkpt lat="48.4397" lon="7.11384">
        <ele>861</ele>
        <time>2019-05-15T10:26:14.078Z</time>
      </trkpt>
      <trkpt lat="48.4397" lon="7.11386">
        <ele>860</ele>
        <time>2019-05-15T10:26:15.078Z</time>
      </trkpt>
      <trkpt lat="48.4397" lon="7.11387">
        <ele>860</ele>
        <time>2019-05-15T10:26:16.078Z</time>
      </trkpt>
      <trkpt lat="48.4397" lon="7.11389">
        <ele>860</ele>
        <time>2019-05-15T10:26:17.078Z</time>
      </trkpt>
      <trkpt lat="48.43971" lon="7.11391">
        <ele>860</ele>
        <time>2019-05-15T10:26:18.078Z</time>
      </trkpt>
      <trkpt lat="48.43971" lon="7.11392">
        <ele>861</ele>
        <time>2019-05-15T10:26:19.078Z</time>
      </trkpt>
      <trkpt lat="48.43971" lon="7.11394">
        <ele>861</ele>
        <time>2019-05-15T10:26:20.078Z</time>
      </trkpt>
      <trkpt lat="48.43972" lon="7.11396">
        <ele>861</ele>
        <time>2019-05-15T10:26:21.078Z</time>
      </trkpt>
      <trkpt lat="48.43972" lon="7.11397">
        <ele>861</ele>
        <time>2019-05-15T10:26:22.078Z</time>
      </trkpt>
      <trkpt lat="48.43972" lon="7.11398">
        <ele>861</ele>
        <time>2019-05-15T10:26:23.078Z</time>
      </trkpt>
      <trkpt lat="48.43972" lon="7.114">
        <ele>861</ele>
        <time>2019-05-15T10:26:24.078Z</time>
      </trkpt>
      <trkpt lat="48.43972" lon="7.11401">
        <ele>860</ele>
        <time>2019-05-15T10:26:25.078Z</time>
      </trkpt>
      <trkpt lat="48.43972" lon="7.11403">
        <ele>860</ele>
        <time>2019-05-15T10:26:26.078Z</time>
      </trkpt>
      <trkpt lat="48.43972" lon="7.11404">
        <ele>860</ele>
        <time>2019-05-15T10:26:27.078Z</time>
      </trkpt>
      <trkpt lat="48.43972" lon="7.11405">
        <ele>860</ele>
        <time>2019-05-15T10:26:28.078Z</time>
      </trkpt>
      <trkpt lat="48.43971" lon="7.11406">
        <ele>859</ele>
        <time>2019-05-15T10:26:29.078Z</time>
      </trkpt>
      <trkpt lat="48.4397" lon="7.11408">
        <ele>860</ele>
        <time>2019-05-15T10:26:30.078Z</time>
      </trkpt>
      <trkpt lat="48.43969" lon="7.11408">
        <ele>860</ele>
        <time>2019-05-15T10:26:31.078Z</time>
      </trkpt>
      <trkpt lat="48.43969" lon="7.11409">
        <ele>860</ele>
        <time>2019-05-15T10:26:32.078Z</time>
      </trkpt>
      <trkpt lat="48.43968" lon="7.1141">
        <ele>860</ele>
        <time>2019-05-15T10:26:33.078Z</time>
      </trkpt>
      <trkpt lat="48.43967" lon="7.11411">
        <ele>860</ele>
        <time>2019-05-15T10:26:34.078Z</time>
      </trkpt>
      <trkpt lat="48.43966" lon="7.11411">
        <ele>860</ele>
        <time>2019-05-15T10:26:35.078Z</time>
      </trkpt>
      <trkpt lat="48.43965" lon="7.11411">
        <ele>860</ele>
        <time>2019-05-15T10:26:36.078Z</time>
      </trkpt>
      <trkpt lat="48.43964" lon="7.11411">
        <ele>860</ele>
        <time>2019-05-15T10:26:37.078Z</time>
      </trkpt>
      <trkpt lat="48.43964" lon="7.11411">
        <ele>860</ele>
        <time>2019-05-15T10:26:38.078Z</time>
      </trkpt>
      <trkpt lat="48.43963" lon="7.11411">
        <ele>859</ele>
        <time>2019-05-15T10:26:39.078Z</time>
      </trkpt>
      <trkpt lat="48.43962" lon="7.11411">
        <ele>859</ele>
        <time>2019-05-15T10:26:40.078Z</time>
      </trkpt>
      <trkpt lat="48.43961" lon="7.11411">
        <ele>859</ele>
        <time>2019-05-15T10:26:41.078Z</time>
      </trkpt>
      <trkpt lat="48.4396" lon="7.1141">
        <ele>859</ele>
        <time>2019-05-15T10:26:42.078Z</time>
      </trkpt>
      <trkpt lat="48.43959" lon="7.1141">
        <ele>859</ele>
        <time>2019-05-15T10:26:43.078Z</time>
      </trkpt>
      <trkpt lat="48.43958" lon="7.1141">
        <ele>859</ele>
        <time>2019-05-15T10:26:44.078Z</time>
      </trkpt>
      <trkpt lat="48.43957" lon="7.11409">
        <ele>859</ele>
        <time>2019-05-15T10:26:45.078Z</time>
      </trkpt>
      <trkpt lat="48.43956" lon="7.11409">
        <ele>859</ele>
        <time>2019-05-15T10:26:46.078Z</time>
      </trkpt>
      <trkpt lat="48.43956" lon="7.11409">
        <ele>859</ele>
        <time>2019-05-15T10:26:47.078Z</time>
      </trkpt>
      <trkpt lat="48.43955" lon="7.11409">
        <ele>859</ele>
        <time>2019-05-15T10:26:48.078Z</time>
      </trkpt>
      <trkpt lat="48.43955" lon="7.11409">
        <ele>859</ele>
        <time>2019-05-15T10:26:49.078Z</time>
      </trkpt>
      <trkpt lat="48.43955" lon="7.11409">
        <ele>859</ele>
        <time>2019-05-15T10:26:50.078Z</time>
      </trkpt>
      <trkpt lat="48.43955" lon="7.1141">
        <ele>859</ele>
        <time>2019-05-15T10:26:51.078Z</time>
      </trkpt>
      <trkpt lat="48.43955" lon="7.1141">
        <ele>860</ele>
        <time>2019-05-15T10:26:52.078Z</time>
      </trkpt>
      <trkpt lat="48.43955" lon="7.1141">
        <ele>860</ele>
        <time>2019-05-15T10:26:53.078Z</time>
      </trkpt>
      <trkpt lat="48.43955" lon="7.1141">
        <ele>860</ele>
        <time>2019-05-15T10:26:54.078Z</time>
      </trkpt>
      <trkpt lat="48.43955" lon="7.1141">
        <ele>860</ele>
        <time>2019-05-15T10:26:55.078Z</time>
      </trkpt>
      <trkpt lat="48.43955" lon="7.1141">
        <ele>860</ele>
        <time>2019-05-15T10:26:56.078Z</time>
      </trkpt>
      <trkpt lat="48.43955" lon="7.1141">
        <ele>860</ele>
        <time>2019-05-15T10:26:57.078Z</time>
      </trkpt>
      <trkpt lat="48.43955" lon="7.11411">
        <ele>860</ele>
        <time>2019-05-15T10:26:58.078Z</time>
      </trkpt>
      <trkpt lat="48.43955" lon="7.11411">
        <ele>861</ele>
        <time>2019-05-15T10:26:59.078Z</time>
      </trkpt>
      <trkpt lat="48.43955" lon="7.11411">
        <ele>861</ele>
        <time>2019-05-15T10:27:00.078Z</time>
      </trkpt>
      <trkpt lat="48.43955" lon="7.11411">
        <ele>861</ele>
        <time>2019-05-15T10:27:01.078Z</time>
      </trkpt>
      <trkpt lat="48.43955" lon="7.11411">
        <ele>861</ele>
        <time>2019-05-15T10:27:02.078Z</time>
      </trkpt>
      <trkpt lat="48.43955" lon="7.11411">
        <ele>862</ele>
        <time>2019-05-15T10:27:03.078Z</time>
      </trkpt>
      <trkpt lat="48.43955" lon="7.11411">
        <ele>862</ele>
        <time>2019-05-15T10:27:04.078Z</time>
      </trkpt>
      <trkpt lat="48.43955" lon="7.11411">
        <ele>862</ele>
        <time>2019-05-15T10:27:05.078Z</time>
      </trkpt>
      <trkpt lat="48.43955" lon="7.11411">
        <ele>862</ele>
        <time>2019-05-15T10:27:06.078Z</time>
      </trkpt>
      <trkpt lat="48.43954" lon="7.11412">
        <ele>862</ele>
        <time>2019-05-15T10:27:07.078Z</time>
      </trkpt>
      <trkpt lat="48.43954" lon="7.11412">
        <ele>863</ele>
        <time>2019-05-15T10:27:08.078Z</time>
      </trkpt>
      <trkpt lat="48.43954" lon="7.11412">
        <ele>863</ele>
        <time>2019-05-15T10:27:09.078Z</time>
      </trkpt>
      <trkpt lat="48.43954" lon="7.11412">
        <ele>863</ele>
        <time>2019-05-15T10:27:10.078Z</time>
      </trkpt>
      <trkpt lat="48.43954" lon="7.11412">
        <ele>863</ele>
        <time>2019-05-15T10:27:11.078Z</time>
      </trkpt>
      <trkpt lat="48.43954" lon="7.11413">
        <ele>863</ele>
        <time>2019-05-15T10:27:12.078Z</time>
      </trkpt>
      <trkpt lat="48.43954" lon="7.11413">
        <ele>863</ele>
        <time>2019-05-15T10:27:13.078Z</time>
      </trkpt>
      <trkpt lat="48.43954" lon="7.11413">
        <ele>864</ele>
        <time>2019-05-15T10:27:14.078Z</time>
      </trkpt>
      <trkpt lat="48.43954" lon="7.11413">
        <ele>864</ele>
        <time>2019-05-15T10:27:15.078Z</time>
      </trkpt>
      <trkpt lat="48.43954" lon="7.11413">
        <ele>864</ele>
        <time>2019-05-15T10:27:16.078Z</time>
      </trkpt>
      <trkpt lat="48.43954" lon="7.11413">
        <ele>864</ele>
        <time>2019-05-15T10:27:17.078Z</time>
      </trkpt>
      <trkpt lat="48.43954" lon="7.11413">
        <ele>864</ele>
        <time>2019-05-15T10:27:18.078Z</time>
      </trkpt>
      <trkpt lat="48.43954" lon="7.11413">
        <ele>864</ele>
        <time>2019-05-15T10:27:19.078Z</time>
      </trkpt>
      <trkpt lat="48.43954" lon="7.11413">
        <ele>864</ele>
        <time>2019-05-15T10:27:20.078Z</time>
      </trkpt>
      <trkpt lat="48.43955" lon="7.11414">
        <ele>865</ele>
        <time>2019-05-15T10:27:21.078Z</time>
      </trkpt>
      <trkpt lat="48.43955" lon="7.11414">
        <ele>865</ele>
        <time>2019-05-15T10:27:22.078Z</time>
      </trkpt>
      <trkpt lat="48.43955" lon="7.11414">
        <ele>865</ele>
        <time>2019-05-15T10:27:23.078Z</time>
      </trkpt>
      <trkpt lat="48.43955" lon="7.11414">
        <ele>865</ele>
        <time>2019-05-15T10:27:24.078Z</time>
      </trkpt>
      <trkpt lat="48.43955" lon="7.11414">
        <ele>865</ele>
        <time>2019-05-15T10:27:25.078Z</time>
      </trkpt>
      <trkpt lat="48.43955" lon="7.11414">
        <ele>865</ele>
        <time>2019-05-15T10:27:26.078Z</time>
      </trkpt>
      <trkpt lat="48.43955" lon="7.11414">
        <ele>865</ele>
        <time>2019-05-15T10:27:27.078Z</time>
      </trkpt>
      <trkpt lat="48.43955" lon="7.11414">
        <ele>865</ele>
        <time>2019-05-15T10:27:28.078Z</time>
      </trkpt>
      <trkpt lat="48.43955" lon="7.11415">
        <ele>865</ele>
        <time>2019-05-15T10:27:29.078Z</time>
      </trkpt>
      <trkpt lat="48.43955" lon="7.11415">
        <ele>865</ele>
        <time>2019-05-15T10:27:30.078Z</time>
      </trkpt>
      <trkpt lat="48.43955" lon="7.11415">
        <ele>865</ele>
        <time>2019-05-15T10:27:31.078Z</time>
      </trkpt>
      <trkpt lat="48.43955" lon="7.11415">
        <ele>865</ele>
        <time>2019-05-15T10:27:32.078Z</time>
      </trkpt>
      <trkpt lat="48.43955" lon="7.11415">
        <ele>865</ele>
        <time>2019-05-15T10:27:33.078Z</time>
      </trkpt>
      <trkpt lat="48.43955" lon="7.11415">
        <ele>864</ele>
        <time>2019-05-15T10:27:34.078Z</time>
      </trkpt>
      <trkpt lat="48.43955" lon="7.11415">
        <ele>864</ele>
        <time>2019-05-15T10:27:35.078Z</time>
      </trkpt>
      <trkpt lat="48.43955" lon="7.11415">
        <ele>864</ele>
        <time>2019-05-15T10:27:36.078Z</time>
      </trkpt>
      <trkpt lat="48.43955" lon="7.11415">
        <ele>864</ele>
        <time>2019-05-15T10:27:37.078Z</time>
      </trkpt>
      <trkpt lat="48.43955" lon="7.11415">
        <ele>864</ele>
        <time>2019-05-15T10:27:38.078Z</time>
      </trkpt>
      <trkpt lat="48.43955" lon="7.11415">
        <ele>863</ele>
        <time>2019-05-15T10:27:39.078Z</time>
      </trkpt>
      <trkpt lat="48.43955" lon="7.11415">
        <ele>863</ele>
        <time>2019-05-15T10:27:40.078Z</time>
      </trkpt>
      <trkpt lat="48.43954" lon="7.11414">
        <ele>863</ele>
        <time>2019-05-15T10:27:41.078Z</time>
      </trkpt>
      <trkpt lat="48.43954" lon="7.11414">
        <ele>863</ele>
        <time>2019-05-15T10:27:42.078Z</time>
      </trkpt>
      <trkpt lat="48.43954" lon="7.11414">
        <ele>863</ele>
        <time>2019-05-15T10:27:43.078Z</time>
      </trkpt>
      <trkpt lat="48.43954" lon="7.11414">
        <ele>863</ele>
        <time>2019-05-15T10:27:44.078Z</time>
      </trkpt>
      <trkpt lat="48.43954" lon="7.11413">
        <ele>862</ele>
        <time>2019-05-15T10:27:45.078Z</time>
      </trkpt>
      <trkpt lat="48.43954" lon="7.11412">
        <ele>862</ele>
        <time>2019-05-15T10:27:46.078Z</time>
      </trkpt>
      <trkpt lat="48.43954" lon="7.1141">
        <ele>861</ele>
        <time>2019-05-15T10:27:47.078Z</time>
      </trkpt>
      <trkpt lat="48.43954" lon="7.11408">
        <ele>862</ele>
        <time>2019-05-15T10:27:48.078Z</time>
      </trkpt>
      <trkpt lat="48.43953" lon="7.11407">
        <ele>861</ele>
        <time>2019-05-15T10:27:49.078Z</time>
      </trkpt>
      <trkpt lat="48.43952" lon="7.11405">
        <ele>862</ele>
        <time>2019-05-15T10:27:50.078Z</time>
      </trkpt>
      <trkpt lat="48.43894" lon="7.11409">
        <ele>862</ele>
        <time>2019-05-15T10:27:51.082Z</time>
      </trkpt>
      <trkpt lat="48.43893" lon="7.11409">
        <ele>862</ele>
        <time>2019-05-15T10:27:52.082Z</time>
      </trkpt>
      <trkpt lat="48.43893" lon="7.11409">
        <ele>862</ele>
        <time>2019-05-15T10:27:53.082Z</time>
      </trkpt>
      <trkpt lat="48.43893" lon="7.11409">
        <ele>863</ele>
        <time>2019-05-15T10:27:54.082Z</time>
      </trkpt>
      <trkpt lat="48.43893" lon="7.11409">
        <ele>863</ele>
        <time>2019-05-15T10:27:55.082Z</time>
      </trkpt>
      <trkpt lat="48.43894" lon="7.11409">
        <ele>863</ele>
        <time>2019-05-15T10:27:56.082Z</time>
      </trkpt>
      <trkpt lat="48.43894" lon="7.11409">
        <ele>863</ele>
        <time>2019-05-15T10:27:57.082Z</time>
      </trkpt>
      <trkpt lat="48.43894" lon="7.11409">
        <ele>863</ele>
        <time>2019-05-15T10:27:58.082Z</time>
      </trkpt>
      <trkpt lat="48.43894" lon="7.11409">
        <ele>863</ele>
        <time>2019-05-15T10:27:59.082Z</time>
      </trkpt>
      <trkpt lat="48.43893" lon="7.11409">
        <ele>863</ele>
        <time>2019-05-15T10:28:00.082Z</time>
      </trkpt>
      <trkpt lat="48.43893" lon="7.11409">
        <ele>863</ele>
        <time>2019-05-15T10:28:01.082Z</time>
      </trkpt>
      <trkpt lat="48.43893" lon="7.11409">
        <ele>863</ele>
        <time>2019-05-15T10:28:02.082Z</time>
      </trkpt>
      <trkpt lat="48.43893" lon="7.11409">
        <ele>863</ele>
        <time>2019-05-15T10:28:03.082Z</time>
      </trkpt>
      <trkpt lat="48.43894" lon="7.11409">
        <ele>863</ele>
        <time>2019-05-15T10:28:04.082Z</time>
      </trkpt>
      <trkpt lat="48.43894" lon="7.11409">
        <ele>863</ele>
        <time>2019-05-15T10:28:05.082Z</time>
      </trkpt>
      <trkpt lat="48.43894" lon="7.11409">
        <ele>863</ele>
        <time>2019-05-15T10:28:06.082Z</time>
      </trkpt>
      <trkpt lat="48.43894" lon="7.11409">
        <ele>863</ele>
        <time>2019-05-15T10:28:07.082Z</time>
      </trkpt>
      <trkpt lat="48.43894" lon="7.11409">
        <ele>863</ele>
        <time>2019-05-15T10:28:08.082Z</time>
      </trkpt>
      <trkpt lat="48.43894" lon="7.11409">
        <ele>863</ele>
        <time>2019-05-15T10:28:09.082Z</time>
      </trkpt>
      <trkpt lat="48.43894" lon="7.11409">
        <ele>863</ele>
        <time>2019-05-15T10:28:10.082Z</time>
      </trkpt>
      <trkpt lat="48.43894" lon="7.11409">
        <ele>863</ele>
        <time>2019-05-15T10:28:11.082Z</time>
      </trkpt>
      <trkpt lat="48.43894" lon="7.11409">
        <ele>863</ele>
        <time>2019-05-15T10:28:12.082Z</time>
      </trkpt>
      <trkpt lat="48.43894" lon="7.11409">
        <ele>863</ele>
        <time>2019-05-15T10:28:13.082Z</time>
      </trkpt>
      <trkpt lat="48.43894" lon="7.11409">
        <ele>863</ele>
        <time>2019-05-15T10:28:14.082Z</time>
      </trkpt>
      <trkpt lat="48.43894" lon="7.11409">
        <ele>862</ele>
        <time>2019-05-15T10:28:15.082Z</time>
      </trkpt>
      <trkpt lat="48.43894" lon="7.11408">
        <ele>863</ele>
        <time>2019-05-15T10:28:16.082Z</time>
      </trkpt>
      <trkpt lat="48.43894" lon="7.11408">
        <ele>863</ele>
        <time>2019-05-15T10:28:17.082Z</time>
      </trkpt>
      <trkpt lat="48.43895" lon="7.11407">
        <ele>863</ele>
        <time>2019-05-15T10:28:18.082Z</time>
      </trkpt>
      <trkpt lat="48.43895" lon="7.11407">
        <ele>863</ele>
        <time>2019-05-15T10:28:19.082Z</time>
      </trkpt>
      <trkpt lat="48.43895" lon="7.11407">
        <ele>863</ele>
        <time>2019-05-15T10:28:20.082Z</time>
      </trkpt>
      <trkpt lat="48.43896" lon="7.11407">
        <ele>863</ele>
        <time>2019-05-15T10:28:21.082Z</time>
      </trkpt>
      <trkpt lat="48.43896" lon="7.11407">
        <ele>863</ele>
        <time>2019-05-15T10:28:22.082Z</time>
      </trkpt>
      <trkpt lat="48.43897" lon="7.11406">
        <ele>863</ele>
        <time>2019-05-15T10:28:23.082Z</time>
      </trkpt>
      <trkpt lat="48.43897" lon="7.11406">
        <ele>863</ele>
        <time>2019-05-15T10:28:24.082Z</time>
      </trkpt>
      <trkpt lat="48.43897" lon="7.11406">
        <ele>863</ele>
        <time>2019-05-15T10:28:25.082Z</time>
      </trkpt>
      <trkpt lat="48.43898" lon="7.11406">
        <ele>863</ele>
        <time>2019-05-15T10:28:26.082Z</time>
      </trkpt>
      <trkpt lat="48.43898" lon="7.11406">
        <ele>863</ele>
        <time>2019-05-15T10:28:27.082Z</time>
      </trkpt>
      <trkpt lat="48.43898" lon="7.11405">
        <ele>863</ele>
        <time>2019-05-15T10:28:28.082Z</time>
      </trkpt>
      <trkpt lat="48.43899" lon="7.11405">
        <ele>863</ele>
        <time>2019-05-15T10:28:29.082Z</time>
      </trkpt>
      <trkpt lat="48.43899" lon="7.11405">
        <ele>863</ele>
        <time>2019-05-15T10:28:30.082Z</time>
      </trkpt>
      <trkpt lat="48.439" lon="7.11404">
        <ele>863</ele>
        <time>2019-05-15T10:28:31.082Z</time>
      </trkpt>
      <trkpt lat="48.439" lon="7.11404">
        <ele>863</ele>
        <time>2019-05-15T10:28:32.082Z</time>
      </trkpt>
      <trkpt lat="48.43901" lon="7.11403">
        <ele>863</ele>
        <time>2019-05-15T10:28:33.082Z</time>
      </trkpt>
      <trkpt lat="48.43901" lon="7.11403">
        <ele>863</ele>
        <time>2019-05-15T10:28:34.082Z</time>
      </trkpt>
      <trkpt lat="48.43902" lon="7.11403">
        <ele>863</ele>
        <time>2019-05-15T10:28:35.082Z</time>
      </trkpt>
      <trkpt lat="48.43903" lon="7.11402">
        <ele>863</ele>
        <time>2019-05-15T10:28:36.082Z</time>
      </trkpt>
      <trkpt lat="48.43904" lon="7.11402">
        <ele>863</ele>
        <time>2019-05-15T10:28:37.082Z</time>
      </trkpt>
      <trkpt lat="48.43904" lon="7.11401">
        <ele>863</ele>
        <time>2019-05-15T10:28:38.082Z</time>
      </trkpt>
      <trkpt lat="48.43905" lon="7.11401">
        <ele>863</ele>
        <time>2019-05-15T10:28:39.082Z</time>
      </trkpt>
      <trkpt lat="48.43906" lon="7.114">
        <ele>863</ele>
        <time>2019-05-15T10:28:40.082Z</time>
      </trkpt>
      <trkpt lat="48.43907" lon="7.114">
        <ele>863</ele>
        <time>2019-05-15T10:28:41.082Z</time>
      </trkpt>
      <trkpt lat="48.43907" lon="7.11399">
        <ele>863</ele>
        <time>2019-05-15T10:28:42.082Z</time>
      </trkpt>
      <trkpt lat="48.43908" lon="7.11399">
        <ele>863</ele>
        <time>2019-05-15T10:28:43.082Z</time>
      </trkpt>
      <trkpt lat="48.43909" lon="7.11399">
        <ele>863</ele>
        <time>2019-05-15T10:28:44.082Z</time>
      </trkpt>
      <trkpt lat="48.4391" lon="7.11398">
        <ele>863</ele>
        <time>2019-05-15T10:28:45.082Z</time>
      </trkpt>
      <trkpt lat="48.43911" lon="7.11398">
        <ele>863</ele>
        <time>2019-05-15T10:28:46.082Z</time>
      </trkpt>
      <trkpt lat="48.43912" lon="7.11397">
        <ele>864</ele>
        <time>2019-05-15T10:28:47.082Z</time>
      </trkpt>
      <trkpt lat="48.43913" lon="7.11397">
        <ele>864</ele>
        <time>2019-05-15T10:28:48.082Z</time>
      </trkpt>
      <trkpt lat="48.43913" lon="7.11396">
        <ele>864</ele>
        <time>2019-05-15T10:28:49.082Z</time>
      </trkpt>
      <trkpt lat="48.43914" lon="7.11396">
        <ele>863</ele>
        <time>2019-05-15T10:28:50.082Z</time>
      </trkpt>
      <trkpt lat="48.43915" lon="7.11395">
        <ele>864</ele>
        <time>2019-05-15T10:28:51.082Z</time>
      </trkpt>
      <trkpt lat="48.43916" lon="7.11395">
        <ele>864</ele>
        <time>2019-05-15T10:28:52.082Z</time>
      </trkpt>
      <trkpt lat="48.43917" lon="7.11394">
        <ele>864</ele>
        <time>2019-05-15T10:28:53.082Z</time>
      </trkpt>
      <trkpt lat="48.43918" lon="7.11394">
        <ele>864</ele>
        <time>2019-05-15T10:28:54.082Z</time>
      </trkpt>
      <trkpt lat="48.43919" lon="7.11393">
        <ele>864</ele>
        <time>2019-05-15T10:28:55.082Z</time>
      </trkpt>
      <trkpt lat="48.4392" lon="7.11393">
        <ele>864</ele>
        <time>2019-05-15T10:28:56.082Z</time>
      </trkpt>
      <trkpt lat="48.4392" lon="7.11393">
        <ele>864</ele>
        <time>2019-05-15T10:28:57.082Z</time>
      </trkpt>
      <trkpt lat="48.43921" lon="7.11392">
        <ele>864</ele>
        <time>2019-05-15T10:28:58.082Z</time>
      </trkpt>
      <trkpt lat="48.43922" lon="7.11392">
        <ele>864</ele>
        <time>2019-05-15T10:28:59.082Z</time>
      </trkpt>
      <trkpt lat="48.43923" lon="7.11392">
        <ele>864</ele>
        <time>2019-05-15T10:29:00.082Z</time>
      </trkpt>
      <trkpt lat="48.43923" lon="7.11392">
        <ele>865</ele>
        <time>2019-05-15T10:29:01.082Z</time>
      </trkpt>
      <trkpt lat="48.43924" lon="7.11391">
        <ele>865</ele>
        <time>2019-05-15T10:29:02.082Z</time>
      </trkpt>
      <trkpt lat="48.43925" lon="7.11391">
        <ele>865</ele>
        <time>2019-05-15T10:29:03.082Z</time>
      </trkpt>
      <trkpt lat="48.43926" lon="7.11391">
        <ele>865</ele>
        <time>2019-05-15T10:29:04.082Z</time>
      </trkpt>
      <trkpt lat="48.43927" lon="7.11391">
        <ele>864</ele>
        <time>2019-05-15T10:29:05.082Z</time>
      </trkpt>
      <trkpt lat="48.43927" lon="7.11391">
        <ele>865</ele>
        <time>2019-05-15T10:29:06.082Z</time>
      </trkpt>
      <trkpt lat="48.43928" lon="7.1139">
        <ele>865</ele>
        <time>2019-05-15T10:29:07.082Z</time>
      </trkpt>
      <trkpt lat="48.43929" lon="7.1139">
        <ele>865</ele>
        <time>2019-05-15T10:29:08.082Z</time>
      </trkpt>
      <trkpt lat="48.43929" lon="7.1139">
        <ele>865</ele>
        <time>2019-05-15T10:29:09.082Z</time>
      </trkpt>
      <trkpt lat="48.4393" lon="7.1139">
        <ele>865</ele>
        <time>2019-05-15T10:29:10.082Z</time>
      </trkpt>
      <trkpt lat="48.4393" lon="7.1139">
        <ele>865</ele>
        <time>2019-05-15T10:29:11.082Z</time>
      </trkpt>
      <trkpt lat="48.43931" lon="7.11389">
        <ele>865</ele>
        <time>2019-05-15T10:29:12.082Z</time>
      </trkpt>
      <trkpt lat="48.43931" lon="7.11389">
        <ele>865</ele>
        <time>2019-05-15T10:29:13.082Z</time>
      </trkpt>
      <trkpt lat="48.43931" lon="7.11389">
        <ele>865</ele>
        <time>2019-05-15T10:29:14.082Z</time>
      </trkpt>
      <trkpt lat="48.43932" lon="7.11389">
        <ele>865</ele>
        <time>2019-05-15T10:29:15.082Z</time>
      </trkpt>
      <trkpt lat="48.43932" lon="7.11389">
        <ele>865</ele>
        <time>2019-05-15T10:29:16.082Z</time>
      </trkpt>
      <trkpt lat="48.43932" lon="7.11389">
        <ele>864</ele>
        <time>2019-05-15T10:29:17.082Z</time>
      </trkpt>
      <trkpt lat="48.43933" lon="7.11389">
        <ele>865</ele>
        <time>2019-05-15T10:29:18.082Z</time>
      </trkpt>
      <trkpt lat="48.43933" lon="7.11389">
        <ele>865</ele>
        <time>2019-05-15T10:29:19.082Z</time>
      </trkpt>
      <trkpt lat="48.43934" lon="7.11389">
        <ele>864</ele>
        <time>2019-05-15T10:29:20.082Z</time>
      </trkpt>
      <trkpt lat="48.43934" lon="7.11389">
        <ele>864</ele>
        <time>2019-05-15T10:29:21.082Z</time>
      </trkpt>
      <trkpt lat="48.43934" lon="7.11389">
        <ele>864</ele>
        <time>2019-05-15T10:29:22.082Z</time>
      </trkpt>
      <trkpt lat="48.43934" lon="7.11389">
        <ele>864</ele>
        <time>2019-05-15T10:29:23.082Z</time>
      </trkpt>
      <trkpt lat="48.43935" lon="7.11389">
        <ele>864</ele>
        <time>2019-05-15T10:29:24.082Z</time>
      </trkpt>
      <trkpt lat="48.43935" lon="7.11389">
        <ele>864</ele>
        <time>2019-05-15T10:29:25.082Z</time>
      </trkpt>
      <trkpt lat="48.43934" lon="7.11389">
        <ele>864</ele>
        <time>2019-05-15T10:29:26.082Z</time>
      </trkpt>
      <trkpt lat="48.43934" lon="7.11389">
        <ele>864</ele>
        <time>2019-05-15T10:29:27.082Z</time>
      </trkpt>
      <trkpt lat="48.43935" lon="7.11388">
        <ele>865</ele>
        <time>2019-05-15T10:29:28.082Z</time>
      </trkpt>
      <trkpt lat="48.43935" lon="7.11387">
        <ele>864</ele>
        <time>2019-05-15T10:29:29.082Z</time>
      </trkpt>
      <trkpt lat="48.43936" lon="7.11387">
        <ele>865</ele>
        <time>2019-05-15T10:29:30.082Z</time>
      </trkpt>
      <trkpt lat="48.43936" lon="7.11386">
        <ele>865</ele>
        <time>2019-05-15T10:29:31.082Z</time>
      </trkpt>
      <trkpt lat="48.43937" lon="7.11385">
        <ele>865</ele>
        <time>2019-05-15T10:29:32.082Z</time>
      </trkpt>
      <trkpt lat="48.43937" lon="7.11385">
        <ele>865</ele>
        <time>2019-05-15T10:29:33.082Z</time>
      </trkpt>
      <trkpt lat="48.43938" lon="7.11384">
        <ele>865</ele>
        <time>2019-05-15T10:29:34.082Z</time>
      </trkpt>
      <trkpt lat="48.43938" lon="7.11383">
        <ele>865</ele>
        <time>2019-05-15T10:29:35.082Z</time>
      </trkpt>
      <trkpt lat="48.43939" lon="7.11381">
        <ele>864</ele>
        <time>2019-05-15T10:29:36.082Z</time>
      </trkpt>
      <trkpt lat="48.43939" lon="7.1138">
        <ele>865</ele>
        <time>2019-05-15T10:29:37.082Z</time>
      </trkpt>
      <trkpt lat="48.4394" lon="7.11379">
        <ele>864</ele>
        <time>2019-05-15T10:29:38.082Z</time>
      </trkpt>
      <trkpt lat="48.4394" lon="7.11377">
        <ele>864</ele>
        <time>2019-05-15T10:29:39.082Z</time>
      </trkpt>
      <trkpt lat="48.43941" lon="7.11376">
        <ele>864</ele>
        <time>2019-05-15T10:29:40.082Z</time>
      </trkpt>
      <trkpt lat="48.43941" lon="7.11375">
        <ele>865</ele>
        <time>2019-05-15T10:29:41.082Z</time>
      </trkpt>
      <trkpt lat="48.43942" lon="7.11374">
        <ele>865</ele>
        <time>2019-05-15T10:29:42.082Z</time>
      </trkpt>
      <trkpt lat="48.43942" lon="7.11372">
        <ele>865</ele>
        <time>2019-05-15T10:29:43.082Z</time>
      </trkpt>
      <trkpt lat="48.43943" lon="7.11371">
        <ele>865</ele>
        <time>2019-05-15T10:29:44.082Z</time>
      </trkpt>
      <trkpt lat="48.43943" lon="7.1137">
        <ele>865</ele>
        <time>2019-05-15T10:29:45.082Z</time>
      </trkpt>
      <trkpt lat="48.43944" lon="7.11369">
        <ele>865</ele>
        <time>2019-05-15T10:29:46.082Z</time>
      </trkpt>
      <trkpt lat="48.43944" lon="7.11368">
        <ele>865</ele>
        <time>2019-05-15T10:29:47.082Z</time>
      </trkpt>
      <trkpt lat="48.43945" lon="7.11367">
        <ele>865</ele>
        <time>2019-05-15T10:29:48.082Z</time>
      </trkpt>
      <trkpt lat="48.43945" lon="7.11366">
        <ele>865</ele>
        <time>2019-05-15T10:29:49.082Z</time>
      </trkpt>
      <trkpt lat="48.43945" lon="7.11365">
        <ele>865</ele>
        <time>2019-05-15T10:29:50.082Z</time>
      </trkpt>
      <trkpt lat="48.43946" lon="7.11365">
        <ele>865</ele>
        <time>2019-05-15T10:29:51.082Z</time>
      </trkpt>
      <trkpt lat="48.43946" lon="7.11364">
        <ele>864</ele>
        <time>2019-05-15T10:29:52.082Z</time>
      </trkpt>
      <trkpt lat="48.43946" lon="7.11363">
        <ele>864</ele>
        <time>2019-05-15T10:29:53.082Z</time>
      </trkpt>
      <trkpt lat="48.43946" lon="7.11362">
        <ele>864</ele>
        <time>2019-05-15T10:29:54.082Z</time>
      </trkpt>
      <trkpt lat="48.43947" lon="7.11361">
        <ele>864</ele>
        <time>2019-05-15T10:29:55.082Z</time>
      </trkpt>
      <trkpt lat="48.43947" lon="7.1136">
        <ele>864</ele>
        <time>2019-05-15T10:29:56.082Z</time>
      </trkpt>
      <trkpt lat="48.43948" lon="7.11359">
        <ele>864</ele>
        <time>2019-05-15T10:29:57.082Z</time>
      </trkpt>
      <trkpt lat="48.43949" lon="7.11358">
        <ele>864</ele>
        <time>2019-05-15T10:29:58.082Z</time>
      </trkpt>
      <trkpt lat="48.43949" lon="7.11357">
        <ele>865</ele>
        <time>2019-05-15T10:29:59.082Z</time>
      </trkpt>
      <trkpt lat="48.4395" lon="7.11357">
        <ele>864</ele>
        <time>2019-05-15T10:30:00.082Z</time>
      </trkpt>
      <trkpt lat="48.43951" lon="7.11356">
        <ele>864</ele>
        <time>2019-05-15T10:30:01.082Z</time>
      </trkpt>
      <trkpt lat="48.43951" lon="7.11355">
        <ele>864</ele>
        <time>2019-05-15T10:30:02.082Z</time>
      </trkpt>
      <trkpt lat="48.43952" lon="7.11354">
        <ele>864</ele>
        <time>2019-05-15T10:30:03.082Z</time>
      </trkpt>
      <trkpt lat="48.43953" lon="7.11353">
        <ele>865</ele>
        <time>2019-05-15T10:30:04.082Z</time>
      </trkpt>
      <trkpt lat="48.43954" lon="7.11352">
        <ele>865</ele>
        <time>2019-05-15T10:30:05.082Z</time>
      </trkpt>
      <trkpt lat="48.43954" lon="7.11351">
        <ele>865</ele>
        <time>2019-05-15T10:30:06.082Z</time>
      </trkpt>
      <trkpt lat="48.43955" lon="7.11351">
        <ele>865</ele>
        <time>2019-05-15T10:30:07.082Z</time>
      </trkpt>
      <trkpt lat="48.43955" lon="7.1135">
        <ele>865</ele>
        <time>2019-05-15T10:30:08.082Z</time>
      </trkpt>
      <trkpt lat="48.43956" lon="7.11349">
        <ele>865</ele>
        <time>2019-05-15T10:30:09.082Z</time>
      </trkpt>
      <trkpt lat="48.43956" lon="7.11349">
        <ele>865</ele>
        <time>2019-05-15T10:30:10.082Z</time>
      </trkpt>
      <trkpt lat="48.43956" lon="7.11348">
        <ele>865</ele>
        <time>2019-05-15T10:30:11.082Z</time>
      </trkpt>
      <trkpt lat="48.43957" lon="7.11347">
        <ele>865</ele>
        <time>2019-05-15T10:30:12.082Z</time>
      </trkpt>
      <trkpt lat="48.43958" lon="7.11346">
        <ele>865</ele>
        <time>2019-05-15T10:30:13.082Z</time>
      </trkpt>
      <trkpt lat="48.43959" lon="7.11346">
        <ele>865</ele>
        <time>2019-05-15T10:30:14.082Z</time>
      </trkpt>
      <trkpt lat="48.43959" lon="7.11345">
        <ele>864</ele>
        <time>2019-05-15T10:30:15.082Z</time>
      </trkpt>
      <trkpt lat="48.4396" lon="7.11344">
        <ele>864</ele>
        <time>2019-05-15T10:30:16.082Z</time>
      </trkpt>
      <trkpt lat="48.4396" lon="7.11343">
        <ele>865</ele>
        <time>2019-05-15T10:30:17.082Z</time>
      </trkpt>
      <trkpt lat="48.43961" lon="7.11343">
        <ele>865</ele>
        <time>2019-05-15T10:30:18.082Z</time>
      </trkpt>
      <trkpt lat="48.43961" lon="7.11343">
        <ele>865</ele>
        <time>2019-05-15T10:30:19.082Z</time>
      </trkpt>
      <trkpt lat="48.43962" lon="7.11342">
        <ele>865</ele>
        <time>2019-05-15T10:30:20.082Z</time>
      </trkpt>
      <trkpt lat="48.43962" lon="7.11342">
        <ele>865</ele>
        <time>2019-05-15T10:30:21.082Z</time>
      </trkpt>
      <trkpt lat="48.43962" lon="7.11342">
        <ele>865</ele>
        <time>2019-05-15T10:30:22.082Z</time>
      </trkpt>
      <trkpt lat="48.43962" lon="7.11342">
        <ele>865</ele>
        <time>2019-05-15T10:30:23.082Z</time>
      </trkpt>
      <trkpt lat="48.43963" lon="7.11342">
        <ele>865</ele>
        <time>2019-05-15T10:30:24.082Z</time>
      </trkpt>
      <trkpt lat="48.43963" lon="7.11342">
        <ele>865</ele>
        <time>2019-05-15T10:30:25.082Z</time>
      </trkpt>
      <trkpt lat="48.43964" lon="7.11341">
        <ele>865</ele>
        <time>2019-05-15T10:30:26.082Z</time>
      </trkpt>
      <trkpt lat="48.43964" lon="7.11341">
        <ele>865</ele>
        <time>2019-05-15T10:30:27.082Z</time>
      </trkpt>
      <trkpt lat="48.43964" lon="7.1134">
        <ele>865</ele>
        <time>2019-05-15T10:30:28.082Z</time>
      </trkpt>
      <trkpt lat="48.43965" lon="7.1134">
        <ele>864</ele>
        <time>2019-05-15T10:30:29.082Z</time>
      </trkpt>
      <trkpt lat="48.43966" lon="7.11339">
        <ele>864</ele>
        <time>2019-05-15T10:30:30.082Z</time>
      </trkpt>
      <trkpt lat="48.43966" lon="7.11339">
        <ele>863</ele>
        <time>2019-05-15T10:30:31.082Z</time>
      </trkpt>
      <trkpt lat="48.43967" lon="7.11338">
        <ele>863</ele>
        <time>2019-05-15T10:30:32.082Z</time>
      </trkpt>
      <trkpt lat="48.43968" lon="7.11337">
        <ele>863</ele>
        <time>2019-05-15T10:30:33.082Z</time>
      </trkpt>
      <trkpt lat="48.43968" lon="7.11336">
        <ele>863</ele>
        <time>2019-05-15T10:30:34.082Z</time>
      </trkpt>
      <trkpt lat="48.43968" lon="7.11334">
        <ele>863</ele>
        <time>2019-05-15T10:30:35.082Z</time>
      </trkpt>
      <trkpt lat="48.43969" lon="7.11332">
        <ele>864</ele>
        <time>2019-05-15T10:30:36.082Z</time>
      </trkpt>
      <trkpt lat="48.43969" lon="7.11331">
        <ele>864</ele>
        <time>2019-05-15T10:30:37.082Z</time>
      </trkpt>
      <trkpt lat="48.43969" lon="7.11329">
        <ele>863</ele>
        <time>2019-05-15T10:30:38.082Z</time>
      </trkpt>
      <trkpt lat="48.43969" lon="7.11327">
        <ele>864</ele>
        <time>2019-05-15T10:30:39.082Z</time>
      </trkpt>
      <trkpt lat="48.43969" lon="7.11326">
        <ele>863</ele>
        <time>2019-05-15T10:30:40.082Z</time>
      </trkpt>
      <trkpt lat="48.43969" lon="7.11324">
        <ele>863</ele>
        <time>2019-05-15T10:30:41.082Z</time>
      </trkpt>
      <trkpt lat="48.43969" lon="7.11322">
        <ele>863</ele>
        <time>2019-05-15T10:30:42.082Z</time>
      </trkpt>
      <trkpt lat="48.43969" lon="7.11321">
        <ele>864</ele>
        <time>2019-05-15T10:30:43.082Z</time>
      </trkpt>
      <trkpt lat="48.43969" lon="7.11319">
        <ele>864</ele>
        <time>2019-05-15T10:30:44.082Z</time>
      </trkpt>
      <trkpt lat="48.43969" lon="7.11317">
        <ele>864</ele>
        <time>2019-05-15T10:30:45.082Z</time>
      </trkpt>
      <trkpt lat="48.43969" lon="7.11316">
        <ele>864</ele>
        <time>2019-05-15T10:30:46.082Z</time>
      </trkpt>
      <trkpt lat="48.43969" lon="7.11314">
        <ele>864</ele>
        <time>2019-05-15T10:30:47.082Z</time>
      </trkpt>
      <trkpt lat="48.43969" lon="7.11313">
        <ele>864</ele>
        <time>2019-05-15T10:30:48.082Z</time>
      </trkpt>
      <trkpt lat="48.43969" lon="7.11311">
        <ele>864</ele>
        <time>2019-05-15T10:30:49.082Z</time>
      </trkpt>
      <trkpt lat="48.43969" lon="7.1131">
        <ele>864</ele>
        <time>2019-05-15T10:30:50.082Z</time>
      </trkpt>
      <trkpt lat="48.43969" lon="7.11309">
        <ele>864</ele>
        <time>2019-05-15T10:30:51.082Z</time>
      </trkpt>
      <trkpt lat="48.43969" lon="7.11307">
        <ele>864</ele>
        <time>2019-05-15T10:30:52.082Z</time>
      </trkpt>
      <trkpt lat="48.43968" lon="7.11306">
        <ele>864</ele>
        <time>2019-05-15T10:30:53.082Z</time>
      </trkpt>
      <trkpt lat="48.43968" lon="7.11304">
        <ele>864</ele>
        <time>2019-05-15T10:30:54.082Z</time>
      </trkpt>
      <trkpt lat="48.43968" lon="7.11303">
        <ele>864</ele>
        <time>2019-05-15T10:30:55.082Z</time>
      </trkpt>
      <trkpt lat="48.43968" lon="7.11301">
        <ele>864</ele>
        <time>2019-05-15T10:30:56.082Z</time>
      </trkpt>
      <trkpt lat="48.43969" lon="7.113">
        <ele>864</ele>
        <time>2019-05-15T10:30:57.082Z</time>
      </trkpt>
      <trkpt lat="48.43969" lon="7.11298">
        <ele>864</ele>
        <time>2019-05-15T10:30:58.082Z</time>
      </trkpt>
      <trkpt lat="48.43969" lon="7.11297">
        <ele>864</ele>
        <time>2019-05-15T10:30:59.082Z</time>
      </trkpt>
      <trkpt lat="48.43969" lon="7.11296">
        <ele>864</ele>
        <time>2019-05-15T10:31:00.082Z</time>
      </trkpt>
      <trkpt lat="48.43969" lon="7.11295">
        <ele>864</ele>
        <time>2019-05-15T10:31:01.082Z</time>
      </trkpt>
      <trkpt lat="48.43969" lon="7.11294">
        <ele>864</ele>
        <time>2019-05-15T10:31:02.082Z</time>
      </trkpt>
      <trkpt lat="48.43969" lon="7.11293">
        <ele>864</ele>
        <time>2019-05-15T10:31:03.082Z</time>
      </trkpt>
      <trkpt lat="48.43969" lon="7.11292">
        <ele>864</ele>
        <time>2019-05-15T10:31:04.082Z</time>
      </trkpt>
      <trkpt lat="48.43969" lon="7.11292">
        <ele>865</ele>
        <time>2019-05-15T10:31:05.082Z</time>
      </trkpt>
      <trkpt lat="48.43969" lon="7.11291">
        <ele>864</ele>
        <time>2019-05-15T10:31:06.082Z</time>
      </trkpt>
      <trkpt lat="48.43968" lon="7.1129">
        <ele>865</ele>
        <time>2019-05-15T10:31:07.082Z</time>
      </trkpt>
      <trkpt lat="48.43968" lon="7.11288">
        <ele>865</ele>
        <time>2019-05-15T10:31:08.082Z</time>
      </trkpt>
      <trkpt lat="48.43968" lon="7.11287">
        <ele>865</ele>
        <time>2019-05-15T10:31:09.082Z</time>
      </trkpt>
      <trkpt lat="48.43968" lon="7.11286">
        <ele>864</ele>
        <time>2019-05-15T10:31:10.082Z</time>
      </trkpt>
      <trkpt lat="48.43968" lon="7.11284">
        <ele>864</ele>
        <time>2019-05-15T10:31:11.082Z</time>
      </trkpt>
      <trkpt lat="48.43968" lon="7.11284">
        <ele>864</ele>
        <time>2019-05-15T10:31:12.082Z</time>
      </trkpt>
      <trkpt lat="48.43968" lon="7.11283">
        <ele>864</ele>
        <time>2019-05-15T10:31:13.082Z</time>
      </trkpt>
      <trkpt lat="48.43968" lon="7.11282">
        <ele>864</ele>
        <time>2019-05-15T10:31:14.082Z</time>
      </trkpt>
      <trkpt lat="48.43968" lon="7.11281">
        <ele>864</ele>
        <time>2019-05-15T10:31:15.082Z</time>
      </trkpt>
      <trkpt lat="48.43968" lon="7.11279">
        <ele>864</ele>
        <time>2019-05-15T10:31:16.082Z</time>
      </trkpt>
      <trkpt lat="48.43969" lon="7.11278">
        <ele>865</ele>
        <time>2019-05-15T10:31:17.082Z</time>
      </trkpt>
      <trkpt lat="48.43969" lon="7.11276">
        <ele>864</ele>
        <time>2019-05-15T10:31:18.082Z</time>
      </trkpt>
      <trkpt lat="48.43969" lon="7.11275">
        <ele>864</ele>
        <time>2019-05-15T10:31:19.082Z</time>
      </trkpt>
      <trkpt lat="48.43969" lon="7.11273">
        <ele>864</ele>
        <time>2019-05-15T10:31:20.082Z</time>
      </trkpt>
      <trkpt lat="48.43969" lon="7.11271">
        <ele>864</ele>
        <time>2019-05-15T10:31:21.082Z</time>
      </trkpt>
      <trkpt lat="48.43969" lon="7.1127">
        <ele>864</ele>
        <time>2019-05-15T10:31:22.082Z</time>
      </trkpt>
      <trkpt lat="48.43969" lon="7.11268">
        <ele>865</ele>
        <time>2019-05-15T10:31:23.082Z</time>
      </trkpt>
      <trkpt lat="48.43969" lon="7.11266">
        <ele>865</ele>
        <time>2019-05-15T10:31:24.082Z</time>
      </trkpt>
      <trkpt lat="48.43969" lon="7.11265">
        <ele>865</ele>
        <time>2019-05-15T10:31:25.082Z</time>
      </trkpt>
      <trkpt lat="48.43969" lon="7.11263">
        <ele>865</ele>
        <time>2019-05-15T10:31:26.082Z</time>
      </trkpt>
      <trkpt lat="48.43969" lon="7.11262">
        <ele>865</ele>
        <time>2019-05-15T10:31:27.082Z</time>
      </trkpt>
      <trkpt lat="48.43969" lon="7.11261">
        <ele>865</ele>
        <time>2019-05-15T10:31:28.082Z</time>
      </trkpt>
      <trkpt lat="48.43969" lon="7.11259">
        <ele>865</ele>
        <time>2019-05-15T10:31:29.082Z</time>
      </trkpt>
      <trkpt lat="48.43968" lon="7.11258">
        <ele>865</ele>
        <time>2019-05-15T10:31:30.082Z</time>
      </trkpt>
      <trkpt lat="48.43968" lon="7.11257">
        <ele>865</ele>
        <time>2019-05-15T10:31:31.082Z</time>
      </trkpt>
      <trkpt lat="48.43968" lon="7.11255">
        <ele>865</ele>
        <time>2019-05-15T10:31:32.082Z</time>
      </trkpt>
      <trkpt lat="48.43968" lon="7.11254">
        <ele>865</ele>
        <time>2019-05-15T10:31:33.082Z</time>
      </trkpt>
      <trkpt lat="48.43968" lon="7.11252">
        <ele>865</ele>
        <time>2019-05-15T10:31:34.082Z</time>
      </trkpt>
      <trkpt lat="48.43968" lon="7.11251">
        <ele>865</ele>
        <time>2019-05-15T10:31:35.082Z</time>
      </trkpt>
      <trkpt lat="48.43968" lon="7.1125">
        <ele>865</ele>
        <time>2019-05-15T10:31:36.082Z</time>
      </trkpt>
      <trkpt lat="48.43968" lon="7.11248">
        <ele>864</ele>
        <time>2019-05-15T10:31:37.082Z</time>
      </trkpt>
      <trkpt lat="48.43968" lon="7.11247">
        <ele>864</ele>
        <time>2019-05-15T10:31:38.082Z</time>
      </trkpt>
      <trkpt lat="48.43968" lon="7.11246">
        <ele>865</ele>
        <time>2019-05-15T10:31:39.082Z</time>
      </trkpt>
      <trkpt lat="48.43968" lon="7.11244">
        <ele>864</ele>
        <time>2019-05-15T10:31:40.082Z</time>
      </trkpt>
      <trkpt lat="48.43968" lon="7.11243">
        <ele>864</ele>
        <time>2019-05-15T10:31:41.082Z</time>
      </trkpt>
      <trkpt lat="48.43968" lon="7.11242">
        <ele>864</ele>
        <time>2019-05-15T10:31:42.082Z</time>
      </trkpt>
      <trkpt lat="48.43968" lon="7.1124">
        <ele>864</ele>
        <time>2019-05-15T10:31:43.082Z</time>
      </trkpt>
      <trkpt lat="48.43968" lon="7.11239">
        <ele>864</ele>
        <time>2019-05-15T10:31:44.082Z</time>
      </trkpt>
      <trkpt lat="48.43968" lon="7.11237">
        <ele>864</ele>
        <time>2019-05-15T10:31:45.082Z</time>
      </trkpt>
      <trkpt lat="48.43968" lon="7.11236">
        <ele>864</ele>
        <time>2019-05-15T10:31:46.082Z</time>
      </trkpt>
      <trkpt lat="48.43968" lon="7.11235">
        <ele>864</ele>
        <time>2019-05-15T10:31:47.082Z</time>
      </trkpt>
      <trkpt lat="48.43968" lon="7.11234">
        <ele>864</ele>
        <time>2019-05-15T10:31:48.082Z</time>
      </trkpt>
      <trkpt lat="48.43968" lon="7.11232">
        <ele>863</ele>
        <time>2019-05-15T10:31:49.082Z</time>
      </trkpt>
      <trkpt lat="48.43968" lon="7.11231">
        <ele>863</ele>
        <time>2019-05-15T10:31:50.082Z</time>
      </trkpt>
      <trkpt lat="48.43967" lon="7.11229">
        <ele>863</ele>
        <time>2019-05-15T10:31:51.082Z</time>
      </trkpt>
      <trkpt lat="48.43967" lon="7.11228">
        <ele>863</ele>
        <time>2019-05-15T10:31:52.082Z</time>
      </trkpt>
      <trkpt lat="48.43967" lon="7.11226">
        <ele>863</ele>
        <time>2019-05-15T10:31:53.082Z</time>
      </trkpt>
      <trkpt lat="48.43967" lon="7.11225">
        <ele>863</ele>
        <time>2019-05-15T10:31:54.082Z</time>
      </trkpt>
      <trkpt lat="48.43967" lon="7.11223">
        <ele>863</ele>
        <time>2019-05-15T10:31:55.082Z</time>
      </trkpt>
      <trkpt lat="48.43967" lon="7.11222">
        <ele>863</ele>
        <time>2019-05-15T10:31:56.082Z</time>
      </trkpt>
      <trkpt lat="48.43967" lon="7.11221">
        <ele>863</ele>
        <time>2019-05-15T10:31:57.082Z</time>
      </trkpt>
      <trkpt lat="48.43967" lon="7.11219">
        <ele>863</ele>
        <time>2019-05-15T10:31:58.082Z</time>
      </trkpt>
      <trkpt lat="48.43968" lon="7.11218">
        <ele>863</ele>
        <time>2019-05-15T10:31:59.082Z</time>
      </trkpt>
      <trkpt lat="48.43968" lon="7.11216">
        <ele>863</ele>
        <time>2019-05-15T10:32:00.082Z</time>
      </trkpt>
      <trkpt lat="48.43968" lon="7.11215">
        <ele>864</ele>
        <time>2019-05-15T10:32:01.082Z</time>
      </trkpt>
      <trkpt lat="48.43968" lon="7.11214">
        <ele>864</ele>
        <time>2019-05-15T10:32:02.082Z</time>
      </trkpt>
      <trkpt lat="48.43967" lon="7.11212">
        <ele>864</ele>
        <time>2019-05-15T10:32:03.082Z</time>
      </trkpt>
      <trkpt lat="48.43968" lon="7.1121">
        <ele>864</ele>
        <time>2019-05-15T10:32:04.082Z</time>
      </trkpt>
      <trkpt lat="48.43968" lon="7.11209">
        <ele>865</ele>
        <time>2019-05-15T10:32:05.082Z</time>
      </trkpt>
      <trkpt lat="48.43968" lon="7.11207">
        <ele>865</ele>
        <time>2019-05-15T10:32:06.082Z</time>
      </trkpt>
      <trkpt lat="48.43968" lon="7.11206">
        <ele>866</ele>
        <time>2019-05-15T10:32:07.082Z</time>
      </trkpt>
      <trkpt lat="48.43968" lon="7.11204">
        <ele>866</ele>
        <time>2019-05-15T10:32:08.082Z</time>
      </trkpt>
      <trkpt lat="48.43968" lon="7.11203">
        <ele>866</ele>
        <time>2019-05-15T10:32:09.082Z</time>
      </trkpt>
      <trkpt lat="48.43968" lon="7.11201">
        <ele>866</ele>
        <time>2019-05-15T10:32:10.082Z</time>
      </trkpt>
      <trkpt lat="48.43968" lon="7.112">
        <ele>866</ele>
        <time>2019-05-15T10:32:11.082Z</time>
      </trkpt>
      <trkpt lat="48.43968" lon="7.11198">
        <ele>866</ele>
        <time>2019-05-15T10:32:12.082Z</time>
      </trkpt>
      <trkpt lat="48.43968" lon="7.11197">
        <ele>865</ele>
        <time>2019-05-15T10:32:13.082Z</time>
      </trkpt>
      <trkpt lat="48.43968" lon="7.11195">
        <ele>865</ele>
        <time>2019-05-15T10:32:14.082Z</time>
      </trkpt>
      <trkpt lat="48.43968" lon="7.11194">
        <ele>865</ele>
        <time>2019-05-15T10:32:15.082Z</time>
      </trkpt>
      <trkpt lat="48.43967" lon="7.11193">
        <ele>865</ele>
        <time>2019-05-15T10:32:16.082Z</time>
      </trkpt>
      <trkpt lat="48.43967" lon="7.11192">
        <ele>866</ele>
        <time>2019-05-15T10:32:17.082Z</time>
      </trkpt>
      <trkpt lat="48.43967" lon="7.1119">
        <ele>866</ele>
        <time>2019-05-15T10:32:18.082Z</time>
      </trkpt>
      <trkpt lat="48.43967" lon="7.11189">
        <ele>866</ele>
        <time>2019-05-15T10:32:19.082Z</time>
      </trkpt>
      <trkpt lat="48.43967" lon="7.11187">
        <ele>866</ele>
        <time>2019-05-15T10:32:20.082Z</time>
      </trkpt>
      <trkpt lat="48.43967" lon="7.11186">
        <ele>866</ele>
        <time>2019-05-15T10:32:21.082Z</time>
      </trkpt>
      <trkpt lat="48.43967" lon="7.11184">
        <ele>866</ele>
        <time>2019-05-15T10:32:22.082Z</time>
      </trkpt>
      <trkpt lat="48.43967" lon="7.11182">
        <ele>866</ele>
        <time>2019-05-15T10:32:23.082Z</time>
      </trkpt>
      <trkpt lat="48.43967" lon="7.11181">
        <ele>865</ele>
        <time>2019-05-15T10:32:24.082Z</time>
      </trkpt>
      <trkpt lat="48.43967" lon="7.11179">
        <ele>865</ele>
        <time>2019-05-15T10:32:25.082Z</time>
      </trkpt>
      <trkpt lat="48.43967" lon="7.11178">
        <ele>865</ele>
        <time>2019-05-15T10:32:26.082Z</time>
      </trkpt>
      <trkpt lat="48.43967" lon="7.11176">
        <ele>865</ele>
        <time>2019-05-15T10:32:27.082Z</time>
      </trkpt>
      <trkpt lat="48.43967" lon="7.11175">
        <ele>865</ele>
        <time>2019-05-15T10:32:28.082Z</time>
      </trkpt>
      <trkpt lat="48.43967" lon="7.11173">
        <ele>865</ele>
        <time>2019-05-15T10:32:29.082Z</time>
      </trkpt>
      <trkpt lat="48.43967" lon="7.11171">
        <ele>865</ele>
        <time>2019-05-15T10:32:30.082Z</time>
      </trkpt>
      <trkpt lat="48.43967" lon="7.1117">
        <ele>865</ele>
        <time>2019-05-15T10:32:31.082Z</time>
      </trkpt>
      <trkpt lat="48.43967" lon="7.11168">
        <ele>865</ele>
        <time>2019-05-15T10:32:32.082Z</time>
      </trkpt>
      <trkpt lat="48.43967" lon="7.11166">
        <ele>865</ele>
        <time>2019-05-15T10:32:33.082Z</time>
      </trkpt>
      <trkpt lat="48.43967" lon="7.11165">
        <ele>866</ele>
        <time>2019-05-15T10:32:34.082Z</time>
      </trkpt>
      <trkpt lat="48.43967" lon="7.11163">
        <ele>866</ele>
        <time>2019-05-15T10:32:35.082Z</time>
      </trkpt>
      <trkpt lat="48.43967" lon="7.11161">
        <ele>866</ele>
        <time>2019-05-15T10:32:36.082Z</time>
      </trkpt>
      <trkpt lat="48.43967" lon="7.1116">
        <ele>866</ele>
        <time>2019-05-15T10:32:37.082Z</time>
      </trkpt>
      <trkpt lat="48.43967" lon="7.11158">
        <ele>866</ele>
        <time>2019-05-15T10:32:38.082Z</time>
      </trkpt>
      <trkpt lat="48.43967" lon="7.11157">
        <ele>866</ele>
        <time>2019-05-15T10:32:39.082Z</time>
      </trkpt>
      <trkpt lat="48.43967" lon="7.11155">
        <ele>866</ele>
        <time>2019-05-15T10:32:40.082Z</time>
      </trkpt>
      <trkpt lat="48.43968" lon="7.11154">
        <ele>866</ele>
        <time>2019-05-15T10:32:41.082Z</time>
      </trkpt>
      <trkpt lat="48.43968" lon="7.11152">
        <ele>866</ele>
        <time>2019-05-15T10:32:42.082Z</time>
      </trkpt>
      <trkpt lat="48.43968" lon="7.1115">
        <ele>866</ele>
        <time>2019-05-15T10:32:43.082Z</time>
      </trkpt>
      <trkpt lat="48.43968" lon="7.11149">
        <ele>866</ele>
        <time>2019-05-15T10:32:44.082Z</time>
      </trkpt>
      <trkpt lat="48.43968" lon="7.11147">
        <ele>866</ele>
        <time>2019-05-15T10:32:45.082Z</time>
      </trkpt>
      <trkpt lat="48.43969" lon="7.11146">
        <ele>866</ele>
        <time>2019-05-15T10:32:46.082Z</time>
      </trkpt>
      <trkpt lat="48.43969" lon="7.11144">
        <ele>866</ele>
        <time>2019-05-15T10:32:47.082Z</time>
      </trkpt>
      <trkpt lat="48.43969" lon="7.11142">
        <ele>866</ele>
        <time>2019-05-15T10:32:48.082Z</time>
      </trkpt>
      <trkpt lat="48.43969" lon="7.1114">
        <ele>866</ele>
        <time>2019-05-15T10:32:49.082Z</time>
      </trkpt>
      <trkpt lat="48.43969" lon="7.11139">
        <ele>866</ele>
        <time>2019-05-15T10:32:50.082Z</time>
      </trkpt>
      <trkpt lat="48.43969" lon="7.11137">
        <ele>866</ele>
        <time>2019-05-15T10:32:51.082Z</time>
      </trkpt>
      <trkpt lat="48.43969" lon="7.11136">
        <ele>866</ele>
        <time>2019-05-15T10:32:52.082Z</time>
      </trkpt>
      <trkpt lat="48.43969" lon="7.11134">
        <ele>866</ele>
        <time>2019-05-15T10:32:53.082Z</time>
      </trkpt>
      <trkpt lat="48.43969" lon="7.11132">
        <ele>866</ele>
        <time>2019-05-15T10:32:54.082Z</time>
      </trkpt>
      <trkpt lat="48.43968" lon="7.11131">
        <ele>865</ele>
        <time>2019-05-15T10:32:55.082Z</time>
      </trkpt>
      <trkpt lat="48.43968" lon="7.11129">
        <ele>865</ele>
        <time>2019-05-15T10:32:56.082Z</time>
      </trkpt>
      <trkpt lat="48.43968" lon="7.11128">
        <ele>865</ele>
        <time>2019-05-15T10:32:57.082Z</time>
      </trkpt>
      <trkpt lat="48.43968" lon="7.11127">
        <ele>864</ele>
        <time>2019-05-15T10:32:58.082Z</time>
      </trkpt>
      <trkpt lat="48.43968" lon="7.11125">
        <ele>864</ele>
        <time>2019-05-15T10:32:59.082Z</time>
      </trkpt>
      <trkpt lat="48.43968" lon="7.11124">
        <ele>864</ele>
        <time>2019-05-15T10:33:00.082Z</time>
      </trkpt>
      <trkpt lat="48.43968" lon="7.11123">
        <ele>864</ele>
        <time>2019-05-15T10:33:01.082Z</time>
      </trkpt>
      <trkpt lat="48.43968" lon="7.11121">
        <ele>865</ele>
        <time>2019-05-15T10:33:02.082Z</time>
      </trkpt>
      <trkpt lat="48.43968" lon="7.11119">
        <ele>865</ele>
        <time>2019-05-15T10:33:03.082Z</time>
      </trkpt>
      <trkpt lat="48.43968" lon="7.11118">
        <ele>864</ele>
        <time>2019-05-15T10:33:04.082Z</time>
      </trkpt>
      <trkpt lat="48.43967" lon="7.11116">
        <ele>864</ele>
        <time>2019-05-15T10:33:05.082Z</time>
      </trkpt>
      <trkpt lat="48.43967" lon="7.11115">
        <ele>864</ele>
        <time>2019-05-15T10:33:06.082Z</time>
      </trkpt>
      <trkpt lat="48.43968" lon="7.11114">
        <ele>864</ele>
        <time>2019-05-15T10:33:07.082Z</time>
      </trkpt>
      <trkpt lat="48.43968" lon="7.11112">
        <ele>864</ele>
        <time>2019-05-15T10:33:08.082Z</time>
      </trkpt>
      <trkpt lat="48.43968" lon="7.11111">
        <ele>865</ele>
        <time>2019-05-15T10:33:09.082Z</time>
      </trkpt>
      <trkpt lat="48.43968" lon="7.11109">
        <ele>864</ele>
        <time>2019-05-15T10:33:10.082Z</time>
      </trkpt>
      <trkpt lat="48.43968" lon="7.11108">
        <ele>864</ele>
        <time>2019-05-15T10:33:11.082Z</time>
      </trkpt>
      <trkpt lat="48.43968" lon="7.11106">
        <ele>865</ele>
        <time>2019-05-15T10:33:12.082Z</time>
      </trkpt>
      <trkpt lat="48.43968" lon="7.11105">
        <ele>865</ele>
        <time>2019-05-15T10:33:13.082Z</time>
      </trkpt>
      <trkpt lat="48.43968" lon="7.11103">
        <ele>866</ele>
        <time>2019-05-15T10:33:14.082Z</time>
      </trkpt>
      <trkpt lat="48.43968" lon="7.11102">
        <ele>865</ele>
        <time>2019-05-15T10:33:15.082Z</time>
      </trkpt>
      <trkpt lat="48.43969" lon="7.111">
        <ele>866</ele>
        <time>2019-05-15T10:33:16.082Z</time>
      </trkpt>
      <trkpt lat="48.43969" lon="7.11098">
        <ele>866</ele>
        <time>2019-05-15T10:33:17.082Z</time>
      </trkpt>
      <trkpt lat="48.43969" lon="7.11097">
        <ele>866</ele>
        <time>2019-05-15T10:33:18.082Z</time>
      </trkpt>
      <trkpt lat="48.43969" lon="7.11095">
        <ele>866</ele>
        <time>2019-05-15T10:33:19.082Z</time>
      </trkpt>
      <trkpt lat="48.43969" lon="7.11094">
        <ele>866</ele>
        <time>2019-05-15T10:33:20.082Z</time>
      </trkpt>
      <trkpt lat="48.43969" lon="7.11092">
        <ele>866</ele>
        <time>2019-05-15T10:33:21.082Z</time>
      </trkpt>
      <trkpt lat="48.43969" lon="7.11091">
        <ele>866</ele>
        <time>2019-05-15T10:33:22.082Z</time>
      </trkpt>
      <trkpt lat="48.43969" lon="7.11089">
        <ele>866</ele>
        <time>2019-05-15T10:33:23.082Z</time>
      </trkpt>
      <trkpt lat="48.43969" lon="7.11088">
        <ele>866</ele>
        <time>2019-05-15T10:33:24.082Z</time>
      </trkpt>
      <trkpt lat="48.4397" lon="7.11086">
        <ele>866</ele>
        <time>2019-05-15T10:33:25.082Z</time>
      </trkpt>
      <trkpt lat="48.4397" lon="7.11084">
        <ele>866</ele>
        <time>2019-05-15T10:33:26.082Z</time>
      </trkpt>
      <trkpt lat="48.4397" lon="7.11083">
        <ele>866</ele>
        <time>2019-05-15T10:33:27.082Z</time>
      </trkpt>
      <trkpt lat="48.4397" lon="7.11081">
        <ele>866</ele>
        <time>2019-05-15T10:33:28.082Z</time>
      </trkpt>
      <trkpt lat="48.4397" lon="7.11079">
        <ele>866</ele>
        <time>2019-05-15T10:33:29.082Z</time>
      </trkpt>
      <trkpt lat="48.4397" lon="7.11078">
        <ele>866</ele>
        <time>2019-05-15T10:33:30.082Z</time>
      </trkpt>
      <trkpt lat="48.4397" lon="7.11076">
        <ele>866</ele>
        <time>2019-05-15T10:33:31.082Z</time>
      </trkpt>
      <trkpt lat="48.4397" lon="7.11075">
        <ele>866</ele>
        <time>2019-05-15T10:33:32.082Z</time>
      </trkpt>
      <trkpt lat="48.4397" lon="7.11073">
        <ele>866</ele>
        <time>2019-05-15T10:33:33.082Z</time>
      </trkpt>
      <trkpt lat="48.4397" lon="7.11072">
        <ele>866</ele>
        <time>2019-05-15T10:33:34.082Z</time>
      </trkpt>
      <trkpt lat="48.4397" lon="7.1107">
        <ele>866</ele>
        <time>2019-05-15T10:33:35.082Z</time>
      </trkpt>
      <trkpt lat="48.4397" lon="7.11069">
        <ele>867</ele>
        <time>2019-05-15T10:33:36.082Z</time>
      </trkpt>
      <trkpt lat="48.4397" lon="7.11068">
        <ele>866</ele>
        <time>2019-05-15T10:33:37.082Z</time>
      </trkpt>
      <trkpt lat="48.4397" lon="7.11067">
        <ele>866</ele>
        <time>2019-05-15T10:33:38.082Z</time>
      </trkpt>
      <trkpt lat="48.4397" lon="7.11065">
        <ele>867</ele>
        <time>2019-05-15T10:33:39.082Z</time>
      </trkpt>
      <trkpt lat="48.4397" lon="7.11064">
        <ele>867</ele>
        <time>2019-05-15T10:33:40.082Z</time>
      </trkpt>
      <trkpt lat="48.43971" lon="7.11063">
        <ele>867</ele>
        <time>2019-05-15T10:33:41.082Z</time>
      </trkpt>
      <trkpt lat="48.43971" lon="7.11061">
        <ele>867</ele>
        <time>2019-05-15T10:33:42.082Z</time>
      </trkpt>
      <trkpt lat="48.43971" lon="7.11059">
        <ele>866</ele>
        <time>2019-05-15T10:33:43.082Z</time>
      </trkpt>
      <trkpt lat="48.43971" lon="7.11058">
        <ele>867</ele>
        <time>2019-05-15T10:33:44.082Z</time>
      </trkpt>
      <trkpt lat="48.43971" lon="7.11056">
        <ele>867</ele>
        <time>2019-05-15T10:33:45.082Z</time>
      </trkpt>
      <trkpt lat="48.43971" lon="7.11054">
        <ele>867</ele>
        <time>2019-05-15T10:33:46.082Z</time>
      </trkpt>
      <trkpt lat="48.43972" lon="7.11053">
        <ele>866</ele>
        <time>2019-05-15T10:33:47.082Z</time>
      </trkpt>
      <trkpt lat="48.43972" lon="7.11051">
        <ele>867</ele>
        <time>2019-05-15T10:33:48.082Z</time>
      </trkpt>
      <trkpt lat="48.43972" lon="7.1105">
        <ele>867</ele>
        <time>2019-05-15T10:33:49.082Z</time>
      </trkpt>
      <trkpt lat="48.43971" lon="7.11048">
        <ele>867</ele>
        <time>2019-05-15T10:33:50.082Z</time>
      </trkpt>
      <trkpt lat="48.43971" lon="7.11047">
        <ele>867</ele>
        <time>2019-05-15T10:33:51.082Z</time>
      </trkpt>
      <trkpt lat="48.43971" lon="7.11045">
        <ele>867</ele>
        <time>2019-05-15T10:33:52.082Z</time>
      </trkpt>
      <trkpt lat="48.43971" lon="7.11044">
        <ele>867</ele>
        <time>2019-05-15T10:33:53.082Z</time>
      </trkpt>
      <trkpt lat="48.43971" lon="7.11042">
        <ele>868</ele>
        <time>2019-05-15T10:33:54.082Z</time>
      </trkpt>
      <trkpt lat="48.43972" lon="7.11041">
        <ele>868</ele>
        <time>2019-05-15T10:33:55.082Z</time>
      </trkpt>
      <trkpt lat="48.43972" lon="7.11039">
        <ele>868</ele>
        <time>2019-05-15T10:33:56.082Z</time>
      </trkpt>
      <trkpt lat="48.43972" lon="7.11038">
        <ele>868</ele>
        <time>2019-05-15T10:33:57.082Z</time>
      </trkpt>
      <trkpt lat="48.43972" lon="7.11036">
        <ele>868</ele>
        <time>2019-05-15T10:33:58.082Z</time>
      </trkpt>
      <trkpt lat="48.43972" lon="7.11035">
        <ele>868</ele>
        <time>2019-05-15T10:33:59.082Z</time>
      </trkpt>
      <trkpt lat="48.43972" lon="7.11034">
        <ele>868</ele>
        <time>2019-05-15T10:34:00.082Z</time>
      </trkpt>
      <trkpt lat="48.43972" lon="7.11032">
        <ele>868</ele>
        <time>2019-05-15T10:34:01.082Z</time>
      </trkpt>
      <trkpt lat="48.43973" lon="7.11031">
        <ele>868</ele>
        <time>2019-05-15T10:34:02.082Z</time>
      </trkpt>
      <trkpt lat="48.43973" lon="7.1103">
        <ele>868</ele>
        <time>2019-05-15T10:34:03.082Z</time>
      </trkpt>
      <trkpt lat="48.43974" lon="7.11029">
        <ele>868</ele>
        <time>2019-05-15T10:34:04.082Z</time>
      </trkpt>
      <trkpt lat="48.43974" lon="7.11027">
        <ele>868</ele>
        <time>2019-05-15T10:34:05.082Z</time>
      </trkpt>
      <trkpt lat="48.43975" lon="7.11026">
        <ele>868</ele>
        <time>2019-05-15T10:34:06.082Z</time>
      </trkpt>
      <trkpt lat="48.43975" lon="7.11025">
        <ele>868</ele>
        <time>2019-05-15T10:34:07.082Z</time>
      </trkpt>
      <trkpt lat="48.43976" lon="7.11024">
        <ele>868</ele>
        <time>2019-05-15T10:34:08.082Z</time>
      </trkpt>
      <trkpt lat="48.43976" lon="7.11023">
        <ele>869</ele>
        <time>2019-05-15T10:34:09.082Z</time>
      </trkpt>
      <trkpt lat="48.43976" lon="7.11021">
        <ele>868</ele>
        <time>2019-05-15T10:34:10.082Z</time>
      </trkpt>
      <trkpt lat="48.43975" lon="7.1102">
        <ele>868</ele>
        <time>2019-05-15T10:34:11.082Z</time>
      </trkpt>
      <trkpt lat="48.43975" lon="7.11018">
        <ele>868</ele>
        <time>2019-05-15T10:34:12.082Z</time>
      </trkpt>
      <trkpt lat="48.43975" lon="7.11017">
        <ele>868</ele>
        <time>2019-05-15T10:34:13.082Z</time>
      </trkpt>
      <trkpt lat="48.43974" lon="7.11015">
        <ele>868</ele>
        <time>2019-05-15T10:34:14.082Z</time>
      </trkpt>
      <trkpt lat="48.43974" lon="7.11014">
        <ele>868</ele>
        <time>2019-05-15T10:34:15.082Z</time>
      </trkpt>
      <trkpt lat="48.43974" lon="7.11012">
        <ele>868</ele>
        <time>2019-05-15T10:34:16.082Z</time>
      </trkpt>
      <trkpt lat="48.43974" lon="7.11011">
        <ele>868</ele>
        <time>2019-05-15T10:34:17.082Z</time>
      </trkpt>
      <trkpt lat="48.43974" lon="7.11009">
        <ele>868</ele>
        <time>2019-05-15T10:34:18.082Z</time>
      </trkpt>
      <trkpt lat="48.43974" lon="7.11008">
        <ele>868</ele>
        <time>2019-05-15T10:34:19.082Z</time>
      </trkpt>
      <trkpt lat="48.43974" lon="7.11007">
        <ele>867</ele>
        <time>2019-05-15T10:34:20.082Z</time>
      </trkpt>
      <trkpt lat="48.43975" lon="7.11006">
        <ele>868</ele>
        <time>2019-05-15T10:34:21.082Z</time>
      </trkpt>
      <trkpt lat="48.43975" lon="7.11005">
        <ele>867</ele>
        <time>2019-05-15T10:34:22.082Z</time>
      </trkpt>
      <trkpt lat="48.43975" lon="7.11004">
        <ele>868</ele>
        <time>2019-05-15T10:34:23.082Z</time>
      </trkpt>
      <trkpt lat="48.43975" lon="7.11003">
        <ele>867</ele>
        <time>2019-05-15T10:34:24.082Z</time>
      </trkpt>
      <trkpt lat="48.43975" lon="7.11002">
        <ele>867</ele>
        <time>2019-05-15T10:34:25.082Z</time>
      </trkpt>
      <trkpt lat="48.43975" lon="7.11002">
        <ele>867</ele>
        <time>2019-05-15T10:34:26.082Z</time>
      </trkpt>
      <trkpt lat="48.43975" lon="7.11002">
        <ele>867</ele>
        <time>2019-05-15T10:34:27.082Z</time>
      </trkpt>
      <trkpt lat="48.43974" lon="7.11001">
        <ele>867</ele>
        <time>2019-05-15T10:34:28.082Z</time>
      </trkpt>
      <trkpt lat="48.43974" lon="7.11">
        <ele>867</ele>
        <time>2019-05-15T10:34:29.082Z</time>
      </trkpt>
      <trkpt lat="48.43974" lon="7.11">
        <ele>867</ele>
        <time>2019-05-15T10:34:30.082Z</time>
      </trkpt>
      <trkpt lat="48.43975" lon="7.10999">
        <ele>867</ele>
        <time>2019-05-15T10:34:31.082Z</time>
      </trkpt>
      <trkpt lat="48.43975" lon="7.10999">
        <ele>868</ele>
        <time>2019-05-15T10:34:32.082Z</time>
      </trkpt>
      <trkpt lat="48.43975" lon="7.10999">
        <ele>868</ele>
        <time>2019-05-15T10:34:33.082Z</time>
      </trkpt>
      <trkpt lat="48.43975" lon="7.10999">
        <ele>868</ele>
        <time>2019-05-15T10:34:34.082Z</time>
      </trkpt>
      <trkpt lat="48.43975" lon="7.10998">
        <ele>869</ele>
        <time>2019-05-15T10:34:35.082Z</time>
      </trkpt>
      <trkpt lat="48.43974" lon="7.10998">
        <ele>869</ele>
        <time>2019-05-15T10:34:36.082Z</time>
      </trkpt>
      <trkpt lat="48.43974" lon="7.10998">
        <ele>869</ele>
        <time>2019-05-15T10:34:37.082Z</time>
      </trkpt>
      <trkpt lat="48.43975" lon="7.10997">
        <ele>869</ele>
        <time>2019-05-15T10:34:38.082Z</time>
      </trkpt>
      <trkpt lat="48.43975" lon="7.10996">
        <ele>869</ele>
        <time>2019-05-15T10:34:39.082Z</time>
      </trkpt>
      <trkpt lat="48.43975" lon="7.10996">
        <ele>869</ele>
        <time>2019-05-15T10:34:40.082Z</time>
      </trkpt>
      <trkpt lat="48.43975" lon="7.10995">
        <ele>869</ele>
        <time>2019-05-15T10:34:41.082Z</time>
      </trkpt>
      <trkpt lat="48.43975" lon="7.10995">
        <ele>869</ele>
        <time>2019-05-15T10:34:42.082Z</time>
      </trkpt>
      <trkpt lat="48.43975" lon="7.10995">
        <ele>869</ele>
        <time>2019-05-15T10:34:43.082Z</time>
      </trkpt>
      <trkpt lat="48.43975" lon="7.10995">
        <ele>870</ele>
        <time>2019-05-15T10:34:44.082Z</time>
      </trkpt>
      <trkpt lat="48.43975" lon="7.10994">
        <ele>870</ele>
        <time>2019-05-15T10:34:45.082Z</time>
      </trkpt>
      <trkpt lat="48.43975" lon="7.10994">
        <ele>869</ele>
        <time>2019-05-15T10:34:46.082Z</time>
      </trkpt>
      <trkpt lat="48.43975" lon="7.10993">
        <ele>869</ele>
        <time>2019-05-15T10:34:47.082Z</time>
      </trkpt>
      <trkpt lat="48.43975" lon="7.10992">
        <ele>869</ele>
        <time>2019-05-15T10:34:48.082Z</time>
      </trkpt>
      <trkpt lat="48.43975" lon="7.10992">
        <ele>869</ele>
        <time>2019-05-15T10:34:49.082Z</time>
      </trkpt>
      <trkpt lat="48.43975" lon="7.10991">
        <ele>869</ele>
        <time>2019-05-15T10:34:50.082Z</time>
      </trkpt>
      <trkpt lat="48.43975" lon="7.1099">
        <ele>868</ele>
        <time>2019-05-15T10:34:51.082Z</time>
      </trkpt>
      <trkpt lat="48.43975" lon="7.1099">
        <ele>868</ele>
        <time>2019-05-15T10:34:52.082Z</time>
      </trkpt>
      <trkpt lat="48.43976" lon="7.10989">
        <ele>868</ele>
        <time>2019-05-15T10:34:53.082Z</time>
      </trkpt>
      <trkpt lat="48.43976" lon="7.10989">
        <ele>868</ele>
        <time>2019-05-15T10:34:54.082Z</time>
      </trkpt>
      <trkpt lat="48.43976" lon="7.10989">
        <ele>868</ele>
        <time>2019-05-15T10:34:55.082Z</time>
      </trkpt>
      <trkpt lat="48.43976" lon="7.10989">
        <ele>868</ele>
        <time>2019-05-15T10:34:56.082Z</time>
      </trkpt>
      <trkpt lat="48.43976" lon="7.10989">
        <ele>868</ele>
        <time>2019-05-15T10:34:57.082Z</time>
      </trkpt>
      <trkpt lat="48.43976" lon="7.10989">
        <ele>867</ele>
        <time>2019-05-15T10:34:58.082Z</time>
      </trkpt>
      <trkpt lat="48.43976" lon="7.10989">
        <ele>867</ele>
        <time>2019-05-15T10:34:59.082Z</time>
      </trkpt>
      <trkpt lat="48.43976" lon="7.10989">
        <ele>867</ele>
        <time>2019-05-15T10:35:00.082Z</time>
      </trkpt>
      <trkpt lat="48.43976" lon="7.10989">
        <ele>867</ele>
        <time>2019-05-15T10:35:01.082Z</time>
      </trkpt>
      <trkpt lat="48.43976" lon="7.10988">
        <ele>867</ele>
        <time>2019-05-15T10:35:02.082Z</time>
      </trkpt>
      <trkpt lat="48.43977" lon="7.10988">
        <ele>867</ele>
        <time>2019-05-15T10:35:03.082Z</time>
      </trkpt>
      <trkpt lat="48.43977" lon="7.10988">
        <ele>867</ele>
        <time>2019-05-15T10:35:04.082Z</time>
      </trkpt>
      <trkpt lat="48.43977" lon="7.10988">
        <ele>867</ele>
        <time>2019-05-15T10:35:05.082Z</time>
      </trkpt>
      <trkpt lat="48.43977" lon="7.10987">
        <ele>868</ele>
        <time>2019-05-15T10:35:06.082Z</time>
      </trkpt>
      <trkpt lat="48.43977" lon="7.10987">
        <ele>868</ele>
        <time>2019-05-15T10:35:07.082Z</time>
      </trkpt>
      <trkpt lat="48.43977" lon="7.10987">
        <ele>868</ele>
        <time>2019-05-15T10:35:08.082Z</time>
      </trkpt>
      <trkpt lat="48.43976" lon="7.10987">
        <ele>868</ele>
        <time>2019-05-15T10:35:09.082Z</time>
      </trkpt>
      <trkpt lat="48.43976" lon="7.10987">
        <ele>868</ele>
        <time>2019-05-15T10:35:10.082Z</time>
      </trkpt>
      <trkpt lat="48.43976" lon="7.10987">
        <ele>868</ele>
        <time>2019-05-15T10:35:11.082Z</time>
      </trkpt>
      <trkpt lat="48.43976" lon="7.10987">
        <ele>868</ele>
        <time>2019-05-15T10:35:12.082Z</time>
      </trkpt>
      <trkpt lat="48.43976" lon="7.10987">
        <ele>868</ele>
        <time>2019-05-15T10:35:13.082Z</time>
      </trkpt>
      <trkpt lat="48.43976" lon="7.10987">
        <ele>868</ele>
        <time>2019-05-15T10:35:14.082Z</time>
      </trkpt>
      <trkpt lat="48.43975" lon="7.10987">
        <ele>868</ele>
        <time>2019-05-15T10:35:15.082Z</time>
      </trkpt>
      <trkpt lat="48.43975" lon="7.10987">
        <ele>868</ele>
        <time>2019-05-15T10:35:16.082Z</time>
      </trkpt>
      <trkpt lat="48.43975" lon="7.10986">
        <ele>868</ele>
        <time>2019-05-15T10:35:17.082Z</time>
      </trkpt>
      <trkpt lat="48.43975" lon="7.10986">
        <ele>868</ele>
        <time>2019-05-15T10:35:18.082Z</time>
      </trkpt>
      <trkpt lat="48.43975" lon="7.10986">
        <ele>868</ele>
        <time>2019-05-15T10:35:19.082Z</time>
      </trkpt>
      <trkpt lat="48.43975" lon="7.10986">
        <ele>868</ele>
        <time>2019-05-15T10:35:20.082Z</time>
      </trkpt>
      <trkpt lat="48.43975" lon="7.10986">
        <ele>868</ele>
        <time>2019-05-15T10:35:21.082Z</time>
      </trkpt>
      <trkpt lat="48.43975" lon="7.10985">
        <ele>867</ele>
        <time>2019-05-15T10:35:22.082Z</time>
      </trkpt>
      <trkpt lat="48.43975" lon="7.10985">
        <ele>867</ele>
        <time>2019-05-15T10:35:23.082Z</time>
      </trkpt>
      <trkpt lat="48.43974" lon="7.10984">
        <ele>867</ele>
        <time>2019-05-15T10:35:24.082Z</time>
      </trkpt>
      <trkpt lat="48.43974" lon="7.10984">
        <ele>867</ele>
        <time>2019-05-15T10:35:25.082Z</time>
      </trkpt>
      <trkpt lat="48.43974" lon="7.10984">
        <ele>867</ele>
        <time>2019-05-15T10:35:26.082Z</time>
      </trkpt>
      <trkpt lat="48.43974" lon="7.10984">
        <ele>866</ele>
        <time>2019-05-15T10:35:27.082Z</time>
      </trkpt>
      <trkpt lat="48.43974" lon="7.10984">
        <ele>866</ele>
        <time>2019-05-15T10:35:28.082Z</time>
      </trkpt>
      <trkpt lat="48.43974" lon="7.10983">
        <ele>866</ele>
        <time>2019-05-15T10:35:29.082Z</time>
      </trkpt>
      <trkpt lat="48.43974" lon="7.10983">
        <ele>866</ele>
        <time>2019-05-15T10:35:30.082Z</time>
      </trkpt>
      <trkpt lat="48.43974" lon="7.10982">
        <ele>866</ele>
        <time>2019-05-15T10:35:31.082Z</time>
      </trkpt>
      <trkpt lat="48.43974" lon="7.10981">
        <ele>867</ele>
        <time>2019-05-15T10:35:32.082Z</time>
      </trkpt>
      <trkpt lat="48.43974" lon="7.1098">
        <ele>866</ele>
        <time>2019-05-15T10:35:33.082Z</time>
      </trkpt>
      <trkpt lat="48.43975" lon="7.10979">
        <ele>867</ele>
        <time>2019-05-15T10:35:34.082Z</time>
      </trkpt>
      <trkpt lat="48.43975" lon="7.10977">
        <ele>867</ele>
        <time>2019-05-15T10:35:35.082Z</time>
      </trkpt>
      <trkpt lat="48.43975" lon="7.10976">
        <ele>866</ele>
        <time>2019-05-15T10:35:36.082Z</time>
      </trkpt>
      <trkpt lat="48.43975" lon="7.10976">
        <ele>867</ele>
        <time>2019-05-15T10:35:37.082Z</time>
      </trkpt>
      <trkpt lat="48.43975" lon="7.10975">
        <ele>867</ele>
        <time>2019-05-15T10:35:38.082Z</time>
      </trkpt>
      <trkpt lat="48.43976" lon="7.10975">
        <ele>867</ele>
        <time>2019-05-15T10:35:39.082Z</time>
      </trkpt>
      <trkpt lat="48.43976" lon="7.10974">
        <ele>867</ele>
        <time>2019-05-15T10:35:40.082Z</time>
      </trkpt>
      <trkpt lat="48.43975" lon="7.10973">
        <ele>867</ele>
        <time>2019-05-15T10:35:41.082Z</time>
      </trkpt>
      <trkpt lat="48.43975" lon="7.10972">
        <ele>867</ele>
        <time>2019-05-15T10:35:42.082Z</time>
      </trkpt>
      <trkpt lat="48.43976" lon="7.10971">
        <ele>867</ele>
        <time>2019-05-15T10:35:43.082Z</time>
      </trkpt>
      <trkpt lat="48.43976" lon="7.1097">
        <ele>867</ele>
        <time>2019-05-15T10:35:44.082Z</time>
      </trkpt>
      <trkpt lat="48.43976" lon="7.10968">
        <ele>867</ele>
        <time>2019-05-15T10:35:45.082Z</time>
      </trkpt>
      <trkpt lat="48.43976" lon="7.10967">
        <ele>867</ele>
        <time>2019-05-15T10:35:46.082Z</time>
      </trkpt>
      <trkpt lat="48.43976" lon="7.10966">
        <ele>866</ele>
        <time>2019-05-15T10:35:47.082Z</time>
      </trkpt>
      <trkpt lat="48.43976" lon="7.10965">
        <ele>867</ele>
        <time>2019-05-15T10:35:48.082Z</time>
      </trkpt>
      <trkpt lat="48.43977" lon="7.10964">
        <ele>866</ele>
        <time>2019-05-15T10:35:49.082Z</time>
      </trkpt>
      <trkpt lat="48.43977" lon="7.10964">
        <ele>866</ele>
        <time>2019-05-15T10:35:50.082Z</time>
      </trkpt>
      <trkpt lat="48.43977" lon="7.10964">
        <ele>866</ele>
        <time>2019-05-15T10:35:51.082Z</time>
      </trkpt>
      <trkpt lat="48.43977" lon="7.10964">
        <ele>866</ele>
        <time>2019-05-15T10:35:52.082Z</time>
      </trkpt>
      <trkpt lat="48.43977" lon="7.10965">
        <ele>866</ele>
        <time>2019-05-15T10:35:53.082Z</time>
      </trkpt>
      <trkpt lat="48.43976" lon="7.10965">
        <ele>866</ele>
        <time>2019-05-15T10:35:54.082Z</time>
      </trkpt>
      <trkpt lat="48.43976" lon="7.10965">
        <ele>866</ele>
        <time>2019-05-15T10:35:55.082Z</time>
      </trkpt>
      <trkpt lat="48.43977" lon="7.10965">
        <ele>866</ele>
        <time>2019-05-15T10:35:56.082Z</time>
      </trkpt>
      <trkpt lat="48.43977" lon="7.10964">
        <ele>866</ele>
        <time>2019-05-15T10:35:57.082Z</time>
      </trkpt>
      <trkpt lat="48.43977" lon="7.10964">
        <ele>865</ele>
        <time>2019-05-15T10:35:58.082Z</time>
      </trkpt>
      <trkpt lat="48.43977" lon="7.10964">
        <ele>865</ele>
        <time>2019-05-15T10:35:59.082Z</time>
      </trkpt>
      <trkpt lat="48.43977" lon="7.10964">
        <ele>865</ele>
        <time>2019-05-15T10:36:00.082Z</time>
      </trkpt>
      <trkpt lat="48.43976" lon="7.10963">
        <ele>865</ele>
        <time>2019-05-15T10:36:01.082Z</time>
      </trkpt>
      <trkpt lat="48.43976" lon="7.10962">
        <ele>865</ele>
        <time>2019-05-15T10:36:02.082Z</time>
      </trkpt>
      <trkpt lat="48.43976" lon="7.10961">
        <ele>865</ele>
        <time>2019-05-15T10:36:03.082Z</time>
      </trkpt>
      <trkpt lat="48.43976" lon="7.10959">
        <ele>865</ele>
        <time>2019-05-15T10:36:04.082Z</time>
      </trkpt>
      <trkpt lat="48.43977" lon="7.10958">
        <ele>865</ele>
        <time>2019-05-15T10:36:05.082Z</time>
      </trkpt>
      <trkpt lat="48.43976" lon="7.10957">
        <ele>865</ele>
        <time>2019-05-15T10:36:06.082Z</time>
      </trkpt>
      <trkpt lat="48.43977" lon="7.10955">
        <ele>865</ele>
        <time>2019-05-15T10:36:07.082Z</time>
      </trkpt>
      <trkpt lat="48.43977" lon="7.10954">
        <ele>866</ele>
        <time>2019-05-15T10:36:08.082Z</time>
      </trkpt>
      <trkpt lat="48.43977" lon="7.10952">
        <ele>865</ele>
        <time>2019-05-15T10:36:09.082Z</time>
      </trkpt>
      <trkpt lat="48.43977" lon="7.10951">
        <ele>865</ele>
        <time>2019-05-15T10:36:10.082Z</time>
      </trkpt>
      <trkpt lat="48.43977" lon="7.10949">
        <ele>865</ele>
        <time>2019-05-15T10:36:11.082Z</time>
      </trkpt>
      <trkpt lat="48.43978" lon="7.10948">
        <ele>865</ele>
        <time>2019-05-15T10:36:12.082Z</time>
      </trkpt>
      <trkpt lat="48.43978" lon="7.10947">
        <ele>865</ele>
        <time>2019-05-15T10:36:13.082Z</time>
      </trkpt>
      <trkpt lat="48.43978" lon="7.10945">
        <ele>865</ele>
        <time>2019-05-15T10:36:14.082Z</time>
      </trkpt>
      <trkpt lat="48.43978" lon="7.10944">
        <ele>865</ele>
        <time>2019-05-15T10:36:15.082Z</time>
      </trkpt>
      <trkpt lat="48.43978" lon="7.10942">
        <ele>865</ele>
        <time>2019-05-15T10:36:16.082Z</time>
      </trkpt>
      <trkpt lat="48.43978" lon="7.10941">
        <ele>865</ele>
        <time>2019-05-15T10:36:17.082Z</time>
      </trkpt>
      <trkpt lat="48.43978" lon="7.10939">
        <ele>866</ele>
        <time>2019-05-15T10:36:18.082Z</time>
      </trkpt>
      <trkpt lat="48.43979" lon="7.10938">
        <ele>866</ele>
        <time>2019-05-15T10:36:19.082Z</time>
      </trkpt>
      <trkpt lat="48.43979" lon="7.10937">
        <ele>865</ele>
        <time>2019-05-15T10:36:20.082Z</time>
      </trkpt>
      <trkpt lat="48.43979" lon="7.10936">
        <ele>865</ele>
        <time>2019-05-15T10:36:21.082Z</time>
      </trkpt>
      <trkpt lat="48.43979" lon="7.10934">
        <ele>866</ele>
        <time>2019-05-15T10:36:22.082Z</time>
      </trkpt>
      <trkpt lat="48.43979" lon="7.10933">
        <ele>865</ele>
        <time>2019-05-15T10:36:23.082Z</time>
      </trkpt>
      <trkpt lat="48.43979" lon="7.10932">
        <ele>865</ele>
        <time>2019-05-15T10:36:24.082Z</time>
      </trkpt>
      <trkpt lat="48.43979" lon="7.10931">
        <ele>865</ele>
        <time>2019-05-15T10:36:25.082Z</time>
      </trkpt>
      <trkpt lat="48.43979" lon="7.1093">
        <ele>866</ele>
        <time>2019-05-15T10:36:26.082Z</time>
      </trkpt>
      <trkpt lat="48.43979" lon="7.1093">
        <ele>866</ele>
        <time>2019-05-15T10:36:27.082Z</time>
      </trkpt>
      <trkpt lat="48.43979" lon="7.1093">
        <ele>866</ele>
        <time>2019-05-15T10:36:28.082Z</time>
      </trkpt>
      <trkpt lat="48.43979" lon="7.1093">
        <ele>866</ele>
        <time>2019-05-15T10:36:29.082Z</time>
      </trkpt>
      <trkpt lat="48.43979" lon="7.1093">
        <ele>866</ele>
        <time>2019-05-15T10:36:30.082Z</time>
      </trkpt>
      <trkpt lat="48.43979" lon="7.1093">
        <ele>866</ele>
        <time>2019-05-15T10:36:31.082Z</time>
      </trkpt>
      <trkpt lat="48.43979" lon="7.1093">
        <ele>866</ele>
        <time>2019-05-15T10:36:32.082Z</time>
      </trkpt>
      <trkpt lat="48.43979" lon="7.1093">
        <ele>866</ele>
        <time>2019-05-15T10:36:33.082Z</time>
      </trkpt>
      <trkpt lat="48.43979" lon="7.1093">
        <ele>866</ele>
        <time>2019-05-15T10:36:34.082Z</time>
      </trkpt>
      <trkpt lat="48.43979" lon="7.1093">
        <ele>866</ele>
        <time>2019-05-15T10:36:35.082Z</time>
      </trkpt>
      <trkpt lat="48.43979" lon="7.1093">
        <ele>866</ele>
        <time>2019-05-15T10:36:36.082Z</time>
      </trkpt>
      <trkpt lat="48.43978" lon="7.1093">
        <ele>866</ele>
        <time>2019-05-15T10:36:37.082Z</time>
      </trkpt>
      <trkpt lat="48.43978" lon="7.1093">
        <ele>866</ele>
        <time>2019-05-15T10:36:38.082Z</time>
      </trkpt>
      <trkpt lat="48.43978" lon="7.10929">
        <ele>866</ele>
        <time>2019-05-15T10:36:39.082Z</time>
      </trkpt>
      <trkpt lat="48.43978" lon="7.10929">
        <ele>866</ele>
        <time>2019-05-15T10:36:40.082Z</time>
      </trkpt>
      <trkpt lat="48.43978" lon="7.10929">
        <ele>866</ele>
        <time>2019-05-15T10:36:41.082Z</time>
      </trkpt>
      <trkpt lat="48.43978" lon="7.10929">
        <ele>866</ele>
        <time>2019-05-15T10:36:42.082Z</time>
      </trkpt>
      <trkpt lat="48.43978" lon="7.10929">
        <ele>866</ele>
        <time>2019-05-15T10:36:43.082Z</time>
      </trkpt>
      <trkpt lat="48.43978" lon="7.10929">
        <ele>866</ele>
        <time>2019-05-15T10:36:44.082Z</time>
      </trkpt>
      <trkpt lat="48.43978" lon="7.10929">
        <ele>866</ele>
        <time>2019-05-15T10:36:45.082Z</time>
      </trkpt>
      <trkpt lat="48.43978" lon="7.10929">
        <ele>866</ele>
        <time>2019-05-15T10:36:46.082Z</time>
      </trkpt>
      <trkpt lat="48.43978" lon="7.10929">
        <ele>865</ele>
        <time>2019-05-15T10:36:47.082Z</time>
      </trkpt>
      <trkpt lat="48.43978" lon="7.10929">
        <ele>865</ele>
        <time>2019-05-15T10:36:48.082Z</time>
      </trkpt>
      <trkpt lat="48.43978" lon="7.10929">
        <ele>865</ele>
        <time>2019-05-15T10:36:49.082Z</time>
      </trkpt>
      <trkpt lat="48.43978" lon="7.1093">
        <ele>865</ele>
        <time>2019-05-15T10:36:50.082Z</time>
      </trkpt>
      <trkpt lat="48.43978" lon="7.1093">
        <ele>865</ele>
        <time>2019-05-15T10:36:51.082Z</time>
      </trkpt>
      <trkpt lat="48.43978" lon="7.1093">
        <ele>865</ele>
        <time>2019-05-15T10:36:52.082Z</time>
      </trkpt>
      <trkpt lat="48.43978" lon="7.1093">
        <ele>865</ele>
        <time>2019-05-15T10:36:53.082Z</time>
      </trkpt>
      <trkpt lat="48.43978" lon="7.1093">
        <ele>865</ele>
        <time>2019-05-15T10:36:54.082Z</time>
      </trkpt>
      <trkpt lat="48.43978" lon="7.1093">
        <ele>865</ele>
        <time>2019-05-15T10:36:55.082Z</time>
      </trkpt>
      <trkpt lat="48.43978" lon="7.1093">
        <ele>865</ele>
        <time>2019-05-15T10:36:56.082Z</time>
      </trkpt>
      <trkpt lat="48.43978" lon="7.1093">
        <ele>866</ele>
        <time>2019-05-15T10:36:57.082Z</time>
      </trkpt>
      <trkpt lat="48.43978" lon="7.1093">
        <ele>866</ele>
        <time>2019-05-15T10:36:58.082Z</time>
      </trkpt>
      <trkpt lat="48.43978" lon="7.1093">
        <ele>866</ele>
        <time>2019-05-15T10:36:59.082Z</time>
      </trkpt>
      <trkpt lat="48.43978" lon="7.10929">
        <ele>866</ele>
        <time>2019-05-15T10:37:00.082Z</time>
      </trkpt>
      <trkpt lat="48.43978" lon="7.10929">
        <ele>866</ele>
        <time>2019-05-15T10:37:01.082Z</time>
      </trkpt>
      <trkpt lat="48.43978" lon="7.10928">
        <ele>866</ele>
        <time>2019-05-15T10:37:02.082Z</time>
      </trkpt>
      <trkpt lat="48.43979" lon="7.10928">
        <ele>866</ele>
        <time>2019-05-15T10:37:03.082Z</time>
      </trkpt>
      <trkpt lat="48.43979" lon="7.10927">
        <ele>866</ele>
        <time>2019-05-15T10:37:04.082Z</time>
      </trkpt>
      <trkpt lat="48.43979" lon="7.10927">
        <ele>866</ele>
        <time>2019-05-15T10:37:05.082Z</time>
      </trkpt>
      <trkpt lat="48.4398" lon="7.10926">
        <ele>866</ele>
        <time>2019-05-15T10:37:06.082Z</time>
      </trkpt>
      <trkpt lat="48.4398" lon="7.10925">
        <ele>866</ele>
        <time>2019-05-15T10:37:07.082Z</time>
      </trkpt>
      <trkpt lat="48.43981" lon="7.10924">
        <ele>866</ele>
        <time>2019-05-15T10:37:08.082Z</time>
      </trkpt>
      <trkpt lat="48.43981" lon="7.10924">
        <ele>866</ele>
        <time>2019-05-15T10:37:09.082Z</time>
      </trkpt>
      <trkpt lat="48.43982" lon="7.10924">
        <ele>866</ele>
        <time>2019-05-15T10:37:10.082Z</time>
      </trkpt>
      <trkpt lat="48.43982" lon="7.10923">
        <ele>866</ele>
        <time>2019-05-15T10:37:11.082Z</time>
      </trkpt>
      <trkpt lat="48.43983" lon="7.10923">
        <ele>866</ele>
        <time>2019-05-15T10:37:12.082Z</time>
      </trkpt>
      <trkpt lat="48.43983" lon="7.10922">
        <ele>866</ele>
        <time>2019-05-15T10:37:13.082Z</time>
      </trkpt>
      <trkpt lat="48.43983" lon="7.10922">
        <ele>866</ele>
        <time>2019-05-15T10:37:14.082Z</time>
      </trkpt>
      <trkpt lat="48.43984" lon="7.10922">
        <ele>867</ele>
        <time>2019-05-15T10:37:15.082Z</time>
      </trkpt>
      <trkpt lat="48.43985" lon="7.10921">
        <ele>866</ele>
        <time>2019-05-15T10:37:16.082Z</time>
      </trkpt>
      <trkpt lat="48.43985" lon="7.10921">
        <ele>867</ele>
        <time>2019-05-15T10:37:17.082Z</time>
      </trkpt>
      <trkpt lat="48.43986" lon="7.10921">
        <ele>866</ele>
        <time>2019-05-15T10:37:18.082Z</time>
      </trkpt>
      <trkpt lat="48.43986" lon="7.10921">
        <ele>866</ele>
        <time>2019-05-15T10:37:19.082Z</time>
      </trkpt>
      <trkpt lat="48.43987" lon="7.1092">
        <ele>866</ele>
        <time>2019-05-15T10:37:20.082Z</time>
      </trkpt>
      <trkpt lat="48.43987" lon="7.1092">
        <ele>866</ele>
        <time>2019-05-15T10:37:21.082Z</time>
      </trkpt>
      <trkpt lat="48.43988" lon="7.10919">
        <ele>866</ele>
        <time>2019-05-15T10:37:22.082Z</time>
      </trkpt>
      <trkpt lat="48.43988" lon="7.10919">
        <ele>867</ele>
        <time>2019-05-15T10:37:23.082Z</time>
      </trkpt>
      <trkpt lat="48.43989" lon="7.10918">
        <ele>866</ele>
        <time>2019-05-15T10:37:24.082Z</time>
      </trkpt>
      <trkpt lat="48.43989" lon="7.10918">
        <ele>866</ele>
        <time>2019-05-15T10:37:25.082Z</time>
      </trkpt>
      <trkpt lat="48.4399" lon="7.10917">
        <ele>865</ele>
        <time>2019-05-15T10:37:26.082Z</time>
      </trkpt>
      <trkpt lat="48.43991" lon="7.10917">
        <ele>865</ele>
        <time>2019-05-15T10:37:27.082Z</time>
      </trkpt>
      <trkpt lat="48.43991" lon="7.10917">
        <ele>864</ele>
        <time>2019-05-15T10:37:28.082Z</time>
      </trkpt>
      <trkpt lat="48.43992" lon="7.10916">
        <ele>864</ele>
        <time>2019-05-15T10:37:29.082Z</time>
      </trkpt>
      <trkpt lat="48.43993" lon="7.10916">
        <ele>864</ele>
        <time>2019-05-15T10:37:30.082Z</time>
      </trkpt>
      <trkpt lat="48.43993" lon="7.10915">
        <ele>865</ele>
        <time>2019-05-15T10:37:31.082Z</time>
      </trkpt>
      <trkpt lat="48.43994" lon="7.10915">
        <ele>864</ele>
        <time>2019-05-15T10:37:32.082Z</time>
      </trkpt>
      <trkpt lat="48.43994" lon="7.10914">
        <ele>864</ele>
        <time>2019-05-15T10:37:33.082Z</time>
      </trkpt>
      <trkpt lat="48.43995" lon="7.10914">
        <ele>865</ele>
        <time>2019-05-15T10:37:34.082Z</time>
      </trkpt>
      <trkpt lat="48.43995" lon="7.10914">
        <ele>865</ele>
        <time>2019-05-15T10:37:35.082Z</time>
      </trkpt>
      <trkpt lat="48.43996" lon="7.10913">
        <ele>865</ele>
        <time>2019-05-15T10:37:36.082Z</time>
      </trkpt>
      <trkpt lat="48.43996" lon="7.10913">
        <ele>865</ele>
        <time>2019-05-15T10:37:37.082Z</time>
      </trkpt>
      <trkpt lat="48.43997" lon="7.10913">
        <ele>865</ele>
        <time>2019-05-15T10:37:38.082Z</time>
      </trkpt>
      <trkpt lat="48.43997" lon="7.10912">
        <ele>865</ele>
        <time>2019-05-15T10:37:39.082Z</time>
      </trkpt>
      <trkpt lat="48.43998" lon="7.10912">
        <ele>865</ele>
        <time>2019-05-15T10:37:40.082Z</time>
      </trkpt>
      <trkpt lat="48.43998" lon="7.10911">
        <ele>865</ele>
        <time>2019-05-15T10:37:41.082Z</time>
      </trkpt>
      <trkpt lat="48.43999" lon="7.10911">
        <ele>865</ele>
        <time>2019-05-15T10:37:42.082Z</time>
      </trkpt>
      <trkpt lat="48.43999" lon="7.1091">
        <ele>865</ele>
        <time>2019-05-15T10:37:43.082Z</time>
      </trkpt>
      <trkpt lat="48.43999" lon="7.1091">
        <ele>866</ele>
        <time>2019-05-15T10:37:44.082Z</time>
      </trkpt>
      <trkpt lat="48.43999" lon="7.10909">
        <ele>865</ele>
        <time>2019-05-15T10:37:45.082Z</time>
      </trkpt>
      <trkpt lat="48.43999" lon="7.10909">
        <ele>865</ele>
        <time>2019-05-15T10:37:46.082Z</time>
      </trkpt>
      <trkpt lat="48.43999" lon="7.10908">
        <ele>865</ele>
        <time>2019-05-15T10:37:47.082Z</time>
      </trkpt>
      <trkpt lat="48.44" lon="7.10907">
        <ele>864</ele>
        <time>2019-05-15T10:37:48.082Z</time>
      </trkpt>
      <trkpt lat="48.44" lon="7.10907">
        <ele>863</ele>
        <time>2019-05-15T10:37:49.082Z</time>
      </trkpt>
      <trkpt lat="48.44" lon="7.10906">
        <ele>863</ele>
        <time>2019-05-15T10:37:50.082Z</time>
      </trkpt>
      <trkpt lat="48.44" lon="7.10905">
        <ele>863</ele>
        <time>2019-05-15T10:37:51.082Z</time>
      </trkpt>
      <trkpt lat="48.44" lon="7.10904">
        <ele>862</ele>
        <time>2019-05-15T10:37:52.082Z</time>
      </trkpt>
      <trkpt lat="48.44" lon="7.10903">
        <ele>862</ele>
        <time>2019-05-15T10:37:53.082Z</time>
      </trkpt>
      <trkpt lat="48.44001" lon="7.10902">
        <ele>862</ele>
        <time>2019-05-15T10:37:54.082Z</time>
      </trkpt>
      <trkpt lat="48.44001" lon="7.10901">
        <ele>862</ele>
        <time>2019-05-15T10:37:55.082Z</time>
      </trkpt>
      <trkpt lat="48.44002" lon="7.109">
        <ele>862</ele>
        <time>2019-05-15T10:37:56.082Z</time>
      </trkpt>
      <trkpt lat="48.44002" lon="7.10899">
        <ele>862</ele>
        <time>2019-05-15T10:37:57.082Z</time>
      </trkpt>
      <trkpt lat="48.44003" lon="7.10898">
        <ele>862</ele>
        <time>2019-05-15T10:37:58.082Z</time>
      </trkpt>
      <trkpt lat="48.44003" lon="7.10897">
        <ele>861</ele>
        <time>2019-05-15T10:37:59.082Z</time>
      </trkpt>
      <trkpt lat="48.44003" lon="7.10896">
        <ele>861</ele>
        <time>2019-05-15T10:38:00.082Z</time>
      </trkpt>
      <trkpt lat="48.44003" lon="7.10895">
        <ele>860</ele>
        <time>2019-05-15T10:38:01.082Z</time>
      </trkpt>
      <trkpt lat="48.44003" lon="7.10894">
        <ele>860</ele>
        <time>2019-05-15T10:38:02.082Z</time>
      </trkpt>
      <trkpt lat="48.44003" lon="7.10893">
        <ele>860</ele>
        <time>2019-05-15T10:38:03.082Z</time>
      </trkpt>
      <trkpt lat="48.44004" lon="7.10892">
        <ele>860</ele>
        <time>2019-05-15T10:38:04.082Z</time>
      </trkpt>
      <trkpt lat="48.44004" lon="7.10891">
        <ele>860</ele>
        <time>2019-05-15T10:38:05.082Z</time>
      </trkpt>
      <trkpt lat="48.44003" lon="7.10889">
        <ele>860</ele>
        <time>2019-05-15T10:38:06.082Z</time>
      </trkpt>
      <trkpt lat="48.44003" lon="7.10888">
        <ele>860</ele>
        <time>2019-05-15T10:38:07.082Z</time>
      </trkpt>
      <trkpt lat="48.44003" lon="7.10887">
        <ele>860</ele>
        <time>2019-05-15T10:38:08.082Z</time>
      </trkpt>
      <trkpt lat="48.44004" lon="7.10886">
        <ele>860</ele>
        <time>2019-05-15T10:38:09.082Z</time>
      </trkpt>
      <trkpt lat="48.44004" lon="7.10884">
        <ele>860</ele>
        <time>2019-05-15T10:38:10.082Z</time>
      </trkpt>
      <trkpt lat="48.44004" lon="7.10883">
        <ele>860</ele>
        <time>2019-05-15T10:38:11.082Z</time>
      </trkpt>
      <trkpt lat="48.44004" lon="7.10882">
        <ele>860</ele>
        <time>2019-05-15T10:38:12.082Z</time>
      </trkpt>
      <trkpt lat="48.44005" lon="7.10881">
        <ele>861</ele>
        <time>2019-05-15T10:38:13.082Z</time>
      </trkpt>
      <trkpt lat="48.44005" lon="7.1088">
        <ele>861</ele>
        <time>2019-05-15T10:38:14.082Z</time>
      </trkpt>
      <trkpt lat="48.44005" lon="7.10879">
        <ele>861</ele>
        <time>2019-05-15T10:38:15.082Z</time>
      </trkpt>
      <trkpt lat="48.44006" lon="7.10878">
        <ele>860</ele>
        <time>2019-05-15T10:38:16.082Z</time>
      </trkpt>
      <trkpt lat="48.44006" lon="7.10877">
        <ele>861</ele>
        <time>2019-05-15T10:38:17.082Z</time>
      </trkpt>
      <trkpt lat="48.44007" lon="7.10875">
        <ele>861</ele>
        <time>2019-05-15T10:38:18.082Z</time>
      </trkpt>
      <trkpt lat="48.44008" lon="7.10874">
        <ele>861</ele>
        <time>2019-05-15T10:38:19.082Z</time>
      </trkpt>
      <trkpt lat="48.44008" lon="7.10872">
        <ele>860</ele>
        <time>2019-05-15T10:38:20.082Z</time>
      </trkpt>
      <trkpt lat="48.44008" lon="7.10871">
        <ele>860</ele>
        <time>2019-05-15T10:38:21.082Z</time>
      </trkpt>
      <trkpt lat="48.44008" lon="7.1087">
        <ele>859</ele>
        <time>2019-05-15T10:38:22.082Z</time>
      </trkpt>
      <trkpt lat="48.44009" lon="7.10868">
        <ele>859</ele>
        <time>2019-05-15T10:38:23.082Z</time>
      </trkpt>
      <trkpt lat="48.44009" lon="7.10867">
        <ele>859</ele>
        <time>2019-05-15T10:38:24.082Z</time>
      </trkpt>
      <trkpt lat="48.4401" lon="7.10866">
        <ele>858</ele>
        <time>2019-05-15T10:38:25.082Z</time>
      </trkpt>
      <trkpt lat="48.4401" lon="7.10865">
        <ele>859</ele>
        <time>2019-05-15T10:38:26.082Z</time>
      </trkpt>
      <trkpt lat="48.44011" lon="7.10863">
        <ele>860</ele>
        <time>2019-05-15T10:38:27.082Z</time>
      </trkpt>
      <trkpt lat="48.44011" lon="7.10862">
        <ele>860</ele>
        <time>2019-05-15T10:38:28.082Z</time>
      </trkpt>
      <trkpt lat="48.44011" lon="7.10861">
        <ele>860</ele>
        <time>2019-05-15T10:38:29.082Z</time>
      </trkpt>
      <trkpt lat="48.44012" lon="7.10859">
        <ele>861</ele>
        <time>2019-05-15T10:38:30.082Z</time>
      </trkpt>
      <trkpt lat="48.44012" lon="7.10858">
        <ele>861</ele>
        <time>2019-05-15T10:38:31.082Z</time>
      </trkpt>
      <trkpt lat="48.44012" lon="7.10857">
        <ele>861</ele>
        <time>2019-05-15T10:38:32.082Z</time>
      </trkpt>
      <trkpt lat="48.44012" lon="7.10856">
        <ele>861</ele>
        <time>2019-05-15T10:38:33.082Z</time>
      </trkpt>
      <trkpt lat="48.44013" lon="7.10855">
        <ele>861</ele>
        <time>2019-05-15T10:38:34.082Z</time>
      </trkpt>
      <trkpt lat="48.44013" lon="7.10854">
        <ele>861</ele>
        <time>2019-05-15T10:38:35.082Z</time>
      </trkpt>
      <trkpt lat="48.44014" lon="7.10853">
        <ele>861</ele>
        <time>2019-05-15T10:38:36.082Z</time>
      </trkpt>
      <trkpt lat="48.44014" lon="7.10852">
        <ele>861</ele>
        <time>2019-05-15T10:38:37.082Z</time>
      </trkpt>
      <trkpt lat="48.44015" lon="7.1085">
        <ele>861</ele>
        <time>2019-05-15T10:38:38.082Z</time>
      </trkpt>
      <trkpt lat="48.44016" lon="7.10848">
        <ele>861</ele>
        <time>2019-05-15T10:38:39.082Z</time>
      </trkpt>
      <trkpt lat="48.44017" lon="7.10847">
        <ele>861</ele>
        <time>2019-05-15T10:38:40.082Z</time>
      </trkpt>
      <trkpt lat="48.44018" lon="7.10846">
        <ele>861</ele>
        <time>2019-05-15T10:38:41.082Z</time>
      </trkpt>
      <trkpt lat="48.44019" lon="7.10844">
        <ele>862</ele>
        <time>2019-05-15T10:38:42.082Z</time>
      </trkpt>
      <trkpt lat="48.44019" lon="7.10843">
        <ele>862</ele>
        <time>2019-05-15T10:38:43.082Z</time>
      </trkpt>
      <trkpt lat="48.4402" lon="7.10842">
        <ele>862</ele>
        <time>2019-05-15T10:38:44.082Z</time>
      </trkpt>
      <trkpt lat="48.4402" lon="7.1084">
        <ele>863</ele>
        <time>2019-05-15T10:38:45.082Z</time>
      </trkpt>
      <trkpt lat="48.44021" lon="7.10839">
        <ele>863</ele>
        <time>2019-05-15T10:38:46.082Z</time>
      </trkpt>
      <trkpt lat="48.44021" lon="7.10837">
        <ele>862</ele>
        <time>2019-05-15T10:38:47.082Z</time>
      </trkpt>
      <trkpt lat="48.44022" lon="7.10836">
        <ele>862</ele>
        <time>2019-05-15T10:38:48.082Z</time>
      </trkpt>
      <trkpt lat="48.44022" lon="7.10835">
        <ele>863</ele>
        <time>2019-05-15T10:38:49.082Z</time>
      </trkpt>
      <trkpt lat="48.44022" lon="7.10834">
        <ele>863</ele>
        <time>2019-05-15T10:38:50.082Z</time>
      </trkpt>
      <trkpt lat="48.44022" lon="7.10832">
        <ele>863</ele>
        <time>2019-05-15T10:38:51.082Z</time>
      </trkpt>
      <trkpt lat="48.44022" lon="7.10831">
        <ele>861</ele>
        <time>2019-05-15T10:38:52.082Z</time>
      </trkpt>
      <trkpt lat="48.44022" lon="7.1083">
        <ele>861</ele>
        <time>2019-05-15T10:38:53.082Z</time>
      </trkpt>
      <trkpt lat="48.44022" lon="7.10829">
        <ele>861</ele>
        <time>2019-05-15T10:38:54.082Z</time>
      </trkpt>
      <trkpt lat="48.44022" lon="7.10827">
        <ele>860</ele>
        <time>2019-05-15T10:38:55.082Z</time>
      </trkpt>
      <trkpt lat="48.44022" lon="7.10826">
        <ele>860</ele>
        <time>2019-05-15T10:38:56.082Z</time>
      </trkpt>
      <trkpt lat="48.44021" lon="7.10825">
        <ele>860</ele>
        <time>2019-05-15T10:38:57.082Z</time>
      </trkpt>
      <trkpt lat="48.44021" lon="7.10823">
        <ele>859</ele>
        <time>2019-05-15T10:38:58.082Z</time>
      </trkpt>
      <trkpt lat="48.44021" lon="7.10822">
        <ele>859</ele>
        <time>2019-05-15T10:38:59.082Z</time>
      </trkpt>
      <trkpt lat="48.44021" lon="7.10821">
        <ele>859</ele>
        <time>2019-05-15T10:39:00.082Z</time>
      </trkpt>
      <trkpt lat="48.4402" lon="7.1082">
        <ele>858</ele>
        <time>2019-05-15T10:39:01.082Z</time>
      </trkpt>
      <trkpt lat="48.4402" lon="7.10819">
        <ele>858</ele>
        <time>2019-05-15T10:39:02.082Z</time>
      </trkpt>
      <trkpt lat="48.4402" lon="7.10818">
        <ele>858</ele>
        <time>2019-05-15T10:39:03.082Z</time>
      </trkpt>
      <trkpt lat="48.44021" lon="7.10817">
        <ele>858</ele>
        <time>2019-05-15T10:39:04.082Z</time>
      </trkpt>
      <trkpt lat="48.44021" lon="7.10815">
        <ele>858</ele>
        <time>2019-05-15T10:39:05.082Z</time>
      </trkpt>
      <trkpt lat="48.44021" lon="7.10813">
        <ele>858</ele>
        <time>2019-05-15T10:39:06.082Z</time>
      </trkpt>
      <trkpt lat="48.44021" lon="7.10811">
        <ele>858</ele>
        <time>2019-05-15T10:39:07.082Z</time>
      </trkpt>
      <trkpt lat="48.44022" lon="7.1081">
        <ele>858</ele>
        <time>2019-05-15T10:39:08.082Z</time>
      </trkpt>
      <trkpt lat="48.44023" lon="7.10809">
        <ele>858</ele>
        <time>2019-05-15T10:39:09.082Z</time>
      </trkpt>
      <trkpt lat="48.44023" lon="7.10807">
        <ele>858</ele>
        <time>2019-05-15T10:39:10.082Z</time>
      </trkpt>
      <trkpt lat="48.44023" lon="7.10806">
        <ele>858</ele>
        <time>2019-05-15T10:39:11.082Z</time>
      </trkpt>
      <trkpt lat="48.44024" lon="7.10804">
        <ele>858</ele>
        <time>2019-05-15T10:39:12.082Z</time>
      </trkpt>
      <trkpt lat="48.44024" lon="7.10803">
        <ele>857</ele>
        <time>2019-05-15T10:39:13.082Z</time>
      </trkpt>
      <trkpt lat="48.44025" lon="7.10802">
        <ele>857</ele>
        <time>2019-05-15T10:39:14.082Z</time>
      </trkpt>
      <trkpt lat="48.44025" lon="7.10802">
        <ele>857</ele>
        <time>2019-05-15T10:39:15.082Z</time>
      </trkpt>
      <trkpt lat="48.44026" lon="7.10801">
        <ele>857</ele>
        <time>2019-05-15T10:39:16.082Z</time>
      </trkpt>
      <trkpt lat="48.44026" lon="7.108">
        <ele>858</ele>
        <time>2019-05-15T10:39:17.082Z</time>
      </trkpt>
      <trkpt lat="48.44027" lon="7.10799">
        <ele>858</ele>
        <time>2019-05-15T10:39:18.082Z</time>
      </trkpt>
      <trkpt lat="48.44028" lon="7.10798">
        <ele>858</ele>
        <time>2019-05-15T10:39:19.082Z</time>
      </trkpt>
      <trkpt lat="48.44028" lon="7.10797">
        <ele>858</ele>
        <time>2019-05-15T10:39:20.082Z</time>
      </trkpt>
      <trkpt lat="48.44028" lon="7.10796">
        <ele>858</ele>
        <time>2019-05-15T10:39:21.082Z</time>
      </trkpt>
      <trkpt lat="48.44029" lon="7.10796">
        <ele>857</ele>
        <time>2019-05-15T10:39:22.082Z</time>
      </trkpt>
      <trkpt lat="48.44029" lon="7.10795">
        <ele>857</ele>
        <time>2019-05-15T10:39:23.082Z</time>
      </trkpt>
      <trkpt lat="48.44029" lon="7.10795">
        <ele>857</ele>
        <time>2019-05-15T10:39:24.082Z</time>
      </trkpt>
      <trkpt lat="48.44029" lon="7.10794">
        <ele>858</ele>
        <time>2019-05-15T10:39:25.082Z</time>
      </trkpt>
      <trkpt lat="48.44029" lon="7.10793">
        <ele>858</ele>
        <time>2019-05-15T10:39:26.082Z</time>
      </trkpt>
      <trkpt lat="48.4403" lon="7.10792">
        <ele>858</ele>
        <time>2019-05-15T10:39:27.082Z</time>
      </trkpt>
      <trkpt lat="48.4403" lon="7.1079">
        <ele>858</ele>
        <time>2019-05-15T10:39:28.082Z</time>
      </trkpt>
      <trkpt lat="48.44031" lon="7.10789">
        <ele>858</ele>
        <time>2019-05-15T10:39:29.082Z</time>
      </trkpt>
      <trkpt lat="48.44032" lon="7.10787">
        <ele>858</ele>
        <time>2019-05-15T10:39:30.082Z</time>
      </trkpt>
      <trkpt lat="48.44033" lon="7.10786">
        <ele>858</ele>
        <time>2019-05-15T10:39:31.082Z</time>
      </trkpt>
      <trkpt lat="48.44034" lon="7.10785">
        <ele>858</ele>
        <time>2019-05-15T10:39:32.082Z</time>
      </trkpt>
      <trkpt lat="48.44036" lon="7.10784">
        <ele>859</ele>
        <time>2019-05-15T10:39:33.082Z</time>
      </trkpt>
      <trkpt lat="48.44037" lon="7.10783">
        <ele>859</ele>
        <time>2019-05-15T10:39:34.082Z</time>
      </trkpt>
      <trkpt lat="48.44038" lon="7.10783">
        <ele>859</ele>
        <time>2019-05-15T10:39:35.082Z</time>
      </trkpt>
      <trkpt lat="48.44039" lon="7.10782">
        <ele>859</ele>
        <time>2019-05-15T10:39:36.082Z</time>
      </trkpt>
      <trkpt lat="48.4404" lon="7.10782">
        <ele>859</ele>
        <time>2019-05-15T10:39:37.082Z</time>
      </trkpt>
      <trkpt lat="48.44041" lon="7.10781">
        <ele>859</ele>
        <time>2019-05-15T10:39:38.082Z</time>
      </trkpt>
      <trkpt lat="48.44042" lon="7.1078">
        <ele>859</ele>
        <time>2019-05-15T10:39:39.082Z</time>
      </trkpt>
      <trkpt lat="48.44044" lon="7.1078">
        <ele>859</ele>
        <time>2019-05-15T10:39:40.082Z</time>
      </trkpt>
      <trkpt lat="48.44045" lon="7.10779">
        <ele>859</ele>
        <time>2019-05-15T10:39:41.082Z</time>
      </trkpt>
      <trkpt lat="48.44046" lon="7.10779">
        <ele>859</ele>
        <time>2019-05-15T10:39:42.082Z</time>
      </trkpt>
      <trkpt lat="48.44047" lon="7.10779">
        <ele>859</ele>
        <time>2019-05-15T10:39:43.082Z</time>
      </trkpt>
      <trkpt lat="48.44047" lon="7.10779">
        <ele>859</ele>
        <time>2019-05-15T10:39:44.082Z</time>
      </trkpt>
      <trkpt lat="48.44048" lon="7.10778">
        <ele>860</ele>
        <time>2019-05-15T10:39:45.082Z</time>
      </trkpt>
      <trkpt lat="48.44049" lon="7.10778">
        <ele>860</ele>
        <time>2019-05-15T10:39:46.082Z</time>
      </trkpt>
      <trkpt lat="48.4405" lon="7.10778">
        <ele>860</ele>
        <time>2019-05-15T10:39:47.082Z</time>
      </trkpt>
      <trkpt lat="48.44051" lon="7.10778">
        <ele>860</ele>
        <time>2019-05-15T10:39:48.082Z</time>
      </trkpt>
      <trkpt lat="48.44052" lon="7.10778">
        <ele>860</ele>
        <time>2019-05-15T10:39:49.082Z</time>
      </trkpt>
      <trkpt lat="48.44052" lon="7.10778">
        <ele>860</ele>
        <time>2019-05-15T10:39:50.082Z</time>
      </trkpt>
      <trkpt lat="48.44053" lon="7.10778">
        <ele>860</ele>
        <time>2019-05-15T10:39:51.082Z</time>
      </trkpt>
      <trkpt lat="48.44054" lon="7.10778">
        <ele>861</ele>
        <time>2019-05-15T10:39:52.082Z</time>
      </trkpt>
      <trkpt lat="48.44055" lon="7.10778">
        <ele>860</ele>
        <time>2019-05-15T10:39:53.082Z</time>
      </trkpt>
      <trkpt lat="48.44055" lon="7.10777">
        <ele>861</ele>
        <time>2019-05-15T10:39:54.082Z</time>
      </trkpt>
      <trkpt lat="48.44056" lon="7.10777">
        <ele>861</ele>
        <time>2019-05-15T10:39:55.082Z</time>
      </trkpt>
      <trkpt lat="48.44057" lon="7.10777">
        <ele>861</ele>
        <time>2019-05-15T10:39:56.082Z</time>
      </trkpt>
      <trkpt lat="48.44058" lon="7.10776">
        <ele>861</ele>
        <time>2019-05-15T10:39:57.082Z</time>
      </trkpt>
      <trkpt lat="48.44058" lon="7.10776">
        <ele>861</ele>
        <time>2019-05-15T10:39:58.082Z</time>
      </trkpt>
      <trkpt lat="48.44059" lon="7.10776">
        <ele>861</ele>
        <time>2019-05-15T10:39:59.082Z</time>
      </trkpt>
      <trkpt lat="48.4406" lon="7.10775">
        <ele>861</ele>
        <time>2019-05-15T10:40:00.082Z</time>
      </trkpt>
      <trkpt lat="48.44061" lon="7.10775">
        <ele>861</ele>
        <time>2019-05-15T10:40:01.082Z</time>
      </trkpt>
      <trkpt lat="48.44062" lon="7.10774">
        <ele>861</ele>
        <time>2019-05-15T10:40:02.082Z</time>
      </trkpt>
      <trkpt lat="48.44063" lon="7.10774">
        <ele>861</ele>
        <time>2019-05-15T10:40:03.082Z</time>
      </trkpt>
      <trkpt lat="48.44064" lon="7.10774">
        <ele>860</ele>
        <time>2019-05-15T10:40:04.082Z</time>
      </trkpt>
      <trkpt lat="48.44064" lon="7.10773">
        <ele>860</ele>
        <time>2019-05-15T10:40:05.082Z</time>
      </trkpt>
      <trkpt lat="48.44065" lon="7.10773">
        <ele>860</ele>
        <time>2019-05-15T10:40:06.082Z</time>
      </trkpt>
      <trkpt lat="48.44066" lon="7.10772">
        <ele>860</ele>
        <time>2019-05-15T10:40:07.082Z</time>
      </trkpt>
      <trkpt lat="48.44067" lon="7.10772">
        <ele>860</ele>
        <time>2019-05-15T10:40:08.082Z</time>
      </trkpt>
      <trkpt lat="48.44068" lon="7.10771">
        <ele>860</ele>
        <time>2019-05-15T10:40:09.082Z</time>
      </trkpt>
      <trkpt lat="48.44068" lon="7.10771">
        <ele>861</ele>
        <time>2019-05-15T10:40:10.082Z</time>
      </trkpt>
      <trkpt lat="48.44069" lon="7.1077">
        <ele>861</ele>
        <time>2019-05-15T10:40:11.082Z</time>
      </trkpt>
      <trkpt lat="48.4407" lon="7.10769">
        <ele>862</ele>
        <time>2019-05-15T10:40:12.082Z</time>
      </trkpt>
      <trkpt lat="48.44071" lon="7.10769">
        <ele>862</ele>
        <time>2019-05-15T10:40:13.082Z</time>
      </trkpt>
      <trkpt lat="48.44072" lon="7.10768">
        <ele>862</ele>
        <time>2019-05-15T10:40:14.082Z</time>
      </trkpt>
      <trkpt lat="48.44072" lon="7.10768">
        <ele>862</ele>
        <time>2019-05-15T10:40:15.082Z</time>
      </trkpt>
      <trkpt lat="48.44073" lon="7.10768">
        <ele>861</ele>
        <time>2019-05-15T10:40:16.082Z</time>
      </trkpt>
      <trkpt lat="48.44075" lon="7.10767">
        <ele>861</ele>
        <time>2019-05-15T10:40:17.082Z</time>
      </trkpt>
      <trkpt lat="48.44076" lon="7.10766">
        <ele>861</ele>
        <time>2019-05-15T10:40:18.082Z</time>
      </trkpt>
      <trkpt lat="48.44076" lon="7.10765">
        <ele>861</ele>
        <time>2019-05-15T10:40:19.082Z</time>
      </trkpt>
      <trkpt lat="48.44077" lon="7.10765">
        <ele>861</ele>
        <time>2019-05-15T10:40:20.082Z</time>
      </trkpt>
      <trkpt lat="48.44078" lon="7.10764">
        <ele>861</ele>
        <time>2019-05-15T10:40:21.082Z</time>
      </trkpt>
      <trkpt lat="48.44078" lon="7.10763">
        <ele>861</ele>
        <time>2019-05-15T10:40:22.082Z</time>
      </trkpt>
      <trkpt lat="48.44079" lon="7.10763">
        <ele>860</ele>
        <time>2019-05-15T10:40:23.082Z</time>
      </trkpt>
      <trkpt lat="48.4408" lon="7.10763">
        <ele>860</ele>
        <time>2019-05-15T10:40:24.082Z</time>
      </trkpt>
      <trkpt lat="48.44081" lon="7.10764">
        <ele>860</ele>
        <time>2019-05-15T10:40:25.082Z</time>
      </trkpt>
      <trkpt lat="48.44082" lon="7.10764">
        <ele>860</ele>
        <time>2019-05-15T10:40:26.082Z</time>
      </trkpt>
      <trkpt lat="48.44083" lon="7.10764">
        <ele>860</ele>
        <time>2019-05-15T10:40:27.082Z</time>
      </trkpt>
      <trkpt lat="48.44083" lon="7.10764">
        <ele>860</ele>
        <time>2019-05-15T10:40:28.082Z</time>
      </trkpt>
      <trkpt lat="48.44084" lon="7.10764">
        <ele>859</ele>
        <time>2019-05-15T10:40:29.082Z</time>
      </trkpt>
      <trkpt lat="48.44085" lon="7.10764">
        <ele>860</ele>
        <time>2019-05-15T10:40:30.082Z</time>
      </trkpt>
      <trkpt lat="48.44086" lon="7.10763">
        <ele>860</ele>
        <time>2019-05-15T10:40:31.082Z</time>
      </trkpt>
      <trkpt lat="48.44087" lon="7.10763">
        <ele>859</ele>
        <time>2019-05-15T10:40:32.082Z</time>
      </trkpt>
      <trkpt lat="48.44088" lon="7.10763">
        <ele>859</ele>
        <time>2019-05-15T10:40:33.082Z</time>
      </trkpt>
      <trkpt lat="48.44088" lon="7.10762">
        <ele>859</ele>
        <time>2019-05-15T10:40:34.082Z</time>
      </trkpt>
      <trkpt lat="48.44089" lon="7.10762">
        <ele>859</ele>
        <time>2019-05-15T10:40:35.082Z</time>
      </trkpt>
      <trkpt lat="48.4409" lon="7.10762">
        <ele>859</ele>
        <time>2019-05-15T10:40:36.082Z</time>
      </trkpt>
      <trkpt lat="48.44091" lon="7.10762">
        <ele>859</ele>
        <time>2019-05-15T10:40:37.082Z</time>
      </trkpt>
      <trkpt lat="48.44092" lon="7.10762">
        <ele>859</ele>
        <time>2019-05-15T10:40:38.082Z</time>
      </trkpt>
      <trkpt lat="48.44093" lon="7.10761">
        <ele>859</ele>
        <time>2019-05-15T10:40:39.082Z</time>
      </trkpt>
      <trkpt lat="48.44094" lon="7.10761">
        <ele>858</ele>
        <time>2019-05-15T10:40:40.082Z</time>
      </trkpt>
      <trkpt lat="48.44095" lon="7.10761">
        <ele>858</ele>
        <time>2019-05-15T10:40:41.082Z</time>
      </trkpt>
      <trkpt lat="48.44096" lon="7.1076">
        <ele>858</ele>
        <time>2019-05-15T10:40:42.082Z</time>
      </trkpt>
      <trkpt lat="48.44097" lon="7.1076">
        <ele>858</ele>
        <time>2019-05-15T10:40:43.082Z</time>
      </trkpt>
      <trkpt lat="48.44098" lon="7.10759">
        <ele>858</ele>
        <time>2019-05-15T10:40:44.082Z</time>
      </trkpt>
      <trkpt lat="48.44098" lon="7.10759">
        <ele>858</ele>
        <time>2019-05-15T10:40:45.082Z</time>
      </trkpt>
      <trkpt lat="48.44099" lon="7.10758">
        <ele>858</ele>
        <time>2019-05-15T10:40:46.082Z</time>
      </trkpt>
      <trkpt lat="48.441" lon="7.10758">
        <ele>858</ele>
        <time>2019-05-15T10:40:47.082Z</time>
      </trkpt>
      <trkpt lat="48.44101" lon="7.10757">
        <ele>858</ele>
        <time>2019-05-15T10:40:48.082Z</time>
      </trkpt>
      <trkpt lat="48.44101" lon="7.10757">
        <ele>858</ele>
        <time>2019-05-15T10:40:49.082Z</time>
      </trkpt>
      <trkpt lat="48.44102" lon="7.10757">
        <ele>858</ele>
        <time>2019-05-15T10:40:50.082Z</time>
      </trkpt>
      <trkpt lat="48.44103" lon="7.10756">
        <ele>857</ele>
        <time>2019-05-15T10:40:51.082Z</time>
      </trkpt>
      <trkpt lat="48.44103" lon="7.10756">
        <ele>857</ele>
        <time>2019-05-15T10:40:52.082Z</time>
      </trkpt>
      <trkpt lat="48.44104" lon="7.10756">
        <ele>857</ele>
        <time>2019-05-15T10:40:53.082Z</time>
      </trkpt>
      <trkpt lat="48.44105" lon="7.10756">
        <ele>856</ele>
        <time>2019-05-15T10:40:54.082Z</time>
      </trkpt>
      <trkpt lat="48.44105" lon="7.10756">
        <ele>857</ele>
        <time>2019-05-15T10:40:55.082Z</time>
      </trkpt>
      <trkpt lat="48.44106" lon="7.10756">
        <ele>857</ele>
        <time>2019-05-15T10:40:56.082Z</time>
      </trkpt>
      <trkpt lat="48.44106" lon="7.10756">
        <ele>857</ele>
        <time>2019-05-15T10:40:57.082Z</time>
      </trkpt>
      <trkpt lat="48.44106" lon="7.10756">
        <ele>857</ele>
        <time>2019-05-15T10:40:58.082Z</time>
      </trkpt>
      <trkpt lat="48.44107" lon="7.10756">
        <ele>857</ele>
        <time>2019-05-15T10:40:59.082Z</time>
      </trkpt>
      <trkpt lat="48.44108" lon="7.10756">
        <ele>858</ele>
        <time>2019-05-15T10:41:00.082Z</time>
      </trkpt>
      <trkpt lat="48.44109" lon="7.10756">
        <ele>858</ele>
        <time>2019-05-15T10:41:01.082Z</time>
      </trkpt>
      <trkpt lat="48.4411" lon="7.10756">
        <ele>858</ele>
        <time>2019-05-15T10:41:02.082Z</time>
      </trkpt>
      <trkpt lat="48.44111" lon="7.10756">
        <ele>857</ele>
        <time>2019-05-15T10:41:03.082Z</time>
      </trkpt>
      <trkpt lat="48.44112" lon="7.10756">
        <ele>857</ele>
        <time>2019-05-15T10:41:04.082Z</time>
      </trkpt>
      <trkpt lat="48.44113" lon="7.10757">
        <ele>856</ele>
        <time>2019-05-15T10:41:05.082Z</time>
      </trkpt>
      <trkpt lat="48.44114" lon="7.10757">
        <ele>856</ele>
        <time>2019-05-15T10:41:06.082Z</time>
      </trkpt>
      <trkpt lat="48.44114" lon="7.10757">
        <ele>856</ele>
        <time>2019-05-15T10:41:07.082Z</time>
      </trkpt>
      <trkpt lat="48.44115" lon="7.10757">
        <ele>856</ele>
        <time>2019-05-15T10:41:08.082Z</time>
      </trkpt>
      <trkpt lat="48.44116" lon="7.10758">
        <ele>856</ele>
        <time>2019-05-15T10:41:09.082Z</time>
      </trkpt>
      <trkpt lat="48.44117" lon="7.10759">
        <ele>857</ele>
        <time>2019-05-15T10:41:10.082Z</time>
      </trkpt>
      <trkpt lat="48.44118" lon="7.10759">
        <ele>857</ele>
        <time>2019-05-15T10:41:11.082Z</time>
      </trkpt>
      <trkpt lat="48.44119" lon="7.1076">
        <ele>857</ele>
        <time>2019-05-15T10:41:12.082Z</time>
      </trkpt>
      <trkpt lat="48.44119" lon="7.1076">
        <ele>857</ele>
        <time>2019-05-15T10:41:13.082Z</time>
      </trkpt>
      <trkpt lat="48.4412" lon="7.10761">
        <ele>857</ele>
        <time>2019-05-15T10:41:14.082Z</time>
      </trkpt>
      <trkpt lat="48.4412" lon="7.10761">
        <ele>856</ele>
        <time>2019-05-15T10:41:15.082Z</time>
      </trkpt>
      <trkpt lat="48.44121" lon="7.10762">
        <ele>856</ele>
        <time>2019-05-15T10:41:16.082Z</time>
      </trkpt>
      <trkpt lat="48.44122" lon="7.10762">
        <ele>857</ele>
        <time>2019-05-15T10:41:17.082Z</time>
      </trkpt>
      <trkpt lat="48.44122" lon="7.10762">
        <ele>856</ele>
        <time>2019-05-15T10:41:18.082Z</time>
      </trkpt>
      <trkpt lat="48.44123" lon="7.10762">
        <ele>857</ele>
        <time>2019-05-15T10:41:19.082Z</time>
      </trkpt>
      <trkpt lat="48.44123" lon="7.10762">
        <ele>857</ele>
        <time>2019-05-15T10:41:20.082Z</time>
      </trkpt>
      <trkpt lat="48.44124" lon="7.10763">
        <ele>856</ele>
        <time>2019-05-15T10:41:21.082Z</time>
      </trkpt>
      <trkpt lat="48.44124" lon="7.10763">
        <ele>856</ele>
        <time>2019-05-15T10:41:22.082Z</time>
      </trkpt>
      <trkpt lat="48.44125" lon="7.10763">
        <ele>856</ele>
        <time>2019-05-15T10:41:23.082Z</time>
      </trkpt>
      <trkpt lat="48.44125" lon="7.10764">
        <ele>856</ele>
        <time>2019-05-15T10:41:24.082Z</time>
      </trkpt>
      <trkpt lat="48.44126" lon="7.10764">
        <ele>856</ele>
        <time>2019-05-15T10:41:25.082Z</time>
      </trkpt>
      <trkpt lat="48.44127" lon="7.10765">
        <ele>857</ele>
        <time>2019-05-15T10:41:26.082Z</time>
      </trkpt>
      <trkpt lat="48.44128" lon="7.10766">
        <ele>857</ele>
        <time>2019-05-15T10:41:27.082Z</time>
      </trkpt>
      <trkpt lat="48.44128" lon="7.10766">
        <ele>857</ele>
        <time>2019-05-15T10:41:28.082Z</time>
      </trkpt>
      <trkpt lat="48.44129" lon="7.10767">
        <ele>857</ele>
        <time>2019-05-15T10:41:29.082Z</time>
      </trkpt>
      <trkpt lat="48.4413" lon="7.10768">
        <ele>857</ele>
        <time>2019-05-15T10:41:30.082Z</time>
      </trkpt>
      <trkpt lat="48.44131" lon="7.10769">
        <ele>857</ele>
        <time>2019-05-15T10:41:31.082Z</time>
      </trkpt>
      <trkpt lat="48.44131" lon="7.1077">
        <ele>858</ele>
        <time>2019-05-15T10:41:32.082Z</time>
      </trkpt>
      <trkpt lat="48.44133" lon="7.1077">
        <ele>858</ele>
        <time>2019-05-15T10:41:33.082Z</time>
      </trkpt>
      <trkpt lat="48.44134" lon="7.10771">
        <ele>858</ele>
        <time>2019-05-15T10:41:34.082Z</time>
      </trkpt>
      <trkpt lat="48.44134" lon="7.10772">
        <ele>859</ele>
        <time>2019-05-15T10:41:35.082Z</time>
      </trkpt>
      <trkpt lat="48.44135" lon="7.10772">
        <ele>859</ele>
        <time>2019-05-15T10:41:36.082Z</time>
      </trkpt>
      <trkpt lat="48.44136" lon="7.10773">
        <ele>859</ele>
        <time>2019-05-15T10:41:37.082Z</time>
      </trkpt>
      <trkpt lat="48.44137" lon="7.10773">
        <ele>859</ele>
        <time>2019-05-15T10:41:38.082Z</time>
      </trkpt>
      <trkpt lat="48.44137" lon="7.10774">
        <ele>860</ele>
        <time>2019-05-15T10:41:39.082Z</time>
      </trkpt>
      <trkpt lat="48.44138" lon="7.10774">
        <ele>860</ele>
        <time>2019-05-15T10:41:40.082Z</time>
      </trkpt>
      <trkpt lat="48.44139" lon="7.10775">
        <ele>860</ele>
        <time>2019-05-15T10:41:41.082Z</time>
      </trkpt>
      <trkpt lat="48.44139" lon="7.10775">
        <ele>861</ele>
        <time>2019-05-15T10:41:42.082Z</time>
      </trkpt>
      <trkpt lat="48.4414" lon="7.10776">
        <ele>861</ele>
        <time>2019-05-15T10:41:43.082Z</time>
      </trkpt>
      <trkpt lat="48.44141" lon="7.10776">
        <ele>861</ele>
        <time>2019-05-15T10:41:44.082Z</time>
      </trkpt>
      <trkpt lat="48.44142" lon="7.10777">
        <ele>861</ele>
        <time>2019-05-15T10:41:45.082Z</time>
      </trkpt>
      <trkpt lat="48.44143" lon="7.10777">
        <ele>862</ele>
        <time>2019-05-15T10:41:46.082Z</time>
      </trkpt>
      <trkpt lat="48.44144" lon="7.10778">
        <ele>862</ele>
        <time>2019-05-15T10:41:47.082Z</time>
      </trkpt>
      <trkpt lat="48.44145" lon="7.10778">
        <ele>863</ele>
        <time>2019-05-15T10:41:48.082Z</time>
      </trkpt>
      <trkpt lat="48.44145" lon="7.10778">
        <ele>863</ele>
        <time>2019-05-15T10:41:49.082Z</time>
      </trkpt>
      <trkpt lat="48.44146" lon="7.10779">
        <ele>863</ele>
        <time>2019-05-15T10:41:50.082Z</time>
      </trkpt>
      <trkpt lat="48.44147" lon="7.10779">
        <ele>863</ele>
        <time>2019-05-15T10:41:51.082Z</time>
      </trkpt>
      <trkpt lat="48.44148" lon="7.10779">
        <ele>863</ele>
        <time>2019-05-15T10:41:52.082Z</time>
      </trkpt>
      <trkpt lat="48.44149" lon="7.1078">
        <ele>864</ele>
        <time>2019-05-15T10:41:53.082Z</time>
      </trkpt>
      <trkpt lat="48.4415" lon="7.10781">
        <ele>864</ele>
        <time>2019-05-15T10:41:54.082Z</time>
      </trkpt>
      <trkpt lat="48.4415" lon="7.10781">
        <ele>864</ele>
        <time>2019-05-15T10:41:55.082Z</time>
      </trkpt>
      <trkpt lat="48.44151" lon="7.10782">
        <ele>863</ele>
        <time>2019-05-15T10:41:56.082Z</time>
      </trkpt>
      <trkpt lat="48.44151" lon="7.10782">
        <ele>863</ele>
        <time>2019-05-15T10:41:57.082Z</time>
      </trkpt>
      <trkpt lat="48.44152" lon="7.10782">
        <ele>863</ele>
        <time>2019-05-15T10:41:58.082Z</time>
      </trkpt>
      <trkpt lat="48.44153" lon="7.10783">
        <ele>863</ele>
        <time>2019-05-15T10:41:59.082Z</time>
      </trkpt>
      <trkpt lat="48.44153" lon="7.10783">
        <ele>863</ele>
        <time>2019-05-15T10:42:00.082Z</time>
      </trkpt>
      <trkpt lat="48.44154" lon="7.10784">
        <ele>862</ele>
        <time>2019-05-15T10:42:01.082Z</time>
      </trkpt>
      <trkpt lat="48.44154" lon="7.10784">
        <ele>863</ele>
        <time>2019-05-15T10:42:02.082Z</time>
      </trkpt>
      <trkpt lat="48.44155" lon="7.10784">
        <ele>863</ele>
        <time>2019-05-15T10:42:03.082Z</time>
      </trkpt>
      <trkpt lat="48.44155" lon="7.10785">
        <ele>863</ele>
        <time>2019-05-15T10:42:04.082Z</time>
      </trkpt>
      <trkpt lat="48.44156" lon="7.10785">
        <ele>863</ele>
        <time>2019-05-15T10:42:05.082Z</time>
      </trkpt>
      <trkpt lat="48.44157" lon="7.10786">
        <ele>863</ele>
        <time>2019-05-15T10:42:06.082Z</time>
      </trkpt>
      <trkpt lat="48.44157" lon="7.10786">
        <ele>863</ele>
        <time>2019-05-15T10:42:07.082Z</time>
      </trkpt>
      <trkpt lat="48.44158" lon="7.10787">
        <ele>863</ele>
        <time>2019-05-15T10:42:08.082Z</time>
      </trkpt>
      <trkpt lat="48.44159" lon="7.10788">
        <ele>863</ele>
        <time>2019-05-15T10:42:09.082Z</time>
      </trkpt>
      <trkpt lat="48.44159" lon="7.10789">
        <ele>862</ele>
        <time>2019-05-15T10:42:10.082Z</time>
      </trkpt>
      <trkpt lat="48.4416" lon="7.1079">
        <ele>862</ele>
        <time>2019-05-15T10:42:11.082Z</time>
      </trkpt>
      <trkpt lat="48.44161" lon="7.10791">
        <ele>862</ele>
        <time>2019-05-15T10:42:12.082Z</time>
      </trkpt>
      <trkpt lat="48.44161" lon="7.10791">
        <ele>861</ele>
        <time>2019-05-15T10:42:13.082Z</time>
      </trkpt>
      <trkpt lat="48.44162" lon="7.10792">
        <ele>861</ele>
        <time>2019-05-15T10:42:14.082Z</time>
      </trkpt>
      <trkpt lat="48.44162" lon="7.10793">
        <ele>861</ele>
        <time>2019-05-15T10:42:15.082Z</time>
      </trkpt>
      <trkpt lat="48.44163" lon="7.10794">
        <ele>860</ele>
        <time>2019-05-15T10:42:16.082Z</time>
      </trkpt>
      <trkpt lat="48.44163" lon="7.10795">
        <ele>860</ele>
        <time>2019-05-15T10:42:17.082Z</time>
      </trkpt>
      <trkpt lat="48.44164" lon="7.10796">
        <ele>860</ele>
        <time>2019-05-15T10:42:18.082Z</time>
      </trkpt>
      <trkpt lat="48.44165" lon="7.10796">
        <ele>860</ele>
        <time>2019-05-15T10:42:19.082Z</time>
      </trkpt>
      <trkpt lat="48.44165" lon="7.10797">
        <ele>860</ele>
        <time>2019-05-15T10:42:20.082Z</time>
      </trkpt>
      <trkpt lat="48.44166" lon="7.10798">
        <ele>860</ele>
        <time>2019-05-15T10:42:21.082Z</time>
      </trkpt>
      <trkpt lat="48.44166" lon="7.10799">
        <ele>860</ele>
        <time>2019-05-15T10:42:22.082Z</time>
      </trkpt>
      <trkpt lat="48.44167" lon="7.108">
        <ele>860</ele>
        <time>2019-05-15T10:42:23.082Z</time>
      </trkpt>
      <trkpt lat="48.44168" lon="7.10801">
        <ele>860</ele>
        <time>2019-05-15T10:42:24.082Z</time>
      </trkpt>
      <trkpt lat="48.44168" lon="7.10802">
        <ele>860</ele>
        <time>2019-05-15T10:42:25.082Z</time>
      </trkpt>
      <trkpt lat="48.44169" lon="7.10803">
        <ele>860</ele>
        <time>2019-05-15T10:42:26.082Z</time>
      </trkpt>
      <trkpt lat="48.44169" lon="7.10803">
        <ele>861</ele>
        <time>2019-05-15T10:42:27.082Z</time>
      </trkpt>
      <trkpt lat="48.4417" lon="7.10804">
        <ele>861</ele>
        <time>2019-05-15T10:42:28.082Z</time>
      </trkpt>
      <trkpt lat="48.4417" lon="7.10805">
        <ele>862</ele>
        <time>2019-05-15T10:42:29.082Z</time>
      </trkpt>
      <trkpt lat="48.44171" lon="7.10806">
        <ele>862</ele>
        <time>2019-05-15T10:42:30.082Z</time>
      </trkpt>
      <trkpt lat="48.44171" lon="7.10806">
        <ele>863</ele>
        <time>2019-05-15T10:42:31.082Z</time>
      </trkpt>
      <trkpt lat="48.44172" lon="7.10807">
        <ele>863</ele>
        <time>2019-05-15T10:42:32.082Z</time>
      </trkpt>
      <trkpt lat="48.44173" lon="7.10808">
        <ele>863</ele>
        <time>2019-05-15T10:42:33.082Z</time>
      </trkpt>
      <trkpt lat="48.44173" lon="7.10809">
        <ele>863</ele>
        <time>2019-05-15T10:42:34.082Z</time>
      </trkpt>
      <trkpt lat="48.44174" lon="7.10809">
        <ele>862</ele>
        <time>2019-05-15T10:42:35.082Z</time>
      </trkpt>
      <trkpt lat="48.44174" lon="7.1081">
        <ele>862</ele>
        <time>2019-05-15T10:42:36.082Z</time>
      </trkpt>
      <trkpt lat="48.44175" lon="7.10811">
        <ele>862</ele>
        <time>2019-05-15T10:42:37.082Z</time>
      </trkpt>
      <trkpt lat="48.44176" lon="7.10811">
        <ele>862</ele>
        <time>2019-05-15T10:42:38.082Z</time>
      </trkpt>
      <trkpt lat="48.44177" lon="7.10811">
        <ele>862</ele>
        <time>2019-05-15T10:42:39.082Z</time>
      </trkpt>
      <trkpt lat="48.44178" lon="7.1081">
        <ele>862</ele>
        <time>2019-05-15T10:42:40.082Z</time>
      </trkpt>
      <trkpt lat="48.44178" lon="7.1081">
        <ele>862</ele>
        <time>2019-05-15T10:42:41.082Z</time>
      </trkpt>
      <trkpt lat="48.44179" lon="7.10811">
        <ele>862</ele>
        <time>2019-05-15T10:42:42.082Z</time>
      </trkpt>
      <trkpt lat="48.4418" lon="7.10811">
        <ele>862</ele>
        <time>2019-05-15T10:42:43.082Z</time>
      </trkpt>
      <trkpt lat="48.44181" lon="7.10811">
        <ele>863</ele>
        <time>2019-05-15T10:42:44.082Z</time>
      </trkpt>
      <trkpt lat="48.44182" lon="7.10811">
        <ele>863</ele>
        <time>2019-05-15T10:42:45.082Z</time>
      </trkpt>
      <trkpt lat="48.44182" lon="7.10812">
        <ele>863</ele>
        <time>2019-05-15T10:42:46.082Z</time>
      </trkpt>
      <trkpt lat="48.44183" lon="7.10812">
        <ele>863</ele>
        <time>2019-05-15T10:42:47.082Z</time>
      </trkpt>
      <trkpt lat="48.44184" lon="7.10812">
        <ele>863</ele>
        <time>2019-05-15T10:42:48.082Z</time>
      </trkpt>
      <trkpt lat="48.44185" lon="7.10812">
        <ele>864</ele>
        <time>2019-05-15T10:42:49.082Z</time>
      </trkpt>
      <trkpt lat="48.44185" lon="7.10813">
        <ele>863</ele>
        <time>2019-05-15T10:42:50.082Z</time>
      </trkpt>
      <trkpt lat="48.44186" lon="7.10813">
        <ele>864</ele>
        <time>2019-05-15T10:42:51.082Z</time>
      </trkpt>
      <trkpt lat="48.44187" lon="7.10813">
        <ele>864</ele>
        <time>2019-05-15T10:42:52.082Z</time>
      </trkpt>
      <trkpt lat="48.44187" lon="7.10814">
        <ele>863</ele>
        <time>2019-05-15T10:42:53.082Z</time>
      </trkpt>
      <trkpt lat="48.44188" lon="7.10815">
        <ele>863</ele>
        <time>2019-05-15T10:42:54.082Z</time>
      </trkpt>
      <trkpt lat="48.44188" lon="7.10816">
        <ele>862</ele>
        <time>2019-05-15T10:42:55.082Z</time>
      </trkpt>
      <trkpt lat="48.44189" lon="7.10817">
        <ele>862</ele>
        <time>2019-05-15T10:42:56.082Z</time>
      </trkpt>
      <trkpt lat="48.4419" lon="7.10818">
        <ele>862</ele>
        <time>2019-05-15T10:42:57.082Z</time>
      </trkpt>
      <trkpt lat="48.4419" lon="7.10819">
        <ele>862</ele>
        <time>2019-05-15T10:42:58.082Z</time>
      </trkpt>
      <trkpt lat="48.44191" lon="7.1082">
        <ele>862</ele>
        <time>2019-05-15T10:42:59.082Z</time>
      </trkpt>
      <trkpt lat="48.44192" lon="7.10821">
        <ele>862</ele>
        <time>2019-05-15T10:43:00.082Z</time>
      </trkpt>
      <trkpt lat="48.44193" lon="7.10821">
        <ele>862</ele>
        <time>2019-05-15T10:43:01.082Z</time>
      </trkpt>
      <trkpt lat="48.44193" lon="7.10822">
        <ele>862</ele>
        <time>2019-05-15T10:43:02.082Z</time>
      </trkpt>
      <trkpt lat="48.44194" lon="7.10823">
        <ele>862</ele>
        <time>2019-05-15T10:43:03.082Z</time>
      </trkpt>
      <trkpt lat="48.44195" lon="7.10824">
        <ele>861</ele>
        <time>2019-05-15T10:43:04.082Z</time>
      </trkpt>
      <trkpt lat="48.44196" lon="7.10826">
        <ele>861</ele>
        <time>2019-05-15T10:43:05.082Z</time>
      </trkpt>
      <trkpt lat="48.44196" lon="7.10827">
        <ele>861</ele>
        <time>2019-05-15T10:43:06.082Z</time>
      </trkpt>
      <trkpt lat="48.44197" lon="7.10829">
        <ele>861</ele>
        <time>2019-05-15T10:43:07.082Z</time>
      </trkpt>
      <trkpt lat="48.44197" lon="7.1083">
        <ele>860</ele>
        <time>2019-05-15T10:43:08.082Z</time>
      </trkpt>
      <trkpt lat="48.44197" lon="7.10832">
        <ele>859</ele>
        <time>2019-05-15T10:43:09.082Z</time>
      </trkpt>
      <trkpt lat="48.44198" lon="7.10833">
        <ele>859</ele>
        <time>2019-05-15T10:43:10.082Z</time>
      </trkpt>
      <trkpt lat="48.44199" lon="7.10834">
        <ele>859</ele>
        <time>2019-05-15T10:43:11.082Z</time>
      </trkpt>
      <trkpt lat="48.442" lon="7.10836">
        <ele>858</ele>
        <time>2019-05-15T10:43:12.082Z</time>
      </trkpt>
      <trkpt lat="48.442" lon="7.10837">
        <ele>858</ele>
        <time>2019-05-15T10:43:13.082Z</time>
      </trkpt>
      <trkpt lat="48.44201" lon="7.10838">
        <ele>858</ele>
        <time>2019-05-15T10:43:14.082Z</time>
      </trkpt>
      <trkpt lat="48.44202" lon="7.10839">
        <ele>859</ele>
        <time>2019-05-15T10:43:15.082Z</time>
      </trkpt>
      <trkpt lat="48.44203" lon="7.1084">
        <ele>859</ele>
        <time>2019-05-15T10:43:16.082Z</time>
      </trkpt>
      <trkpt lat="48.44203" lon="7.10841">
        <ele>859</ele>
        <time>2019-05-15T10:43:17.082Z</time>
      </trkpt>
      <trkpt lat="48.44204" lon="7.10842">
        <ele>859</ele>
        <time>2019-05-15T10:43:18.082Z</time>
      </trkpt>
      <trkpt lat="48.44205" lon="7.10843">
        <ele>859</ele>
        <time>2019-05-15T10:43:19.082Z</time>
      </trkpt>
      <trkpt lat="48.44205" lon="7.10844">
        <ele>860</ele>
        <time>2019-05-15T10:43:20.082Z</time>
      </trkpt>
      <trkpt lat="48.44205" lon="7.10845">
        <ele>860</ele>
        <time>2019-05-15T10:43:21.082Z</time>
      </trkpt>
      <trkpt lat="48.44206" lon="7.10845">
        <ele>860</ele>
        <time>2019-05-15T10:43:22.082Z</time>
      </trkpt>
      <trkpt lat="48.44206" lon="7.10846">
        <ele>860</ele>
        <time>2019-05-15T10:43:23.082Z</time>
      </trkpt>
      <trkpt lat="48.44206" lon="7.10847">
        <ele>860</ele>
        <time>2019-05-15T10:43:24.082Z</time>
      </trkpt>
      <trkpt lat="48.44207" lon="7.10847">
        <ele>860</ele>
        <time>2019-05-15T10:43:25.082Z</time>
      </trkpt>
      <trkpt lat="48.44207" lon="7.10848">
        <ele>860</ele>
        <time>2019-05-15T10:43:26.082Z</time>
      </trkpt>
      <trkpt lat="48.44208" lon="7.10848">
        <ele>860</ele>
        <time>2019-05-15T10:43:27.082Z</time>
      </trkpt>
      <trkpt lat="48.44209" lon="7.10849">
        <ele>860</ele>
        <time>2019-05-15T10:43:28.082Z</time>
      </trkpt>
      <trkpt lat="48.44209" lon="7.1085">
        <ele>861</ele>
        <time>2019-05-15T10:43:29.082Z</time>
      </trkpt>
      <trkpt lat="48.4421" lon="7.10851">
        <ele>861</ele>
        <time>2019-05-15T10:43:30.082Z</time>
      </trkpt>
      <trkpt lat="48.4421" lon="7.10852">
        <ele>861</ele>
        <time>2019-05-15T10:43:31.082Z</time>
      </trkpt>
      <trkpt lat="48.44211" lon="7.10853">
        <ele>861</ele>
        <time>2019-05-15T10:43:32.082Z</time>
      </trkpt>
      <trkpt lat="48.44211" lon="7.10854">
        <ele>861</ele>
        <time>2019-05-15T10:43:33.082Z</time>
      </trkpt>
      <trkpt lat="48.44212" lon="7.10855">
        <ele>861</ele>
        <time>2019-05-15T10:43:34.082Z</time>
      </trkpt>
      <trkpt lat="48.44212" lon="7.10856">
        <ele>861</ele>
        <time>2019-05-15T10:43:35.082Z</time>
      </trkpt>
      <trkpt lat="48.44213" lon="7.10857">
        <ele>861</ele>
        <time>2019-05-15T10:43:36.082Z</time>
      </trkpt>
      <trkpt lat="48.44213" lon="7.10857">
        <ele>861</ele>
        <time>2019-05-15T10:43:37.082Z</time>
      </trkpt>
      <trkpt lat="48.44214" lon="7.10858">
        <ele>860</ele>
        <time>2019-05-15T10:43:38.082Z</time>
      </trkpt>
      <trkpt lat="48.44215" lon="7.10859">
        <ele>860</ele>
        <time>2019-05-15T10:43:39.082Z</time>
      </trkpt>
      <trkpt lat="48.44215" lon="7.10859">
        <ele>860</ele>
        <time>2019-05-15T10:43:40.082Z</time>
      </trkpt>
      <trkpt lat="48.44216" lon="7.1086">
        <ele>860</ele>
        <time>2019-05-15T10:43:41.082Z</time>
      </trkpt>
      <trkpt lat="48.44216" lon="7.10861">
        <ele>860</ele>
        <time>2019-05-15T10:43:42.082Z</time>
      </trkpt>
      <trkpt lat="48.44217" lon="7.10862">
        <ele>860</ele>
        <time>2019-05-15T10:43:43.082Z</time>
      </trkpt>
      <trkpt lat="48.44218" lon="7.10863">
        <ele>860</ele>
        <time>2019-05-15T10:43:44.082Z</time>
      </trkpt>
      <trkpt lat="48.44218" lon="7.10864">
        <ele>859</ele>
        <time>2019-05-15T10:43:45.082Z</time>
      </trkpt>
      <trkpt lat="48.44219" lon="7.10865">
        <ele>859</ele>
        <time>2019-05-15T10:43:46.082Z</time>
      </trkpt>
      <trkpt lat="48.44219" lon="7.10867">
        <ele>859</ele>
        <time>2019-05-15T10:43:47.082Z</time>
      </trkpt>
      <trkpt lat="48.44219" lon="7.10868">
        <ele>859</ele>
        <time>2019-05-15T10:43:48.082Z</time>
      </trkpt>
      <trkpt lat="48.4422" lon="7.10869">
        <ele>859</ele>
        <time>2019-05-15T10:43:49.082Z</time>
      </trkpt>
      <trkpt lat="48.4422" lon="7.10869">
        <ele>859</ele>
        <time>2019-05-15T10:43:50.082Z</time>
      </trkpt>
      <trkpt lat="48.44221" lon="7.1087">
        <ele>859</ele>
        <time>2019-05-15T10:43:51.082Z</time>
      </trkpt>
      <trkpt lat="48.44221" lon="7.10871">
        <ele>860</ele>
        <time>2019-05-15T10:43:52.082Z</time>
      </trkpt>
      <trkpt lat="48.44222" lon="7.10871">
        <ele>859</ele>
        <time>2019-05-15T10:43:53.082Z</time>
      </trkpt>
      <trkpt lat="48.44223" lon="7.10872">
        <ele>859</ele>
        <time>2019-05-15T10:43:54.082Z</time>
      </trkpt>
      <trkpt lat="48.44223" lon="7.10873">
        <ele>858</ele>
        <time>2019-05-15T10:43:55.082Z</time>
      </trkpt>
      <trkpt lat="48.44224" lon="7.10874">
        <ele>858</ele>
        <time>2019-05-15T10:43:56.082Z</time>
      </trkpt>
      <trkpt lat="48.44225" lon="7.10875">
        <ele>858</ele>
        <time>2019-05-15T10:43:57.082Z</time>
      </trkpt>
      <trkpt lat="48.44225" lon="7.10875">
        <ele>858</ele>
        <time>2019-05-15T10:43:58.082Z</time>
      </trkpt>
      <trkpt lat="48.44226" lon="7.10876">
        <ele>858</ele>
        <time>2019-05-15T10:43:59.082Z</time>
      </trkpt>
      <trkpt lat="48.44227" lon="7.10877">
        <ele>859</ele>
        <time>2019-05-15T10:44:00.082Z</time>
      </trkpt>
      <trkpt lat="48.44228" lon="7.10878">
        <ele>859</ele>
        <time>2019-05-15T10:44:01.082Z</time>
      </trkpt>
      <trkpt lat="48.44228" lon="7.10879">
        <ele>859</ele>
        <time>2019-05-15T10:44:02.082Z</time>
      </trkpt>
      <trkpt lat="48.44228" lon="7.10879">
        <ele>858</ele>
        <time>2019-05-15T10:44:03.082Z</time>
      </trkpt>
      <trkpt lat="48.44228" lon="7.1088">
        <ele>858</ele>
        <time>2019-05-15T10:44:04.082Z</time>
      </trkpt>
      <trkpt lat="48.44229" lon="7.1088">
        <ele>857</ele>
        <time>2019-05-15T10:44:05.082Z</time>
      </trkpt>
      <trkpt lat="48.44229" lon="7.10881">
        <ele>856</ele>
        <time>2019-05-15T10:44:06.082Z</time>
      </trkpt>
      <trkpt lat="48.44229" lon="7.10882">
        <ele>857</ele>
        <time>2019-05-15T10:44:07.082Z</time>
      </trkpt>
      <trkpt lat="48.4423" lon="7.10883">
        <ele>857</ele>
        <time>2019-05-15T10:44:08.082Z</time>
      </trkpt>
      <trkpt lat="48.4423" lon="7.10884">
        <ele>857</ele>
        <time>2019-05-15T10:44:09.082Z</time>
      </trkpt>
      <trkpt lat="48.44231" lon="7.10884">
        <ele>857</ele>
        <time>2019-05-15T10:44:10.082Z</time>
      </trkpt>
      <trkpt lat="48.44231" lon="7.10885">
        <ele>858</ele>
        <time>2019-05-15T10:44:11.082Z</time>
      </trkpt>
      <trkpt lat="48.44232" lon="7.10885">
        <ele>858</ele>
        <time>2019-05-15T10:44:12.082Z</time>
      </trkpt>
      <trkpt lat="48.44232" lon="7.10885">
        <ele>858</ele>
        <time>2019-05-15T10:44:13.082Z</time>
      </trkpt>
      <trkpt lat="48.44233" lon="7.10885">
        <ele>858</ele>
        <time>2019-05-15T10:44:14.082Z</time>
      </trkpt>
      <trkpt lat="48.44234" lon="7.10886">
        <ele>858</ele>
        <time>2019-05-15T10:44:15.082Z</time>
      </trkpt>
      <trkpt lat="48.44235" lon="7.10886">
        <ele>858</ele>
        <time>2019-05-15T10:44:16.082Z</time>
      </trkpt>
      <trkpt lat="48.44236" lon="7.10887">
        <ele>859</ele>
        <time>2019-05-15T10:44:17.082Z</time>
      </trkpt>
      <trkpt lat="48.44237" lon="7.10888">
        <ele>859</ele>
        <time>2019-05-15T10:44:18.082Z</time>
      </trkpt>
      <trkpt lat="48.44237" lon="7.10888">
        <ele>859</ele>
        <time>2019-05-15T10:44:19.082Z</time>
      </trkpt>
      <trkpt lat="48.44238" lon="7.10889">
        <ele>860</ele>
        <time>2019-05-15T10:44:20.082Z</time>
      </trkpt>
      <trkpt lat="48.44238" lon="7.10889">
        <ele>860</ele>
        <time>2019-05-15T10:44:21.082Z</time>
      </trkpt>
      <trkpt lat="48.44239" lon="7.1089">
        <ele>860</ele>
        <time>2019-05-15T10:44:22.082Z</time>
      </trkpt>
      <trkpt lat="48.44239" lon="7.1089">
        <ele>861</ele>
        <time>2019-05-15T10:44:23.082Z</time>
      </trkpt>
      <trkpt lat="48.44239" lon="7.1089">
        <ele>861</ele>
        <time>2019-05-15T10:44:24.082Z</time>
      </trkpt>
      <trkpt lat="48.4424" lon="7.1089">
        <ele>861</ele>
        <time>2019-05-15T10:44:25.082Z</time>
      </trkpt>
      <trkpt lat="48.4424" lon="7.1089">
        <ele>862</ele>
        <time>2019-05-15T10:44:26.082Z</time>
      </trkpt>
      <trkpt lat="48.44241" lon="7.1089">
        <ele>861</ele>
        <time>2019-05-15T10:44:27.082Z</time>
      </trkpt>
      <trkpt lat="48.44241" lon="7.1089">
        <ele>862</ele>
        <time>2019-05-15T10:44:28.082Z</time>
      </trkpt>
      <trkpt lat="48.44242" lon="7.10891">
        <ele>863</ele>
        <time>2019-05-15T10:44:29.082Z</time>
      </trkpt>
      <trkpt lat="48.44243" lon="7.10891">
        <ele>863</ele>
        <time>2019-05-15T10:44:30.082Z</time>
      </trkpt>
      <trkpt lat="48.44244" lon="7.10891">
        <ele>863</ele>
        <time>2019-05-15T10:44:31.082Z</time>
      </trkpt>
      <trkpt lat="48.44244" lon="7.10891">
        <ele>864</ele>
        <time>2019-05-15T10:44:32.082Z</time>
      </trkpt>
      <trkpt lat="48.44244" lon="7.10892">
        <ele>863</ele>
        <time>2019-05-15T10:44:33.082Z</time>
      </trkpt>
      <trkpt lat="48.44245" lon="7.10892">
        <ele>864</ele>
        <time>2019-05-15T10:44:34.082Z</time>
      </trkpt>
      <trkpt lat="48.44246" lon="7.10893">
        <ele>863</ele>
        <time>2019-05-15T10:44:35.082Z</time>
      </trkpt>
      <trkpt lat="48.44246" lon="7.10893">
        <ele>864</ele>
        <time>2019-05-15T10:44:36.082Z</time>
      </trkpt>
      <trkpt lat="48.44247" lon="7.10894">
        <ele>864</ele>
        <time>2019-05-15T10:44:37.082Z</time>
      </trkpt>
      <trkpt lat="48.44247" lon="7.10894">
        <ele>865</ele>
        <time>2019-05-15T10:44:38.082Z</time>
      </trkpt>
      <trkpt lat="48.44248" lon="7.10895">
        <ele>865</ele>
        <time>2019-05-15T10:44:39.082Z</time>
      </trkpt>
      <trkpt lat="48.44249" lon="7.10896">
        <ele>864</ele>
        <time>2019-05-15T10:44:40.082Z</time>
      </trkpt>
      <trkpt lat="48.44249" lon="7.10896">
        <ele>865</ele>
        <time>2019-05-15T10:44:41.082Z</time>
      </trkpt>
      <trkpt lat="48.4425" lon="7.10897">
        <ele>865</ele>
        <time>2019-05-15T10:44:42.082Z</time>
      </trkpt>
      <trkpt lat="48.4425" lon="7.10897">
        <ele>865</ele>
        <time>2019-05-15T10:44:43.082Z</time>
      </trkpt>
      <trkpt lat="48.44251" lon="7.10898">
        <ele>865</ele>
        <time>2019-05-15T10:44:44.082Z</time>
      </trkpt>
      <trkpt lat="48.44251" lon="7.10898">
        <ele>865</ele>
        <time>2019-05-15T10:44:45.082Z</time>
      </trkpt>
      <trkpt lat="48.44251" lon="7.10899">
        <ele>864</ele>
        <time>2019-05-15T10:44:46.082Z</time>
      </trkpt>
      <trkpt lat="48.44252" lon="7.10899">
        <ele>864</ele>
        <time>2019-05-15T10:44:47.082Z</time>
      </trkpt>
      <trkpt lat="48.44252" lon="7.10899">
        <ele>864</ele>
        <time>2019-05-15T10:44:48.082Z</time>
      </trkpt>
      <trkpt lat="48.44253" lon="7.109">
        <ele>864</ele>
        <time>2019-05-15T10:44:49.082Z</time>
      </trkpt>
      <trkpt lat="48.44253" lon="7.109">
        <ele>864</ele>
        <time>2019-05-15T10:44:50.082Z</time>
      </trkpt>
      <trkpt lat="48.44253" lon="7.109">
        <ele>864</ele>
        <time>2019-05-15T10:44:51.082Z</time>
      </trkpt>
      <trkpt lat="48.44254" lon="7.10901">
        <ele>864</ele>
        <time>2019-05-15T10:44:52.082Z</time>
      </trkpt>
      <trkpt lat="48.44255" lon="7.10902">
        <ele>864</ele>
        <time>2019-05-15T10:44:53.082Z</time>
      </trkpt>
      <trkpt lat="48.44255" lon="7.10902">
        <ele>864</ele>
        <time>2019-05-15T10:44:54.082Z</time>
      </trkpt>
      <trkpt lat="48.44256" lon="7.10903">
        <ele>864</ele>
        <time>2019-05-15T10:44:55.082Z</time>
      </trkpt>
      <trkpt lat="48.44256" lon="7.10903">
        <ele>864</ele>
        <time>2019-05-15T10:44:56.082Z</time>
      </trkpt>
      <trkpt lat="48.44257" lon="7.10903">
        <ele>865</ele>
        <time>2019-05-15T10:44:57.082Z</time>
      </trkpt>
      <trkpt lat="48.44258" lon="7.10903">
        <ele>865</ele>
        <time>2019-05-15T10:44:58.082Z</time>
      </trkpt>
      <trkpt lat="48.44258" lon="7.10903">
        <ele>865</ele>
        <time>2019-05-15T10:44:59.082Z</time>
      </trkpt>
      <trkpt lat="48.44259" lon="7.10903">
        <ele>865</ele>
        <time>2019-05-15T10:45:00.082Z</time>
      </trkpt>
      <trkpt lat="48.44259" lon="7.10902">
        <ele>865</ele>
        <time>2019-05-15T10:45:01.082Z</time>
      </trkpt>
      <trkpt lat="48.4426" lon="7.10902">
        <ele>865</ele>
        <time>2019-05-15T10:45:02.082Z</time>
      </trkpt>
      <trkpt lat="48.44261" lon="7.10902">
        <ele>866</ele>
        <time>2019-05-15T10:45:03.082Z</time>
      </trkpt>
      <trkpt lat="48.44261" lon="7.10902">
        <ele>866</ele>
        <time>2019-05-15T10:45:04.082Z</time>
      </trkpt>
      <trkpt lat="48.44262" lon="7.10902">
        <ele>866</ele>
        <time>2019-05-15T10:45:05.082Z</time>
      </trkpt>
      <trkpt lat="48.44263" lon="7.10902">
        <ele>866</ele>
        <time>2019-05-15T10:45:06.082Z</time>
      </trkpt>
      <trkpt lat="48.44263" lon="7.10902">
        <ele>866</ele>
        <time>2019-05-15T10:45:07.082Z</time>
      </trkpt>
      <trkpt lat="48.44264" lon="7.10901">
        <ele>867</ele>
        <time>2019-05-15T10:45:08.082Z</time>
      </trkpt>
      <trkpt lat="48.44265" lon="7.10901">
        <ele>867</ele>
        <time>2019-05-15T10:45:09.082Z</time>
      </trkpt>
      <trkpt lat="48.44265" lon="7.10901">
        <ele>867</ele>
        <time>2019-05-15T10:45:10.082Z</time>
      </trkpt>
      <trkpt lat="48.44266" lon="7.10901">
        <ele>867</ele>
        <time>2019-05-15T10:45:11.082Z</time>
      </trkpt>
      <trkpt lat="48.44266" lon="7.109">
        <ele>867</ele>
        <time>2019-05-15T10:45:12.082Z</time>
      </trkpt>
      <trkpt lat="48.44267" lon="7.109">
        <ele>867</ele>
        <time>2019-05-15T10:45:13.082Z</time>
      </trkpt>
      <trkpt lat="48.44268" lon="7.109">
        <ele>867</ele>
        <time>2019-05-15T10:45:14.082Z</time>
      </trkpt>
      <trkpt lat="48.44268" lon="7.109">
        <ele>867</ele>
        <time>2019-05-15T10:45:15.082Z</time>
      </trkpt>
      <trkpt lat="48.44269" lon="7.109">
        <ele>867</ele>
        <time>2019-05-15T10:45:16.082Z</time>
      </trkpt>
      <trkpt lat="48.4427" lon="7.109">
        <ele>867</ele>
        <time>2019-05-15T10:45:17.082Z</time>
      </trkpt>
      <trkpt lat="48.44271" lon="7.10899">
        <ele>867</ele>
        <time>2019-05-15T10:45:18.082Z</time>
      </trkpt>
      <trkpt lat="48.44272" lon="7.10899">
        <ele>867</ele>
        <time>2019-05-15T10:45:19.082Z</time>
      </trkpt>
      <trkpt lat="48.44273" lon="7.10899">
        <ele>868</ele>
        <time>2019-05-15T10:45:20.082Z</time>
      </trkpt>
      <trkpt lat="48.44273" lon="7.10899">
        <ele>868</ele>
        <time>2019-05-15T10:45:21.082Z</time>
      </trkpt>
      <trkpt lat="48.44274" lon="7.10898">
        <ele>867</ele>
        <time>2019-05-15T10:45:22.082Z</time>
      </trkpt>
      <trkpt lat="48.44275" lon="7.10898">
        <ele>867</ele>
        <time>2019-05-15T10:45:23.082Z</time>
      </trkpt>
      <trkpt lat="48.44276" lon="7.10898">
        <ele>867</ele>
        <time>2019-05-15T10:45:24.082Z</time>
      </trkpt>
      <trkpt lat="48.44277" lon="7.10898">
        <ele>868</ele>
        <time>2019-05-15T10:45:25.082Z</time>
      </trkpt>
      <trkpt lat="48.44277" lon="7.10898">
        <ele>868</ele>
        <time>2019-05-15T10:45:26.082Z</time>
      </trkpt>
      <trkpt lat="48.44278" lon="7.10897">
        <ele>868</ele>
        <time>2019-05-15T10:45:27.082Z</time>
      </trkpt>
      <trkpt lat="48.44279" lon="7.10897">
        <ele>868</ele>
        <time>2019-05-15T10:45:28.082Z</time>
      </trkpt>
      <trkpt lat="48.44279" lon="7.10897">
        <ele>868</ele>
        <time>2019-05-15T10:45:29.082Z</time>
      </trkpt>
      <trkpt lat="48.4428" lon="7.10897">
        <ele>868</ele>
        <time>2019-05-15T10:45:30.082Z</time>
      </trkpt>
      <trkpt lat="48.44281" lon="7.10897">
        <ele>868</ele>
        <time>2019-05-15T10:45:31.082Z</time>
      </trkpt>
      <trkpt lat="48.44281" lon="7.10897">
        <ele>868</ele>
        <time>2019-05-15T10:45:32.082Z</time>
      </trkpt>
      <trkpt lat="48.44282" lon="7.10897">
        <ele>868</ele>
        <time>2019-05-15T10:45:33.082Z</time>
      </trkpt>
      <trkpt lat="48.44283" lon="7.10897">
        <ele>868</ele>
        <time>2019-05-15T10:45:34.082Z</time>
      </trkpt>
      <trkpt lat="48.44283" lon="7.10897">
        <ele>868</ele>
        <time>2019-05-15T10:45:35.082Z</time>
      </trkpt>
      <trkpt lat="48.44284" lon="7.10897">
        <ele>867</ele>
        <time>2019-05-15T10:45:36.082Z</time>
      </trkpt>
      <trkpt lat="48.44285" lon="7.10897">
        <ele>867</ele>
        <time>2019-05-15T10:45:37.082Z</time>
      </trkpt>
      <trkpt lat="48.44285" lon="7.10897">
        <ele>868</ele>
        <time>2019-05-15T10:45:38.082Z</time>
      </trkpt>
      <trkpt lat="48.44286" lon="7.10897">
        <ele>868</ele>
        <time>2019-05-15T10:45:39.082Z</time>
      </trkpt>
      <trkpt lat="48.44287" lon="7.10897">
        <ele>868</ele>
        <time>2019-05-15T10:45:40.082Z</time>
      </trkpt>
      <trkpt lat="48.44287" lon="7.10898">
        <ele>868</ele>
        <time>2019-05-15T10:45:41.082Z</time>
      </trkpt>
      <trkpt lat="48.44288" lon="7.10898">
        <ele>868</ele>
        <time>2019-05-15T10:45:42.082Z</time>
      </trkpt>
      <trkpt lat="48.44289" lon="7.10898">
        <ele>868</ele>
        <time>2019-05-15T10:45:43.082Z</time>
      </trkpt>
      <trkpt lat="48.44289" lon="7.10897">
        <ele>868</ele>
        <time>2019-05-15T10:45:44.082Z</time>
      </trkpt>
      <trkpt lat="48.4429" lon="7.10897">
        <ele>868</ele>
        <time>2019-05-15T10:45:45.082Z</time>
      </trkpt>
      <trkpt lat="48.44291" lon="7.10897">
        <ele>868</ele>
        <time>2019-05-15T10:45:46.082Z</time>
      </trkpt>
      <trkpt lat="48.44291" lon="7.10897">
        <ele>869</ele>
        <time>2019-05-15T10:45:47.082Z</time>
      </trkpt>
      <trkpt lat="48.44292" lon="7.10897">
        <ele>868</ele>
        <time>2019-05-15T10:45:48.082Z</time>
      </trkpt>
      <trkpt lat="48.44293" lon="7.10897">
        <ele>868</ele>
        <time>2019-05-15T10:45:49.082Z</time>
      </trkpt>
      <trkpt lat="48.44294" lon="7.10897">
        <ele>868</ele>
        <time>2019-05-15T10:45:50.082Z</time>
      </trkpt>
      <trkpt lat="48.44294" lon="7.10897">
        <ele>869</ele>
        <time>2019-05-15T10:45:51.082Z</time>
      </trkpt>
      <trkpt lat="48.44295" lon="7.10897">
        <ele>868</ele>
        <time>2019-05-15T10:45:52.082Z</time>
      </trkpt>
      <trkpt lat="48.44296" lon="7.10896">
        <ele>869</ele>
        <time>2019-05-15T10:45:53.082Z</time>
      </trkpt>
      <trkpt lat="48.44296" lon="7.10896">
        <ele>869</ele>
        <time>2019-05-15T10:45:54.082Z</time>
      </trkpt>
      <trkpt lat="48.44297" lon="7.10896">
        <ele>869</ele>
        <time>2019-05-15T10:45:55.082Z</time>
      </trkpt>
      <trkpt lat="48.44297" lon="7.10896">
        <ele>869</ele>
        <time>2019-05-15T10:45:56.082Z</time>
      </trkpt>
      <trkpt lat="48.44298" lon="7.10896">
        <ele>869</ele>
        <time>2019-05-15T10:45:57.082Z</time>
      </trkpt>
      <trkpt lat="48.44299" lon="7.10896">
        <ele>869</ele>
        <time>2019-05-15T10:45:58.082Z</time>
      </trkpt>
      <trkpt lat="48.44299" lon="7.10895">
        <ele>869</ele>
        <time>2019-05-15T10:45:59.082Z</time>
      </trkpt>
      <trkpt lat="48.443" lon="7.10895">
        <ele>869</ele>
        <time>2019-05-15T10:46:00.082Z</time>
      </trkpt>
      <trkpt lat="48.44301" lon="7.10895">
        <ele>869</ele>
        <time>2019-05-15T10:46:01.082Z</time>
      </trkpt>
      <trkpt lat="48.44301" lon="7.10895">
        <ele>869</ele>
        <time>2019-05-15T10:46:02.082Z</time>
      </trkpt>
      <trkpt lat="48.44301" lon="7.10894">
        <ele>870</ele>
        <time>2019-05-15T10:46:03.082Z</time>
      </trkpt>
      <trkpt lat="48.44302" lon="7.10894">
        <ele>869</ele>
        <time>2019-05-15T10:46:04.082Z</time>
      </trkpt>
      <trkpt lat="48.44302" lon="7.10893">
        <ele>870</ele>
        <time>2019-05-15T10:46:05.082Z</time>
      </trkpt>
      <trkpt lat="48.44302" lon="7.10893">
        <ele>870</ele>
        <time>2019-05-15T10:46:06.082Z</time>
      </trkpt>
      <trkpt lat="48.44303" lon="7.10892">
        <ele>870</ele>
        <time>2019-05-15T10:46:07.082Z</time>
      </trkpt>
      <trkpt lat="48.44303" lon="7.10892">
        <ele>870</ele>
        <time>2019-05-15T10:46:08.082Z</time>
      </trkpt>
      <trkpt lat="48.44304" lon="7.10892">
        <ele>869</ele>
        <time>2019-05-15T10:46:09.082Z</time>
      </trkpt>
      <trkpt lat="48.44305" lon="7.10893">
        <ele>868</ele>
        <time>2019-05-15T10:46:10.082Z</time>
      </trkpt>
      <trkpt lat="48.44305" lon="7.10893">
        <ele>868</ele>
        <time>2019-05-15T10:46:11.082Z</time>
      </trkpt>
      <trkpt lat="48.44306" lon="7.10893">
        <ele>868</ele>
        <time>2019-05-15T10:46:12.082Z</time>
      </trkpt>
      <trkpt lat="48.44306" lon="7.10893">
        <ele>868</ele>
        <time>2019-05-15T10:46:13.082Z</time>
      </trkpt>
      <trkpt lat="48.44306" lon="7.10893">
        <ele>868</ele>
        <time>2019-05-15T10:46:14.082Z</time>
      </trkpt>
      <trkpt lat="48.44306" lon="7.10893">
        <ele>868</ele>
        <time>2019-05-15T10:46:15.082Z</time>
      </trkpt>
      <trkpt lat="48.44306" lon="7.10893">
        <ele>868</ele>
        <time>2019-05-15T10:46:16.082Z</time>
      </trkpt>
      <trkpt lat="48.44306" lon="7.10893">
        <ele>868</ele>
        <time>2019-05-15T10:46:17.082Z</time>
      </trkpt>
      <trkpt lat="48.44306" lon="7.10893">
        <ele>868</ele>
        <time>2019-05-15T10:46:18.082Z</time>
      </trkpt>
      <trkpt lat="48.44306" lon="7.10893">
        <ele>868</ele>
        <time>2019-05-15T10:46:19.082Z</time>
      </trkpt>
      <trkpt lat="48.44306" lon="7.10893">
        <ele>868</ele>
        <time>2019-05-15T10:46:20.082Z</time>
      </trkpt>
      <trkpt lat="48.44306" lon="7.10893">
        <ele>868</ele>
        <time>2019-05-15T10:46:21.082Z</time>
      </trkpt>
      <trkpt lat="48.44306" lon="7.10894">
        <ele>868</ele>
        <time>2019-05-15T10:46:22.082Z</time>
      </trkpt>
      <trkpt lat="48.44306" lon="7.10894">
        <ele>869</ele>
        <time>2019-05-15T10:46:23.082Z</time>
      </trkpt>
      <trkpt lat="48.44306" lon="7.10894">
        <ele>869</ele>
        <time>2019-05-15T10:46:24.082Z</time>
      </trkpt>
      <trkpt lat="48.44306" lon="7.10894">
        <ele>869</ele>
        <time>2019-05-15T10:46:25.082Z</time>
      </trkpt>
      <trkpt lat="48.44306" lon="7.10894">
        <ele>869</ele>
        <time>2019-05-15T10:46:26.082Z</time>
      </trkpt>
      <trkpt lat="48.44305" lon="7.10894">
        <ele>869</ele>
        <time>2019-05-15T10:46:27.082Z</time>
      </trkpt>
      <trkpt lat="48.44305" lon="7.10895">
        <ele>869</ele>
        <time>2019-05-15T10:46:28.082Z</time>
      </trkpt>
      <trkpt lat="48.44305" lon="7.10895">
        <ele>869</ele>
        <time>2019-05-15T10:46:29.082Z</time>
      </trkpt>
      <trkpt lat="48.44305" lon="7.10895">
        <ele>870</ele>
        <time>2019-05-15T10:46:30.082Z</time>
      </trkpt>
      <trkpt lat="48.44305" lon="7.10895">
        <ele>869</ele>
        <time>2019-05-15T10:46:31.082Z</time>
      </trkpt>
      <trkpt lat="48.44305" lon="7.10895">
        <ele>870</ele>
        <time>2019-05-15T10:46:32.082Z</time>
      </trkpt>
      <trkpt lat="48.44305" lon="7.10895">
        <ele>870</ele>
        <time>2019-05-15T10:46:33.082Z</time>
      </trkpt>
      <trkpt lat="48.44305" lon="7.10895">
        <ele>870</ele>
        <time>2019-05-15T10:46:34.082Z</time>
      </trkpt>
      <trkpt lat="48.44305" lon="7.10895">
        <ele>869</ele>
        <time>2019-05-15T10:46:35.082Z</time>
      </trkpt>
      <trkpt lat="48.44306" lon="7.10895">
        <ele>869</ele>
        <time>2019-05-15T10:46:36.082Z</time>
      </trkpt>
      <trkpt lat="48.44306" lon="7.10895">
        <ele>869</ele>
        <time>2019-05-15T10:46:37.082Z</time>
      </trkpt>
      <trkpt lat="48.44306" lon="7.10895">
        <ele>869</ele>
        <time>2019-05-15T10:46:38.082Z</time>
      </trkpt>
      <trkpt lat="48.44306" lon="7.10895">
        <ele>869</ele>
        <time>2019-05-15T10:46:39.082Z</time>
      </trkpt>
      <trkpt lat="48.44306" lon="7.10895">
        <ele>869</ele>
        <time>2019-05-15T10:46:40.082Z</time>
      </trkpt>
      <trkpt lat="48.44307" lon="7.10895">
        <ele>868</ele>
        <time>2019-05-15T10:46:41.082Z</time>
      </trkpt>
      <trkpt lat="48.44307" lon="7.10895">
        <ele>868</ele>
        <time>2019-05-15T10:46:42.082Z</time>
      </trkpt>
      <trkpt lat="48.44307" lon="7.10895">
        <ele>868</ele>
        <time>2019-05-15T10:46:43.082Z</time>
      </trkpt>
      <trkpt lat="48.44307" lon="7.10896">
        <ele>868</ele>
        <time>2019-05-15T10:46:44.082Z</time>
      </trkpt>
      <trkpt lat="48.44307" lon="7.10896">
        <ele>868</ele>
        <time>2019-05-15T10:46:45.082Z</time>
      </trkpt>
      <trkpt lat="48.44308" lon="7.10896">
        <ele>868</ele>
        <time>2019-05-15T10:46:46.082Z</time>
      </trkpt>
      <trkpt lat="48.44308" lon="7.10897">
        <ele>868</ele>
        <time>2019-05-15T10:46:47.082Z</time>
      </trkpt>
      <trkpt lat="48.44308" lon="7.10897">
        <ele>868</ele>
        <time>2019-05-15T10:46:48.082Z</time>
      </trkpt>
      <trkpt lat="48.44309" lon="7.10898">
        <ele>868</ele>
        <time>2019-05-15T10:46:49.082Z</time>
      </trkpt>
      <trkpt lat="48.44309" lon="7.10899">
        <ele>868</ele>
        <time>2019-05-15T10:46:50.082Z</time>
      </trkpt>
      <trkpt lat="48.44309" lon="7.109">
        <ele>869</ele>
        <time>2019-05-15T10:46:51.082Z</time>
      </trkpt>
      <trkpt lat="48.4431" lon="7.109">
        <ele>869</ele>
        <time>2019-05-15T10:46:52.082Z</time>
      </trkpt>
      <trkpt lat="48.4431" lon="7.10901">
        <ele>868</ele>
        <time>2019-05-15T10:46:53.082Z</time>
      </trkpt>
      <trkpt lat="48.4431" lon="7.10902">
        <ele>868</ele>
        <time>2019-05-15T10:46:54.082Z</time>
      </trkpt>
      <trkpt lat="48.44311" lon="7.10903">
        <ele>868</ele>
        <time>2019-05-15T10:46:55.082Z</time>
      </trkpt>
      <trkpt lat="48.44312" lon="7.10903">
        <ele>868</ele>
        <time>2019-05-15T10:46:56.082Z</time>
      </trkpt>
      <trkpt lat="48.44312" lon="7.10904">
        <ele>868</ele>
        <time>2019-05-15T10:46:57.082Z</time>
      </trkpt>
      <trkpt lat="48.44313" lon="7.10905">
        <ele>868</ele>
        <time>2019-05-15T10:46:58.082Z</time>
      </trkpt>
      <trkpt lat="48.44314" lon="7.10906">
        <ele>867</ele>
        <time>2019-05-15T10:46:59.082Z</time>
      </trkpt>
      <trkpt lat="48.44314" lon="7.10907">
        <ele>867</ele>
        <time>2019-05-15T10:47:00.082Z</time>
      </trkpt>
      <trkpt lat="48.44315" lon="7.10907">
        <ele>867</ele>
        <time>2019-05-15T10:47:01.082Z</time>
      </trkpt>
      <trkpt lat="48.44316" lon="7.10908">
        <ele>867</ele>
        <time>2019-05-15T10:47:02.082Z</time>
      </trkpt>
      <trkpt lat="48.44316" lon="7.10909">
        <ele>867</ele>
        <time>2019-05-15T10:47:03.082Z</time>
      </trkpt>
      <trkpt lat="48.44317" lon="7.1091">
        <ele>868</ele>
        <time>2019-05-15T10:47:04.082Z</time>
      </trkpt>
      <trkpt lat="48.44317" lon="7.10911">
        <ele>868</ele>
        <time>2019-05-15T10:47:05.082Z</time>
      </trkpt>
      <trkpt lat="48.44318" lon="7.10912">
        <ele>867</ele>
        <time>2019-05-15T10:47:06.082Z</time>
      </trkpt>
      <trkpt lat="48.44319" lon="7.10913">
        <ele>867</ele>
        <time>2019-05-15T10:47:07.082Z</time>
      </trkpt>
      <trkpt lat="48.4432" lon="7.10914">
        <ele>867</ele>
        <time>2019-05-15T10:47:08.082Z</time>
      </trkpt>
      <trkpt lat="48.4432" lon="7.10914">
        <ele>867</ele>
        <time>2019-05-15T10:47:09.082Z</time>
      </trkpt>
      <trkpt lat="48.44321" lon="7.10915">
        <ele>867</ele>
        <time>2019-05-15T10:47:10.082Z</time>
      </trkpt>
      <trkpt lat="48.44322" lon="7.10916">
        <ele>867</ele>
        <time>2019-05-15T10:47:11.082Z</time>
      </trkpt>
      <trkpt lat="48.44323" lon="7.10917">
        <ele>867</ele>
        <time>2019-05-15T10:47:12.082Z</time>
      </trkpt>
      <trkpt lat="48.44323" lon="7.10918">
        <ele>867</ele>
        <time>2019-05-15T10:47:13.082Z</time>
      </trkpt>
      <trkpt lat="48.44324" lon="7.10919">
        <ele>867</ele>
        <time>2019-05-15T10:47:14.082Z</time>
      </trkpt>
      <trkpt lat="48.44325" lon="7.10919">
        <ele>867</ele>
        <time>2019-05-15T10:47:15.082Z</time>
      </trkpt>
      <trkpt lat="48.44326" lon="7.1092">
        <ele>867</ele>
        <time>2019-05-15T10:47:16.082Z</time>
      </trkpt>
      <trkpt lat="48.44327" lon="7.10921">
        <ele>867</ele>
        <time>2019-05-15T10:47:17.082Z</time>
      </trkpt>
      <trkpt lat="48.44327" lon="7.10922">
        <ele>866</ele>
        <time>2019-05-15T10:47:18.082Z</time>
      </trkpt>
      <trkpt lat="48.44328" lon="7.10923">
        <ele>866</ele>
        <time>2019-05-15T10:47:19.082Z</time>
      </trkpt>
      <trkpt lat="48.44329" lon="7.10923">
        <ele>866</ele>
        <time>2019-05-15T10:47:20.082Z</time>
      </trkpt>
      <trkpt lat="48.4433" lon="7.10924">
        <ele>866</ele>
        <time>2019-05-15T10:47:21.082Z</time>
      </trkpt>
      <trkpt lat="48.4433" lon="7.10924">
        <ele>866</ele>
        <time>2019-05-15T10:47:22.082Z</time>
      </trkpt>
      <trkpt lat="48.44331" lon="7.10925">
        <ele>867</ele>
        <time>2019-05-15T10:47:23.082Z</time>
      </trkpt>
      <trkpt lat="48.44332" lon="7.10926">
        <ele>867</ele>
        <time>2019-05-15T10:47:24.082Z</time>
      </trkpt>
      <trkpt lat="48.44333" lon="7.10926">
        <ele>867</ele>
        <time>2019-05-15T10:47:25.082Z</time>
      </trkpt>
      <trkpt lat="48.44334" lon="7.10926">
        <ele>867</ele>
        <time>2019-05-15T10:47:26.082Z</time>
      </trkpt>
      <trkpt lat="48.44334" lon="7.10927">
        <ele>867</ele>
        <time>2019-05-15T10:47:27.082Z</time>
      </trkpt>
      <trkpt lat="48.44335" lon="7.10927">
        <ele>867</ele>
        <time>2019-05-15T10:47:28.082Z</time>
      </trkpt>
      <trkpt lat="48.44336" lon="7.10928">
        <ele>867</ele>
        <time>2019-05-15T10:47:29.082Z</time>
      </trkpt>
      <trkpt lat="48.44337" lon="7.10929">
        <ele>867</ele>
        <time>2019-05-15T10:47:30.082Z</time>
      </trkpt>
      <trkpt lat="48.44338" lon="7.10929">
        <ele>867</ele>
        <time>2019-05-15T10:47:31.082Z</time>
      </trkpt>
      <trkpt lat="48.44338" lon="7.10929">
        <ele>867</ele>
        <time>2019-05-15T10:47:32.082Z</time>
      </trkpt>
      <trkpt lat="48.44339" lon="7.1093">
        <ele>867</ele>
        <time>2019-05-15T10:47:33.082Z</time>
      </trkpt>
      <trkpt lat="48.4434" lon="7.1093">
        <ele>867</ele>
        <time>2019-05-15T10:47:34.082Z</time>
      </trkpt>
      <trkpt lat="48.44341" lon="7.1093">
        <ele>867</ele>
        <time>2019-05-15T10:47:35.082Z</time>
      </trkpt>
      <trkpt lat="48.44342" lon="7.1093">
        <ele>868</ele>
        <time>2019-05-15T10:47:36.082Z</time>
      </trkpt>
      <trkpt lat="48.44343" lon="7.10931">
        <ele>868</ele>
        <time>2019-05-15T10:47:37.082Z</time>
      </trkpt>
      <trkpt lat="48.44344" lon="7.10931">
        <ele>868</ele>
        <time>2019-05-15T10:47:38.082Z</time>
      </trkpt>
      <trkpt lat="48.44345" lon="7.10931">
        <ele>868</ele>
        <time>2019-05-15T10:47:39.082Z</time>
      </trkpt>
      <trkpt lat="48.44346" lon="7.10931">
        <ele>868</ele>
        <time>2019-05-15T10:47:40.082Z</time>
      </trkpt>
      <trkpt lat="48.44347" lon="7.10932">
        <ele>868</ele>
        <time>2019-05-15T10:47:41.082Z</time>
      </trkpt>
      <trkpt lat="48.44348" lon="7.10932">
        <ele>868</ele>
        <time>2019-05-15T10:47:42.082Z</time>
      </trkpt>
      <trkpt lat="48.44349" lon="7.10932">
        <ele>868</ele>
        <time>2019-05-15T10:47:43.082Z</time>
      </trkpt>
      <trkpt lat="48.44349" lon="7.10932">
        <ele>869</ele>
        <time>2019-05-15T10:47:44.082Z</time>
      </trkpt>
      <trkpt lat="48.4435" lon="7.10932">
        <ele>869</ele>
        <time>2019-05-15T10:47:45.082Z</time>
      </trkpt>
      <trkpt lat="48.44351" lon="7.10932">
        <ele>869</ele>
        <time>2019-05-15T10:47:46.082Z</time>
      </trkpt>
      <trkpt lat="48.44352" lon="7.10932">
        <ele>869</ele>
        <time>2019-05-15T10:47:47.082Z</time>
      </trkpt>
      <trkpt lat="48.44353" lon="7.10932">
        <ele>869</ele>
        <time>2019-05-15T10:47:48.082Z</time>
      </trkpt>
      <trkpt lat="48.44354" lon="7.10932">
        <ele>869</ele>
        <time>2019-05-15T10:47:49.082Z</time>
      </trkpt>
      <trkpt lat="48.44354" lon="7.10932">
        <ele>869</ele>
        <time>2019-05-15T10:47:50.082Z</time>
      </trkpt>
      <trkpt lat="48.44355" lon="7.10932">
        <ele>869</ele>
        <time>2019-05-15T10:47:51.082Z</time>
      </trkpt>
      <trkpt lat="48.44356" lon="7.10932">
        <ele>869</ele>
        <time>2019-05-15T10:47:52.082Z</time>
      </trkpt>
      <trkpt lat="48.44357" lon="7.10933">
        <ele>868</ele>
        <time>2019-05-15T10:47:53.082Z</time>
      </trkpt>
      <trkpt lat="48.44359" lon="7.10933">
        <ele>868</ele>
        <time>2019-05-15T10:47:54.082Z</time>
      </trkpt>
      <trkpt lat="48.44359" lon="7.10933">
        <ele>868</ele>
        <time>2019-05-15T10:47:55.082Z</time>
      </trkpt>
      <trkpt lat="48.4436" lon="7.10933">
        <ele>869</ele>
        <time>2019-05-15T10:47:56.082Z</time>
      </trkpt>
      <trkpt lat="48.44361" lon="7.10933">
        <ele>869</ele>
        <time>2019-05-15T10:47:57.082Z</time>
      </trkpt>
      <trkpt lat="48.44362" lon="7.10933">
        <ele>869</ele>
        <time>2019-05-15T10:47:58.082Z</time>
      </trkpt>
      <trkpt lat="48.44363" lon="7.10933">
        <ele>868</ele>
        <time>2019-05-15T10:47:59.082Z</time>
      </trkpt>
      <trkpt lat="48.44364" lon="7.10934">
        <ele>868</ele>
        <time>2019-05-15T10:48:00.082Z</time>
      </trkpt>
      <trkpt lat="48.44365" lon="7.10934">
        <ele>868</ele>
        <time>2019-05-15T10:48:01.082Z</time>
      </trkpt>
      <trkpt lat="48.44366" lon="7.10934">
        <ele>868</ele>
        <time>2019-05-15T10:48:02.082Z</time>
      </trkpt>
      <trkpt lat="48.44368" lon="7.10934">
        <ele>868</ele>
        <time>2019-05-15T10:48:03.082Z</time>
      </trkpt>
      <trkpt lat="48.44369" lon="7.10934">
        <ele>868</ele>
        <time>2019-05-15T10:48:04.082Z</time>
      </trkpt>
      <trkpt lat="48.4437" lon="7.10934">
        <ele>868</ele>
        <time>2019-05-15T10:48:05.082Z</time>
      </trkpt>
      <trkpt lat="48.44371" lon="7.10935">
        <ele>868</ele>
        <time>2019-05-15T10:48:06.082Z</time>
      </trkpt>
      <trkpt lat="48.44372" lon="7.10935">
        <ele>867</ele>
        <time>2019-05-15T10:48:07.082Z</time>
      </trkpt>
      <trkpt lat="48.44373" lon="7.10936">
        <ele>867</ele>
        <time>2019-05-15T10:48:08.082Z</time>
      </trkpt>
      <trkpt lat="48.44374" lon="7.10936">
        <ele>868</ele>
        <time>2019-05-15T10:48:09.082Z</time>
      </trkpt>
      <trkpt lat="48.44375" lon="7.10936">
        <ele>867</ele>
        <time>2019-05-15T10:48:10.082Z</time>
      </trkpt>
      <trkpt lat="48.44376" lon="7.10936">
        <ele>868</ele>
        <time>2019-05-15T10:48:11.082Z</time>
      </trkpt>
      <trkpt lat="48.44377" lon="7.10936">
        <ele>868</ele>
        <time>2019-05-15T10:48:12.082Z</time>
      </trkpt>
      <trkpt lat="48.44378" lon="7.10936">
        <ele>868</ele>
        <time>2019-05-15T10:48:13.082Z</time>
      </trkpt>
      <trkpt lat="48.44379" lon="7.10937">
        <ele>868</ele>
        <time>2019-05-15T10:48:14.082Z</time>
      </trkpt>
      <trkpt lat="48.4438" lon="7.10937">
        <ele>868</ele>
        <time>2019-05-15T10:48:15.082Z</time>
      </trkpt>
      <trkpt lat="48.44381" lon="7.10937">
        <ele>868</ele>
        <time>2019-05-15T10:48:16.082Z</time>
      </trkpt>
      <trkpt lat="48.44382" lon="7.10937">
        <ele>868</ele>
        <time>2019-05-15T10:48:17.082Z</time>
      </trkpt>
      <trkpt lat="48.44383" lon="7.10938">
        <ele>869</ele>
        <time>2019-05-15T10:48:18.082Z</time>
      </trkpt>
      <trkpt lat="48.44384" lon="7.10938">
        <ele>869</ele>
        <time>2019-05-15T10:48:19.082Z</time>
      </trkpt>
      <trkpt lat="48.44385" lon="7.10938">
        <ele>869</ele>
        <time>2019-05-15T10:48:20.082Z</time>
      </trkpt>
      <trkpt lat="48.44386" lon="7.10938">
        <ele>869</ele>
        <time>2019-05-15T10:48:21.082Z</time>
      </trkpt>
      <trkpt lat="48.44387" lon="7.10938">
        <ele>869</ele>
        <time>2019-05-15T10:48:22.082Z</time>
      </trkpt>
      <trkpt lat="48.44388" lon="7.10939">
        <ele>869</ele>
        <time>2019-05-15T10:48:23.082Z</time>
      </trkpt>
      <trkpt lat="48.44389" lon="7.10939">
        <ele>869</ele>
        <time>2019-05-15T10:48:24.082Z</time>
      </trkpt>
      <trkpt lat="48.4439" lon="7.10939">
        <ele>869</ele>
        <time>2019-05-15T10:48:25.082Z</time>
      </trkpt>
      <trkpt lat="48.4439" lon="7.1094">
        <ele>869</ele>
        <time>2019-05-15T10:48:26.082Z</time>
      </trkpt>
      <trkpt lat="48.44391" lon="7.1094">
        <ele>869</ele>
        <time>2019-05-15T10:48:27.082Z</time>
      </trkpt>
      <trkpt lat="48.44392" lon="7.1094">
        <ele>869</ele>
        <time>2019-05-15T10:48:28.082Z</time>
      </trkpt>
      <trkpt lat="48.44393" lon="7.10941">
        <ele>869</ele>
        <time>2019-05-15T10:48:29.082Z</time>
      </trkpt>
      <trkpt lat="48.44394" lon="7.10941">
        <ele>869</ele>
        <time>2019-05-15T10:48:30.082Z</time>
      </trkpt>
      <trkpt lat="48.44395" lon="7.10941">
        <ele>869</ele>
        <time>2019-05-15T10:48:31.082Z</time>
      </trkpt>
      <trkpt lat="48.44396" lon="7.10942">
        <ele>869</ele>
        <time>2019-05-15T10:48:32.082Z</time>
      </trkpt>
      <trkpt lat="48.44397" lon="7.10942">
        <ele>869</ele>
        <time>2019-05-15T10:48:33.082Z</time>
      </trkpt>
      <trkpt lat="48.44398" lon="7.10943">
        <ele>869</ele>
        <time>2019-05-15T10:48:34.082Z</time>
      </trkpt>
      <trkpt lat="48.44399" lon="7.10943">
        <ele>869</ele>
        <time>2019-05-15T10:48:35.082Z</time>
      </trkpt>
      <trkpt lat="48.444" lon="7.10943">
        <ele>870</ele>
        <time>2019-05-15T10:48:36.082Z</time>
      </trkpt>
      <trkpt lat="48.44401" lon="7.10943">
        <ele>870</ele>
        <time>2019-05-15T10:48:37.082Z</time>
      </trkpt>
      <trkpt lat="48.44402" lon="7.10943">
        <ele>869</ele>
        <time>2019-05-15T10:48:38.082Z</time>
      </trkpt>
      <trkpt lat="48.44403" lon="7.10944">
        <ele>869</ele>
        <time>2019-05-15T10:48:39.082Z</time>
      </trkpt>
      <trkpt lat="48.44403" lon="7.10944">
        <ele>869</ele>
        <time>2019-05-15T10:48:40.082Z</time>
      </trkpt>
      <trkpt lat="48.44404" lon="7.10944">
        <ele>869</ele>
        <time>2019-05-15T10:48:41.082Z</time>
      </trkpt>
      <trkpt lat="48.44404" lon="7.10944">
        <ele>869</ele>
        <time>2019-05-15T10:48:42.082Z</time>
      </trkpt>
      <trkpt lat="48.44405" lon="7.10944">
        <ele>869</ele>
        <time>2019-05-15T10:48:43.082Z</time>
      </trkpt>
      <trkpt lat="48.44405" lon="7.10945">
        <ele>870</ele>
        <time>2019-05-15T10:48:44.082Z</time>
      </trkpt>
      <trkpt lat="48.44406" lon="7.10945">
        <ele>870</ele>
        <time>2019-05-15T10:48:45.082Z</time>
      </trkpt>
      <trkpt lat="48.44407" lon="7.10945">
        <ele>871</ele>
        <time>2019-05-15T10:48:46.082Z</time>
      </trkpt>
      <trkpt lat="48.44408" lon="7.10945">
        <ele>872</ele>
        <time>2019-05-15T10:48:47.082Z</time>
      </trkpt>
      <trkpt lat="48.44409" lon="7.10945">
        <ele>872</ele>
        <time>2019-05-15T10:48:48.082Z</time>
      </trkpt>
      <trkpt lat="48.4441" lon="7.10945">
        <ele>872</ele>
        <time>2019-05-15T10:48:49.082Z</time>
      </trkpt>
      <trkpt lat="48.44411" lon="7.10946">
        <ele>872</ele>
        <time>2019-05-15T10:48:50.082Z</time>
      </trkpt>
      <trkpt lat="48.44412" lon="7.10946">
        <ele>872</ele>
        <time>2019-05-15T10:48:51.082Z</time>
      </trkpt>
      <trkpt lat="48.44413" lon="7.10946">
        <ele>872</ele>
        <time>2019-05-15T10:48:52.082Z</time>
      </trkpt>
      <trkpt lat="48.44414" lon="7.10947">
        <ele>872</ele>
        <time>2019-05-15T10:48:53.082Z</time>
      </trkpt>
      <trkpt lat="48.44415" lon="7.10947">
        <ele>872</ele>
        <time>2019-05-15T10:48:54.082Z</time>
      </trkpt>
      <trkpt lat="48.44416" lon="7.10947">
        <ele>872</ele>
        <time>2019-05-15T10:48:55.082Z</time>
      </trkpt>
      <trkpt lat="48.44417" lon="7.10947">
        <ele>872</ele>
        <time>2019-05-15T10:48:56.082Z</time>
      </trkpt>
      <trkpt lat="48.44418" lon="7.10947">
        <ele>872</ele>
        <time>2019-05-15T10:48:57.082Z</time>
      </trkpt>
      <trkpt lat="48.44418" lon="7.10947">
        <ele>872</ele>
        <time>2019-05-15T10:48:58.082Z</time>
      </trkpt>
      <trkpt lat="48.44419" lon="7.10947">
        <ele>872</ele>
        <time>2019-05-15T10:48:59.082Z</time>
      </trkpt>
      <trkpt lat="48.4442" lon="7.10948">
        <ele>872</ele>
        <time>2019-05-15T10:49:00.082Z</time>
      </trkpt>
      <trkpt lat="48.44421" lon="7.10948">
        <ele>872</ele>
        <time>2019-05-15T10:49:01.082Z</time>
      </trkpt>
      <trkpt lat="48.44422" lon="7.10948">
        <ele>872</ele>
        <time>2019-05-15T10:49:02.082Z</time>
      </trkpt>
      <trkpt lat="48.44423" lon="7.10948">
        <ele>872</ele>
        <time>2019-05-15T10:49:03.082Z</time>
      </trkpt>
      <trkpt lat="48.44424" lon="7.10948">
        <ele>871</ele>
        <time>2019-05-15T10:49:04.082Z</time>
      </trkpt>
      <trkpt lat="48.44425" lon="7.10948">
        <ele>872</ele>
        <time>2019-05-15T10:49:05.082Z</time>
      </trkpt>
      <trkpt lat="48.44426" lon="7.10948">
        <ele>872</ele>
        <time>2019-05-15T10:49:06.082Z</time>
      </trkpt>
      <trkpt lat="48.44427" lon="7.10948">
        <ele>872</ele>
        <time>2019-05-15T10:49:07.082Z</time>
      </trkpt>
      <trkpt lat="48.44429" lon="7.10948">
        <ele>872</ele>
        <time>2019-05-15T10:49:08.082Z</time>
      </trkpt>
      <trkpt lat="48.4443" lon="7.10948">
        <ele>872</ele>
        <time>2019-05-15T10:49:09.082Z</time>
      </trkpt>
      <trkpt lat="48.44431" lon="7.10948">
        <ele>871</ele>
        <time>2019-05-15T10:49:10.082Z</time>
      </trkpt>
      <trkpt lat="48.44432" lon="7.10948">
        <ele>871</ele>
        <time>2019-05-15T10:49:11.082Z</time>
      </trkpt>
      <trkpt lat="48.44433" lon="7.10948">
        <ele>871</ele>
        <time>2019-05-15T10:49:12.082Z</time>
      </trkpt>
      <trkpt lat="48.44434" lon="7.10948">
        <ele>871</ele>
        <time>2019-05-15T10:49:13.082Z</time>
      </trkpt>
      <trkpt lat="48.44435" lon="7.10948">
        <ele>871</ele>
        <time>2019-05-15T10:49:14.082Z</time>
      </trkpt>
      <trkpt lat="48.44436" lon="7.10948">
        <ele>871</ele>
        <time>2019-05-15T10:49:15.082Z</time>
      </trkpt>
      <trkpt lat="48.44437" lon="7.10948">
        <ele>871</ele>
        <time>2019-05-15T10:49:16.082Z</time>
      </trkpt>
      <trkpt lat="48.44438" lon="7.10948">
        <ele>871</ele>
        <time>2019-05-15T10:49:17.082Z</time>
      </trkpt>
      <trkpt lat="48.44439" lon="7.10948">
        <ele>871</ele>
        <time>2019-05-15T10:49:18.082Z</time>
      </trkpt>
      <trkpt lat="48.4444" lon="7.10948">
        <ele>871</ele>
        <time>2019-05-15T10:49:19.082Z</time>
      </trkpt>
      <trkpt lat="48.44442" lon="7.10948">
        <ele>871</ele>
        <time>2019-05-15T10:49:20.082Z</time>
      </trkpt>
      <trkpt lat="48.44443" lon="7.10948">
        <ele>871</ele>
        <time>2019-05-15T10:49:21.082Z</time>
      </trkpt>
      <trkpt lat="48.44444" lon="7.10947">
        <ele>871</ele>
        <time>2019-05-15T10:49:22.082Z</time>
      </trkpt>
      <trkpt lat="48.44445" lon="7.10947">
        <ele>872</ele>
        <time>2019-05-15T10:49:23.082Z</time>
      </trkpt>
      <trkpt lat="48.44447" lon="7.10947">
        <ele>871</ele>
        <time>2019-05-15T10:49:24.082Z</time>
      </trkpt>
      <trkpt lat="48.44448" lon="7.10947">
        <ele>871</ele>
        <time>2019-05-15T10:49:25.082Z</time>
      </trkpt>
      <trkpt lat="48.44449" lon="7.10947">
        <ele>871</ele>
        <time>2019-05-15T10:49:26.082Z</time>
      </trkpt>
      <trkpt lat="48.4445" lon="7.10947">
        <ele>871</ele>
        <time>2019-05-15T10:49:27.082Z</time>
      </trkpt>
      <trkpt lat="48.44451" lon="7.10947">
        <ele>871</ele>
        <time>2019-05-15T10:49:28.082Z</time>
      </trkpt>
      <trkpt lat="48.44453" lon="7.10947">
        <ele>871</ele>
        <time>2019-05-15T10:49:29.082Z</time>
      </trkpt>
      <trkpt lat="48.44454" lon="7.10947">
        <ele>871</ele>
        <time>2019-05-15T10:49:30.082Z</time>
      </trkpt>
      <trkpt lat="48.44455" lon="7.10947">
        <ele>870</ele>
        <time>2019-05-15T10:49:31.082Z</time>
      </trkpt>
      <trkpt lat="48.44456" lon="7.10947">
        <ele>870</ele>
        <time>2019-05-15T10:49:32.082Z</time>
      </trkpt>
      <trkpt lat="48.44457" lon="7.10947">
        <ele>870</ele>
        <time>2019-05-15T10:49:33.082Z</time>
      </trkpt>
      <trkpt lat="48.44458" lon="7.10946">
        <ele>870</ele>
        <time>2019-05-15T10:49:34.082Z</time>
      </trkpt>
      <trkpt lat="48.44459" lon="7.10946">
        <ele>870</ele>
        <time>2019-05-15T10:49:35.082Z</time>
      </trkpt>
      <trkpt lat="48.4446" lon="7.10946">
        <ele>870</ele>
        <time>2019-05-15T10:49:36.082Z</time>
      </trkpt>
      <trkpt lat="48.44461" lon="7.10946">
        <ele>869</ele>
        <time>2019-05-15T10:49:37.082Z</time>
      </trkpt>
      <trkpt lat="48.44462" lon="7.10946">
        <ele>869</ele>
        <time>2019-05-15T10:49:38.082Z</time>
      </trkpt>
      <trkpt lat="48.44463" lon="7.10946">
        <ele>869</ele>
        <time>2019-05-15T10:49:39.082Z</time>
      </trkpt>
      <trkpt lat="48.44464" lon="7.10946">
        <ele>870</ele>
        <time>2019-05-15T10:49:40.082Z</time>
      </trkpt>
      <trkpt lat="48.44465" lon="7.10945">
        <ele>870</ele>
        <time>2019-05-15T10:49:41.082Z</time>
      </trkpt>
      <trkpt lat="48.44466" lon="7.10945">
        <ele>869</ele>
        <time>2019-05-15T10:49:42.082Z</time>
      </trkpt>
      <trkpt lat="48.44467" lon="7.10945">
        <ele>869</ele>
        <time>2019-05-15T10:49:43.082Z</time>
      </trkpt>
      <trkpt lat="48.44468" lon="7.10945">
        <ele>869</ele>
        <time>2019-05-15T10:49:44.082Z</time>
      </trkpt>
      <trkpt lat="48.44469" lon="7.10945">
        <ele>869</ele>
        <time>2019-05-15T10:49:45.082Z</time>
      </trkpt>
      <trkpt lat="48.44469" lon="7.10945">
        <ele>869</ele>
        <time>2019-05-15T10:49:46.082Z</time>
      </trkpt>
      <trkpt lat="48.4447" lon="7.10945">
        <ele>869</ele>
        <time>2019-05-15T10:49:47.082Z</time>
      </trkpt>
      <trkpt lat="48.44469" lon="7.10945">
        <ele>869</ele>
        <time>2019-05-15T10:49:48.082Z</time>
      </trkpt>
      <trkpt lat="48.44469" lon="7.10945">
        <ele>869</ele>
        <time>2019-05-15T10:49:49.082Z</time>
      </trkpt>
      <trkpt lat="48.44469" lon="7.10945">
        <ele>869</ele>
        <time>2019-05-15T10:49:50.082Z</time>
      </trkpt>
      <trkpt lat="48.44469" lon="7.10945">
        <ele>869</ele>
        <time>2019-05-15T10:49:51.082Z</time>
      </trkpt>
      <trkpt lat="48.44469" lon="7.10945">
        <ele>869</ele>
        <time>2019-05-15T10:49:52.082Z</time>
      </trkpt>
      <trkpt lat="48.44469" lon="7.10945">
        <ele>869</ele>
        <time>2019-05-15T10:49:53.082Z</time>
      </trkpt>
      <trkpt lat="48.44469" lon="7.10944">
        <ele>869</ele>
        <time>2019-05-15T10:49:54.082Z</time>
      </trkpt>
      <trkpt lat="48.44469" lon="7.10944">
        <ele>869</ele>
        <time>2019-05-15T10:49:55.082Z</time>
      </trkpt>
      <trkpt lat="48.44469" lon="7.10944">
        <ele>869</ele>
        <time>2019-05-15T10:49:56.082Z</time>
      </trkpt>
      <trkpt lat="48.44469" lon="7.10944">
        <ele>869</ele>
        <time>2019-05-15T10:49:57.082Z</time>
      </trkpt>
      <trkpt lat="48.44469" lon="7.10944">
        <ele>869</ele>
        <time>2019-05-15T10:49:58.082Z</time>
      </trkpt>
      <trkpt lat="48.44469" lon="7.10944">
        <ele>869</ele>
        <time>2019-05-15T10:49:59.082Z</time>
      </trkpt>
      <trkpt lat="48.44469" lon="7.10944">
        <ele>869</ele>
        <time>2019-05-15T10:50:00.082Z</time>
      </trkpt>
      <trkpt lat="48.44469" lon="7.10944">
        <ele>869</ele>
        <time>2019-05-15T10:50:01.082Z</time>
      </trkpt>
      <trkpt lat="48.44469" lon="7.10944">
        <ele>869</ele>
        <time>2019-05-15T10:50:02.082Z</time>
      </trkpt>
      <trkpt lat="48.44469" lon="7.10944">
        <ele>869</ele>
        <time>2019-05-15T10:50:03.082Z</time>
      </trkpt>
      <trkpt lat="48.44469" lon="7.10944">
        <ele>869</ele>
        <time>2019-05-15T10:50:04.082Z</time>
      </trkpt>
      <trkpt lat="48.44469" lon="7.10944">
        <ele>869</ele>
        <time>2019-05-15T10:50:05.082Z</time>
      </trkpt>
      <trkpt lat="48.44469" lon="7.10944">
        <ele>869</ele>
        <time>2019-05-15T10:50:06.082Z</time>
      </trkpt>
      <trkpt lat="48.44469" lon="7.10944">
        <ele>869</ele>
        <time>2019-05-15T10:50:07.082Z</time>
      </trkpt>
      <trkpt lat="48.44469" lon="7.10944">
        <ele>869</ele>
        <time>2019-05-15T10:50:08.082Z</time>
      </trkpt>
      <trkpt lat="48.44469" lon="7.10944">
        <ele>869</ele>
        <time>2019-05-15T10:50:09.082Z</time>
      </trkpt>
      <trkpt lat="48.44469" lon="7.10943">
        <ele>869</ele>
        <time>2019-05-15T10:50:10.082Z</time>
      </trkpt>
      <trkpt lat="48.44469" lon="7.10944">
        <ele>868</ele>
        <time>2019-05-15T10:50:11.082Z</time>
      </trkpt>
      <trkpt lat="48.44469" lon="7.10944">
        <ele>868</ele>
        <time>2019-05-15T10:50:12.082Z</time>
      </trkpt>
      <trkpt lat="48.44469" lon="7.10944">
        <ele>868</ele>
        <time>2019-05-15T10:50:13.082Z</time>
      </trkpt>
      <trkpt lat="48.44469" lon="7.10944">
        <ele>868</ele>
        <time>2019-05-15T10:50:14.082Z</time>
      </trkpt>
      <trkpt lat="48.44469" lon="7.10944">
        <ele>868</ele>
        <time>2019-05-15T10:50:15.082Z</time>
      </trkpt>
      <trkpt lat="48.44469" lon="7.10944">
        <ele>868</ele>
        <time>2019-05-15T10:50:16.082Z</time>
      </trkpt>
      <trkpt lat="48.44469" lon="7.10944">
        <ele>868</ele>
        <time>2019-05-15T10:50:17.082Z</time>
      </trkpt>
      <trkpt lat="48.44469" lon="7.10944">
        <ele>868</ele>
        <time>2019-05-15T10:50:18.082Z</time>
      </trkpt>
      <trkpt lat="48.44469" lon="7.10944">
        <ele>868</ele>
        <time>2019-05-15T10:50:19.082Z</time>
      </trkpt>
      <trkpt lat="48.44469" lon="7.10944">
        <ele>868</ele>
        <time>2019-05-15T10:50:20.082Z</time>
      </trkpt>
      <trkpt lat="48.44469" lon="7.10944">
        <ele>868</ele>
        <time>2019-05-15T10:50:21.082Z</time>
      </trkpt>
      <trkpt lat="48.44469" lon="7.10944">
        <ele>868</ele>
        <time>2019-05-15T10:50:22.082Z</time>
      </trkpt>
      <trkpt lat="48.44469" lon="7.10944">
        <ele>867</ele>
        <time>2019-05-15T10:50:23.082Z</time>
      </trkpt>
      <trkpt lat="48.44469" lon="7.10944">
        <ele>867</ele>
        <time>2019-05-15T10:50:24.082Z</time>
      </trkpt>
      <trkpt lat="48.44469" lon="7.10944">
        <ele>867</ele>
        <time>2019-05-15T10:50:25.082Z</time>
      </trkpt>
      <trkpt lat="48.44469" lon="7.10943">
        <ele>868</ele>
        <time>2019-05-15T10:50:26.082Z</time>
      </trkpt>
      <trkpt lat="48.44469" lon="7.10943">
        <ele>868</ele>
        <time>2019-05-15T10:50:27.082Z</time>
      </trkpt>
      <trkpt lat="48.44469" lon="7.10943">
        <ele>868</ele>
        <time>2019-05-15T10:50:28.082Z</time>
      </trkpt>
      <trkpt lat="48.44469" lon="7.10943">
        <ele>868</ele>
        <time>2019-05-15T10:50:29.082Z</time>
      </trkpt>
      <trkpt lat="48.44469" lon="7.10943">
        <ele>869</ele>
        <time>2019-05-15T10:50:30.082Z</time>
      </trkpt>
      <trkpt lat="48.44468" lon="7.10943">
        <ele>869</ele>
        <time>2019-05-15T10:50:31.082Z</time>
      </trkpt>
      <trkpt lat="48.44468" lon="7.10943">
        <ele>869</ele>
        <time>2019-05-15T10:50:32.082Z</time>
      </trkpt>
      <trkpt lat="48.44468" lon="7.10943">
        <ele>869</ele>
        <time>2019-05-15T10:50:33.082Z</time>
      </trkpt>
      <trkpt lat="48.44468" lon="7.10943">
        <ele>869</ele>
        <time>2019-05-15T10:50:34.082Z</time>
      </trkpt>
      <trkpt lat="48.44468" lon="7.10943">
        <ele>869</ele>
        <time>2019-05-15T10:50:35.082Z</time>
      </trkpt>
      <trkpt lat="48.44468" lon="7.10943">
        <ele>869</ele>
        <time>2019-05-15T10:50:36.082Z</time>
      </trkpt>
      <trkpt lat="48.44468" lon="7.10943">
        <ele>869</ele>
        <time>2019-05-15T10:50:37.082Z</time>
      </trkpt>
      <trkpt lat="48.44468" lon="7.10943">
        <ele>869</ele>
        <time>2019-05-15T10:50:38.082Z</time>
      </trkpt>
      <trkpt lat="48.44468" lon="7.10943">
        <ele>869</ele>
        <time>2019-05-15T10:50:39.082Z</time>
      </trkpt>
      <trkpt lat="48.44468" lon="7.10943">
        <ele>870</ele>
        <time>2019-05-15T10:50:40.082Z</time>
      </trkpt>
      <trkpt lat="48.44468" lon="7.10943">
        <ele>870</ele>
        <time>2019-05-15T10:50:41.082Z</time>
      </trkpt>
      <trkpt lat="48.44468" lon="7.10943">
        <ele>870</ele>
        <time>2019-05-15T10:50:42.082Z</time>
      </trkpt>
      <trkpt lat="48.44468" lon="7.10943">
        <ele>870</ele>
        <time>2019-05-15T10:50:43.082Z</time>
      </trkpt>
      <trkpt lat="48.44468" lon="7.10943">
        <ele>871</ele>
        <time>2019-05-15T10:50:44.082Z</time>
      </trkpt>
      <trkpt lat="48.44467" lon="7.10943">
        <ele>871</ele>
        <time>2019-05-15T10:50:45.082Z</time>
      </trkpt>
      <trkpt lat="48.44467" lon="7.10943">
        <ele>871</ele>
        <time>2019-05-15T10:50:46.082Z</time>
      </trkpt>
      <trkpt lat="48.44467" lon="7.10944">
        <ele>871</ele>
        <time>2019-05-15T10:50:47.082Z</time>
      </trkpt>
      <trkpt lat="48.44467" lon="7.10944">
        <ele>871</ele>
        <time>2019-05-15T10:50:48.082Z</time>
      </trkpt>
      <trkpt lat="48.44467" lon="7.10944">
        <ele>871</ele>
        <time>2019-05-15T10:50:49.082Z</time>
      </trkpt>
      <trkpt lat="48.44467" lon="7.10944">
        <ele>871</ele>
        <time>2019-05-15T10:50:50.082Z</time>
      </trkpt>
      <trkpt lat="48.44467" lon="7.10944">
        <ele>871</ele>
        <time>2019-05-15T10:50:51.082Z</time>
      </trkpt>
      <trkpt lat="48.44468" lon="7.10944">
        <ele>871</ele>
        <time>2019-05-15T10:50:52.082Z</time>
      </trkpt>
      <trkpt lat="48.44468" lon="7.10944">
        <ele>870</ele>
        <time>2019-05-15T10:50:53.082Z</time>
      </trkpt>
      <trkpt lat="48.44468" lon="7.10945">
        <ele>869</ele>
        <time>2019-05-15T10:50:54.082Z</time>
      </trkpt>
      <trkpt lat="48.44468" lon="7.10945">
        <ele>869</ele>
        <time>2019-05-15T10:50:55.082Z</time>
      </trkpt>
      <trkpt lat="48.44468" lon="7.10946">
        <ele>869</ele>
        <time>2019-05-15T10:50:56.082Z</time>
      </trkpt>
      <trkpt lat="48.44468" lon="7.10946">
        <ele>869</ele>
        <time>2019-05-15T10:50:57.082Z</time>
      </trkpt>
      <trkpt lat="48.44468" lon="7.10946">
        <ele>869</ele>
        <time>2019-05-15T10:50:58.082Z</time>
      </trkpt>
      <trkpt lat="48.44468" lon="7.10946">
        <ele>868</ele>
        <time>2019-05-15T10:50:59.082Z</time>
      </trkpt>
      <trkpt lat="48.44468" lon="7.10946">
        <ele>868</ele>
        <time>2019-05-15T10:51:00.082Z</time>
      </trkpt>
      <trkpt lat="48.44468" lon="7.10946">
        <ele>868</ele>
        <time>2019-05-15T10:51:01.082Z</time>
      </trkpt>
      <trkpt lat="48.44468" lon="7.10946">
        <ele>868</ele>
        <time>2019-05-15T10:51:02.082Z</time>
      </trkpt>
      <trkpt lat="48.44468" lon="7.10946">
        <ele>868</ele>
        <time>2019-05-15T10:51:03.082Z</time>
      </trkpt>
      <trkpt lat="48.44468" lon="7.10946">
        <ele>868</ele>
        <time>2019-05-15T10:51:04.082Z</time>
      </trkpt>
      <trkpt lat="48.44468" lon="7.10946">
        <ele>868</ele>
        <time>2019-05-15T10:51:05.082Z</time>
      </trkpt>
      <trkpt lat="48.44468" lon="7.10946">
        <ele>867</ele>
        <time>2019-05-15T10:51:06.082Z</time>
      </trkpt>
      <trkpt lat="48.44469" lon="7.10946">
        <ele>867</ele>
        <time>2019-05-15T10:51:07.082Z</time>
      </trkpt>
      <trkpt lat="48.44469" lon="7.10946">
        <ele>867</ele>
        <time>2019-05-15T10:51:08.082Z</time>
      </trkpt>
      <trkpt lat="48.44469" lon="7.10946">
        <ele>867</ele>
        <time>2019-05-15T10:51:09.082Z</time>
      </trkpt>
      <trkpt lat="48.44469" lon="7.10946">
        <ele>867</ele>
        <time>2019-05-15T10:51:10.082Z</time>
      </trkpt>
      <trkpt lat="48.44469" lon="7.10946">
        <ele>867</ele>
        <time>2019-05-15T10:51:11.082Z</time>
      </trkpt>
      <trkpt lat="48.44469" lon="7.10946">
        <ele>867</ele>
        <time>2019-05-15T10:51:12.082Z</time>
      </trkpt>
      <trkpt lat="48.44469" lon="7.10946">
        <ele>867</ele>
        <time>2019-05-15T10:51:13.082Z</time>
      </trkpt>
      <trkpt lat="48.44469" lon="7.10946">
        <ele>867</ele>
        <time>2019-05-15T10:51:14.082Z</time>
      </trkpt>
      <trkpt lat="48.44469" lon="7.10946">
        <ele>867</ele>
        <time>2019-05-15T10:51:15.082Z</time>
      </trkpt>
      <trkpt lat="48.44469" lon="7.10946">
        <ele>867</ele>
        <time>2019-05-15T10:51:16.082Z</time>
      </trkpt>
      <trkpt lat="48.4447" lon="7.10946">
        <ele>867</ele>
        <time>2019-05-15T10:51:17.082Z</time>
      </trkpt>
      <trkpt lat="48.4447" lon="7.10945">
        <ele>867</ele>
        <time>2019-05-15T10:51:18.082Z</time>
      </trkpt>
      <trkpt lat="48.44471" lon="7.10945">
        <ele>868</ele>
        <time>2019-05-15T10:51:19.082Z</time>
      </trkpt>
      <trkpt lat="48.44472" lon="7.10945">
        <ele>868</ele>
        <time>2019-05-15T10:51:20.082Z</time>
      </trkpt>
      <trkpt lat="48.44472" lon="7.10945">
        <ele>868</ele>
        <time>2019-05-15T10:51:21.082Z</time>
      </trkpt>
      <trkpt lat="48.44473" lon="7.10945">
        <ele>868</ele>
        <time>2019-05-15T10:51:22.082Z</time>
      </trkpt>
      <trkpt lat="48.44474" lon="7.10944">
        <ele>868</ele>
        <time>2019-05-15T10:51:23.082Z</time>
      </trkpt>
      <trkpt lat="48.44475" lon="7.10944">
        <ele>868</ele>
        <time>2019-05-15T10:51:24.082Z</time>
      </trkpt>
      <trkpt lat="48.44476" lon="7.10944">
        <ele>868</ele>
        <time>2019-05-15T10:51:25.082Z</time>
      </trkpt>
      <trkpt lat="48.44477" lon="7.10944">
        <ele>868</ele>
        <time>2019-05-15T10:51:26.082Z</time>
      </trkpt>
      <trkpt lat="48.44478" lon="7.10944">
        <ele>868</ele>
        <time>2019-05-15T10:51:27.082Z</time>
      </trkpt>
      <trkpt lat="48.4448" lon="7.10944">
        <ele>868</ele>
        <time>2019-05-15T10:51:28.082Z</time>
      </trkpt>
      <trkpt lat="48.44481" lon="7.10944">
        <ele>868</ele>
        <time>2019-05-15T10:51:29.082Z</time>
      </trkpt>
      <trkpt lat="48.44482" lon="7.10944">
        <ele>868</ele>
        <time>2019-05-15T10:51:30.082Z</time>
      </trkpt>
      <trkpt lat="48.44483" lon="7.10943">
        <ele>868</ele>
        <time>2019-05-15T10:51:31.082Z</time>
      </trkpt>
      <trkpt lat="48.44483" lon="7.10943">
        <ele>868</ele>
        <time>2019-05-15T10:51:32.082Z</time>
      </trkpt>
      <trkpt lat="48.44485" lon="7.10943">
        <ele>869</ele>
        <time>2019-05-15T10:51:33.082Z</time>
      </trkpt>
      <trkpt lat="48.44486" lon="7.10943">
        <ele>868</ele>
        <time>2019-05-15T10:51:34.082Z</time>
      </trkpt>
      <trkpt lat="48.44487" lon="7.10943">
        <ele>868</ele>
        <time>2019-05-15T10:51:35.082Z</time>
      </trkpt>
      <trkpt lat="48.44487" lon="7.10943">
        <ele>868</ele>
        <time>2019-05-15T10:51:36.082Z</time>
      </trkpt>
      <trkpt lat="48.44488" lon="7.10943">
        <ele>869</ele>
        <time>2019-05-15T10:51:37.082Z</time>
      </trkpt>
      <trkpt lat="48.44489" lon="7.10943">
        <ele>869</ele>
        <time>2019-05-15T10:51:38.082Z</time>
      </trkpt>
      <trkpt lat="48.44491" lon="7.10943">
        <ele>869</ele>
        <time>2019-05-15T10:51:39.082Z</time>
      </trkpt>
      <trkpt lat="48.44492" lon="7.10943">
        <ele>868</ele>
        <time>2019-05-15T10:51:40.082Z</time>
      </trkpt>
      <trkpt lat="48.44493" lon="7.10943">
        <ele>868</ele>
        <time>2019-05-15T10:51:41.082Z</time>
      </trkpt>
      <trkpt lat="48.44494" lon="7.10943">
        <ele>868</ele>
        <time>2019-05-15T10:51:42.082Z</time>
      </trkpt>
      <trkpt lat="48.44495" lon="7.10943">
        <ele>868</ele>
        <time>2019-05-15T10:51:43.082Z</time>
      </trkpt>
      <trkpt lat="48.44496" lon="7.10943">
        <ele>868</ele>
        <time>2019-05-15T10:51:44.082Z</time>
      </trkpt>
      <trkpt lat="48.44497" lon="7.10943">
        <ele>868</ele>
        <time>2019-05-15T10:51:45.082Z</time>
      </trkpt>
      <trkpt lat="48.44498" lon="7.10943">
        <ele>868</ele>
        <time>2019-05-15T10:51:46.082Z</time>
      </trkpt>
      <trkpt lat="48.44498" lon="7.10943">
        <ele>869</ele>
        <time>2019-05-15T10:51:47.082Z</time>
      </trkpt>
      <trkpt lat="48.44499" lon="7.10943">
        <ele>869</ele>
        <time>2019-05-15T10:51:48.082Z</time>
      </trkpt>
      <trkpt lat="48.445" lon="7.10943">
        <ele>869</ele>
        <time>2019-05-15T10:51:49.082Z</time>
      </trkpt>
      <trkpt lat="48.44501" lon="7.10943">
        <ele>869</ele>
        <time>2019-05-15T10:51:50.082Z</time>
      </trkpt>
      <trkpt lat="48.44502" lon="7.10943">
        <ele>868</ele>
        <time>2019-05-15T10:51:51.082Z</time>
      </trkpt>
      <trkpt lat="48.44503" lon="7.10943">
        <ele>869</ele>
        <time>2019-05-15T10:51:52.082Z</time>
      </trkpt>
      <trkpt lat="48.44504" lon="7.10943">
        <ele>869</ele>
        <time>2019-05-15T10:51:53.082Z</time>
      </trkpt>
      <trkpt lat="48.44504" lon="7.10943">
        <ele>869</ele>
        <time>2019-05-15T10:51:54.082Z</time>
      </trkpt>
      <trkpt lat="48.44505" lon="7.10943">
        <ele>869</ele>
        <time>2019-05-15T10:51:55.082Z</time>
      </trkpt>
      <trkpt lat="48.44506" lon="7.10942">
        <ele>869</ele>
        <time>2019-05-15T10:51:56.082Z</time>
      </trkpt>
      <trkpt lat="48.44507" lon="7.10942">
        <ele>869</ele>
        <time>2019-05-15T10:51:57.082Z</time>
      </trkpt>
      <trkpt lat="48.44508" lon="7.10942">
        <ele>869</ele>
        <time>2019-05-15T10:51:58.082Z</time>
      </trkpt>
      <trkpt lat="48.44509" lon="7.10942">
        <ele>869</ele>
        <time>2019-05-15T10:51:59.082Z</time>
      </trkpt>
      <trkpt lat="48.4451" lon="7.10942">
        <ele>869</ele>
        <time>2019-05-15T10:52:00.082Z</time>
      </trkpt>
      <trkpt lat="48.44511" lon="7.10942">
        <ele>869</ele>
        <time>2019-05-15T10:52:01.082Z</time>
      </trkpt>
      <trkpt lat="48.44512" lon="7.10942">
        <ele>869</ele>
        <time>2019-05-15T10:52:02.082Z</time>
      </trkpt>
      <trkpt lat="48.44512" lon="7.10942">
        <ele>869</ele>
        <time>2019-05-15T10:52:03.082Z</time>
      </trkpt>
      <trkpt lat="48.44513" lon="7.10942">
        <ele>869</ele>
        <time>2019-05-15T10:52:04.082Z</time>
      </trkpt>
      <trkpt lat="48.44514" lon="7.10942">
        <ele>869</ele>
        <time>2019-05-15T10:52:05.082Z</time>
      </trkpt>
      <trkpt lat="48.44515" lon="7.10942">
        <ele>869</ele>
        <time>2019-05-15T10:52:06.082Z</time>
      </trkpt>
      <trkpt lat="48.44516" lon="7.10942">
        <ele>869</ele>
        <time>2019-05-15T10:52:07.082Z</time>
      </trkpt>
      <trkpt lat="48.44517" lon="7.10942">
        <ele>868</ele>
        <time>2019-05-15T10:52:08.082Z</time>
      </trkpt>
      <trkpt lat="48.44518" lon="7.10942">
        <ele>868</ele>
        <time>2019-05-15T10:52:09.082Z</time>
      </trkpt>
      <trkpt lat="48.44519" lon="7.10942">
        <ele>868</ele>
        <time>2019-05-15T10:52:10.082Z</time>
      </trkpt>
      <trkpt lat="48.4452" lon="7.10942">
        <ele>868</ele>
        <time>2019-05-15T10:52:11.082Z</time>
      </trkpt>
      <trkpt lat="48.44521" lon="7.10942">
        <ele>868</ele>
        <time>2019-05-15T10:52:12.082Z</time>
      </trkpt>
      <trkpt lat="48.44522" lon="7.10942">
        <ele>868</ele>
        <time>2019-05-15T10:52:13.082Z</time>
      </trkpt>
      <trkpt lat="48.44523" lon="7.10942">
        <ele>868</ele>
        <time>2019-05-15T10:52:14.082Z</time>
      </trkpt>
      <trkpt lat="48.44524" lon="7.10943">
        <ele>867</ele>
        <time>2019-05-15T10:52:15.082Z</time>
      </trkpt>
      <trkpt lat="48.44525" lon="7.10943">
        <ele>867</ele>
        <time>2019-05-15T10:52:16.082Z</time>
      </trkpt>
      <trkpt lat="48.44526" lon="7.10943">
        <ele>867</ele>
        <time>2019-05-15T10:52:17.082Z</time>
      </trkpt>
      <trkpt lat="48.44526" lon="7.10943">
        <ele>866</ele>
        <time>2019-05-15T10:52:18.082Z</time>
      </trkpt>
      <trkpt lat="48.44527" lon="7.10943">
        <ele>866</ele>
        <time>2019-05-15T10:52:19.082Z</time>
      </trkpt>
      <trkpt lat="48.44528" lon="7.10943">
        <ele>867</ele>
        <time>2019-05-15T10:52:20.082Z</time>
      </trkpt>
      <trkpt lat="48.44529" lon="7.10943">
        <ele>866</ele>
        <time>2019-05-15T10:52:21.082Z</time>
      </trkpt>
      <trkpt lat="48.4453" lon="7.10943">
        <ele>866</ele>
        <time>2019-05-15T10:52:22.082Z</time>
      </trkpt>
      <trkpt lat="48.4453" lon="7.10943">
        <ele>866</ele>
        <time>2019-05-15T10:52:23.082Z</time>
      </trkpt>
      <trkpt lat="48.44531" lon="7.10943">
        <ele>866</ele>
        <time>2019-05-15T10:52:24.082Z</time>
      </trkpt>
      <trkpt lat="48.44533" lon="7.10943">
        <ele>866</ele>
        <time>2019-05-15T10:52:25.082Z</time>
      </trkpt>
      <trkpt lat="48.44534" lon="7.10943">
        <ele>866</ele>
        <time>2019-05-15T10:52:26.082Z</time>
      </trkpt>
      <trkpt lat="48.44534" lon="7.10943">
        <ele>866</ele>
        <time>2019-05-15T10:52:27.082Z</time>
      </trkpt>
      <trkpt lat="48.44535" lon="7.10943">
        <ele>866</ele>
        <time>2019-05-15T10:52:28.082Z</time>
      </trkpt>
      <trkpt lat="48.44536" lon="7.10943">
        <ele>865</ele>
        <time>2019-05-15T10:52:29.082Z</time>
      </trkpt>
      <trkpt lat="48.44537" lon="7.10943">
        <ele>865</ele>
        <time>2019-05-15T10:52:30.082Z</time>
      </trkpt>
      <trkpt lat="48.44538" lon="7.10944">
        <ele>865</ele>
        <time>2019-05-15T10:52:31.082Z</time>
      </trkpt>
      <trkpt lat="48.44539" lon="7.10944">
        <ele>864</ele>
        <time>2019-05-15T10:52:32.082Z</time>
      </trkpt>
      <trkpt lat="48.4454" lon="7.10944">
        <ele>864</ele>
        <time>2019-05-15T10:52:33.082Z</time>
      </trkpt>
      <trkpt lat="48.44541" lon="7.10944">
        <ele>864</ele>
        <time>2019-05-15T10:52:34.082Z</time>
      </trkpt>
      <trkpt lat="48.44542" lon="7.10944">
        <ele>865</ele>
        <time>2019-05-15T10:52:35.082Z</time>
      </trkpt>
      <trkpt lat="48.44543" lon="7.10944">
        <ele>865</ele>
        <time>2019-05-15T10:52:36.082Z</time>
      </trkpt>
      <trkpt lat="48.44544" lon="7.10943">
        <ele>865</ele>
        <time>2019-05-15T10:52:37.082Z</time>
      </trkpt>
      <trkpt lat="48.44545" lon="7.10943">
        <ele>865</ele>
        <time>2019-05-15T10:52:38.082Z</time>
      </trkpt>
      <trkpt lat="48.44546" lon="7.10943">
        <ele>865</ele>
        <time>2019-05-15T10:52:39.082Z</time>
      </trkpt>
      <trkpt lat="48.44547" lon="7.10943">
        <ele>865</ele>
        <time>2019-05-15T10:52:40.082Z</time>
      </trkpt>
      <trkpt lat="48.44548" lon="7.10943">
        <ele>864</ele>
        <time>2019-05-15T10:52:41.082Z</time>
      </trkpt>
      <trkpt lat="48.44549" lon="7.10943">
        <ele>864</ele>
        <time>2019-05-15T10:52:42.082Z</time>
      </trkpt>
      <trkpt lat="48.4455" lon="7.10943">
        <ele>864</ele>
        <time>2019-05-15T10:52:43.082Z</time>
      </trkpt>
      <trkpt lat="48.44551" lon="7.10943">
        <ele>864</ele>
        <time>2019-05-15T10:52:44.082Z</time>
      </trkpt>
      <trkpt lat="48.44552" lon="7.10943">
        <ele>864</ele>
        <time>2019-05-15T10:52:45.082Z</time>
      </trkpt>
      <trkpt lat="48.44553" lon="7.10943">
        <ele>864</ele>
        <time>2019-05-15T10:52:46.082Z</time>
      </trkpt>
      <trkpt lat="48.44554" lon="7.10942">
        <ele>864</ele>
        <time>2019-05-15T10:52:47.082Z</time>
      </trkpt>
      <trkpt lat="48.44555" lon="7.10942">
        <ele>864</ele>
        <time>2019-05-15T10:52:48.082Z</time>
      </trkpt>
      <trkpt lat="48.44556" lon="7.10942">
        <ele>864</ele>
        <time>2019-05-15T10:52:49.082Z</time>
      </trkpt>
      <trkpt lat="48.44557" lon="7.10942">
        <ele>864</ele>
        <time>2019-05-15T10:52:50.082Z</time>
      </trkpt>
      <trkpt lat="48.44558" lon="7.10942">
        <ele>864</ele>
        <time>2019-05-15T10:52:51.082Z</time>
      </trkpt>
      <trkpt lat="48.44559" lon="7.10942">
        <ele>863</ele>
        <time>2019-05-15T10:52:52.082Z</time>
      </trkpt>
      <trkpt lat="48.44561" lon="7.10943">
        <ele>863</ele>
        <time>2019-05-15T10:52:53.082Z</time>
      </trkpt>
      <trkpt lat="48.44562" lon="7.10943">
        <ele>863</ele>
        <time>2019-05-15T10:52:54.082Z</time>
      </trkpt>
      <trkpt lat="48.44562" lon="7.10943">
        <ele>863</ele>
        <time>2019-05-15T10:52:55.082Z</time>
      </trkpt>
      <trkpt lat="48.44564" lon="7.10943">
        <ele>863</ele>
        <time>2019-05-15T10:52:56.082Z</time>
      </trkpt>
      <trkpt lat="48.44565" lon="7.10943">
        <ele>863</ele>
        <time>2019-05-15T10:52:57.082Z</time>
      </trkpt>
      <trkpt lat="48.44566" lon="7.10944">
        <ele>862</ele>
        <time>2019-05-15T10:52:58.082Z</time>
      </trkpt>
      <trkpt lat="48.44567" lon="7.10944">
        <ele>862</ele>
        <time>2019-05-15T10:52:59.082Z</time>
      </trkpt>
      <trkpt lat="48.44568" lon="7.10944">
        <ele>862</ele>
        <time>2019-05-15T10:53:00.082Z</time>
      </trkpt>
      <trkpt lat="48.44569" lon="7.10944">
        <ele>862</ele>
        <time>2019-05-15T10:53:01.082Z</time>
      </trkpt>
      <trkpt lat="48.4457" lon="7.10944">
        <ele>862</ele>
        <time>2019-05-15T10:53:02.082Z</time>
      </trkpt>
      <trkpt lat="48.44571" lon="7.10944">
        <ele>861</ele>
        <time>2019-05-15T10:53:03.082Z</time>
      </trkpt>
      <trkpt lat="48.44572" lon="7.10944">
        <ele>861</ele>
        <time>2019-05-15T10:53:04.082Z</time>
      </trkpt>
      <trkpt lat="48.44573" lon="7.10945">
        <ele>861</ele>
        <time>2019-05-15T10:53:05.082Z</time>
      </trkpt>
      <trkpt lat="48.44574" lon="7.10945">
        <ele>861</ele>
        <time>2019-05-15T10:53:06.082Z</time>
      </trkpt>
      <trkpt lat="48.44575" lon="7.10945">
        <ele>861</ele>
        <time>2019-05-15T10:53:07.082Z</time>
      </trkpt>
      <trkpt lat="48.44577" lon="7.10945">
        <ele>861</ele>
        <time>2019-05-15T10:53:08.082Z</time>
      </trkpt>
      <trkpt lat="48.44578" lon="7.10945">
        <ele>861</ele>
        <time>2019-05-15T10:53:09.082Z</time>
      </trkpt>
      <trkpt lat="48.44579" lon="7.10945">
        <ele>861</ele>
        <time>2019-05-15T10:53:10.082Z</time>
      </trkpt>
      <trkpt lat="48.4458" lon="7.10946">
        <ele>861</ele>
        <time>2019-05-15T10:53:11.082Z</time>
      </trkpt>
      <trkpt lat="48.44581" lon="7.10946">
        <ele>861</ele>
        <time>2019-05-15T10:53:12.082Z</time>
      </trkpt>
      <trkpt lat="48.44582" lon="7.10946">
        <ele>861</ele>
        <time>2019-05-15T10:53:13.082Z</time>
      </trkpt>
      <trkpt lat="48.44583" lon="7.10946">
        <ele>861</ele>
        <time>2019-05-15T10:53:14.082Z</time>
      </trkpt>
      <trkpt lat="48.44584" lon="7.10947">
        <ele>861</ele>
        <time>2019-05-15T10:53:15.082Z</time>
      </trkpt>
      <trkpt lat="48.44585" lon="7.10947">
        <ele>861</ele>
        <time>2019-05-15T10:53:16.082Z</time>
      </trkpt>
      <trkpt lat="48.44586" lon="7.10947">
        <ele>861</ele>
        <time>2019-05-15T10:53:17.082Z</time>
      </trkpt>
      <trkpt lat="48.44587" lon="7.10948">
        <ele>861</ele>
        <time>2019-05-15T10:53:18.082Z</time>
      </trkpt>
      <trkpt lat="48.44588" lon="7.10948">
        <ele>861</ele>
        <time>2019-05-15T10:53:19.082Z</time>
      </trkpt>
      <trkpt lat="48.44589" lon="7.10948">
        <ele>861</ele>
        <time>2019-05-15T10:53:20.082Z</time>
      </trkpt>
      <trkpt lat="48.4459" lon="7.10948">
        <ele>861</ele>
        <time>2019-05-15T10:53:21.082Z</time>
      </trkpt>
      <trkpt lat="48.44591" lon="7.10948">
        <ele>862</ele>
        <time>2019-05-15T10:53:22.082Z</time>
      </trkpt>
      <trkpt lat="48.44592" lon="7.10948">
        <ele>862</ele>
        <time>2019-05-15T10:53:23.082Z</time>
      </trkpt>
      <trkpt lat="48.44593" lon="7.10948">
        <ele>861</ele>
        <time>2019-05-15T10:53:24.082Z</time>
      </trkpt>
      <trkpt lat="48.44594" lon="7.10948">
        <ele>862</ele>
        <time>2019-05-15T10:53:25.082Z</time>
      </trkpt>
      <trkpt lat="48.44595" lon="7.10948">
        <ele>862</ele>
        <time>2019-05-15T10:53:26.082Z</time>
      </trkpt>
      <trkpt lat="48.44596" lon="7.10948">
        <ele>861</ele>
        <time>2019-05-15T10:53:27.082Z</time>
      </trkpt>
      <trkpt lat="48.44597" lon="7.10949">
        <ele>862</ele>
        <time>2019-05-15T10:53:28.082Z</time>
      </trkpt>
      <trkpt lat="48.44598" lon="7.10949">
        <ele>861</ele>
        <time>2019-05-15T10:53:29.082Z</time>
      </trkpt>
      <trkpt lat="48.44599" lon="7.10949">
        <ele>861</ele>
        <time>2019-05-15T10:53:30.082Z</time>
      </trkpt>
      <trkpt lat="48.446" lon="7.10949">
        <ele>861</ele>
        <time>2019-05-15T10:53:31.082Z</time>
      </trkpt>
      <trkpt lat="48.44601" lon="7.10949">
        <ele>861</ele>
        <time>2019-05-15T10:53:32.082Z</time>
      </trkpt>
      <trkpt lat="48.44602" lon="7.1095">
        <ele>861</ele>
        <time>2019-05-15T10:53:33.082Z</time>
      </trkpt>
      <trkpt lat="48.44603" lon="7.1095">
        <ele>861</ele>
        <time>2019-05-15T10:53:34.082Z</time>
      </trkpt>
      <trkpt lat="48.44604" lon="7.1095">
        <ele>861</ele>
        <time>2019-05-15T10:53:35.082Z</time>
      </trkpt>
      <trkpt lat="48.44605" lon="7.1095">
        <ele>861</ele>
        <time>2019-05-15T10:53:36.082Z</time>
      </trkpt>
      <trkpt lat="48.44606" lon="7.10951">
        <ele>861</ele>
        <time>2019-05-15T10:53:37.082Z</time>
      </trkpt>
      <trkpt lat="48.44607" lon="7.10951">
        <ele>861</ele>
        <time>2019-05-15T10:53:38.082Z</time>
      </trkpt>
      <trkpt lat="48.44608" lon="7.10951">
        <ele>861</ele>
        <time>2019-05-15T10:53:39.082Z</time>
      </trkpt>
      <trkpt lat="48.44609" lon="7.10952">
        <ele>860</ele>
        <time>2019-05-15T10:53:40.082Z</time>
      </trkpt>
      <trkpt lat="48.4461" lon="7.10952">
        <ele>861</ele>
        <time>2019-05-15T10:53:41.082Z</time>
      </trkpt>
      <trkpt lat="48.44611" lon="7.10952">
        <ele>861</ele>
        <time>2019-05-15T10:53:42.082Z</time>
      </trkpt>
      <trkpt lat="48.44612" lon="7.10953">
        <ele>861</ele>
        <time>2019-05-15T10:53:43.082Z</time>
      </trkpt>
      <trkpt lat="48.44613" lon="7.10953">
        <ele>860</ele>
        <time>2019-05-15T10:53:44.082Z</time>
      </trkpt>
      <trkpt lat="48.44614" lon="7.10953">
        <ele>860</ele>
        <time>2019-05-15T10:53:45.082Z</time>
      </trkpt>
      <trkpt lat="48.44615" lon="7.10953">
        <ele>861</ele>
        <time>2019-05-15T10:53:46.082Z</time>
      </trkpt>
      <trkpt lat="48.44615" lon="7.10953">
        <ele>861</ele>
        <time>2019-05-15T10:53:47.082Z</time>
      </trkpt>
      <trkpt lat="48.44616" lon="7.10953">
        <ele>861</ele>
        <time>2019-05-15T10:53:48.082Z</time>
      </trkpt>
      <trkpt lat="48.44617" lon="7.10954">
        <ele>861</ele>
        <time>2019-05-15T10:53:49.082Z</time>
      </trkpt>
      <trkpt lat="48.44618" lon="7.10954">
        <ele>861</ele>
        <time>2019-05-15T10:53:50.082Z</time>
      </trkpt>
      <trkpt lat="48.44619" lon="7.10954">
        <ele>861</ele>
        <time>2019-05-15T10:53:51.082Z</time>
      </trkpt>
      <trkpt lat="48.4462" lon="7.10954">
        <ele>860</ele>
        <time>2019-05-15T10:53:52.082Z</time>
      </trkpt>
      <trkpt lat="48.44621" lon="7.10955">
        <ele>860</ele>
        <time>2019-05-15T10:53:53.082Z</time>
      </trkpt>
      <trkpt lat="48.44622" lon="7.10955">
        <ele>860</ele>
        <time>2019-05-15T10:53:54.082Z</time>
      </trkpt>
      <trkpt lat="48.44623" lon="7.10955">
        <ele>861</ele>
        <time>2019-05-15T10:53:55.082Z</time>
      </trkpt>
      <trkpt lat="48.44624" lon="7.10956">
        <ele>860</ele>
        <time>2019-05-15T10:53:56.082Z</time>
      </trkpt>
      <trkpt lat="48.44625" lon="7.10956">
        <ele>861</ele>
        <time>2019-05-15T10:53:57.082Z</time>
      </trkpt>
      <trkpt lat="48.44626" lon="7.10956">
        <ele>861</ele>
        <time>2019-05-15T10:53:58.082Z</time>
      </trkpt>
      <trkpt lat="48.44626" lon="7.10956">
        <ele>861</ele>
        <time>2019-05-15T10:53:59.082Z</time>
      </trkpt>
      <trkpt lat="48.44627" lon="7.10957">
        <ele>861</ele>
        <time>2019-05-15T10:54:00.082Z</time>
      </trkpt>
      <trkpt lat="48.44628" lon="7.10957">
        <ele>861</ele>
        <time>2019-05-15T10:54:01.082Z</time>
      </trkpt>
      <trkpt lat="48.4463" lon="7.10957">
        <ele>860</ele>
        <time>2019-05-15T10:54:02.082Z</time>
      </trkpt>
      <trkpt lat="48.44631" lon="7.10957">
        <ele>860</ele>
        <time>2019-05-15T10:54:03.082Z</time>
      </trkpt>
      <trkpt lat="48.44631" lon="7.10958">
        <ele>861</ele>
        <time>2019-05-15T10:54:04.082Z</time>
      </trkpt>
      <trkpt lat="48.44632" lon="7.10958">
        <ele>861</ele>
        <time>2019-05-15T10:54:05.082Z</time>
      </trkpt>
      <trkpt lat="48.44633" lon="7.10958">
        <ele>861</ele>
        <time>2019-05-15T10:54:06.082Z</time>
      </trkpt>
      <trkpt lat="48.44634" lon="7.10958">
        <ele>861</ele>
        <time>2019-05-15T10:54:07.082Z</time>
      </trkpt>
      <trkpt lat="48.44635" lon="7.10958">
        <ele>861</ele>
        <time>2019-05-15T10:54:08.082Z</time>
      </trkpt>
      <trkpt lat="48.44636" lon="7.10958">
        <ele>861</ele>
        <time>2019-05-15T10:54:09.082Z</time>
      </trkpt>
      <trkpt lat="48.44637" lon="7.10959">
        <ele>861</ele>
        <time>2019-05-15T10:54:10.082Z</time>
      </trkpt>
      <trkpt lat="48.44638" lon="7.10959">
        <ele>860</ele>
        <time>2019-05-15T10:54:11.082Z</time>
      </trkpt>
      <trkpt lat="48.44638" lon="7.10959">
        <ele>860</ele>
        <time>2019-05-15T10:54:12.082Z</time>
      </trkpt>
      <trkpt lat="48.44639" lon="7.10959">
        <ele>860</ele>
        <time>2019-05-15T10:54:13.082Z</time>
      </trkpt>
      <trkpt lat="48.4464" lon="7.1096">
        <ele>860</ele>
        <time>2019-05-15T10:54:14.082Z</time>
      </trkpt>
      <trkpt lat="48.4464" lon="7.1096">
        <ele>860</ele>
        <time>2019-05-15T10:54:15.082Z</time>
      </trkpt>
      <trkpt lat="48.44641" lon="7.1096">
        <ele>860</ele>
        <time>2019-05-15T10:54:16.082Z</time>
      </trkpt>
      <trkpt lat="48.44642" lon="7.1096">
        <ele>859</ele>
        <time>2019-05-15T10:54:17.082Z</time>
      </trkpt>
      <trkpt lat="48.44643" lon="7.1096">
        <ele>860</ele>
        <time>2019-05-15T10:54:18.082Z</time>
      </trkpt>
      <trkpt lat="48.44644" lon="7.10961">
        <ele>859</ele>
        <time>2019-05-15T10:54:19.082Z</time>
      </trkpt>
      <trkpt lat="48.44646" lon="7.10962">
        <ele>859</ele>
        <time>2019-05-15T10:54:20.082Z</time>
      </trkpt>
      <trkpt lat="48.44647" lon="7.10962">
        <ele>858</ele>
        <time>2019-05-15T10:54:21.082Z</time>
      </trkpt>
      <trkpt lat="48.44648" lon="7.10963">
        <ele>858</ele>
        <time>2019-05-15T10:54:22.082Z</time>
      </trkpt>
      <trkpt lat="48.44648" lon="7.10963">
        <ele>859</ele>
        <time>2019-05-15T10:54:23.082Z</time>
      </trkpt>
      <trkpt lat="48.44649" lon="7.10963">
        <ele>859</ele>
        <time>2019-05-15T10:54:24.082Z</time>
      </trkpt>
      <trkpt lat="48.4465" lon="7.10964">
        <ele>859</ele>
        <time>2019-05-15T10:54:25.082Z</time>
      </trkpt>
      <trkpt lat="48.44651" lon="7.10964">
        <ele>858</ele>
        <time>2019-05-15T10:54:26.082Z</time>
      </trkpt>
      <trkpt lat="48.44652" lon="7.10964">
        <ele>857</ele>
        <time>2019-05-15T10:54:27.082Z</time>
      </trkpt>
      <trkpt lat="48.44653" lon="7.10964">
        <ele>857</ele>
        <time>2019-05-15T10:54:28.082Z</time>
      </trkpt>
      <trkpt lat="48.44654" lon="7.10964">
        <ele>857</ele>
        <time>2019-05-15T10:54:29.082Z</time>
      </trkpt>
      <trkpt lat="48.44655" lon="7.10965">
        <ele>857</ele>
        <time>2019-05-15T10:54:30.082Z</time>
      </trkpt>
      <trkpt lat="48.44656" lon="7.10965">
        <ele>857</ele>
        <time>2019-05-15T10:54:31.082Z</time>
      </trkpt>
      <trkpt lat="48.44657" lon="7.10965">
        <ele>857</ele>
        <time>2019-05-15T10:54:32.082Z</time>
      </trkpt>
      <trkpt lat="48.44658" lon="7.10965">
        <ele>858</ele>
        <time>2019-05-15T10:54:33.082Z</time>
      </trkpt>
      <trkpt lat="48.44659" lon="7.10966">
        <ele>858</ele>
        <time>2019-05-15T10:54:34.082Z</time>
      </trkpt>
      <trkpt lat="48.4466" lon="7.10966">
        <ele>859</ele>
        <time>2019-05-15T10:54:35.082Z</time>
      </trkpt>
      <trkpt lat="48.44661" lon="7.10966">
        <ele>859</ele>
        <time>2019-05-15T10:54:36.082Z</time>
      </trkpt>
      <trkpt lat="48.44662" lon="7.10966">
        <ele>859</ele>
        <time>2019-05-15T10:54:37.082Z</time>
      </trkpt>
      <trkpt lat="48.44663" lon="7.10966">
        <ele>860</ele>
        <time>2019-05-15T10:54:38.082Z</time>
      </trkpt>
      <trkpt lat="48.44664" lon="7.10966">
        <ele>859</ele>
        <time>2019-05-15T10:54:39.082Z</time>
      </trkpt>
      <trkpt lat="48.44665" lon="7.10966">
        <ele>860</ele>
        <time>2019-05-15T10:54:40.082Z</time>
      </trkpt>
      <trkpt lat="48.44666" lon="7.10966">
        <ele>860</ele>
        <time>2019-05-15T10:54:41.082Z</time>
      </trkpt>
      <trkpt lat="48.44667" lon="7.10966">
        <ele>860</ele>
        <time>2019-05-15T10:54:42.082Z</time>
      </trkpt>
      <trkpt lat="48.44668" lon="7.10967">
        <ele>859</ele>
        <time>2019-05-15T10:54:43.082Z</time>
      </trkpt>
      <trkpt lat="48.44669" lon="7.10967">
        <ele>859</ele>
        <time>2019-05-15T10:54:44.082Z</time>
      </trkpt>
      <trkpt lat="48.4467" lon="7.10967">
        <ele>859</ele>
        <time>2019-05-15T10:54:45.082Z</time>
      </trkpt>
      <trkpt lat="48.44671" lon="7.10967">
        <ele>859</ele>
        <time>2019-05-15T10:54:46.082Z</time>
      </trkpt>
      <trkpt lat="48.44673" lon="7.10967">
        <ele>859</ele>
        <time>2019-05-15T10:54:47.082Z</time>
      </trkpt>
      <trkpt lat="48.44674" lon="7.10967">
        <ele>859</ele>
        <time>2019-05-15T10:54:48.082Z</time>
      </trkpt>
      <trkpt lat="48.44675" lon="7.10968">
        <ele>858</ele>
        <time>2019-05-15T10:54:49.082Z</time>
      </trkpt>
      <trkpt lat="48.44676" lon="7.10969">
        <ele>858</ele>
        <time>2019-05-15T10:54:50.082Z</time>
      </trkpt>
      <trkpt lat="48.44678" lon="7.10969">
        <ele>858</ele>
        <time>2019-05-15T10:54:51.082Z</time>
      </trkpt>
      <trkpt lat="48.44679" lon="7.1097">
        <ele>858</ele>
        <time>2019-05-15T10:54:52.082Z</time>
      </trkpt>
      <trkpt lat="48.4468" lon="7.1097">
        <ele>857</ele>
        <time>2019-05-15T10:54:53.082Z</time>
      </trkpt>
      <trkpt lat="48.44682" lon="7.10971">
        <ele>857</ele>
        <time>2019-05-15T10:54:54.082Z</time>
      </trkpt>
      <trkpt lat="48.44683" lon="7.10971">
        <ele>856</ele>
        <time>2019-05-15T10:54:55.082Z</time>
      </trkpt>
      <trkpt lat="48.44684" lon="7.10972">
        <ele>856</ele>
        <time>2019-05-15T10:54:56.082Z</time>
      </trkpt>
      <trkpt lat="48.44685" lon="7.10972">
        <ele>856</ele>
        <time>2019-05-15T10:54:57.082Z</time>
      </trkpt>
      <trkpt lat="48.44687" lon="7.10972">
        <ele>856</ele>
        <time>2019-05-15T10:54:58.082Z</time>
      </trkpt>
      <trkpt lat="48.44688" lon="7.10973">
        <ele>856</ele>
        <time>2019-05-15T10:54:59.082Z</time>
      </trkpt>
      <trkpt lat="48.44689" lon="7.10973">
        <ele>856</ele>
        <time>2019-05-15T10:55:00.082Z</time>
      </trkpt>
      <trkpt lat="48.4469" lon="7.10973">
        <ele>856</ele>
        <time>2019-05-15T10:55:01.082Z</time>
      </trkpt>
      <trkpt lat="48.4469" lon="7.10973">
        <ele>856</ele>
        <time>2019-05-15T10:55:02.082Z</time>
      </trkpt>
      <trkpt lat="48.44691" lon="7.10973">
        <ele>856</ele>
        <time>2019-05-15T10:55:03.082Z</time>
      </trkpt>
      <trkpt lat="48.44692" lon="7.10973">
        <ele>857</ele>
        <time>2019-05-15T10:55:04.082Z</time>
      </trkpt>
      <trkpt lat="48.44693" lon="7.10972">
        <ele>857</ele>
        <time>2019-05-15T10:55:05.082Z</time>
      </trkpt>
      <trkpt lat="48.44694" lon="7.10972">
        <ele>857</ele>
        <time>2019-05-15T10:55:06.082Z</time>
      </trkpt>
      <trkpt lat="48.44695" lon="7.10971">
        <ele>857</ele>
        <time>2019-05-15T10:55:07.082Z</time>
      </trkpt>
      <trkpt lat="48.44695" lon="7.10971">
        <ele>857</ele>
        <time>2019-05-15T10:55:08.082Z</time>
      </trkpt>
      <trkpt lat="48.44696" lon="7.10971">
        <ele>857</ele>
        <time>2019-05-15T10:55:09.082Z</time>
      </trkpt>
      <trkpt lat="48.44697" lon="7.10971">
        <ele>857</ele>
        <time>2019-05-15T10:55:10.082Z</time>
      </trkpt>
      <trkpt lat="48.44698" lon="7.10971">
        <ele>857</ele>
        <time>2019-05-15T10:55:11.082Z</time>
      </trkpt>
      <trkpt lat="48.44699" lon="7.10972">
        <ele>857</ele>
        <time>2019-05-15T10:55:12.082Z</time>
      </trkpt>
      <trkpt lat="48.447" lon="7.10971">
        <ele>857</ele>
        <time>2019-05-15T10:55:13.082Z</time>
      </trkpt>
      <trkpt lat="48.44701" lon="7.10971">
        <ele>857</ele>
        <time>2019-05-15T10:55:14.082Z</time>
      </trkpt>
      <trkpt lat="48.44703" lon="7.10971">
        <ele>857</ele>
        <time>2019-05-15T10:55:15.082Z</time>
      </trkpt>
      <trkpt lat="48.44703" lon="7.10971">
        <ele>857</ele>
        <time>2019-05-15T10:55:16.082Z</time>
      </trkpt>
      <trkpt lat="48.44704" lon="7.10971">
        <ele>856</ele>
        <time>2019-05-15T10:55:17.082Z</time>
      </trkpt>
      <trkpt lat="48.44705" lon="7.10971">
        <ele>856</ele>
        <time>2019-05-15T10:55:18.082Z</time>
      </trkpt>
      <trkpt lat="48.44706" lon="7.10971">
        <ele>856</ele>
        <time>2019-05-15T10:55:19.082Z</time>
      </trkpt>
      <trkpt lat="48.44707" lon="7.10971">
        <ele>856</ele>
        <time>2019-05-15T10:55:20.082Z</time>
      </trkpt>
      <trkpt lat="48.44708" lon="7.10971">
        <ele>856</ele>
        <time>2019-05-15T10:55:21.082Z</time>
      </trkpt>
      <trkpt lat="48.44709" lon="7.10971">
        <ele>856</ele>
        <time>2019-05-15T10:55:22.082Z</time>
      </trkpt>
      <trkpt lat="48.4471" lon="7.10971">
        <ele>855</ele>
        <time>2019-05-15T10:55:23.082Z</time>
      </trkpt>
      <trkpt lat="48.44711" lon="7.10971">
        <ele>855</ele>
        <time>2019-05-15T10:55:24.082Z</time>
      </trkpt>
      <trkpt lat="48.44712" lon="7.10972">
        <ele>855</ele>
        <time>2019-05-15T10:55:25.082Z</time>
      </trkpt>
      <trkpt lat="48.44713" lon="7.10972">
        <ele>855</ele>
        <time>2019-05-15T10:55:26.082Z</time>
      </trkpt>
      <trkpt lat="48.44715" lon="7.10973">
        <ele>854</ele>
        <time>2019-05-15T10:55:27.082Z</time>
      </trkpt>
      <trkpt lat="48.44716" lon="7.10974">
        <ele>854</ele>
        <time>2019-05-15T10:55:28.082Z</time>
      </trkpt>
      <trkpt lat="48.44717" lon="7.10974">
        <ele>853</ele>
        <time>2019-05-15T10:55:29.082Z</time>
      </trkpt>
      <trkpt lat="48.44718" lon="7.10974">
        <ele>853</ele>
        <time>2019-05-15T10:55:30.082Z</time>
      </trkpt>
      <trkpt lat="48.44719" lon="7.10974">
        <ele>853</ele>
        <time>2019-05-15T10:55:31.082Z</time>
      </trkpt>
      <trkpt lat="48.4472" lon="7.10974">
        <ele>853</ele>
        <time>2019-05-15T10:55:32.082Z</time>
      </trkpt>
      <trkpt lat="48.44721" lon="7.10975">
        <ele>852</ele>
        <time>2019-05-15T10:55:33.082Z</time>
      </trkpt>
      <trkpt lat="48.44722" lon="7.10975">
        <ele>852</ele>
        <time>2019-05-15T10:55:34.082Z</time>
      </trkpt>
      <trkpt lat="48.44723" lon="7.10975">
        <ele>852</ele>
        <time>2019-05-15T10:55:35.082Z</time>
      </trkpt>
      <trkpt lat="48.44724" lon="7.10975">
        <ele>852</ele>
        <time>2019-05-15T10:55:36.082Z</time>
      </trkpt>
      <trkpt lat="48.44725" lon="7.10976">
        <ele>852</ele>
        <time>2019-05-15T10:55:37.082Z</time>
      </trkpt>
      <trkpt lat="48.44726" lon="7.10976">
        <ele>852</ele>
        <time>2019-05-15T10:55:38.082Z</time>
      </trkpt>
      <trkpt lat="48.44727" lon="7.10976">
        <ele>853</ele>
        <time>2019-05-15T10:55:39.082Z</time>
      </trkpt>
      <trkpt lat="48.44728" lon="7.10976">
        <ele>853</ele>
        <time>2019-05-15T10:55:40.082Z</time>
      </trkpt>
      <trkpt lat="48.44729" lon="7.10977">
        <ele>853</ele>
        <time>2019-05-15T10:55:41.082Z</time>
      </trkpt>
      <trkpt lat="48.4473" lon="7.10977">
        <ele>853</ele>
        <time>2019-05-15T10:55:42.082Z</time>
      </trkpt>
      <trkpt lat="48.44731" lon="7.10977">
        <ele>853</ele>
        <time>2019-05-15T10:55:43.082Z</time>
      </trkpt>
      <trkpt lat="48.44732" lon="7.10978">
        <ele>852</ele>
        <time>2019-05-15T10:55:44.082Z</time>
      </trkpt>
      <trkpt lat="48.44733" lon="7.10978">
        <ele>852</ele>
        <time>2019-05-15T10:55:45.082Z</time>
      </trkpt>
      <trkpt lat="48.44734" lon="7.10978">
        <ele>852</ele>
        <time>2019-05-15T10:55:46.082Z</time>
      </trkpt>
      <trkpt lat="48.44735" lon="7.10979">
        <ele>851</ele>
        <time>2019-05-15T10:55:47.082Z</time>
      </trkpt>
      <trkpt lat="48.44736" lon="7.10979">
        <ele>851</ele>
        <time>2019-05-15T10:55:48.082Z</time>
      </trkpt>
      <trkpt lat="48.44737" lon="7.10979">
        <ele>851</ele>
        <time>2019-05-15T10:55:49.082Z</time>
      </trkpt>
      <trkpt lat="48.44738" lon="7.1098">
        <ele>851</ele>
        <time>2019-05-15T10:55:50.082Z</time>
      </trkpt>
      <trkpt lat="48.44739" lon="7.1098">
        <ele>851</ele>
        <time>2019-05-15T10:55:51.082Z</time>
      </trkpt>
      <trkpt lat="48.4474" lon="7.1098">
        <ele>851</ele>
        <time>2019-05-15T10:55:52.082Z</time>
      </trkpt>
      <trkpt lat="48.44741" lon="7.1098">
        <ele>851</ele>
        <time>2019-05-15T10:55:53.082Z</time>
      </trkpt>
      <trkpt lat="48.44742" lon="7.10981">
        <ele>851</ele>
        <time>2019-05-15T10:55:54.082Z</time>
      </trkpt>
      <trkpt lat="48.44743" lon="7.10981">
        <ele>851</ele>
        <time>2019-05-15T10:55:55.082Z</time>
      </trkpt>
      <trkpt lat="48.44744" lon="7.10981">
        <ele>851</ele>
        <time>2019-05-15T10:55:56.082Z</time>
      </trkpt>
      <trkpt lat="48.44745" lon="7.10982">
        <ele>850</ele>
        <time>2019-05-15T10:55:57.082Z</time>
      </trkpt>
      <trkpt lat="48.44746" lon="7.10983">
        <ele>850</ele>
        <time>2019-05-15T10:55:58.082Z</time>
      </trkpt>
      <trkpt lat="48.44747" lon="7.10983">
        <ele>850</ele>
        <time>2019-05-15T10:55:59.082Z</time>
      </trkpt>
      <trkpt lat="48.44748" lon="7.10983">
        <ele>850</ele>
        <time>2019-05-15T10:56:00.082Z</time>
      </trkpt>
      <trkpt lat="48.44749" lon="7.10983">
        <ele>850</ele>
        <time>2019-05-15T10:56:01.082Z</time>
      </trkpt>
      <trkpt lat="48.4475" lon="7.10984">
        <ele>851</ele>
        <time>2019-05-15T10:56:02.082Z</time>
      </trkpt>
      <trkpt lat="48.4475" lon="7.10984">
        <ele>851</ele>
        <time>2019-05-15T10:56:03.082Z</time>
      </trkpt>
      <trkpt lat="48.44751" lon="7.10984">
        <ele>851</ele>
        <time>2019-05-15T10:56:04.082Z</time>
      </trkpt>
      <trkpt lat="48.44753" lon="7.10984">
        <ele>850</ele>
        <time>2019-05-15T10:56:05.082Z</time>
      </trkpt>
      <trkpt lat="48.44754" lon="7.10984">
        <ele>850</ele>
        <time>2019-05-15T10:56:06.082Z</time>
      </trkpt>
      <trkpt lat="48.44755" lon="7.10985">
        <ele>850</ele>
        <time>2019-05-15T10:56:07.082Z</time>
      </trkpt>
      <trkpt lat="48.44756" lon="7.10985">
        <ele>850</ele>
        <time>2019-05-15T10:56:08.082Z</time>
      </trkpt>
      <trkpt lat="48.44757" lon="7.10985">
        <ele>851</ele>
        <time>2019-05-15T10:56:09.082Z</time>
      </trkpt>
      <trkpt lat="48.44758" lon="7.10985">
        <ele>851</ele>
        <time>2019-05-15T10:56:10.082Z</time>
      </trkpt>
      <trkpt lat="48.44759" lon="7.10985">
        <ele>850</ele>
        <time>2019-05-15T10:56:11.082Z</time>
      </trkpt>
      <trkpt lat="48.4476" lon="7.10985">
        <ele>850</ele>
        <time>2019-05-15T10:56:12.082Z</time>
      </trkpt>
      <trkpt lat="48.44761" lon="7.10985">
        <ele>850</ele>
        <time>2019-05-15T10:56:13.082Z</time>
      </trkpt>
      <trkpt lat="48.44762" lon="7.10985">
        <ele>849</ele>
        <time>2019-05-15T10:56:14.082Z</time>
      </trkpt>
      <trkpt lat="48.44763" lon="7.10986">
        <ele>849</ele>
        <time>2019-05-15T10:56:15.082Z</time>
      </trkpt>
      <trkpt lat="48.44764" lon="7.10986">
        <ele>849</ele>
        <time>2019-05-15T10:56:16.082Z</time>
      </trkpt>
      <trkpt lat="48.44764" lon="7.10987">
        <ele>849</ele>
        <time>2019-05-15T10:56:17.082Z</time>
      </trkpt>
      <trkpt lat="48.44765" lon="7.10987">
        <ele>849</ele>
        <time>2019-05-15T10:56:18.082Z</time>
      </trkpt>
      <trkpt lat="48.44766" lon="7.10987">
        <ele>849</ele>
        <time>2019-05-15T10:56:19.082Z</time>
      </trkpt>
      <trkpt lat="48.44767" lon="7.10987">
        <ele>848</ele>
        <time>2019-05-15T10:56:20.082Z</time>
      </trkpt>
      <trkpt lat="48.44767" lon="7.10987">
        <ele>848</ele>
        <time>2019-05-15T10:56:21.082Z</time>
      </trkpt>
      <trkpt lat="48.44768" lon="7.10988">
        <ele>848</ele>
        <time>2019-05-15T10:56:22.082Z</time>
      </trkpt>
      <trkpt lat="48.44769" lon="7.10988">
        <ele>848</ele>
        <time>2019-05-15T10:56:23.082Z</time>
      </trkpt>
      <trkpt lat="48.4477" lon="7.10989">
        <ele>848</ele>
        <time>2019-05-15T10:56:24.082Z</time>
      </trkpt>
      <trkpt lat="48.44771" lon="7.10989">
        <ele>848</ele>
        <time>2019-05-15T10:56:25.082Z</time>
      </trkpt>
      <trkpt lat="48.44773" lon="7.10989">
        <ele>847</ele>
        <time>2019-05-15T10:56:26.082Z</time>
      </trkpt>
      <trkpt lat="48.44774" lon="7.1099">
        <ele>847</ele>
        <time>2019-05-15T10:56:27.082Z</time>
      </trkpt>
      <trkpt lat="48.44775" lon="7.1099">
        <ele>847</ele>
        <time>2019-05-15T10:56:28.082Z</time>
      </trkpt>
      <trkpt lat="48.44775" lon="7.1099">
        <ele>847</ele>
        <time>2019-05-15T10:56:29.082Z</time>
      </trkpt>
      <trkpt lat="48.44776" lon="7.1099">
        <ele>847</ele>
        <time>2019-05-15T10:56:30.082Z</time>
      </trkpt>
      <trkpt lat="48.44777" lon="7.1099">
        <ele>848</ele>
        <time>2019-05-15T10:56:31.082Z</time>
      </trkpt>
      <trkpt lat="48.44777" lon="7.1099">
        <ele>849</ele>
        <time>2019-05-15T10:56:32.082Z</time>
      </trkpt>
      <trkpt lat="48.44778" lon="7.10991">
        <ele>849</ele>
        <time>2019-05-15T10:56:33.082Z</time>
      </trkpt>
      <trkpt lat="48.44779" lon="7.10991">
        <ele>849</ele>
        <time>2019-05-15T10:56:34.082Z</time>
      </trkpt>
      <trkpt lat="48.4478" lon="7.10991">
        <ele>848</ele>
        <time>2019-05-15T10:56:35.082Z</time>
      </trkpt>
      <trkpt lat="48.44781" lon="7.10991">
        <ele>848</ele>
        <time>2019-05-15T10:56:36.082Z</time>
      </trkpt>
      <trkpt lat="48.44782" lon="7.10991">
        <ele>848</ele>
        <time>2019-05-15T10:56:37.082Z</time>
      </trkpt>
      <trkpt lat="48.44783" lon="7.10992">
        <ele>848</ele>
        <time>2019-05-15T10:56:38.082Z</time>
      </trkpt>
      <trkpt lat="48.44784" lon="7.10992">
        <ele>848</ele>
        <time>2019-05-15T10:56:39.082Z</time>
      </trkpt>
      <trkpt lat="48.44785" lon="7.10992">
        <ele>848</ele>
        <time>2019-05-15T10:56:40.082Z</time>
      </trkpt>
      <trkpt lat="48.44786" lon="7.10992">
        <ele>848</ele>
        <time>2019-05-15T10:56:41.082Z</time>
      </trkpt>
      <trkpt lat="48.44787" lon="7.10992">
        <ele>848</ele>
        <time>2019-05-15T10:56:42.082Z</time>
      </trkpt>
      <trkpt lat="48.44788" lon="7.10993">
        <ele>848</ele>
        <time>2019-05-15T10:56:43.082Z</time>
      </trkpt>
      <trkpt lat="48.44789" lon="7.10993">
        <ele>847</ele>
        <time>2019-05-15T10:56:44.082Z</time>
      </trkpt>
      <trkpt lat="48.4479" lon="7.10993">
        <ele>847</ele>
        <time>2019-05-15T10:56:45.082Z</time>
      </trkpt>
      <trkpt lat="48.44792" lon="7.10993">
        <ele>847</ele>
        <time>2019-05-15T10:56:46.082Z</time>
      </trkpt>
      <trkpt lat="48.44793" lon="7.10994">
        <ele>847</ele>
        <time>2019-05-15T10:56:47.082Z</time>
      </trkpt>
      <trkpt lat="48.44794" lon="7.10995">
        <ele>847</ele>
        <time>2019-05-15T10:56:48.082Z</time>
      </trkpt>
      <trkpt lat="48.44795" lon="7.10996">
        <ele>846</ele>
        <time>2019-05-15T10:56:49.082Z</time>
      </trkpt>
      <trkpt lat="48.44796" lon="7.10996">
        <ele>846</ele>
        <time>2019-05-15T10:56:50.082Z</time>
      </trkpt>
      <trkpt lat="48.44796" lon="7.10997">
        <ele>846</ele>
        <time>2019-05-15T10:56:51.082Z</time>
      </trkpt>
      <trkpt lat="48.44797" lon="7.10997">
        <ele>846</ele>
        <time>2019-05-15T10:56:52.082Z</time>
      </trkpt>
      <trkpt lat="48.44798" lon="7.10997">
        <ele>845</ele>
        <time>2019-05-15T10:56:53.082Z</time>
      </trkpt>
      <trkpt lat="48.44799" lon="7.10998">
        <ele>845</ele>
        <time>2019-05-15T10:56:54.082Z</time>
      </trkpt>
      <trkpt lat="48.448" lon="7.10998">
        <ele>845</ele>
        <time>2019-05-15T10:56:55.082Z</time>
      </trkpt>
      <trkpt lat="48.44801" lon="7.10998">
        <ele>845</ele>
        <time>2019-05-15T10:56:56.082Z</time>
      </trkpt>
      <trkpt lat="48.44802" lon="7.10999">
        <ele>845</ele>
        <time>2019-05-15T10:56:57.082Z</time>
      </trkpt>
      <trkpt lat="48.44802" lon="7.10999">
        <ele>845</ele>
        <time>2019-05-15T10:56:58.082Z</time>
      </trkpt>
      <trkpt lat="48.44803" lon="7.10999">
        <ele>844</ele>
        <time>2019-05-15T10:56:59.082Z</time>
      </trkpt>
      <trkpt lat="48.44804" lon="7.11">
        <ele>844</ele>
        <time>2019-05-15T10:57:00.082Z</time>
      </trkpt>
      <trkpt lat="48.44805" lon="7.11">
        <ele>844</ele>
        <time>2019-05-15T10:57:01.082Z</time>
      </trkpt>
      <trkpt lat="48.44806" lon="7.11">
        <ele>844</ele>
        <time>2019-05-15T10:57:02.082Z</time>
      </trkpt>
      <trkpt lat="48.44807" lon="7.11001">
        <ele>844</ele>
        <time>2019-05-15T10:57:03.082Z</time>
      </trkpt>
      <trkpt lat="48.44808" lon="7.11001">
        <ele>843</ele>
        <time>2019-05-15T10:57:04.082Z</time>
      </trkpt>
      <trkpt lat="48.44809" lon="7.11002">
        <ele>843</ele>
        <time>2019-05-15T10:57:05.082Z</time>
      </trkpt>
      <trkpt lat="48.44811" lon="7.11002">
        <ele>844</ele>
        <time>2019-05-15T10:57:06.082Z</time>
      </trkpt>
      <trkpt lat="48.44812" lon="7.11002">
        <ele>844</ele>
        <time>2019-05-15T10:57:07.082Z</time>
      </trkpt>
      <trkpt lat="48.44813" lon="7.11002">
        <ele>844</ele>
        <time>2019-05-15T10:57:08.082Z</time>
      </trkpt>
      <trkpt lat="48.44814" lon="7.11003">
        <ele>843</ele>
        <time>2019-05-15T10:57:09.082Z</time>
      </trkpt>
      <trkpt lat="48.44815" lon="7.11003">
        <ele>843</ele>
        <time>2019-05-15T10:57:10.082Z</time>
      </trkpt>
      <trkpt lat="48.44816" lon="7.11003">
        <ele>843</ele>
        <time>2019-05-15T10:57:11.082Z</time>
      </trkpt>
      <trkpt lat="48.44817" lon="7.11003">
        <ele>843</ele>
        <time>2019-05-15T10:57:12.082Z</time>
      </trkpt>
      <trkpt lat="48.44818" lon="7.11004">
        <ele>843</ele>
        <time>2019-05-15T10:57:13.082Z</time>
      </trkpt>
      <trkpt lat="48.44819" lon="7.11004">
        <ele>843</ele>
        <time>2019-05-15T10:57:14.082Z</time>
      </trkpt>
      <trkpt lat="48.4482" lon="7.11004">
        <ele>843</ele>
        <time>2019-05-15T10:57:15.082Z</time>
      </trkpt>
      <trkpt lat="48.44821" lon="7.11005">
        <ele>843</ele>
        <time>2019-05-15T10:57:16.082Z</time>
      </trkpt>
      <trkpt lat="48.44822" lon="7.11005">
        <ele>843</ele>
        <time>2019-05-15T10:57:17.082Z</time>
      </trkpt>
      <trkpt lat="48.44823" lon="7.11006">
        <ele>843</ele>
        <time>2019-05-15T10:57:18.082Z</time>
      </trkpt>
      <trkpt lat="48.44823" lon="7.11006">
        <ele>843</ele>
        <time>2019-05-15T10:57:19.082Z</time>
      </trkpt>
      <trkpt lat="48.44824" lon="7.11007">
        <ele>843</ele>
        <time>2019-05-15T10:57:20.082Z</time>
      </trkpt>
      <trkpt lat="48.44825" lon="7.11007">
        <ele>843</ele>
        <time>2019-05-15T10:57:21.082Z</time>
      </trkpt>
      <trkpt lat="48.44826" lon="7.11008">
        <ele>843</ele>
        <time>2019-05-15T10:57:22.082Z</time>
      </trkpt>
      <trkpt lat="48.44827" lon="7.11008">
        <ele>843</ele>
        <time>2019-05-15T10:57:23.082Z</time>
      </trkpt>
      <trkpt lat="48.44828" lon="7.11008">
        <ele>842</ele>
        <time>2019-05-15T10:57:24.082Z</time>
      </trkpt>
      <trkpt lat="48.44829" lon="7.11008">
        <ele>842</ele>
        <time>2019-05-15T10:57:25.082Z</time>
      </trkpt>
      <trkpt lat="48.4483" lon="7.11009">
        <ele>842</ele>
        <time>2019-05-15T10:57:26.082Z</time>
      </trkpt>
      <trkpt lat="48.4483" lon="7.11009">
        <ele>842</ele>
        <time>2019-05-15T10:57:27.082Z</time>
      </trkpt>
      <trkpt lat="48.44831" lon="7.11009">
        <ele>842</ele>
        <time>2019-05-15T10:57:28.082Z</time>
      </trkpt>
      <trkpt lat="48.44832" lon="7.1101">
        <ele>842</ele>
        <time>2019-05-15T10:57:29.082Z</time>
      </trkpt>
      <trkpt lat="48.44833" lon="7.1101">
        <ele>842</ele>
        <time>2019-05-15T10:57:30.082Z</time>
      </trkpt>
      <trkpt lat="48.44834" lon="7.1101">
        <ele>842</ele>
        <time>2019-05-15T10:57:31.082Z</time>
      </trkpt>
      <trkpt lat="48.44835" lon="7.11011">
        <ele>841</ele>
        <time>2019-05-15T10:57:32.082Z</time>
      </trkpt>
      <trkpt lat="48.44836" lon="7.11011">
        <ele>841</ele>
        <time>2019-05-15T10:57:33.082Z</time>
      </trkpt>
      <trkpt lat="48.44837" lon="7.11012">
        <ele>841</ele>
        <time>2019-05-15T10:57:34.082Z</time>
      </trkpt>
      <trkpt lat="48.44837" lon="7.11012">
        <ele>841</ele>
        <time>2019-05-15T10:57:35.082Z</time>
      </trkpt>
      <trkpt lat="48.44838" lon="7.11013">
        <ele>841</ele>
        <time>2019-05-15T10:57:36.082Z</time>
      </trkpt>
      <trkpt lat="48.44839" lon="7.11013">
        <ele>840</ele>
        <time>2019-05-15T10:57:37.082Z</time>
      </trkpt>
      <trkpt lat="48.4484" lon="7.11014">
        <ele>840</ele>
        <time>2019-05-15T10:57:38.082Z</time>
      </trkpt>
      <trkpt lat="48.44841" lon="7.11015">
        <ele>839</ele>
        <time>2019-05-15T10:57:39.082Z</time>
      </trkpt>
      <trkpt lat="48.44842" lon="7.11016">
        <ele>839</ele>
        <time>2019-05-15T10:57:40.082Z</time>
      </trkpt>
      <trkpt lat="48.44843" lon="7.11016">
        <ele>838</ele>
        <time>2019-05-15T10:57:41.082Z</time>
      </trkpt>
      <trkpt lat="48.44844" lon="7.11017">
        <ele>838</ele>
        <time>2019-05-15T10:57:42.082Z</time>
      </trkpt>
      <trkpt lat="48.44845" lon="7.11017">
        <ele>838</ele>
        <time>2019-05-15T10:57:43.082Z</time>
      </trkpt>
      <trkpt lat="48.44846" lon="7.11018">
        <ele>838</ele>
        <time>2019-05-15T10:57:44.082Z</time>
      </trkpt>
      <trkpt lat="48.44847" lon="7.11018">
        <ele>838</ele>
        <time>2019-05-15T10:57:45.082Z</time>
      </trkpt>
      <trkpt lat="48.44847" lon="7.11019">
        <ele>838</ele>
        <time>2019-05-15T10:57:46.082Z</time>
      </trkpt>
      <trkpt lat="48.44848" lon="7.11019">
        <ele>838</ele>
        <time>2019-05-15T10:57:47.082Z</time>
      </trkpt>
      <trkpt lat="48.44848" lon="7.11019">
        <ele>839</ele>
        <time>2019-05-15T10:57:48.082Z</time>
      </trkpt>
      <trkpt lat="48.44849" lon="7.11019">
        <ele>839</ele>
        <time>2019-05-15T10:57:49.082Z</time>
      </trkpt>
      <trkpt lat="48.4485" lon="7.1102">
        <ele>838</ele>
        <time>2019-05-15T10:57:50.082Z</time>
      </trkpt>
      <trkpt lat="48.44851" lon="7.1102">
        <ele>838</ele>
        <time>2019-05-15T10:57:51.082Z</time>
      </trkpt>
      <trkpt lat="48.44851" lon="7.11021">
        <ele>838</ele>
        <time>2019-05-15T10:57:52.082Z</time>
      </trkpt>
      <trkpt lat="48.44852" lon="7.11021">
        <ele>838</ele>
        <time>2019-05-15T10:57:53.082Z</time>
      </trkpt>
      <trkpt lat="48.44853" lon="7.11022">
        <ele>838</ele>
        <time>2019-05-15T10:57:54.082Z</time>
      </trkpt>
      <trkpt lat="48.44854" lon="7.11022">
        <ele>838</ele>
        <time>2019-05-15T10:57:55.082Z</time>
      </trkpt>
      <trkpt lat="48.44855" lon="7.11022">
        <ele>838</ele>
        <time>2019-05-15T10:57:56.082Z</time>
      </trkpt>
      <trkpt lat="48.44856" lon="7.11023">
        <ele>838</ele>
        <time>2019-05-15T10:57:57.082Z</time>
      </trkpt>
      <trkpt lat="48.44857" lon="7.11023">
        <ele>838</ele>
        <time>2019-05-15T10:57:58.082Z</time>
      </trkpt>
      <trkpt lat="48.44857" lon="7.11024">
        <ele>837</ele>
        <time>2019-05-15T10:57:59.082Z</time>
      </trkpt>
      <trkpt lat="48.44858" lon="7.11024">
        <ele>837</ele>
        <time>2019-05-15T10:58:00.082Z</time>
      </trkpt>
      <trkpt lat="48.44859" lon="7.11024">
        <ele>838</ele>
        <time>2019-05-15T10:58:01.082Z</time>
      </trkpt>
      <trkpt lat="48.44859" lon="7.11024">
        <ele>837</ele>
        <time>2019-05-15T10:58:02.082Z</time>
      </trkpt>
      <trkpt lat="48.4486" lon="7.11024">
        <ele>838</ele>
        <time>2019-05-15T10:58:03.082Z</time>
      </trkpt>
      <trkpt lat="48.44861" lon="7.11025">
        <ele>838</ele>
        <time>2019-05-15T10:58:04.082Z</time>
      </trkpt>
      <trkpt lat="48.44862" lon="7.11025">
        <ele>838</ele>
        <time>2019-05-15T10:58:05.082Z</time>
      </trkpt>
      <trkpt lat="48.44863" lon="7.11025">
        <ele>839</ele>
        <time>2019-05-15T10:58:06.082Z</time>
      </trkpt>
      <trkpt lat="48.44864" lon="7.11025">
        <ele>840</ele>
        <time>2019-05-15T10:58:07.082Z</time>
      </trkpt>
      <trkpt lat="48.44865" lon="7.11026">
        <ele>840</ele>
        <time>2019-05-15T10:58:08.082Z</time>
      </trkpt>
      <trkpt lat="48.44866" lon="7.11026">
        <ele>840</ele>
        <time>2019-05-15T10:58:09.082Z</time>
      </trkpt>
      <trkpt lat="48.44867" lon="7.11027">
        <ele>840</ele>
        <time>2019-05-15T10:58:10.082Z</time>
      </trkpt>
      <trkpt lat="48.44868" lon="7.11027">
        <ele>840</ele>
        <time>2019-05-15T10:58:11.082Z</time>
      </trkpt>
      <trkpt lat="48.44869" lon="7.11028">
        <ele>840</ele>
        <time>2019-05-15T10:58:12.082Z</time>
      </trkpt>
      <trkpt lat="48.4487" lon="7.11028">
        <ele>840</ele>
        <time>2019-05-15T10:58:13.082Z</time>
      </trkpt>
      <trkpt lat="48.44871" lon="7.11029">
        <ele>840</ele>
        <time>2019-05-15T10:58:14.082Z</time>
      </trkpt>
      <trkpt lat="48.44872" lon="7.11029">
        <ele>840</ele>
        <time>2019-05-15T10:58:15.082Z</time>
      </trkpt>
      <trkpt lat="48.44873" lon="7.1103">
        <ele>839</ele>
        <time>2019-05-15T10:58:16.082Z</time>
      </trkpt>
      <trkpt lat="48.44874" lon="7.1103">
        <ele>840</ele>
        <time>2019-05-15T10:58:17.082Z</time>
      </trkpt>
      <trkpt lat="48.44875" lon="7.1103">
        <ele>840</ele>
        <time>2019-05-15T10:58:18.082Z</time>
      </trkpt>
      <trkpt lat="48.44876" lon="7.1103">
        <ele>839</ele>
        <time>2019-05-15T10:58:19.082Z</time>
      </trkpt>
      <trkpt lat="48.44876" lon="7.11031">
        <ele>839</ele>
        <time>2019-05-15T10:58:20.082Z</time>
      </trkpt>
      <trkpt lat="48.44877" lon="7.11031">
        <ele>839</ele>
        <time>2019-05-15T10:58:21.082Z</time>
      </trkpt>
      <trkpt lat="48.44878" lon="7.11031">
        <ele>839</ele>
        <time>2019-05-15T10:58:22.082Z</time>
      </trkpt>
      <trkpt lat="48.44879" lon="7.11031">
        <ele>839</ele>
        <time>2019-05-15T10:58:23.082Z</time>
      </trkpt>
      <trkpt lat="48.4488" lon="7.11032">
        <ele>840</ele>
        <time>2019-05-15T10:58:24.082Z</time>
      </trkpt>
      <trkpt lat="48.44881" lon="7.11032">
        <ele>840</ele>
        <time>2019-05-15T10:58:25.082Z</time>
      </trkpt>
      <trkpt lat="48.44882" lon="7.11033">
        <ele>840</ele>
        <time>2019-05-15T10:58:26.082Z</time>
      </trkpt>
      <trkpt lat="48.44883" lon="7.11033">
        <ele>840</ele>
        <time>2019-05-15T10:58:27.082Z</time>
      </trkpt>
      <trkpt lat="48.44884" lon="7.11033">
        <ele>840</ele>
        <time>2019-05-15T10:58:28.082Z</time>
      </trkpt>
      <trkpt lat="48.44885" lon="7.11034">
        <ele>840</ele>
        <time>2019-05-15T10:58:29.082Z</time>
      </trkpt>
      <trkpt lat="48.44886" lon="7.11034">
        <ele>840</ele>
        <time>2019-05-15T10:58:30.082Z</time>
      </trkpt>
      <trkpt lat="48.44887" lon="7.11034">
        <ele>840</ele>
        <time>2019-05-15T10:58:31.082Z</time>
      </trkpt>
      <trkpt lat="48.44888" lon="7.11034">
        <ele>840</ele>
        <time>2019-05-15T10:58:32.082Z</time>
      </trkpt>
      <trkpt lat="48.44889" lon="7.11034">
        <ele>840</ele>
        <time>2019-05-15T10:58:33.082Z</time>
      </trkpt>
      <trkpt lat="48.4489" lon="7.11034">
        <ele>840</ele>
        <time>2019-05-15T10:58:34.082Z</time>
      </trkpt>
      <trkpt lat="48.44891" lon="7.11034">
        <ele>840</ele>
        <time>2019-05-15T10:58:35.082Z</time>
      </trkpt>
      <trkpt lat="48.44892" lon="7.11034">
        <ele>840</ele>
        <time>2019-05-15T10:58:36.082Z</time>
      </trkpt>
      <trkpt lat="48.44892" lon="7.11034">
        <ele>840</ele>
        <time>2019-05-15T10:58:37.082Z</time>
      </trkpt>
      <trkpt lat="48.44893" lon="7.11035">
        <ele>840</ele>
        <time>2019-05-15T10:58:38.082Z</time>
      </trkpt>
      <trkpt lat="48.44894" lon="7.11036">
        <ele>840</ele>
        <time>2019-05-15T10:58:39.082Z</time>
      </trkpt>
      <trkpt lat="48.44894" lon="7.11036">
        <ele>840</ele>
        <time>2019-05-15T10:58:40.082Z</time>
      </trkpt>
      <trkpt lat="48.44895" lon="7.11037">
        <ele>839</ele>
        <time>2019-05-15T10:58:41.082Z</time>
      </trkpt>
      <trkpt lat="48.44896" lon="7.11037">
        <ele>839</ele>
        <time>2019-05-15T10:58:42.082Z</time>
      </trkpt>
      <trkpt lat="48.44897" lon="7.11038">
        <ele>839</ele>
        <time>2019-05-15T10:58:43.082Z</time>
      </trkpt>
      <trkpt lat="48.44897" lon="7.11038">
        <ele>839</ele>
        <time>2019-05-15T10:58:44.082Z</time>
      </trkpt>
      <trkpt lat="48.44898" lon="7.11039">
        <ele>839</ele>
        <time>2019-05-15T10:58:45.082Z</time>
      </trkpt>
      <trkpt lat="48.44899" lon="7.1104">
        <ele>839</ele>
        <time>2019-05-15T10:58:46.082Z</time>
      </trkpt>
      <trkpt lat="48.449" lon="7.1104">
        <ele>839</ele>
        <time>2019-05-15T10:58:47.082Z</time>
      </trkpt>
      <trkpt lat="48.44901" lon="7.11041">
        <ele>839</ele>
        <time>2019-05-15T10:58:48.082Z</time>
      </trkpt>
      <trkpt lat="48.44902" lon="7.11041">
        <ele>839</ele>
        <time>2019-05-15T10:58:49.082Z</time>
      </trkpt>
      <trkpt lat="48.44903" lon="7.11042">
        <ele>839</ele>
        <time>2019-05-15T10:58:50.082Z</time>
      </trkpt>
      <trkpt lat="48.44904" lon="7.11042">
        <ele>839</ele>
        <time>2019-05-15T10:58:51.082Z</time>
      </trkpt>
      <trkpt lat="48.44905" lon="7.11043">
        <ele>839</ele>
        <time>2019-05-15T10:58:52.082Z</time>
      </trkpt>
      <trkpt lat="48.44907" lon="7.11044">
        <ele>838</ele>
        <time>2019-05-15T10:58:53.082Z</time>
      </trkpt>
      <trkpt lat="48.44908" lon="7.11045">
        <ele>838</ele>
        <time>2019-05-15T10:58:54.082Z</time>
      </trkpt>
      <trkpt lat="48.4491" lon="7.11046">
        <ele>838</ele>
        <time>2019-05-15T10:58:55.082Z</time>
      </trkpt>
      <trkpt lat="48.44911" lon="7.11047">
        <ele>838</ele>
        <time>2019-05-15T10:58:56.082Z</time>
      </trkpt>
      <trkpt lat="48.44912" lon="7.11047">
        <ele>838</ele>
        <time>2019-05-15T10:58:57.082Z</time>
      </trkpt>
      <trkpt lat="48.44913" lon="7.11048">
        <ele>838</ele>
        <time>2019-05-15T10:58:58.082Z</time>
      </trkpt>
      <trkpt lat="48.44914" lon="7.11049">
        <ele>838</ele>
        <time>2019-05-15T10:58:59.082Z</time>
      </trkpt>
      <trkpt lat="48.44915" lon="7.1105">
        <ele>837</ele>
        <time>2019-05-15T10:59:00.082Z</time>
      </trkpt>
      <trkpt lat="48.44916" lon="7.11051">
        <ele>837</ele>
        <time>2019-05-15T10:59:01.082Z</time>
      </trkpt>
      <trkpt lat="48.44917" lon="7.11052">
        <ele>837</ele>
        <time>2019-05-15T10:59:02.082Z</time>
      </trkpt>
      <trkpt lat="48.44918" lon="7.11053">
        <ele>837</ele>
        <time>2019-05-15T10:59:03.082Z</time>
      </trkpt>
      <trkpt lat="48.44918" lon="7.11054">
        <ele>837</ele>
        <time>2019-05-15T10:59:04.082Z</time>
      </trkpt>
      <trkpt lat="48.44919" lon="7.11055">
        <ele>837</ele>
        <time>2019-05-15T10:59:05.082Z</time>
      </trkpt>
      <trkpt lat="48.4492" lon="7.11055">
        <ele>836</ele>
        <time>2019-05-15T10:59:06.082Z</time>
      </trkpt>
      <trkpt lat="48.44921" lon="7.11056">
        <ele>837</ele>
        <time>2019-05-15T10:59:07.082Z</time>
      </trkpt>
      <trkpt lat="48.44922" lon="7.11056">
        <ele>837</ele>
        <time>2019-05-15T10:59:08.082Z</time>
      </trkpt>
      <trkpt lat="48.44924" lon="7.11057">
        <ele>836</ele>
        <time>2019-05-15T10:59:09.082Z</time>
      </trkpt>
      <trkpt lat="48.44925" lon="7.11057">
        <ele>836</ele>
        <time>2019-05-15T10:59:10.082Z</time>
      </trkpt>
      <trkpt lat="48.44926" lon="7.11058">
        <ele>835</ele>
        <time>2019-05-15T10:59:11.082Z</time>
      </trkpt>
      <trkpt lat="48.44927" lon="7.11059">
        <ele>836</ele>
        <time>2019-05-15T10:59:12.082Z</time>
      </trkpt>
      <trkpt lat="48.44928" lon="7.11059">
        <ele>836</ele>
        <time>2019-05-15T10:59:13.082Z</time>
      </trkpt>
      <trkpt lat="48.44929" lon="7.11059">
        <ele>836</ele>
        <time>2019-05-15T10:59:14.082Z</time>
      </trkpt>
      <trkpt lat="48.44929" lon="7.1106">
        <ele>836</ele>
        <time>2019-05-15T10:59:15.082Z</time>
      </trkpt>
      <trkpt lat="48.4493" lon="7.11061">
        <ele>836</ele>
        <time>2019-05-15T10:59:16.082Z</time>
      </trkpt>
      <trkpt lat="48.44931" lon="7.11061">
        <ele>836</ele>
        <time>2019-05-15T10:59:17.082Z</time>
      </trkpt>
      <trkpt lat="48.44932" lon="7.11061">
        <ele>836</ele>
        <time>2019-05-15T10:59:18.082Z</time>
      </trkpt>
      <trkpt lat="48.44933" lon="7.11062">
        <ele>836</ele>
        <time>2019-05-15T10:59:19.082Z</time>
      </trkpt>
      <trkpt lat="48.44933" lon="7.11062">
        <ele>837</ele>
        <time>2019-05-15T10:59:20.082Z</time>
      </trkpt>
      <trkpt lat="48.44934" lon="7.11062">
        <ele>836</ele>
        <time>2019-05-15T10:59:21.082Z</time>
      </trkpt>
      <trkpt lat="48.44935" lon="7.11063">
        <ele>836</ele>
        <time>2019-05-15T10:59:22.082Z</time>
      </trkpt>
      <trkpt lat="48.44936" lon="7.11064">
        <ele>835</ele>
        <time>2019-05-15T10:59:23.082Z</time>
      </trkpt>
      <trkpt lat="48.44938" lon="7.11065">
        <ele>834</ele>
        <time>2019-05-15T10:59:24.082Z</time>
      </trkpt>
      <trkpt lat="48.44939" lon="7.11066">
        <ele>833</ele>
        <time>2019-05-15T10:59:25.082Z</time>
      </trkpt>
      <trkpt lat="48.4494" lon="7.11067">
        <ele>833</ele>
        <time>2019-05-15T10:59:26.082Z</time>
      </trkpt>
      <trkpt lat="48.44941" lon="7.11067">
        <ele>833</ele>
        <time>2019-05-15T10:59:27.082Z</time>
      </trkpt>
      <trkpt lat="48.44942" lon="7.11068">
        <ele>833</ele>
        <time>2019-05-15T10:59:28.082Z</time>
      </trkpt>
      <trkpt lat="48.44943" lon="7.11068">
        <ele>833</ele>
        <time>2019-05-15T10:59:29.082Z</time>
      </trkpt>
      <trkpt lat="48.44943" lon="7.11069">
        <ele>833</ele>
        <time>2019-05-15T10:59:30.082Z</time>
      </trkpt>
      <trkpt lat="48.44944" lon="7.11069">
        <ele>833</ele>
        <time>2019-05-15T10:59:31.082Z</time>
      </trkpt>
      <trkpt lat="48.44945" lon="7.11069">
        <ele>833</ele>
        <time>2019-05-15T10:59:32.082Z</time>
      </trkpt>
      <trkpt lat="48.44946" lon="7.11069">
        <ele>834</ele>
        <time>2019-05-15T10:59:33.082Z</time>
      </trkpt>
      <trkpt lat="48.44946" lon="7.11069">
        <ele>834</ele>
        <time>2019-05-15T10:59:34.082Z</time>
      </trkpt>
      <trkpt lat="48.44947" lon="7.1107">
        <ele>834</ele>
        <time>2019-05-15T10:59:35.082Z</time>
      </trkpt>
      <trkpt lat="48.44948" lon="7.1107">
        <ele>834</ele>
        <time>2019-05-15T10:59:36.082Z</time>
      </trkpt>
      <trkpt lat="48.44949" lon="7.1107">
        <ele>835</ele>
        <time>2019-05-15T10:59:37.082Z</time>
      </trkpt>
      <trkpt lat="48.44949" lon="7.11071">
        <ele>835</ele>
        <time>2019-05-15T10:59:38.082Z</time>
      </trkpt>
      <trkpt lat="48.4495" lon="7.11071">
        <ele>834</ele>
        <time>2019-05-15T10:59:39.082Z</time>
      </trkpt>
      <trkpt lat="48.44951" lon="7.11072">
        <ele>835</ele>
        <time>2019-05-15T10:59:40.082Z</time>
      </trkpt>
      <trkpt lat="48.44952" lon="7.11072">
        <ele>835</ele>
        <time>2019-05-15T10:59:41.082Z</time>
      </trkpt>
      <trkpt lat="48.44953" lon="7.11073">
        <ele>835</ele>
        <time>2019-05-15T10:59:42.082Z</time>
      </trkpt>
      <trkpt lat="48.44954" lon="7.11073">
        <ele>835</ele>
        <time>2019-05-15T10:59:43.082Z</time>
      </trkpt>
      <trkpt lat="48.44955" lon="7.11073">
        <ele>835</ele>
        <time>2019-05-15T10:59:44.082Z</time>
      </trkpt>
      <trkpt lat="48.44956" lon="7.11074">
        <ele>835</ele>
        <time>2019-05-15T10:59:45.082Z</time>
      </trkpt>
      <trkpt lat="48.44957" lon="7.11074">
        <ele>834</ele>
        <time>2019-05-15T10:59:46.082Z</time>
      </trkpt>
      <trkpt lat="48.44957" lon="7.11075">
        <ele>834</ele>
        <time>2019-05-15T10:59:47.082Z</time>
      </trkpt>
      <trkpt lat="48.44958" lon="7.11076">
        <ele>834</ele>
        <time>2019-05-15T10:59:48.082Z</time>
      </trkpt>
      <trkpt lat="48.44959" lon="7.11077">
        <ele>834</ele>
        <time>2019-05-15T10:59:49.082Z</time>
      </trkpt>
      <trkpt lat="48.4496" lon="7.11077">
        <ele>833</ele>
        <time>2019-05-15T10:59:50.082Z</time>
      </trkpt>
      <trkpt lat="48.44961" lon="7.11078">
        <ele>834</ele>
        <time>2019-05-15T10:59:51.082Z</time>
      </trkpt>
      <trkpt lat="48.44961" lon="7.11078">
        <ele>833</ele>
        <time>2019-05-15T10:59:52.082Z</time>
      </trkpt>
      <trkpt lat="48.44962" lon="7.11079">
        <ele>833</ele>
        <time>2019-05-15T10:59:53.082Z</time>
      </trkpt>
      <trkpt lat="48.44963" lon="7.11079">
        <ele>833</ele>
        <time>2019-05-15T10:59:54.082Z</time>
      </trkpt>
      <trkpt lat="48.44964" lon="7.11079">
        <ele>833</ele>
        <time>2019-05-15T10:59:55.082Z</time>
      </trkpt>
      <trkpt lat="48.44965" lon="7.1108">
        <ele>833</ele>
        <time>2019-05-15T10:59:56.082Z</time>
      </trkpt>
      <trkpt lat="48.44966" lon="7.11081">
        <ele>833</ele>
        <time>2019-05-15T10:59:57.082Z</time>
      </trkpt>
      <trkpt lat="48.44967" lon="7.11082">
        <ele>833</ele>
        <time>2019-05-15T10:59:58.082Z</time>
      </trkpt>
      <trkpt lat="48.44968" lon="7.11083">
        <ele>833</ele>
        <time>2019-05-15T10:59:59.082Z</time>
      </trkpt>
      <trkpt lat="48.44969" lon="7.11083">
        <ele>833</ele>
        <time>2019-05-15T11:00:00.082Z</time>
      </trkpt>
      <trkpt lat="48.4497" lon="7.11084">
        <ele>833</ele>
        <time>2019-05-15T11:00:01.082Z</time>
      </trkpt>
      <trkpt lat="48.44971" lon="7.11084">
        <ele>833</ele>
        <time>2019-05-15T11:00:02.082Z</time>
      </trkpt>
      <trkpt lat="48.44972" lon="7.11085">
        <ele>833</ele>
        <time>2019-05-15T11:00:03.082Z</time>
      </trkpt>
      <trkpt lat="48.44972" lon="7.11086">
        <ele>833</ele>
        <time>2019-05-15T11:00:04.082Z</time>
      </trkpt>
      <trkpt lat="48.44973" lon="7.11087">
        <ele>833</ele>
        <time>2019-05-15T11:00:05.082Z</time>
      </trkpt>
      <trkpt lat="48.44974" lon="7.11087">
        <ele>833</ele>
        <time>2019-05-15T11:00:06.082Z</time>
      </trkpt>
      <trkpt lat="48.44975" lon="7.11088">
        <ele>833</ele>
        <time>2019-05-15T11:00:07.082Z</time>
      </trkpt>
      <trkpt lat="48.44976" lon="7.11088">
        <ele>833</ele>
        <time>2019-05-15T11:00:08.082Z</time>
      </trkpt>
      <trkpt lat="48.44976" lon="7.11089">
        <ele>833</ele>
        <time>2019-05-15T11:00:09.082Z</time>
      </trkpt>
      <trkpt lat="48.44977" lon="7.11089">
        <ele>833</ele>
        <time>2019-05-15T11:00:10.082Z</time>
      </trkpt>
      <trkpt lat="48.44978" lon="7.1109">
        <ele>833</ele>
        <time>2019-05-15T11:00:11.082Z</time>
      </trkpt>
      <trkpt lat="48.44979" lon="7.1109">
        <ele>833</ele>
        <time>2019-05-15T11:00:12.082Z</time>
      </trkpt>
      <trkpt lat="48.4498" lon="7.11091">
        <ele>832</ele>
        <time>2019-05-15T11:00:13.082Z</time>
      </trkpt>
      <trkpt lat="48.44981" lon="7.11091">
        <ele>832</ele>
        <time>2019-05-15T11:00:14.082Z</time>
      </trkpt>
      <trkpt lat="48.44982" lon="7.11092">
        <ele>833</ele>
        <time>2019-05-15T11:00:15.082Z</time>
      </trkpt>
      <trkpt lat="48.44983" lon="7.11092">
        <ele>833</ele>
        <time>2019-05-15T11:00:16.082Z</time>
      </trkpt>
      <trkpt lat="48.44984" lon="7.11092">
        <ele>833</ele>
        <time>2019-05-15T11:00:17.082Z</time>
      </trkpt>
      <trkpt lat="48.44985" lon="7.11093">
        <ele>833</ele>
        <time>2019-05-15T11:00:18.082Z</time>
      </trkpt>
      <trkpt lat="48.44986" lon="7.11093">
        <ele>833</ele>
        <time>2019-05-15T11:00:19.082Z</time>
      </trkpt>
      <trkpt lat="48.44987" lon="7.11094">
        <ele>833</ele>
        <time>2019-05-15T11:00:20.082Z</time>
      </trkpt>
      <trkpt lat="48.44988" lon="7.11094">
        <ele>833</ele>
        <time>2019-05-15T11:00:21.082Z</time>
      </trkpt>
      <trkpt lat="48.44988" lon="7.11094">
        <ele>833</ele>
        <time>2019-05-15T11:00:22.082Z</time>
      </trkpt>
      <trkpt lat="48.44989" lon="7.11095">
        <ele>833</ele>
        <time>2019-05-15T11:00:23.082Z</time>
      </trkpt>
      <trkpt lat="48.4499" lon="7.11096">
        <ele>832</ele>
        <time>2019-05-15T11:00:24.082Z</time>
      </trkpt>
      <trkpt lat="48.44991" lon="7.11096">
        <ele>832</ele>
        <time>2019-05-15T11:00:25.082Z</time>
      </trkpt>
      <trkpt lat="48.44992" lon="7.11097">
        <ele>832</ele>
        <time>2019-05-15T11:00:26.082Z</time>
      </trkpt>
      <trkpt lat="48.44993" lon="7.11097">
        <ele>833</ele>
        <time>2019-05-15T11:00:27.082Z</time>
      </trkpt>
      <trkpt lat="48.44994" lon="7.11097">
        <ele>833</ele>
        <time>2019-05-15T11:00:28.082Z</time>
      </trkpt>
      <trkpt lat="48.44995" lon="7.11097">
        <ele>832</ele>
        <time>2019-05-15T11:00:29.082Z</time>
      </trkpt>
      <trkpt lat="48.44997" lon="7.11098">
        <ele>832</ele>
        <time>2019-05-15T11:00:30.082Z</time>
      </trkpt>
      <trkpt lat="48.44998" lon="7.11098">
        <ele>832</ele>
        <time>2019-05-15T11:00:31.082Z</time>
      </trkpt>
      <trkpt lat="48.44999" lon="7.11099">
        <ele>832</ele>
        <time>2019-05-15T11:00:32.082Z</time>
      </trkpt>
      <trkpt lat="48.45" lon="7.11099">
        <ele>832</ele>
        <time>2019-05-15T11:00:33.082Z</time>
      </trkpt>
      <trkpt lat="48.45001" lon="7.111">
        <ele>832</ele>
        <time>2019-05-15T11:00:34.082Z</time>
      </trkpt>
      <trkpt lat="48.45002" lon="7.111">
        <ele>831</ele>
        <time>2019-05-15T11:00:35.082Z</time>
      </trkpt>
      <trkpt lat="48.45003" lon="7.11101">
        <ele>832</ele>
        <time>2019-05-15T11:00:36.082Z</time>
      </trkpt>
      <trkpt lat="48.45004" lon="7.11101">
        <ele>831</ele>
        <time>2019-05-15T11:00:37.082Z</time>
      </trkpt>
      <trkpt lat="48.45005" lon="7.11102">
        <ele>832</ele>
        <time>2019-05-15T11:00:38.082Z</time>
      </trkpt>
      <trkpt lat="48.45006" lon="7.11102">
        <ele>832</ele>
        <time>2019-05-15T11:00:39.082Z</time>
      </trkpt>
      <trkpt lat="48.45007" lon="7.11103">
        <ele>832</ele>
        <time>2019-05-15T11:00:40.082Z</time>
      </trkpt>
      <trkpt lat="48.45008" lon="7.11103">
        <ele>831</ele>
        <time>2019-05-15T11:00:41.082Z</time>
      </trkpt>
      <trkpt lat="48.45009" lon="7.11104">
        <ele>831</ele>
        <time>2019-05-15T11:00:42.082Z</time>
      </trkpt>
      <trkpt lat="48.4501" lon="7.11104">
        <ele>831</ele>
        <time>2019-05-15T11:00:43.082Z</time>
      </trkpt>
      <trkpt lat="48.45011" lon="7.11104">
        <ele>831</ele>
        <time>2019-05-15T11:00:44.082Z</time>
      </trkpt>
      <trkpt lat="48.45013" lon="7.11104">
        <ele>832</ele>
        <time>2019-05-15T11:00:45.082Z</time>
      </trkpt>
      <trkpt lat="48.45014" lon="7.11104">
        <ele>831</ele>
        <time>2019-05-15T11:00:46.082Z</time>
      </trkpt>
      <trkpt lat="48.45014" lon="7.11105">
        <ele>831</ele>
        <time>2019-05-15T11:00:47.082Z</time>
      </trkpt>
      <trkpt lat="48.45015" lon="7.11105">
        <ele>831</ele>
        <time>2019-05-15T11:00:48.082Z</time>
      </trkpt>
      <trkpt lat="48.45016" lon="7.11106">
        <ele>831</ele>
        <time>2019-05-15T11:00:49.082Z</time>
      </trkpt>
      <trkpt lat="48.45017" lon="7.11106">
        <ele>831</ele>
        <time>2019-05-15T11:00:50.082Z</time>
      </trkpt>
      <trkpt lat="48.45018" lon="7.11107">
        <ele>831</ele>
        <time>2019-05-15T11:00:51.082Z</time>
      </trkpt>
      <trkpt lat="48.45019" lon="7.11107">
        <ele>830</ele>
        <time>2019-05-15T11:00:52.082Z</time>
      </trkpt>
      <trkpt lat="48.4502" lon="7.11108">
        <ele>831</ele>
        <time>2019-05-15T11:00:53.082Z</time>
      </trkpt>
      <trkpt lat="48.45022" lon="7.11108">
        <ele>830</ele>
        <time>2019-05-15T11:00:54.082Z</time>
      </trkpt>
      <trkpt lat="48.45023" lon="7.11109">
        <ele>830</ele>
        <time>2019-05-15T11:00:55.082Z</time>
      </trkpt>
      <trkpt lat="48.45024" lon="7.11109">
        <ele>830</ele>
        <time>2019-05-15T11:00:56.082Z</time>
      </trkpt>
      <trkpt lat="48.45025" lon="7.1111">
        <ele>830</ele>
        <time>2019-05-15T11:00:57.082Z</time>
      </trkpt>
      <trkpt lat="48.45026" lon="7.1111">
        <ele>830</ele>
        <time>2019-05-15T11:00:58.082Z</time>
      </trkpt>
      <trkpt lat="48.45027" lon="7.11111">
        <ele>829</ele>
        <time>2019-05-15T11:00:59.082Z</time>
      </trkpt>
      <trkpt lat="48.45028" lon="7.11112">
        <ele>829</ele>
        <time>2019-05-15T11:01:00.082Z</time>
      </trkpt>
      <trkpt lat="48.45029" lon="7.11112">
        <ele>828</ele>
        <time>2019-05-15T11:01:01.082Z</time>
      </trkpt>
      <trkpt lat="48.4503" lon="7.11113">
        <ele>828</ele>
        <time>2019-05-15T11:01:02.082Z</time>
      </trkpt>
      <trkpt lat="48.45031" lon="7.11114">
        <ele>828</ele>
        <time>2019-05-15T11:01:03.082Z</time>
      </trkpt>
      <trkpt lat="48.45032" lon="7.11114">
        <ele>828</ele>
        <time>2019-05-15T11:01:04.082Z</time>
      </trkpt>
      <trkpt lat="48.45033" lon="7.11115">
        <ele>828</ele>
        <time>2019-05-15T11:01:05.082Z</time>
      </trkpt>
      <trkpt lat="48.45034" lon="7.11115">
        <ele>828</ele>
        <time>2019-05-15T11:01:06.082Z</time>
      </trkpt>
      <trkpt lat="48.45035" lon="7.11115">
        <ele>828</ele>
        <time>2019-05-15T11:01:07.082Z</time>
      </trkpt>
      <trkpt lat="48.45036" lon="7.11116">
        <ele>828</ele>
        <time>2019-05-15T11:01:08.082Z</time>
      </trkpt>
      <trkpt lat="48.45036" lon="7.11116">
        <ele>828</ele>
        <time>2019-05-15T11:01:09.082Z</time>
      </trkpt>
      <trkpt lat="48.45037" lon="7.11117">
        <ele>827</ele>
        <time>2019-05-15T11:01:10.082Z</time>
      </trkpt>
      <trkpt lat="48.45038" lon="7.11117">
        <ele>827</ele>
        <time>2019-05-15T11:01:11.082Z</time>
      </trkpt>
      <trkpt lat="48.45039" lon="7.11118">
        <ele>827</ele>
        <time>2019-05-15T11:01:12.082Z</time>
      </trkpt>
      <trkpt lat="48.4504" lon="7.11119">
        <ele>827</ele>
        <time>2019-05-15T11:01:13.082Z</time>
      </trkpt>
      <trkpt lat="48.45041" lon="7.11119">
        <ele>827</ele>
        <time>2019-05-15T11:01:14.082Z</time>
      </trkpt>
      <trkpt lat="48.45041" lon="7.11119">
        <ele>827</ele>
        <time>2019-05-15T11:01:15.082Z</time>
      </trkpt>
      <trkpt lat="48.45042" lon="7.1112">
        <ele>828</ele>
        <time>2019-05-15T11:01:16.082Z</time>
      </trkpt>
      <trkpt lat="48.45043" lon="7.1112">
        <ele>827</ele>
        <time>2019-05-15T11:01:17.082Z</time>
      </trkpt>
      <trkpt lat="48.45044" lon="7.11121">
        <ele>827</ele>
        <time>2019-05-15T11:01:18.082Z</time>
      </trkpt>
      <trkpt lat="48.45045" lon="7.11121">
        <ele>827</ele>
        <time>2019-05-15T11:01:19.082Z</time>
      </trkpt>
      <trkpt lat="48.45045" lon="7.11121">
        <ele>828</ele>
        <time>2019-05-15T11:01:20.082Z</time>
      </trkpt>
      <trkpt lat="48.45046" lon="7.11122">
        <ele>828</ele>
        <time>2019-05-15T11:01:21.082Z</time>
      </trkpt>
      <trkpt lat="48.45047" lon="7.11122">
        <ele>828</ele>
        <time>2019-05-15T11:01:22.082Z</time>
      </trkpt>
      <trkpt lat="48.45047" lon="7.11122">
        <ele>828</ele>
        <time>2019-05-15T11:01:23.082Z</time>
      </trkpt>
      <trkpt lat="48.45048" lon="7.11122">
        <ele>828</ele>
        <time>2019-05-15T11:01:24.082Z</time>
      </trkpt>
      <trkpt lat="48.45048" lon="7.11122">
        <ele>828</ele>
        <time>2019-05-15T11:01:25.082Z</time>
      </trkpt>
      <trkpt lat="48.45049" lon="7.11123">
        <ele>828</ele>
        <time>2019-05-15T11:01:26.082Z</time>
      </trkpt>
      <trkpt lat="48.45049" lon="7.11123">
        <ele>827</ele>
        <time>2019-05-15T11:01:27.082Z</time>
      </trkpt>
      <trkpt lat="48.4505" lon="7.11123">
        <ele>827</ele>
        <time>2019-05-15T11:01:28.082Z</time>
      </trkpt>
      <trkpt lat="48.45051" lon="7.11124">
        <ele>826</ele>
        <time>2019-05-15T11:01:29.082Z</time>
      </trkpt>
      <trkpt lat="48.45052" lon="7.11124">
        <ele>826</ele>
        <time>2019-05-15T11:01:30.082Z</time>
      </trkpt>
      <trkpt lat="48.45054" lon="7.11125">
        <ele>826</ele>
        <time>2019-05-15T11:01:31.082Z</time>
      </trkpt>
      <trkpt lat="48.45055" lon="7.11125">
        <ele>826</ele>
        <time>2019-05-15T11:01:32.082Z</time>
      </trkpt>
      <trkpt lat="48.45056" lon="7.11126">
        <ele>825</ele>
        <time>2019-05-15T11:01:33.082Z</time>
      </trkpt>
      <trkpt lat="48.45057" lon="7.11126">
        <ele>825</ele>
        <time>2019-05-15T11:01:34.082Z</time>
      </trkpt>
      <trkpt lat="48.45058" lon="7.11127">
        <ele>824</ele>
        <time>2019-05-15T11:01:35.082Z</time>
      </trkpt>
      <trkpt lat="48.4506" lon="7.11128">
        <ele>824</ele>
        <time>2019-05-15T11:01:36.082Z</time>
      </trkpt>
      <trkpt lat="48.45061" lon="7.11128">
        <ele>824</ele>
        <time>2019-05-15T11:01:37.082Z</time>
      </trkpt>
      <trkpt lat="48.45062" lon="7.11129">
        <ele>824</ele>
        <time>2019-05-15T11:01:38.082Z</time>
      </trkpt>
      <trkpt lat="48.45063" lon="7.11129">
        <ele>823</ele>
        <time>2019-05-15T11:01:39.082Z</time>
      </trkpt>
      <trkpt lat="48.45064" lon="7.1113">
        <ele>822</ele>
        <time>2019-05-15T11:01:40.082Z</time>
      </trkpt>
      <trkpt lat="48.45066" lon="7.1113">
        <ele>823</ele>
        <time>2019-05-15T11:01:41.082Z</time>
      </trkpt>
      <trkpt lat="48.45067" lon="7.1113">
        <ele>823</ele>
        <time>2019-05-15T11:01:42.082Z</time>
      </trkpt>
      <trkpt lat="48.45068" lon="7.11131">
        <ele>823</ele>
        <time>2019-05-15T11:01:43.082Z</time>
      </trkpt>
      <trkpt lat="48.45069" lon="7.11131">
        <ele>823</ele>
        <time>2019-05-15T11:01:44.082Z</time>
      </trkpt>
      <trkpt lat="48.4507" lon="7.11131">
        <ele>823</ele>
        <time>2019-05-15T11:01:45.082Z</time>
      </trkpt>
      <trkpt lat="48.45071" lon="7.11131">
        <ele>823</ele>
        <time>2019-05-15T11:01:46.082Z</time>
      </trkpt>
      <trkpt lat="48.45072" lon="7.11132">
        <ele>823</ele>
        <time>2019-05-15T11:01:47.082Z</time>
      </trkpt>
      <trkpt lat="48.45073" lon="7.11132">
        <ele>823</ele>
        <time>2019-05-15T11:01:48.082Z</time>
      </trkpt>
      <trkpt lat="48.45074" lon="7.11132">
        <ele>823</ele>
        <time>2019-05-15T11:01:49.082Z</time>
      </trkpt>
      <trkpt lat="48.45075" lon="7.11132">
        <ele>823</ele>
        <time>2019-05-15T11:01:50.082Z</time>
      </trkpt>
      <trkpt lat="48.45076" lon="7.11132">
        <ele>823</ele>
        <time>2019-05-15T11:01:51.082Z</time>
      </trkpt>
      <trkpt lat="48.45077" lon="7.11132">
        <ele>824</ele>
        <time>2019-05-15T11:01:52.082Z</time>
      </trkpt>
      <trkpt lat="48.45078" lon="7.11132">
        <ele>824</ele>
        <time>2019-05-15T11:01:53.082Z</time>
      </trkpt>
      <trkpt lat="48.45079" lon="7.11132">
        <ele>824</ele>
        <time>2019-05-15T11:01:54.082Z</time>
      </trkpt>
      <trkpt lat="48.4508" lon="7.11133">
        <ele>824</ele>
        <time>2019-05-15T11:01:55.082Z</time>
      </trkpt>
      <trkpt lat="48.45081" lon="7.11133">
        <ele>823</ele>
        <time>2019-05-15T11:01:56.082Z</time>
      </trkpt>
      <trkpt lat="48.45082" lon="7.11134">
        <ele>823</ele>
        <time>2019-05-15T11:01:57.082Z</time>
      </trkpt>
      <trkpt lat="48.45084" lon="7.11134">
        <ele>823</ele>
        <time>2019-05-15T11:01:58.082Z</time>
      </trkpt>
      <trkpt lat="48.45085" lon="7.11134">
        <ele>823</ele>
        <time>2019-05-15T11:01:59.082Z</time>
      </trkpt>
      <trkpt lat="48.45086" lon="7.11134">
        <ele>823</ele>
        <time>2019-05-15T11:02:00.082Z</time>
      </trkpt>
      <trkpt lat="48.45087" lon="7.11134">
        <ele>823</ele>
        <time>2019-05-15T11:02:01.082Z</time>
      </trkpt>
      <trkpt lat="48.45088" lon="7.11135">
        <ele>823</ele>
        <time>2019-05-15T11:02:02.082Z</time>
      </trkpt>
      <trkpt lat="48.45089" lon="7.11136">
        <ele>823</ele>
        <time>2019-05-15T11:02:03.082Z</time>
      </trkpt>
      <trkpt lat="48.45089" lon="7.11136">
        <ele>823</ele>
        <time>2019-05-15T11:02:04.082Z</time>
      </trkpt>
      <trkpt lat="48.4509" lon="7.11136">
        <ele>823</ele>
        <time>2019-05-15T11:02:05.082Z</time>
      </trkpt>
      <trkpt lat="48.45091" lon="7.11136">
        <ele>823</ele>
        <time>2019-05-15T11:02:06.082Z</time>
      </trkpt>
      <trkpt lat="48.45092" lon="7.11137">
        <ele>822</ele>
        <time>2019-05-15T11:02:07.082Z</time>
      </trkpt>
      <trkpt lat="48.45093" lon="7.11137">
        <ele>822</ele>
        <time>2019-05-15T11:02:08.082Z</time>
      </trkpt>
      <trkpt lat="48.45094" lon="7.11137">
        <ele>822</ele>
        <time>2019-05-15T11:02:09.082Z</time>
      </trkpt>
      <trkpt lat="48.45094" lon="7.11137">
        <ele>822</ele>
        <time>2019-05-15T11:02:10.082Z</time>
      </trkpt>
      <trkpt lat="48.45095" lon="7.11138">
        <ele>821</ele>
        <time>2019-05-15T11:02:11.082Z</time>
      </trkpt>
      <trkpt lat="48.45096" lon="7.11138">
        <ele>821</ele>
        <time>2019-05-15T11:02:12.082Z</time>
      </trkpt>
      <trkpt lat="48.45097" lon="7.11139">
        <ele>821</ele>
        <time>2019-05-15T11:02:13.082Z</time>
      </trkpt>
      <trkpt lat="48.45099" lon="7.11139">
        <ele>821</ele>
        <time>2019-05-15T11:02:14.082Z</time>
      </trkpt>
      <trkpt lat="48.451" lon="7.1114">
        <ele>820</ele>
        <time>2019-05-15T11:02:15.082Z</time>
      </trkpt>
      <trkpt lat="48.45101" lon="7.1114">
        <ele>820</ele>
        <time>2019-05-15T11:02:16.082Z</time>
      </trkpt>
      <trkpt lat="48.45102" lon="7.11141">
        <ele>820</ele>
        <time>2019-05-15T11:02:17.082Z</time>
      </trkpt>
      <trkpt lat="48.45103" lon="7.11141">
        <ele>820</ele>
        <time>2019-05-15T11:02:18.082Z</time>
      </trkpt>
      <trkpt lat="48.45104" lon="7.11141">
        <ele>821</ele>
        <time>2019-05-15T11:02:19.082Z</time>
      </trkpt>
      <trkpt lat="48.45104" lon="7.11142">
        <ele>820</ele>
        <time>2019-05-15T11:02:20.082Z</time>
      </trkpt>
      <trkpt lat="48.45105" lon="7.11142">
        <ele>821</ele>
        <time>2019-05-15T11:02:21.082Z</time>
      </trkpt>
      <trkpt lat="48.45106" lon="7.11143">
        <ele>821</ele>
        <time>2019-05-15T11:02:22.082Z</time>
      </trkpt>
      <trkpt lat="48.45106" lon="7.11143">
        <ele>821</ele>
        <time>2019-05-15T11:02:23.082Z</time>
      </trkpt>
      <trkpt lat="48.45107" lon="7.11143">
        <ele>821</ele>
        <time>2019-05-15T11:02:24.082Z</time>
      </trkpt>
      <trkpt lat="48.45108" lon="7.11144">
        <ele>821</ele>
        <time>2019-05-15T11:02:25.082Z</time>
      </trkpt>
      <trkpt lat="48.45109" lon="7.11144">
        <ele>821</ele>
        <time>2019-05-15T11:02:26.082Z</time>
      </trkpt>
      <trkpt lat="48.4511" lon="7.11145">
        <ele>821</ele>
        <time>2019-05-15T11:02:27.082Z</time>
      </trkpt>
      <trkpt lat="48.45111" lon="7.11145">
        <ele>821</ele>
        <time>2019-05-15T11:02:28.082Z</time>
      </trkpt>
      <trkpt lat="48.45113" lon="7.11146">
        <ele>821</ele>
        <time>2019-05-15T11:02:29.082Z</time>
      </trkpt>
      <trkpt lat="48.45114" lon="7.11146">
        <ele>821</ele>
        <time>2019-05-15T11:02:30.082Z</time>
      </trkpt>
      <trkpt lat="48.45115" lon="7.11147">
        <ele>820</ele>
        <time>2019-05-15T11:02:31.082Z</time>
      </trkpt>
      <trkpt lat="48.45116" lon="7.11147">
        <ele>821</ele>
        <time>2019-05-15T11:02:32.082Z</time>
      </trkpt>
      <trkpt lat="48.45117" lon="7.11148">
        <ele>821</ele>
        <time>2019-05-15T11:02:33.082Z</time>
      </trkpt>
      <trkpt lat="48.45117" lon="7.11148">
        <ele>821</ele>
        <time>2019-05-15T11:02:34.082Z</time>
      </trkpt>
      <trkpt lat="48.45118" lon="7.11149">
        <ele>821</ele>
        <time>2019-05-15T11:02:35.082Z</time>
      </trkpt>
      <trkpt lat="48.45119" lon="7.11149">
        <ele>821</ele>
        <time>2019-05-15T11:02:36.082Z</time>
      </trkpt>
      <trkpt lat="48.45119" lon="7.11149">
        <ele>821</ele>
        <time>2019-05-15T11:02:37.082Z</time>
      </trkpt>
      <trkpt lat="48.4512" lon="7.1115">
        <ele>821</ele>
        <time>2019-05-15T11:02:38.082Z</time>
      </trkpt>
      <trkpt lat="48.4512" lon="7.1115">
        <ele>821</ele>
        <time>2019-05-15T11:02:39.082Z</time>
      </trkpt>
      <trkpt lat="48.45121" lon="7.11151">
        <ele>820</ele>
        <time>2019-05-15T11:02:40.082Z</time>
      </trkpt>
      <trkpt lat="48.45121" lon="7.11151">
        <ele>820</ele>
        <time>2019-05-15T11:02:41.082Z</time>
      </trkpt>
      <trkpt lat="48.45122" lon="7.11151">
        <ele>820</ele>
        <time>2019-05-15T11:02:42.082Z</time>
      </trkpt>
      <trkpt lat="48.45123" lon="7.11152">
        <ele>820</ele>
        <time>2019-05-15T11:02:43.082Z</time>
      </trkpt>
      <trkpt lat="48.45123" lon="7.11152">
        <ele>819</ele>
        <time>2019-05-15T11:02:44.082Z</time>
      </trkpt>
      <trkpt lat="48.45124" lon="7.11153">
        <ele>819</ele>
        <time>2019-05-15T11:02:45.082Z</time>
      </trkpt>
      <trkpt lat="48.45125" lon="7.11153">
        <ele>819</ele>
        <time>2019-05-15T11:02:46.082Z</time>
      </trkpt>
      <trkpt lat="48.45126" lon="7.11154">
        <ele>818</ele>
        <time>2019-05-15T11:02:47.082Z</time>
      </trkpt>
      <trkpt lat="48.45128" lon="7.11154">
        <ele>818</ele>
        <time>2019-05-15T11:02:48.082Z</time>
      </trkpt>
      <trkpt lat="48.45129" lon="7.11155">
        <ele>818</ele>
        <time>2019-05-15T11:02:49.082Z</time>
      </trkpt>
      <trkpt lat="48.4513" lon="7.11155">
        <ele>818</ele>
        <time>2019-05-15T11:02:50.082Z</time>
      </trkpt>
      <trkpt lat="48.45131" lon="7.11156">
        <ele>818</ele>
        <time>2019-05-15T11:02:51.082Z</time>
      </trkpt>
      <trkpt lat="48.45132" lon="7.11156">
        <ele>818</ele>
        <time>2019-05-15T11:02:52.082Z</time>
      </trkpt>
      <trkpt lat="48.45133" lon="7.11157">
        <ele>819</ele>
        <time>2019-05-15T11:02:53.082Z</time>
      </trkpt>
      <trkpt lat="48.45134" lon="7.11158">
        <ele>819</ele>
        <time>2019-05-15T11:02:54.082Z</time>
      </trkpt>
      <trkpt lat="48.45135" lon="7.11158">
        <ele>818</ele>
        <time>2019-05-15T11:02:55.082Z</time>
      </trkpt>
      <trkpt lat="48.45136" lon="7.11159">
        <ele>819</ele>
        <time>2019-05-15T11:02:56.082Z</time>
      </trkpt>
      <trkpt lat="48.45137" lon="7.11159">
        <ele>818</ele>
        <time>2019-05-15T11:02:57.082Z</time>
      </trkpt>
      <trkpt lat="48.45138" lon="7.1116">
        <ele>818</ele>
        <time>2019-05-15T11:02:58.082Z</time>
      </trkpt>
      <trkpt lat="48.45139" lon="7.1116">
        <ele>818</ele>
        <time>2019-05-15T11:02:59.082Z</time>
      </trkpt>
      <trkpt lat="48.4514" lon="7.1116">
        <ele>818</ele>
        <time>2019-05-15T11:03:00.082Z</time>
      </trkpt>
      <trkpt lat="48.45141" lon="7.11161">
        <ele>818</ele>
        <time>2019-05-15T11:03:01.082Z</time>
      </trkpt>
      <trkpt lat="48.45143" lon="7.11162">
        <ele>818</ele>
        <time>2019-05-15T11:03:02.082Z</time>
      </trkpt>
      <trkpt lat="48.45144" lon="7.11163">
        <ele>817</ele>
        <time>2019-05-15T11:03:03.082Z</time>
      </trkpt>
      <trkpt lat="48.45145" lon="7.11163">
        <ele>818</ele>
        <time>2019-05-15T11:03:04.082Z</time>
      </trkpt>
      <trkpt lat="48.45146" lon="7.11163">
        <ele>819</ele>
        <time>2019-05-15T11:03:05.082Z</time>
      </trkpt>
      <trkpt lat="48.45147" lon="7.11163">
        <ele>819</ele>
        <time>2019-05-15T11:03:06.082Z</time>
      </trkpt>
      <trkpt lat="48.45148" lon="7.11164">
        <ele>819</ele>
        <time>2019-05-15T11:03:07.082Z</time>
      </trkpt>
      <trkpt lat="48.45149" lon="7.11164">
        <ele>819</ele>
        <time>2019-05-15T11:03:08.082Z</time>
      </trkpt>
      <trkpt lat="48.4515" lon="7.11164">
        <ele>820</ele>
        <time>2019-05-15T11:03:09.082Z</time>
      </trkpt>
      <trkpt lat="48.45151" lon="7.11165">
        <ele>820</ele>
        <time>2019-05-15T11:03:10.082Z</time>
      </trkpt>
      <trkpt lat="48.45152" lon="7.11165">
        <ele>820</ele>
        <time>2019-05-15T11:03:11.082Z</time>
      </trkpt>
      <trkpt lat="48.45152" lon="7.11166">
        <ele>821</ele>
        <time>2019-05-15T11:03:12.082Z</time>
      </trkpt>
      <trkpt lat="48.45153" lon="7.11166">
        <ele>821</ele>
        <time>2019-05-15T11:03:13.082Z</time>
      </trkpt>
      <trkpt lat="48.45154" lon="7.11167">
        <ele>821</ele>
        <time>2019-05-15T11:03:14.082Z</time>
      </trkpt>
      <trkpt lat="48.45155" lon="7.11167">
        <ele>821</ele>
        <time>2019-05-15T11:03:15.082Z</time>
      </trkpt>
      <trkpt lat="48.45156" lon="7.11168">
        <ele>821</ele>
        <time>2019-05-15T11:03:16.082Z</time>
      </trkpt>
      <trkpt lat="48.45157" lon="7.11169">
        <ele>821</ele>
        <time>2019-05-15T11:03:17.082Z</time>
      </trkpt>
      <trkpt lat="48.45158" lon="7.1117">
        <ele>820</ele>
        <time>2019-05-15T11:03:18.082Z</time>
      </trkpt>
      <trkpt lat="48.45159" lon="7.1117">
        <ele>820</ele>
        <time>2019-05-15T11:03:19.082Z</time>
      </trkpt>
      <trkpt lat="48.4516" lon="7.11171">
        <ele>820</ele>
        <time>2019-05-15T11:03:20.082Z</time>
      </trkpt>
      <trkpt lat="48.45161" lon="7.11172">
        <ele>819</ele>
        <time>2019-05-15T11:03:21.082Z</time>
      </trkpt>
      <trkpt lat="48.45162" lon="7.11172">
        <ele>818</ele>
        <time>2019-05-15T11:03:22.082Z</time>
      </trkpt>
      <trkpt lat="48.45163" lon="7.11173">
        <ele>818</ele>
        <time>2019-05-15T11:03:23.082Z</time>
      </trkpt>
      <trkpt lat="48.45165" lon="7.11174">
        <ele>818</ele>
        <time>2019-05-15T11:03:24.082Z</time>
      </trkpt>
      <trkpt lat="48.45166" lon="7.11174">
        <ele>818</ele>
        <time>2019-05-15T11:03:25.082Z</time>
      </trkpt>
      <trkpt lat="48.45167" lon="7.11175">
        <ele>818</ele>
        <time>2019-05-15T11:03:26.082Z</time>
      </trkpt>
      <trkpt lat="48.45168" lon="7.11175">
        <ele>818</ele>
        <time>2019-05-15T11:03:27.082Z</time>
      </trkpt>
      <trkpt lat="48.45169" lon="7.11176">
        <ele>818</ele>
        <time>2019-05-15T11:03:28.082Z</time>
      </trkpt>
      <trkpt lat="48.4517" lon="7.11176">
        <ele>817</ele>
        <time>2019-05-15T11:03:29.082Z</time>
      </trkpt>
      <trkpt lat="48.45171" lon="7.11177">
        <ele>817</ele>
        <time>2019-05-15T11:03:30.082Z</time>
      </trkpt>
      <trkpt lat="48.45172" lon="7.11177">
        <ele>817</ele>
        <time>2019-05-15T11:03:31.082Z</time>
      </trkpt>
      <trkpt lat="48.45173" lon="7.11177">
        <ele>817</ele>
        <time>2019-05-15T11:03:32.082Z</time>
      </trkpt>
      <trkpt lat="48.45174" lon="7.11178">
        <ele>817</ele>
        <time>2019-05-15T11:03:33.082Z</time>
      </trkpt>
      <trkpt lat="48.45175" lon="7.11179">
        <ele>816</ele>
        <time>2019-05-15T11:03:34.082Z</time>
      </trkpt>
      <trkpt lat="48.45175" lon="7.1118">
        <ele>816</ele>
        <time>2019-05-15T11:03:35.082Z</time>
      </trkpt>
      <trkpt lat="48.45176" lon="7.1118">
        <ele>816</ele>
        <time>2019-05-15T11:03:36.082Z</time>
      </trkpt>
      <trkpt lat="48.45177" lon="7.11181">
        <ele>816</ele>
        <time>2019-05-15T11:03:37.082Z</time>
      </trkpt>
      <trkpt lat="48.45178" lon="7.11181">
        <ele>816</ele>
        <time>2019-05-15T11:03:38.082Z</time>
      </trkpt>
      <trkpt lat="48.45179" lon="7.11182">
        <ele>816</ele>
        <time>2019-05-15T11:03:39.082Z</time>
      </trkpt>
      <trkpt lat="48.4518" lon="7.11182">
        <ele>815</ele>
        <time>2019-05-15T11:03:40.082Z</time>
      </trkpt>
      <trkpt lat="48.45181" lon="7.11183">
        <ele>815</ele>
        <time>2019-05-15T11:03:41.082Z</time>
      </trkpt>
      <trkpt lat="48.45182" lon="7.11183">
        <ele>815</ele>
        <time>2019-05-15T11:03:42.082Z</time>
      </trkpt>
      <trkpt lat="48.45183" lon="7.11184">
        <ele>815</ele>
        <time>2019-05-15T11:03:43.082Z</time>
      </trkpt>
      <trkpt lat="48.45184" lon="7.11185">
        <ele>815</ele>
        <time>2019-05-15T11:03:44.082Z</time>
      </trkpt>
      <trkpt lat="48.45185" lon="7.11185">
        <ele>815</ele>
        <time>2019-05-15T11:03:45.082Z</time>
      </trkpt>
      <trkpt lat="48.45186" lon="7.11186">
        <ele>815</ele>
        <time>2019-05-15T11:03:46.082Z</time>
      </trkpt>
      <trkpt lat="48.45187" lon="7.11186">
        <ele>814</ele>
        <time>2019-05-15T11:03:47.082Z</time>
      </trkpt>
      <trkpt lat="48.45188" lon="7.11187">
        <ele>814</ele>
        <time>2019-05-15T11:03:48.082Z</time>
      </trkpt>
      <trkpt lat="48.45189" lon="7.11187">
        <ele>815</ele>
        <time>2019-05-15T11:03:49.082Z</time>
      </trkpt>
      <trkpt lat="48.4519" lon="7.11188">
        <ele>815</ele>
        <time>2019-05-15T11:03:50.082Z</time>
      </trkpt>
      <trkpt lat="48.45191" lon="7.11188">
        <ele>814</ele>
        <time>2019-05-15T11:03:51.082Z</time>
      </trkpt>
      <trkpt lat="48.45191" lon="7.11188">
        <ele>814</ele>
        <time>2019-05-15T11:03:52.082Z</time>
      </trkpt>
      <trkpt lat="48.45192" lon="7.11189">
        <ele>815</ele>
        <time>2019-05-15T11:03:53.082Z</time>
      </trkpt>
      <trkpt lat="48.45193" lon="7.11189">
        <ele>815</ele>
        <time>2019-05-15T11:03:54.082Z</time>
      </trkpt>
      <trkpt lat="48.45194" lon="7.1119">
        <ele>815</ele>
        <time>2019-05-15T11:03:55.082Z</time>
      </trkpt>
      <trkpt lat="48.45194" lon="7.11191">
        <ele>814</ele>
        <time>2019-05-15T11:03:56.082Z</time>
      </trkpt>
      <trkpt lat="48.45195" lon="7.11192">
        <ele>814</ele>
        <time>2019-05-15T11:03:57.082Z</time>
      </trkpt>
      <trkpt lat="48.45196" lon="7.11193">
        <ele>814</ele>
        <time>2019-05-15T11:03:58.082Z</time>
      </trkpt>
      <trkpt lat="48.45196" lon="7.11194">
        <ele>813</ele>
        <time>2019-05-15T11:03:59.082Z</time>
      </trkpt>
      <trkpt lat="48.45197" lon="7.11195">
        <ele>813</ele>
        <time>2019-05-15T11:04:00.082Z</time>
      </trkpt>
      <trkpt lat="48.45198" lon="7.11196">
        <ele>813</ele>
        <time>2019-05-15T11:04:01.082Z</time>
      </trkpt>
      <trkpt lat="48.45199" lon="7.11197">
        <ele>813</ele>
        <time>2019-05-15T11:04:02.082Z</time>
      </trkpt>
      <trkpt lat="48.452" lon="7.11198">
        <ele>812</ele>
        <time>2019-05-15T11:04:03.082Z</time>
      </trkpt>
      <trkpt lat="48.45201" lon="7.11199">
        <ele>812</ele>
        <time>2019-05-15T11:04:04.082Z</time>
      </trkpt>
      <trkpt lat="48.45202" lon="7.112">
        <ele>812</ele>
        <time>2019-05-15T11:04:05.082Z</time>
      </trkpt>
      <trkpt lat="48.45203" lon="7.11201">
        <ele>812</ele>
        <time>2019-05-15T11:04:06.082Z</time>
      </trkpt>
      <trkpt lat="48.45203" lon="7.11202">
        <ele>812</ele>
        <time>2019-05-15T11:04:07.082Z</time>
      </trkpt>
      <trkpt lat="48.45204" lon="7.11203">
        <ele>811</ele>
        <time>2019-05-15T11:04:08.082Z</time>
      </trkpt>
      <trkpt lat="48.45206" lon="7.11203">
        <ele>811</ele>
        <time>2019-05-15T11:04:09.082Z</time>
      </trkpt>
      <trkpt lat="48.45207" lon="7.11204">
        <ele>811</ele>
        <time>2019-05-15T11:04:10.082Z</time>
      </trkpt>
      <trkpt lat="48.45207" lon="7.11205">
        <ele>811</ele>
        <time>2019-05-15T11:04:11.082Z</time>
      </trkpt>
      <trkpt lat="48.45208" lon="7.11206">
        <ele>811</ele>
        <time>2019-05-15T11:04:12.082Z</time>
      </trkpt>
      <trkpt lat="48.45209" lon="7.11207">
        <ele>811</ele>
        <time>2019-05-15T11:04:13.082Z</time>
      </trkpt>
      <trkpt lat="48.4521" lon="7.11208">
        <ele>810</ele>
        <time>2019-05-15T11:04:14.082Z</time>
      </trkpt>
      <trkpt lat="48.45211" lon="7.11208">
        <ele>810</ele>
        <time>2019-05-15T11:04:15.082Z</time>
      </trkpt>
      <trkpt lat="48.45212" lon="7.11209">
        <ele>810</ele>
        <time>2019-05-15T11:04:16.082Z</time>
      </trkpt>
      <trkpt lat="48.45213" lon="7.1121">
        <ele>810</ele>
        <time>2019-05-15T11:04:17.082Z</time>
      </trkpt>
      <trkpt lat="48.45214" lon="7.11211">
        <ele>810</ele>
        <time>2019-05-15T11:04:18.082Z</time>
      </trkpt>
      <trkpt lat="48.45215" lon="7.11212">
        <ele>810</ele>
        <time>2019-05-15T11:04:19.082Z</time>
      </trkpt>
      <trkpt lat="48.45216" lon="7.11212">
        <ele>809</ele>
        <time>2019-05-15T11:04:20.082Z</time>
      </trkpt>
      <trkpt lat="48.45216" lon="7.11213">
        <ele>809</ele>
        <time>2019-05-15T11:04:21.082Z</time>
      </trkpt>
      <trkpt lat="48.45217" lon="7.11214">
        <ele>808</ele>
        <time>2019-05-15T11:04:22.082Z</time>
      </trkpt>
      <trkpt lat="48.45218" lon="7.11215">
        <ele>808</ele>
        <time>2019-05-15T11:04:23.082Z</time>
      </trkpt>
      <trkpt lat="48.45219" lon="7.11215">
        <ele>808</ele>
        <time>2019-05-15T11:04:24.082Z</time>
      </trkpt>
      <trkpt lat="48.4522" lon="7.11216">
        <ele>807</ele>
        <time>2019-05-15T11:04:25.082Z</time>
      </trkpt>
      <trkpt lat="48.45221" lon="7.11216">
        <ele>807</ele>
        <time>2019-05-15T11:04:26.082Z</time>
      </trkpt>
      <trkpt lat="48.45222" lon="7.11217">
        <ele>806</ele>
        <time>2019-05-15T11:04:27.082Z</time>
      </trkpt>
      <trkpt lat="48.45223" lon="7.11218">
        <ele>806</ele>
        <time>2019-05-15T11:04:28.082Z</time>
      </trkpt>
      <trkpt lat="48.45223" lon="7.11219">
        <ele>806</ele>
        <time>2019-05-15T11:04:29.082Z</time>
      </trkpt>
      <trkpt lat="48.45224" lon="7.1122">
        <ele>805</ele>
        <time>2019-05-15T11:04:30.082Z</time>
      </trkpt>
      <trkpt lat="48.45224" lon="7.11221">
        <ele>805</ele>
        <time>2019-05-15T11:04:31.082Z</time>
      </trkpt>
      <trkpt lat="48.45225" lon="7.11222">
        <ele>806</ele>
        <time>2019-05-15T11:04:32.082Z</time>
      </trkpt>
      <trkpt lat="48.45226" lon="7.11223">
        <ele>806</ele>
        <time>2019-05-15T11:04:33.082Z</time>
      </trkpt>
      <trkpt lat="48.45227" lon="7.11224">
        <ele>805</ele>
        <time>2019-05-15T11:04:34.082Z</time>
      </trkpt>
      <trkpt lat="48.45227" lon="7.11224">
        <ele>805</ele>
        <time>2019-05-15T11:04:35.082Z</time>
      </trkpt>
      <trkpt lat="48.45228" lon="7.11225">
        <ele>804</ele>
        <time>2019-05-15T11:04:36.082Z</time>
      </trkpt>
      <trkpt lat="48.45229" lon="7.11226">
        <ele>805</ele>
        <time>2019-05-15T11:04:37.082Z</time>
      </trkpt>
      <trkpt lat="48.4523" lon="7.11227">
        <ele>804</ele>
        <time>2019-05-15T11:04:38.082Z</time>
      </trkpt>
      <trkpt lat="48.45231" lon="7.11227">
        <ele>804</ele>
        <time>2019-05-15T11:04:39.082Z</time>
      </trkpt>
      <trkpt lat="48.45231" lon="7.11228">
        <ele>804</ele>
        <time>2019-05-15T11:04:40.082Z</time>
      </trkpt>
      <trkpt lat="48.45232" lon="7.11229">
        <ele>804</ele>
        <time>2019-05-15T11:04:41.082Z</time>
      </trkpt>
      <trkpt lat="48.45233" lon="7.1123">
        <ele>803</ele>
        <time>2019-05-15T11:04:42.082Z</time>
      </trkpt>
      <trkpt lat="48.45233" lon="7.1123">
        <ele>803</ele>
        <time>2019-05-15T11:04:43.082Z</time>
      </trkpt>
      <trkpt lat="48.45234" lon="7.11231">
        <ele>803</ele>
        <time>2019-05-15T11:04:44.082Z</time>
      </trkpt>
      <trkpt lat="48.45234" lon="7.11232">
        <ele>803</ele>
        <time>2019-05-15T11:04:45.082Z</time>
      </trkpt>
      <trkpt lat="48.45236" lon="7.11233">
        <ele>803</ele>
        <time>2019-05-15T11:04:46.082Z</time>
      </trkpt>
      <trkpt lat="48.45237" lon="7.11234">
        <ele>803</ele>
        <time>2019-05-15T11:04:47.082Z</time>
      </trkpt>
      <trkpt lat="48.45239" lon="7.11235">
        <ele>802</ele>
        <time>2019-05-15T11:04:48.082Z</time>
      </trkpt>
      <trkpt lat="48.45241" lon="7.11236">
        <ele>801</ele>
        <time>2019-05-15T11:04:49.082Z</time>
      </trkpt>
      <trkpt lat="48.45243" lon="7.11237">
        <ele>801</ele>
        <time>2019-05-15T11:04:50.082Z</time>
      </trkpt>
      <trkpt lat="48.45244" lon="7.11238">
        <ele>801</ele>
        <time>2019-05-15T11:04:51.082Z</time>
      </trkpt>
      <trkpt lat="48.45246" lon="7.11239">
        <ele>802</ele>
        <time>2019-05-15T11:04:52.082Z</time>
      </trkpt>
      <trkpt lat="48.45247" lon="7.1124">
        <ele>801</ele>
        <time>2019-05-15T11:04:53.082Z</time>
      </trkpt>
      <trkpt lat="48.45248" lon="7.11241">
        <ele>801</ele>
        <time>2019-05-15T11:04:54.082Z</time>
      </trkpt>
      <trkpt lat="48.45249" lon="7.11242">
        <ele>801</ele>
        <time>2019-05-15T11:04:55.082Z</time>
      </trkpt>
      <trkpt lat="48.4525" lon="7.11244">
        <ele>801</ele>
        <time>2019-05-15T11:04:56.082Z</time>
      </trkpt>
      <trkpt lat="48.45252" lon="7.11245">
        <ele>800</ele>
        <time>2019-05-15T11:04:57.082Z</time>
      </trkpt>
      <trkpt lat="48.45253" lon="7.11246">
        <ele>800</ele>
        <time>2019-05-15T11:04:58.082Z</time>
      </trkpt>
      <trkpt lat="48.45255" lon="7.11247">
        <ele>799</ele>
        <time>2019-05-15T11:04:59.082Z</time>
      </trkpt>
      <trkpt lat="48.45257" lon="7.11249">
        <ele>799</ele>
        <time>2019-05-15T11:05:00.082Z</time>
      </trkpt>
      <trkpt lat="48.45258" lon="7.1125">
        <ele>799</ele>
        <time>2019-05-15T11:05:01.082Z</time>
      </trkpt>
      <trkpt lat="48.45258" lon="7.11251">
        <ele>798</ele>
        <time>2019-05-15T11:05:02.082Z</time>
      </trkpt>
      <trkpt lat="48.45259" lon="7.11252">
        <ele>798</ele>
        <time>2019-05-15T11:05:03.082Z</time>
      </trkpt>
      <trkpt lat="48.4526" lon="7.11254">
        <ele>798</ele>
        <time>2019-05-15T11:05:04.082Z</time>
      </trkpt>
      <trkpt lat="48.45262" lon="7.11255">
        <ele>798</ele>
        <time>2019-05-15T11:05:05.082Z</time>
      </trkpt>
      <trkpt lat="48.45263" lon="7.11256">
        <ele>799</ele>
        <time>2019-05-15T11:05:06.082Z</time>
      </trkpt>
      <trkpt lat="48.45264" lon="7.11257">
        <ele>798</ele>
        <time>2019-05-15T11:05:07.082Z</time>
      </trkpt>
      <trkpt lat="48.45265" lon="7.11258">
        <ele>798</ele>
        <time>2019-05-15T11:05:08.082Z</time>
      </trkpt>
      <trkpt lat="48.45266" lon="7.11259">
        <ele>798</ele>
        <time>2019-05-15T11:05:09.082Z</time>
      </trkpt>
      <trkpt lat="48.45268" lon="7.1126">
        <ele>798</ele>
        <time>2019-05-15T11:05:10.082Z</time>
      </trkpt>
      <trkpt lat="48.45269" lon="7.11261">
        <ele>799</ele>
        <time>2019-05-15T11:05:11.082Z</time>
      </trkpt>
      <trkpt lat="48.4527" lon="7.11262">
        <ele>798</ele>
        <time>2019-05-15T11:05:12.082Z</time>
      </trkpt>
      <trkpt lat="48.45272" lon="7.11263">
        <ele>798</ele>
        <time>2019-05-15T11:05:13.082Z</time>
      </trkpt>
      <trkpt lat="48.45273" lon="7.11264">
        <ele>799</ele>
        <time>2019-05-15T11:05:14.082Z</time>
      </trkpt>
      <trkpt lat="48.45274" lon="7.11265">
        <ele>799</ele>
        <time>2019-05-15T11:05:15.082Z</time>
      </trkpt>
      <trkpt lat="48.45275" lon="7.11266">
        <ele>799</ele>
        <time>2019-05-15T11:05:16.082Z</time>
      </trkpt>
      <trkpt lat="48.45276" lon="7.11267">
        <ele>799</ele>
        <time>2019-05-15T11:05:17.082Z</time>
      </trkpt>
      <trkpt lat="48.45277" lon="7.11268">
        <ele>799</ele>
        <time>2019-05-15T11:05:18.082Z</time>
      </trkpt>
      <trkpt lat="48.45278" lon="7.1127">
        <ele>800</ele>
        <time>2019-05-15T11:05:19.082Z</time>
      </trkpt>
      <trkpt lat="48.45279" lon="7.11271">
        <ele>800</ele>
        <time>2019-05-15T11:05:20.082Z</time>
      </trkpt>
      <trkpt lat="48.4528" lon="7.11272">
        <ele>800</ele>
        <time>2019-05-15T11:05:21.082Z</time>
      </trkpt>
      <trkpt lat="48.45281" lon="7.11273">
        <ele>801</ele>
        <time>2019-05-15T11:05:22.082Z</time>
      </trkpt>
      <trkpt lat="48.45281" lon="7.11274">
        <ele>800</ele>
        <time>2019-05-15T11:05:23.082Z</time>
      </trkpt>
      <trkpt lat="48.45282" lon="7.11275">
        <ele>800</ele>
        <time>2019-05-15T11:05:24.082Z</time>
      </trkpt>
      <trkpt lat="48.45283" lon="7.11277">
        <ele>799</ele>
        <time>2019-05-15T11:05:25.082Z</time>
      </trkpt>
      <trkpt lat="48.45283" lon="7.11278">
        <ele>799</ele>
        <time>2019-05-15T11:05:26.082Z</time>
      </trkpt>
      <trkpt lat="48.45284" lon="7.11279">
        <ele>799</ele>
        <time>2019-05-15T11:05:27.082Z</time>
      </trkpt>
      <trkpt lat="48.45285" lon="7.11281">
        <ele>799</ele>
        <time>2019-05-15T11:05:28.082Z</time>
      </trkpt>
      <trkpt lat="48.45285" lon="7.11282">
        <ele>798</ele>
        <time>2019-05-15T11:05:29.082Z</time>
      </trkpt>
      <trkpt lat="48.45285" lon="7.11283">
        <ele>798</ele>
        <time>2019-05-15T11:05:30.082Z</time>
      </trkpt>
      <trkpt lat="48.45286" lon="7.11284">
        <ele>799</ele>
        <time>2019-05-15T11:05:31.082Z</time>
      </trkpt>
      <trkpt lat="48.45286" lon="7.11285">
        <ele>799</ele>
        <time>2019-05-15T11:05:32.082Z</time>
      </trkpt>
      <trkpt lat="48.45287" lon="7.11286">
        <ele>798</ele>
        <time>2019-05-15T11:05:33.082Z</time>
      </trkpt>
      <trkpt lat="48.45288" lon="7.11288">
        <ele>798</ele>
        <time>2019-05-15T11:05:34.082Z</time>
      </trkpt>
      <trkpt lat="48.45289" lon="7.11289">
        <ele>798</ele>
        <time>2019-05-15T11:05:35.082Z</time>
      </trkpt>
      <trkpt lat="48.4529" lon="7.1129">
        <ele>797</ele>
        <time>2019-05-15T11:05:36.082Z</time>
      </trkpt>
      <trkpt lat="48.4529" lon="7.11291">
        <ele>797</ele>
        <time>2019-05-15T11:05:37.082Z</time>
      </trkpt>
      <trkpt lat="48.45291" lon="7.11292">
        <ele>798</ele>
        <time>2019-05-15T11:05:38.082Z</time>
      </trkpt>
      <trkpt lat="48.45292" lon="7.11293">
        <ele>797</ele>
        <time>2019-05-15T11:05:39.082Z</time>
      </trkpt>
      <trkpt lat="48.45293" lon="7.11294">
        <ele>798</ele>
        <time>2019-05-15T11:05:40.082Z</time>
      </trkpt>
      <trkpt lat="48.45294" lon="7.11296">
        <ele>797</ele>
        <time>2019-05-15T11:05:41.082Z</time>
      </trkpt>
      <trkpt lat="48.45294" lon="7.11297">
        <ele>797</ele>
        <time>2019-05-15T11:05:42.082Z</time>
      </trkpt>
      <trkpt lat="48.45295" lon="7.11298">
        <ele>797</ele>
        <time>2019-05-15T11:05:43.082Z</time>
      </trkpt>
      <trkpt lat="48.45296" lon="7.11299">
        <ele>797</ele>
        <time>2019-05-15T11:05:44.082Z</time>
      </trkpt>
      <trkpt lat="48.45296" lon="7.113">
        <ele>797</ele>
        <time>2019-05-15T11:05:45.082Z</time>
      </trkpt>
      <trkpt lat="48.45297" lon="7.11301">
        <ele>797</ele>
        <time>2019-05-15T11:05:46.082Z</time>
      </trkpt>
      <trkpt lat="48.45298" lon="7.11302">
        <ele>797</ele>
        <time>2019-05-15T11:05:47.082Z</time>
      </trkpt>
      <trkpt lat="48.45299" lon="7.11303">
        <ele>798</ele>
        <time>2019-05-15T11:05:48.082Z</time>
      </trkpt>
      <trkpt lat="48.45299" lon="7.11304">
        <ele>798</ele>
        <time>2019-05-15T11:05:49.082Z</time>
      </trkpt>
      <trkpt lat="48.453" lon="7.11305">
        <ele>797</ele>
        <time>2019-05-15T11:05:50.082Z</time>
      </trkpt>
      <trkpt lat="48.453" lon="7.11306">
        <ele>797</ele>
        <time>2019-05-15T11:05:51.082Z</time>
      </trkpt>
      <trkpt lat="48.453" lon="7.11307">
        <ele>797</ele>
        <time>2019-05-15T11:05:52.082Z</time>
      </trkpt>
      <trkpt lat="48.45301" lon="7.11308">
        <ele>797</ele>
        <time>2019-05-15T11:05:53.082Z</time>
      </trkpt>
      <trkpt lat="48.45301" lon="7.11309">
        <ele>797</ele>
        <time>2019-05-15T11:05:54.082Z</time>
      </trkpt>
      <trkpt lat="48.45301" lon="7.1131">
        <ele>797</ele>
        <time>2019-05-15T11:05:55.082Z</time>
      </trkpt>
      <trkpt lat="48.45302" lon="7.11311">
        <ele>797</ele>
        <time>2019-05-15T11:05:56.082Z</time>
      </trkpt>
      <trkpt lat="48.45302" lon="7.11313">
        <ele>797</ele>
        <time>2019-05-15T11:05:57.082Z</time>
      </trkpt>
      <trkpt lat="48.45302" lon="7.11313">
        <ele>797</ele>
        <time>2019-05-15T11:05:58.082Z</time>
      </trkpt>
      <trkpt lat="48.45302" lon="7.11314">
        <ele>798</ele>
        <time>2019-05-15T11:05:59.082Z</time>
      </trkpt>
      <trkpt lat="48.45303" lon="7.11315">
        <ele>798</ele>
        <time>2019-05-15T11:06:00.082Z</time>
      </trkpt>
      <trkpt lat="48.45304" lon="7.11316">
        <ele>798</ele>
        <time>2019-05-15T11:06:01.082Z</time>
      </trkpt>
      <trkpt lat="48.45305" lon="7.11317">
        <ele>798</ele>
        <time>2019-05-15T11:06:02.082Z</time>
      </trkpt>
      <trkpt lat="48.45305" lon="7.11317">
        <ele>798</ele>
        <time>2019-05-15T11:06:03.082Z</time>
      </trkpt>
      <trkpt lat="48.45306" lon="7.11318">
        <ele>799</ele>
        <time>2019-05-15T11:06:04.082Z</time>
      </trkpt>
      <trkpt lat="48.45306" lon="7.11319">
        <ele>799</ele>
        <time>2019-05-15T11:06:05.082Z</time>
      </trkpt>
      <trkpt lat="48.45306" lon="7.11319">
        <ele>799</ele>
        <time>2019-05-15T11:06:06.082Z</time>
      </trkpt>
      <trkpt lat="48.45307" lon="7.1132">
        <ele>799</ele>
        <time>2019-05-15T11:06:07.082Z</time>
      </trkpt>
      <trkpt lat="48.45308" lon="7.11321">
        <ele>799</ele>
        <time>2019-05-15T11:06:08.082Z</time>
      </trkpt>
      <trkpt lat="48.45308" lon="7.11321">
        <ele>799</ele>
        <time>2019-05-15T11:06:09.082Z</time>
      </trkpt>
      <trkpt lat="48.45308" lon="7.11322">
        <ele>800</ele>
        <time>2019-05-15T11:06:10.082Z</time>
      </trkpt>
      <trkpt lat="48.45309" lon="7.11322">
        <ele>800</ele>
        <time>2019-05-15T11:06:11.082Z</time>
      </trkpt>
      <trkpt lat="48.45309" lon="7.11323">
        <ele>800</ele>
        <time>2019-05-15T11:06:12.082Z</time>
      </trkpt>
      <trkpt lat="48.4531" lon="7.11323">
        <ele>801</ele>
        <time>2019-05-15T11:06:13.082Z</time>
      </trkpt>
      <trkpt lat="48.4531" lon="7.11323">
        <ele>802</ele>
        <time>2019-05-15T11:06:14.082Z</time>
      </trkpt>
      <trkpt lat="48.45311" lon="7.11324">
        <ele>802</ele>
        <time>2019-05-15T11:06:15.082Z</time>
      </trkpt>
      <trkpt lat="48.45311" lon="7.11324">
        <ele>802</ele>
        <time>2019-05-15T11:06:16.082Z</time>
      </trkpt>
      <trkpt lat="48.45312" lon="7.11324">
        <ele>802</ele>
        <time>2019-05-15T11:06:17.082Z</time>
      </trkpt>
      <trkpt lat="48.45313" lon="7.11325">
        <ele>802</ele>
        <time>2019-05-15T11:06:18.082Z</time>
      </trkpt>
      <trkpt lat="48.45313" lon="7.11326">
        <ele>802</ele>
        <time>2019-05-15T11:06:19.082Z</time>
      </trkpt>
      <trkpt lat="48.45314" lon="7.11327">
        <ele>802</ele>
        <time>2019-05-15T11:06:20.082Z</time>
      </trkpt>
      <trkpt lat="48.45315" lon="7.11327">
        <ele>803</ele>
        <time>2019-05-15T11:06:21.082Z</time>
      </trkpt>
      <trkpt lat="48.45316" lon="7.11327">
        <ele>803</ele>
        <time>2019-05-15T11:06:22.082Z</time>
      </trkpt>
      <trkpt lat="48.45316" lon="7.11328">
        <ele>804</ele>
        <time>2019-05-15T11:06:23.082Z</time>
      </trkpt>
      <trkpt lat="48.45317" lon="7.11328">
        <ele>804</ele>
        <time>2019-05-15T11:06:24.082Z</time>
      </trkpt>
      <trkpt lat="48.45318" lon="7.11328">
        <ele>804</ele>
        <time>2019-05-15T11:06:25.082Z</time>
      </trkpt>
      <trkpt lat="48.45319" lon="7.11329">
        <ele>805</ele>
        <time>2019-05-15T11:06:26.082Z</time>
      </trkpt>
      <trkpt lat="48.4532" lon="7.11329">
        <ele>804</ele>
        <time>2019-05-15T11:06:27.082Z</time>
      </trkpt>
      <trkpt lat="48.45321" lon="7.1133">
        <ele>805</ele>
        <time>2019-05-15T11:06:28.082Z</time>
      </trkpt>
      <trkpt lat="48.45323" lon="7.1133">
        <ele>805</ele>
        <time>2019-05-15T11:06:29.082Z</time>
      </trkpt>
      <trkpt lat="48.45325" lon="7.11331">
        <ele>803</ele>
        <time>2019-05-15T11:06:30.082Z</time>
      </trkpt>
      <trkpt lat="48.45327" lon="7.11332">
        <ele>803</ele>
        <time>2019-05-15T11:06:31.082Z</time>
      </trkpt>
      <trkpt lat="48.45328" lon="7.11333">
        <ele>803</ele>
        <time>2019-05-15T11:06:32.082Z</time>
      </trkpt>
      <trkpt lat="48.45329" lon="7.11334">
        <ele>803</ele>
        <time>2019-05-15T11:06:33.082Z</time>
      </trkpt>
      <trkpt lat="48.4533" lon="7.11335">
        <ele>803</ele>
        <time>2019-05-15T11:06:34.082Z</time>
      </trkpt>
      <trkpt lat="48.45332" lon="7.11336">
        <ele>802</ele>
        <time>2019-05-15T11:06:35.082Z</time>
      </trkpt>
      <trkpt lat="48.45333" lon="7.11336">
        <ele>802</ele>
        <time>2019-05-15T11:06:36.082Z</time>
      </trkpt>
      <trkpt lat="48.45335" lon="7.11337">
        <ele>802</ele>
        <time>2019-05-15T11:06:37.082Z</time>
      </trkpt>
      <trkpt lat="48.45335" lon="7.11338">
        <ele>801</ele>
        <time>2019-05-15T11:06:38.082Z</time>
      </trkpt>
      <trkpt lat="48.45336" lon="7.11339">
        <ele>801</ele>
        <time>2019-05-15T11:06:39.082Z</time>
      </trkpt>
      <trkpt lat="48.45337" lon="7.1134">
        <ele>800</ele>
        <time>2019-05-15T11:06:40.082Z</time>
      </trkpt>
      <trkpt lat="48.45337" lon="7.11341">
        <ele>800</ele>
        <time>2019-05-15T11:06:41.082Z</time>
      </trkpt>
      <trkpt lat="48.45338" lon="7.11342">
        <ele>799</ele>
        <time>2019-05-15T11:06:42.082Z</time>
      </trkpt>
      <trkpt lat="48.45339" lon="7.11344">
        <ele>798</ele>
        <time>2019-05-15T11:06:43.082Z</time>
      </trkpt>
      <trkpt lat="48.45341" lon="7.11345">
        <ele>798</ele>
        <time>2019-05-15T11:06:44.082Z</time>
      </trkpt>
      <trkpt lat="48.45342" lon="7.11346">
        <ele>798</ele>
        <time>2019-05-15T11:06:45.082Z</time>
      </trkpt>
      <trkpt lat="48.45343" lon="7.11348">
        <ele>797</ele>
        <time>2019-05-15T11:06:46.082Z</time>
      </trkpt>
      <trkpt lat="48.45344" lon="7.11349">
        <ele>797</ele>
        <time>2019-05-15T11:06:47.082Z</time>
      </trkpt>
      <trkpt lat="48.45345" lon="7.11351">
        <ele>797</ele>
        <time>2019-05-15T11:06:48.082Z</time>
      </trkpt>
      <trkpt lat="48.45346" lon="7.11352">
        <ele>797</ele>
        <time>2019-05-15T11:06:49.082Z</time>
      </trkpt>
      <trkpt lat="48.45347" lon="7.11353">
        <ele>796</ele>
        <time>2019-05-15T11:06:50.082Z</time>
      </trkpt>
      <trkpt lat="48.45348" lon="7.11354">
        <ele>796</ele>
        <time>2019-05-15T11:06:51.082Z</time>
      </trkpt>
      <trkpt lat="48.45349" lon="7.11355">
        <ele>795</ele>
        <time>2019-05-15T11:06:52.082Z</time>
      </trkpt>
      <trkpt lat="48.4535" lon="7.11356">
        <ele>794</ele>
        <time>2019-05-15T11:06:53.082Z</time>
      </trkpt>
      <trkpt lat="48.45352" lon="7.11358">
        <ele>795</ele>
        <time>2019-05-15T11:06:54.082Z</time>
      </trkpt>
      <trkpt lat="48.45353" lon="7.11359">
        <ele>795</ele>
        <time>2019-05-15T11:06:55.082Z</time>
      </trkpt>
      <trkpt lat="48.45353" lon="7.1136">
        <ele>795</ele>
        <time>2019-05-15T11:06:56.082Z</time>
      </trkpt>
      <trkpt lat="48.45354" lon="7.11361">
        <ele>795</ele>
        <time>2019-05-15T11:06:57.082Z</time>
      </trkpt>
      <trkpt lat="48.45355" lon="7.11362">
        <ele>795</ele>
        <time>2019-05-15T11:06:58.082Z</time>
      </trkpt>
      <trkpt lat="48.45355" lon="7.11363">
        <ele>794</ele>
        <time>2019-05-15T11:06:59.082Z</time>
      </trkpt>
      <trkpt lat="48.45356" lon="7.11364">
        <ele>794</ele>
        <time>2019-05-15T11:07:00.082Z</time>
      </trkpt>
      <trkpt lat="48.45357" lon="7.11366">
        <ele>794</ele>
        <time>2019-05-15T11:07:01.082Z</time>
      </trkpt>
      <trkpt lat="48.45357" lon="7.11367">
        <ele>794</ele>
        <time>2019-05-15T11:07:02.082Z</time>
      </trkpt>
      <trkpt lat="48.45359" lon="7.11368">
        <ele>794</ele>
        <time>2019-05-15T11:07:03.082Z</time>
      </trkpt>
      <trkpt lat="48.4536" lon="7.11369">
        <ele>794</ele>
        <time>2019-05-15T11:07:04.082Z</time>
      </trkpt>
      <trkpt lat="48.45361" lon="7.1137">
        <ele>794</ele>
        <time>2019-05-15T11:07:05.082Z</time>
      </trkpt>
      <trkpt lat="48.45361" lon="7.11371">
        <ele>794</ele>
        <time>2019-05-15T11:07:06.082Z</time>
      </trkpt>
      <trkpt lat="48.45362" lon="7.11372">
        <ele>794</ele>
        <time>2019-05-15T11:07:07.082Z</time>
      </trkpt>
      <trkpt lat="48.45362" lon="7.11373">
        <ele>793</ele>
        <time>2019-05-15T11:07:08.082Z</time>
      </trkpt>
      <trkpt lat="48.45363" lon="7.11374">
        <ele>793</ele>
        <time>2019-05-15T11:07:09.082Z</time>
      </trkpt>
      <trkpt lat="48.45364" lon="7.11376">
        <ele>793</ele>
        <time>2019-05-15T11:07:10.082Z</time>
      </trkpt>
      <trkpt lat="48.45365" lon="7.11377">
        <ele>793</ele>
        <time>2019-05-15T11:07:11.082Z</time>
      </trkpt>
      <trkpt lat="48.45367" lon="7.11378">
        <ele>794</ele>
        <time>2019-05-15T11:07:12.082Z</time>
      </trkpt>
      <trkpt lat="48.45368" lon="7.11379">
        <ele>794</ele>
        <time>2019-05-15T11:07:13.082Z</time>
      </trkpt>
      <trkpt lat="48.45369" lon="7.11381">
        <ele>794</ele>
        <time>2019-05-15T11:07:14.082Z</time>
      </trkpt>
      <trkpt lat="48.4537" lon="7.11382">
        <ele>794</ele>
        <time>2019-05-15T11:07:15.082Z</time>
      </trkpt>
      <trkpt lat="48.4537" lon="7.11384">
        <ele>794</ele>
        <time>2019-05-15T11:07:16.082Z</time>
      </trkpt>
      <trkpt lat="48.45371" lon="7.11385">
        <ele>795</ele>
        <time>2019-05-15T11:07:17.082Z</time>
      </trkpt>
      <trkpt lat="48.45372" lon="7.11387">
        <ele>795</ele>
        <time>2019-05-15T11:07:18.082Z</time>
      </trkpt>
      <trkpt lat="48.45373" lon="7.11388">
        <ele>795</ele>
        <time>2019-05-15T11:07:19.082Z</time>
      </trkpt>
      <trkpt lat="48.45373" lon="7.11389">
        <ele>794</ele>
        <time>2019-05-15T11:07:20.082Z</time>
      </trkpt>
      <trkpt lat="48.45373" lon="7.11391">
        <ele>795</ele>
        <time>2019-05-15T11:07:21.082Z</time>
      </trkpt>
      <trkpt lat="48.45374" lon="7.11392">
        <ele>795</ele>
        <time>2019-05-15T11:07:22.082Z</time>
      </trkpt>
      <trkpt lat="48.45375" lon="7.11394">
        <ele>795</ele>
        <time>2019-05-15T11:07:23.082Z</time>
      </trkpt>
      <trkpt lat="48.45375" lon="7.11396">
        <ele>796</ele>
        <time>2019-05-15T11:07:24.082Z</time>
      </trkpt>
      <trkpt lat="48.45376" lon="7.11397">
        <ele>798</ele>
        <time>2019-05-15T11:07:25.082Z</time>
      </trkpt>
      <trkpt lat="48.45377" lon="7.11399">
        <ele>798</ele>
        <time>2019-05-15T11:07:26.082Z</time>
      </trkpt>
      <trkpt lat="48.45377" lon="7.114">
        <ele>798</ele>
        <time>2019-05-15T11:07:27.082Z</time>
      </trkpt>
      <trkpt lat="48.45378" lon="7.11402">
        <ele>798</ele>
        <time>2019-05-15T11:07:28.082Z</time>
      </trkpt>
      <trkpt lat="48.45379" lon="7.11403">
        <ele>798</ele>
        <time>2019-05-15T11:07:29.082Z</time>
      </trkpt>
      <trkpt lat="48.45379" lon="7.11405">
        <ele>798</ele>
        <time>2019-05-15T11:07:30.082Z</time>
      </trkpt>
      <trkpt lat="48.4538" lon="7.11406">
        <ele>798</ele>
        <time>2019-05-15T11:07:31.082Z</time>
      </trkpt>
      <trkpt lat="48.4538" lon="7.11408">
        <ele>798</ele>
        <time>2019-05-15T11:07:32.082Z</time>
      </trkpt>
      <trkpt lat="48.4538" lon="7.1141">
        <ele>798</ele>
        <time>2019-05-15T11:07:33.082Z</time>
      </trkpt>
      <trkpt lat="48.45381" lon="7.11411">
        <ele>797</ele>
        <time>2019-05-15T11:07:34.082Z</time>
      </trkpt>
      <trkpt lat="48.45381" lon="7.11412">
        <ele>797</ele>
        <time>2019-05-15T11:07:35.082Z</time>
      </trkpt>
      <trkpt lat="48.45382" lon="7.11414">
        <ele>798</ele>
        <time>2019-05-15T11:07:36.082Z</time>
      </trkpt>
      <trkpt lat="48.45382" lon="7.11415">
        <ele>798</ele>
        <time>2019-05-15T11:07:37.082Z</time>
      </trkpt>
      <trkpt lat="48.45383" lon="7.11417">
        <ele>798</ele>
        <time>2019-05-15T11:07:38.082Z</time>
      </trkpt>
      <trkpt lat="48.45383" lon="7.11418">
        <ele>798</ele>
        <time>2019-05-15T11:07:39.082Z</time>
      </trkpt>
      <trkpt lat="48.45383" lon="7.11419">
        <ele>797</ele>
        <time>2019-05-15T11:07:40.082Z</time>
      </trkpt>
      <trkpt lat="48.45383" lon="7.1142">
        <ele>797</ele>
        <time>2019-05-15T11:07:41.082Z</time>
      </trkpt>
      <trkpt lat="48.45383" lon="7.11421">
        <ele>796</ele>
        <time>2019-05-15T11:07:42.082Z</time>
      </trkpt>
      <trkpt lat="48.45383" lon="7.11423">
        <ele>796</ele>
        <time>2019-05-15T11:07:43.082Z</time>
      </trkpt>
      <trkpt lat="48.45384" lon="7.11424">
        <ele>796</ele>
        <time>2019-05-15T11:07:44.082Z</time>
      </trkpt>
      <trkpt lat="48.45384" lon="7.11425">
        <ele>796</ele>
        <time>2019-05-15T11:07:45.082Z</time>
      </trkpt>
      <trkpt lat="48.45385" lon="7.11426">
        <ele>796</ele>
        <time>2019-05-15T11:07:46.082Z</time>
      </trkpt>
      <trkpt lat="48.45385" lon="7.11427">
        <ele>796</ele>
        <time>2019-05-15T11:07:47.082Z</time>
      </trkpt>
      <trkpt lat="48.45386" lon="7.11428">
        <ele>796</ele>
        <time>2019-05-15T11:07:48.082Z</time>
      </trkpt>
      <trkpt lat="48.45386" lon="7.11429">
        <ele>795</ele>
        <time>2019-05-15T11:07:49.082Z</time>
      </trkpt>
      <trkpt lat="48.45387" lon="7.1143">
        <ele>795</ele>
        <time>2019-05-15T11:07:50.082Z</time>
      </trkpt>
      <trkpt lat="48.45387" lon="7.11431">
        <ele>794</ele>
        <time>2019-05-15T11:07:51.082Z</time>
      </trkpt>
      <trkpt lat="48.45387" lon="7.11432">
        <ele>793</ele>
        <time>2019-05-15T11:07:52.082Z</time>
      </trkpt>
      <trkpt lat="48.45388" lon="7.11432">
        <ele>794</ele>
        <time>2019-05-15T11:07:53.082Z</time>
      </trkpt>
      <trkpt lat="48.45388" lon="7.11433">
        <ele>794</ele>
        <time>2019-05-15T11:07:54.082Z</time>
      </trkpt>
      <trkpt lat="48.45389" lon="7.11433">
        <ele>794</ele>
        <time>2019-05-15T11:07:55.082Z</time>
      </trkpt>
      <trkpt lat="48.4539" lon="7.11433">
        <ele>793</ele>
        <time>2019-05-15T11:07:56.082Z</time>
      </trkpt>
      <trkpt lat="48.4539" lon="7.11434">
        <ele>793</ele>
        <time>2019-05-15T11:07:57.082Z</time>
      </trkpt>
      <trkpt lat="48.45391" lon="7.11434">
        <ele>793</ele>
        <time>2019-05-15T11:07:58.082Z</time>
      </trkpt>
      <trkpt lat="48.45391" lon="7.11434">
        <ele>793</ele>
        <time>2019-05-15T11:07:59.082Z</time>
      </trkpt>
      <trkpt lat="48.45391" lon="7.11434">
        <ele>793</ele>
        <time>2019-05-15T11:08:00.082Z</time>
      </trkpt>
      <trkpt lat="48.45392" lon="7.11434">
        <ele>793</ele>
        <time>2019-05-15T11:08:01.082Z</time>
      </trkpt>
      <trkpt lat="48.45392" lon="7.11434">
        <ele>793</ele>
        <time>2019-05-15T11:08:02.082Z</time>
      </trkpt>
      <trkpt lat="48.45392" lon="7.11435">
        <ele>793</ele>
        <time>2019-05-15T11:08:03.082Z</time>
      </trkpt>
      <trkpt lat="48.45392" lon="7.11435">
        <ele>792</ele>
        <time>2019-05-15T11:08:04.082Z</time>
      </trkpt>
      <trkpt lat="48.45392" lon="7.11436">
        <ele>792</ele>
        <time>2019-05-15T11:08:05.082Z</time>
      </trkpt>
      <trkpt lat="48.45392" lon="7.11436">
        <ele>792</ele>
        <time>2019-05-15T11:08:06.082Z</time>
      </trkpt>
      <trkpt lat="48.45392" lon="7.11436">
        <ele>792</ele>
        <time>2019-05-15T11:08:07.082Z</time>
      </trkpt>
      <trkpt lat="48.45393" lon="7.11435">
        <ele>792</ele>
        <time>2019-05-15T11:08:08.082Z</time>
      </trkpt>
      <trkpt lat="48.45393" lon="7.11435">
        <ele>792</ele>
        <time>2019-05-15T11:08:09.082Z</time>
      </trkpt>
      <trkpt lat="48.45393" lon="7.11435">
        <ele>792</ele>
        <time>2019-05-15T11:08:10.082Z</time>
      </trkpt>
      <trkpt lat="48.45394" lon="7.11434">
        <ele>793</ele>
        <time>2019-05-15T11:08:11.082Z</time>
      </trkpt>
      <trkpt lat="48.45395" lon="7.11434">
        <ele>793</ele>
        <time>2019-05-15T11:08:12.082Z</time>
      </trkpt>
      <trkpt lat="48.45395" lon="7.11434">
        <ele>794</ele>
        <time>2019-05-15T11:08:13.082Z</time>
      </trkpt>
      <trkpt lat="48.45396" lon="7.11433">
        <ele>794</ele>
        <time>2019-05-15T11:08:14.082Z</time>
      </trkpt>
      <trkpt lat="48.45396" lon="7.11433">
        <ele>794</ele>
        <time>2019-05-15T11:08:15.082Z</time>
      </trkpt>
      <trkpt lat="48.45396" lon="7.11432">
        <ele>795</ele>
        <time>2019-05-15T11:08:16.082Z</time>
      </trkpt>
      <trkpt lat="48.45397" lon="7.11432">
        <ele>795</ele>
        <time>2019-05-15T11:08:17.082Z</time>
      </trkpt>
      <trkpt lat="48.45397" lon="7.11432">
        <ele>796</ele>
        <time>2019-05-15T11:08:18.082Z</time>
      </trkpt>
      <trkpt lat="48.45397" lon="7.11431">
        <ele>796</ele>
        <time>2019-05-15T11:08:19.082Z</time>
      </trkpt>
      <trkpt lat="48.45397" lon="7.11431">
        <ele>796</ele>
        <time>2019-05-15T11:08:20.082Z</time>
      </trkpt>
      <trkpt lat="48.45397" lon="7.11431">
        <ele>796</ele>
        <time>2019-05-15T11:08:21.082Z</time>
      </trkpt>
      <trkpt lat="48.45397" lon="7.11431">
        <ele>796</ele>
        <time>2019-05-15T11:08:22.082Z</time>
      </trkpt>
      <trkpt lat="48.45397" lon="7.11431">
        <ele>796</ele>
        <time>2019-05-15T11:08:23.082Z</time>
      </trkpt>
      <trkpt lat="48.45398" lon="7.11431">
        <ele>796</ele>
        <time>2019-05-15T11:08:24.082Z</time>
      </trkpt>
      <trkpt lat="48.45398" lon="7.11431">
        <ele>797</ele>
        <time>2019-05-15T11:08:25.082Z</time>
      </trkpt>
      <trkpt lat="48.45399" lon="7.1143">
        <ele>798</ele>
        <time>2019-05-15T11:08:26.082Z</time>
      </trkpt>
      <trkpt lat="48.454" lon="7.1143">
        <ele>798</ele>
        <time>2019-05-15T11:08:27.082Z</time>
      </trkpt>
      <trkpt lat="48.45401" lon="7.1143">
        <ele>799</ele>
        <time>2019-05-15T11:08:28.082Z</time>
      </trkpt>
      <trkpt lat="48.45401" lon="7.11429">
        <ele>800</ele>
        <time>2019-05-15T11:08:29.082Z</time>
      </trkpt>
      <trkpt lat="48.45401" lon="7.11429">
        <ele>800</ele>
        <time>2019-05-15T11:08:30.082Z</time>
      </trkpt>
      <trkpt lat="48.45401" lon="7.11429">
        <ele>800</ele>
        <time>2019-05-15T11:08:31.082Z</time>
      </trkpt>
      <trkpt lat="48.454" lon="7.11428">
        <ele>801</ele>
        <time>2019-05-15T11:08:32.082Z</time>
      </trkpt>
      <trkpt lat="48.454" lon="7.11428">
        <ele>801</ele>
        <time>2019-05-15T11:08:33.082Z</time>
      </trkpt>
      <trkpt lat="48.454" lon="7.11428">
        <ele>801</ele>
        <time>2019-05-15T11:08:34.082Z</time>
      </trkpt>
      <trkpt lat="48.454" lon="7.11427">
        <ele>802</ele>
        <time>2019-05-15T11:08:35.082Z</time>
      </trkpt>
      <trkpt lat="48.454" lon="7.11427">
        <ele>802</ele>
        <time>2019-05-15T11:08:36.082Z</time>
      </trkpt>
      <trkpt lat="48.454" lon="7.11428">
        <ele>802</ele>
        <time>2019-05-15T11:08:37.082Z</time>
      </trkpt>
      <trkpt lat="48.45401" lon="7.11428">
        <ele>802</ele>
        <time>2019-05-15T11:08:38.082Z</time>
      </trkpt>
      <trkpt lat="48.45401" lon="7.11429">
        <ele>802</ele>
        <time>2019-05-15T11:08:39.082Z</time>
      </trkpt>
      <trkpt lat="48.45401" lon="7.1143">
        <ele>803</ele>
        <time>2019-05-15T11:08:40.082Z</time>
      </trkpt>
      <trkpt lat="48.454" lon="7.1143">
        <ele>803</ele>
        <time>2019-05-15T11:08:41.082Z</time>
      </trkpt>
      <trkpt lat="48.454" lon="7.1143">
        <ele>803</ele>
        <time>2019-05-15T11:08:42.082Z</time>
      </trkpt>
      <trkpt lat="48.454" lon="7.11431">
        <ele>803</ele>
        <time>2019-05-15T11:08:43.082Z</time>
      </trkpt>
      <trkpt lat="48.454" lon="7.11431">
        <ele>803</ele>
        <time>2019-05-15T11:08:44.082Z</time>
      </trkpt>
      <trkpt lat="48.45399" lon="7.11431">
        <ele>803</ele>
        <time>2019-05-15T11:08:45.082Z</time>
      </trkpt>
      <trkpt lat="48.45399" lon="7.11432">
        <ele>803</ele>
        <time>2019-05-15T11:08:46.082Z</time>
      </trkpt>
      <trkpt lat="48.45399" lon="7.11432">
        <ele>804</ele>
        <time>2019-05-15T11:08:47.082Z</time>
      </trkpt>
      <trkpt lat="48.45399" lon="7.11432">
        <ele>804</ele>
        <time>2019-05-15T11:08:48.082Z</time>
      </trkpt>
      <trkpt lat="48.45398" lon="7.11431">
        <ele>804</ele>
        <time>2019-05-15T11:08:49.082Z</time>
      </trkpt>
      <trkpt lat="48.45397" lon="7.11431">
        <ele>804</ele>
        <time>2019-05-15T11:08:50.082Z</time>
      </trkpt>
      <trkpt lat="48.45397" lon="7.11431">
        <ele>804</ele>
        <time>2019-05-15T11:08:51.082Z</time>
      </trkpt>
      <trkpt lat="48.45397" lon="7.11431">
        <ele>804</ele>
        <time>2019-05-15T11:08:52.082Z</time>
      </trkpt>
      <trkpt lat="48.45397" lon="7.11431">
        <ele>804</ele>
        <time>2019-05-15T11:08:53.082Z</time>
      </trkpt>
      <trkpt lat="48.45396" lon="7.11431">
        <ele>804</ele>
        <time>2019-05-15T11:08:54.082Z</time>
      </trkpt>
      <trkpt lat="48.45396" lon="7.11431">
        <ele>804</ele>
        <time>2019-05-15T11:08:55.082Z</time>
      </trkpt>
      <trkpt lat="48.45396" lon="7.1143">
        <ele>804</ele>
        <time>2019-05-15T11:08:56.082Z</time>
      </trkpt>
      <trkpt lat="48.45396" lon="7.1143">
        <ele>804</ele>
        <time>2019-05-15T11:08:57.082Z</time>
      </trkpt>
      <trkpt lat="48.45396" lon="7.1143">
        <ele>804</ele>
        <time>2019-05-15T11:08:58.082Z</time>
      </trkpt>
      <trkpt lat="48.45397" lon="7.1143">
        <ele>804</ele>
        <time>2019-05-15T11:08:59.082Z</time>
      </trkpt>
      <trkpt lat="48.45397" lon="7.1143">
        <ele>804</ele>
        <time>2019-05-15T11:09:00.082Z</time>
      </trkpt>
      <trkpt lat="48.45398" lon="7.1143">
        <ele>804</ele>
        <time>2019-05-15T11:09:01.082Z</time>
      </trkpt>
      <trkpt lat="48.45399" lon="7.11431">
        <ele>803</ele>
        <time>2019-05-15T11:09:02.082Z</time>
      </trkpt>
      <trkpt lat="48.454" lon="7.11431">
        <ele>803</ele>
        <time>2019-05-15T11:09:03.082Z</time>
      </trkpt>
      <trkpt lat="48.454" lon="7.11431">
        <ele>803</ele>
        <time>2019-05-15T11:09:04.082Z</time>
      </trkpt>
      <trkpt lat="48.454" lon="7.11431">
        <ele>803</ele>
        <time>2019-05-15T11:09:05.082Z</time>
      </trkpt>
      <trkpt lat="48.454" lon="7.11431">
        <ele>802</ele>
        <time>2019-05-15T11:09:06.082Z</time>
      </trkpt>
      <trkpt lat="48.45401" lon="7.11432">
        <ele>802</ele>
        <time>2019-05-15T11:09:07.082Z</time>
      </trkpt>
      <trkpt lat="48.454" lon="7.11432">
        <ele>802</ele>
        <time>2019-05-15T11:09:08.082Z</time>
      </trkpt>
      <trkpt lat="48.45401" lon="7.11433">
        <ele>802</ele>
        <time>2019-05-15T11:09:09.082Z</time>
      </trkpt>
      <trkpt lat="48.45401" lon="7.11434">
        <ele>801</ele>
        <time>2019-05-15T11:09:10.082Z</time>
      </trkpt>
      <trkpt lat="48.45402" lon="7.11435">
        <ele>801</ele>
        <time>2019-05-15T11:09:11.082Z</time>
      </trkpt>
      <trkpt lat="48.45402" lon="7.11435">
        <ele>801</ele>
        <time>2019-05-15T11:09:12.082Z</time>
      </trkpt>
      <trkpt lat="48.45402" lon="7.11435">
        <ele>801</ele>
        <time>2019-05-15T11:09:13.082Z</time>
      </trkpt>
      <trkpt lat="48.45402" lon="7.11435">
        <ele>801</ele>
        <time>2019-05-15T11:09:14.082Z</time>
      </trkpt>
      <trkpt lat="48.45402" lon="7.11436">
        <ele>801</ele>
        <time>2019-05-15T11:09:15.082Z</time>
      </trkpt>
      <trkpt lat="48.45403" lon="7.11436">
        <ele>801</ele>
        <time>2019-05-15T11:09:16.082Z</time>
      </trkpt>
      <trkpt lat="48.45403" lon="7.11436">
        <ele>800</ele>
        <time>2019-05-15T11:09:17.082Z</time>
      </trkpt>
      <trkpt lat="48.45403" lon="7.11436">
        <ele>799</ele>
        <time>2019-05-15T11:09:18.082Z</time>
      </trkpt>
      <trkpt lat="48.45403" lon="7.11436">
        <ele>799</ele>
        <time>2019-05-15T11:09:19.082Z</time>
      </trkpt>
      <trkpt lat="48.45402" lon="7.11436">
        <ele>799</ele>
        <time>2019-05-15T11:09:20.082Z</time>
      </trkpt>
      <trkpt lat="48.45402" lon="7.11436">
        <ele>799</ele>
        <time>2019-05-15T11:09:21.082Z</time>
      </trkpt>
      <trkpt lat="48.45402" lon="7.11436">
        <ele>799</ele>
        <time>2019-05-15T11:09:22.082Z</time>
      </trkpt>
      <trkpt lat="48.45402" lon="7.11436">
        <ele>799</ele>
        <time>2019-05-15T11:09:23.082Z</time>
      </trkpt>
      <trkpt lat="48.45403" lon="7.11436">
        <ele>799</ele>
        <time>2019-05-15T11:09:24.082Z</time>
      </trkpt>
      <trkpt lat="48.45404" lon="7.11437">
        <ele>798</ele>
        <time>2019-05-15T11:09:25.082Z</time>
      </trkpt>
      <trkpt lat="48.45404" lon="7.11437">
        <ele>797</ele>
        <time>2019-05-15T11:09:26.082Z</time>
      </trkpt>
      <trkpt lat="48.45404" lon="7.11437">
        <ele>797</ele>
        <time>2019-05-15T11:09:27.082Z</time>
      </trkpt>
      <trkpt lat="48.45404" lon="7.11437">
        <ele>796</ele>
        <time>2019-05-15T11:09:28.082Z</time>
      </trkpt>
      <trkpt lat="48.45403" lon="7.11437">
        <ele>796</ele>
        <time>2019-05-15T11:09:29.082Z</time>
      </trkpt>
      <trkpt lat="48.45403" lon="7.11437">
        <ele>797</ele>
        <time>2019-05-15T11:09:30.082Z</time>
      </trkpt>
      <trkpt lat="48.45403" lon="7.11437">
        <ele>797</ele>
        <time>2019-05-15T11:09:31.082Z</time>
      </trkpt>
      <trkpt lat="48.45403" lon="7.11437">
        <ele>797</ele>
        <time>2019-05-15T11:09:32.082Z</time>
      </trkpt>
      <trkpt lat="48.45403" lon="7.11437">
        <ele>797</ele>
        <time>2019-05-15T11:09:33.082Z</time>
      </trkpt>
      <trkpt lat="48.45403" lon="7.11437">
        <ele>797</ele>
        <time>2019-05-15T11:09:34.082Z</time>
      </trkpt>
      <trkpt lat="48.45404" lon="7.11438">
        <ele>797</ele>
        <time>2019-05-15T11:09:35.082Z</time>
      </trkpt>
      <trkpt lat="48.45404" lon="7.11438">
        <ele>796</ele>
        <time>2019-05-15T11:09:36.082Z</time>
      </trkpt>
      <trkpt lat="48.45404" lon="7.11439">
        <ele>796</ele>
        <time>2019-05-15T11:09:37.082Z</time>
      </trkpt>
      <trkpt lat="48.45404" lon="7.1144">
        <ele>795</ele>
        <time>2019-05-15T11:09:38.082Z</time>
      </trkpt>
      <trkpt lat="48.45404" lon="7.1144">
        <ele>795</ele>
        <time>2019-05-15T11:09:39.082Z</time>
      </trkpt>
      <trkpt lat="48.45405" lon="7.11441">
        <ele>794</ele>
        <time>2019-05-15T11:09:40.082Z</time>
      </trkpt>
      <trkpt lat="48.45405" lon="7.11441">
        <ele>794</ele>
        <time>2019-05-15T11:09:41.082Z</time>
      </trkpt>
      <trkpt lat="48.45405" lon="7.11441">
        <ele>794</ele>
        <time>2019-05-15T11:09:42.082Z</time>
      </trkpt>
      <trkpt lat="48.45404" lon="7.11441">
        <ele>793</ele>
        <time>2019-05-15T11:09:43.082Z</time>
      </trkpt>
      <trkpt lat="48.45404" lon="7.11441">
        <ele>793</ele>
        <time>2019-05-15T11:09:44.082Z</time>
      </trkpt>
      <trkpt lat="48.45404" lon="7.11442">
        <ele>792</ele>
        <time>2019-05-15T11:09:45.082Z</time>
      </trkpt>
      <trkpt lat="48.45404" lon="7.11442">
        <ele>792</ele>
        <time>2019-05-15T11:09:46.082Z</time>
      </trkpt>
      <trkpt lat="48.45404" lon="7.11442">
        <ele>791</ele>
        <time>2019-05-15T11:09:47.082Z</time>
      </trkpt>
      <trkpt lat="48.45404" lon="7.11442">
        <ele>791</ele>
        <time>2019-05-15T11:09:48.082Z</time>
      </trkpt>
      <trkpt lat="48.45404" lon="7.11443">
        <ele>791</ele>
        <time>2019-05-15T11:09:49.082Z</time>
      </trkpt>
      <trkpt lat="48.45403" lon="7.11443">
        <ele>790</ele>
        <time>2019-05-15T11:09:50.082Z</time>
      </trkpt>
      <trkpt lat="48.45403" lon="7.11443">
        <ele>790</ele>
        <time>2019-05-15T11:09:51.082Z</time>
      </trkpt>
      <trkpt lat="48.45403" lon="7.11443">
        <ele>790</ele>
        <time>2019-05-15T11:09:52.082Z</time>
      </trkpt>
      <trkpt lat="48.45403" lon="7.11443">
        <ele>790</ele>
        <time>2019-05-15T11:09:53.082Z</time>
      </trkpt>
      <trkpt lat="48.45403" lon="7.11444">
        <ele>789</ele>
        <time>2019-05-15T11:09:54.082Z</time>
      </trkpt>
      <trkpt lat="48.45402" lon="7.11444">
        <ele>789</ele>
        <time>2019-05-15T11:09:55.082Z</time>
      </trkpt>
      <trkpt lat="48.45403" lon="7.11444">
        <ele>789</ele>
        <time>2019-05-15T11:09:56.082Z</time>
      </trkpt>
      <trkpt lat="48.45403" lon="7.11444">
        <ele>789</ele>
        <time>2019-05-15T11:09:57.082Z</time>
      </trkpt>
      <trkpt lat="48.45403" lon="7.11444">
        <ele>789</ele>
        <time>2019-05-15T11:09:58.082Z</time>
      </trkpt>
      <trkpt lat="48.45404" lon="7.11444">
        <ele>790</ele>
        <time>2019-05-15T11:09:59.082Z</time>
      </trkpt>
      <trkpt lat="48.45404" lon="7.11444">
        <ele>790</ele>
        <time>2019-05-15T11:10:00.082Z</time>
      </trkpt>
      <trkpt lat="48.45405" lon="7.11444">
        <ele>790</ele>
        <time>2019-05-15T11:10:01.082Z</time>
      </trkpt>
      <trkpt lat="48.45405" lon="7.11444">
        <ele>790</ele>
        <time>2019-05-15T11:10:02.082Z</time>
      </trkpt>
      <trkpt lat="48.45405" lon="7.11444">
        <ele>790</ele>
        <time>2019-05-15T11:10:03.082Z</time>
      </trkpt>
      <trkpt lat="48.45405" lon="7.11444">
        <ele>790</ele>
        <time>2019-05-15T11:10:04.082Z</time>
      </trkpt>
      <trkpt lat="48.45405" lon="7.11444">
        <ele>790</ele>
        <time>2019-05-15T11:10:05.082Z</time>
      </trkpt>
      <trkpt lat="48.45405" lon="7.11444">
        <ele>790</ele>
        <time>2019-05-15T11:10:06.082Z</time>
      </trkpt>
      <trkpt lat="48.45405" lon="7.11444">
        <ele>790</ele>
        <time>2019-05-15T11:10:07.082Z</time>
      </trkpt>
      <trkpt lat="48.45405" lon="7.11444">
        <ele>790</ele>
        <time>2019-05-15T11:10:08.082Z</time>
      </trkpt>
      <trkpt lat="48.45405" lon="7.11444">
        <ele>790</ele>
        <time>2019-05-15T11:10:09.082Z</time>
      </trkpt>
      <trkpt lat="48.45405" lon="7.11444">
        <ele>790</ele>
        <time>2019-05-15T11:10:10.082Z</time>
      </trkpt>
      <trkpt lat="48.45405" lon="7.11444">
        <ele>790</ele>
        <time>2019-05-15T11:10:11.082Z</time>
      </trkpt>
      <trkpt lat="48.45405" lon="7.11444">
        <ele>790</ele>
        <time>2019-05-15T11:10:12.082Z</time>
      </trkpt>
      <trkpt lat="48.45405" lon="7.11444">
        <ele>790</ele>
        <time>2019-05-15T11:10:13.082Z</time>
      </trkpt>
      <trkpt lat="48.45405" lon="7.11444">
        <ele>790</ele>
        <time>2019-05-15T11:10:14.082Z</time>
      </trkpt>
      <trkpt lat="48.45405" lon="7.11444">
        <ele>790</ele>
        <time>2019-05-15T11:10:15.082Z</time>
      </trkpt>
      <trkpt lat="48.45405" lon="7.11444">
        <ele>789</ele>
        <time>2019-05-15T11:10:16.082Z</time>
      </trkpt>
      <trkpt lat="48.45405" lon="7.11444">
        <ele>789</ele>
        <time>2019-05-15T11:10:17.082Z</time>
      </trkpt>
      <trkpt lat="48.45404" lon="7.11444">
        <ele>789</ele>
        <time>2019-05-15T11:10:18.082Z</time>
      </trkpt>
      <trkpt lat="48.45404" lon="7.11443">
        <ele>788</ele>
        <time>2019-05-15T11:10:19.082Z</time>
      </trkpt>
      <trkpt lat="48.45404" lon="7.11443">
        <ele>788</ele>
        <time>2019-05-15T11:10:20.082Z</time>
      </trkpt>
      <trkpt lat="48.45404" lon="7.11443">
        <ele>788</ele>
        <time>2019-05-15T11:10:21.082Z</time>
      </trkpt>
      <trkpt lat="48.45404" lon="7.11443">
        <ele>787</ele>
        <time>2019-05-15T11:10:22.082Z</time>
      </trkpt>
      <trkpt lat="48.45403" lon="7.11443">
        <ele>787</ele>
        <time>2019-05-15T11:10:23.082Z</time>
      </trkpt>
      <trkpt lat="48.45403" lon="7.11443">
        <ele>787</ele>
        <time>2019-05-15T11:10:24.082Z</time>
      </trkpt>
      <trkpt lat="48.45403" lon="7.11443">
        <ele>787</ele>
        <time>2019-05-15T11:10:25.082Z</time>
      </trkpt>
      <trkpt lat="48.45404" lon="7.11443">
        <ele>787</ele>
        <time>2019-05-15T11:10:26.082Z</time>
      </trkpt>
      <trkpt lat="48.45403" lon="7.11443">
        <ele>786</ele>
        <time>2019-05-15T11:10:27.082Z</time>
      </trkpt>
      <trkpt lat="48.45403" lon="7.11443">
        <ele>786</ele>
        <time>2019-05-15T11:10:28.082Z</time>
      </trkpt>
      <trkpt lat="48.45403" lon="7.11442">
        <ele>786</ele>
        <time>2019-05-15T11:10:29.082Z</time>
      </trkpt>
      <trkpt lat="48.45403" lon="7.11441">
        <ele>786</ele>
        <time>2019-05-15T11:10:30.082Z</time>
      </trkpt>
      <trkpt lat="48.45403" lon="7.1144">
        <ele>786</ele>
        <time>2019-05-15T11:10:31.082Z</time>
      </trkpt>
      <trkpt lat="48.45404" lon="7.1144">
        <ele>787</ele>
        <time>2019-05-15T11:10:32.082Z</time>
      </trkpt>
      <trkpt lat="48.45404" lon="7.11439">
        <ele>787</ele>
        <time>2019-05-15T11:10:33.082Z</time>
      </trkpt>
      <trkpt lat="48.45404" lon="7.11439">
        <ele>787</ele>
        <time>2019-05-15T11:10:34.082Z</time>
      </trkpt>
      <trkpt lat="48.45404" lon="7.11439">
        <ele>788</ele>
        <time>2019-05-15T11:10:35.082Z</time>
      </trkpt>
      <trkpt lat="48.45404" lon="7.11439">
        <ele>787</ele>
        <time>2019-05-15T11:10:36.082Z</time>
      </trkpt>
      <trkpt lat="48.45404" lon="7.11439">
        <ele>787</ele>
        <time>2019-05-15T11:10:37.082Z</time>
      </trkpt>
      <trkpt lat="48.45404" lon="7.11439">
        <ele>788</ele>
        <time>2019-05-15T11:10:38.082Z</time>
      </trkpt>
      <trkpt lat="48.45404" lon="7.11438">
        <ele>788</ele>
        <time>2019-05-15T11:10:39.082Z</time>
      </trkpt>
      <trkpt lat="48.45405" lon="7.11438">
        <ele>789</ele>
        <time>2019-05-15T11:10:40.082Z</time>
      </trkpt>
      <trkpt lat="48.45405" lon="7.11438">
        <ele>788</ele>
        <time>2019-05-15T11:10:41.082Z</time>
      </trkpt>
      <trkpt lat="48.45405" lon="7.11437">
        <ele>788</ele>
        <time>2019-05-15T11:10:42.082Z</time>
      </trkpt>
      <trkpt lat="48.45404" lon="7.11436">
        <ele>787</ele>
        <time>2019-05-15T11:10:43.082Z</time>
      </trkpt>
      <trkpt lat="48.45403" lon="7.11435">
        <ele>787</ele>
        <time>2019-05-15T11:10:44.082Z</time>
      </trkpt>
      <trkpt lat="48.45403" lon="7.11434">
        <ele>787</ele>
        <time>2019-05-15T11:10:45.082Z</time>
      </trkpt>
      <trkpt lat="48.45403" lon="7.11432">
        <ele>787</ele>
        <time>2019-05-15T11:10:46.082Z</time>
      </trkpt>
      <trkpt lat="48.45402" lon="7.11431">
        <ele>787</ele>
        <time>2019-05-15T11:10:47.082Z</time>
      </trkpt>
      <trkpt lat="48.45402" lon="7.1143">
        <ele>786</ele>
        <time>2019-05-15T11:10:48.082Z</time>
      </trkpt>
      <trkpt lat="48.45401" lon="7.11429">
        <ele>785</ele>
        <time>2019-05-15T11:10:49.082Z</time>
      </trkpt>
      <trkpt lat="48.45401" lon="7.11427">
        <ele>785</ele>
        <time>2019-05-15T11:10:50.082Z</time>
      </trkpt>
      <trkpt lat="48.454" lon="7.11426">
        <ele>785</ele>
        <time>2019-05-15T11:10:51.082Z</time>
      </trkpt>
      <trkpt lat="48.45399" lon="7.11425">
        <ele>785</ele>
        <time>2019-05-15T11:10:52.082Z</time>
      </trkpt>
      <trkpt lat="48.45399" lon="7.11423">
        <ele>784</ele>
        <time>2019-05-15T11:10:53.082Z</time>
      </trkpt>
      <trkpt lat="48.45399" lon="7.11422">
        <ele>783</ele>
        <time>2019-05-15T11:10:54.082Z</time>
      </trkpt>
      <trkpt lat="48.45399" lon="7.1142">
        <ele>783</ele>
        <time>2019-05-15T11:10:55.082Z</time>
      </trkpt>
      <trkpt lat="48.45399" lon="7.11419">
        <ele>783</ele>
        <time>2019-05-15T11:10:56.082Z</time>
      </trkpt>
      <trkpt lat="48.45398" lon="7.11417">
        <ele>783</ele>
        <time>2019-05-15T11:10:57.082Z</time>
      </trkpt>
      <trkpt lat="48.45398" lon="7.11416">
        <ele>782</ele>
        <time>2019-05-15T11:10:58.082Z</time>
      </trkpt>
      <trkpt lat="48.45397" lon="7.11415">
        <ele>782</ele>
        <time>2019-05-15T11:10:59.082Z</time>
      </trkpt>
      <trkpt lat="48.45396" lon="7.11414">
        <ele>782</ele>
        <time>2019-05-15T11:11:00.082Z</time>
      </trkpt>
      <trkpt lat="48.45396" lon="7.11412">
        <ele>782</ele>
        <time>2019-05-15T11:11:01.082Z</time>
      </trkpt>
      <trkpt lat="48.45395" lon="7.11411">
        <ele>782</ele>
        <time>2019-05-15T11:11:02.082Z</time>
      </trkpt>
      <trkpt lat="48.45394" lon="7.11409">
        <ele>782</ele>
        <time>2019-05-15T11:11:03.082Z</time>
      </trkpt>
      <trkpt lat="48.45394" lon="7.11408">
        <ele>782</ele>
        <time>2019-05-15T11:11:04.082Z</time>
      </trkpt>
      <trkpt lat="48.45393" lon="7.11406">
        <ele>781</ele>
        <time>2019-05-15T11:11:05.082Z</time>
      </trkpt>
      <trkpt lat="48.45393" lon="7.11405">
        <ele>781</ele>
        <time>2019-05-15T11:11:06.082Z</time>
      </trkpt>
      <trkpt lat="48.45393" lon="7.11403">
        <ele>781</ele>
        <time>2019-05-15T11:11:07.082Z</time>
      </trkpt>
      <trkpt lat="48.45393" lon="7.11401">
        <ele>781</ele>
        <time>2019-05-15T11:11:08.082Z</time>
      </trkpt>
      <trkpt lat="48.45392" lon="7.114">
        <ele>780</ele>
        <time>2019-05-15T11:11:09.082Z</time>
      </trkpt>
      <trkpt lat="48.45392" lon="7.11398">
        <ele>780</ele>
        <time>2019-05-15T11:11:10.082Z</time>
      </trkpt>
      <trkpt lat="48.45391" lon="7.11397">
        <ele>780</ele>
        <time>2019-05-15T11:11:11.082Z</time>
      </trkpt>
      <trkpt lat="48.4539" lon="7.11396">
        <ele>780</ele>
        <time>2019-05-15T11:11:12.082Z</time>
      </trkpt>
      <trkpt lat="48.45389" lon="7.11395">
        <ele>780</ele>
        <time>2019-05-15T11:11:13.082Z</time>
      </trkpt>
      <trkpt lat="48.45389" lon="7.11393">
        <ele>780</ele>
        <time>2019-05-15T11:11:14.082Z</time>
      </trkpt>
      <trkpt lat="48.45388" lon="7.11392">
        <ele>780</ele>
        <time>2019-05-15T11:11:15.082Z</time>
      </trkpt>
      <trkpt lat="48.45388" lon="7.1139">
        <ele>780</ele>
        <time>2019-05-15T11:11:16.082Z</time>
      </trkpt>
      <trkpt lat="48.45387" lon="7.11389">
        <ele>780</ele>
        <time>2019-05-15T11:11:17.082Z</time>
      </trkpt>
      <trkpt lat="48.45387" lon="7.11387">
        <ele>780</ele>
        <time>2019-05-15T11:11:18.082Z</time>
      </trkpt>
      <trkpt lat="48.45386" lon="7.11386">
        <ele>779</ele>
        <time>2019-05-15T11:11:19.082Z</time>
      </trkpt>
      <trkpt lat="48.45385" lon="7.11384">
        <ele>779</ele>
        <time>2019-05-15T11:11:20.082Z</time>
      </trkpt>
      <trkpt lat="48.45384" lon="7.11383">
        <ele>779</ele>
        <time>2019-05-15T11:11:21.082Z</time>
      </trkpt>
      <trkpt lat="48.45384" lon="7.11382">
        <ele>778</ele>
        <time>2019-05-15T11:11:22.082Z</time>
      </trkpt>
      <trkpt lat="48.45383" lon="7.11381">
        <ele>778</ele>
        <time>2019-05-15T11:11:23.082Z</time>
      </trkpt>
      <trkpt lat="48.45383" lon="7.11379">
        <ele>778</ele>
        <time>2019-05-15T11:11:24.082Z</time>
      </trkpt>
      <trkpt lat="48.45382" lon="7.11377">
        <ele>778</ele>
        <time>2019-05-15T11:11:25.082Z</time>
      </trkpt>
      <trkpt lat="48.45381" lon="7.11376">
        <ele>778</ele>
        <time>2019-05-15T11:11:26.082Z</time>
      </trkpt>
      <trkpt lat="48.4538" lon="7.11375">
        <ele>778</ele>
        <time>2019-05-15T11:11:27.082Z</time>
      </trkpt>
      <trkpt lat="48.4538" lon="7.11373">
        <ele>778</ele>
        <time>2019-05-15T11:11:28.082Z</time>
      </trkpt>
      <trkpt lat="48.45379" lon="7.11372">
        <ele>779</ele>
        <time>2019-05-15T11:11:29.082Z</time>
      </trkpt>
      <trkpt lat="48.45378" lon="7.1137">
        <ele>779</ele>
        <time>2019-05-15T11:11:30.082Z</time>
      </trkpt>
      <trkpt lat="48.45378" lon="7.11369">
        <ele>780</ele>
        <time>2019-05-15T11:11:31.082Z</time>
      </trkpt>
      <trkpt lat="48.45377" lon="7.11367">
        <ele>779</ele>
        <time>2019-05-15T11:11:32.082Z</time>
      </trkpt>
      <trkpt lat="48.45377" lon="7.11366">
        <ele>780</ele>
        <time>2019-05-15T11:11:33.082Z</time>
      </trkpt>
      <trkpt lat="48.45376" lon="7.11365">
        <ele>780</ele>
        <time>2019-05-15T11:11:34.082Z</time>
      </trkpt>
      <trkpt lat="48.45376" lon="7.11363">
        <ele>780</ele>
        <time>2019-05-15T11:11:35.082Z</time>
      </trkpt>
      <trkpt lat="48.45375" lon="7.11362">
        <ele>780</ele>
        <time>2019-05-15T11:11:36.082Z</time>
      </trkpt>
      <trkpt lat="48.45375" lon="7.1136">
        <ele>780</ele>
        <time>2019-05-15T11:11:37.082Z</time>
      </trkpt>
      <trkpt lat="48.45374" lon="7.11359">
        <ele>781</ele>
        <time>2019-05-15T11:11:38.082Z</time>
      </trkpt>
      <trkpt lat="48.45374" lon="7.11358">
        <ele>781</ele>
        <time>2019-05-15T11:11:39.082Z</time>
      </trkpt>
      <trkpt lat="48.45373" lon="7.11356">
        <ele>780</ele>
        <time>2019-05-15T11:11:40.082Z</time>
      </trkpt>
      <trkpt lat="48.45373" lon="7.11355">
        <ele>780</ele>
        <time>2019-05-15T11:11:41.082Z</time>
      </trkpt>
      <trkpt lat="48.45372" lon="7.11354">
        <ele>781</ele>
        <time>2019-05-15T11:11:42.082Z</time>
      </trkpt>
      <trkpt lat="48.45372" lon="7.11352">
        <ele>781</ele>
        <time>2019-05-15T11:11:43.082Z</time>
      </trkpt>
      <trkpt lat="48.45371" lon="7.11351">
        <ele>781</ele>
        <time>2019-05-15T11:11:44.082Z</time>
      </trkpt>
      <trkpt lat="48.4537" lon="7.1135">
        <ele>781</ele>
        <time>2019-05-15T11:11:45.082Z</time>
      </trkpt>
      <trkpt lat="48.45369" lon="7.11348">
        <ele>781</ele>
        <time>2019-05-15T11:11:46.082Z</time>
      </trkpt>
      <trkpt lat="48.45368" lon="7.11347">
        <ele>782</ele>
        <time>2019-05-15T11:11:47.082Z</time>
      </trkpt>
      <trkpt lat="48.45367" lon="7.11346">
        <ele>782</ele>
        <time>2019-05-15T11:11:48.082Z</time>
      </trkpt>
      <trkpt lat="48.45367" lon="7.11344">
        <ele>782</ele>
        <time>2019-05-15T11:11:49.082Z</time>
      </trkpt>
      <trkpt lat="48.45366" lon="7.11342">
        <ele>782</ele>
        <time>2019-05-15T11:11:50.082Z</time>
      </trkpt>
      <trkpt lat="48.45366" lon="7.11341">
        <ele>782</ele>
        <time>2019-05-15T11:11:51.082Z</time>
      </trkpt>
      <trkpt lat="48.45365" lon="7.11339">
        <ele>781</ele>
        <time>2019-05-15T11:11:52.082Z</time>
      </trkpt>
      <trkpt lat="48.45365" lon="7.11338">
        <ele>782</ele>
        <time>2019-05-15T11:11:53.082Z</time>
      </trkpt>
      <trkpt lat="48.45365" lon="7.11337">
        <ele>782</ele>
        <time>2019-05-15T11:11:54.082Z</time>
      </trkpt>
      <trkpt lat="48.45364" lon="7.11336">
        <ele>783</ele>
        <time>2019-05-15T11:11:55.082Z</time>
      </trkpt>
      <trkpt lat="48.45364" lon="7.11335">
        <ele>783</ele>
        <time>2019-05-15T11:11:56.082Z</time>
      </trkpt>
      <trkpt lat="48.45363" lon="7.11333">
        <ele>783</ele>
        <time>2019-05-15T11:11:57.082Z</time>
      </trkpt>
      <trkpt lat="48.45363" lon="7.11332">
        <ele>783</ele>
        <time>2019-05-15T11:11:58.082Z</time>
      </trkpt>
      <trkpt lat="48.45361" lon="7.11331">
        <ele>783</ele>
        <time>2019-05-15T11:11:59.082Z</time>
      </trkpt>
      <trkpt lat="48.4536" lon="7.1133">
        <ele>784</ele>
        <time>2019-05-15T11:12:00.082Z</time>
      </trkpt>
      <trkpt lat="48.45359" lon="7.11329">
        <ele>783</ele>
        <time>2019-05-15T11:12:01.082Z</time>
      </trkpt>
      <trkpt lat="48.45358" lon="7.11327">
        <ele>784</ele>
        <time>2019-05-15T11:12:02.082Z</time>
      </trkpt>
      <trkpt lat="48.45358" lon="7.11326">
        <ele>784</ele>
        <time>2019-05-15T11:12:03.082Z</time>
      </trkpt>
      <trkpt lat="48.45357" lon="7.11324">
        <ele>783</ele>
        <time>2019-05-15T11:12:04.082Z</time>
      </trkpt>
      <trkpt lat="48.45357" lon="7.11323">
        <ele>784</ele>
        <time>2019-05-15T11:12:05.082Z</time>
      </trkpt>
      <trkpt lat="48.45356" lon="7.11322">
        <ele>783</ele>
        <time>2019-05-15T11:12:06.082Z</time>
      </trkpt>
      <trkpt lat="48.45355" lon="7.1132">
        <ele>783</ele>
        <time>2019-05-15T11:12:07.082Z</time>
      </trkpt>
      <trkpt lat="48.45354" lon="7.11318">
        <ele>783</ele>
        <time>2019-05-15T11:12:08.082Z</time>
      </trkpt>
      <trkpt lat="48.45353" lon="7.11317">
        <ele>783</ele>
        <time>2019-05-15T11:12:09.082Z</time>
      </trkpt>
      <trkpt lat="48.45353" lon="7.11315">
        <ele>782</ele>
        <time>2019-05-15T11:12:10.082Z</time>
      </trkpt>
      <trkpt lat="48.45352" lon="7.11314">
        <ele>783</ele>
        <time>2019-05-15T11:12:11.082Z</time>
      </trkpt>
      <trkpt lat="48.45352" lon="7.11312">
        <ele>783</ele>
        <time>2019-05-15T11:12:12.082Z</time>
      </trkpt>
      <trkpt lat="48.45352" lon="7.1131">
        <ele>783</ele>
        <time>2019-05-15T11:12:13.082Z</time>
      </trkpt>
      <trkpt lat="48.45351" lon="7.11308">
        <ele>782</ele>
        <time>2019-05-15T11:12:14.082Z</time>
      </trkpt>
      <trkpt lat="48.4535" lon="7.11307">
        <ele>782</ele>
        <time>2019-05-15T11:12:15.082Z</time>
      </trkpt>
      <trkpt lat="48.45349" lon="7.11305">
        <ele>781</ele>
        <time>2019-05-15T11:12:16.082Z</time>
      </trkpt>
      <trkpt lat="48.45348" lon="7.11304">
        <ele>782</ele>
        <time>2019-05-15T11:12:17.082Z</time>
      </trkpt>
      <trkpt lat="48.45347" lon="7.11303">
        <ele>781</ele>
        <time>2019-05-15T11:12:18.082Z</time>
      </trkpt>
      <trkpt lat="48.45347" lon="7.11301">
        <ele>780</ele>
        <time>2019-05-15T11:12:19.082Z</time>
      </trkpt>
      <trkpt lat="48.45345" lon="7.113">
        <ele>779</ele>
        <time>2019-05-15T11:12:20.082Z</time>
      </trkpt>
      <trkpt lat="48.45344" lon="7.11299">
        <ele>779</ele>
        <time>2019-05-15T11:12:21.082Z</time>
      </trkpt>
      <trkpt lat="48.45344" lon="7.11297">
        <ele>778</ele>
        <time>2019-05-15T11:12:22.082Z</time>
      </trkpt>
      <trkpt lat="48.45343" lon="7.11295">
        <ele>778</ele>
        <time>2019-05-15T11:12:23.082Z</time>
      </trkpt>
      <trkpt lat="48.45343" lon="7.11294">
        <ele>778</ele>
        <time>2019-05-15T11:12:24.082Z</time>
      </trkpt>
      <trkpt lat="48.45342" lon="7.11292">
        <ele>779</ele>
        <time>2019-05-15T11:12:25.082Z</time>
      </trkpt>
      <trkpt lat="48.45342" lon="7.1129">
        <ele>779</ele>
        <time>2019-05-15T11:12:26.082Z</time>
      </trkpt>
      <trkpt lat="48.45341" lon="7.11288">
        <ele>780</ele>
        <time>2019-05-15T11:12:27.082Z</time>
      </trkpt>
      <trkpt lat="48.4534" lon="7.11286">
        <ele>780</ele>
        <time>2019-05-15T11:12:28.082Z</time>
      </trkpt>
      <trkpt lat="48.4534" lon="7.11284">
        <ele>780</ele>
        <time>2019-05-15T11:12:29.082Z</time>
      </trkpt>
      <trkpt lat="48.4534" lon="7.11282">
        <ele>780</ele>
        <time>2019-05-15T11:12:30.082Z</time>
      </trkpt>
      <trkpt lat="48.45339" lon="7.1128">
        <ele>781</ele>
        <time>2019-05-15T11:12:31.082Z</time>
      </trkpt>
      <trkpt lat="48.45339" lon="7.11278">
        <ele>781</ele>
        <time>2019-05-15T11:12:32.082Z</time>
      </trkpt>
      <trkpt lat="48.45338" lon="7.11276">
        <ele>782</ele>
        <time>2019-05-15T11:12:33.082Z</time>
      </trkpt>
      <trkpt lat="48.45338" lon="7.11275">
        <ele>782</ele>
        <time>2019-05-15T11:12:34.082Z</time>
      </trkpt>
      <trkpt lat="48.45337" lon="7.11273">
        <ele>782</ele>
        <time>2019-05-15T11:12:35.082Z</time>
      </trkpt>
      <trkpt lat="48.45337" lon="7.11271">
        <ele>782</ele>
        <time>2019-05-15T11:12:36.082Z</time>
      </trkpt>
      <trkpt lat="48.45336" lon="7.1127">
        <ele>782</ele>
        <time>2019-05-15T11:12:37.082Z</time>
      </trkpt>
      <trkpt lat="48.45335" lon="7.11268">
        <ele>782</ele>
        <time>2019-05-15T11:12:38.082Z</time>
      </trkpt>
      <trkpt lat="48.45334" lon="7.11267">
        <ele>782</ele>
        <time>2019-05-15T11:12:39.082Z</time>
      </trkpt>
      <trkpt lat="48.45333" lon="7.11265">
        <ele>782</ele>
        <time>2019-05-15T11:12:40.082Z</time>
      </trkpt>
      <trkpt lat="48.45332" lon="7.11264">
        <ele>781</ele>
        <time>2019-05-15T11:12:41.082Z</time>
      </trkpt>
      <trkpt lat="48.45332" lon="7.11262">
        <ele>781</ele>
        <time>2019-05-15T11:12:42.082Z</time>
      </trkpt>
      <trkpt lat="48.45331" lon="7.11261">
        <ele>781</ele>
        <time>2019-05-15T11:12:43.082Z</time>
      </trkpt>
      <trkpt lat="48.4533" lon="7.1126">
        <ele>781</ele>
        <time>2019-05-15T11:12:44.082Z</time>
      </trkpt>
      <trkpt lat="48.45329" lon="7.11258">
        <ele>782</ele>
        <time>2019-05-15T11:12:45.082Z</time>
      </trkpt>
      <trkpt lat="48.45328" lon="7.11257">
        <ele>781</ele>
        <time>2019-05-15T11:12:46.082Z</time>
      </trkpt>
      <trkpt lat="48.45328" lon="7.11256">
        <ele>781</ele>
        <time>2019-05-15T11:12:47.082Z</time>
      </trkpt>
      <trkpt lat="48.45327" lon="7.11254">
        <ele>781</ele>
        <time>2019-05-15T11:12:48.082Z</time>
      </trkpt>
      <trkpt lat="48.45327" lon="7.11253">
        <ele>781</ele>
        <time>2019-05-15T11:12:49.082Z</time>
      </trkpt>
      <trkpt lat="48.45326" lon="7.11251">
        <ele>781</ele>
        <time>2019-05-15T11:12:50.082Z</time>
      </trkpt>
      <trkpt lat="48.45326" lon="7.1125">
        <ele>781</ele>
        <time>2019-05-15T11:12:51.082Z</time>
      </trkpt>
      <trkpt lat="48.45325" lon="7.11249">
        <ele>782</ele>
        <time>2019-05-15T11:12:52.082Z</time>
      </trkpt>
      <trkpt lat="48.45324" lon="7.11247">
        <ele>782</ele>
        <time>2019-05-15T11:12:53.082Z</time>
      </trkpt>
      <trkpt lat="48.45323" lon="7.11246">
        <ele>782</ele>
        <time>2019-05-15T11:12:54.082Z</time>
      </trkpt>
      <trkpt lat="48.45323" lon="7.11244">
        <ele>782</ele>
        <time>2019-05-15T11:12:55.082Z</time>
      </trkpt>
      <trkpt lat="48.45322" lon="7.11243">
        <ele>782</ele>
        <time>2019-05-15T11:12:56.082Z</time>
      </trkpt>
      <trkpt lat="48.45322" lon="7.11241">
        <ele>782</ele>
        <time>2019-05-15T11:12:57.082Z</time>
      </trkpt>
      <trkpt lat="48.45322" lon="7.1124">
        <ele>782</ele>
        <time>2019-05-15T11:12:58.082Z</time>
      </trkpt>
      <trkpt lat="48.45322" lon="7.11239">
        <ele>782</ele>
        <time>2019-05-15T11:12:59.082Z</time>
      </trkpt>
      <trkpt lat="48.45321" lon="7.11238">
        <ele>782</ele>
        <time>2019-05-15T11:13:00.082Z</time>
      </trkpt>
      <trkpt lat="48.45321" lon="7.11237">
        <ele>782</ele>
        <time>2019-05-15T11:13:01.082Z</time>
      </trkpt>
      <trkpt lat="48.4532" lon="7.11235">
        <ele>782</ele>
        <time>2019-05-15T11:13:02.082Z</time>
      </trkpt>
      <trkpt lat="48.4532" lon="7.11234">
        <ele>782</ele>
        <time>2019-05-15T11:13:03.082Z</time>
      </trkpt>
      <trkpt lat="48.45319" lon="7.11232">
        <ele>781</ele>
        <time>2019-05-15T11:13:04.082Z</time>
      </trkpt>
      <trkpt lat="48.45319" lon="7.1123">
        <ele>781</ele>
        <time>2019-05-15T11:13:05.082Z</time>
      </trkpt>
      <trkpt lat="48.45318" lon="7.11229">
        <ele>780</ele>
        <time>2019-05-15T11:13:06.082Z</time>
      </trkpt>
      <trkpt lat="48.45317" lon="7.11227">
        <ele>780</ele>
        <time>2019-05-15T11:13:07.082Z</time>
      </trkpt>
      <trkpt lat="48.45317" lon="7.11226">
        <ele>780</ele>
        <time>2019-05-15T11:13:08.082Z</time>
      </trkpt>
      <trkpt lat="48.45316" lon="7.11225">
        <ele>779</ele>
        <time>2019-05-15T11:13:09.082Z</time>
      </trkpt>
      <trkpt lat="48.45316" lon="7.11223">
        <ele>779</ele>
        <time>2019-05-15T11:13:10.082Z</time>
      </trkpt>
      <trkpt lat="48.45315" lon="7.11222">
        <ele>779</ele>
        <time>2019-05-15T11:13:11.082Z</time>
      </trkpt>
      <trkpt lat="48.45315" lon="7.11221">
        <ele>779</ele>
        <time>2019-05-15T11:13:12.082Z</time>
      </trkpt>
      <trkpt lat="48.45314" lon="7.11219">
        <ele>778</ele>
        <time>2019-05-15T11:13:13.082Z</time>
      </trkpt>
      <trkpt lat="48.45314" lon="7.11218">
        <ele>777</ele>
        <time>2019-05-15T11:13:14.082Z</time>
      </trkpt>
      <trkpt lat="48.45313" lon="7.11217">
        <ele>777</ele>
        <time>2019-05-15T11:13:15.082Z</time>
      </trkpt>
      <trkpt lat="48.45312" lon="7.11216">
        <ele>777</ele>
        <time>2019-05-15T11:13:16.082Z</time>
      </trkpt>
      <trkpt lat="48.45312" lon="7.11214">
        <ele>776</ele>
        <time>2019-05-15T11:13:17.082Z</time>
      </trkpt>
      <trkpt lat="48.45311" lon="7.11213">
        <ele>776</ele>
        <time>2019-05-15T11:13:18.082Z</time>
      </trkpt>
      <trkpt lat="48.45311" lon="7.11212">
        <ele>776</ele>
        <time>2019-05-15T11:13:19.082Z</time>
      </trkpt>
      <trkpt lat="48.4531" lon="7.1121">
        <ele>777</ele>
        <time>2019-05-15T11:13:20.082Z</time>
      </trkpt>
      <trkpt lat="48.45309" lon="7.11209">
        <ele>777</ele>
        <time>2019-05-15T11:13:21.082Z</time>
      </trkpt>
      <trkpt lat="48.45308" lon="7.11208">
        <ele>778</ele>
        <time>2019-05-15T11:13:22.082Z</time>
      </trkpt>
      <trkpt lat="48.45308" lon="7.11207">
        <ele>778</ele>
        <time>2019-05-15T11:13:23.082Z</time>
      </trkpt>
      <trkpt lat="48.45307" lon="7.11205">
        <ele>778</ele>
        <time>2019-05-15T11:13:24.082Z</time>
      </trkpt>
      <trkpt lat="48.45307" lon="7.11204">
        <ele>778</ele>
        <time>2019-05-15T11:13:25.082Z</time>
      </trkpt>
      <trkpt lat="48.45307" lon="7.11203">
        <ele>777</ele>
        <time>2019-05-15T11:13:26.082Z</time>
      </trkpt>
      <trkpt lat="48.45306" lon="7.11201">
        <ele>777</ele>
        <time>2019-05-15T11:13:27.082Z</time>
      </trkpt>
      <trkpt lat="48.45306" lon="7.112">
        <ele>777</ele>
        <time>2019-05-15T11:13:28.082Z</time>
      </trkpt>
      <trkpt lat="48.45305" lon="7.11199">
        <ele>777</ele>
        <time>2019-05-15T11:13:29.082Z</time>
      </trkpt>
      <trkpt lat="48.45305" lon="7.11198">
        <ele>777</ele>
        <time>2019-05-15T11:13:30.082Z</time>
      </trkpt>
      <trkpt lat="48.45304" lon="7.11197">
        <ele>777</ele>
        <time>2019-05-15T11:13:31.082Z</time>
      </trkpt>
      <trkpt lat="48.45303" lon="7.11196">
        <ele>777</ele>
        <time>2019-05-15T11:13:32.082Z</time>
      </trkpt>
      <trkpt lat="48.45303" lon="7.11195">
        <ele>777</ele>
        <time>2019-05-15T11:13:33.082Z</time>
      </trkpt>
      <trkpt lat="48.45302" lon="7.11193">
        <ele>777</ele>
        <time>2019-05-15T11:13:34.082Z</time>
      </trkpt>
      <trkpt lat="48.45302" lon="7.11192">
        <ele>778</ele>
        <time>2019-05-15T11:13:35.082Z</time>
      </trkpt>
      <trkpt lat="48.45301" lon="7.1119">
        <ele>778</ele>
        <time>2019-05-15T11:13:36.082Z</time>
      </trkpt>
      <trkpt lat="48.45301" lon="7.11189">
        <ele>777</ele>
        <time>2019-05-15T11:13:37.082Z</time>
      </trkpt>
      <trkpt lat="48.453" lon="7.11187">
        <ele>777</ele>
        <time>2019-05-15T11:13:38.082Z</time>
      </trkpt>
      <trkpt lat="48.453" lon="7.11186">
        <ele>778</ele>
        <time>2019-05-15T11:13:39.082Z</time>
      </trkpt>
      <trkpt lat="48.453" lon="7.11185">
        <ele>777</ele>
        <time>2019-05-15T11:13:40.082Z</time>
      </trkpt>
      <trkpt lat="48.45299" lon="7.11183">
        <ele>777</ele>
        <time>2019-05-15T11:13:41.082Z</time>
      </trkpt>
      <trkpt lat="48.45298" lon="7.11182">
        <ele>777</ele>
        <time>2019-05-15T11:13:42.082Z</time>
      </trkpt>
      <trkpt lat="48.45297" lon="7.1118">
        <ele>776</ele>
        <time>2019-05-15T11:13:43.082Z</time>
      </trkpt>
      <trkpt lat="48.45297" lon="7.11179">
        <ele>776</ele>
        <time>2019-05-15T11:13:44.082Z</time>
      </trkpt>
      <trkpt lat="48.45296" lon="7.11177">
        <ele>776</ele>
        <time>2019-05-15T11:13:45.082Z</time>
      </trkpt>
      <trkpt lat="48.45296" lon="7.11176">
        <ele>776</ele>
        <time>2019-05-15T11:13:46.082Z</time>
      </trkpt>
      <trkpt lat="48.45296" lon="7.11174">
        <ele>776</ele>
        <time>2019-05-15T11:13:47.082Z</time>
      </trkpt>
      <trkpt lat="48.45295" lon="7.11173">
        <ele>776</ele>
        <time>2019-05-15T11:13:48.082Z</time>
      </trkpt>
      <trkpt lat="48.45295" lon="7.11171">
        <ele>775</ele>
        <time>2019-05-15T11:13:49.082Z</time>
      </trkpt>
      <trkpt lat="48.45294" lon="7.1117">
        <ele>775</ele>
        <time>2019-05-15T11:13:50.082Z</time>
      </trkpt>
      <trkpt lat="48.45293" lon="7.11168">
        <ele>775</ele>
        <time>2019-05-15T11:13:51.082Z</time>
      </trkpt>
      <trkpt lat="48.45292" lon="7.11167">
        <ele>774</ele>
        <time>2019-05-15T11:13:52.082Z</time>
      </trkpt>
      <trkpt lat="48.45291" lon="7.11166">
        <ele>774</ele>
        <time>2019-05-15T11:13:53.082Z</time>
      </trkpt>
      <trkpt lat="48.4529" lon="7.11164">
        <ele>773</ele>
        <time>2019-05-15T11:13:54.082Z</time>
      </trkpt>
      <trkpt lat="48.45289" lon="7.11162">
        <ele>773</ele>
        <time>2019-05-15T11:13:55.082Z</time>
      </trkpt>
      <trkpt lat="48.45289" lon="7.11161">
        <ele>773</ele>
        <time>2019-05-15T11:13:56.082Z</time>
      </trkpt>
      <trkpt lat="48.45288" lon="7.11159">
        <ele>773</ele>
        <time>2019-05-15T11:13:57.082Z</time>
      </trkpt>
      <trkpt lat="48.45287" lon="7.11157">
        <ele>773</ele>
        <time>2019-05-15T11:13:58.082Z</time>
      </trkpt>
      <trkpt lat="48.45287" lon="7.11156">
        <ele>772</ele>
        <time>2019-05-15T11:13:59.082Z</time>
      </trkpt>
      <trkpt lat="48.45287" lon="7.11154">
        <ele>771</ele>
        <time>2019-05-15T11:14:00.082Z</time>
      </trkpt>
      <trkpt lat="48.45287" lon="7.11153">
        <ele>771</ele>
        <time>2019-05-15T11:14:01.082Z</time>
      </trkpt>
      <trkpt lat="48.45286" lon="7.11151">
        <ele>771</ele>
        <time>2019-05-15T11:14:02.082Z</time>
      </trkpt>
      <trkpt lat="48.45285" lon="7.1115">
        <ele>771</ele>
        <time>2019-05-15T11:14:03.082Z</time>
      </trkpt>
      <trkpt lat="48.45284" lon="7.11148">
        <ele>771</ele>
        <time>2019-05-15T11:14:04.082Z</time>
      </trkpt>
      <trkpt lat="48.45284" lon="7.11147">
        <ele>772</ele>
        <time>2019-05-15T11:14:05.082Z</time>
      </trkpt>
      <trkpt lat="48.45283" lon="7.11146">
        <ele>771</ele>
        <time>2019-05-15T11:14:06.082Z</time>
      </trkpt>
      <trkpt lat="48.45282" lon="7.11144">
        <ele>772</ele>
        <time>2019-05-15T11:14:07.082Z</time>
      </trkpt>
      <trkpt lat="48.45281" lon="7.11142">
        <ele>772</ele>
        <time>2019-05-15T11:14:08.082Z</time>
      </trkpt>
      <trkpt lat="48.45281" lon="7.11141">
        <ele>772</ele>
        <time>2019-05-15T11:14:09.082Z</time>
      </trkpt>
      <trkpt lat="48.4528" lon="7.11139">
        <ele>772</ele>
        <time>2019-05-15T11:14:10.082Z</time>
      </trkpt>
      <trkpt lat="48.4528" lon="7.11138">
        <ele>772</ele>
        <time>2019-05-15T11:14:11.082Z</time>
      </trkpt>
      <trkpt lat="48.45279" lon="7.11137">
        <ele>771</ele>
        <time>2019-05-15T11:14:12.082Z</time>
      </trkpt>
      <trkpt lat="48.45279" lon="7.11135">
        <ele>771</ele>
        <time>2019-05-15T11:14:13.082Z</time>
      </trkpt>
      <trkpt lat="48.45278" lon="7.11134">
        <ele>771</ele>
        <time>2019-05-15T11:14:14.082Z</time>
      </trkpt>
      <trkpt lat="48.45278" lon="7.11133">
        <ele>771</ele>
        <time>2019-05-15T11:14:15.082Z</time>
      </trkpt>
      <trkpt lat="48.45277" lon="7.11131">
        <ele>771</ele>
        <time>2019-05-15T11:14:16.082Z</time>
      </trkpt>
      <trkpt lat="48.45277" lon="7.1113">
        <ele>771</ele>
        <time>2019-05-15T11:14:17.082Z</time>
      </trkpt>
      <trkpt lat="48.45276" lon="7.11129">
        <ele>771</ele>
        <time>2019-05-15T11:14:18.082Z</time>
      </trkpt>
      <trkpt lat="48.45276" lon="7.11128">
        <ele>770</ele>
        <time>2019-05-15T11:14:19.082Z</time>
      </trkpt>
      <trkpt lat="48.45275" lon="7.11126">
        <ele>770</ele>
        <time>2019-05-15T11:14:20.082Z</time>
      </trkpt>
      <trkpt lat="48.45275" lon="7.11125">
        <ele>770</ele>
        <time>2019-05-15T11:14:21.082Z</time>
      </trkpt>
      <trkpt lat="48.45275" lon="7.11123">
        <ele>770</ele>
        <time>2019-05-15T11:14:22.082Z</time>
      </trkpt>
      <trkpt lat="48.45274" lon="7.11122">
        <ele>770</ele>
        <time>2019-05-15T11:14:23.082Z</time>
      </trkpt>
      <trkpt lat="48.45274" lon="7.1112">
        <ele>770</ele>
        <time>2019-05-15T11:14:24.082Z</time>
      </trkpt>
      <trkpt lat="48.45274" lon="7.11119">
        <ele>770</ele>
        <time>2019-05-15T11:14:25.082Z</time>
      </trkpt>
      <trkpt lat="48.45273" lon="7.11118">
        <ele>770</ele>
        <time>2019-05-15T11:14:26.082Z</time>
      </trkpt>
      <trkpt lat="48.45272" lon="7.11117">
        <ele>771</ele>
        <time>2019-05-15T11:14:27.082Z</time>
      </trkpt>
      <trkpt lat="48.45272" lon="7.11116">
        <ele>770</ele>
        <time>2019-05-15T11:14:28.082Z</time>
      </trkpt>
      <trkpt lat="48.45272" lon="7.11114">
        <ele>770</ele>
        <time>2019-05-15T11:14:29.082Z</time>
      </trkpt>
      <trkpt lat="48.45271" lon="7.11113">
        <ele>770</ele>
        <time>2019-05-15T11:14:30.082Z</time>
      </trkpt>
      <trkpt lat="48.4527" lon="7.11112">
        <ele>769</ele>
        <time>2019-05-15T11:14:31.082Z</time>
      </trkpt>
      <trkpt lat="48.4527" lon="7.11111">
        <ele>769</ele>
        <time>2019-05-15T11:14:32.082Z</time>
      </trkpt>
      <trkpt lat="48.45269" lon="7.1111">
        <ele>768</ele>
        <time>2019-05-15T11:14:33.082Z</time>
      </trkpt>
      <trkpt lat="48.45269" lon="7.11109">
        <ele>768</ele>
        <time>2019-05-15T11:14:34.082Z</time>
      </trkpt>
      <trkpt lat="48.45268" lon="7.11108">
        <ele>769</ele>
        <time>2019-05-15T11:14:35.082Z</time>
      </trkpt>
      <trkpt lat="48.45268" lon="7.11107">
        <ele>769</ele>
        <time>2019-05-15T11:14:36.082Z</time>
      </trkpt>
      <trkpt lat="48.45267" lon="7.11105">
        <ele>769</ele>
        <time>2019-05-15T11:14:37.082Z</time>
      </trkpt>
      <trkpt lat="48.45267" lon="7.11104">
        <ele>769</ele>
        <time>2019-05-15T11:14:38.082Z</time>
      </trkpt>
      <trkpt lat="48.45266" lon="7.11103">
        <ele>769</ele>
        <time>2019-05-15T11:14:39.082Z</time>
      </trkpt>
      <trkpt lat="48.45265" lon="7.11102">
        <ele>769</ele>
        <time>2019-05-15T11:14:40.082Z</time>
      </trkpt>
      <trkpt lat="48.45264" lon="7.111">
        <ele>770</ele>
        <time>2019-05-15T11:14:41.082Z</time>
      </trkpt>
      <trkpt lat="48.45263" lon="7.11099">
        <ele>770</ele>
        <time>2019-05-15T11:14:42.082Z</time>
      </trkpt>
      <trkpt lat="48.45263" lon="7.11098">
        <ele>771</ele>
        <time>2019-05-15T11:14:43.082Z</time>
      </trkpt>
      <trkpt lat="48.45262" lon="7.11096">
        <ele>772</ele>
        <time>2019-05-15T11:14:44.082Z</time>
      </trkpt>
      <trkpt lat="48.45262" lon="7.11095">
        <ele>772</ele>
        <time>2019-05-15T11:14:45.082Z</time>
      </trkpt>
      <trkpt lat="48.45262" lon="7.11093">
        <ele>773</ele>
        <time>2019-05-15T11:14:46.082Z</time>
      </trkpt>
      <trkpt lat="48.45261" lon="7.11092">
        <ele>774</ele>
        <time>2019-05-15T11:14:47.082Z</time>
      </trkpt>
      <trkpt lat="48.45261" lon="7.1109">
        <ele>774</ele>
        <time>2019-05-15T11:14:48.082Z</time>
      </trkpt>
      <trkpt lat="48.45261" lon="7.11088">
        <ele>775</ele>
        <time>2019-05-15T11:14:49.082Z</time>
      </trkpt>
      <trkpt lat="48.45261" lon="7.11087">
        <ele>775</ele>
        <time>2019-05-15T11:14:50.082Z</time>
      </trkpt>
      <trkpt lat="48.45261" lon="7.11085">
        <ele>775</ele>
        <time>2019-05-15T11:14:51.082Z</time>
      </trkpt>
      <trkpt lat="48.4526" lon="7.11084">
        <ele>776</ele>
        <time>2019-05-15T11:14:52.082Z</time>
      </trkpt>
      <trkpt lat="48.4526" lon="7.11082">
        <ele>776</ele>
        <time>2019-05-15T11:14:53.082Z</time>
      </trkpt>
      <trkpt lat="48.45259" lon="7.11081">
        <ele>776</ele>
        <time>2019-05-15T11:14:54.082Z</time>
      </trkpt>
      <trkpt lat="48.45258" lon="7.1108">
        <ele>776</ele>
        <time>2019-05-15T11:14:55.082Z</time>
      </trkpt>
      <trkpt lat="48.45258" lon="7.11079">
        <ele>776</ele>
        <time>2019-05-15T11:14:56.082Z</time>
      </trkpt>
      <trkpt lat="48.45257" lon="7.11078">
        <ele>776</ele>
        <time>2019-05-15T11:14:57.082Z</time>
      </trkpt>
      <trkpt lat="48.45256" lon="7.11077">
        <ele>777</ele>
        <time>2019-05-15T11:14:58.082Z</time>
      </trkpt>
      <trkpt lat="48.45256" lon="7.11076">
        <ele>777</ele>
        <time>2019-05-15T11:14:59.082Z</time>
      </trkpt>
      <trkpt lat="48.45255" lon="7.11075">
        <ele>778</ele>
        <time>2019-05-15T11:15:00.082Z</time>
      </trkpt>
      <trkpt lat="48.45255" lon="7.11073">
        <ele>778</ele>
        <time>2019-05-15T11:15:01.082Z</time>
      </trkpt>
      <trkpt lat="48.45255" lon="7.11072">
        <ele>778</ele>
        <time>2019-05-15T11:15:02.082Z</time>
      </trkpt>
      <trkpt lat="48.45254" lon="7.11071">
        <ele>778</ele>
        <time>2019-05-15T11:15:03.082Z</time>
      </trkpt>
      <trkpt lat="48.45254" lon="7.11069">
        <ele>779</ele>
        <time>2019-05-15T11:15:04.082Z</time>
      </trkpt>
      <trkpt lat="48.45253" lon="7.11068">
        <ele>779</ele>
        <time>2019-05-15T11:15:05.082Z</time>
      </trkpt>
      <trkpt lat="48.45253" lon="7.11066">
        <ele>779</ele>
        <time>2019-05-15T11:15:06.082Z</time>
      </trkpt>
      <trkpt lat="48.45252" lon="7.11065">
        <ele>780</ele>
        <time>2019-05-15T11:15:07.082Z</time>
      </trkpt>
      <trkpt lat="48.45252" lon="7.11064">
        <ele>780</ele>
        <time>2019-05-15T11:15:08.082Z</time>
      </trkpt>
      <trkpt lat="48.45251" lon="7.11063">
        <ele>780</ele>
        <time>2019-05-15T11:15:09.082Z</time>
      </trkpt>
      <trkpt lat="48.4525" lon="7.11062">
        <ele>780</ele>
        <time>2019-05-15T11:15:10.082Z</time>
      </trkpt>
      <trkpt lat="48.4525" lon="7.1106">
        <ele>779</ele>
        <time>2019-05-15T11:15:11.082Z</time>
      </trkpt>
      <trkpt lat="48.45249" lon="7.11059">
        <ele>780</ele>
        <time>2019-05-15T11:15:12.082Z</time>
      </trkpt>
      <trkpt lat="48.45248" lon="7.11057">
        <ele>780</ele>
        <time>2019-05-15T11:15:13.082Z</time>
      </trkpt>
      <trkpt lat="48.45248" lon="7.11056">
        <ele>780</ele>
        <time>2019-05-15T11:15:14.082Z</time>
      </trkpt>
      <trkpt lat="48.45247" lon="7.11055">
        <ele>780</ele>
        <time>2019-05-15T11:15:15.082Z</time>
      </trkpt>
      <trkpt lat="48.45247" lon="7.11054">
        <ele>780</ele>
        <time>2019-05-15T11:15:16.082Z</time>
      </trkpt>
      <trkpt lat="48.45246" lon="7.11052">
        <ele>780</ele>
        <time>2019-05-15T11:15:17.082Z</time>
      </trkpt>
      <trkpt lat="48.45246" lon="7.11051">
        <ele>780</ele>
        <time>2019-05-15T11:15:18.082Z</time>
      </trkpt>
      <trkpt lat="48.45245" lon="7.1105">
        <ele>780</ele>
        <time>2019-05-15T11:15:19.082Z</time>
      </trkpt>
      <trkpt lat="48.45244" lon="7.11049">
        <ele>780</ele>
        <time>2019-05-15T11:15:20.082Z</time>
      </trkpt>
      <trkpt lat="48.45243" lon="7.11049">
        <ele>780</ele>
        <time>2019-05-15T11:15:21.082Z</time>
      </trkpt>
      <trkpt lat="48.45242" lon="7.11048">
        <ele>780</ele>
        <time>2019-05-15T11:15:22.082Z</time>
      </trkpt>
      <trkpt lat="48.45242" lon="7.11047">
        <ele>780</ele>
        <time>2019-05-15T11:15:23.082Z</time>
      </trkpt>
      <trkpt lat="48.45241" lon="7.11045">
        <ele>781</ele>
        <time>2019-05-15T11:15:24.082Z</time>
      </trkpt>
      <trkpt lat="48.4524" lon="7.11044">
        <ele>781</ele>
        <time>2019-05-15T11:15:25.082Z</time>
      </trkpt>
      <trkpt lat="48.4524" lon="7.11043">
        <ele>781</ele>
        <time>2019-05-15T11:15:26.082Z</time>
      </trkpt>
      <trkpt lat="48.45239" lon="7.11042">
        <ele>781</ele>
        <time>2019-05-15T11:15:27.082Z</time>
      </trkpt>
      <trkpt lat="48.45239" lon="7.11041">
        <ele>781</ele>
        <time>2019-05-15T11:15:28.082Z</time>
      </trkpt>
      <trkpt lat="48.45238" lon="7.1104">
        <ele>781</ele>
        <time>2019-05-15T11:15:29.082Z</time>
      </trkpt>
      <trkpt lat="48.45237" lon="7.1104">
        <ele>780</ele>
        <time>2019-05-15T11:15:30.082Z</time>
      </trkpt>
      <trkpt lat="48.45236" lon="7.11039">
        <ele>780</ele>
        <time>2019-05-15T11:15:31.082Z</time>
      </trkpt>
      <trkpt lat="48.45236" lon="7.11038">
        <ele>781</ele>
        <time>2019-05-15T11:15:32.082Z</time>
      </trkpt>
      <trkpt lat="48.45235" lon="7.11037">
        <ele>781</ele>
        <time>2019-05-15T11:15:33.082Z</time>
      </trkpt>
      <trkpt lat="48.45234" lon="7.11036">
        <ele>781</ele>
        <time>2019-05-15T11:15:34.082Z</time>
      </trkpt>
      <trkpt lat="48.45233" lon="7.11035">
        <ele>780</ele>
        <time>2019-05-15T11:15:35.082Z</time>
      </trkpt>
      <trkpt lat="48.45232" lon="7.11035">
        <ele>780</ele>
        <time>2019-05-15T11:15:36.082Z</time>
      </trkpt>
      <trkpt lat="48.45231" lon="7.11034">
        <ele>780</ele>
        <time>2019-05-15T11:15:37.082Z</time>
      </trkpt>
      <trkpt lat="48.4523" lon="7.11033">
        <ele>780</ele>
        <time>2019-05-15T11:15:38.082Z</time>
      </trkpt>
      <trkpt lat="48.45229" lon="7.11032">
        <ele>779</ele>
        <time>2019-05-15T11:15:39.082Z</time>
      </trkpt>
      <trkpt lat="48.45228" lon="7.11031">
        <ele>779</ele>
        <time>2019-05-15T11:15:40.082Z</time>
      </trkpt>
      <trkpt lat="48.45226" lon="7.1103">
        <ele>779</ele>
        <time>2019-05-15T11:15:41.082Z</time>
      </trkpt>
      <trkpt lat="48.45225" lon="7.11029">
        <ele>779</ele>
        <time>2019-05-15T11:15:42.082Z</time>
      </trkpt>
      <trkpt lat="48.45224" lon="7.11028">
        <ele>779</ele>
        <time>2019-05-15T11:15:43.082Z</time>
      </trkpt>
      <trkpt lat="48.45224" lon="7.11028">
        <ele>779</ele>
        <time>2019-05-15T11:15:44.082Z</time>
      </trkpt>
      <trkpt lat="48.45223" lon="7.11026">
        <ele>780</ele>
        <time>2019-05-15T11:15:45.082Z</time>
      </trkpt>
      <trkpt lat="48.45223" lon="7.11025">
        <ele>780</ele>
        <time>2019-05-15T11:15:46.082Z</time>
      </trkpt>
      <trkpt lat="48.45222" lon="7.11024">
        <ele>779</ele>
        <time>2019-05-15T11:15:47.082Z</time>
      </trkpt>
      <trkpt lat="48.45222" lon="7.11023">
        <ele>780</ele>
        <time>2019-05-15T11:15:48.082Z</time>
      </trkpt>
      <trkpt lat="48.45221" lon="7.11021">
        <ele>779</ele>
        <time>2019-05-15T11:15:49.082Z</time>
      </trkpt>
      <trkpt lat="48.4522" lon="7.1102">
        <ele>780</ele>
        <time>2019-05-15T11:15:50.082Z</time>
      </trkpt>
      <trkpt lat="48.45219" lon="7.11019">
        <ele>779</ele>
        <time>2019-05-15T11:15:51.082Z</time>
      </trkpt>
      <trkpt lat="48.45219" lon="7.11018">
        <ele>779</ele>
        <time>2019-05-15T11:15:52.082Z</time>
      </trkpt>
      <trkpt lat="48.45218" lon="7.11017">
        <ele>778</ele>
        <time>2019-05-15T11:15:53.082Z</time>
      </trkpt>
      <trkpt lat="48.45217" lon="7.11016">
        <ele>778</ele>
        <time>2019-05-15T11:15:54.082Z</time>
      </trkpt>
      <trkpt lat="48.45216" lon="7.11015">
        <ele>778</ele>
        <time>2019-05-15T11:15:55.082Z</time>
      </trkpt>
      <trkpt lat="48.45215" lon="7.11014">
        <ele>778</ele>
        <time>2019-05-15T11:15:56.082Z</time>
      </trkpt>
      <trkpt lat="48.45213" lon="7.11013">
        <ele>777</ele>
        <time>2019-05-15T11:15:57.082Z</time>
      </trkpt>
      <trkpt lat="48.45212" lon="7.11012">
        <ele>777</ele>
        <time>2019-05-15T11:15:58.082Z</time>
      </trkpt>
      <trkpt lat="48.45211" lon="7.11011">
        <ele>777</ele>
        <time>2019-05-15T11:15:59.082Z</time>
      </trkpt>
      <trkpt lat="48.45209" lon="7.1101">
        <ele>777</ele>
        <time>2019-05-15T11:16:00.082Z</time>
      </trkpt>
      <trkpt lat="48.45208" lon="7.1101">
        <ele>776</ele>
        <time>2019-05-15T11:16:01.082Z</time>
      </trkpt>
      <trkpt lat="48.45207" lon="7.11009">
        <ele>776</ele>
        <time>2019-05-15T11:16:02.082Z</time>
      </trkpt>
      <trkpt lat="48.45205" lon="7.11008">
        <ele>776</ele>
        <time>2019-05-15T11:16:03.082Z</time>
      </trkpt>
      <trkpt lat="48.45204" lon="7.11008">
        <ele>775</ele>
        <time>2019-05-15T11:16:04.082Z</time>
      </trkpt>
      <trkpt lat="48.45203" lon="7.11007">
        <ele>775</ele>
        <time>2019-05-15T11:16:05.082Z</time>
      </trkpt>
      <trkpt lat="48.45202" lon="7.11006">
        <ele>775</ele>
        <time>2019-05-15T11:16:06.082Z</time>
      </trkpt>
      <trkpt lat="48.45201" lon="7.11006">
        <ele>775</ele>
        <time>2019-05-15T11:16:07.082Z</time>
      </trkpt>
      <trkpt lat="48.452" lon="7.11005">
        <ele>775</ele>
        <time>2019-05-15T11:16:08.082Z</time>
      </trkpt>
      <trkpt lat="48.45199" lon="7.11004">
        <ele>775</ele>
        <time>2019-05-15T11:16:09.082Z</time>
      </trkpt>
      <trkpt lat="48.45198" lon="7.11004">
        <ele>774</ele>
        <time>2019-05-15T11:16:10.082Z</time>
      </trkpt>
      <trkpt lat="48.45197" lon="7.11003">
        <ele>774</ele>
        <time>2019-05-15T11:16:11.082Z</time>
      </trkpt>
      <trkpt lat="48.45196" lon="7.11003">
        <ele>774</ele>
        <time>2019-05-15T11:16:12.082Z</time>
      </trkpt>
      <trkpt lat="48.45195" lon="7.11002">
        <ele>773</ele>
        <time>2019-05-15T11:16:13.082Z</time>
      </trkpt>
      <trkpt lat="48.45194" lon="7.11002">
        <ele>773</ele>
        <time>2019-05-15T11:16:14.082Z</time>
      </trkpt>
      <trkpt lat="48.45193" lon="7.11001">
        <ele>773</ele>
        <time>2019-05-15T11:16:15.082Z</time>
      </trkpt>
      <trkpt lat="48.45192" lon="7.11">
        <ele>773</ele>
        <time>2019-05-15T11:16:16.082Z</time>
      </trkpt>
      <trkpt lat="48.45191" lon="7.10999">
        <ele>772</ele>
        <time>2019-05-15T11:16:17.082Z</time>
      </trkpt>
      <trkpt lat="48.45189" lon="7.10999">
        <ele>772</ele>
        <time>2019-05-15T11:16:18.082Z</time>
      </trkpt>
      <trkpt lat="48.45188" lon="7.10998">
        <ele>772</ele>
        <time>2019-05-15T11:16:19.082Z</time>
      </trkpt>
      <trkpt lat="48.45187" lon="7.10998">
        <ele>771</ele>
        <time>2019-05-15T11:16:20.082Z</time>
      </trkpt>
      <trkpt lat="48.45186" lon="7.10997">
        <ele>771</ele>
        <time>2019-05-15T11:16:21.082Z</time>
      </trkpt>
      <trkpt lat="48.45185" lon="7.10997">
        <ele>771</ele>
        <time>2019-05-15T11:16:22.082Z</time>
      </trkpt>
      <trkpt lat="48.45184" lon="7.10996">
        <ele>770</ele>
        <time>2019-05-15T11:16:23.082Z</time>
      </trkpt>
      <trkpt lat="48.45183" lon="7.10996">
        <ele>770</ele>
        <time>2019-05-15T11:16:24.082Z</time>
      </trkpt>
      <trkpt lat="48.45182" lon="7.10996">
        <ele>770</ele>
        <time>2019-05-15T11:16:25.082Z</time>
      </trkpt>
      <trkpt lat="48.45181" lon="7.10995">
        <ele>770</ele>
        <time>2019-05-15T11:16:26.082Z</time>
      </trkpt>
      <trkpt lat="48.45181" lon="7.10995">
        <ele>769</ele>
        <time>2019-05-15T11:16:27.082Z</time>
      </trkpt>
      <trkpt lat="48.4518" lon="7.10994">
        <ele>769</ele>
        <time>2019-05-15T11:16:28.082Z</time>
      </trkpt>
      <trkpt lat="48.45179" lon="7.10993">
        <ele>769</ele>
        <time>2019-05-15T11:16:29.082Z</time>
      </trkpt>
      <trkpt lat="48.45178" lon="7.10993">
        <ele>769</ele>
        <time>2019-05-15T11:16:30.082Z</time>
      </trkpt>
      <trkpt lat="48.45177" lon="7.10992">
        <ele>768</ele>
        <time>2019-05-15T11:16:31.082Z</time>
      </trkpt>
      <trkpt lat="48.45176" lon="7.10992">
        <ele>768</ele>
        <time>2019-05-15T11:16:32.082Z</time>
      </trkpt>
      <trkpt lat="48.45175" lon="7.10992">
        <ele>768</ele>
        <time>2019-05-15T11:16:33.082Z</time>
      </trkpt>
      <trkpt lat="48.45174" lon="7.10992">
        <ele>768</ele>
        <time>2019-05-15T11:16:34.082Z</time>
      </trkpt>
      <trkpt lat="48.45173" lon="7.10991">
        <ele>768</ele>
        <time>2019-05-15T11:16:35.082Z</time>
      </trkpt>
      <trkpt lat="48.45172" lon="7.10991">
        <ele>768</ele>
        <time>2019-05-15T11:16:36.082Z</time>
      </trkpt>
      <trkpt lat="48.45171" lon="7.1099">
        <ele>768</ele>
        <time>2019-05-15T11:16:37.082Z</time>
      </trkpt>
      <trkpt lat="48.4517" lon="7.1099">
        <ele>768</ele>
        <time>2019-05-15T11:16:38.082Z</time>
      </trkpt>
      <trkpt lat="48.45169" lon="7.1099">
        <ele>769</ele>
        <time>2019-05-15T11:16:39.082Z</time>
      </trkpt>
      <trkpt lat="48.45168" lon="7.1099">
        <ele>769</ele>
        <time>2019-05-15T11:16:40.082Z</time>
      </trkpt>
      <trkpt lat="48.45167" lon="7.10989">
        <ele>770</ele>
        <time>2019-05-15T11:16:41.082Z</time>
      </trkpt>
      <trkpt lat="48.45166" lon="7.10988">
        <ele>770</ele>
        <time>2019-05-15T11:16:42.082Z</time>
      </trkpt>
      <trkpt lat="48.45164" lon="7.10988">
        <ele>770</ele>
        <time>2019-05-15T11:16:43.082Z</time>
      </trkpt>
      <trkpt lat="48.45163" lon="7.10987">
        <ele>770</ele>
        <time>2019-05-15T11:16:44.082Z</time>
      </trkpt>
      <trkpt lat="48.45162" lon="7.10986">
        <ele>770</ele>
        <time>2019-05-15T11:16:45.082Z</time>
      </trkpt>
      <trkpt lat="48.45162" lon="7.10985">
        <ele>770</ele>
        <time>2019-05-15T11:16:46.082Z</time>
      </trkpt>
      <trkpt lat="48.4516" lon="7.10984">
        <ele>770</ele>
        <time>2019-05-15T11:16:47.082Z</time>
      </trkpt>
      <trkpt lat="48.45159" lon="7.10984">
        <ele>770</ele>
        <time>2019-05-15T11:16:48.082Z</time>
      </trkpt>
      <trkpt lat="48.45158" lon="7.10983">
        <ele>770</ele>
        <time>2019-05-15T11:16:49.082Z</time>
      </trkpt>
      <trkpt lat="48.45157" lon="7.10983">
        <ele>771</ele>
        <time>2019-05-15T11:16:50.082Z</time>
      </trkpt>
      <trkpt lat="48.45156" lon="7.10982">
        <ele>771</ele>
        <time>2019-05-15T11:16:51.082Z</time>
      </trkpt>
      <trkpt lat="48.45155" lon="7.10981">
        <ele>770</ele>
        <time>2019-05-15T11:16:52.082Z</time>
      </trkpt>
      <trkpt lat="48.45154" lon="7.1098">
        <ele>770</ele>
        <time>2019-05-15T11:16:53.082Z</time>
      </trkpt>
      <trkpt lat="48.45153" lon="7.1098">
        <ele>770</ele>
        <time>2019-05-15T11:16:54.082Z</time>
      </trkpt>
      <trkpt lat="48.45152" lon="7.10979">
        <ele>770</ele>
        <time>2019-05-15T11:16:55.082Z</time>
      </trkpt>
      <trkpt lat="48.45151" lon="7.10978">
        <ele>770</ele>
        <time>2019-05-15T11:16:56.082Z</time>
      </trkpt>
      <trkpt lat="48.4515" lon="7.10978">
        <ele>770</ele>
        <time>2019-05-15T11:16:57.082Z</time>
      </trkpt>
      <trkpt lat="48.45149" lon="7.10977">
        <ele>771</ele>
        <time>2019-05-15T11:16:58.082Z</time>
      </trkpt>
      <trkpt lat="48.45148" lon="7.10976">
        <ele>771</ele>
        <time>2019-05-15T11:16:59.082Z</time>
      </trkpt>
      <trkpt lat="48.45147" lon="7.10975">
        <ele>771</ele>
        <time>2019-05-15T11:17:00.082Z</time>
      </trkpt>
      <trkpt lat="48.45146" lon="7.10974">
        <ele>772</ele>
        <time>2019-05-15T11:17:01.082Z</time>
      </trkpt>
      <trkpt lat="48.45145" lon="7.10973">
        <ele>772</ele>
        <time>2019-05-15T11:17:02.082Z</time>
      </trkpt>
      <trkpt lat="48.45144" lon="7.10972">
        <ele>773</ele>
        <time>2019-05-15T11:17:03.082Z</time>
      </trkpt>
      <trkpt lat="48.45143" lon="7.10972">
        <ele>773</ele>
        <time>2019-05-15T11:17:04.082Z</time>
      </trkpt>
      <trkpt lat="48.45143" lon="7.1097">
        <ele>773</ele>
        <time>2019-05-15T11:17:05.082Z</time>
      </trkpt>
      <trkpt lat="48.45142" lon="7.10969">
        <ele>773</ele>
        <time>2019-05-15T11:17:06.082Z</time>
      </trkpt>
      <trkpt lat="48.45141" lon="7.10968">
        <ele>773</ele>
        <time>2019-05-15T11:17:07.082Z</time>
      </trkpt>
      <trkpt lat="48.4514" lon="7.10966">
        <ele>773</ele>
        <time>2019-05-15T11:17:08.082Z</time>
      </trkpt>
      <trkpt lat="48.4514" lon="7.10965">
        <ele>773</ele>
        <time>2019-05-15T11:17:09.082Z</time>
      </trkpt>
      <trkpt lat="48.45139" lon="7.10963">
        <ele>774</ele>
        <time>2019-05-15T11:17:10.082Z</time>
      </trkpt>
      <trkpt lat="48.45139" lon="7.10962">
        <ele>774</ele>
        <time>2019-05-15T11:17:11.082Z</time>
      </trkpt>
      <trkpt lat="48.45139" lon="7.1096">
        <ele>774</ele>
        <time>2019-05-15T11:17:12.082Z</time>
      </trkpt>
      <trkpt lat="48.45139" lon="7.10958">
        <ele>774</ele>
        <time>2019-05-15T11:17:13.082Z</time>
      </trkpt>
      <trkpt lat="48.45138" lon="7.10957">
        <ele>774</ele>
        <time>2019-05-15T11:17:14.082Z</time>
      </trkpt>
      <trkpt lat="48.45138" lon="7.10955">
        <ele>774</ele>
        <time>2019-05-15T11:17:15.082Z</time>
      </trkpt>
      <trkpt lat="48.45138" lon="7.10953">
        <ele>774</ele>
        <time>2019-05-15T11:17:16.082Z</time>
      </trkpt>
      <trkpt lat="48.45138" lon="7.10952">
        <ele>774</ele>
        <time>2019-05-15T11:17:17.082Z</time>
      </trkpt>
      <trkpt lat="48.45138" lon="7.1095">
        <ele>775</ele>
        <time>2019-05-15T11:17:18.082Z</time>
      </trkpt>
      <trkpt lat="48.45138" lon="7.10948">
        <ele>775</ele>
        <time>2019-05-15T11:17:19.082Z</time>
      </trkpt>
      <trkpt lat="48.45138" lon="7.10947">
        <ele>775</ele>
        <time>2019-05-15T11:17:20.082Z</time>
      </trkpt>
      <trkpt lat="48.45138" lon="7.10946">
        <ele>775</ele>
        <time>2019-05-15T11:17:21.082Z</time>
      </trkpt>
      <trkpt lat="48.45139" lon="7.10944">
        <ele>775</ele>
        <time>2019-05-15T11:17:22.082Z</time>
      </trkpt>
      <trkpt lat="48.45139" lon="7.10943">
        <ele>776</ele>
        <time>2019-05-15T11:17:23.082Z</time>
      </trkpt>
      <trkpt lat="48.45139" lon="7.10942">
        <ele>776</ele>
        <time>2019-05-15T11:17:24.082Z</time>
      </trkpt>
      <trkpt lat="48.45139" lon="7.10941">
        <ele>776</ele>
        <time>2019-05-15T11:17:25.082Z</time>
      </trkpt>
      <trkpt lat="48.4514" lon="7.1094">
        <ele>776</ele>
        <time>2019-05-15T11:17:26.082Z</time>
      </trkpt>
      <trkpt lat="48.4514" lon="7.10939">
        <ele>775</ele>
        <time>2019-05-15T11:17:27.082Z</time>
      </trkpt>
      <trkpt lat="48.45141" lon="7.10938">
        <ele>775</ele>
        <time>2019-05-15T11:17:28.082Z</time>
      </trkpt>
      <trkpt lat="48.45141" lon="7.10937">
        <ele>776</ele>
        <time>2019-05-15T11:17:29.082Z</time>
      </trkpt>
      <trkpt lat="48.45142" lon="7.10937">
        <ele>776</ele>
        <time>2019-05-15T11:17:30.082Z</time>
      </trkpt>
      <trkpt lat="48.45142" lon="7.10936">
        <ele>777</ele>
        <time>2019-05-15T11:17:31.082Z</time>
      </trkpt>
      <trkpt lat="48.45142" lon="7.10936">
        <ele>777</ele>
        <time>2019-05-15T11:17:32.082Z</time>
      </trkpt>
      <trkpt lat="48.45142" lon="7.10935">
        <ele>777</ele>
        <time>2019-05-15T11:17:33.082Z</time>
      </trkpt>
      <trkpt lat="48.45143" lon="7.10934">
        <ele>777</ele>
        <time>2019-05-15T11:17:34.082Z</time>
      </trkpt>
      <trkpt lat="48.45143" lon="7.10934">
        <ele>777</ele>
        <time>2019-05-15T11:17:35.082Z</time>
      </trkpt>
      <trkpt lat="48.45144" lon="7.10934">
        <ele>777</ele>
        <time>2019-05-15T11:17:36.082Z</time>
      </trkpt>
      <trkpt lat="48.45144" lon="7.10933">
        <ele>778</ele>
        <time>2019-05-15T11:17:37.082Z</time>
      </trkpt>
      <trkpt lat="48.45145" lon="7.10933">
        <ele>778</ele>
        <time>2019-05-15T11:17:38.082Z</time>
      </trkpt>
      <trkpt lat="48.45145" lon="7.10932">
        <ele>779</ele>
        <time>2019-05-15T11:17:39.082Z</time>
      </trkpt>
      <trkpt lat="48.45146" lon="7.10932">
        <ele>779</ele>
        <time>2019-05-15T11:17:40.082Z</time>
      </trkpt>
      <trkpt lat="48.45146" lon="7.10932">
        <ele>779</ele>
        <time>2019-05-15T11:17:41.082Z</time>
      </trkpt>
      <trkpt lat="48.45147" lon="7.10931">
        <ele>779</ele>
        <time>2019-05-15T11:17:42.082Z</time>
      </trkpt>
      <trkpt lat="48.45148" lon="7.10931">
        <ele>779</ele>
        <time>2019-05-15T11:17:43.082Z</time>
      </trkpt>
      <trkpt lat="48.45149" lon="7.10931">
        <ele>779</ele>
        <time>2019-05-15T11:17:44.082Z</time>
      </trkpt>
      <trkpt lat="48.4515" lon="7.10931">
        <ele>779</ele>
        <time>2019-05-15T11:17:45.082Z</time>
      </trkpt>
      <trkpt lat="48.45152" lon="7.10931">
        <ele>778</ele>
        <time>2019-05-15T11:17:46.082Z</time>
      </trkpt>
      <trkpt lat="48.45154" lon="7.10931">
        <ele>778</ele>
        <time>2019-05-15T11:17:47.082Z</time>
      </trkpt>
      <trkpt lat="48.45156" lon="7.10932">
        <ele>779</ele>
        <time>2019-05-15T11:17:48.082Z</time>
      </trkpt>
      <trkpt lat="48.45157" lon="7.10932">
        <ele>779</ele>
        <time>2019-05-15T11:17:49.082Z</time>
      </trkpt>
      <trkpt lat="48.45159" lon="7.10932">
        <ele>778</ele>
        <time>2019-05-15T11:17:50.082Z</time>
      </trkpt>
      <trkpt lat="48.4516" lon="7.10932">
        <ele>778</ele>
        <time>2019-05-15T11:17:51.082Z</time>
      </trkpt>
      <trkpt lat="48.45161" lon="7.10933">
        <ele>779</ele>
        <time>2019-05-15T11:17:52.082Z</time>
      </trkpt>
      <trkpt lat="48.45162" lon="7.10933">
        <ele>779</ele>
        <time>2019-05-15T11:17:53.082Z</time>
      </trkpt>
      <trkpt lat="48.45163" lon="7.10933">
        <ele>779</ele>
        <time>2019-05-15T11:17:54.082Z</time>
      </trkpt>
      <trkpt lat="48.45164" lon="7.10933">
        <ele>779</ele>
        <time>2019-05-15T11:17:55.082Z</time>
      </trkpt>
      <trkpt lat="48.45165" lon="7.10932">
        <ele>779</ele>
        <time>2019-05-15T11:17:56.082Z</time>
      </trkpt>
      <trkpt lat="48.45166" lon="7.10932">
        <ele>779</ele>
        <time>2019-05-15T11:17:57.082Z</time>
      </trkpt>
      <trkpt lat="48.45167" lon="7.10932">
        <ele>779</ele>
        <time>2019-05-15T11:17:58.082Z</time>
      </trkpt>
      <trkpt lat="48.45168" lon="7.10933">
        <ele>779</ele>
        <time>2019-05-15T11:17:59.082Z</time>
      </trkpt>
      <trkpt lat="48.4517" lon="7.10933">
        <ele>779</ele>
        <time>2019-05-15T11:18:00.082Z</time>
      </trkpt>
      <trkpt lat="48.45171" lon="7.10933">
        <ele>779</ele>
        <time>2019-05-15T11:18:01.082Z</time>
      </trkpt>
      <trkpt lat="48.45172" lon="7.10933">
        <ele>779</ele>
        <time>2019-05-15T11:18:02.082Z</time>
      </trkpt>
      <trkpt lat="48.45173" lon="7.10934">
        <ele>779</ele>
        <time>2019-05-15T11:18:03.082Z</time>
      </trkpt>
      <trkpt lat="48.45175" lon="7.10934">
        <ele>778</ele>
        <time>2019-05-15T11:18:04.082Z</time>
      </trkpt>
      <trkpt lat="48.45176" lon="7.10934">
        <ele>778</ele>
        <time>2019-05-15T11:18:05.082Z</time>
      </trkpt>
      <trkpt lat="48.45177" lon="7.10934">
        <ele>778</ele>
        <time>2019-05-15T11:18:06.082Z</time>
      </trkpt>
      <trkpt lat="48.45179" lon="7.10934">
        <ele>778</ele>
        <time>2019-05-15T11:18:07.082Z</time>
      </trkpt>
      <trkpt lat="48.4518" lon="7.10933">
        <ele>778</ele>
        <time>2019-05-15T11:18:08.082Z</time>
      </trkpt>
      <trkpt lat="48.45181" lon="7.10933">
        <ele>777</ele>
        <time>2019-05-15T11:18:09.082Z</time>
      </trkpt>
      <trkpt lat="48.45183" lon="7.10933">
        <ele>776</ele>
        <time>2019-05-15T11:18:10.082Z</time>
      </trkpt>
      <trkpt lat="48.45184" lon="7.10933">
        <ele>776</ele>
        <time>2019-05-15T11:18:11.082Z</time>
      </trkpt>
      <trkpt lat="48.45186" lon="7.10932">
        <ele>776</ele>
        <time>2019-05-15T11:18:12.082Z</time>
      </trkpt>
      <trkpt lat="48.45187" lon="7.10932">
        <ele>775</ele>
        <time>2019-05-15T11:18:13.082Z</time>
      </trkpt>
      <trkpt lat="48.45189" lon="7.10932">
        <ele>775</ele>
        <time>2019-05-15T11:18:14.082Z</time>
      </trkpt>
      <trkpt lat="48.4519" lon="7.10932">
        <ele>775</ele>
        <time>2019-05-15T11:18:15.082Z</time>
      </trkpt>
      <trkpt lat="48.45191" lon="7.10932">
        <ele>775</ele>
        <time>2019-05-15T11:18:16.082Z</time>
      </trkpt>
      <trkpt lat="48.45192" lon="7.10932">
        <ele>775</ele>
        <time>2019-05-15T11:18:17.082Z</time>
      </trkpt>
      <trkpt lat="48.45193" lon="7.10932">
        <ele>775</ele>
        <time>2019-05-15T11:18:18.082Z</time>
      </trkpt>
      <trkpt lat="48.45195" lon="7.10931">
        <ele>775</ele>
        <time>2019-05-15T11:18:19.082Z</time>
      </trkpt>
      <trkpt lat="48.45196" lon="7.10931">
        <ele>775</ele>
        <time>2019-05-15T11:18:20.082Z</time>
      </trkpt>
      <trkpt lat="48.45197" lon="7.10931">
        <ele>775</ele>
        <time>2019-05-15T11:18:21.082Z</time>
      </trkpt>
      <trkpt lat="48.45198" lon="7.1093">
        <ele>775</ele>
        <time>2019-05-15T11:18:22.082Z</time>
      </trkpt>
      <trkpt lat="48.45199" lon="7.1093">
        <ele>775</ele>
        <time>2019-05-15T11:18:23.082Z</time>
      </trkpt>
      <trkpt lat="48.452" lon="7.1093">
        <ele>774</ele>
        <time>2019-05-15T11:18:24.082Z</time>
      </trkpt>
      <trkpt lat="48.45201" lon="7.10931">
        <ele>774</ele>
        <time>2019-05-15T11:18:25.082Z</time>
      </trkpt>
      <trkpt lat="48.45202" lon="7.10931">
        <ele>774</ele>
        <time>2019-05-15T11:18:26.082Z</time>
      </trkpt>
      <trkpt lat="48.45204" lon="7.10931">
        <ele>774</ele>
        <time>2019-05-15T11:18:27.082Z</time>
      </trkpt>
      <trkpt lat="48.45205" lon="7.10931">
        <ele>773</ele>
        <time>2019-05-15T11:18:28.082Z</time>
      </trkpt>
      <trkpt lat="48.45206" lon="7.10931">
        <ele>773</ele>
        <time>2019-05-15T11:18:29.082Z</time>
      </trkpt>
      <trkpt lat="48.45207" lon="7.10931">
        <ele>773</ele>
        <time>2019-05-15T11:18:30.082Z</time>
      </trkpt>
      <trkpt lat="48.45208" lon="7.10931">
        <ele>773</ele>
        <time>2019-05-15T11:18:31.082Z</time>
      </trkpt>
      <trkpt lat="48.45209" lon="7.10931">
        <ele>772</ele>
        <time>2019-05-15T11:18:32.082Z</time>
      </trkpt>
      <trkpt lat="48.4521" lon="7.10932">
        <ele>772</ele>
        <time>2019-05-15T11:18:33.082Z</time>
      </trkpt>
      <trkpt lat="48.45211" lon="7.10932">
        <ele>772</ele>
        <time>2019-05-15T11:18:34.082Z</time>
      </trkpt>
      <trkpt lat="48.45211" lon="7.10932">
        <ele>771</ele>
        <time>2019-05-15T11:18:35.082Z</time>
      </trkpt>
      <trkpt lat="48.45212" lon="7.10932">
        <ele>771</ele>
        <time>2019-05-15T11:18:36.082Z</time>
      </trkpt>
      <trkpt lat="48.45213" lon="7.10931">
        <ele>771</ele>
        <time>2019-05-15T11:18:37.082Z</time>
      </trkpt>
      <trkpt lat="48.45214" lon="7.10931">
        <ele>771</ele>
        <time>2019-05-15T11:18:38.082Z</time>
      </trkpt>
      <trkpt lat="48.45214" lon="7.1093">
        <ele>771</ele>
        <time>2019-05-15T11:18:39.082Z</time>
      </trkpt>
      <trkpt lat="48.45215" lon="7.1093">
        <ele>771</ele>
        <time>2019-05-15T11:18:40.082Z</time>
      </trkpt>
      <trkpt lat="48.45215" lon="7.1093">
        <ele>771</ele>
        <time>2019-05-15T11:18:41.082Z</time>
      </trkpt>
      <trkpt lat="48.45215" lon="7.1093">
        <ele>771</ele>
        <time>2019-05-15T11:18:42.082Z</time>
      </trkpt>
      <trkpt lat="48.45215" lon="7.10931">
        <ele>771</ele>
        <time>2019-05-15T11:18:43.082Z</time>
      </trkpt>
      <trkpt lat="48.45215" lon="7.10931">
        <ele>772</ele>
        <time>2019-05-15T11:18:44.082Z</time>
      </trkpt>
      <trkpt lat="48.45215" lon="7.10932">
        <ele>771</ele>
        <time>2019-05-15T11:18:45.082Z</time>
      </trkpt>
      <trkpt lat="48.45215" lon="7.10932">
        <ele>771</ele>
        <time>2019-05-15T11:18:46.082Z</time>
      </trkpt>
      <trkpt lat="48.45215" lon="7.10932">
        <ele>771</ele>
        <time>2019-05-15T11:18:47.082Z</time>
      </trkpt>
      <trkpt lat="48.45215" lon="7.10932">
        <ele>770</ele>
        <time>2019-05-15T11:18:48.082Z</time>
      </trkpt>
      <trkpt lat="48.45215" lon="7.10932">
        <ele>770</ele>
        <time>2019-05-15T11:18:49.082Z</time>
      </trkpt>
      <trkpt lat="48.45215" lon="7.10932">
        <ele>770</ele>
        <time>2019-05-15T11:18:50.082Z</time>
      </trkpt>
      <trkpt lat="48.45215" lon="7.10932">
        <ele>771</ele>
        <time>2019-05-15T11:18:51.082Z</time>
      </trkpt>
      <trkpt lat="48.45215" lon="7.10933">
        <ele>771</ele>
        <time>2019-05-15T11:18:52.082Z</time>
      </trkpt>
      <trkpt lat="48.45215" lon="7.10933">
        <ele>770</ele>
        <time>2019-05-15T11:18:53.082Z</time>
      </trkpt>
      <trkpt lat="48.45216" lon="7.10933">
        <ele>770</ele>
        <time>2019-05-15T11:18:54.082Z</time>
      </trkpt>
      <trkpt lat="48.45216" lon="7.10933">
        <ele>769</ele>
        <time>2019-05-15T11:18:55.082Z</time>
      </trkpt>
      <trkpt lat="48.45216" lon="7.10933">
        <ele>769</ele>
        <time>2019-05-15T11:18:56.082Z</time>
      </trkpt>
      <trkpt lat="48.45216" lon="7.10933">
        <ele>769</ele>
        <time>2019-05-15T11:18:57.082Z</time>
      </trkpt>
      <trkpt lat="48.45217" lon="7.10933">
        <ele>768</ele>
        <time>2019-05-15T11:18:58.082Z</time>
      </trkpt>
      <trkpt lat="48.45217" lon="7.10933">
        <ele>768</ele>
        <time>2019-05-15T11:18:59.082Z</time>
      </trkpt>
      <trkpt lat="48.45217" lon="7.10933">
        <ele>768</ele>
        <time>2019-05-15T11:19:00.082Z</time>
      </trkpt>
      <trkpt lat="48.45217" lon="7.10933">
        <ele>767</ele>
        <time>2019-05-15T11:19:01.082Z</time>
      </trkpt>
      <trkpt lat="48.45218" lon="7.10932">
        <ele>767</ele>
        <time>2019-05-15T11:19:02.082Z</time>
      </trkpt>
      <trkpt lat="48.45218" lon="7.10932">
        <ele>767</ele>
        <time>2019-05-15T11:19:03.082Z</time>
      </trkpt>
      <trkpt lat="48.45218" lon="7.10932">
        <ele>767</ele>
        <time>2019-05-15T11:19:04.082Z</time>
      </trkpt>
      <trkpt lat="48.45218" lon="7.10932">
        <ele>767</ele>
        <time>2019-05-15T11:19:05.082Z</time>
      </trkpt>
      <trkpt lat="48.45218" lon="7.10932">
        <ele>767</ele>
        <time>2019-05-15T11:19:06.082Z</time>
      </trkpt>
      <trkpt lat="48.45218" lon="7.10933">
        <ele>767</ele>
        <time>2019-05-15T11:19:07.082Z</time>
      </trkpt>
      <trkpt lat="48.45218" lon="7.10933">
        <ele>767</ele>
        <time>2019-05-15T11:19:08.082Z</time>
      </trkpt>
      <trkpt lat="48.45218" lon="7.10933">
        <ele>767</ele>
        <time>2019-05-15T11:19:09.082Z</time>
      </trkpt>
      <trkpt lat="48.45218" lon="7.10933">
        <ele>767</ele>
        <time>2019-05-15T11:19:10.082Z</time>
      </trkpt>
      <trkpt lat="48.45218" lon="7.10934">
        <ele>767</ele>
        <time>2019-05-15T11:19:11.082Z</time>
      </trkpt>
      <trkpt lat="48.45218" lon="7.10934">
        <ele>766</ele>
        <time>2019-05-15T11:19:12.082Z</time>
      </trkpt>
      <trkpt lat="48.45218" lon="7.10935">
        <ele>766</ele>
        <time>2019-05-15T11:19:13.082Z</time>
      </trkpt>
      <trkpt lat="48.45218" lon="7.10935">
        <ele>766</ele>
        <time>2019-05-15T11:19:14.082Z</time>
      </trkpt>
      <trkpt lat="48.45218" lon="7.10936">
        <ele>767</ele>
        <time>2019-05-15T11:19:15.082Z</time>
      </trkpt>
      <trkpt lat="48.45217" lon="7.10936">
        <ele>767</ele>
        <time>2019-05-15T11:19:16.082Z</time>
      </trkpt>
      <trkpt lat="48.45217" lon="7.10937">
        <ele>767</ele>
        <time>2019-05-15T11:19:17.082Z</time>
      </trkpt>
      <trkpt lat="48.45218" lon="7.10937">
        <ele>767</ele>
        <time>2019-05-15T11:19:18.082Z</time>
      </trkpt>
      <trkpt lat="48.45218" lon="7.10936">
        <ele>767</ele>
        <time>2019-05-15T11:19:19.082Z</time>
      </trkpt>
      <trkpt lat="48.45218" lon="7.10936">
        <ele>767</ele>
        <time>2019-05-15T11:19:20.082Z</time>
      </trkpt>
      <trkpt lat="48.45218" lon="7.10935">
        <ele>767</ele>
        <time>2019-05-15T11:19:21.082Z</time>
      </trkpt>
      <trkpt lat="48.45218" lon="7.10935">
        <ele>766</ele>
        <time>2019-05-15T11:19:22.082Z</time>
      </trkpt>
      <trkpt lat="48.45219" lon="7.10934">
        <ele>766</ele>
        <time>2019-05-15T11:19:23.082Z</time>
      </trkpt>
      <trkpt lat="48.45219" lon="7.10933">
        <ele>766</ele>
        <time>2019-05-15T11:19:24.082Z</time>
      </trkpt>
      <trkpt lat="48.45219" lon="7.10933">
        <ele>766</ele>
        <time>2019-05-15T11:19:25.082Z</time>
      </trkpt>
      <trkpt lat="48.4522" lon="7.10932">
        <ele>765</ele>
        <time>2019-05-15T11:19:26.082Z</time>
      </trkpt>
      <trkpt lat="48.4522" lon="7.10932">
        <ele>765</ele>
        <time>2019-05-15T11:19:27.082Z</time>
      </trkpt>
      <trkpt lat="48.45221" lon="7.10931">
        <ele>764</ele>
        <time>2019-05-15T11:19:28.082Z</time>
      </trkpt>
      <trkpt lat="48.45222" lon="7.1093">
        <ele>764</ele>
        <time>2019-05-15T11:19:29.082Z</time>
      </trkpt>
      <trkpt lat="48.45222" lon="7.1093">
        <ele>764</ele>
        <time>2019-05-15T11:19:30.082Z</time>
      </trkpt>
      <trkpt lat="48.45223" lon="7.10929">
        <ele>763</ele>
        <time>2019-05-15T11:19:31.082Z</time>
      </trkpt>
      <trkpt lat="48.45224" lon="7.10929">
        <ele>763</ele>
        <time>2019-05-15T11:19:32.082Z</time>
      </trkpt>
      <trkpt lat="48.45225" lon="7.10928">
        <ele>762</ele>
        <time>2019-05-15T11:19:33.082Z</time>
      </trkpt>
      <trkpt lat="48.45226" lon="7.10928">
        <ele>762</ele>
        <time>2019-05-15T11:19:34.082Z</time>
      </trkpt>
      <trkpt lat="48.45227" lon="7.10928">
        <ele>762</ele>
        <time>2019-05-15T11:19:35.082Z</time>
      </trkpt>
      <trkpt lat="48.45228" lon="7.10927">
        <ele>762</ele>
        <time>2019-05-15T11:19:36.082Z</time>
      </trkpt>
      <trkpt lat="48.45229" lon="7.10927">
        <ele>761</ele>
        <time>2019-05-15T11:19:37.082Z</time>
      </trkpt>
      <trkpt lat="48.4523" lon="7.10927">
        <ele>761</ele>
        <time>2019-05-15T11:19:38.082Z</time>
      </trkpt>
      <trkpt lat="48.4523" lon="7.10927">
        <ele>761</ele>
        <time>2019-05-15T11:19:39.082Z</time>
      </trkpt>
      <trkpt lat="48.45231" lon="7.10927">
        <ele>761</ele>
        <time>2019-05-15T11:19:40.082Z</time>
      </trkpt>
      <trkpt lat="48.45232" lon="7.10927">
        <ele>761</ele>
        <time>2019-05-15T11:19:41.082Z</time>
      </trkpt>
      <trkpt lat="48.45234" lon="7.10927">
        <ele>760</ele>
        <time>2019-05-15T11:19:42.082Z</time>
      </trkpt>
      <trkpt lat="48.45235" lon="7.10927">
        <ele>760</ele>
        <time>2019-05-15T11:19:43.082Z</time>
      </trkpt>
      <trkpt lat="48.45236" lon="7.10928">
        <ele>760</ele>
        <time>2019-05-15T11:19:44.082Z</time>
      </trkpt>
      <trkpt lat="48.45237" lon="7.10928">
        <ele>759</ele>
        <time>2019-05-15T11:19:45.082Z</time>
      </trkpt>
      <trkpt lat="48.45238" lon="7.10928">
        <ele>759</ele>
        <time>2019-05-15T11:19:46.082Z</time>
      </trkpt>
      <trkpt lat="48.45239" lon="7.10929">
        <ele>759</ele>
        <time>2019-05-15T11:19:47.082Z</time>
      </trkpt>
      <trkpt lat="48.4524" lon="7.10929">
        <ele>758</ele>
        <time>2019-05-15T11:19:48.082Z</time>
      </trkpt>
      <trkpt lat="48.4524" lon="7.10929">
        <ele>759</ele>
        <time>2019-05-15T11:19:49.082Z</time>
      </trkpt>
      <trkpt lat="48.45241" lon="7.1093">
        <ele>758</ele>
        <time>2019-05-15T11:19:50.082Z</time>
      </trkpt>
      <trkpt lat="48.45242" lon="7.1093">
        <ele>758</ele>
        <time>2019-05-15T11:19:51.082Z</time>
      </trkpt>
      <trkpt lat="48.45243" lon="7.1093">
        <ele>758</ele>
        <time>2019-05-15T11:19:52.082Z</time>
      </trkpt>
      <trkpt lat="48.45245" lon="7.10931">
        <ele>758</ele>
        <time>2019-05-15T11:19:53.082Z</time>
      </trkpt>
      <trkpt lat="48.45245" lon="7.10932">
        <ele>758</ele>
        <time>2019-05-15T11:19:54.082Z</time>
      </trkpt>
      <trkpt lat="48.45246" lon="7.10933">
        <ele>758</ele>
        <time>2019-05-15T11:19:55.082Z</time>
      </trkpt>
      <trkpt lat="48.45247" lon="7.10934">
        <ele>758</ele>
        <time>2019-05-15T11:19:56.082Z</time>
      </trkpt>
      <trkpt lat="48.45248" lon="7.10935">
        <ele>758</ele>
        <time>2019-05-15T11:19:57.082Z</time>
      </trkpt>
      <trkpt lat="48.45249" lon="7.10936">
        <ele>758</ele>
        <time>2019-05-15T11:19:58.082Z</time>
      </trkpt>
      <trkpt lat="48.45249" lon="7.10936">
        <ele>758</ele>
        <time>2019-05-15T11:19:59.082Z</time>
      </trkpt>
      <trkpt lat="48.4525" lon="7.10937">
        <ele>758</ele>
        <time>2019-05-15T11:20:00.082Z</time>
      </trkpt>
      <trkpt lat="48.45251" lon="7.10938">
        <ele>758</ele>
        <time>2019-05-15T11:20:01.082Z</time>
      </trkpt>
      <trkpt lat="48.45252" lon="7.10939">
        <ele>758</ele>
        <time>2019-05-15T11:20:02.082Z</time>
      </trkpt>
      <trkpt lat="48.45253" lon="7.1094">
        <ele>758</ele>
        <time>2019-05-15T11:20:03.082Z</time>
      </trkpt>
      <trkpt lat="48.45254" lon="7.1094">
        <ele>757</ele>
        <time>2019-05-15T11:20:04.082Z</time>
      </trkpt>
      <trkpt lat="48.45255" lon="7.10941">
        <ele>757</ele>
        <time>2019-05-15T11:20:05.082Z</time>
      </trkpt>
      <trkpt lat="48.45256" lon="7.10942">
        <ele>757</ele>
        <time>2019-05-15T11:20:06.082Z</time>
      </trkpt>
      <trkpt lat="48.45256" lon="7.10943">
        <ele>757</ele>
        <time>2019-05-15T11:20:07.082Z</time>
      </trkpt>
      <trkpt lat="48.45257" lon="7.10944">
        <ele>756</ele>
        <time>2019-05-15T11:20:08.082Z</time>
      </trkpt>
      <trkpt lat="48.45258" lon="7.10945">
        <ele>756</ele>
        <time>2019-05-15T11:20:09.082Z</time>
      </trkpt>
      <trkpt lat="48.45259" lon="7.10946">
        <ele>756</ele>
        <time>2019-05-15T11:20:10.082Z</time>
      </trkpt>
      <trkpt lat="48.4526" lon="7.10947">
        <ele>757</ele>
        <time>2019-05-15T11:20:11.082Z</time>
      </trkpt>
      <trkpt lat="48.45261" lon="7.10949">
        <ele>757</ele>
        <time>2019-05-15T11:20:12.082Z</time>
      </trkpt>
      <trkpt lat="48.45262" lon="7.1095">
        <ele>757</ele>
        <time>2019-05-15T11:20:13.082Z</time>
      </trkpt>
      <trkpt lat="48.45263" lon="7.10951">
        <ele>757</ele>
        <time>2019-05-15T11:20:14.082Z</time>
      </trkpt>
      <trkpt lat="48.45264" lon="7.10953">
        <ele>757</ele>
        <time>2019-05-15T11:20:15.082Z</time>
      </trkpt>
      <trkpt lat="48.45265" lon="7.10954">
        <ele>757</ele>
        <time>2019-05-15T11:20:16.082Z</time>
      </trkpt>
      <trkpt lat="48.45266" lon="7.10955">
        <ele>757</ele>
        <time>2019-05-15T11:20:17.082Z</time>
      </trkpt>
      <trkpt lat="48.45267" lon="7.10956">
        <ele>757</ele>
        <time>2019-05-15T11:20:18.082Z</time>
      </trkpt>
      <trkpt lat="48.45268" lon="7.10957">
        <ele>757</ele>
        <time>2019-05-15T11:20:19.082Z</time>
      </trkpt>
      <trkpt lat="48.45269" lon="7.10958">
        <ele>756</ele>
        <time>2019-05-15T11:20:20.082Z</time>
      </trkpt>
      <trkpt lat="48.4527" lon="7.10959">
        <ele>756</ele>
        <time>2019-05-15T11:20:21.082Z</time>
      </trkpt>
      <trkpt lat="48.45271" lon="7.1096">
        <ele>756</ele>
        <time>2019-05-15T11:20:22.082Z</time>
      </trkpt>
      <trkpt lat="48.45272" lon="7.10961">
        <ele>756</ele>
        <time>2019-05-15T11:20:23.082Z</time>
      </trkpt>
      <trkpt lat="48.45273" lon="7.10962">
        <ele>756</ele>
        <time>2019-05-15T11:20:24.082Z</time>
      </trkpt>
      <trkpt lat="48.45274" lon="7.10963">
        <ele>756</ele>
        <time>2019-05-15T11:20:25.082Z</time>
      </trkpt>
      <trkpt lat="48.45275" lon="7.10965">
        <ele>755</ele>
        <time>2019-05-15T11:20:26.082Z</time>
      </trkpt>
      <trkpt lat="48.45276" lon="7.10966">
        <ele>755</ele>
        <time>2019-05-15T11:20:27.082Z</time>
      </trkpt>
      <trkpt lat="48.45277" lon="7.10967">
        <ele>756</ele>
        <time>2019-05-15T11:20:28.082Z</time>
      </trkpt>
      <trkpt lat="48.45278" lon="7.10968">
        <ele>756</ele>
        <time>2019-05-15T11:20:29.082Z</time>
      </trkpt>
      <trkpt lat="48.45279" lon="7.10969">
        <ele>756</ele>
        <time>2019-05-15T11:20:30.082Z</time>
      </trkpt>
      <trkpt lat="48.4528" lon="7.10971">
        <ele>757</ele>
        <time>2019-05-15T11:20:31.082Z</time>
      </trkpt>
      <trkpt lat="48.4528" lon="7.10972">
        <ele>757</ele>
        <time>2019-05-15T11:20:32.082Z</time>
      </trkpt>
      <trkpt lat="48.45281" lon="7.10973">
        <ele>757</ele>
        <time>2019-05-15T11:20:33.082Z</time>
      </trkpt>
      <trkpt lat="48.45282" lon="7.10975">
        <ele>756</ele>
        <time>2019-05-15T11:20:34.082Z</time>
      </trkpt>
      <trkpt lat="48.45283" lon="7.10976">
        <ele>756</ele>
        <time>2019-05-15T11:20:35.082Z</time>
      </trkpt>
      <trkpt lat="48.45284" lon="7.10977">
        <ele>756</ele>
        <time>2019-05-15T11:20:36.082Z</time>
      </trkpt>
      <trkpt lat="48.45285" lon="7.10978">
        <ele>756</ele>
        <time>2019-05-15T11:20:37.082Z</time>
      </trkpt>
      <trkpt lat="48.45286" lon="7.10979">
        <ele>756</ele>
        <time>2019-05-15T11:20:38.082Z</time>
      </trkpt>
      <trkpt lat="48.45286" lon="7.10981">
        <ele>756</ele>
        <time>2019-05-15T11:20:39.082Z</time>
      </trkpt>
      <trkpt lat="48.45287" lon="7.10982">
        <ele>757</ele>
        <time>2019-05-15T11:20:40.082Z</time>
      </trkpt>
      <trkpt lat="48.45288" lon="7.10983">
        <ele>756</ele>
        <time>2019-05-15T11:20:41.082Z</time>
      </trkpt>
      <trkpt lat="48.45289" lon="7.10984">
        <ele>756</ele>
        <time>2019-05-15T11:20:42.082Z</time>
      </trkpt>
      <trkpt lat="48.45289" lon="7.10985">
        <ele>756</ele>
        <time>2019-05-15T11:20:43.082Z</time>
      </trkpt>
      <trkpt lat="48.4529" lon="7.10986">
        <ele>756</ele>
        <time>2019-05-15T11:20:44.082Z</time>
      </trkpt>
      <trkpt lat="48.45291" lon="7.10987">
        <ele>756</ele>
        <time>2019-05-15T11:20:45.082Z</time>
      </trkpt>
      <trkpt lat="48.45293" lon="7.10989">
        <ele>757</ele>
        <time>2019-05-15T11:20:46.082Z</time>
      </trkpt>
      <trkpt lat="48.45294" lon="7.1099">
        <ele>757</ele>
        <time>2019-05-15T11:20:47.082Z</time>
      </trkpt>
      <trkpt lat="48.45295" lon="7.10991">
        <ele>757</ele>
        <time>2019-05-15T11:20:48.082Z</time>
      </trkpt>
      <trkpt lat="48.45295" lon="7.10993">
        <ele>757</ele>
        <time>2019-05-15T11:20:49.082Z</time>
      </trkpt>
      <trkpt lat="48.45296" lon="7.10994">
        <ele>756</ele>
        <time>2019-05-15T11:20:50.082Z</time>
      </trkpt>
      <trkpt lat="48.45297" lon="7.10995">
        <ele>756</ele>
        <time>2019-05-15T11:20:51.082Z</time>
      </trkpt>
      <trkpt lat="48.45298" lon="7.10996">
        <ele>756</ele>
        <time>2019-05-15T11:20:52.082Z</time>
      </trkpt>
      <trkpt lat="48.45299" lon="7.10997">
        <ele>756</ele>
        <time>2019-05-15T11:20:53.082Z</time>
      </trkpt>
      <trkpt lat="48.453" lon="7.10998">
        <ele>756</ele>
        <time>2019-05-15T11:20:54.082Z</time>
      </trkpt>
      <trkpt lat="48.453" lon="7.10998">
        <ele>756</ele>
        <time>2019-05-15T11:20:55.082Z</time>
      </trkpt>
      <trkpt lat="48.45301" lon="7.10999">
        <ele>756</ele>
        <time>2019-05-15T11:20:56.082Z</time>
      </trkpt>
      <trkpt lat="48.45302" lon="7.11">
        <ele>755</ele>
        <time>2019-05-15T11:20:57.082Z</time>
      </trkpt>
      <trkpt lat="48.45303" lon="7.11001">
        <ele>756</ele>
        <time>2019-05-15T11:20:58.082Z</time>
      </trkpt>
      <trkpt lat="48.45304" lon="7.11002">
        <ele>755</ele>
        <time>2019-05-15T11:20:59.082Z</time>
      </trkpt>
      <trkpt lat="48.45305" lon="7.11002">
        <ele>755</ele>
        <time>2019-05-15T11:21:00.082Z</time>
      </trkpt>
      <trkpt lat="48.45306" lon="7.11003">
        <ele>755</ele>
        <time>2019-05-15T11:21:01.082Z</time>
      </trkpt>
      <trkpt lat="48.45308" lon="7.11004">
        <ele>756</ele>
        <time>2019-05-15T11:21:02.082Z</time>
      </trkpt>
      <trkpt lat="48.45309" lon="7.11005">
        <ele>757</ele>
        <time>2019-05-15T11:21:03.082Z</time>
      </trkpt>
      <trkpt lat="48.4531" lon="7.11006">
        <ele>758</ele>
        <time>2019-05-15T11:21:04.082Z</time>
      </trkpt>
      <trkpt lat="48.45312" lon="7.11007">
        <ele>758</ele>
        <time>2019-05-15T11:21:05.082Z</time>
      </trkpt>
      <trkpt lat="48.45313" lon="7.11008">
        <ele>758</ele>
        <time>2019-05-15T11:21:06.082Z</time>
      </trkpt>
      <trkpt lat="48.45314" lon="7.11009">
        <ele>758</ele>
        <time>2019-05-15T11:21:07.082Z</time>
      </trkpt>
      <trkpt lat="48.45316" lon="7.1101">
        <ele>758</ele>
        <time>2019-05-15T11:21:08.082Z</time>
      </trkpt>
      <trkpt lat="48.45317" lon="7.11011">
        <ele>758</ele>
        <time>2019-05-15T11:21:09.082Z</time>
      </trkpt>
      <trkpt lat="48.45317" lon="7.11012">
        <ele>758</ele>
        <time>2019-05-15T11:21:10.082Z</time>
      </trkpt>
      <trkpt lat="48.45318" lon="7.11013">
        <ele>759</ele>
        <time>2019-05-15T11:21:11.082Z</time>
      </trkpt>
      <trkpt lat="48.45319" lon="7.11014">
        <ele>758</ele>
        <time>2019-05-15T11:21:12.082Z</time>
      </trkpt>
      <trkpt lat="48.4532" lon="7.11016">
        <ele>759</ele>
        <time>2019-05-15T11:21:13.082Z</time>
      </trkpt>
      <trkpt lat="48.45321" lon="7.11017">
        <ele>759</ele>
        <time>2019-05-15T11:21:14.082Z</time>
      </trkpt>
      <trkpt lat="48.45322" lon="7.11017">
        <ele>759</ele>
        <time>2019-05-15T11:21:15.082Z</time>
      </trkpt>
      <trkpt lat="48.45323" lon="7.11018">
        <ele>759</ele>
        <time>2019-05-15T11:21:16.082Z</time>
      </trkpt>
      <trkpt lat="48.45324" lon="7.11019">
        <ele>759</ele>
        <time>2019-05-15T11:21:17.082Z</time>
      </trkpt>
      <trkpt lat="48.45325" lon="7.11019">
        <ele>759</ele>
        <time>2019-05-15T11:21:18.082Z</time>
      </trkpt>
      <trkpt lat="48.45327" lon="7.1102">
        <ele>759</ele>
        <time>2019-05-15T11:21:19.082Z</time>
      </trkpt>
      <trkpt lat="48.45328" lon="7.11021">
        <ele>759</ele>
        <time>2019-05-15T11:21:20.082Z</time>
      </trkpt>
      <trkpt lat="48.45329" lon="7.11022">
        <ele>760</ele>
        <time>2019-05-15T11:21:21.082Z</time>
      </trkpt>
      <trkpt lat="48.4533" lon="7.11023">
        <ele>760</ele>
        <time>2019-05-15T11:21:22.082Z</time>
      </trkpt>
      <trkpt lat="48.45331" lon="7.11024">
        <ele>760</ele>
        <time>2019-05-15T11:21:23.082Z</time>
      </trkpt>
      <trkpt lat="48.45332" lon="7.11025">
        <ele>760</ele>
        <time>2019-05-15T11:21:24.082Z</time>
      </trkpt>
      <trkpt lat="48.45333" lon="7.11026">
        <ele>760</ele>
        <time>2019-05-15T11:21:25.082Z</time>
      </trkpt>
      <trkpt lat="48.45334" lon="7.11027">
        <ele>760</ele>
        <time>2019-05-15T11:21:26.082Z</time>
      </trkpt>
      <trkpt lat="48.45335" lon="7.11027">
        <ele>760</ele>
        <time>2019-05-15T11:21:27.082Z</time>
      </trkpt>
      <trkpt lat="48.45336" lon="7.11028">
        <ele>760</ele>
        <time>2019-05-15T11:21:28.082Z</time>
      </trkpt>
      <trkpt lat="48.45337" lon="7.11029">
        <ele>761</ele>
        <time>2019-05-15T11:21:29.082Z</time>
      </trkpt>
      <trkpt lat="48.45338" lon="7.1103">
        <ele>761</ele>
        <time>2019-05-15T11:21:30.082Z</time>
      </trkpt>
      <trkpt lat="48.45339" lon="7.11031">
        <ele>761</ele>
        <time>2019-05-15T11:21:31.082Z</time>
      </trkpt>
      <trkpt lat="48.4534" lon="7.11031">
        <ele>760</ele>
        <time>2019-05-15T11:21:32.082Z</time>
      </trkpt>
      <trkpt lat="48.45341" lon="7.11031">
        <ele>761</ele>
        <time>2019-05-15T11:21:33.082Z</time>
      </trkpt>
      <trkpt lat="48.45342" lon="7.11032">
        <ele>761</ele>
        <time>2019-05-15T11:21:34.082Z</time>
      </trkpt>
      <trkpt lat="48.45343" lon="7.11033">
        <ele>761</ele>
        <time>2019-05-15T11:21:35.082Z</time>
      </trkpt>
      <trkpt lat="48.45344" lon="7.11034">
        <ele>761</ele>
        <time>2019-05-15T11:21:36.082Z</time>
      </trkpt>
      <trkpt lat="48.45345" lon="7.11034">
        <ele>761</ele>
        <time>2019-05-15T11:21:37.082Z</time>
      </trkpt>
      <trkpt lat="48.45345" lon="7.11035">
        <ele>762</ele>
        <time>2019-05-15T11:21:38.082Z</time>
      </trkpt>
      <trkpt lat="48.45346" lon="7.11036">
        <ele>762</ele>
        <time>2019-05-15T11:21:39.082Z</time>
      </trkpt>
      <trkpt lat="48.45347" lon="7.11037">
        <ele>762</ele>
        <time>2019-05-15T11:21:40.082Z</time>
      </trkpt>
      <trkpt lat="48.45348" lon="7.11038">
        <ele>761</ele>
        <time>2019-05-15T11:21:41.082Z</time>
      </trkpt>
      <trkpt lat="48.45349" lon="7.11039">
        <ele>762</ele>
        <time>2019-05-15T11:21:42.082Z</time>
      </trkpt>
      <trkpt lat="48.45349" lon="7.1104">
        <ele>762</ele>
        <time>2019-05-15T11:21:43.082Z</time>
      </trkpt>
      <trkpt lat="48.4535" lon="7.1104">
        <ele>762</ele>
        <time>2019-05-15T11:21:44.082Z</time>
      </trkpt>
      <trkpt lat="48.45351" lon="7.11041">
        <ele>762</ele>
        <time>2019-05-15T11:21:45.082Z</time>
      </trkpt>
      <trkpt lat="48.45352" lon="7.11042">
        <ele>762</ele>
        <time>2019-05-15T11:21:46.082Z</time>
      </trkpt>
      <trkpt lat="48.45352" lon="7.11043">
        <ele>762</ele>
        <time>2019-05-15T11:21:47.082Z</time>
      </trkpt>
      <trkpt lat="48.45353" lon="7.11044">
        <ele>762</ele>
        <time>2019-05-15T11:21:48.082Z</time>
      </trkpt>
      <trkpt lat="48.45354" lon="7.11045">
        <ele>762</ele>
        <time>2019-05-15T11:21:49.082Z</time>
      </trkpt>
      <trkpt lat="48.45355" lon="7.11045">
        <ele>762</ele>
        <time>2019-05-15T11:21:50.082Z</time>
      </trkpt>
      <trkpt lat="48.45356" lon="7.11046">
        <ele>762</ele>
        <time>2019-05-15T11:21:51.082Z</time>
      </trkpt>
      <trkpt lat="48.45356" lon="7.11046">
        <ele>761</ele>
        <time>2019-05-15T11:21:52.082Z</time>
      </trkpt>
      <trkpt lat="48.45355" lon="7.11047">
        <ele>761</ele>
        <time>2019-05-15T11:21:53.082Z</time>
      </trkpt>
      <trkpt lat="48.45355" lon="7.11048">
        <ele>762</ele>
        <time>2019-05-15T11:21:54.082Z</time>
      </trkpt>
      <trkpt lat="48.45354" lon="7.11049">
        <ele>762</ele>
        <time>2019-05-15T11:21:55.082Z</time>
      </trkpt>
      <trkpt lat="48.45354" lon="7.1105">
        <ele>762</ele>
        <time>2019-05-15T11:21:56.082Z</time>
      </trkpt>
      <trkpt lat="48.45354" lon="7.1105">
        <ele>762</ele>
        <time>2019-05-15T11:21:57.082Z</time>
      </trkpt>
      <trkpt lat="48.45354" lon="7.11051">
        <ele>762</ele>
        <time>2019-05-15T11:21:58.082Z</time>
      </trkpt>
      <trkpt lat="48.45355" lon="7.11051">
        <ele>761</ele>
        <time>2019-05-15T11:21:59.082Z</time>
      </trkpt>
      <trkpt lat="48.45355" lon="7.11051">
        <ele>762</ele>
        <time>2019-05-15T11:22:00.082Z</time>
      </trkpt>
      <trkpt lat="48.45356" lon="7.11051">
        <ele>761</ele>
        <time>2019-05-15T11:22:01.082Z</time>
      </trkpt>
      <trkpt lat="48.45357" lon="7.11052">
        <ele>762</ele>
        <time>2019-05-15T11:22:02.082Z</time>
      </trkpt>
      <trkpt lat="48.45358" lon="7.11052">
        <ele>763</ele>
        <time>2019-05-15T11:22:03.082Z</time>
      </trkpt>
      <trkpt lat="48.45358" lon="7.11052">
        <ele>763</ele>
        <time>2019-05-15T11:22:04.082Z</time>
      </trkpt>
      <trkpt lat="48.45359" lon="7.11052">
        <ele>763</ele>
        <time>2019-05-15T11:22:05.082Z</time>
      </trkpt>
      <trkpt lat="48.4536" lon="7.11052">
        <ele>763</ele>
        <time>2019-05-15T11:22:06.082Z</time>
      </trkpt>
      <trkpt lat="48.45361" lon="7.11052">
        <ele>763</ele>
        <time>2019-05-15T11:22:07.082Z</time>
      </trkpt>
      <trkpt lat="48.45362" lon="7.11052">
        <ele>762</ele>
        <time>2019-05-15T11:22:08.082Z</time>
      </trkpt>
      <trkpt lat="48.45363" lon="7.11053">
        <ele>762</ele>
        <time>2019-05-15T11:22:09.082Z</time>
      </trkpt>
      <trkpt lat="48.45364" lon="7.11053">
        <ele>762</ele>
        <time>2019-05-15T11:22:10.082Z</time>
      </trkpt>
      <trkpt lat="48.45364" lon="7.11053">
        <ele>761</ele>
        <time>2019-05-15T11:22:11.082Z</time>
      </trkpt>
      <trkpt lat="48.45365" lon="7.11052">
        <ele>760</ele>
        <time>2019-05-15T11:22:12.082Z</time>
      </trkpt>
      <trkpt lat="48.45365" lon="7.11051">
        <ele>759</ele>
        <time>2019-05-15T11:22:13.082Z</time>
      </trkpt>
      <trkpt lat="48.45365" lon="7.1105">
        <ele>759</ele>
        <time>2019-05-15T11:22:14.082Z</time>
      </trkpt>
      <trkpt lat="48.45364" lon="7.1105">
        <ele>759</ele>
        <time>2019-05-15T11:22:15.082Z</time>
      </trkpt>
      <trkpt lat="48.45365" lon="7.11049">
        <ele>759</ele>
        <time>2019-05-15T11:22:16.082Z</time>
      </trkpt>
      <trkpt lat="48.45365" lon="7.11049">
        <ele>759</ele>
        <time>2019-05-15T11:22:17.082Z</time>
      </trkpt>
      <trkpt lat="48.45366" lon="7.11049">
        <ele>759</ele>
        <time>2019-05-15T11:22:18.082Z</time>
      </trkpt>
      <trkpt lat="48.45367" lon="7.11049">
        <ele>758</ele>
        <time>2019-05-15T11:22:19.082Z</time>
      </trkpt>
      <trkpt lat="48.45369" lon="7.11049">
        <ele>758</ele>
        <time>2019-05-15T11:22:20.082Z</time>
      </trkpt>
      <trkpt lat="48.4537" lon="7.11049">
        <ele>758</ele>
        <time>2019-05-15T11:22:21.082Z</time>
      </trkpt>
      <trkpt lat="48.45372" lon="7.1105">
        <ele>757</ele>
        <time>2019-05-15T11:22:22.082Z</time>
      </trkpt>
      <trkpt lat="48.45373" lon="7.1105">
        <ele>758</ele>
        <time>2019-05-15T11:22:23.082Z</time>
      </trkpt>
      <trkpt lat="48.45375" lon="7.11051">
        <ele>758</ele>
        <time>2019-05-15T11:22:24.082Z</time>
      </trkpt>
      <trkpt lat="48.45376" lon="7.11051">
        <ele>758</ele>
        <time>2019-05-15T11:22:25.082Z</time>
      </trkpt>
      <trkpt lat="48.45378" lon="7.11051">
        <ele>758</ele>
        <time>2019-05-15T11:22:26.082Z</time>
      </trkpt>
      <trkpt lat="48.45379" lon="7.11051">
        <ele>758</ele>
        <time>2019-05-15T11:22:27.082Z</time>
      </trkpt>
      <trkpt lat="48.4538" lon="7.11051">
        <ele>759</ele>
        <time>2019-05-15T11:22:28.082Z</time>
      </trkpt>
      <trkpt lat="48.45382" lon="7.1105">
        <ele>759</ele>
        <time>2019-05-15T11:22:29.082Z</time>
      </trkpt>
      <trkpt lat="48.45383" lon="7.1105">
        <ele>760</ele>
        <time>2019-05-15T11:22:30.082Z</time>
      </trkpt>
      <trkpt lat="48.45384" lon="7.1105">
        <ele>759</ele>
        <time>2019-05-15T11:22:31.082Z</time>
      </trkpt>
      <trkpt lat="48.45385" lon="7.1105">
        <ele>760</ele>
        <time>2019-05-15T11:22:32.082Z</time>
      </trkpt>
      <trkpt lat="48.45386" lon="7.1105">
        <ele>760</ele>
        <time>2019-05-15T11:22:33.082Z</time>
      </trkpt>
      <trkpt lat="48.45388" lon="7.1105">
        <ele>760</ele>
        <time>2019-05-15T11:22:34.082Z</time>
      </trkpt>
      <trkpt lat="48.45389" lon="7.1105">
        <ele>761</ele>
        <time>2019-05-15T11:22:35.082Z</time>
      </trkpt>
      <trkpt lat="48.4539" lon="7.1105">
        <ele>760</ele>
        <time>2019-05-15T11:22:36.082Z</time>
      </trkpt>
      <trkpt lat="48.45391" lon="7.11049">
        <ele>761</ele>
        <time>2019-05-15T11:22:37.082Z</time>
      </trkpt>
      <trkpt lat="48.45392" lon="7.11049">
        <ele>761</ele>
        <time>2019-05-15T11:22:38.082Z</time>
      </trkpt>
      <trkpt lat="48.45393" lon="7.11049">
        <ele>761</ele>
        <time>2019-05-15T11:22:39.082Z</time>
      </trkpt>
      <trkpt lat="48.45395" lon="7.11049">
        <ele>761</ele>
        <time>2019-05-15T11:22:40.082Z</time>
      </trkpt>
      <trkpt lat="48.45396" lon="7.11049">
        <ele>760</ele>
        <time>2019-05-15T11:22:41.082Z</time>
      </trkpt>
      <trkpt lat="48.45397" lon="7.11048">
        <ele>759</ele>
        <time>2019-05-15T11:22:42.082Z</time>
      </trkpt>
      <trkpt lat="48.45399" lon="7.11048">
        <ele>759</ele>
        <time>2019-05-15T11:22:43.082Z</time>
      </trkpt>
      <trkpt lat="48.454" lon="7.11047">
        <ele>758</ele>
        <time>2019-05-15T11:22:44.082Z</time>
      </trkpt>
      <trkpt lat="48.45401" lon="7.11046">
        <ele>758</ele>
        <time>2019-05-15T11:22:45.082Z</time>
      </trkpt>
      <trkpt lat="48.45402" lon="7.11045">
        <ele>758</ele>
        <time>2019-05-15T11:22:46.082Z</time>
      </trkpt>
      <trkpt lat="48.45403" lon="7.11045">
        <ele>758</ele>
        <time>2019-05-15T11:22:47.082Z</time>
      </trkpt>
      <trkpt lat="48.45404" lon="7.11045">
        <ele>759</ele>
        <time>2019-05-15T11:22:48.082Z</time>
      </trkpt>
      <trkpt lat="48.45404" lon="7.11044">
        <ele>759</ele>
        <time>2019-05-15T11:22:49.082Z</time>
      </trkpt>
      <trkpt lat="48.45405" lon="7.11044">
        <ele>759</ele>
        <time>2019-05-15T11:22:50.082Z</time>
      </trkpt>
      <trkpt lat="48.45406" lon="7.11043">
        <ele>759</ele>
        <time>2019-05-15T11:22:51.082Z</time>
      </trkpt>
      <trkpt lat="48.45407" lon="7.11042">
        <ele>759</ele>
        <time>2019-05-15T11:22:52.082Z</time>
      </trkpt>
      <trkpt lat="48.45408" lon="7.11042">
        <ele>759</ele>
        <time>2019-05-15T11:22:53.082Z</time>
      </trkpt>
      <trkpt lat="48.45408" lon="7.11042">
        <ele>759</ele>
        <time>2019-05-15T11:22:54.082Z</time>
      </trkpt>
      <trkpt lat="48.45409" lon="7.11042">
        <ele>759</ele>
        <time>2019-05-15T11:22:55.082Z</time>
      </trkpt>
      <trkpt lat="48.4541" lon="7.11042">
        <ele>760</ele>
        <time>2019-05-15T11:22:56.082Z</time>
      </trkpt>
      <trkpt lat="48.4541" lon="7.11041">
        <ele>760</ele>
        <time>2019-05-15T11:22:57.082Z</time>
      </trkpt>
      <trkpt lat="48.45411" lon="7.1104">
        <ele>760</ele>
        <time>2019-05-15T11:22:58.082Z</time>
      </trkpt>
      <trkpt lat="48.45412" lon="7.11039">
        <ele>760</ele>
        <time>2019-05-15T11:22:59.082Z</time>
      </trkpt>
      <trkpt lat="48.45413" lon="7.11038">
        <ele>760</ele>
        <time>2019-05-15T11:23:00.082Z</time>
      </trkpt>
      <trkpt lat="48.45414" lon="7.11037">
        <ele>760</ele>
        <time>2019-05-15T11:23:01.082Z</time>
      </trkpt>
      <trkpt lat="48.45415" lon="7.11037">
        <ele>760</ele>
        <time>2019-05-15T11:23:02.082Z</time>
      </trkpt>
      <trkpt lat="48.45416" lon="7.11036">
        <ele>760</ele>
        <time>2019-05-15T11:23:03.082Z</time>
      </trkpt>
      <trkpt lat="48.45417" lon="7.11036">
        <ele>759</ele>
        <time>2019-05-15T11:23:04.082Z</time>
      </trkpt>
      <trkpt lat="48.45418" lon="7.11036">
        <ele>759</ele>
        <time>2019-05-15T11:23:05.082Z</time>
      </trkpt>
      <trkpt lat="48.45419" lon="7.11036">
        <ele>758</ele>
        <time>2019-05-15T11:23:06.082Z</time>
      </trkpt>
      <trkpt lat="48.45421" lon="7.11035">
        <ele>757</ele>
        <time>2019-05-15T11:23:07.082Z</time>
      </trkpt>
      <trkpt lat="48.45422" lon="7.11034">
        <ele>758</ele>
        <time>2019-05-15T11:23:08.082Z</time>
      </trkpt>
      <trkpt lat="48.45423" lon="7.11034">
        <ele>758</ele>
        <time>2019-05-15T11:23:09.082Z</time>
      </trkpt>
      <trkpt lat="48.45424" lon="7.11034">
        <ele>758</ele>
        <time>2019-05-15T11:23:10.082Z</time>
      </trkpt>
      <trkpt lat="48.45425" lon="7.11034">
        <ele>758</ele>
        <time>2019-05-15T11:23:11.082Z</time>
      </trkpt>
      <trkpt lat="48.45426" lon="7.11033">
        <ele>758</ele>
        <time>2019-05-15T11:23:12.082Z</time>
      </trkpt>
      <trkpt lat="48.45427" lon="7.11033">
        <ele>758</ele>
        <time>2019-05-15T11:23:13.082Z</time>
      </trkpt>
      <trkpt lat="48.45428" lon="7.11033">
        <ele>758</ele>
        <time>2019-05-15T11:23:14.082Z</time>
      </trkpt>
      <trkpt lat="48.45429" lon="7.11032">
        <ele>758</ele>
        <time>2019-05-15T11:23:15.082Z</time>
      </trkpt>
      <trkpt lat="48.4543" lon="7.11032">
        <ele>758</ele>
        <time>2019-05-15T11:23:16.082Z</time>
      </trkpt>
      <trkpt lat="48.45431" lon="7.11031">
        <ele>758</ele>
        <time>2019-05-15T11:23:17.082Z</time>
      </trkpt>
      <trkpt lat="48.45432" lon="7.11031">
        <ele>758</ele>
        <time>2019-05-15T11:23:18.082Z</time>
      </trkpt>
      <trkpt lat="48.45433" lon="7.11031">
        <ele>758</ele>
        <time>2019-05-15T11:23:19.082Z</time>
      </trkpt>
      <trkpt lat="48.45434" lon="7.1103">
        <ele>758</ele>
        <time>2019-05-15T11:23:20.082Z</time>
      </trkpt>
      <trkpt lat="48.45435" lon="7.1103">
        <ele>759</ele>
        <time>2019-05-15T11:23:21.082Z</time>
      </trkpt>
      <trkpt lat="48.45436" lon="7.1103">
        <ele>759</ele>
        <time>2019-05-15T11:23:22.082Z</time>
      </trkpt>
      <trkpt lat="48.45437" lon="7.1103">
        <ele>759</ele>
        <time>2019-05-15T11:23:23.082Z</time>
      </trkpt>
      <trkpt lat="48.45439" lon="7.1103">
        <ele>758</ele>
        <time>2019-05-15T11:23:24.082Z</time>
      </trkpt>
      <trkpt lat="48.45441" lon="7.11031">
        <ele>758</ele>
        <time>2019-05-15T11:23:25.082Z</time>
      </trkpt>
      <trkpt lat="48.45443" lon="7.11031">
        <ele>757</ele>
        <time>2019-05-15T11:23:26.082Z</time>
      </trkpt>
      <trkpt lat="48.45445" lon="7.11031">
        <ele>756</ele>
        <time>2019-05-15T11:23:27.082Z</time>
      </trkpt>
      <trkpt lat="48.45447" lon="7.11032">
        <ele>755</ele>
        <time>2019-05-15T11:23:28.082Z</time>
      </trkpt>
      <trkpt lat="48.45448" lon="7.11033">
        <ele>755</ele>
        <time>2019-05-15T11:23:29.082Z</time>
      </trkpt>
      <trkpt lat="48.4545" lon="7.11033">
        <ele>754</ele>
        <time>2019-05-15T11:23:30.082Z</time>
      </trkpt>
      <trkpt lat="48.45452" lon="7.11034">
        <ele>754</ele>
        <time>2019-05-15T11:23:31.082Z</time>
      </trkpt>
      <trkpt lat="48.45453" lon="7.11035">
        <ele>754</ele>
        <time>2019-05-15T11:23:32.082Z</time>
      </trkpt>
      <trkpt lat="48.45455" lon="7.11036">
        <ele>754</ele>
        <time>2019-05-15T11:23:33.082Z</time>
      </trkpt>
      <trkpt lat="48.45456" lon="7.11036">
        <ele>754</ele>
        <time>2019-05-15T11:23:34.082Z</time>
      </trkpt>
      <trkpt lat="48.45458" lon="7.11037">
        <ele>754</ele>
        <time>2019-05-15T11:23:35.082Z</time>
      </trkpt>
      <trkpt lat="48.45459" lon="7.11038">
        <ele>754</ele>
        <time>2019-05-15T11:23:36.082Z</time>
      </trkpt>
      <trkpt lat="48.45459" lon="7.11038">
        <ele>753</ele>
        <time>2019-05-15T11:23:37.082Z</time>
      </trkpt>
      <trkpt lat="48.4546" lon="7.11039">
        <ele>753</ele>
        <time>2019-05-15T11:23:38.082Z</time>
      </trkpt>
      <trkpt lat="48.45461" lon="7.1104">
        <ele>752</ele>
        <time>2019-05-15T11:23:39.082Z</time>
      </trkpt>
      <trkpt lat="48.45461" lon="7.11041">
        <ele>751</ele>
        <time>2019-05-15T11:23:40.082Z</time>
      </trkpt>
      <trkpt lat="48.45462" lon="7.11043">
        <ele>751</ele>
        <time>2019-05-15T11:23:41.082Z</time>
      </trkpt>
      <trkpt lat="48.45463" lon="7.11044">
        <ele>750</ele>
        <time>2019-05-15T11:23:42.082Z</time>
      </trkpt>
      <trkpt lat="48.45464" lon="7.11045">
        <ele>749</ele>
        <time>2019-05-15T11:23:43.082Z</time>
      </trkpt>
      <trkpt lat="48.45465" lon="7.11046">
        <ele>749</ele>
        <time>2019-05-15T11:23:44.082Z</time>
      </trkpt>
      <trkpt lat="48.45465" lon="7.11047">
        <ele>749</ele>
        <time>2019-05-15T11:23:45.082Z</time>
      </trkpt>
      <trkpt lat="48.45466" lon="7.11049">
        <ele>749</ele>
        <time>2019-05-15T11:23:46.082Z</time>
      </trkpt>
      <trkpt lat="48.45467" lon="7.1105">
        <ele>749</ele>
        <time>2019-05-15T11:23:47.082Z</time>
      </trkpt>
      <trkpt lat="48.45467" lon="7.11052">
        <ele>749</ele>
        <time>2019-05-15T11:23:48.082Z</time>
      </trkpt>
      <trkpt lat="48.45468" lon="7.11054">
        <ele>749</ele>
        <time>2019-05-15T11:23:49.082Z</time>
      </trkpt>
      <trkpt lat="48.45468" lon="7.11055">
        <ele>748</ele>
        <time>2019-05-15T11:23:50.082Z</time>
      </trkpt>
      <trkpt lat="48.45468" lon="7.11057">
        <ele>747</ele>
        <time>2019-05-15T11:23:51.082Z</time>
      </trkpt>
      <trkpt lat="48.45469" lon="7.11058">
        <ele>747</ele>
        <time>2019-05-15T11:23:52.082Z</time>
      </trkpt>
      <trkpt lat="48.45469" lon="7.1106">
        <ele>746</ele>
        <time>2019-05-15T11:23:53.082Z</time>
      </trkpt>
      <trkpt lat="48.45469" lon="7.11061">
        <ele>746</ele>
        <time>2019-05-15T11:23:54.082Z</time>
      </trkpt>
      <trkpt lat="48.4547" lon="7.11063">
        <ele>745</ele>
        <time>2019-05-15T11:23:55.082Z</time>
      </trkpt>
      <trkpt lat="48.4547" lon="7.11064">
        <ele>745</ele>
        <time>2019-05-15T11:23:56.082Z</time>
      </trkpt>
      <trkpt lat="48.45471" lon="7.11066">
        <ele>744</ele>
        <time>2019-05-15T11:23:57.082Z</time>
      </trkpt>
      <trkpt lat="48.45471" lon="7.11067">
        <ele>744</ele>
        <time>2019-05-15T11:23:58.082Z</time>
      </trkpt>
      <trkpt lat="48.45471" lon="7.11069">
        <ele>744</ele>
        <time>2019-05-15T11:23:59.082Z</time>
      </trkpt>
      <trkpt lat="48.45472" lon="7.1107">
        <ele>744</ele>
        <time>2019-05-15T11:24:00.082Z</time>
      </trkpt>
      <trkpt lat="48.45473" lon="7.11072">
        <ele>744</ele>
        <time>2019-05-15T11:24:01.082Z</time>
      </trkpt>
      <trkpt lat="48.45474" lon="7.11074">
        <ele>744</ele>
        <time>2019-05-15T11:24:02.082Z</time>
      </trkpt>
      <trkpt lat="48.45474" lon="7.11075">
        <ele>743</ele>
        <time>2019-05-15T11:24:03.082Z</time>
      </trkpt>
      <trkpt lat="48.45475" lon="7.11077">
        <ele>743</ele>
        <time>2019-05-15T11:24:04.082Z</time>
      </trkpt>
      <trkpt lat="48.45476" lon="7.11078">
        <ele>743</ele>
        <time>2019-05-15T11:24:05.082Z</time>
      </trkpt>
      <trkpt lat="48.45476" lon="7.1108">
        <ele>744</ele>
        <time>2019-05-15T11:24:06.082Z</time>
      </trkpt>
      <trkpt lat="48.45477" lon="7.11081">
        <ele>744</ele>
        <time>2019-05-15T11:24:07.082Z</time>
      </trkpt>
      <trkpt lat="48.45477" lon="7.11083">
        <ele>743</ele>
        <time>2019-05-15T11:24:08.082Z</time>
      </trkpt>
      <trkpt lat="48.45478" lon="7.11084">
        <ele>743</ele>
        <time>2019-05-15T11:24:09.082Z</time>
      </trkpt>
      <trkpt lat="48.45479" lon="7.11086">
        <ele>743</ele>
        <time>2019-05-15T11:24:10.082Z</time>
      </trkpt>
      <trkpt lat="48.45479" lon="7.11087">
        <ele>743</ele>
        <time>2019-05-15T11:24:11.082Z</time>
      </trkpt>
      <trkpt lat="48.4548" lon="7.11089">
        <ele>743</ele>
        <time>2019-05-15T11:24:12.082Z</time>
      </trkpt>
      <trkpt lat="48.4548" lon="7.1109">
        <ele>743</ele>
        <time>2019-05-15T11:24:13.082Z</time>
      </trkpt>
      <trkpt lat="48.45481" lon="7.11092">
        <ele>743</ele>
        <time>2019-05-15T11:24:14.082Z</time>
      </trkpt>
      <trkpt lat="48.45482" lon="7.11094">
        <ele>743</ele>
        <time>2019-05-15T11:24:15.082Z</time>
      </trkpt>
      <trkpt lat="48.45482" lon="7.11095">
        <ele>743</ele>
        <time>2019-05-15T11:24:16.082Z</time>
      </trkpt>
      <trkpt lat="48.45483" lon="7.11096">
        <ele>743</ele>
        <time>2019-05-15T11:24:17.082Z</time>
      </trkpt>
      <trkpt lat="48.45484" lon="7.11097">
        <ele>743</ele>
        <time>2019-05-15T11:24:18.082Z</time>
      </trkpt>
      <trkpt lat="48.45484" lon="7.11099">
        <ele>743</ele>
        <time>2019-05-15T11:24:19.082Z</time>
      </trkpt>
      <trkpt lat="48.45485" lon="7.111">
        <ele>743</ele>
        <time>2019-05-15T11:24:20.082Z</time>
      </trkpt>
      <trkpt lat="48.45486" lon="7.11102">
        <ele>743</ele>
        <time>2019-05-15T11:24:21.082Z</time>
      </trkpt>
      <trkpt lat="48.45487" lon="7.11103">
        <ele>743</ele>
        <time>2019-05-15T11:24:22.082Z</time>
      </trkpt>
      <trkpt lat="48.45488" lon="7.11104">
        <ele>743</ele>
        <time>2019-05-15T11:24:23.082Z</time>
      </trkpt>
      <trkpt lat="48.45489" lon="7.11106">
        <ele>743</ele>
        <time>2019-05-15T11:24:24.082Z</time>
      </trkpt>
      <trkpt lat="48.4549" lon="7.11107">
        <ele>743</ele>
        <time>2019-05-15T11:24:25.082Z</time>
      </trkpt>
      <trkpt lat="48.45491" lon="7.11109">
        <ele>743</ele>
        <time>2019-05-15T11:24:26.082Z</time>
      </trkpt>
      <trkpt lat="48.45491" lon="7.1111">
        <ele>743</ele>
        <time>2019-05-15T11:24:27.082Z</time>
      </trkpt>
      <trkpt lat="48.45492" lon="7.11111">
        <ele>742</ele>
        <time>2019-05-15T11:24:28.082Z</time>
      </trkpt>
      <trkpt lat="48.45493" lon="7.11113">
        <ele>743</ele>
        <time>2019-05-15T11:24:29.082Z</time>
      </trkpt>
      <trkpt lat="48.45493" lon="7.11114">
        <ele>742</ele>
        <time>2019-05-15T11:24:30.082Z</time>
      </trkpt>
      <trkpt lat="48.45493" lon="7.11116">
        <ele>742</ele>
        <time>2019-05-15T11:24:31.082Z</time>
      </trkpt>
      <trkpt lat="48.45494" lon="7.11117">
        <ele>742</ele>
        <time>2019-05-15T11:24:32.082Z</time>
      </trkpt>
      <trkpt lat="48.45494" lon="7.11118">
        <ele>742</ele>
        <time>2019-05-15T11:24:33.082Z</time>
      </trkpt>
      <trkpt lat="48.45494" lon="7.1112">
        <ele>742</ele>
        <time>2019-05-15T11:24:34.082Z</time>
      </trkpt>
      <trkpt lat="48.45495" lon="7.11121">
        <ele>743</ele>
        <time>2019-05-15T11:24:35.082Z</time>
      </trkpt>
      <trkpt lat="48.45495" lon="7.11123">
        <ele>743</ele>
        <time>2019-05-15T11:24:36.082Z</time>
      </trkpt>
      <trkpt lat="48.45496" lon="7.11124">
        <ele>743</ele>
        <time>2019-05-15T11:24:37.082Z</time>
      </trkpt>
      <trkpt lat="48.45497" lon="7.11125">
        <ele>743</ele>
        <time>2019-05-15T11:24:38.082Z</time>
      </trkpt>
      <trkpt lat="48.45497" lon="7.11127">
        <ele>743</ele>
        <time>2019-05-15T11:24:39.082Z</time>
      </trkpt>
      <trkpt lat="48.45498" lon="7.11128">
        <ele>743</ele>
        <time>2019-05-15T11:24:40.082Z</time>
      </trkpt>
      <trkpt lat="48.45498" lon="7.1113">
        <ele>743</ele>
        <time>2019-05-15T11:24:41.082Z</time>
      </trkpt>
      <trkpt lat="48.45498" lon="7.11131">
        <ele>743</ele>
        <time>2019-05-15T11:24:42.082Z</time>
      </trkpt>
      <trkpt lat="48.45498" lon="7.11133">
        <ele>743</ele>
        <time>2019-05-15T11:24:43.082Z</time>
      </trkpt>
      <trkpt lat="48.45499" lon="7.11134">
        <ele>742</ele>
        <time>2019-05-15T11:24:44.082Z</time>
      </trkpt>
      <trkpt lat="48.45499" lon="7.11135">
        <ele>742</ele>
        <time>2019-05-15T11:24:45.082Z</time>
      </trkpt>
      <trkpt lat="48.45499" lon="7.11136">
        <ele>742</ele>
        <time>2019-05-15T11:24:46.082Z</time>
      </trkpt>
      <trkpt lat="48.455" lon="7.11137">
        <ele>742</ele>
        <time>2019-05-15T11:24:47.082Z</time>
      </trkpt>
      <trkpt lat="48.455" lon="7.11138">
        <ele>742</ele>
        <time>2019-05-15T11:24:48.082Z</time>
      </trkpt>
      <trkpt lat="48.455" lon="7.11139">
        <ele>742</ele>
        <time>2019-05-15T11:24:49.082Z</time>
      </trkpt>
      <trkpt lat="48.455" lon="7.1114">
        <ele>742</ele>
        <time>2019-05-15T11:24:50.082Z</time>
      </trkpt>
      <trkpt lat="48.455" lon="7.11142">
        <ele>742</ele>
        <time>2019-05-15T11:24:51.082Z</time>
      </trkpt>
      <trkpt lat="48.45501" lon="7.11142">
        <ele>742</ele>
        <time>2019-05-15T11:24:52.082Z</time>
      </trkpt>
      <trkpt lat="48.45501" lon="7.11143">
        <ele>742</ele>
        <time>2019-05-15T11:24:53.082Z</time>
      </trkpt>
      <trkpt lat="48.45501" lon="7.11143">
        <ele>742</ele>
        <time>2019-05-15T11:24:54.082Z</time>
      </trkpt>
      <trkpt lat="48.45501" lon="7.11143">
        <ele>743</ele>
        <time>2019-05-15T11:24:55.082Z</time>
      </trkpt>
      <trkpt lat="48.45501" lon="7.11143">
        <ele>743</ele>
        <time>2019-05-15T11:24:56.082Z</time>
      </trkpt>
      <trkpt lat="48.45501" lon="7.11144">
        <ele>744</ele>
        <time>2019-05-15T11:24:57.082Z</time>
      </trkpt>
      <trkpt lat="48.45502" lon="7.11144">
        <ele>743</ele>
        <time>2019-05-15T11:24:58.082Z</time>
      </trkpt>
      <trkpt lat="48.45502" lon="7.11144">
        <ele>744</ele>
        <time>2019-05-15T11:24:59.082Z</time>
      </trkpt>
      <trkpt lat="48.45502" lon="7.11144">
        <ele>744</ele>
        <time>2019-05-15T11:25:00.082Z</time>
      </trkpt>
      <trkpt lat="48.45502" lon="7.11144">
        <ele>744</ele>
        <time>2019-05-15T11:25:01.082Z</time>
      </trkpt>
      <trkpt lat="48.45502" lon="7.11144">
        <ele>744</ele>
        <time>2019-05-15T11:25:02.082Z</time>
      </trkpt>
      <trkpt lat="48.45502" lon="7.11144">
        <ele>743</ele>
        <time>2019-05-15T11:25:03.082Z</time>
      </trkpt>
      <trkpt lat="48.45501" lon="7.11144">
        <ele>743</ele>
        <time>2019-05-15T11:25:04.082Z</time>
      </trkpt>
      <trkpt lat="48.45502" lon="7.11144">
        <ele>743</ele>
        <time>2019-05-15T11:25:05.082Z</time>
      </trkpt>
      <trkpt lat="48.45502" lon="7.11144">
        <ele>743</ele>
        <time>2019-05-15T11:25:06.082Z</time>
      </trkpt>
      <trkpt lat="48.45502" lon="7.11144">
        <ele>742</ele>
        <time>2019-05-15T11:25:07.082Z</time>
      </trkpt>
      <trkpt lat="48.45501" lon="7.11144">
        <ele>742</ele>
        <time>2019-05-15T11:25:08.082Z</time>
      </trkpt>
      <trkpt lat="48.45502" lon="7.11144">
        <ele>742</ele>
        <time>2019-05-15T11:25:09.082Z</time>
      </trkpt>
      <trkpt lat="48.45502" lon="7.11144">
        <ele>742</ele>
        <time>2019-05-15T11:25:10.082Z</time>
      </trkpt>
      <trkpt lat="48.45502" lon="7.11144">
        <ele>742</ele>
        <time>2019-05-15T11:25:11.082Z</time>
      </trkpt>
      <trkpt lat="48.45503" lon="7.11144">
        <ele>742</ele>
        <time>2019-05-15T11:25:12.082Z</time>
      </trkpt>
      <trkpt lat="48.45503" lon="7.11144">
        <ele>742</ele>
        <time>2019-05-15T11:25:13.082Z</time>
      </trkpt>
      <trkpt lat="48.45503" lon="7.11144">
        <ele>742</ele>
        <time>2019-05-15T11:25:14.082Z</time>
      </trkpt>
      <trkpt lat="48.45503" lon="7.11144">
        <ele>742</ele>
        <time>2019-05-15T11:25:15.082Z</time>
      </trkpt>
      <trkpt lat="48.45503" lon="7.11144">
        <ele>742</ele>
        <time>2019-05-15T11:25:16.082Z</time>
      </trkpt>
      <trkpt lat="48.45504" lon="7.11144">
        <ele>742</ele>
        <time>2019-05-15T11:25:17.082Z</time>
      </trkpt>
      <trkpt lat="48.45504" lon="7.11144">
        <ele>742</ele>
        <time>2019-05-15T11:25:18.082Z</time>
      </trkpt>
      <trkpt lat="48.45504" lon="7.11144">
        <ele>743</ele>
        <time>2019-05-15T11:25:19.082Z</time>
      </trkpt>
      <trkpt lat="48.45504" lon="7.11144">
        <ele>743</ele>
        <time>2019-05-15T11:25:20.082Z</time>
      </trkpt>
      <trkpt lat="48.45505" lon="7.11144">
        <ele>742</ele>
        <time>2019-05-15T11:25:21.082Z</time>
      </trkpt>
      <trkpt lat="48.45505" lon="7.11144">
        <ele>742</ele>
        <time>2019-05-15T11:25:22.082Z</time>
      </trkpt>
      <trkpt lat="48.45505" lon="7.11144">
        <ele>742</ele>
        <time>2019-05-15T11:25:23.082Z</time>
      </trkpt>
      <trkpt lat="48.45505" lon="7.11144">
        <ele>743</ele>
        <time>2019-05-15T11:25:24.082Z</time>
      </trkpt>
      <trkpt lat="48.45505" lon="7.11144">
        <ele>743</ele>
        <time>2019-05-15T11:25:25.082Z</time>
      </trkpt>
      <trkpt lat="48.45505" lon="7.11144">
        <ele>743</ele>
        <time>2019-05-15T11:25:26.082Z</time>
      </trkpt>
      <trkpt lat="48.45505" lon="7.11144">
        <ele>743</ele>
        <time>2019-05-15T11:25:27.082Z</time>
      </trkpt>
      <trkpt lat="48.45505" lon="7.11144">
        <ele>743</ele>
        <time>2019-05-15T11:25:28.082Z</time>
      </trkpt>
      <trkpt lat="48.45505" lon="7.11145">
        <ele>743</ele>
        <time>2019-05-15T11:25:29.082Z</time>
      </trkpt>
      <trkpt lat="48.45505" lon="7.11145">
        <ele>743</ele>
        <time>2019-05-15T11:25:30.082Z</time>
      </trkpt>
      <trkpt lat="48.45505" lon="7.11145">
        <ele>743</ele>
        <time>2019-05-15T11:25:31.082Z</time>
      </trkpt>
      <trkpt lat="48.45505" lon="7.11145">
        <ele>743</ele>
        <time>2019-05-15T11:25:32.082Z</time>
      </trkpt>
      <trkpt lat="48.45505" lon="7.11145">
        <ele>743</ele>
        <time>2019-05-15T11:25:33.082Z</time>
      </trkpt>
      <trkpt lat="48.45504" lon="7.11145">
        <ele>743</ele>
        <time>2019-05-15T11:25:34.082Z</time>
      </trkpt>
      <trkpt lat="48.45504" lon="7.11145">
        <ele>744</ele>
        <time>2019-05-15T11:25:35.082Z</time>
      </trkpt>
      <trkpt lat="48.45504" lon="7.11144">
        <ele>744</ele>
        <time>2019-05-15T11:25:36.082Z</time>
      </trkpt>
      <trkpt lat="48.45505" lon="7.11144">
        <ele>744</ele>
        <time>2019-05-15T11:25:37.082Z</time>
      </trkpt>
      <trkpt lat="48.45505" lon="7.11144">
        <ele>744</ele>
        <time>2019-05-15T11:25:38.082Z</time>
      </trkpt>
      <trkpt lat="48.45505" lon="7.11144">
        <ele>744</ele>
        <time>2019-05-15T11:25:39.082Z</time>
      </trkpt>
      <trkpt lat="48.45505" lon="7.11144">
        <ele>744</ele>
        <time>2019-05-15T11:25:40.082Z</time>
      </trkpt>
      <trkpt lat="48.45505" lon="7.11144">
        <ele>744</ele>
        <time>2019-05-15T11:25:41.082Z</time>
      </trkpt>
      <trkpt lat="48.45505" lon="7.11144">
        <ele>744</ele>
        <time>2019-05-15T11:25:42.082Z</time>
      </trkpt>
      <trkpt lat="48.45505" lon="7.11144">
        <ele>744</ele>
        <time>2019-05-15T11:25:43.082Z</time>
      </trkpt>
      <trkpt lat="48.45505" lon="7.11144">
        <ele>743</ele>
        <time>2019-05-15T11:25:44.082Z</time>
      </trkpt>
      <trkpt lat="48.45504" lon="7.11144">
        <ele>743</ele>
        <time>2019-05-15T11:25:45.082Z</time>
      </trkpt>
      <trkpt lat="48.45504" lon="7.11144">
        <ele>743</ele>
        <time>2019-05-15T11:25:46.082Z</time>
      </trkpt>
      <trkpt lat="48.45504" lon="7.11144">
        <ele>743</ele>
        <time>2019-05-15T11:25:47.082Z</time>
      </trkpt>
      <trkpt lat="48.45504" lon="7.11144">
        <ele>743</ele>
        <time>2019-05-15T11:25:48.082Z</time>
      </trkpt>
      <trkpt lat="48.45503" lon="7.11144">
        <ele>743</ele>
        <time>2019-05-15T11:25:49.082Z</time>
      </trkpt>
      <trkpt lat="48.45503" lon="7.11144">
        <ele>743</ele>
        <time>2019-05-15T11:25:50.082Z</time>
      </trkpt>
      <trkpt lat="48.45503" lon="7.11144">
        <ele>742</ele>
        <time>2019-05-15T11:25:51.082Z</time>
      </trkpt>
      <trkpt lat="48.45503" lon="7.11144">
        <ele>742</ele>
        <time>2019-05-15T11:25:52.082Z</time>
      </trkpt>
      <trkpt lat="48.45503" lon="7.11144">
        <ele>742</ele>
        <time>2019-05-15T11:25:53.082Z</time>
      </trkpt>
      <trkpt lat="48.45502" lon="7.11144">
        <ele>742</ele>
        <time>2019-05-15T11:25:54.082Z</time>
      </trkpt>
      <trkpt lat="48.45502" lon="7.11144">
        <ele>742</ele>
        <time>2019-05-15T11:25:55.082Z</time>
      </trkpt>
      <trkpt lat="48.45502" lon="7.11144">
        <ele>742</ele>
        <time>2019-05-15T11:25:56.082Z</time>
      </trkpt>
      <trkpt lat="48.45502" lon="7.11144">
        <ele>742</ele>
        <time>2019-05-15T11:25:57.082Z</time>
      </trkpt>
      <trkpt lat="48.45502" lon="7.11144">
        <ele>742</ele>
        <time>2019-05-15T11:25:58.082Z</time>
      </trkpt>
      <trkpt lat="48.45502" lon="7.11144">
        <ele>742</ele>
        <time>2019-05-15T11:25:59.082Z</time>
      </trkpt>
      <trkpt lat="48.45502" lon="7.11144">
        <ele>742</ele>
        <time>2019-05-15T11:26:00.082Z</time>
      </trkpt>
      <trkpt lat="48.45502" lon="7.11145">
        <ele>742</ele>
        <time>2019-05-15T11:26:01.082Z</time>
      </trkpt>
      <trkpt lat="48.45502" lon="7.11146">
        <ele>742</ele>
        <time>2019-05-15T11:26:02.082Z</time>
      </trkpt>
      <trkpt lat="48.45502" lon="7.11147">
        <ele>742</ele>
        <time>2019-05-15T11:26:03.082Z</time>
      </trkpt>
      <trkpt lat="48.45502" lon="7.11148">
        <ele>742</ele>
        <time>2019-05-15T11:26:04.082Z</time>
      </trkpt>
      <trkpt lat="48.45502" lon="7.11149">
        <ele>742</ele>
        <time>2019-05-15T11:26:05.082Z</time>
      </trkpt>
      <trkpt lat="48.45503" lon="7.11151">
        <ele>741</ele>
        <time>2019-05-15T11:26:06.082Z</time>
      </trkpt>
      <trkpt lat="48.45503" lon="7.11152">
        <ele>741</ele>
        <time>2019-05-15T11:26:07.082Z</time>
      </trkpt>
      <trkpt lat="48.45503" lon="7.11153">
        <ele>741</ele>
        <time>2019-05-15T11:26:08.082Z</time>
      </trkpt>
      <trkpt lat="48.45503" lon="7.11154">
        <ele>741</ele>
        <time>2019-05-15T11:26:09.082Z</time>
      </trkpt>
      <trkpt lat="48.45504" lon="7.11156">
        <ele>741</ele>
        <time>2019-05-15T11:26:10.082Z</time>
      </trkpt>
      <trkpt lat="48.45505" lon="7.11157">
        <ele>741</ele>
        <time>2019-05-15T11:26:11.082Z</time>
      </trkpt>
      <trkpt lat="48.45505" lon="7.11158">
        <ele>741</ele>
        <time>2019-05-15T11:26:12.082Z</time>
      </trkpt>
      <trkpt lat="48.45506" lon="7.1116">
        <ele>740</ele>
        <time>2019-05-15T11:26:13.082Z</time>
      </trkpt>
      <trkpt lat="48.45507" lon="7.11161">
        <ele>740</ele>
        <time>2019-05-15T11:26:14.082Z</time>
      </trkpt>
      <trkpt lat="48.45507" lon="7.11162">
        <ele>740</ele>
        <time>2019-05-15T11:26:15.082Z</time>
      </trkpt>
      <trkpt lat="48.45508" lon="7.11163">
        <ele>739</ele>
        <time>2019-05-15T11:26:16.082Z</time>
      </trkpt>
      <trkpt lat="48.45508" lon="7.11164">
        <ele>739</ele>
        <time>2019-05-15T11:26:17.082Z</time>
      </trkpt>
      <trkpt lat="48.45508" lon="7.11165">
        <ele>739</ele>
        <time>2019-05-15T11:26:18.082Z</time>
      </trkpt>
      <trkpt lat="48.45509" lon="7.11166">
        <ele>739</ele>
        <time>2019-05-15T11:26:19.082Z</time>
      </trkpt>
      <trkpt lat="48.4551" lon="7.11167">
        <ele>739</ele>
        <time>2019-05-15T11:26:20.082Z</time>
      </trkpt>
      <trkpt lat="48.4551" lon="7.11168">
        <ele>738</ele>
        <time>2019-05-15T11:26:21.082Z</time>
      </trkpt>
      <trkpt lat="48.45511" lon="7.11169">
        <ele>738</ele>
        <time>2019-05-15T11:26:22.082Z</time>
      </trkpt>
      <trkpt lat="48.45512" lon="7.1117">
        <ele>738</ele>
        <time>2019-05-15T11:26:23.082Z</time>
      </trkpt>
      <trkpt lat="48.45512" lon="7.1117">
        <ele>738</ele>
        <time>2019-05-15T11:26:24.082Z</time>
      </trkpt>
      <trkpt lat="48.45513" lon="7.11171">
        <ele>738</ele>
        <time>2019-05-15T11:26:25.082Z</time>
      </trkpt>
      <trkpt lat="48.45514" lon="7.11172">
        <ele>738</ele>
        <time>2019-05-15T11:26:26.082Z</time>
      </trkpt>
      <trkpt lat="48.45515" lon="7.11172">
        <ele>738</ele>
        <time>2019-05-15T11:26:27.082Z</time>
      </trkpt>
      <trkpt lat="48.45515" lon="7.11173">
        <ele>738</ele>
        <time>2019-05-15T11:26:28.082Z</time>
      </trkpt>
      <trkpt lat="48.45516" lon="7.11174">
        <ele>737</ele>
        <time>2019-05-15T11:26:29.082Z</time>
      </trkpt>
      <trkpt lat="48.45517" lon="7.11175">
        <ele>737</ele>
        <time>2019-05-15T11:26:30.082Z</time>
      </trkpt>
      <trkpt lat="48.45517" lon="7.11177">
        <ele>736</ele>
        <time>2019-05-15T11:26:31.082Z</time>
      </trkpt>
      <trkpt lat="48.45517" lon="7.11178">
        <ele>736</ele>
        <time>2019-05-15T11:26:32.082Z</time>
      </trkpt>
      <trkpt lat="48.45518" lon="7.11179">
        <ele>737</ele>
        <time>2019-05-15T11:26:33.082Z</time>
      </trkpt>
      <trkpt lat="48.45518" lon="7.11181">
        <ele>737</ele>
        <time>2019-05-15T11:26:34.082Z</time>
      </trkpt>
      <trkpt lat="48.45519" lon="7.11182">
        <ele>737</ele>
        <time>2019-05-15T11:26:35.082Z</time>
      </trkpt>
      <trkpt lat="48.4552" lon="7.11183">
        <ele>738</ele>
        <time>2019-05-15T11:26:36.082Z</time>
      </trkpt>
      <trkpt lat="48.4552" lon="7.11184">
        <ele>737</ele>
        <time>2019-05-15T11:26:37.082Z</time>
      </trkpt>
      <trkpt lat="48.45521" lon="7.11185">
        <ele>737</ele>
        <time>2019-05-15T11:26:38.082Z</time>
      </trkpt>
      <trkpt lat="48.45522" lon="7.11186">
        <ele>737</ele>
        <time>2019-05-15T11:26:39.082Z</time>
      </trkpt>
      <trkpt lat="48.45522" lon="7.11187">
        <ele>737</ele>
        <time>2019-05-15T11:26:40.082Z</time>
      </trkpt>
      <trkpt lat="48.45523" lon="7.11187">
        <ele>738</ele>
        <time>2019-05-15T11:26:41.082Z</time>
      </trkpt>
      <trkpt lat="48.45523" lon="7.11188">
        <ele>737</ele>
        <time>2019-05-15T11:26:42.082Z</time>
      </trkpt>
      <trkpt lat="48.45524" lon="7.11189">
        <ele>738</ele>
        <time>2019-05-15T11:26:43.082Z</time>
      </trkpt>
      <trkpt lat="48.45525" lon="7.11191">
        <ele>738</ele>
        <time>2019-05-15T11:26:44.082Z</time>
      </trkpt>
      <trkpt lat="48.45525" lon="7.11192">
        <ele>738</ele>
        <time>2019-05-15T11:26:45.082Z</time>
      </trkpt>
      <trkpt lat="48.45525" lon="7.11194">
        <ele>737</ele>
        <time>2019-05-15T11:26:46.082Z</time>
      </trkpt>
      <trkpt lat="48.45526" lon="7.11196">
        <ele>737</ele>
        <time>2019-05-15T11:26:47.082Z</time>
      </trkpt>
      <trkpt lat="48.45526" lon="7.11198">
        <ele>737</ele>
        <time>2019-05-15T11:26:48.082Z</time>
      </trkpt>
      <trkpt lat="48.45527" lon="7.11199">
        <ele>737</ele>
        <time>2019-05-15T11:26:49.082Z</time>
      </trkpt>
      <trkpt lat="48.45527" lon="7.11201">
        <ele>737</ele>
        <time>2019-05-15T11:26:50.082Z</time>
      </trkpt>
      <trkpt lat="48.45527" lon="7.11203">
        <ele>737</ele>
        <time>2019-05-15T11:26:51.082Z</time>
      </trkpt>
      <trkpt lat="48.45528" lon="7.11204">
        <ele>737</ele>
        <time>2019-05-15T11:26:52.082Z</time>
      </trkpt>
      <trkpt lat="48.45528" lon="7.11206">
        <ele>737</ele>
        <time>2019-05-15T11:26:53.082Z</time>
      </trkpt>
      <trkpt lat="48.45528" lon="7.11207">
        <ele>737</ele>
        <time>2019-05-15T11:26:54.082Z</time>
      </trkpt>
      <trkpt lat="48.45528" lon="7.11209">
        <ele>737</ele>
        <time>2019-05-15T11:26:55.082Z</time>
      </trkpt>
      <trkpt lat="48.45528" lon="7.1121">
        <ele>736</ele>
        <time>2019-05-15T11:26:56.082Z</time>
      </trkpt>
      <trkpt lat="48.45528" lon="7.11212">
        <ele>737</ele>
        <time>2019-05-15T11:26:57.082Z</time>
      </trkpt>
      <trkpt lat="48.45528" lon="7.11213">
        <ele>736</ele>
        <time>2019-05-15T11:26:58.082Z</time>
      </trkpt>
      <trkpt lat="48.45528" lon="7.11215">
        <ele>735</ele>
        <time>2019-05-15T11:26:59.082Z</time>
      </trkpt>
      <trkpt lat="48.45528" lon="7.11217">
        <ele>735</ele>
        <time>2019-05-15T11:27:00.082Z</time>
      </trkpt>
      <trkpt lat="48.45528" lon="7.11219">
        <ele>735</ele>
        <time>2019-05-15T11:27:01.082Z</time>
      </trkpt>
      <trkpt lat="48.45528" lon="7.11221">
        <ele>735</ele>
        <time>2019-05-15T11:27:02.082Z</time>
      </trkpt>
      <trkpt lat="48.45528" lon="7.11222">
        <ele>735</ele>
        <time>2019-05-15T11:27:03.082Z</time>
      </trkpt>
      <trkpt lat="48.45529" lon="7.11223">
        <ele>735</ele>
        <time>2019-05-15T11:27:04.082Z</time>
      </trkpt>
      <trkpt lat="48.45529" lon="7.11224">
        <ele>735</ele>
        <time>2019-05-15T11:27:05.082Z</time>
      </trkpt>
      <trkpt lat="48.45529" lon="7.11225">
        <ele>735</ele>
        <time>2019-05-15T11:27:06.082Z</time>
      </trkpt>
      <trkpt lat="48.45529" lon="7.11226">
        <ele>735</ele>
        <time>2019-05-15T11:27:07.082Z</time>
      </trkpt>
      <trkpt lat="48.45529" lon="7.11226">
        <ele>734</ele>
        <time>2019-05-15T11:27:08.082Z</time>
      </trkpt>
      <trkpt lat="48.45529" lon="7.11226">
        <ele>734</ele>
        <time>2019-05-15T11:27:09.082Z</time>
      </trkpt>
      <trkpt lat="48.45529" lon="7.11226">
        <ele>735</ele>
        <time>2019-05-15T11:27:10.082Z</time>
      </trkpt>
      <trkpt lat="48.45528" lon="7.11227">
        <ele>734</ele>
        <time>2019-05-15T11:27:11.082Z</time>
      </trkpt>
      <trkpt lat="48.45528" lon="7.11227">
        <ele>734</ele>
        <time>2019-05-15T11:27:12.082Z</time>
      </trkpt>
      <trkpt lat="48.45528" lon="7.11227">
        <ele>734</ele>
        <time>2019-05-15T11:27:13.082Z</time>
      </trkpt>
      <trkpt lat="48.45528" lon="7.11227">
        <ele>734</ele>
        <time>2019-05-15T11:27:14.082Z</time>
      </trkpt>
      <trkpt lat="48.45528" lon="7.11227">
        <ele>735</ele>
        <time>2019-05-15T11:27:15.082Z</time>
      </trkpt>
      <trkpt lat="48.45529" lon="7.11228">
        <ele>735</ele>
        <time>2019-05-15T11:27:16.082Z</time>
      </trkpt>
      <trkpt lat="48.45529" lon="7.11228">
        <ele>735</ele>
        <time>2019-05-15T11:27:17.082Z</time>
      </trkpt>
      <trkpt lat="48.45529" lon="7.11228">
        <ele>735</ele>
        <time>2019-05-15T11:27:18.082Z</time>
      </trkpt>
      <trkpt lat="48.45529" lon="7.11228">
        <ele>735</ele>
        <time>2019-05-15T11:27:19.082Z</time>
      </trkpt>
      <trkpt lat="48.45529" lon="7.11228">
        <ele>735</ele>
        <time>2019-05-15T11:27:20.082Z</time>
      </trkpt>
      <trkpt lat="48.45529" lon="7.11228">
        <ele>735</ele>
        <time>2019-05-15T11:27:21.082Z</time>
      </trkpt>
      <trkpt lat="48.45529" lon="7.11228">
        <ele>735</ele>
        <time>2019-05-15T11:27:22.082Z</time>
      </trkpt>
      <trkpt lat="48.45529" lon="7.11228">
        <ele>735</ele>
        <time>2019-05-15T11:27:23.082Z</time>
      </trkpt>
      <trkpt lat="48.45529" lon="7.11227">
        <ele>735</ele>
        <time>2019-05-15T11:27:24.082Z</time>
      </trkpt>
      <trkpt lat="48.45529" lon="7.11227">
        <ele>735</ele>
        <time>2019-05-15T11:27:25.082Z</time>
      </trkpt>
      <trkpt lat="48.45529" lon="7.11228">
        <ele>735</ele>
        <time>2019-05-15T11:27:26.082Z</time>
      </trkpt>
      <trkpt lat="48.45529" lon="7.11227">
        <ele>735</ele>
        <time>2019-05-15T11:27:27.082Z</time>
      </trkpt>
      <trkpt lat="48.45529" lon="7.11227">
        <ele>734</ele>
        <time>2019-05-15T11:27:28.082Z</time>
      </trkpt>
      <trkpt lat="48.45529" lon="7.11227">
        <ele>734</ele>
        <time>2019-05-15T11:27:29.082Z</time>
      </trkpt>
      <trkpt lat="48.45529" lon="7.11227">
        <ele>734</ele>
        <time>2019-05-15T11:27:30.082Z</time>
      </trkpt>
      <trkpt lat="48.45528" lon="7.11227">
        <ele>734</ele>
        <time>2019-05-15T11:27:31.082Z</time>
      </trkpt>
      <trkpt lat="48.45528" lon="7.11228">
        <ele>734</ele>
        <time>2019-05-15T11:27:32.082Z</time>
      </trkpt>
      <trkpt lat="48.45528" lon="7.11228">
        <ele>734</ele>
        <time>2019-05-15T11:27:33.082Z</time>
      </trkpt>
      <trkpt lat="48.45528" lon="7.11228">
        <ele>734</ele>
        <time>2019-05-15T11:27:34.082Z</time>
      </trkpt>
      <trkpt lat="48.45528" lon="7.11228">
        <ele>734</ele>
        <time>2019-05-15T11:27:35.082Z</time>
      </trkpt>
      <trkpt lat="48.45527" lon="7.11227">
        <ele>734</ele>
        <time>2019-05-15T11:27:36.082Z</time>
      </trkpt>
      <trkpt lat="48.45527" lon="7.11227">
        <ele>734</ele>
        <time>2019-05-15T11:27:37.082Z</time>
      </trkpt>
      <trkpt lat="48.45527" lon="7.11228">
        <ele>734</ele>
        <time>2019-05-15T11:27:38.082Z</time>
      </trkpt>
      <trkpt lat="48.45527" lon="7.11228">
        <ele>734</ele>
        <time>2019-05-15T11:27:39.082Z</time>
      </trkpt>
      <trkpt lat="48.45528" lon="7.11228">
        <ele>734</ele>
        <time>2019-05-15T11:27:40.082Z</time>
      </trkpt>
      <trkpt lat="48.45528" lon="7.11228">
        <ele>734</ele>
        <time>2019-05-15T11:27:41.082Z</time>
      </trkpt>
      <trkpt lat="48.45528" lon="7.11228">
        <ele>734</ele>
        <time>2019-05-15T11:27:42.082Z</time>
      </trkpt>
      <trkpt lat="48.45528" lon="7.11228">
        <ele>734</ele>
        <time>2019-05-15T11:27:43.082Z</time>
      </trkpt>
      <trkpt lat="48.45528" lon="7.11228">
        <ele>734</ele>
        <time>2019-05-15T11:27:44.082Z</time>
      </trkpt>
      <trkpt lat="48.45528" lon="7.11228">
        <ele>734</ele>
        <time>2019-05-15T11:27:45.082Z</time>
      </trkpt>
      <trkpt lat="48.45528" lon="7.11228">
        <ele>734</ele>
        <time>2019-05-15T11:27:46.082Z</time>
      </trkpt>
      <trkpt lat="48.45528" lon="7.11228">
        <ele>734</ele>
        <time>2019-05-15T11:27:47.082Z</time>
      </trkpt>
      <trkpt lat="48.45528" lon="7.11228">
        <ele>734</ele>
        <time>2019-05-15T11:27:48.082Z</time>
      </trkpt>
      <trkpt lat="48.45528" lon="7.11228">
        <ele>734</ele>
        <time>2019-05-15T11:27:49.082Z</time>
      </trkpt>
      <trkpt lat="48.45528" lon="7.11228">
        <ele>733</ele>
        <time>2019-05-15T11:27:50.082Z</time>
      </trkpt>
      <trkpt lat="48.45528" lon="7.11228">
        <ele>733</ele>
        <time>2019-05-15T11:27:51.082Z</time>
      </trkpt>
      <trkpt lat="48.45528" lon="7.11229">
        <ele>733</ele>
        <time>2019-05-15T11:27:52.082Z</time>
      </trkpt>
      <trkpt lat="48.45528" lon="7.11229">
        <ele>733</ele>
        <time>2019-05-15T11:27:53.082Z</time>
      </trkpt>
      <trkpt lat="48.45528" lon="7.11229">
        <ele>733</ele>
        <time>2019-05-15T11:27:54.082Z</time>
      </trkpt>
      <trkpt lat="48.45528" lon="7.11229">
        <ele>733</ele>
        <time>2019-05-15T11:27:55.082Z</time>
      </trkpt>
      <trkpt lat="48.45528" lon="7.11229">
        <ele>734</ele>
        <time>2019-05-15T11:27:56.082Z</time>
      </trkpt>
      <trkpt lat="48.45528" lon="7.11229">
        <ele>734</ele>
        <time>2019-05-15T11:27:57.082Z</time>
      </trkpt>
      <trkpt lat="48.45528" lon="7.11229">
        <ele>733</ele>
        <time>2019-05-15T11:27:58.082Z</time>
      </trkpt>
      <trkpt lat="48.45528" lon="7.11229">
        <ele>733</ele>
        <time>2019-05-15T11:27:59.082Z</time>
      </trkpt>
      <trkpt lat="48.45528" lon="7.11229">
        <ele>733</ele>
        <time>2019-05-15T11:28:00.082Z</time>
      </trkpt>
      <trkpt lat="48.45528" lon="7.11229">
        <ele>734</ele>
        <time>2019-05-15T11:28:01.082Z</time>
      </trkpt>
      <trkpt lat="48.45528" lon="7.1123">
        <ele>734</ele>
        <time>2019-05-15T11:28:02.082Z</time>
      </trkpt>
      <trkpt lat="48.45528" lon="7.1123">
        <ele>734</ele>
        <time>2019-05-15T11:28:03.082Z</time>
      </trkpt>
      <trkpt lat="48.45528" lon="7.1123">
        <ele>734</ele>
        <time>2019-05-15T11:28:04.082Z</time>
      </trkpt>
      <trkpt lat="48.45528" lon="7.11231">
        <ele>734</ele>
        <time>2019-05-15T11:28:05.082Z</time>
      </trkpt>
      <trkpt lat="48.45529" lon="7.11231">
        <ele>734</ele>
        <time>2019-05-15T11:28:06.082Z</time>
      </trkpt>
      <trkpt lat="48.45529" lon="7.11231">
        <ele>734</ele>
        <time>2019-05-15T11:28:07.082Z</time>
      </trkpt>
      <trkpt lat="48.45529" lon="7.11231">
        <ele>734</ele>
        <time>2019-05-15T11:28:08.082Z</time>
      </trkpt>
      <trkpt lat="48.45529" lon="7.11231">
        <ele>734</ele>
        <time>2019-05-15T11:28:09.082Z</time>
      </trkpt>
      <trkpt lat="48.45529" lon="7.11231">
        <ele>734</ele>
        <time>2019-05-15T11:28:10.082Z</time>
      </trkpt>
      <trkpt lat="48.45529" lon="7.11231">
        <ele>734</ele>
        <time>2019-05-15T11:28:11.082Z</time>
      </trkpt>
      <trkpt lat="48.45529" lon="7.11231">
        <ele>734</ele>
        <time>2019-05-15T11:28:12.082Z</time>
      </trkpt>
      <trkpt lat="48.45529" lon="7.11231">
        <ele>734</ele>
        <time>2019-05-15T11:28:13.082Z</time>
      </trkpt>
      <trkpt lat="48.45529" lon="7.11231">
        <ele>734</ele>
        <time>2019-05-15T11:28:14.082Z</time>
      </trkpt>
      <trkpt lat="48.45528" lon="7.11231">
        <ele>734</ele>
        <time>2019-05-15T11:28:15.082Z</time>
      </trkpt>
      <trkpt lat="48.45528" lon="7.11231">
        <ele>734</ele>
        <time>2019-05-15T11:28:16.082Z</time>
      </trkpt>
      <trkpt lat="48.45528" lon="7.11231">
        <ele>734</ele>
        <time>2019-05-15T11:28:17.082Z</time>
      </trkpt>
      <trkpt lat="48.45528" lon="7.11232">
        <ele>734</ele>
        <time>2019-05-15T11:28:18.082Z</time>
      </trkpt>
      <trkpt lat="48.45528" lon="7.11233">
        <ele>734</ele>
        <time>2019-05-15T11:28:19.082Z</time>
      </trkpt>
      <trkpt lat="48.45528" lon="7.11233">
        <ele>734</ele>
        <time>2019-05-15T11:28:20.082Z</time>
      </trkpt>
      <trkpt lat="48.45527" lon="7.11233">
        <ele>734</ele>
        <time>2019-05-15T11:28:21.082Z</time>
      </trkpt>
      <trkpt lat="48.45527" lon="7.11233">
        <ele>734</ele>
        <time>2019-05-15T11:28:22.082Z</time>
      </trkpt>
      <trkpt lat="48.45526" lon="7.11233">
        <ele>733</ele>
        <time>2019-05-15T11:28:23.082Z</time>
      </trkpt>
      <trkpt lat="48.45526" lon="7.11232">
        <ele>733</ele>
        <time>2019-05-15T11:28:24.082Z</time>
      </trkpt>
      <trkpt lat="48.45525" lon="7.11232">
        <ele>733</ele>
        <time>2019-05-15T11:28:25.082Z</time>
      </trkpt>
      <trkpt lat="48.45525" lon="7.11232">
        <ele>733</ele>
        <time>2019-05-15T11:28:26.082Z</time>
      </trkpt>
      <trkpt lat="48.45525" lon="7.11232">
        <ele>733</ele>
        <time>2019-05-15T11:28:27.082Z</time>
      </trkpt>
      <trkpt lat="48.45525" lon="7.11232">
        <ele>733</ele>
        <time>2019-05-15T11:28:28.082Z</time>
      </trkpt>
      <trkpt lat="48.45525" lon="7.11232">
        <ele>733</ele>
        <time>2019-05-15T11:28:29.082Z</time>
      </trkpt>
      <trkpt lat="48.45525" lon="7.11232">
        <ele>733</ele>
        <time>2019-05-15T11:28:30.082Z</time>
      </trkpt>
      <trkpt lat="48.45525" lon="7.11232">
        <ele>733</ele>
        <time>2019-05-15T11:28:31.082Z</time>
      </trkpt>
      <trkpt lat="48.45525" lon="7.11232">
        <ele>733</ele>
        <time>2019-05-15T11:28:32.082Z</time>
      </trkpt>
      <trkpt lat="48.45525" lon="7.11232">
        <ele>733</ele>
        <time>2019-05-15T11:28:33.082Z</time>
      </trkpt>
      <trkpt lat="48.45525" lon="7.11232">
        <ele>733</ele>
        <time>2019-05-15T11:28:34.082Z</time>
      </trkpt>
      <trkpt lat="48.45525" lon="7.11232">
        <ele>733</ele>
        <time>2019-05-15T11:28:35.082Z</time>
      </trkpt>
      <trkpt lat="48.45525" lon="7.11232">
        <ele>733</ele>
        <time>2019-05-15T11:28:36.082Z</time>
      </trkpt>
      <trkpt lat="48.45525" lon="7.11232">
        <ele>733</ele>
        <time>2019-05-15T11:28:37.082Z</time>
      </trkpt>
      <trkpt lat="48.45525" lon="7.11232">
        <ele>733</ele>
        <time>2019-05-15T11:28:38.082Z</time>
      </trkpt>
      <trkpt lat="48.45525" lon="7.11232">
        <ele>733</ele>
        <time>2019-05-15T11:28:39.082Z</time>
      </trkpt>
      <trkpt lat="48.45525" lon="7.11232">
        <ele>733</ele>
        <time>2019-05-15T11:28:40.082Z</time>
      </trkpt>
      <trkpt lat="48.45525" lon="7.11233">
        <ele>733</ele>
        <time>2019-05-15T11:28:41.082Z</time>
      </trkpt>
      <trkpt lat="48.45525" lon="7.11233">
        <ele>733</ele>
        <time>2019-05-15T11:28:42.082Z</time>
      </trkpt>
      <trkpt lat="48.45525" lon="7.11235">
        <ele>733</ele>
        <time>2019-05-15T11:28:43.082Z</time>
      </trkpt>
      <trkpt lat="48.45525" lon="7.11236">
        <ele>733</ele>
        <time>2019-05-15T11:28:44.082Z</time>
      </trkpt>
      <trkpt lat="48.45525" lon="7.11237">
        <ele>732</ele>
        <time>2019-05-15T11:28:45.082Z</time>
      </trkpt>
      <trkpt lat="48.45525" lon="7.11238">
        <ele>732</ele>
        <time>2019-05-15T11:28:46.082Z</time>
      </trkpt>
      <trkpt lat="48.45525" lon="7.1124">
        <ele>732</ele>
        <time>2019-05-15T11:28:47.082Z</time>
      </trkpt>
      <trkpt lat="48.45524" lon="7.11241">
        <ele>732</ele>
        <time>2019-05-15T11:28:48.082Z</time>
      </trkpt>
      <trkpt lat="48.45524" lon="7.11242">
        <ele>732</ele>
        <time>2019-05-15T11:28:49.082Z</time>
      </trkpt>
      <trkpt lat="48.45524" lon="7.11243">
        <ele>732</ele>
        <time>2019-05-15T11:28:50.082Z</time>
      </trkpt>
      <trkpt lat="48.45524" lon="7.11244">
        <ele>732</ele>
        <time>2019-05-15T11:28:51.082Z</time>
      </trkpt>
      <trkpt lat="48.45523" lon="7.11245">
        <ele>732</ele>
        <time>2019-05-15T11:28:52.082Z</time>
      </trkpt>
      <trkpt lat="48.45523" lon="7.11246">
        <ele>732</ele>
        <time>2019-05-15T11:28:53.082Z</time>
      </trkpt>
      <trkpt lat="48.45523" lon="7.11247">
        <ele>732</ele>
        <time>2019-05-15T11:28:54.082Z</time>
      </trkpt>
      <trkpt lat="48.45523" lon="7.11248">
        <ele>732</ele>
        <time>2019-05-15T11:28:55.082Z</time>
      </trkpt>
      <trkpt lat="48.45523" lon="7.11249">
        <ele>732</ele>
        <time>2019-05-15T11:28:56.082Z</time>
      </trkpt>
      <trkpt lat="48.45523" lon="7.1125">
        <ele>732</ele>
        <time>2019-05-15T11:28:57.082Z</time>
      </trkpt>
      <trkpt lat="48.45523" lon="7.11251">
        <ele>732</ele>
        <time>2019-05-15T11:28:58.082Z</time>
      </trkpt>
      <trkpt lat="48.45523" lon="7.11252">
        <ele>732</ele>
        <time>2019-05-15T11:28:59.082Z</time>
      </trkpt>
      <trkpt lat="48.45522" lon="7.11253">
        <ele>732</ele>
        <time>2019-05-15T11:29:00.082Z</time>
      </trkpt>
      <trkpt lat="48.45522" lon="7.11254">
        <ele>732</ele>
        <time>2019-05-15T11:29:01.082Z</time>
      </trkpt>
      <trkpt lat="48.45521" lon="7.11254">
        <ele>731</ele>
        <time>2019-05-15T11:29:02.082Z</time>
      </trkpt>
      <trkpt lat="48.45521" lon="7.11255">
        <ele>731</ele>
        <time>2019-05-15T11:29:03.082Z</time>
      </trkpt>
      <trkpt lat="48.45521" lon="7.11257">
        <ele>731</ele>
        <time>2019-05-15T11:29:04.082Z</time>
      </trkpt>
      <trkpt lat="48.45521" lon="7.11259">
        <ele>731</ele>
        <time>2019-05-15T11:29:05.082Z</time>
      </trkpt>
      <trkpt lat="48.45521" lon="7.1126">
        <ele>731</ele>
        <time>2019-05-15T11:29:06.082Z</time>
      </trkpt>
      <trkpt lat="48.45521" lon="7.11262">
        <ele>731</ele>
        <time>2019-05-15T11:29:07.082Z</time>
      </trkpt>
      <trkpt lat="48.45521" lon="7.11263">
        <ele>731</ele>
        <time>2019-05-15T11:29:08.082Z</time>
      </trkpt>
      <trkpt lat="48.45521" lon="7.11265">
        <ele>731</ele>
        <time>2019-05-15T11:29:09.082Z</time>
      </trkpt>
      <trkpt lat="48.45521" lon="7.11266">
        <ele>730</ele>
        <time>2019-05-15T11:29:10.082Z</time>
      </trkpt>
      <trkpt lat="48.4552" lon="7.11268">
        <ele>730</ele>
        <time>2019-05-15T11:29:11.082Z</time>
      </trkpt>
      <trkpt lat="48.4552" lon="7.11269">
        <ele>730</ele>
        <time>2019-05-15T11:29:12.082Z</time>
      </trkpt>
      <trkpt lat="48.4552" lon="7.1127">
        <ele>730</ele>
        <time>2019-05-15T11:29:13.082Z</time>
      </trkpt>
      <trkpt lat="48.4552" lon="7.11272">
        <ele>730</ele>
        <time>2019-05-15T11:29:14.082Z</time>
      </trkpt>
      <trkpt lat="48.45519" lon="7.11273">
        <ele>730</ele>
        <time>2019-05-15T11:29:15.082Z</time>
      </trkpt>
      <trkpt lat="48.45519" lon="7.11274">
        <ele>730</ele>
        <time>2019-05-15T11:29:16.082Z</time>
      </trkpt>
      <trkpt lat="48.45519" lon="7.11276">
        <ele>730</ele>
        <time>2019-05-15T11:29:17.082Z</time>
      </trkpt>
      <trkpt lat="48.45519" lon="7.11277">
        <ele>730</ele>
        <time>2019-05-15T11:29:18.082Z</time>
      </trkpt>
      <trkpt lat="48.45519" lon="7.11279">
        <ele>730</ele>
        <time>2019-05-15T11:29:19.082Z</time>
      </trkpt>
      <trkpt lat="48.45519" lon="7.1128">
        <ele>730</ele>
        <time>2019-05-15T11:29:20.082Z</time>
      </trkpt>
      <trkpt lat="48.45519" lon="7.11282">
        <ele>730</ele>
        <time>2019-05-15T11:29:21.082Z</time>
      </trkpt>
      <trkpt lat="48.45519" lon="7.11283">
        <ele>730</ele>
        <time>2019-05-15T11:29:22.082Z</time>
      </trkpt>
      <trkpt lat="48.45518" lon="7.11284">
        <ele>730</ele>
        <time>2019-05-15T11:29:23.082Z</time>
      </trkpt>
      <trkpt lat="48.45518" lon="7.11286">
        <ele>730</ele>
        <time>2019-05-15T11:29:24.082Z</time>
      </trkpt>
      <trkpt lat="48.45518" lon="7.11287">
        <ele>730</ele>
        <time>2019-05-15T11:29:25.082Z</time>
      </trkpt>
      <trkpt lat="48.45518" lon="7.11289">
        <ele>730</ele>
        <time>2019-05-15T11:29:26.082Z</time>
      </trkpt>
      <trkpt lat="48.45518" lon="7.1129">
        <ele>730</ele>
        <time>2019-05-15T11:29:27.082Z</time>
      </trkpt>
      <trkpt lat="48.45518" lon="7.11292">
        <ele>729</ele>
        <time>2019-05-15T11:29:28.082Z</time>
      </trkpt>
      <trkpt lat="48.45518" lon="7.11293">
        <ele>730</ele>
        <time>2019-05-15T11:29:29.082Z</time>
      </trkpt>
      <trkpt lat="48.45518" lon="7.11295">
        <ele>729</ele>
        <time>2019-05-15T11:29:30.082Z</time>
      </trkpt>
      <trkpt lat="48.45518" lon="7.11296">
        <ele>729</ele>
        <time>2019-05-15T11:29:31.082Z</time>
      </trkpt>
      <trkpt lat="48.45518" lon="7.11298">
        <ele>729</ele>
        <time>2019-05-15T11:29:32.082Z</time>
      </trkpt>
      <trkpt lat="48.45518" lon="7.11299">
        <ele>729</ele>
        <time>2019-05-15T11:29:33.082Z</time>
      </trkpt>
      <trkpt lat="48.45518" lon="7.11301">
        <ele>729</ele>
        <time>2019-05-15T11:29:34.082Z</time>
      </trkpt>
      <trkpt lat="48.45518" lon="7.11302">
        <ele>729</ele>
        <time>2019-05-15T11:29:35.082Z</time>
      </trkpt>
      <trkpt lat="48.45518" lon="7.11304">
        <ele>729</ele>
        <time>2019-05-15T11:29:36.082Z</time>
      </trkpt>
      <trkpt lat="48.45518" lon="7.11305">
        <ele>729</ele>
        <time>2019-05-15T11:29:37.082Z</time>
      </trkpt>
      <trkpt lat="48.45518" lon="7.11306">
        <ele>729</ele>
        <time>2019-05-15T11:29:38.082Z</time>
      </trkpt>
      <trkpt lat="48.45518" lon="7.11307">
        <ele>729</ele>
        <time>2019-05-15T11:29:39.082Z</time>
      </trkpt>
      <trkpt lat="48.45518" lon="7.11307">
        <ele>729</ele>
        <time>2019-05-15T11:29:40.082Z</time>
      </trkpt>
      <trkpt lat="48.45519" lon="7.11308">
        <ele>728</ele>
        <time>2019-05-15T11:29:41.082Z</time>
      </trkpt>
      <trkpt lat="48.45519" lon="7.11309">
        <ele>728</ele>
        <time>2019-05-15T11:29:42.082Z</time>
      </trkpt>
      <trkpt lat="48.45519" lon="7.1131">
        <ele>728</ele>
        <time>2019-05-15T11:29:43.082Z</time>
      </trkpt>
      <trkpt lat="48.45519" lon="7.11311">
        <ele>728</ele>
        <time>2019-05-15T11:29:44.082Z</time>
      </trkpt>
      <trkpt lat="48.45519" lon="7.11312">
        <ele>728</ele>
        <time>2019-05-15T11:29:45.082Z</time>
      </trkpt>
      <trkpt lat="48.45519" lon="7.11313">
        <ele>728</ele>
        <time>2019-05-15T11:29:46.082Z</time>
      </trkpt>
      <trkpt lat="48.45519" lon="7.11315">
        <ele>728</ele>
        <time>2019-05-15T11:29:47.082Z</time>
      </trkpt>
      <trkpt lat="48.4552" lon="7.11316">
        <ele>728</ele>
        <time>2019-05-15T11:29:48.082Z</time>
      </trkpt>
      <trkpt lat="48.4552" lon="7.11317">
        <ele>729</ele>
        <time>2019-05-15T11:29:49.082Z</time>
      </trkpt>
      <trkpt lat="48.45521" lon="7.11319">
        <ele>729</ele>
        <time>2019-05-15T11:29:50.082Z</time>
      </trkpt>
      <trkpt lat="48.45521" lon="7.1132">
        <ele>729</ele>
        <time>2019-05-15T11:29:51.082Z</time>
      </trkpt>
      <trkpt lat="48.45522" lon="7.11322">
        <ele>729</ele>
        <time>2019-05-15T11:29:52.082Z</time>
      </trkpt>
      <trkpt lat="48.45522" lon="7.11323">
        <ele>729</ele>
        <time>2019-05-15T11:29:53.082Z</time>
      </trkpt>
      <trkpt lat="48.45523" lon="7.11324">
        <ele>729</ele>
        <time>2019-05-15T11:29:54.082Z</time>
      </trkpt>
      <trkpt lat="48.45523" lon="7.11325">
        <ele>729</ele>
        <time>2019-05-15T11:29:55.082Z</time>
      </trkpt>
      <trkpt lat="48.45523" lon="7.11327">
        <ele>729</ele>
        <time>2019-05-15T11:29:56.082Z</time>
      </trkpt>
      <trkpt lat="48.45524" lon="7.11328">
        <ele>729</ele>
        <time>2019-05-15T11:29:57.082Z</time>
      </trkpt>
      <trkpt lat="48.45524" lon="7.11329">
        <ele>729</ele>
        <time>2019-05-15T11:29:58.082Z</time>
      </trkpt>
      <trkpt lat="48.45525" lon="7.11331">
        <ele>729</ele>
        <time>2019-05-15T11:29:59.082Z</time>
      </trkpt>
      <trkpt lat="48.45525" lon="7.11332">
        <ele>729</ele>
        <time>2019-05-15T11:30:00.082Z</time>
      </trkpt>
      <trkpt lat="48.45526" lon="7.11334">
        <ele>730</ele>
        <time>2019-05-15T11:30:01.082Z</time>
      </trkpt>
      <trkpt lat="48.45526" lon="7.11335">
        <ele>730</ele>
        <time>2019-05-15T11:30:02.082Z</time>
      </trkpt>
      <trkpt lat="48.45527" lon="7.11336">
        <ele>730</ele>
        <time>2019-05-15T11:30:03.082Z</time>
      </trkpt>
      <trkpt lat="48.45527" lon="7.11338">
        <ele>730</ele>
        <time>2019-05-15T11:30:04.082Z</time>
      </trkpt>
      <trkpt lat="48.45528" lon="7.11339">
        <ele>730</ele>
        <time>2019-05-15T11:30:05.082Z</time>
      </trkpt>
      <trkpt lat="48.45528" lon="7.1134">
        <ele>730</ele>
        <time>2019-05-15T11:30:06.082Z</time>
      </trkpt>
      <trkpt lat="48.45528" lon="7.11342">
        <ele>730</ele>
        <time>2019-05-15T11:30:07.082Z</time>
      </trkpt>
      <trkpt lat="48.45529" lon="7.11343">
        <ele>730</ele>
        <time>2019-05-15T11:30:08.082Z</time>
      </trkpt>
      <trkpt lat="48.45529" lon="7.11344">
        <ele>730</ele>
        <time>2019-05-15T11:30:09.082Z</time>
      </trkpt>
      <trkpt lat="48.4553" lon="7.11346">
        <ele>730</ele>
        <time>2019-05-15T11:30:10.082Z</time>
      </trkpt>
      <trkpt lat="48.4553" lon="7.11347">
        <ele>730</ele>
        <time>2019-05-15T11:30:11.082Z</time>
      </trkpt>
      <trkpt lat="48.45531" lon="7.11348">
        <ele>730</ele>
        <time>2019-05-15T11:30:12.082Z</time>
      </trkpt>
      <trkpt lat="48.45531" lon="7.1135">
        <ele>730</ele>
        <time>2019-05-15T11:30:13.082Z</time>
      </trkpt>
      <trkpt lat="48.45532" lon="7.11351">
        <ele>730</ele>
        <time>2019-05-15T11:30:14.082Z</time>
      </trkpt>
      <trkpt lat="48.45532" lon="7.11353">
        <ele>730</ele>
        <time>2019-05-15T11:30:15.082Z</time>
      </trkpt>
      <trkpt lat="48.45533" lon="7.11354">
        <ele>730</ele>
        <time>2019-05-15T11:30:16.082Z</time>
      </trkpt>
      <trkpt lat="48.45533" lon="7.11356">
        <ele>729</ele>
        <time>2019-05-15T11:30:17.082Z</time>
      </trkpt>
      <trkpt lat="48.45534" lon="7.11357">
        <ele>729</ele>
        <time>2019-05-15T11:30:18.082Z</time>
      </trkpt>
      <trkpt lat="48.45534" lon="7.11359">
        <ele>729</ele>
        <time>2019-05-15T11:30:19.082Z</time>
      </trkpt>
      <trkpt lat="48.45535" lon="7.1136">
        <ele>729</ele>
        <time>2019-05-15T11:30:20.082Z</time>
      </trkpt>
      <trkpt lat="48.45535" lon="7.11361">
        <ele>729</ele>
        <time>2019-05-15T11:30:21.082Z</time>
      </trkpt>
      <trkpt lat="48.45535" lon="7.11363">
        <ele>728</ele>
        <time>2019-05-15T11:30:22.082Z</time>
      </trkpt>
      <trkpt lat="48.45536" lon="7.11364">
        <ele>728</ele>
        <time>2019-05-15T11:30:23.082Z</time>
      </trkpt>
      <trkpt lat="48.45536" lon="7.11365">
        <ele>728</ele>
        <time>2019-05-15T11:30:24.082Z</time>
      </trkpt>
      <trkpt lat="48.45536" lon="7.11367">
        <ele>728</ele>
        <time>2019-05-15T11:30:25.082Z</time>
      </trkpt>
      <trkpt lat="48.45536" lon="7.11368">
        <ele>727</ele>
        <time>2019-05-15T11:30:26.082Z</time>
      </trkpt>
      <trkpt lat="48.45537" lon="7.11369">
        <ele>727</ele>
        <time>2019-05-15T11:30:27.082Z</time>
      </trkpt>
      <trkpt lat="48.45537" lon="7.11371">
        <ele>727</ele>
        <time>2019-05-15T11:30:28.082Z</time>
      </trkpt>
      <trkpt lat="48.45537" lon="7.11372">
        <ele>727</ele>
        <time>2019-05-15T11:30:29.082Z</time>
      </trkpt>
      <trkpt lat="48.45538" lon="7.11373">
        <ele>727</ele>
        <time>2019-05-15T11:30:30.082Z</time>
      </trkpt>
      <trkpt lat="48.45538" lon="7.11375">
        <ele>727</ele>
        <time>2019-05-15T11:30:31.082Z</time>
      </trkpt>
      <trkpt lat="48.45538" lon="7.11376">
        <ele>727</ele>
        <time>2019-05-15T11:30:32.082Z</time>
      </trkpt>
      <trkpt lat="48.45538" lon="7.11378">
        <ele>726</ele>
        <time>2019-05-15T11:30:33.082Z</time>
      </trkpt>
      <trkpt lat="48.45538" lon="7.11379">
        <ele>727</ele>
        <time>2019-05-15T11:30:34.082Z</time>
      </trkpt>
      <trkpt lat="48.45539" lon="7.1138">
        <ele>726</ele>
        <time>2019-05-15T11:30:35.082Z</time>
      </trkpt>
      <trkpt lat="48.45539" lon="7.11382">
        <ele>726</ele>
        <time>2019-05-15T11:30:36.082Z</time>
      </trkpt>
      <trkpt lat="48.4554" lon="7.11383">
        <ele>727</ele>
        <time>2019-05-15T11:30:37.082Z</time>
      </trkpt>
      <trkpt lat="48.4554" lon="7.11385">
        <ele>727</ele>
        <time>2019-05-15T11:30:38.082Z</time>
      </trkpt>
      <trkpt lat="48.45541" lon="7.11386">
        <ele>726</ele>
        <time>2019-05-15T11:30:39.082Z</time>
      </trkpt>
      <trkpt lat="48.45541" lon="7.11387">
        <ele>726</ele>
        <time>2019-05-15T11:30:40.082Z</time>
      </trkpt>
      <trkpt lat="48.45541" lon="7.11389">
        <ele>726</ele>
        <time>2019-05-15T11:30:41.082Z</time>
      </trkpt>
      <trkpt lat="48.45542" lon="7.1139">
        <ele>726</ele>
        <time>2019-05-15T11:30:42.082Z</time>
      </trkpt>
      <trkpt lat="48.45542" lon="7.11392">
        <ele>726</ele>
        <time>2019-05-15T11:30:43.082Z</time>
      </trkpt>
      <trkpt lat="48.45542" lon="7.11393">
        <ele>726</ele>
        <time>2019-05-15T11:30:44.082Z</time>
      </trkpt>
      <trkpt lat="48.45543" lon="7.11394">
        <ele>726</ele>
        <time>2019-05-15T11:30:45.082Z</time>
      </trkpt>
      <trkpt lat="48.45543" lon="7.11395">
        <ele>725</ele>
        <time>2019-05-15T11:30:46.082Z</time>
      </trkpt>
      <trkpt lat="48.45543" lon="7.11397">
        <ele>725</ele>
        <time>2019-05-15T11:30:47.082Z</time>
      </trkpt>
      <trkpt lat="48.45543" lon="7.11398">
        <ele>725</ele>
        <time>2019-05-15T11:30:48.082Z</time>
      </trkpt>
      <trkpt lat="48.45544" lon="7.11399">
        <ele>725</ele>
        <time>2019-05-15T11:30:49.082Z</time>
      </trkpt>
      <trkpt lat="48.45544" lon="7.114">
        <ele>725</ele>
        <time>2019-05-15T11:30:50.082Z</time>
      </trkpt>
      <trkpt lat="48.45544" lon="7.11402">
        <ele>725</ele>
        <time>2019-05-15T11:30:51.082Z</time>
      </trkpt>
      <trkpt lat="48.45544" lon="7.11403">
        <ele>725</ele>
        <time>2019-05-15T11:30:52.082Z</time>
      </trkpt>
      <trkpt lat="48.45545" lon="7.11405">
        <ele>724</ele>
        <time>2019-05-15T11:30:53.082Z</time>
      </trkpt>
      <trkpt lat="48.45545" lon="7.11406">
        <ele>724</ele>
        <time>2019-05-15T11:30:54.082Z</time>
      </trkpt>
      <trkpt lat="48.45545" lon="7.11407">
        <ele>724</ele>
        <time>2019-05-15T11:30:55.082Z</time>
      </trkpt>
      <trkpt lat="48.45545" lon="7.11409">
        <ele>724</ele>
        <time>2019-05-15T11:30:56.082Z</time>
      </trkpt>
      <trkpt lat="48.45545" lon="7.1141">
        <ele>723</ele>
        <time>2019-05-15T11:30:57.082Z</time>
      </trkpt>
      <trkpt lat="48.45545" lon="7.11411">
        <ele>723</ele>
        <time>2019-05-15T11:30:58.082Z</time>
      </trkpt>
      <trkpt lat="48.45546" lon="7.11413">
        <ele>723</ele>
        <time>2019-05-15T11:30:59.082Z</time>
      </trkpt>
      <trkpt lat="48.45546" lon="7.11414">
        <ele>723</ele>
        <time>2019-05-15T11:31:00.082Z</time>
      </trkpt>
      <trkpt lat="48.45547" lon="7.11415">
        <ele>723</ele>
        <time>2019-05-15T11:31:01.082Z</time>
      </trkpt>
      <trkpt lat="48.45547" lon="7.11417">
        <ele>723</ele>
        <time>2019-05-15T11:31:02.082Z</time>
      </trkpt>
      <trkpt lat="48.45548" lon="7.11419">
        <ele>723</ele>
        <time>2019-05-15T11:31:03.082Z</time>
      </trkpt>
      <trkpt lat="48.45548" lon="7.1142">
        <ele>723</ele>
        <time>2019-05-15T11:31:04.082Z</time>
      </trkpt>
      <trkpt lat="48.45548" lon="7.11422">
        <ele>723</ele>
        <time>2019-05-15T11:31:05.082Z</time>
      </trkpt>
      <trkpt lat="48.45548" lon="7.11423">
        <ele>723</ele>
        <time>2019-05-15T11:31:06.082Z</time>
      </trkpt>
      <trkpt lat="48.45549" lon="7.11424">
        <ele>723</ele>
        <time>2019-05-15T11:31:07.082Z</time>
      </trkpt>
      <trkpt lat="48.45549" lon="7.11425">
        <ele>723</ele>
        <time>2019-05-15T11:31:08.082Z</time>
      </trkpt>
      <trkpt lat="48.45549" lon="7.11427">
        <ele>723</ele>
        <time>2019-05-15T11:31:09.082Z</time>
      </trkpt>
      <trkpt lat="48.4555" lon="7.11428">
        <ele>723</ele>
        <time>2019-05-15T11:31:10.082Z</time>
      </trkpt>
      <trkpt lat="48.4555" lon="7.11429">
        <ele>723</ele>
        <time>2019-05-15T11:31:11.082Z</time>
      </trkpt>
      <trkpt lat="48.4555" lon="7.1143">
        <ele>723</ele>
        <time>2019-05-15T11:31:12.082Z</time>
      </trkpt>
      <trkpt lat="48.4555" lon="7.11432">
        <ele>722</ele>
        <time>2019-05-15T11:31:13.082Z</time>
      </trkpt>
      <trkpt lat="48.4555" lon="7.11433">
        <ele>722</ele>
        <time>2019-05-15T11:31:14.082Z</time>
      </trkpt>
      <trkpt lat="48.4555" lon="7.11434">
        <ele>722</ele>
        <time>2019-05-15T11:31:15.082Z</time>
      </trkpt>
      <trkpt lat="48.45551" lon="7.11436">
        <ele>722</ele>
        <time>2019-05-15T11:31:16.082Z</time>
      </trkpt>
      <trkpt lat="48.45551" lon="7.11437">
        <ele>722</ele>
        <time>2019-05-15T11:31:17.082Z</time>
      </trkpt>
      <trkpt lat="48.45551" lon="7.11439">
        <ele>722</ele>
        <time>2019-05-15T11:31:18.082Z</time>
      </trkpt>
      <trkpt lat="48.45551" lon="7.1144">
        <ele>722</ele>
        <time>2019-05-15T11:31:19.082Z</time>
      </trkpt>
      <trkpt lat="48.45551" lon="7.11441">
        <ele>721</ele>
        <time>2019-05-15T11:31:20.082Z</time>
      </trkpt>
      <trkpt lat="48.45551" lon="7.11443">
        <ele>721</ele>
        <time>2019-05-15T11:31:21.082Z</time>
      </trkpt>
      <trkpt lat="48.45551" lon="7.11444">
        <ele>721</ele>
        <time>2019-05-15T11:31:22.082Z</time>
      </trkpt>
      <trkpt lat="48.45552" lon="7.11446">
        <ele>721</ele>
        <time>2019-05-15T11:31:23.082Z</time>
      </trkpt>
      <trkpt lat="48.45552" lon="7.11447">
        <ele>721</ele>
        <time>2019-05-15T11:31:24.082Z</time>
      </trkpt>
      <trkpt lat="48.45552" lon="7.11448">
        <ele>720</ele>
        <time>2019-05-15T11:31:25.082Z</time>
      </trkpt>
      <trkpt lat="48.45553" lon="7.1145">
        <ele>720</ele>
        <time>2019-05-15T11:31:26.082Z</time>
      </trkpt>
      <trkpt lat="48.45553" lon="7.11451">
        <ele>720</ele>
        <time>2019-05-15T11:31:27.082Z</time>
      </trkpt>
      <trkpt lat="48.45553" lon="7.11453">
        <ele>720</ele>
        <time>2019-05-15T11:31:28.082Z</time>
      </trkpt>
      <trkpt lat="48.45553" lon="7.11454">
        <ele>720</ele>
        <time>2019-05-15T11:31:29.082Z</time>
      </trkpt>
      <trkpt lat="48.45553" lon="7.11456">
        <ele>720</ele>
        <time>2019-05-15T11:31:30.082Z</time>
      </trkpt>
      <trkpt lat="48.45554" lon="7.11457">
        <ele>719</ele>
        <time>2019-05-15T11:31:31.082Z</time>
      </trkpt>
      <trkpt lat="48.45553" lon="7.11459">
        <ele>719</ele>
        <time>2019-05-15T11:31:32.082Z</time>
      </trkpt>
      <trkpt lat="48.45553" lon="7.1146">
        <ele>719</ele>
        <time>2019-05-15T11:31:33.082Z</time>
      </trkpt>
      <trkpt lat="48.45554" lon="7.11461">
        <ele>719</ele>
        <time>2019-05-15T11:31:34.082Z</time>
      </trkpt>
      <trkpt lat="48.45554" lon="7.11463">
        <ele>719</ele>
        <time>2019-05-15T11:31:35.082Z</time>
      </trkpt>
      <trkpt lat="48.45554" lon="7.11465">
        <ele>718</ele>
        <time>2019-05-15T11:31:36.082Z</time>
      </trkpt>
      <trkpt lat="48.45554" lon="7.11466">
        <ele>718</ele>
        <time>2019-05-15T11:31:37.082Z</time>
      </trkpt>
      <trkpt lat="48.45555" lon="7.11468">
        <ele>718</ele>
        <time>2019-05-15T11:31:38.082Z</time>
      </trkpt>
      <trkpt lat="48.45555" lon="7.1147">
        <ele>718</ele>
        <time>2019-05-15T11:31:39.082Z</time>
      </trkpt>
      <trkpt lat="48.45555" lon="7.11471">
        <ele>718</ele>
        <time>2019-05-15T11:31:40.082Z</time>
      </trkpt>
      <trkpt lat="48.45556" lon="7.11473">
        <ele>718</ele>
        <time>2019-05-15T11:31:41.082Z</time>
      </trkpt>
      <trkpt lat="48.45556" lon="7.11475">
        <ele>718</ele>
        <time>2019-05-15T11:31:42.082Z</time>
      </trkpt>
      <trkpt lat="48.45556" lon="7.11476">
        <ele>718</ele>
        <time>2019-05-15T11:31:43.082Z</time>
      </trkpt>
      <trkpt lat="48.45557" lon="7.11477">
        <ele>718</ele>
        <time>2019-05-15T11:31:44.082Z</time>
      </trkpt>
      <trkpt lat="48.45557" lon="7.11479">
        <ele>719</ele>
        <time>2019-05-15T11:31:45.082Z</time>
      </trkpt>
      <trkpt lat="48.45557" lon="7.1148">
        <ele>719</ele>
        <time>2019-05-15T11:31:46.082Z</time>
      </trkpt>
      <trkpt lat="48.45557" lon="7.11482">
        <ele>719</ele>
        <time>2019-05-15T11:31:47.082Z</time>
      </trkpt>
      <trkpt lat="48.45558" lon="7.11484">
        <ele>719</ele>
        <time>2019-05-15T11:31:48.082Z</time>
      </trkpt>
      <trkpt lat="48.45558" lon="7.11485">
        <ele>719</ele>
        <time>2019-05-15T11:31:49.082Z</time>
      </trkpt>
      <trkpt lat="48.45558" lon="7.11487">
        <ele>719</ele>
        <time>2019-05-15T11:31:50.082Z</time>
      </trkpt>
      <trkpt lat="48.45558" lon="7.11489">
        <ele>719</ele>
        <time>2019-05-15T11:31:51.082Z</time>
      </trkpt>
      <trkpt lat="48.45558" lon="7.1149">
        <ele>719</ele>
        <time>2019-05-15T11:31:52.082Z</time>
      </trkpt>
      <trkpt lat="48.45558" lon="7.11491">
        <ele>719</ele>
        <time>2019-05-15T11:31:53.082Z</time>
      </trkpt>
      <trkpt lat="48.45558" lon="7.11493">
        <ele>719</ele>
        <time>2019-05-15T11:31:54.082Z</time>
      </trkpt>
      <trkpt lat="48.45558" lon="7.11495">
        <ele>719</ele>
        <time>2019-05-15T11:31:55.082Z</time>
      </trkpt>
      <trkpt lat="48.45558" lon="7.11496">
        <ele>718</ele>
        <time>2019-05-15T11:31:56.082Z</time>
      </trkpt>
      <trkpt lat="48.45558" lon="7.11498">
        <ele>719</ele>
        <time>2019-05-15T11:31:57.082Z</time>
      </trkpt>
      <trkpt lat="48.45558" lon="7.11499">
        <ele>718</ele>
        <time>2019-05-15T11:31:58.082Z</time>
      </trkpt>
      <trkpt lat="48.45558" lon="7.11501">
        <ele>718</ele>
        <time>2019-05-15T11:31:59.082Z</time>
      </trkpt>
      <trkpt lat="48.45558" lon="7.11503">
        <ele>718</ele>
        <time>2019-05-15T11:32:00.082Z</time>
      </trkpt>
      <trkpt lat="48.45558" lon="7.11504">
        <ele>718</ele>
        <time>2019-05-15T11:32:01.082Z</time>
      </trkpt>
      <trkpt lat="48.45558" lon="7.11506">
        <ele>717</ele>
        <time>2019-05-15T11:32:02.082Z</time>
      </trkpt>
      <trkpt lat="48.45557" lon="7.11507">
        <ele>717</ele>
        <time>2019-05-15T11:32:03.082Z</time>
      </trkpt>
      <trkpt lat="48.45557" lon="7.11509">
        <ele>717</ele>
        <time>2019-05-15T11:32:04.082Z</time>
      </trkpt>
      <trkpt lat="48.45557" lon="7.11511">
        <ele>717</ele>
        <time>2019-05-15T11:32:05.082Z</time>
      </trkpt>
      <trkpt lat="48.45557" lon="7.11512">
        <ele>717</ele>
        <time>2019-05-15T11:32:06.082Z</time>
      </trkpt>
      <trkpt lat="48.45557" lon="7.11514">
        <ele>717</ele>
        <time>2019-05-15T11:32:07.082Z</time>
      </trkpt>
      <trkpt lat="48.45556" lon="7.11515">
        <ele>717</ele>
        <time>2019-05-15T11:32:08.082Z</time>
      </trkpt>
      <trkpt lat="48.45556" lon="7.11517">
        <ele>716</ele>
        <time>2019-05-15T11:32:09.082Z</time>
      </trkpt>
      <trkpt lat="48.45556" lon="7.11518">
        <ele>716</ele>
        <time>2019-05-15T11:32:10.082Z</time>
      </trkpt>
      <trkpt lat="48.45555" lon="7.1152">
        <ele>716</ele>
        <time>2019-05-15T11:32:11.082Z</time>
      </trkpt>
      <trkpt lat="48.45555" lon="7.11521">
        <ele>716</ele>
        <time>2019-05-15T11:32:12.082Z</time>
      </trkpt>
      <trkpt lat="48.45554" lon="7.11522">
        <ele>716</ele>
        <time>2019-05-15T11:32:13.082Z</time>
      </trkpt>
      <trkpt lat="48.45554" lon="7.11523">
        <ele>716</ele>
        <time>2019-05-15T11:32:14.082Z</time>
      </trkpt>
      <trkpt lat="48.45554" lon="7.11525">
        <ele>716</ele>
        <time>2019-05-15T11:32:15.082Z</time>
      </trkpt>
      <trkpt lat="48.45553" lon="7.11526">
        <ele>716</ele>
        <time>2019-05-15T11:32:16.082Z</time>
      </trkpt>
      <trkpt lat="48.45552" lon="7.11527">
        <ele>716</ele>
        <time>2019-05-15T11:32:17.082Z</time>
      </trkpt>
      <trkpt lat="48.45552" lon="7.11529">
        <ele>716</ele>
        <time>2019-05-15T11:32:18.082Z</time>
      </trkpt>
      <trkpt lat="48.45551" lon="7.1153">
        <ele>716</ele>
        <time>2019-05-15T11:32:19.082Z</time>
      </trkpt>
      <trkpt lat="48.4555" lon="7.11531">
        <ele>716</ele>
        <time>2019-05-15T11:32:20.082Z</time>
      </trkpt>
      <trkpt lat="48.45549" lon="7.11532">
        <ele>716</ele>
        <time>2019-05-15T11:32:21.082Z</time>
      </trkpt>
      <trkpt lat="48.45549" lon="7.11533">
        <ele>715</ele>
        <time>2019-05-15T11:32:22.082Z</time>
      </trkpt>
      <trkpt lat="48.45548" lon="7.11534">
        <ele>715</ele>
        <time>2019-05-15T11:32:23.082Z</time>
      </trkpt>
      <trkpt lat="48.45547" lon="7.11535">
        <ele>715</ele>
        <time>2019-05-15T11:32:24.082Z</time>
      </trkpt>
      <trkpt lat="48.45546" lon="7.11536">
        <ele>715</ele>
        <time>2019-05-15T11:32:25.082Z</time>
      </trkpt>
      <trkpt lat="48.45546" lon="7.11536">
        <ele>715</ele>
        <time>2019-05-15T11:32:26.082Z</time>
      </trkpt>
      <trkpt lat="48.45545" lon="7.11537">
        <ele>715</ele>
        <time>2019-05-15T11:32:27.082Z</time>
      </trkpt>
      <trkpt lat="48.45544" lon="7.11537">
        <ele>714</ele>
        <time>2019-05-15T11:32:28.082Z</time>
      </trkpt>
      <trkpt lat="48.45543" lon="7.11538">
        <ele>714</ele>
        <time>2019-05-15T11:32:29.082Z</time>
      </trkpt>
      <trkpt lat="48.45543" lon="7.11538">
        <ele>714</ele>
        <time>2019-05-15T11:32:30.082Z</time>
      </trkpt>
      <trkpt lat="48.45542" lon="7.11539">
        <ele>714</ele>
        <time>2019-05-15T11:32:31.082Z</time>
      </trkpt>
      <trkpt lat="48.45541" lon="7.1154">
        <ele>714</ele>
        <time>2019-05-15T11:32:32.082Z</time>
      </trkpt>
      <trkpt lat="48.4554" lon="7.11541">
        <ele>714</ele>
        <time>2019-05-15T11:32:33.082Z</time>
      </trkpt>
      <trkpt lat="48.45539" lon="7.11542">
        <ele>713</ele>
        <time>2019-05-15T11:32:34.082Z</time>
      </trkpt>
      <trkpt lat="48.45538" lon="7.11543">
        <ele>713</ele>
        <time>2019-05-15T11:32:35.082Z</time>
      </trkpt>
      <trkpt lat="48.45538" lon="7.11543">
        <ele>713</ele>
        <time>2019-05-15T11:32:36.082Z</time>
      </trkpt>
      <trkpt lat="48.45537" lon="7.11544">
        <ele>713</ele>
        <time>2019-05-15T11:32:37.082Z</time>
      </trkpt>
      <trkpt lat="48.45536" lon="7.11544">
        <ele>712</ele>
        <time>2019-05-15T11:32:38.082Z</time>
      </trkpt>
      <trkpt lat="48.45535" lon="7.11545">
        <ele>712</ele>
        <time>2019-05-15T11:32:39.082Z</time>
      </trkpt>
      <trkpt lat="48.45534" lon="7.11546">
        <ele>712</ele>
        <time>2019-05-15T11:32:40.082Z</time>
      </trkpt>
      <trkpt lat="48.45534" lon="7.11546">
        <ele>712</ele>
        <time>2019-05-15T11:32:41.082Z</time>
      </trkpt>
      <trkpt lat="48.45533" lon="7.11547">
        <ele>712</ele>
        <time>2019-05-15T11:32:42.082Z</time>
      </trkpt>
      <trkpt lat="48.45532" lon="7.11548">
        <ele>712</ele>
        <time>2019-05-15T11:32:43.082Z</time>
      </trkpt>
      <trkpt lat="48.45532" lon="7.11549">
        <ele>712</ele>
        <time>2019-05-15T11:32:44.082Z</time>
      </trkpt>
      <trkpt lat="48.45531" lon="7.1155">
        <ele>712</ele>
        <time>2019-05-15T11:32:45.082Z</time>
      </trkpt>
      <trkpt lat="48.4553" lon="7.11552">
        <ele>712</ele>
        <time>2019-05-15T11:32:46.082Z</time>
      </trkpt>
      <trkpt lat="48.4553" lon="7.11553">
        <ele>712</ele>
        <time>2019-05-15T11:32:47.082Z</time>
      </trkpt>
      <trkpt lat="48.45529" lon="7.11554">
        <ele>713</ele>
        <time>2019-05-15T11:32:48.082Z</time>
      </trkpt>
      <trkpt lat="48.45529" lon="7.11556">
        <ele>713</ele>
        <time>2019-05-15T11:32:49.082Z</time>
      </trkpt>
      <trkpt lat="48.45528" lon="7.11557">
        <ele>713</ele>
        <time>2019-05-15T11:32:50.082Z</time>
      </trkpt>
      <trkpt lat="48.45528" lon="7.11558">
        <ele>713</ele>
        <time>2019-05-15T11:32:51.082Z</time>
      </trkpt>
      <trkpt lat="48.45527" lon="7.11559">
        <ele>714</ele>
        <time>2019-05-15T11:32:52.082Z</time>
      </trkpt>
      <trkpt lat="48.45526" lon="7.1156">
        <ele>713</ele>
        <time>2019-05-15T11:32:53.082Z</time>
      </trkpt>
      <trkpt lat="48.45526" lon="7.11562">
        <ele>713</ele>
        <time>2019-05-15T11:32:54.082Z</time>
      </trkpt>
      <trkpt lat="48.45525" lon="7.11563">
        <ele>713</ele>
        <time>2019-05-15T11:32:55.082Z</time>
      </trkpt>
      <trkpt lat="48.45524" lon="7.11564">
        <ele>712</ele>
        <time>2019-05-15T11:32:56.082Z</time>
      </trkpt>
      <trkpt lat="48.45523" lon="7.11565">
        <ele>712</ele>
        <time>2019-05-15T11:32:57.082Z</time>
      </trkpt>
      <trkpt lat="48.45523" lon="7.11567">
        <ele>713</ele>
        <time>2019-05-15T11:32:58.082Z</time>
      </trkpt>
      <trkpt lat="48.45522" lon="7.11569">
        <ele>713</ele>
        <time>2019-05-15T11:32:59.082Z</time>
      </trkpt>
      <trkpt lat="48.45522" lon="7.1157">
        <ele>714</ele>
        <time>2019-05-15T11:33:00.082Z</time>
      </trkpt>
      <trkpt lat="48.45522" lon="7.11572">
        <ele>714</ele>
        <time>2019-05-15T11:33:01.082Z</time>
      </trkpt>
      <trkpt lat="48.45522" lon="7.11573">
        <ele>714</ele>
        <time>2019-05-15T11:33:02.082Z</time>
      </trkpt>
      <trkpt lat="48.45521" lon="7.11575">
        <ele>714</ele>
        <time>2019-05-15T11:33:03.082Z</time>
      </trkpt>
      <trkpt lat="48.45521" lon="7.11576">
        <ele>714</ele>
        <time>2019-05-15T11:33:04.082Z</time>
      </trkpt>
      <trkpt lat="48.45521" lon="7.11578">
        <ele>714</ele>
        <time>2019-05-15T11:33:05.082Z</time>
      </trkpt>
      <trkpt lat="48.4552" lon="7.11579">
        <ele>714</ele>
        <time>2019-05-15T11:33:06.082Z</time>
      </trkpt>
      <trkpt lat="48.4552" lon="7.11581">
        <ele>714</ele>
        <time>2019-05-15T11:33:07.082Z</time>
      </trkpt>
      <trkpt lat="48.4552" lon="7.11583">
        <ele>715</ele>
        <time>2019-05-15T11:33:08.082Z</time>
      </trkpt>
      <trkpt lat="48.4552" lon="7.11584">
        <ele>715</ele>
        <time>2019-05-15T11:33:09.082Z</time>
      </trkpt>
      <trkpt lat="48.4552" lon="7.11586">
        <ele>715</ele>
        <time>2019-05-15T11:33:10.082Z</time>
      </trkpt>
      <trkpt lat="48.4552" lon="7.11588">
        <ele>716</ele>
        <time>2019-05-15T11:33:11.082Z</time>
      </trkpt>
      <trkpt lat="48.45519" lon="7.1159">
        <ele>716</ele>
        <time>2019-05-15T11:33:12.082Z</time>
      </trkpt>
      <trkpt lat="48.45519" lon="7.11591">
        <ele>716</ele>
        <time>2019-05-15T11:33:13.082Z</time>
      </trkpt>
      <trkpt lat="48.45519" lon="7.11592">
        <ele>716</ele>
        <time>2019-05-15T11:33:14.082Z</time>
      </trkpt>
      <trkpt lat="48.45519" lon="7.11594">
        <ele>716</ele>
        <time>2019-05-15T11:33:15.082Z</time>
      </trkpt>
      <trkpt lat="48.45519" lon="7.11595">
        <ele>717</ele>
        <time>2019-05-15T11:33:16.082Z</time>
      </trkpt>
      <trkpt lat="48.45519" lon="7.11596">
        <ele>717</ele>
        <time>2019-05-15T11:33:17.082Z</time>
      </trkpt>
      <trkpt lat="48.45519" lon="7.11598">
        <ele>717</ele>
        <time>2019-05-15T11:33:18.082Z</time>
      </trkpt>
      <trkpt lat="48.4552" lon="7.11599">
        <ele>718</ele>
        <time>2019-05-15T11:33:19.082Z</time>
      </trkpt>
      <trkpt lat="48.4552" lon="7.11601">
        <ele>718</ele>
        <time>2019-05-15T11:33:20.082Z</time>
      </trkpt>
      <trkpt lat="48.45521" lon="7.11602">
        <ele>718</ele>
        <time>2019-05-15T11:33:21.082Z</time>
      </trkpt>
      <trkpt lat="48.45521" lon="7.11604">
        <ele>718</ele>
        <time>2019-05-15T11:33:22.082Z</time>
      </trkpt>
      <trkpt lat="48.45521" lon="7.11605">
        <ele>718</ele>
        <time>2019-05-15T11:33:23.082Z</time>
      </trkpt>
      <trkpt lat="48.45522" lon="7.11606">
        <ele>718</ele>
        <time>2019-05-15T11:33:24.082Z</time>
      </trkpt>
      <trkpt lat="48.45522" lon="7.11607">
        <ele>718</ele>
        <time>2019-05-15T11:33:25.082Z</time>
      </trkpt>
      <trkpt lat="48.45523" lon="7.11608">
        <ele>719</ele>
        <time>2019-05-15T11:33:26.082Z</time>
      </trkpt>
      <trkpt lat="48.45524" lon="7.1161">
        <ele>719</ele>
        <time>2019-05-15T11:33:27.082Z</time>
      </trkpt>
      <trkpt lat="48.45524" lon="7.11611">
        <ele>719</ele>
        <time>2019-05-15T11:33:28.082Z</time>
      </trkpt>
      <trkpt lat="48.45525" lon="7.11612">
        <ele>720</ele>
        <time>2019-05-15T11:33:29.082Z</time>
      </trkpt>
      <trkpt lat="48.45526" lon="7.11613">
        <ele>720</ele>
        <time>2019-05-15T11:33:30.082Z</time>
      </trkpt>
      <trkpt lat="48.45527" lon="7.11615">
        <ele>720</ele>
        <time>2019-05-15T11:33:31.082Z</time>
      </trkpt>
      <trkpt lat="48.45527" lon="7.11616">
        <ele>721</ele>
        <time>2019-05-15T11:33:32.082Z</time>
      </trkpt>
      <trkpt lat="48.45528" lon="7.11617">
        <ele>720</ele>
        <time>2019-05-15T11:33:33.082Z</time>
      </trkpt>
      <trkpt lat="48.45528" lon="7.11619">
        <ele>720</ele>
        <time>2019-05-15T11:33:34.082Z</time>
      </trkpt>
      <trkpt lat="48.45528" lon="7.1162">
        <ele>720</ele>
        <time>2019-05-15T11:33:35.082Z</time>
      </trkpt>
      <trkpt lat="48.45529" lon="7.11622">
        <ele>720</ele>
        <time>2019-05-15T11:33:36.082Z</time>
      </trkpt>
      <trkpt lat="48.4553" lon="7.11623">
        <ele>721</ele>
        <time>2019-05-15T11:33:37.082Z</time>
      </trkpt>
      <trkpt lat="48.4553" lon="7.11624">
        <ele>721</ele>
        <time>2019-05-15T11:33:38.082Z</time>
      </trkpt>
      <trkpt lat="48.45531" lon="7.11625">
        <ele>721</ele>
        <time>2019-05-15T11:33:39.082Z</time>
      </trkpt>
      <trkpt lat="48.45532" lon="7.11626">
        <ele>721</ele>
        <time>2019-05-15T11:33:40.082Z</time>
      </trkpt>
      <trkpt lat="48.45533" lon="7.11628">
        <ele>721</ele>
        <time>2019-05-15T11:33:41.082Z</time>
      </trkpt>
      <trkpt lat="48.45534" lon="7.11629">
        <ele>721</ele>
        <time>2019-05-15T11:33:42.082Z</time>
      </trkpt>
      <trkpt lat="48.45534" lon="7.1163">
        <ele>721</ele>
        <time>2019-05-15T11:33:43.082Z</time>
      </trkpt>
      <trkpt lat="48.45535" lon="7.11631">
        <ele>722</ele>
        <time>2019-05-15T11:33:44.082Z</time>
      </trkpt>
      <trkpt lat="48.45536" lon="7.11632">
        <ele>722</ele>
        <time>2019-05-15T11:33:45.082Z</time>
      </trkpt>
      <trkpt lat="48.45538" lon="7.11633">
        <ele>722</ele>
        <time>2019-05-15T11:33:46.082Z</time>
      </trkpt>
      <trkpt lat="48.45538" lon="7.11634">
        <ele>723</ele>
        <time>2019-05-15T11:33:47.082Z</time>
      </trkpt>
      <trkpt lat="48.45539" lon="7.11636">
        <ele>723</ele>
        <time>2019-05-15T11:33:48.082Z</time>
      </trkpt>
      <trkpt lat="48.4554" lon="7.11637">
        <ele>724</ele>
        <time>2019-05-15T11:33:49.082Z</time>
      </trkpt>
      <trkpt lat="48.4554" lon="7.11638">
        <ele>723</ele>
        <time>2019-05-15T11:33:50.082Z</time>
      </trkpt>
      <trkpt lat="48.4554" lon="7.11639">
        <ele>724</ele>
        <time>2019-05-15T11:33:51.082Z</time>
      </trkpt>
      <trkpt lat="48.4554" lon="7.11641">
        <ele>724</ele>
        <time>2019-05-15T11:33:52.082Z</time>
      </trkpt>
      <trkpt lat="48.4554" lon="7.11642">
        <ele>723</ele>
        <time>2019-05-15T11:33:53.082Z</time>
      </trkpt>
      <trkpt lat="48.45539" lon="7.11644">
        <ele>723</ele>
        <time>2019-05-15T11:33:54.082Z</time>
      </trkpt>
      <trkpt lat="48.45539" lon="7.11645">
        <ele>722</ele>
        <time>2019-05-15T11:33:55.082Z</time>
      </trkpt>
      <trkpt lat="48.45538" lon="7.11647">
        <ele>722</ele>
        <time>2019-05-15T11:33:56.082Z</time>
      </trkpt>
      <trkpt lat="48.45539" lon="7.11648">
        <ele>722</ele>
        <time>2019-05-15T11:33:57.082Z</time>
      </trkpt>
      <trkpt lat="48.45539" lon="7.11649">
        <ele>722</ele>
        <time>2019-05-15T11:33:58.082Z</time>
      </trkpt>
      <trkpt lat="48.4554" lon="7.1165">
        <ele>723</ele>
        <time>2019-05-15T11:33:59.082Z</time>
      </trkpt>
      <trkpt lat="48.45541" lon="7.11651">
        <ele>723</ele>
        <time>2019-05-15T11:34:00.082Z</time>
      </trkpt>
      <trkpt lat="48.45541" lon="7.11652">
        <ele>722</ele>
        <time>2019-05-15T11:34:01.082Z</time>
      </trkpt>
      <trkpt lat="48.45541" lon="7.11653">
        <ele>722</ele>
        <time>2019-05-15T11:34:02.082Z</time>
      </trkpt>
      <trkpt lat="48.45541" lon="7.11654">
        <ele>721</ele>
        <time>2019-05-15T11:34:03.082Z</time>
      </trkpt>
      <trkpt lat="48.45541" lon="7.11655">
        <ele>721</ele>
        <time>2019-05-15T11:34:04.082Z</time>
      </trkpt>
      <trkpt lat="48.45542" lon="7.11656">
        <ele>720</ele>
        <time>2019-05-15T11:34:05.082Z</time>
      </trkpt>
      <trkpt lat="48.45542" lon="7.11657">
        <ele>720</ele>
        <time>2019-05-15T11:34:06.082Z</time>
      </trkpt>
      <trkpt lat="48.45542" lon="7.11657">
        <ele>719</ele>
        <time>2019-05-15T11:34:07.082Z</time>
      </trkpt>
      <trkpt lat="48.45542" lon="7.11657">
        <ele>719</ele>
        <time>2019-05-15T11:34:08.082Z</time>
      </trkpt>
      <trkpt lat="48.45541" lon="7.11657">
        <ele>719</ele>
        <time>2019-05-15T11:34:09.082Z</time>
      </trkpt>
      <trkpt lat="48.4554" lon="7.11656">
        <ele>718</ele>
        <time>2019-05-15T11:34:10.082Z</time>
      </trkpt>
      <trkpt lat="48.4554" lon="7.11656">
        <ele>716</ele>
        <time>2019-05-15T11:34:11.082Z</time>
      </trkpt>
      <trkpt lat="48.45539" lon="7.11655">
        <ele>716</ele>
        <time>2019-05-15T11:34:12.082Z</time>
      </trkpt>
      <trkpt lat="48.45538" lon="7.11655">
        <ele>716</ele>
        <time>2019-05-15T11:34:13.082Z</time>
      </trkpt>
      <trkpt lat="48.45538" lon="7.11655">
        <ele>716</ele>
        <time>2019-05-15T11:34:14.082Z</time>
      </trkpt>
      <trkpt lat="48.45538" lon="7.11654">
        <ele>716</ele>
        <time>2019-05-15T11:34:15.082Z</time>
      </trkpt>
      <trkpt lat="48.45537" lon="7.11654">
        <ele>716</ele>
        <time>2019-05-15T11:34:16.082Z</time>
      </trkpt>
      <trkpt lat="48.45537" lon="7.11653">
        <ele>715</ele>
        <time>2019-05-15T11:34:17.082Z</time>
      </trkpt>
      <trkpt lat="48.45536" lon="7.11653">
        <ele>715</ele>
        <time>2019-05-15T11:34:18.082Z</time>
      </trkpt>
      <trkpt lat="48.45536" lon="7.11653">
        <ele>715</ele>
        <time>2019-05-15T11:34:19.082Z</time>
      </trkpt>
      <trkpt lat="48.45535" lon="7.11652">
        <ele>715</ele>
        <time>2019-05-15T11:34:20.082Z</time>
      </trkpt>
      <trkpt lat="48.45535" lon="7.11652">
        <ele>715</ele>
        <time>2019-05-15T11:34:21.082Z</time>
      </trkpt>
      <trkpt lat="48.45535" lon="7.11652">
        <ele>715</ele>
        <time>2019-05-15T11:34:22.082Z</time>
      </trkpt>
      <trkpt lat="48.45534" lon="7.11652">
        <ele>715</ele>
        <time>2019-05-15T11:34:23.082Z</time>
      </trkpt>
      <trkpt lat="48.45534" lon="7.11652">
        <ele>715</ele>
        <time>2019-05-15T11:34:24.082Z</time>
      </trkpt>
      <trkpt lat="48.45534" lon="7.11652">
        <ele>715</ele>
        <time>2019-05-15T11:34:25.082Z</time>
      </trkpt>
      <trkpt lat="48.45533" lon="7.11652">
        <ele>714</ele>
        <time>2019-05-15T11:34:26.082Z</time>
      </trkpt>
      <trkpt lat="48.45533" lon="7.11652">
        <ele>714</ele>
        <time>2019-05-15T11:34:27.082Z</time>
      </trkpt>
      <trkpt lat="48.45532" lon="7.11651">
        <ele>713</ele>
        <time>2019-05-15T11:34:28.082Z</time>
      </trkpt>
      <trkpt lat="48.45532" lon="7.11651">
        <ele>712</ele>
        <time>2019-05-15T11:34:29.082Z</time>
      </trkpt>
      <trkpt lat="48.45531" lon="7.11651">
        <ele>711</ele>
        <time>2019-05-15T11:34:30.082Z</time>
      </trkpt>
      <trkpt lat="48.4553" lon="7.11651">
        <ele>711</ele>
        <time>2019-05-15T11:34:31.082Z</time>
      </trkpt>
      <trkpt lat="48.45529" lon="7.11651">
        <ele>710</ele>
        <time>2019-05-15T11:34:32.082Z</time>
      </trkpt>
      <trkpt lat="48.45529" lon="7.11651">
        <ele>709</ele>
        <time>2019-05-15T11:34:33.082Z</time>
      </trkpt>
      <trkpt lat="48.45528" lon="7.11651">
        <ele>709</ele>
        <time>2019-05-15T11:34:34.082Z</time>
      </trkpt>
      <trkpt lat="48.45528" lon="7.1165">
        <ele>709</ele>
        <time>2019-05-15T11:34:35.082Z</time>
      </trkpt>
      <trkpt lat="48.45527" lon="7.1165">
        <ele>710</ele>
        <time>2019-05-15T11:34:36.082Z</time>
      </trkpt>
      <trkpt lat="48.45527" lon="7.1165">
        <ele>710</ele>
        <time>2019-05-15T11:34:37.082Z</time>
      </trkpt>
      <trkpt lat="48.45527" lon="7.1165">
        <ele>710</ele>
        <time>2019-05-15T11:34:38.082Z</time>
      </trkpt>
      <trkpt lat="48.45527" lon="7.11649">
        <ele>710</ele>
        <time>2019-05-15T11:34:39.082Z</time>
      </trkpt>
      <trkpt lat="48.45527" lon="7.11649">
        <ele>710</ele>
        <time>2019-05-15T11:34:40.082Z</time>
      </trkpt>
      <trkpt lat="48.45527" lon="7.11649">
        <ele>711</ele>
        <time>2019-05-15T11:34:41.082Z</time>
      </trkpt>
      <trkpt lat="48.45526" lon="7.11649">
        <ele>709</ele>
        <time>2019-05-15T11:34:42.082Z</time>
      </trkpt>
      <trkpt lat="48.45526" lon="7.11649">
        <ele>709</ele>
        <time>2019-05-15T11:34:43.082Z</time>
      </trkpt>
      <trkpt lat="48.45526" lon="7.11649">
        <ele>711</ele>
        <time>2019-05-15T11:34:44.082Z</time>
      </trkpt>
      <trkpt lat="48.45526" lon="7.1165">
        <ele>711</ele>
        <time>2019-05-15T11:34:45.082Z</time>
      </trkpt>
      <trkpt lat="48.45527" lon="7.11651">
        <ele>713</ele>
        <time>2019-05-15T11:34:46.082Z</time>
      </trkpt>
      <trkpt lat="48.45528" lon="7.11652">
        <ele>713</ele>
        <time>2019-05-15T11:34:47.082Z</time>
      </trkpt>
      <trkpt lat="48.45529" lon="7.11652">
        <ele>713</ele>
        <time>2019-05-15T11:34:48.082Z</time>
      </trkpt>
      <trkpt lat="48.4553" lon="7.11653">
        <ele>715</ele>
        <time>2019-05-15T11:34:49.082Z</time>
      </trkpt>
      <trkpt lat="48.45531" lon="7.11654">
        <ele>715</ele>
        <time>2019-05-15T11:34:50.082Z</time>
      </trkpt>
      <trkpt lat="48.45532" lon="7.11655">
        <ele>716</ele>
        <time>2019-05-15T11:34:51.082Z</time>
      </trkpt>
      <trkpt lat="48.45533" lon="7.11656">
        <ele>716</ele>
        <time>2019-05-15T11:34:52.082Z</time>
      </trkpt>
      <trkpt lat="48.45534" lon="7.11657">
        <ele>716</ele>
        <time>2019-05-15T11:34:53.082Z</time>
      </trkpt>
      <trkpt lat="48.45534" lon="7.11659">
        <ele>716</ele>
        <time>2019-05-15T11:34:54.082Z</time>
      </trkpt>
      <trkpt lat="48.45535" lon="7.11659">
        <ele>716</ele>
        <time>2019-05-15T11:34:55.082Z</time>
      </trkpt>
      <trkpt lat="48.45536" lon="7.1166">
        <ele>716</ele>
        <time>2019-05-15T11:34:56.082Z</time>
      </trkpt>
      <trkpt lat="48.45537" lon="7.11661">
        <ele>715</ele>
        <time>2019-05-15T11:34:57.082Z</time>
      </trkpt>
      <trkpt lat="48.45538" lon="7.11662">
        <ele>714</ele>
        <time>2019-05-15T11:34:58.082Z</time>
      </trkpt>
      <trkpt lat="48.45539" lon="7.11663">
        <ele>714</ele>
        <time>2019-05-15T11:34:59.082Z</time>
      </trkpt>
      <trkpt lat="48.4554" lon="7.11664">
        <ele>713</ele>
        <time>2019-05-15T11:35:00.082Z</time>
      </trkpt>
      <trkpt lat="48.45541" lon="7.11665">
        <ele>713</ele>
        <time>2019-05-15T11:35:01.082Z</time>
      </trkpt>
      <trkpt lat="48.45542" lon="7.11667">
        <ele>712</ele>
        <time>2019-05-15T11:35:02.082Z</time>
      </trkpt>
      <trkpt lat="48.45543" lon="7.11668">
        <ele>712</ele>
        <time>2019-05-15T11:35:03.082Z</time>
      </trkpt>
      <trkpt lat="48.45543" lon="7.11669">
        <ele>712</ele>
        <time>2019-05-15T11:35:04.082Z</time>
      </trkpt>
      <trkpt lat="48.45544" lon="7.1167">
        <ele>712</ele>
        <time>2019-05-15T11:35:05.082Z</time>
      </trkpt>
      <trkpt lat="48.45544" lon="7.11671">
        <ele>711</ele>
        <time>2019-05-15T11:35:06.082Z</time>
      </trkpt>
      <trkpt lat="48.45545" lon="7.11673">
        <ele>711</ele>
        <time>2019-05-15T11:35:07.082Z</time>
      </trkpt>
      <trkpt lat="48.45545" lon="7.11674">
        <ele>710</ele>
        <time>2019-05-15T11:35:08.082Z</time>
      </trkpt>
      <trkpt lat="48.45546" lon="7.11676">
        <ele>711</ele>
        <time>2019-05-15T11:35:09.082Z</time>
      </trkpt>
      <trkpt lat="48.45547" lon="7.11677">
        <ele>711</ele>
        <time>2019-05-15T11:35:10.082Z</time>
      </trkpt>
      <trkpt lat="48.45548" lon="7.11679">
        <ele>712</ele>
        <time>2019-05-15T11:35:11.082Z</time>
      </trkpt>
      <trkpt lat="48.45548" lon="7.1168">
        <ele>712</ele>
        <time>2019-05-15T11:35:12.082Z</time>
      </trkpt>
      <trkpt lat="48.45549" lon="7.11681">
        <ele>712</ele>
        <time>2019-05-15T11:35:13.082Z</time>
      </trkpt>
      <trkpt lat="48.45549" lon="7.11682">
        <ele>712</ele>
        <time>2019-05-15T11:35:14.082Z</time>
      </trkpt>
      <trkpt lat="48.4555" lon="7.11683">
        <ele>712</ele>
        <time>2019-05-15T11:35:15.082Z</time>
      </trkpt>
      <trkpt lat="48.4555" lon="7.11684">
        <ele>712</ele>
        <time>2019-05-15T11:35:16.082Z</time>
      </trkpt>
      <trkpt lat="48.45551" lon="7.11685">
        <ele>712</ele>
        <time>2019-05-15T11:35:17.082Z</time>
      </trkpt>
      <trkpt lat="48.45552" lon="7.11687">
        <ele>713</ele>
        <time>2019-05-15T11:35:18.082Z</time>
      </trkpt>
      <trkpt lat="48.45553" lon="7.11688">
        <ele>713</ele>
        <time>2019-05-15T11:35:19.082Z</time>
      </trkpt>
      <trkpt lat="48.45554" lon="7.1169">
        <ele>713</ele>
        <time>2019-05-15T11:35:20.082Z</time>
      </trkpt>
      <trkpt lat="48.45555" lon="7.11692">
        <ele>713</ele>
        <time>2019-05-15T11:35:21.082Z</time>
      </trkpt>
      <trkpt lat="48.45556" lon="7.11693">
        <ele>713</ele>
        <time>2019-05-15T11:35:22.082Z</time>
      </trkpt>
      <trkpt lat="48.45557" lon="7.11695">
        <ele>714</ele>
        <time>2019-05-15T11:35:23.082Z</time>
      </trkpt>
      <trkpt lat="48.45558" lon="7.11696">
        <ele>714</ele>
        <time>2019-05-15T11:35:24.082Z</time>
      </trkpt>
      <trkpt lat="48.45559" lon="7.11697">
        <ele>714</ele>
        <time>2019-05-15T11:35:25.082Z</time>
      </trkpt>
      <trkpt lat="48.4556" lon="7.11699">
        <ele>714</ele>
        <time>2019-05-15T11:35:26.082Z</time>
      </trkpt>
      <trkpt lat="48.45561" lon="7.117">
        <ele>714</ele>
        <time>2019-05-15T11:35:27.082Z</time>
      </trkpt>
      <trkpt lat="48.45562" lon="7.11702">
        <ele>714</ele>
        <time>2019-05-15T11:35:28.082Z</time>
      </trkpt>
      <trkpt lat="48.45563" lon="7.11703">
        <ele>714</ele>
        <time>2019-05-15T11:35:29.082Z</time>
      </trkpt>
      <trkpt lat="48.45563" lon="7.11704">
        <ele>714</ele>
        <time>2019-05-15T11:35:30.082Z</time>
      </trkpt>
      <trkpt lat="48.45563" lon="7.11706">
        <ele>714</ele>
        <time>2019-05-15T11:35:31.082Z</time>
      </trkpt>
      <trkpt lat="48.45563" lon="7.11707">
        <ele>713</ele>
        <time>2019-05-15T11:35:32.082Z</time>
      </trkpt>
      <trkpt lat="48.45564" lon="7.11709">
        <ele>714</ele>
        <time>2019-05-15T11:35:33.082Z</time>
      </trkpt>
      <trkpt lat="48.45564" lon="7.11711">
        <ele>715</ele>
        <time>2019-05-15T11:35:34.082Z</time>
      </trkpt>
      <trkpt lat="48.45565" lon="7.11712">
        <ele>715</ele>
        <time>2019-05-15T11:35:35.082Z</time>
      </trkpt>
      <trkpt lat="48.45565" lon="7.11714">
        <ele>714</ele>
        <time>2019-05-15T11:35:36.082Z</time>
      </trkpt>
      <trkpt lat="48.45566" lon="7.11715">
        <ele>714</ele>
        <time>2019-05-15T11:35:37.082Z</time>
      </trkpt>
      <trkpt lat="48.45566" lon="7.11717">
        <ele>713</ele>
        <time>2019-05-15T11:35:38.082Z</time>
      </trkpt>
      <trkpt lat="48.45566" lon="7.11719">
        <ele>712</ele>
        <time>2019-05-15T11:35:39.082Z</time>
      </trkpt>
      <trkpt lat="48.45566" lon="7.11721">
        <ele>712</ele>
        <time>2019-05-15T11:35:40.082Z</time>
      </trkpt>
      <trkpt lat="48.45566" lon="7.11722">
        <ele>712</ele>
        <time>2019-05-15T11:35:41.082Z</time>
      </trkpt>
      <trkpt lat="48.45567" lon="7.11724">
        <ele>712</ele>
        <time>2019-05-15T11:35:42.082Z</time>
      </trkpt>
      <trkpt lat="48.45567" lon="7.11725">
        <ele>711</ele>
        <time>2019-05-15T11:35:43.082Z</time>
      </trkpt>
      <trkpt lat="48.45567" lon="7.11726">
        <ele>709</ele>
        <time>2019-05-15T11:35:44.082Z</time>
      </trkpt>
      <trkpt lat="48.45567" lon="7.11728">
        <ele>708</ele>
        <time>2019-05-15T11:35:45.082Z</time>
      </trkpt>
      <trkpt lat="48.45567" lon="7.1173">
        <ele>708</ele>
        <time>2019-05-15T11:35:46.082Z</time>
      </trkpt>
      <trkpt lat="48.45568" lon="7.11732">
        <ele>708</ele>
        <time>2019-05-15T11:35:47.082Z</time>
      </trkpt>
      <trkpt lat="48.45568" lon="7.11734">
        <ele>708</ele>
        <time>2019-05-15T11:35:48.082Z</time>
      </trkpt>
      <trkpt lat="48.45568" lon="7.11736">
        <ele>708</ele>
        <time>2019-05-15T11:35:49.082Z</time>
      </trkpt>
      <trkpt lat="48.45568" lon="7.11738">
        <ele>707</ele>
        <time>2019-05-15T11:35:50.082Z</time>
      </trkpt>
      <trkpt lat="48.45568" lon="7.11739">
        <ele>707</ele>
        <time>2019-05-15T11:35:51.082Z</time>
      </trkpt>
      <trkpt lat="48.45569" lon="7.11741">
        <ele>708</ele>
        <time>2019-05-15T11:35:52.082Z</time>
      </trkpt>
      <trkpt lat="48.45569" lon="7.11742">
        <ele>708</ele>
        <time>2019-05-15T11:35:53.082Z</time>
      </trkpt>
      <trkpt lat="48.4557" lon="7.11744">
        <ele>708</ele>
        <time>2019-05-15T11:35:54.082Z</time>
      </trkpt>
      <trkpt lat="48.45571" lon="7.11745">
        <ele>708</ele>
        <time>2019-05-15T11:35:55.082Z</time>
      </trkpt>
      <trkpt lat="48.45571" lon="7.11747">
        <ele>708</ele>
        <time>2019-05-15T11:35:56.082Z</time>
      </trkpt>
      <trkpt lat="48.45572" lon="7.11748">
        <ele>707</ele>
        <time>2019-05-15T11:35:57.082Z</time>
      </trkpt>
      <trkpt lat="48.45572" lon="7.1175">
        <ele>706</ele>
        <time>2019-05-15T11:35:58.082Z</time>
      </trkpt>
      <trkpt lat="48.45572" lon="7.11752">
        <ele>706</ele>
        <time>2019-05-15T11:35:59.082Z</time>
      </trkpt>
      <trkpt lat="48.45571" lon="7.11754">
        <ele>706</ele>
        <time>2019-05-15T11:36:00.082Z</time>
      </trkpt>
      <trkpt lat="48.45571" lon="7.11756">
        <ele>705</ele>
        <time>2019-05-15T11:36:01.082Z</time>
      </trkpt>
      <trkpt lat="48.45571" lon="7.11758">
        <ele>706</ele>
        <time>2019-05-15T11:36:02.082Z</time>
      </trkpt>
      <trkpt lat="48.45571" lon="7.1176">
        <ele>706</ele>
        <time>2019-05-15T11:36:03.082Z</time>
      </trkpt>
      <trkpt lat="48.45571" lon="7.11761">
        <ele>706</ele>
        <time>2019-05-15T11:36:04.082Z</time>
      </trkpt>
      <trkpt lat="48.45572" lon="7.11763">
        <ele>706</ele>
        <time>2019-05-15T11:36:05.082Z</time>
      </trkpt>
      <trkpt lat="48.45572" lon="7.11765">
        <ele>706</ele>
        <time>2019-05-15T11:36:06.082Z</time>
      </trkpt>
      <trkpt lat="48.45573" lon="7.11766">
        <ele>706</ele>
        <time>2019-05-15T11:36:07.082Z</time>
      </trkpt>
      <trkpt lat="48.45573" lon="7.11768">
        <ele>706</ele>
        <time>2019-05-15T11:36:08.082Z</time>
      </trkpt>
      <trkpt lat="48.45573" lon="7.1177">
        <ele>706</ele>
        <time>2019-05-15T11:36:09.082Z</time>
      </trkpt>
      <trkpt lat="48.45574" lon="7.11771">
        <ele>706</ele>
        <time>2019-05-15T11:36:10.082Z</time>
      </trkpt>
      <trkpt lat="48.45575" lon="7.11773">
        <ele>707</ele>
        <time>2019-05-15T11:36:11.082Z</time>
      </trkpt>
      <trkpt lat="48.45576" lon="7.11775">
        <ele>707</ele>
        <time>2019-05-15T11:36:12.082Z</time>
      </trkpt>
      <trkpt lat="48.45577" lon="7.11776">
        <ele>707</ele>
        <time>2019-05-15T11:36:13.082Z</time>
      </trkpt>
      <trkpt lat="48.45577" lon="7.11778">
        <ele>707</ele>
        <time>2019-05-15T11:36:14.082Z</time>
      </trkpt>
      <trkpt lat="48.45578" lon="7.1178">
        <ele>707</ele>
        <time>2019-05-15T11:36:15.082Z</time>
      </trkpt>
      <trkpt lat="48.45578" lon="7.11782">
        <ele>707</ele>
        <time>2019-05-15T11:36:16.082Z</time>
      </trkpt>
      <trkpt lat="48.45579" lon="7.11783">
        <ele>707</ele>
        <time>2019-05-15T11:36:17.082Z</time>
      </trkpt>
      <trkpt lat="48.4558" lon="7.11785">
        <ele>707</ele>
        <time>2019-05-15T11:36:18.082Z</time>
      </trkpt>
      <trkpt lat="48.4558" lon="7.11786">
        <ele>708</ele>
        <time>2019-05-15T11:36:19.082Z</time>
      </trkpt>
      <trkpt lat="48.45581" lon="7.11788">
        <ele>708</ele>
        <time>2019-05-15T11:36:20.082Z</time>
      </trkpt>
      <trkpt lat="48.45581" lon="7.1179">
        <ele>709</ele>
        <time>2019-05-15T11:36:21.082Z</time>
      </trkpt>
      <trkpt lat="48.45582" lon="7.11791">
        <ele>709</ele>
        <time>2019-05-15T11:36:22.082Z</time>
      </trkpt>
      <trkpt lat="48.45582" lon="7.11793">
        <ele>708</ele>
        <time>2019-05-15T11:36:23.082Z</time>
      </trkpt>
      <trkpt lat="48.45583" lon="7.11794">
        <ele>708</ele>
        <time>2019-05-15T11:36:24.082Z</time>
      </trkpt>
      <trkpt lat="48.45583" lon="7.11796">
        <ele>708</ele>
        <time>2019-05-15T11:36:25.082Z</time>
      </trkpt>
      <trkpt lat="48.45583" lon="7.11798">
        <ele>708</ele>
        <time>2019-05-15T11:36:26.082Z</time>
      </trkpt>
      <trkpt lat="48.45583" lon="7.11799">
        <ele>708</ele>
        <time>2019-05-15T11:36:27.082Z</time>
      </trkpt>
      <trkpt lat="48.45584" lon="7.11801">
        <ele>708</ele>
        <time>2019-05-15T11:36:28.082Z</time>
      </trkpt>
      <trkpt lat="48.45584" lon="7.11803">
        <ele>709</ele>
        <time>2019-05-15T11:36:29.082Z</time>
      </trkpt>
      <trkpt lat="48.45584" lon="7.11804">
        <ele>709</ele>
        <time>2019-05-15T11:36:30.082Z</time>
      </trkpt>
      <trkpt lat="48.45584" lon="7.11806">
        <ele>709</ele>
        <time>2019-05-15T11:36:31.082Z</time>
      </trkpt>
      <trkpt lat="48.45584" lon="7.11808">
        <ele>708</ele>
        <time>2019-05-15T11:36:32.082Z</time>
      </trkpt>
      <trkpt lat="48.45584" lon="7.11809">
        <ele>709</ele>
        <time>2019-05-15T11:36:33.082Z</time>
      </trkpt>
      <trkpt lat="48.45585" lon="7.1181">
        <ele>709</ele>
        <time>2019-05-15T11:36:34.082Z</time>
      </trkpt>
      <trkpt lat="48.45586" lon="7.11812">
        <ele>709</ele>
        <time>2019-05-15T11:36:35.082Z</time>
      </trkpt>
      <trkpt lat="48.45586" lon="7.11813">
        <ele>709</ele>
        <time>2019-05-15T11:36:36.082Z</time>
      </trkpt>
      <trkpt lat="48.45587" lon="7.11814">
        <ele>709</ele>
        <time>2019-05-15T11:36:37.082Z</time>
      </trkpt>
      <trkpt lat="48.45587" lon="7.11815">
        <ele>709</ele>
        <time>2019-05-15T11:36:38.082Z</time>
      </trkpt>
      <trkpt lat="48.45587" lon="7.11817">
        <ele>709</ele>
        <time>2019-05-15T11:36:39.082Z</time>
      </trkpt>
      <trkpt lat="48.45586" lon="7.11819">
        <ele>709</ele>
        <time>2019-05-15T11:36:40.082Z</time>
      </trkpt>
      <trkpt lat="48.45586" lon="7.1182">
        <ele>708</ele>
        <time>2019-05-15T11:36:41.082Z</time>
      </trkpt>
      <trkpt lat="48.45586" lon="7.11822">
        <ele>708</ele>
        <time>2019-05-15T11:36:42.082Z</time>
      </trkpt>
      <trkpt lat="48.45586" lon="7.11824">
        <ele>708</ele>
        <time>2019-05-15T11:36:43.082Z</time>
      </trkpt>
      <trkpt lat="48.45585" lon="7.11825">
        <ele>707</ele>
        <time>2019-05-15T11:36:44.082Z</time>
      </trkpt>
      <trkpt lat="48.45586" lon="7.11827">
        <ele>707</ele>
        <time>2019-05-15T11:36:45.082Z</time>
      </trkpt>
      <trkpt lat="48.45586" lon="7.11829">
        <ele>707</ele>
        <time>2019-05-15T11:36:46.082Z</time>
      </trkpt>
      <trkpt lat="48.45586" lon="7.1183">
        <ele>707</ele>
        <time>2019-05-15T11:36:47.082Z</time>
      </trkpt>
      <trkpt lat="48.45585" lon="7.11832">
        <ele>707</ele>
        <time>2019-05-15T11:36:48.082Z</time>
      </trkpt>
      <trkpt lat="48.45585" lon="7.11833">
        <ele>707</ele>
        <time>2019-05-15T11:36:49.082Z</time>
      </trkpt>
      <trkpt lat="48.45586" lon="7.11835">
        <ele>707</ele>
        <time>2019-05-15T11:36:50.082Z</time>
      </trkpt>
      <trkpt lat="48.45586" lon="7.11837">
        <ele>706</ele>
        <time>2019-05-15T11:36:51.082Z</time>
      </trkpt>
      <trkpt lat="48.45586" lon="7.11838">
        <ele>706</ele>
        <time>2019-05-15T11:36:52.082Z</time>
      </trkpt>
      <trkpt lat="48.45587" lon="7.1184">
        <ele>706</ele>
        <time>2019-05-15T11:36:53.082Z</time>
      </trkpt>
      <trkpt lat="48.45587" lon="7.11842">
        <ele>706</ele>
        <time>2019-05-15T11:36:54.082Z</time>
      </trkpt>
      <trkpt lat="48.45587" lon="7.11844">
        <ele>707</ele>
        <time>2019-05-15T11:36:55.082Z</time>
      </trkpt>
      <trkpt lat="48.45588" lon="7.11845">
        <ele>707</ele>
        <time>2019-05-15T11:36:56.082Z</time>
      </trkpt>
      <trkpt lat="48.45588" lon="7.11847">
        <ele>707</ele>
        <time>2019-05-15T11:36:57.082Z</time>
      </trkpt>
      <trkpt lat="48.45589" lon="7.11849">
        <ele>706</ele>
        <time>2019-05-15T11:36:58.082Z</time>
      </trkpt>
      <trkpt lat="48.45589" lon="7.11851">
        <ele>706</ele>
        <time>2019-05-15T11:36:59.082Z</time>
      </trkpt>
      <trkpt lat="48.45589" lon="7.11853">
        <ele>706</ele>
        <time>2019-05-15T11:37:00.082Z</time>
      </trkpt>
      <trkpt lat="48.45589" lon="7.11855">
        <ele>706</ele>
        <time>2019-05-15T11:37:01.082Z</time>
      </trkpt>
      <trkpt lat="48.45588" lon="7.11857">
        <ele>706</ele>
        <time>2019-05-15T11:37:02.082Z</time>
      </trkpt>
      <trkpt lat="48.45588" lon="7.11859">
        <ele>706</ele>
        <time>2019-05-15T11:37:03.082Z</time>
      </trkpt>
      <trkpt lat="48.45588" lon="7.11861">
        <ele>706</ele>
        <time>2019-05-15T11:37:04.082Z</time>
      </trkpt>
      <trkpt lat="48.45588" lon="7.11863">
        <ele>706</ele>
        <time>2019-05-15T11:37:05.082Z</time>
      </trkpt>
      <trkpt lat="48.45587" lon="7.11865">
        <ele>705</ele>
        <time>2019-05-15T11:37:06.082Z</time>
      </trkpt>
      <trkpt lat="48.45587" lon="7.11867">
        <ele>705</ele>
        <time>2019-05-15T11:37:07.082Z</time>
      </trkpt>
      <trkpt lat="48.45588" lon="7.11869">
        <ele>704</ele>
        <time>2019-05-15T11:37:08.082Z</time>
      </trkpt>
      <trkpt lat="48.45588" lon="7.1187">
        <ele>704</ele>
        <time>2019-05-15T11:37:09.082Z</time>
      </trkpt>
      <trkpt lat="48.45588" lon="7.11872">
        <ele>704</ele>
        <time>2019-05-15T11:37:10.082Z</time>
      </trkpt>
      <trkpt lat="48.45588" lon="7.11874">
        <ele>705</ele>
        <time>2019-05-15T11:37:11.082Z</time>
      </trkpt>
      <trkpt lat="48.45589" lon="7.11875">
        <ele>704</ele>
        <time>2019-05-15T11:37:12.082Z</time>
      </trkpt>
      <trkpt lat="48.45589" lon="7.11877">
        <ele>704</ele>
        <time>2019-05-15T11:37:13.082Z</time>
      </trkpt>
      <trkpt lat="48.45589" lon="7.11879">
        <ele>704</ele>
        <time>2019-05-15T11:37:14.082Z</time>
      </trkpt>
      <trkpt lat="48.4559" lon="7.1188">
        <ele>704</ele>
        <time>2019-05-15T11:37:15.082Z</time>
      </trkpt>
      <trkpt lat="48.4559" lon="7.11882">
        <ele>704</ele>
        <time>2019-05-15T11:37:16.082Z</time>
      </trkpt>
      <trkpt lat="48.4559" lon="7.11884">
        <ele>704</ele>
        <time>2019-05-15T11:37:17.082Z</time>
      </trkpt>
      <trkpt lat="48.45591" lon="7.11886">
        <ele>704</ele>
        <time>2019-05-15T11:37:18.082Z</time>
      </trkpt>
      <trkpt lat="48.45591" lon="7.11887">
        <ele>703</ele>
        <time>2019-05-15T11:37:19.082Z</time>
      </trkpt>
      <trkpt lat="48.4559" lon="7.1189">
        <ele>704</ele>
        <time>2019-05-15T11:37:20.082Z</time>
      </trkpt>
      <trkpt lat="48.4559" lon="7.11891">
        <ele>704</ele>
        <time>2019-05-15T11:37:21.082Z</time>
      </trkpt>
      <trkpt lat="48.45589" lon="7.11893">
        <ele>704</ele>
        <time>2019-05-15T11:37:22.082Z</time>
      </trkpt>
      <trkpt lat="48.4559" lon="7.11895">
        <ele>703</ele>
        <time>2019-05-15T11:37:23.082Z</time>
      </trkpt>
      <trkpt lat="48.4559" lon="7.11897">
        <ele>703</ele>
        <time>2019-05-15T11:37:24.082Z</time>
      </trkpt>
      <trkpt lat="48.4559" lon="7.11899">
        <ele>703</ele>
        <time>2019-05-15T11:37:25.082Z</time>
      </trkpt>
      <trkpt lat="48.4559" lon="7.11901">
        <ele>702</ele>
        <time>2019-05-15T11:37:26.082Z</time>
      </trkpt>
      <trkpt lat="48.45589" lon="7.11903">
        <ele>702</ele>
        <time>2019-05-15T11:37:27.082Z</time>
      </trkpt>
      <trkpt lat="48.45589" lon="7.11905">
        <ele>702</ele>
        <time>2019-05-15T11:37:28.082Z</time>
      </trkpt>
      <trkpt lat="48.45588" lon="7.11907">
        <ele>701</ele>
        <time>2019-05-15T11:37:29.082Z</time>
      </trkpt>
      <trkpt lat="48.45588" lon="7.11908">
        <ele>701</ele>
        <time>2019-05-15T11:37:30.082Z</time>
      </trkpt>
      <trkpt lat="48.45588" lon="7.1191">
        <ele>701</ele>
        <time>2019-05-15T11:37:31.082Z</time>
      </trkpt>
      <trkpt lat="48.45588" lon="7.11911">
        <ele>701</ele>
        <time>2019-05-15T11:37:32.082Z</time>
      </trkpt>
      <trkpt lat="48.45588" lon="7.11913">
        <ele>701</ele>
        <time>2019-05-15T11:37:33.082Z</time>
      </trkpt>
      <trkpt lat="48.45588" lon="7.11914">
        <ele>700</ele>
        <time>2019-05-15T11:37:34.082Z</time>
      </trkpt>
      <trkpt lat="48.45588" lon="7.11916">
        <ele>700</ele>
        <time>2019-05-15T11:37:35.082Z</time>
      </trkpt>
      <trkpt lat="48.45588" lon="7.11918">
        <ele>700</ele>
        <time>2019-05-15T11:37:36.082Z</time>
      </trkpt>
      <trkpt lat="48.45589" lon="7.1192">
        <ele>700</ele>
        <time>2019-05-15T11:37:37.082Z</time>
      </trkpt>
      <trkpt lat="48.45589" lon="7.11921">
        <ele>700</ele>
        <time>2019-05-15T11:37:38.082Z</time>
      </trkpt>
      <trkpt lat="48.45588" lon="7.11923">
        <ele>700</ele>
        <time>2019-05-15T11:37:39.082Z</time>
      </trkpt>
      <trkpt lat="48.45588" lon="7.11925">
        <ele>699</ele>
        <time>2019-05-15T11:37:40.082Z</time>
      </trkpt>
      <trkpt lat="48.45587" lon="7.11927">
        <ele>699</ele>
        <time>2019-05-15T11:37:41.082Z</time>
      </trkpt>
      <trkpt lat="48.45587" lon="7.11928">
        <ele>700</ele>
        <time>2019-05-15T11:37:42.082Z</time>
      </trkpt>
      <trkpt lat="48.45587" lon="7.1193">
        <ele>700</ele>
        <time>2019-05-15T11:37:43.082Z</time>
      </trkpt>
      <trkpt lat="48.45587" lon="7.11932">
        <ele>699</ele>
        <time>2019-05-15T11:37:44.082Z</time>
      </trkpt>
      <trkpt lat="48.45587" lon="7.11934">
        <ele>700</ele>
        <time>2019-05-15T11:37:45.082Z</time>
      </trkpt>
      <trkpt lat="48.45587" lon="7.11936">
        <ele>700</ele>
        <time>2019-05-15T11:37:46.082Z</time>
      </trkpt>
      <trkpt lat="48.45586" lon="7.11938">
        <ele>700</ele>
        <time>2019-05-15T11:37:47.082Z</time>
      </trkpt>
      <trkpt lat="48.45586" lon="7.1194">
        <ele>700</ele>
        <time>2019-05-15T11:37:48.082Z</time>
      </trkpt>
      <trkpt lat="48.45586" lon="7.11941">
        <ele>700</ele>
        <time>2019-05-15T11:37:49.082Z</time>
      </trkpt>
      <trkpt lat="48.45586" lon="7.11943">
        <ele>699</ele>
        <time>2019-05-15T11:37:50.082Z</time>
      </trkpt>
      <trkpt lat="48.45586" lon="7.11945">
        <ele>699</ele>
        <time>2019-05-15T11:37:51.082Z</time>
      </trkpt>
      <trkpt lat="48.45585" lon="7.11947">
        <ele>699</ele>
        <time>2019-05-15T11:37:52.082Z</time>
      </trkpt>
      <trkpt lat="48.45585" lon="7.11949">
        <ele>698</ele>
        <time>2019-05-15T11:37:53.082Z</time>
      </trkpt>
      <trkpt lat="48.45585" lon="7.1195">
        <ele>698</ele>
        <time>2019-05-15T11:37:54.082Z</time>
      </trkpt>
      <trkpt lat="48.45585" lon="7.11952">
        <ele>698</ele>
        <time>2019-05-15T11:37:55.082Z</time>
      </trkpt>
      <trkpt lat="48.45584" lon="7.11953">
        <ele>697</ele>
        <time>2019-05-15T11:37:56.082Z</time>
      </trkpt>
      <trkpt lat="48.45584" lon="7.11955">
        <ele>697</ele>
        <time>2019-05-15T11:37:57.082Z</time>
      </trkpt>
      <trkpt lat="48.45584" lon="7.11957">
        <ele>698</ele>
        <time>2019-05-15T11:37:58.082Z</time>
      </trkpt>
      <trkpt lat="48.45584" lon="7.11959">
        <ele>698</ele>
        <time>2019-05-15T11:37:59.082Z</time>
      </trkpt>
      <trkpt lat="48.45584" lon="7.11961">
        <ele>698</ele>
        <time>2019-05-15T11:38:00.082Z</time>
      </trkpt>
      <trkpt lat="48.45584" lon="7.11963">
        <ele>699</ele>
        <time>2019-05-15T11:38:01.082Z</time>
      </trkpt>
      <trkpt lat="48.45584" lon="7.11965">
        <ele>699</ele>
        <time>2019-05-15T11:38:02.082Z</time>
      </trkpt>
      <trkpt lat="48.45584" lon="7.11967">
        <ele>699</ele>
        <time>2019-05-15T11:38:03.082Z</time>
      </trkpt>
      <trkpt lat="48.45584" lon="7.11969">
        <ele>699</ele>
        <time>2019-05-15T11:38:04.082Z</time>
      </trkpt>
      <trkpt lat="48.45583" lon="7.1197">
        <ele>698</ele>
        <time>2019-05-15T11:38:05.082Z</time>
      </trkpt>
      <trkpt lat="48.45583" lon="7.11972">
        <ele>698</ele>
        <time>2019-05-15T11:38:06.082Z</time>
      </trkpt>
      <trkpt lat="48.45582" lon="7.11973">
        <ele>697</ele>
        <time>2019-05-15T11:38:07.082Z</time>
      </trkpt>
      <trkpt lat="48.45582" lon="7.11975">
        <ele>697</ele>
        <time>2019-05-15T11:38:08.082Z</time>
      </trkpt>
      <trkpt lat="48.45581" lon="7.11977">
        <ele>697</ele>
        <time>2019-05-15T11:38:09.082Z</time>
      </trkpt>
      <trkpt lat="48.45581" lon="7.11978">
        <ele>697</ele>
        <time>2019-05-15T11:38:10.082Z</time>
      </trkpt>
      <trkpt lat="48.45581" lon="7.1198">
        <ele>696</ele>
        <time>2019-05-15T11:38:11.082Z</time>
      </trkpt>
      <trkpt lat="48.45581" lon="7.11982">
        <ele>696</ele>
        <time>2019-05-15T11:38:12.082Z</time>
      </trkpt>
      <trkpt lat="48.4558" lon="7.11984">
        <ele>695</ele>
        <time>2019-05-15T11:38:13.082Z</time>
      </trkpt>
      <trkpt lat="48.4558" lon="7.11985">
        <ele>695</ele>
        <time>2019-05-15T11:38:14.082Z</time>
      </trkpt>
      <trkpt lat="48.45579" lon="7.11987">
        <ele>695</ele>
        <time>2019-05-15T11:38:15.082Z</time>
      </trkpt>
      <trkpt lat="48.45579" lon="7.11989">
        <ele>695</ele>
        <time>2019-05-15T11:38:16.082Z</time>
      </trkpt>
      <trkpt lat="48.45579" lon="7.1199">
        <ele>695</ele>
        <time>2019-05-15T11:38:17.082Z</time>
      </trkpt>
      <trkpt lat="48.45578" lon="7.11992">
        <ele>695</ele>
        <time>2019-05-15T11:38:18.082Z</time>
      </trkpt>
      <trkpt lat="48.45578" lon="7.11994">
        <ele>695</ele>
        <time>2019-05-15T11:38:19.082Z</time>
      </trkpt>
      <trkpt lat="48.45578" lon="7.11996">
        <ele>695</ele>
        <time>2019-05-15T11:38:20.082Z</time>
      </trkpt>
      <trkpt lat="48.45577" lon="7.11998">
        <ele>695</ele>
        <time>2019-05-15T11:38:21.082Z</time>
      </trkpt>
      <trkpt lat="48.45576" lon="7.11999">
        <ele>695</ele>
        <time>2019-05-15T11:38:22.082Z</time>
      </trkpt>
      <trkpt lat="48.45576" lon="7.12001">
        <ele>695</ele>
        <time>2019-05-15T11:38:23.082Z</time>
      </trkpt>
      <trkpt lat="48.45576" lon="7.12003">
        <ele>695</ele>
        <time>2019-05-15T11:38:24.082Z</time>
      </trkpt>
      <trkpt lat="48.45575" lon="7.12005">
        <ele>695</ele>
        <time>2019-05-15T11:38:25.082Z</time>
      </trkpt>
      <trkpt lat="48.45575" lon="7.12007">
        <ele>695</ele>
        <time>2019-05-15T11:38:26.082Z</time>
      </trkpt>
      <trkpt lat="48.45575" lon="7.12008">
        <ele>695</ele>
        <time>2019-05-15T11:38:27.082Z</time>
      </trkpt>
      <trkpt lat="48.45575" lon="7.1201">
        <ele>696</ele>
        <time>2019-05-15T11:38:28.082Z</time>
      </trkpt>
      <trkpt lat="48.45574" lon="7.12012">
        <ele>695</ele>
        <time>2019-05-15T11:38:29.082Z</time>
      </trkpt>
      <trkpt lat="48.45574" lon="7.12013">
        <ele>695</ele>
        <time>2019-05-15T11:38:30.082Z</time>
      </trkpt>
      <trkpt lat="48.45573" lon="7.12015">
        <ele>694</ele>
        <time>2019-05-15T11:38:31.082Z</time>
      </trkpt>
      <trkpt lat="48.45572" lon="7.12016">
        <ele>694</ele>
        <time>2019-05-15T11:38:32.082Z</time>
      </trkpt>
      <trkpt lat="48.45572" lon="7.12017">
        <ele>694</ele>
        <time>2019-05-15T11:38:33.082Z</time>
      </trkpt>
      <trkpt lat="48.45571" lon="7.12019">
        <ele>694</ele>
        <time>2019-05-15T11:38:34.082Z</time>
      </trkpt>
      <trkpt lat="48.45571" lon="7.1202">
        <ele>693</ele>
        <time>2019-05-15T11:38:35.082Z</time>
      </trkpt>
      <trkpt lat="48.4557" lon="7.12021">
        <ele>693</ele>
        <time>2019-05-15T11:38:36.082Z</time>
      </trkpt>
      <trkpt lat="48.4557" lon="7.12022">
        <ele>693</ele>
        <time>2019-05-15T11:38:37.082Z</time>
      </trkpt>
      <trkpt lat="48.4557" lon="7.12024">
        <ele>693</ele>
        <time>2019-05-15T11:38:38.082Z</time>
      </trkpt>
      <trkpt lat="48.45569" lon="7.12025">
        <ele>692</ele>
        <time>2019-05-15T11:38:39.082Z</time>
      </trkpt>
      <trkpt lat="48.45569" lon="7.12026">
        <ele>692</ele>
        <time>2019-05-15T11:38:40.082Z</time>
      </trkpt>
      <trkpt lat="48.45568" lon="7.12026">
        <ele>692</ele>
        <time>2019-05-15T11:38:41.082Z</time>
      </trkpt>
      <trkpt lat="48.45567" lon="7.12027">
        <ele>692</ele>
        <time>2019-05-15T11:38:42.082Z</time>
      </trkpt>
      <trkpt lat="48.45566" lon="7.12027">
        <ele>692</ele>
        <time>2019-05-15T11:38:43.082Z</time>
      </trkpt>
      <trkpt lat="48.45566" lon="7.12028">
        <ele>692</ele>
        <time>2019-05-15T11:38:44.082Z</time>
      </trkpt>
      <trkpt lat="48.45565" lon="7.12028">
        <ele>691</ele>
        <time>2019-05-15T11:38:45.082Z</time>
      </trkpt>
      <trkpt lat="48.45564" lon="7.12027">
        <ele>691</ele>
        <time>2019-05-15T11:38:46.082Z</time>
      </trkpt>
      <trkpt lat="48.45564" lon="7.12026">
        <ele>691</ele>
        <time>2019-05-15T11:38:47.082Z</time>
      </trkpt>
      <trkpt lat="48.45564" lon="7.12025">
        <ele>692</ele>
        <time>2019-05-15T11:38:48.082Z</time>
      </trkpt>
      <trkpt lat="48.45563" lon="7.12025">
        <ele>691</ele>
        <time>2019-05-15T11:38:49.082Z</time>
      </trkpt>
      <trkpt lat="48.45563" lon="7.12025">
        <ele>691</ele>
        <time>2019-05-15T11:38:50.082Z</time>
      </trkpt>
      <trkpt lat="48.45563" lon="7.12025">
        <ele>692</ele>
        <time>2019-05-15T11:38:51.082Z</time>
      </trkpt>
      <trkpt lat="48.45563" lon="7.12025">
        <ele>692</ele>
        <time>2019-05-15T11:38:52.082Z</time>
      </trkpt>
      <trkpt lat="48.45562" lon="7.12025">
        <ele>693</ele>
        <time>2019-05-15T11:38:53.082Z</time>
      </trkpt>
      <trkpt lat="48.45562" lon="7.12025">
        <ele>693</ele>
        <time>2019-05-15T11:38:54.082Z</time>
      </trkpt>
      <trkpt lat="48.45562" lon="7.12025">
        <ele>693</ele>
        <time>2019-05-15T11:38:55.082Z</time>
      </trkpt>
      <trkpt lat="48.45561" lon="7.12024">
        <ele>692</ele>
        <time>2019-05-15T11:38:56.082Z</time>
      </trkpt>
      <trkpt lat="48.45561" lon="7.12024">
        <ele>692</ele>
        <time>2019-05-15T11:38:57.082Z</time>
      </trkpt>
      <trkpt lat="48.45561" lon="7.12024">
        <ele>693</ele>
        <time>2019-05-15T11:38:58.082Z</time>
      </trkpt>
      <trkpt lat="48.4556" lon="7.12024">
        <ele>693</ele>
        <time>2019-05-15T11:38:59.082Z</time>
      </trkpt>
      <trkpt lat="48.4556" lon="7.12025">
        <ele>693</ele>
        <time>2019-05-15T11:39:00.082Z</time>
      </trkpt>
      <trkpt lat="48.4556" lon="7.12025">
        <ele>693</ele>
        <time>2019-05-15T11:39:01.082Z</time>
      </trkpt>
      <trkpt lat="48.4556" lon="7.12026">
        <ele>693</ele>
        <time>2019-05-15T11:39:02.082Z</time>
      </trkpt>
      <trkpt lat="48.4556" lon="7.12026">
        <ele>693</ele>
        <time>2019-05-15T11:39:03.082Z</time>
      </trkpt>
      <trkpt lat="48.45559" lon="7.12026">
        <ele>693</ele>
        <time>2019-05-15T11:39:04.082Z</time>
      </trkpt>
      <trkpt lat="48.45559" lon="7.12026">
        <ele>693</ele>
        <time>2019-05-15T11:39:05.082Z</time>
      </trkpt>
      <trkpt lat="48.45559" lon="7.12026">
        <ele>693</ele>
        <time>2019-05-15T11:39:06.082Z</time>
      </trkpt>
      <trkpt lat="48.45559" lon="7.12026">
        <ele>694</ele>
        <time>2019-05-15T11:39:07.082Z</time>
      </trkpt>
      <trkpt lat="48.45559" lon="7.12026">
        <ele>694</ele>
        <time>2019-05-15T11:39:08.082Z</time>
      </trkpt>
      <trkpt lat="48.45559" lon="7.12026">
        <ele>694</ele>
        <time>2019-05-15T11:39:09.082Z</time>
      </trkpt>
      <trkpt lat="48.45559" lon="7.12026">
        <ele>694</ele>
        <time>2019-05-15T11:39:10.082Z</time>
      </trkpt>
      <trkpt lat="48.45559" lon="7.12026">
        <ele>694</ele>
        <time>2019-05-15T11:39:11.082Z</time>
      </trkpt>
      <trkpt lat="48.45559" lon="7.12026">
        <ele>695</ele>
        <time>2019-05-15T11:39:12.082Z</time>
      </trkpt>
      <trkpt lat="48.45559" lon="7.12025">
        <ele>695</ele>
        <time>2019-05-15T11:39:13.082Z</time>
      </trkpt>
      <trkpt lat="48.45559" lon="7.12025">
        <ele>695</ele>
        <time>2019-05-15T11:39:14.082Z</time>
      </trkpt>
      <trkpt lat="48.45559" lon="7.12025">
        <ele>696</ele>
        <time>2019-05-15T11:39:15.082Z</time>
      </trkpt>
      <trkpt lat="48.45559" lon="7.12025">
        <ele>696</ele>
        <time>2019-05-15T11:39:16.082Z</time>
      </trkpt>
      <trkpt lat="48.45559" lon="7.12025">
        <ele>696</ele>
        <time>2019-05-15T11:39:17.082Z</time>
      </trkpt>
      <trkpt lat="48.45559" lon="7.12025">
        <ele>697</ele>
        <time>2019-05-15T11:39:18.082Z</time>
      </trkpt>
      <trkpt lat="48.45559" lon="7.12026">
        <ele>697</ele>
        <time>2019-05-15T11:39:19.082Z</time>
      </trkpt>
      <trkpt lat="48.45559" lon="7.12026">
        <ele>698</ele>
        <time>2019-05-15T11:39:20.082Z</time>
      </trkpt>
      <trkpt lat="48.4556" lon="7.12026">
        <ele>698</ele>
        <time>2019-05-15T11:39:21.082Z</time>
      </trkpt>
      <trkpt lat="48.4556" lon="7.12026">
        <ele>699</ele>
        <time>2019-05-15T11:39:22.082Z</time>
      </trkpt>
      <trkpt lat="48.4556" lon="7.12026">
        <ele>699</ele>
        <time>2019-05-15T11:39:23.082Z</time>
      </trkpt>
      <trkpt lat="48.4556" lon="7.12026">
        <ele>699</ele>
        <time>2019-05-15T11:39:24.082Z</time>
      </trkpt>
      <trkpt lat="48.4556" lon="7.12026">
        <ele>699</ele>
        <time>2019-05-15T11:39:25.082Z</time>
      </trkpt>
      <trkpt lat="48.45561" lon="7.12026">
        <ele>698</ele>
        <time>2019-05-15T11:39:26.082Z</time>
      </trkpt>
      <trkpt lat="48.45561" lon="7.12027">
        <ele>698</ele>
        <time>2019-05-15T11:39:27.082Z</time>
      </trkpt>
      <trkpt lat="48.45562" lon="7.12027">
        <ele>698</ele>
        <time>2019-05-15T11:39:28.082Z</time>
      </trkpt>
      <trkpt lat="48.45562" lon="7.12027">
        <ele>698</ele>
        <time>2019-05-15T11:39:29.082Z</time>
      </trkpt>
      <trkpt lat="48.45563" lon="7.12028">
        <ele>698</ele>
        <time>2019-05-15T11:39:30.082Z</time>
      </trkpt>
      <trkpt lat="48.45563" lon="7.12028">
        <ele>698</ele>
        <time>2019-05-15T11:39:31.082Z</time>
      </trkpt>
      <trkpt lat="48.45564" lon="7.12027">
        <ele>698</ele>
        <time>2019-05-15T11:39:32.082Z</time>
      </trkpt>
      <trkpt lat="48.45564" lon="7.12027">
        <ele>698</ele>
        <time>2019-05-15T11:39:33.082Z</time>
      </trkpt>
      <trkpt lat="48.45564" lon="7.12026">
        <ele>698</ele>
        <time>2019-05-15T11:39:34.082Z</time>
      </trkpt>
      <trkpt lat="48.45564" lon="7.12026">
        <ele>698</ele>
        <time>2019-05-15T11:39:35.082Z</time>
      </trkpt>
      <trkpt lat="48.45565" lon="7.12025">
        <ele>698</ele>
        <time>2019-05-15T11:39:36.082Z</time>
      </trkpt>
      <trkpt lat="48.45565" lon="7.12024">
        <ele>698</ele>
        <time>2019-05-15T11:39:37.082Z</time>
      </trkpt>
      <trkpt lat="48.45565" lon="7.12023">
        <ele>698</ele>
        <time>2019-05-15T11:39:38.082Z</time>
      </trkpt>
      <trkpt lat="48.45566" lon="7.12023">
        <ele>698</ele>
        <time>2019-05-15T11:39:39.082Z</time>
      </trkpt>
      <trkpt lat="48.45566" lon="7.12023">
        <ele>698</ele>
        <time>2019-05-15T11:39:40.082Z</time>
      </trkpt>
      <trkpt lat="48.45566" lon="7.12022">
        <ele>698</ele>
        <time>2019-05-15T11:39:41.082Z</time>
      </trkpt>
      <trkpt lat="48.45566" lon="7.12022">
        <ele>698</ele>
        <time>2019-05-15T11:39:42.082Z</time>
      </trkpt>
      <trkpt lat="48.45566" lon="7.12021">
        <ele>698</ele>
        <time>2019-05-15T11:39:43.082Z</time>
      </trkpt>
      <trkpt lat="48.45566" lon="7.12021">
        <ele>698</ele>
        <time>2019-05-15T11:39:44.082Z</time>
      </trkpt>
      <trkpt lat="48.45566" lon="7.12021">
        <ele>698</ele>
        <time>2019-05-15T11:39:45.082Z</time>
      </trkpt>
      <trkpt lat="48.45567" lon="7.1202">
        <ele>697</ele>
        <time>2019-05-15T11:39:46.082Z</time>
      </trkpt>
      <trkpt lat="48.45567" lon="7.1202">
        <ele>697</ele>
        <time>2019-05-15T11:39:47.082Z</time>
      </trkpt>
      <trkpt lat="48.45568" lon="7.1202">
        <ele>697</ele>
        <time>2019-05-15T11:39:48.082Z</time>
      </trkpt>
      <trkpt lat="48.45568" lon="7.12021">
        <ele>696</ele>
        <time>2019-05-15T11:39:49.082Z</time>
      </trkpt>
      <trkpt lat="48.45569" lon="7.12021">
        <ele>696</ele>
        <time>2019-05-15T11:39:50.082Z</time>
      </trkpt>
      <trkpt lat="48.45569" lon="7.12022">
        <ele>696</ele>
        <time>2019-05-15T11:39:51.082Z</time>
      </trkpt>
      <trkpt lat="48.45569" lon="7.12024">
        <ele>696</ele>
        <time>2019-05-15T11:39:52.082Z</time>
      </trkpt>
      <trkpt lat="48.4557" lon="7.12025">
        <ele>695</ele>
        <time>2019-05-15T11:39:53.082Z</time>
      </trkpt>
      <trkpt lat="48.4557" lon="7.12027">
        <ele>695</ele>
        <time>2019-05-15T11:39:54.082Z</time>
      </trkpt>
      <trkpt lat="48.4557" lon="7.12028">
        <ele>694</ele>
        <time>2019-05-15T11:39:55.082Z</time>
      </trkpt>
      <trkpt lat="48.45569" lon="7.12029">
        <ele>694</ele>
        <time>2019-05-15T11:39:56.082Z</time>
      </trkpt>
      <trkpt lat="48.45569" lon="7.12031">
        <ele>694</ele>
        <time>2019-05-15T11:39:57.082Z</time>
      </trkpt>
      <trkpt lat="48.45569" lon="7.12032">
        <ele>694</ele>
        <time>2019-05-15T11:39:58.082Z</time>
      </trkpt>
      <trkpt lat="48.45569" lon="7.12032">
        <ele>693</ele>
        <time>2019-05-15T11:39:59.082Z</time>
      </trkpt>
      <trkpt lat="48.45568" lon="7.12033">
        <ele>693</ele>
        <time>2019-05-15T11:40:00.082Z</time>
      </trkpt>
      <trkpt lat="48.45568" lon="7.12033">
        <ele>692</ele>
        <time>2019-05-15T11:40:01.082Z</time>
      </trkpt>
      <trkpt lat="48.45568" lon="7.12034">
        <ele>692</ele>
        <time>2019-05-15T11:40:02.082Z</time>
      </trkpt>
      <trkpt lat="48.45568" lon="7.12034">
        <ele>691</ele>
        <time>2019-05-15T11:40:03.082Z</time>
      </trkpt>
      <trkpt lat="48.45568" lon="7.12034">
        <ele>692</ele>
        <time>2019-05-15T11:40:04.082Z</time>
      </trkpt>
      <trkpt lat="48.45568" lon="7.12035">
        <ele>692</ele>
        <time>2019-05-15T11:40:05.082Z</time>
      </trkpt>
      <trkpt lat="48.45568" lon="7.12035">
        <ele>692</ele>
        <time>2019-05-15T11:40:06.082Z</time>
      </trkpt>
      <trkpt lat="48.45568" lon="7.12036">
        <ele>692</ele>
        <time>2019-05-15T11:40:07.082Z</time>
      </trkpt>
      <trkpt lat="48.45567" lon="7.12036">
        <ele>692</ele>
        <time>2019-05-15T11:40:08.082Z</time>
      </trkpt>
      <trkpt lat="48.45567" lon="7.12036">
        <ele>691</ele>
        <time>2019-05-15T11:40:09.082Z</time>
      </trkpt>
      <trkpt lat="48.45566" lon="7.12037">
        <ele>691</ele>
        <time>2019-05-15T11:40:10.082Z</time>
      </trkpt>
      <trkpt lat="48.45566" lon="7.12037">
        <ele>691</ele>
        <time>2019-05-15T11:40:11.082Z</time>
      </trkpt>
      <trkpt lat="48.45565" lon="7.12038">
        <ele>691</ele>
        <time>2019-05-15T11:40:12.082Z</time>
      </trkpt>
      <trkpt lat="48.45565" lon="7.12038">
        <ele>690</ele>
        <time>2019-05-15T11:40:13.082Z</time>
      </trkpt>
      <trkpt lat="48.45565" lon="7.12038">
        <ele>690</ele>
        <time>2019-05-15T11:40:14.082Z</time>
      </trkpt>
      <trkpt lat="48.45564" lon="7.12039">
        <ele>690</ele>
        <time>2019-05-15T11:40:15.082Z</time>
      </trkpt>
      <trkpt lat="48.45563" lon="7.12039">
        <ele>690</ele>
        <time>2019-05-15T11:40:16.082Z</time>
      </trkpt>
      <trkpt lat="48.45563" lon="7.12039">
        <ele>689</ele>
        <time>2019-05-15T11:40:17.082Z</time>
      </trkpt>
      <trkpt lat="48.45562" lon="7.1204">
        <ele>689</ele>
        <time>2019-05-15T11:40:18.082Z</time>
      </trkpt>
      <trkpt lat="48.45562" lon="7.1204">
        <ele>688</ele>
        <time>2019-05-15T11:40:19.082Z</time>
      </trkpt>
      <trkpt lat="48.45561" lon="7.1204">
        <ele>688</ele>
        <time>2019-05-15T11:40:20.082Z</time>
      </trkpt>
      <trkpt lat="48.45561" lon="7.12041">
        <ele>688</ele>
        <time>2019-05-15T11:40:21.082Z</time>
      </trkpt>
      <trkpt lat="48.4556" lon="7.12041">
        <ele>687</ele>
        <time>2019-05-15T11:40:22.082Z</time>
      </trkpt>
      <trkpt lat="48.4556" lon="7.12041">
        <ele>687</ele>
        <time>2019-05-15T11:40:23.082Z</time>
      </trkpt>
      <trkpt lat="48.4556" lon="7.12041">
        <ele>686</ele>
        <time>2019-05-15T11:40:24.082Z</time>
      </trkpt>
      <trkpt lat="48.4556" lon="7.12041">
        <ele>686</ele>
        <time>2019-05-15T11:40:25.082Z</time>
      </trkpt>
      <trkpt lat="48.4556" lon="7.12041">
        <ele>686</ele>
        <time>2019-05-15T11:40:26.082Z</time>
      </trkpt>
      <trkpt lat="48.4556" lon="7.12041">
        <ele>686</ele>
        <time>2019-05-15T11:40:27.082Z</time>
      </trkpt>
      <trkpt lat="48.45559" lon="7.12041">
        <ele>686</ele>
        <time>2019-05-15T11:40:28.082Z</time>
      </trkpt>
      <trkpt lat="48.45559" lon="7.1204">
        <ele>686</ele>
        <time>2019-05-15T11:40:29.082Z</time>
      </trkpt>
      <trkpt lat="48.45559" lon="7.1204">
        <ele>686</ele>
        <time>2019-05-15T11:40:30.082Z</time>
      </trkpt>
      <trkpt lat="48.45559" lon="7.1204">
        <ele>686</ele>
        <time>2019-05-15T11:40:31.082Z</time>
      </trkpt>
      <trkpt lat="48.45559" lon="7.1204">
        <ele>686</ele>
        <time>2019-05-15T11:40:32.082Z</time>
      </trkpt>
      <trkpt lat="48.4556" lon="7.1204">
        <ele>686</ele>
        <time>2019-05-15T11:40:33.082Z</time>
      </trkpt>
      <trkpt lat="48.4556" lon="7.12041">
        <ele>686</ele>
        <time>2019-05-15T11:40:34.082Z</time>
      </trkpt>
      <trkpt lat="48.4556" lon="7.12041">
        <ele>686</ele>
        <time>2019-05-15T11:40:35.082Z</time>
      </trkpt>
      <trkpt lat="48.45561" lon="7.12042">
        <ele>686</ele>
        <time>2019-05-15T11:40:36.082Z</time>
      </trkpt>
      <trkpt lat="48.45561" lon="7.12042">
        <ele>686</ele>
        <time>2019-05-15T11:40:37.082Z</time>
      </trkpt>
      <trkpt lat="48.45561" lon="7.12042">
        <ele>686</ele>
        <time>2019-05-15T11:40:38.082Z</time>
      </trkpt>
      <trkpt lat="48.45562" lon="7.12042">
        <ele>686</ele>
        <time>2019-05-15T11:40:39.082Z</time>
      </trkpt>
      <trkpt lat="48.45562" lon="7.12042">
        <ele>686</ele>
        <time>2019-05-15T11:40:40.082Z</time>
      </trkpt>
      <trkpt lat="48.45562" lon="7.12043">
        <ele>686</ele>
        <time>2019-05-15T11:40:41.082Z</time>
      </trkpt>
      <trkpt lat="48.45563" lon="7.12043">
        <ele>686</ele>
        <time>2019-05-15T11:40:42.082Z</time>
      </trkpt>
      <trkpt lat="48.45563" lon="7.12044">
        <ele>686</ele>
        <time>2019-05-15T11:40:43.082Z</time>
      </trkpt>
      <trkpt lat="48.45564" lon="7.12045">
        <ele>686</ele>
        <time>2019-05-15T11:40:44.082Z</time>
      </trkpt>
      <trkpt lat="48.45565" lon="7.12045">
        <ele>686</ele>
        <time>2019-05-15T11:40:45.082Z</time>
      </trkpt>
      <trkpt lat="48.45565" lon="7.12046">
        <ele>685</ele>
        <time>2019-05-15T11:40:46.082Z</time>
      </trkpt>
      <trkpt lat="48.45566" lon="7.12046">
        <ele>685</ele>
        <time>2019-05-15T11:40:47.082Z</time>
      </trkpt>
      <trkpt lat="48.45567" lon="7.12046">
        <ele>684</ele>
        <time>2019-05-15T11:40:48.082Z</time>
      </trkpt>
      <trkpt lat="48.45567" lon="7.12047">
        <ele>685</ele>
        <time>2019-05-15T11:40:49.082Z</time>
      </trkpt>
      <trkpt lat="48.45567" lon="7.12047">
        <ele>685</ele>
        <time>2019-05-15T11:40:50.082Z</time>
      </trkpt>
      <trkpt lat="48.45568" lon="7.12047">
        <ele>685</ele>
        <time>2019-05-15T11:40:51.082Z</time>
      </trkpt>
      <trkpt lat="48.45568" lon="7.12048">
        <ele>685</ele>
        <time>2019-05-15T11:40:52.082Z</time>
      </trkpt>
      <trkpt lat="48.45569" lon="7.12048">
        <ele>685</ele>
        <time>2019-05-15T11:40:53.082Z</time>
      </trkpt>
      <trkpt lat="48.45569" lon="7.12049">
        <ele>685</ele>
        <time>2019-05-15T11:40:54.082Z</time>
      </trkpt>
      <trkpt lat="48.4557" lon="7.12049">
        <ele>685</ele>
        <time>2019-05-15T11:40:55.082Z</time>
      </trkpt>
      <trkpt lat="48.4557" lon="7.1205">
        <ele>685</ele>
        <time>2019-05-15T11:40:56.082Z</time>
      </trkpt>
      <trkpt lat="48.45571" lon="7.1205">
        <ele>685</ele>
        <time>2019-05-15T11:40:57.082Z</time>
      </trkpt>
      <trkpt lat="48.45571" lon="7.12051">
        <ele>685</ele>
        <time>2019-05-15T11:40:58.082Z</time>
      </trkpt>
      <trkpt lat="48.45571" lon="7.12051">
        <ele>684</ele>
        <time>2019-05-15T11:40:59.082Z</time>
      </trkpt>
      <trkpt lat="48.45572" lon="7.12052">
        <ele>684</ele>
        <time>2019-05-15T11:41:00.082Z</time>
      </trkpt>
      <trkpt lat="48.45572" lon="7.12053">
        <ele>684</ele>
        <time>2019-05-15T11:41:01.082Z</time>
      </trkpt>
      <trkpt lat="48.45572" lon="7.12054">
        <ele>683</ele>
        <time>2019-05-15T11:41:02.082Z</time>
      </trkpt>
      <trkpt lat="48.45572" lon="7.12055">
        <ele>683</ele>
        <time>2019-05-15T11:41:03.082Z</time>
      </trkpt>
      <trkpt lat="48.45571" lon="7.12055">
        <ele>683</ele>
        <time>2019-05-15T11:41:04.082Z</time>
      </trkpt>
      <trkpt lat="48.4557" lon="7.12055">
        <ele>682</ele>
        <time>2019-05-15T11:41:05.082Z</time>
      </trkpt>
      <trkpt lat="48.4557" lon="7.12055">
        <ele>682</ele>
        <time>2019-05-15T11:41:06.082Z</time>
      </trkpt>
      <trkpt lat="48.45569" lon="7.12056">
        <ele>682</ele>
        <time>2019-05-15T11:41:07.082Z</time>
      </trkpt>
      <trkpt lat="48.45568" lon="7.12056">
        <ele>682</ele>
        <time>2019-05-15T11:41:08.082Z</time>
      </trkpt>
      <trkpt lat="48.45568" lon="7.12056">
        <ele>682</ele>
        <time>2019-05-15T11:41:09.082Z</time>
      </trkpt>
      <trkpt lat="48.45567" lon="7.12057">
        <ele>683</ele>
        <time>2019-05-15T11:41:10.082Z</time>
      </trkpt>
      <trkpt lat="48.45567" lon="7.12057">
        <ele>683</ele>
        <time>2019-05-15T11:41:11.082Z</time>
      </trkpt>
      <trkpt lat="48.45567" lon="7.12057">
        <ele>683</ele>
        <time>2019-05-15T11:41:12.082Z</time>
      </trkpt>
      <trkpt lat="48.45566" lon="7.12057">
        <ele>683</ele>
        <time>2019-05-15T11:41:13.082Z</time>
      </trkpt>
      <trkpt lat="48.45566" lon="7.12057">
        <ele>683</ele>
        <time>2019-05-15T11:41:14.082Z</time>
      </trkpt>
      <trkpt lat="48.45565" lon="7.12058">
        <ele>682</ele>
        <time>2019-05-15T11:41:15.082Z</time>
      </trkpt>
      <trkpt lat="48.45565" lon="7.12058">
        <ele>682</ele>
        <time>2019-05-15T11:41:16.082Z</time>
      </trkpt>
      <trkpt lat="48.45564" lon="7.12058">
        <ele>682</ele>
        <time>2019-05-15T11:41:17.082Z</time>
      </trkpt>
      <trkpt lat="48.45564" lon="7.12058">
        <ele>682</ele>
        <time>2019-05-15T11:41:18.082Z</time>
      </trkpt>
      <trkpt lat="48.45564" lon="7.12058">
        <ele>682</ele>
        <time>2019-05-15T11:41:19.082Z</time>
      </trkpt>
      <trkpt lat="48.45563" lon="7.12058">
        <ele>682</ele>
        <time>2019-05-15T11:41:20.082Z</time>
      </trkpt>
      <trkpt lat="48.45563" lon="7.12058">
        <ele>681</ele>
        <time>2019-05-15T11:41:21.082Z</time>
      </trkpt>
      <trkpt lat="48.45563" lon="7.12059">
        <ele>680</ele>
        <time>2019-05-15T11:41:22.082Z</time>
      </trkpt>
      <trkpt lat="48.45563" lon="7.12059">
        <ele>681</ele>
        <time>2019-05-15T11:41:23.082Z</time>
      </trkpt>
      <trkpt lat="48.45563" lon="7.12059">
        <ele>681</ele>
        <time>2019-05-15T11:41:24.082Z</time>
      </trkpt>
      <trkpt lat="48.45563" lon="7.12059">
        <ele>680</ele>
        <time>2019-05-15T11:41:25.082Z</time>
      </trkpt>
      <trkpt lat="48.45563" lon="7.12059">
        <ele>680</ele>
        <time>2019-05-15T11:41:26.082Z</time>
      </trkpt>
      <trkpt lat="48.45563" lon="7.1206">
        <ele>680</ele>
        <time>2019-05-15T11:41:27.082Z</time>
      </trkpt>
      <trkpt lat="48.45563" lon="7.1206">
        <ele>680</ele>
        <time>2019-05-15T11:41:28.082Z</time>
      </trkpt>
      <trkpt lat="48.45563" lon="7.1206">
        <ele>680</ele>
        <time>2019-05-15T11:41:29.082Z</time>
      </trkpt>
      <trkpt lat="48.45563" lon="7.1206">
        <ele>680</ele>
        <time>2019-05-15T11:41:30.082Z</time>
      </trkpt>
      <trkpt lat="48.45563" lon="7.12061">
        <ele>680</ele>
        <time>2019-05-15T11:41:31.082Z</time>
      </trkpt>
      <trkpt lat="48.45562" lon="7.12061">
        <ele>680</ele>
        <time>2019-05-15T11:41:32.082Z</time>
      </trkpt>
      <trkpt lat="48.45563" lon="7.12062">
        <ele>679</ele>
        <time>2019-05-15T11:41:33.082Z</time>
      </trkpt>
      <trkpt lat="48.45563" lon="7.12063">
        <ele>678</ele>
        <time>2019-05-15T11:41:34.082Z</time>
      </trkpt>
      <trkpt lat="48.45564" lon="7.12063">
        <ele>679</ele>
        <time>2019-05-15T11:41:35.082Z</time>
      </trkpt>
      <trkpt lat="48.45564" lon="7.12064">
        <ele>678</ele>
        <time>2019-05-15T11:41:36.082Z</time>
      </trkpt>
      <trkpt lat="48.45565" lon="7.12065">
        <ele>678</ele>
        <time>2019-05-15T11:41:37.082Z</time>
      </trkpt>
      <trkpt lat="48.45565" lon="7.12065">
        <ele>678</ele>
        <time>2019-05-15T11:41:38.082Z</time>
      </trkpt>
      <trkpt lat="48.45566" lon="7.12066">
        <ele>678</ele>
        <time>2019-05-15T11:41:39.082Z</time>
      </trkpt>
      <trkpt lat="48.45566" lon="7.12066">
        <ele>678</ele>
        <time>2019-05-15T11:41:40.082Z</time>
      </trkpt>
      <trkpt lat="48.45566" lon="7.12067">
        <ele>679</ele>
        <time>2019-05-15T11:41:41.082Z</time>
      </trkpt>
      <trkpt lat="48.45566" lon="7.12067">
        <ele>679</ele>
        <time>2019-05-15T11:41:42.082Z</time>
      </trkpt>
      <trkpt lat="48.45567" lon="7.12068">
        <ele>679</ele>
        <time>2019-05-15T11:41:43.082Z</time>
      </trkpt>
      <trkpt lat="48.45567" lon="7.12069">
        <ele>678</ele>
        <time>2019-05-15T11:41:44.082Z</time>
      </trkpt>
      <trkpt lat="48.45567" lon="7.12069">
        <ele>679</ele>
        <time>2019-05-15T11:41:45.082Z</time>
      </trkpt>
      <trkpt lat="48.45568" lon="7.12068">
        <ele>680</ele>
        <time>2019-05-15T11:41:46.082Z</time>
      </trkpt>
      <trkpt lat="48.45568" lon="7.12068">
        <ele>680</ele>
        <time>2019-05-15T11:41:47.082Z</time>
      </trkpt>
      <trkpt lat="48.45568" lon="7.12069">
        <ele>679</ele>
        <time>2019-05-15T11:41:48.082Z</time>
      </trkpt>
      <trkpt lat="48.45569" lon="7.12069">
        <ele>679</ele>
        <time>2019-05-15T11:41:49.082Z</time>
      </trkpt>
      <trkpt lat="48.45569" lon="7.12069">
        <ele>678</ele>
        <time>2019-05-15T11:41:50.082Z</time>
      </trkpt>
      <trkpt lat="48.45569" lon="7.1207">
        <ele>679</ele>
        <time>2019-05-15T11:41:51.082Z</time>
      </trkpt>
      <trkpt lat="48.45569" lon="7.1207">
        <ele>678</ele>
        <time>2019-05-15T11:41:52.082Z</time>
      </trkpt>
      <trkpt lat="48.45569" lon="7.12071">
        <ele>678</ele>
        <time>2019-05-15T11:41:53.082Z</time>
      </trkpt>
      <trkpt lat="48.45569" lon="7.12071">
        <ele>678</ele>
        <time>2019-05-15T11:41:54.082Z</time>
      </trkpt>
      <trkpt lat="48.4557" lon="7.12071">
        <ele>679</ele>
        <time>2019-05-15T11:41:55.082Z</time>
      </trkpt>
      <trkpt lat="48.4557" lon="7.12072">
        <ele>678</ele>
        <time>2019-05-15T11:41:56.082Z</time>
      </trkpt>
      <trkpt lat="48.4557" lon="7.12072">
        <ele>678</ele>
        <time>2019-05-15T11:41:57.082Z</time>
      </trkpt>
      <trkpt lat="48.4557" lon="7.12072">
        <ele>678</ele>
        <time>2019-05-15T11:41:58.082Z</time>
      </trkpt>
      <trkpt lat="48.4557" lon="7.12072">
        <ele>677</ele>
        <time>2019-05-15T11:41:59.082Z</time>
      </trkpt>
      <trkpt lat="48.4557" lon="7.12073">
        <ele>677</ele>
        <time>2019-05-15T11:42:00.082Z</time>
      </trkpt>
      <trkpt lat="48.4557" lon="7.12073">
        <ele>676</ele>
        <time>2019-05-15T11:42:01.082Z</time>
      </trkpt>
      <trkpt lat="48.45571" lon="7.12074">
        <ele>675</ele>
        <time>2019-05-15T11:42:02.082Z</time>
      </trkpt>
      <trkpt lat="48.45571" lon="7.12074">
        <ele>675</ele>
        <time>2019-05-15T11:42:03.082Z</time>
      </trkpt>
      <trkpt lat="48.45571" lon="7.12075">
        <ele>675</ele>
        <time>2019-05-15T11:42:04.082Z</time>
      </trkpt>
      <trkpt lat="48.45571" lon="7.12076">
        <ele>675</ele>
        <time>2019-05-15T11:42:05.082Z</time>
      </trkpt>
      <trkpt lat="48.45571" lon="7.12077">
        <ele>675</ele>
        <time>2019-05-15T11:42:06.082Z</time>
      </trkpt>
      <trkpt lat="48.45571" lon="7.12078">
        <ele>675</ele>
        <time>2019-05-15T11:42:07.082Z</time>
      </trkpt>
      <trkpt lat="48.45571" lon="7.12079">
        <ele>676</ele>
        <time>2019-05-15T11:42:08.082Z</time>
      </trkpt>
      <trkpt lat="48.45571" lon="7.1208">
        <ele>676</ele>
        <time>2019-05-15T11:42:09.082Z</time>
      </trkpt>
      <trkpt lat="48.45571" lon="7.12081">
        <ele>676</ele>
        <time>2019-05-15T11:42:10.082Z</time>
      </trkpt>
      <trkpt lat="48.45572" lon="7.12081">
        <ele>676</ele>
        <time>2019-05-15T11:42:11.082Z</time>
      </trkpt>
      <trkpt lat="48.45572" lon="7.12082">
        <ele>675</ele>
        <time>2019-05-15T11:42:12.082Z</time>
      </trkpt>
      <trkpt lat="48.45572" lon="7.12083">
        <ele>675</ele>
        <time>2019-05-15T11:42:13.082Z</time>
      </trkpt>
      <trkpt lat="48.45572" lon="7.12083">
        <ele>675</ele>
        <time>2019-05-15T11:42:14.082Z</time>
      </trkpt>
      <trkpt lat="48.45572" lon="7.12084">
        <ele>675</ele>
        <time>2019-05-15T11:42:15.082Z</time>
      </trkpt>
      <trkpt lat="48.45572" lon="7.12084">
        <ele>675</ele>
        <time>2019-05-15T11:42:16.082Z</time>
      </trkpt>
      <trkpt lat="48.45573" lon="7.12085">
        <ele>675</ele>
        <time>2019-05-15T11:42:17.082Z</time>
      </trkpt>
      <trkpt lat="48.45573" lon="7.12085">
        <ele>675</ele>
        <time>2019-05-15T11:42:18.082Z</time>
      </trkpt>
      <trkpt lat="48.45573" lon="7.12086">
        <ele>674</ele>
        <time>2019-05-15T11:42:19.082Z</time>
      </trkpt>
      <trkpt lat="48.45574" lon="7.12087">
        <ele>674</ele>
        <time>2019-05-15T11:42:20.082Z</time>
      </trkpt>
      <trkpt lat="48.45574" lon="7.12088">
        <ele>674</ele>
        <time>2019-05-15T11:42:21.082Z</time>
      </trkpt>
      <trkpt lat="48.45574" lon="7.12089">
        <ele>674</ele>
        <time>2019-05-15T11:42:22.082Z</time>
      </trkpt>
      <trkpt lat="48.45575" lon="7.1209">
        <ele>674</ele>
        <time>2019-05-15T11:42:23.082Z</time>
      </trkpt>
      <trkpt lat="48.45575" lon="7.12091">
        <ele>674</ele>
        <time>2019-05-15T11:42:24.082Z</time>
      </trkpt>
      <trkpt lat="48.45575" lon="7.12092">
        <ele>674</ele>
        <time>2019-05-15T11:42:25.082Z</time>
      </trkpt>
      <trkpt lat="48.45576" lon="7.12093">
        <ele>673</ele>
        <time>2019-05-15T11:42:26.082Z</time>
      </trkpt>
      <trkpt lat="48.45576" lon="7.12094">
        <ele>672</ele>
        <time>2019-05-15T11:42:27.082Z</time>
      </trkpt>
      <trkpt lat="48.45577" lon="7.12095">
        <ele>671</ele>
        <time>2019-05-15T11:42:28.082Z</time>
      </trkpt>
      <trkpt lat="48.45577" lon="7.12096">
        <ele>671</ele>
        <time>2019-05-15T11:42:29.082Z</time>
      </trkpt>
      <trkpt lat="48.45578" lon="7.12097">
        <ele>671</ele>
        <time>2019-05-15T11:42:30.082Z</time>
      </trkpt>
      <trkpt lat="48.45579" lon="7.12098">
        <ele>671</ele>
        <time>2019-05-15T11:42:31.082Z</time>
      </trkpt>
      <trkpt lat="48.45579" lon="7.121">
        <ele>671</ele>
        <time>2019-05-15T11:42:32.082Z</time>
      </trkpt>
      <trkpt lat="48.45579" lon="7.12101">
        <ele>670</ele>
        <time>2019-05-15T11:42:33.082Z</time>
      </trkpt>
      <trkpt lat="48.4558" lon="7.12102">
        <ele>670</ele>
        <time>2019-05-15T11:42:34.082Z</time>
      </trkpt>
      <trkpt lat="48.4558" lon="7.12103">
        <ele>670</ele>
        <time>2019-05-15T11:42:35.082Z</time>
      </trkpt>
      <trkpt lat="48.4558" lon="7.12103">
        <ele>671</ele>
        <time>2019-05-15T11:42:36.082Z</time>
      </trkpt>
      <trkpt lat="48.4558" lon="7.12104">
        <ele>670</ele>
        <time>2019-05-15T11:42:37.082Z</time>
      </trkpt>
      <trkpt lat="48.4558" lon="7.12105">
        <ele>670</ele>
        <time>2019-05-15T11:42:38.082Z</time>
      </trkpt>
      <trkpt lat="48.4558" lon="7.12105">
        <ele>670</ele>
        <time>2019-05-15T11:42:39.082Z</time>
      </trkpt>
      <trkpt lat="48.45579" lon="7.12106">
        <ele>669</ele>
        <time>2019-05-15T11:42:40.082Z</time>
      </trkpt>
      <trkpt lat="48.45579" lon="7.12106">
        <ele>669</ele>
        <time>2019-05-15T11:42:41.082Z</time>
      </trkpt>
      <trkpt lat="48.45579" lon="7.12107">
        <ele>669</ele>
        <time>2019-05-15T11:42:42.082Z</time>
      </trkpt>
      <trkpt lat="48.45579" lon="7.12107">
        <ele>669</ele>
        <time>2019-05-15T11:42:43.082Z</time>
      </trkpt>
      <trkpt lat="48.45579" lon="7.12107">
        <ele>669</ele>
        <time>2019-05-15T11:42:44.082Z</time>
      </trkpt>
      <trkpt lat="48.45579" lon="7.12107">
        <ele>669</ele>
        <time>2019-05-15T11:42:45.082Z</time>
      </trkpt>
      <trkpt lat="48.45579" lon="7.12108">
        <ele>668</ele>
        <time>2019-05-15T11:42:46.082Z</time>
      </trkpt>
      <trkpt lat="48.45579" lon="7.12108">
        <ele>668</ele>
        <time>2019-05-15T11:42:47.082Z</time>
      </trkpt>
      <trkpt lat="48.45579" lon="7.12109">
        <ele>667</ele>
        <time>2019-05-15T11:42:48.082Z</time>
      </trkpt>
      <trkpt lat="48.45579" lon="7.1211">
        <ele>666</ele>
        <time>2019-05-15T11:42:49.082Z</time>
      </trkpt>
      <trkpt lat="48.45579" lon="7.1211">
        <ele>666</ele>
        <time>2019-05-15T11:42:50.082Z</time>
      </trkpt>
      <trkpt lat="48.45578" lon="7.12111">
        <ele>666</ele>
        <time>2019-05-15T11:42:51.082Z</time>
      </trkpt>
      <trkpt lat="48.45578" lon="7.12111">
        <ele>666</ele>
        <time>2019-05-15T11:42:52.082Z</time>
      </trkpt>
      <trkpt lat="48.45577" lon="7.12111">
        <ele>666</ele>
        <time>2019-05-15T11:42:53.082Z</time>
      </trkpt>
      <trkpt lat="48.45576" lon="7.12112">
        <ele>666</ele>
        <time>2019-05-15T11:42:54.082Z</time>
      </trkpt>
      <trkpt lat="48.45575" lon="7.12112">
        <ele>666</ele>
        <time>2019-05-15T11:42:55.082Z</time>
      </trkpt>
      <trkpt lat="48.45575" lon="7.12112">
        <ele>666</ele>
        <time>2019-05-15T11:42:56.082Z</time>
      </trkpt>
      <trkpt lat="48.45574" lon="7.12112">
        <ele>666</ele>
        <time>2019-05-15T11:42:57.082Z</time>
      </trkpt>
      <trkpt lat="48.45574" lon="7.12112">
        <ele>666</ele>
        <time>2019-05-15T11:42:58.082Z</time>
      </trkpt>
      <trkpt lat="48.45573" lon="7.12112">
        <ele>666</ele>
        <time>2019-05-15T11:42:59.082Z</time>
      </trkpt>
      <trkpt lat="48.45573" lon="7.12112">
        <ele>666</ele>
        <time>2019-05-15T11:43:00.082Z</time>
      </trkpt>
      <trkpt lat="48.45573" lon="7.12113">
        <ele>666</ele>
        <time>2019-05-15T11:43:01.082Z</time>
      </trkpt>
      <trkpt lat="48.45573" lon="7.12113">
        <ele>666</ele>
        <time>2019-05-15T11:43:02.082Z</time>
      </trkpt>
      <trkpt lat="48.45573" lon="7.12113">
        <ele>665</ele>
        <time>2019-05-15T11:43:03.082Z</time>
      </trkpt>
      <trkpt lat="48.45573" lon="7.12113">
        <ele>665</ele>
        <time>2019-05-15T11:43:04.082Z</time>
      </trkpt>
      <trkpt lat="48.45572" lon="7.12114">
        <ele>665</ele>
        <time>2019-05-15T11:43:05.082Z</time>
      </trkpt>
      <trkpt lat="48.45572" lon="7.12114">
        <ele>665</ele>
        <time>2019-05-15T11:43:06.082Z</time>
      </trkpt>
      <trkpt lat="48.45571" lon="7.12114">
        <ele>665</ele>
        <time>2019-05-15T11:43:07.082Z</time>
      </trkpt>
      <trkpt lat="48.45571" lon="7.12114">
        <ele>664</ele>
        <time>2019-05-15T11:43:08.082Z</time>
      </trkpt>
      <trkpt lat="48.45571" lon="7.12114">
        <ele>664</ele>
        <time>2019-05-15T11:43:09.082Z</time>
      </trkpt>
      <trkpt lat="48.45571" lon="7.12115">
        <ele>664</ele>
        <time>2019-05-15T11:43:10.082Z</time>
      </trkpt>
      <trkpt lat="48.4557" lon="7.12115">
        <ele>664</ele>
        <time>2019-05-15T11:43:11.082Z</time>
      </trkpt>
      <trkpt lat="48.4557" lon="7.12115">
        <ele>665</ele>
        <time>2019-05-15T11:43:12.082Z</time>
      </trkpt>
      <trkpt lat="48.4557" lon="7.12115">
        <ele>665</ele>
        <time>2019-05-15T11:43:13.082Z</time>
      </trkpt>
      <trkpt lat="48.45571" lon="7.12115">
        <ele>665</ele>
        <time>2019-05-15T11:43:14.082Z</time>
      </trkpt>
      <trkpt lat="48.45571" lon="7.12116">
        <ele>666</ele>
        <time>2019-05-15T11:43:15.082Z</time>
      </trkpt>
      <trkpt lat="48.45571" lon="7.12116">
        <ele>666</ele>
        <time>2019-05-15T11:43:16.082Z</time>
      </trkpt>
      <trkpt lat="48.45571" lon="7.12116">
        <ele>666</ele>
        <time>2019-05-15T11:43:17.082Z</time>
      </trkpt>
      <trkpt lat="48.45571" lon="7.12116">
        <ele>666</ele>
        <time>2019-05-15T11:43:18.082Z</time>
      </trkpt>
      <trkpt lat="48.45571" lon="7.12117">
        <ele>666</ele>
        <time>2019-05-15T11:43:19.082Z</time>
      </trkpt>
      <trkpt lat="48.45571" lon="7.12117">
        <ele>666</ele>
        <time>2019-05-15T11:43:20.082Z</time>
      </trkpt>
      <trkpt lat="48.4557" lon="7.12116">
        <ele>665</ele>
        <time>2019-05-15T11:43:21.082Z</time>
      </trkpt>
      <trkpt lat="48.4557" lon="7.12116">
        <ele>665</ele>
        <time>2019-05-15T11:43:22.082Z</time>
      </trkpt>
      <trkpt lat="48.4557" lon="7.12116">
        <ele>665</ele>
        <time>2019-05-15T11:43:23.082Z</time>
      </trkpt>
      <trkpt lat="48.45569" lon="7.12116">
        <ele>665</ele>
        <time>2019-05-15T11:43:24.082Z</time>
      </trkpt>
      <trkpt lat="48.45569" lon="7.12116">
        <ele>666</ele>
        <time>2019-05-15T11:43:25.082Z</time>
      </trkpt>
      <trkpt lat="48.45569" lon="7.12116">
        <ele>666</ele>
        <time>2019-05-15T11:43:26.082Z</time>
      </trkpt>
      <trkpt lat="48.45569" lon="7.12116">
        <ele>666</ele>
        <time>2019-05-15T11:43:27.082Z</time>
      </trkpt>
      <trkpt lat="48.45568" lon="7.12116">
        <ele>665</ele>
        <time>2019-05-15T11:43:28.082Z</time>
      </trkpt>
      <trkpt lat="48.45568" lon="7.12116">
        <ele>665</ele>
        <time>2019-05-15T11:43:29.082Z</time>
      </trkpt>
      <trkpt lat="48.45568" lon="7.12115">
        <ele>665</ele>
        <time>2019-05-15T11:43:30.082Z</time>
      </trkpt>
      <trkpt lat="48.45567" lon="7.12115">
        <ele>665</ele>
        <time>2019-05-15T11:43:31.082Z</time>
      </trkpt>
      <trkpt lat="48.45566" lon="7.12115">
        <ele>665</ele>
        <time>2019-05-15T11:43:32.082Z</time>
      </trkpt>
      <trkpt lat="48.45565" lon="7.12116">
        <ele>665</ele>
        <time>2019-05-15T11:43:33.082Z</time>
      </trkpt>
      <trkpt lat="48.45565" lon="7.12116">
        <ele>665</ele>
        <time>2019-05-15T11:43:34.082Z</time>
      </trkpt>
      <trkpt lat="48.45564" lon="7.12116">
        <ele>665</ele>
        <time>2019-05-15T11:43:35.082Z</time>
      </trkpt>
      <trkpt lat="48.45564" lon="7.12116">
        <ele>665</ele>
        <time>2019-05-15T11:43:36.082Z</time>
      </trkpt>
      <trkpt lat="48.45564" lon="7.12116">
        <ele>665</ele>
        <time>2019-05-15T11:43:37.082Z</time>
      </trkpt>
      <trkpt lat="48.45564" lon="7.12116">
        <ele>665</ele>
        <time>2019-05-15T11:43:38.082Z</time>
      </trkpt>
      <trkpt lat="48.45563" lon="7.12116">
        <ele>664</ele>
        <time>2019-05-15T11:43:39.082Z</time>
      </trkpt>
      <trkpt lat="48.45563" lon="7.12116">
        <ele>664</ele>
        <time>2019-05-15T11:43:40.082Z</time>
      </trkpt>
      <trkpt lat="48.45563" lon="7.12116">
        <ele>664</ele>
        <time>2019-05-15T11:43:41.082Z</time>
      </trkpt>
      <trkpt lat="48.45564" lon="7.12116">
        <ele>664</ele>
        <time>2019-05-15T11:43:42.082Z</time>
      </trkpt>
      <trkpt lat="48.45564" lon="7.12116">
        <ele>664</ele>
        <time>2019-05-15T11:43:43.082Z</time>
      </trkpt>
      <trkpt lat="48.45564" lon="7.12116">
        <ele>664</ele>
        <time>2019-05-15T11:43:44.082Z</time>
      </trkpt>
      <trkpt lat="48.45564" lon="7.12115">
        <ele>664</ele>
        <time>2019-05-15T11:43:45.082Z</time>
      </trkpt>
      <trkpt lat="48.45565" lon="7.12115">
        <ele>665</ele>
        <time>2019-05-15T11:43:46.082Z</time>
      </trkpt>
      <trkpt lat="48.45565" lon="7.12114">
        <ele>664</ele>
        <time>2019-05-15T11:43:47.082Z</time>
      </trkpt>
      <trkpt lat="48.45565" lon="7.12114">
        <ele>664</ele>
        <time>2019-05-15T11:43:48.082Z</time>
      </trkpt>
      <trkpt lat="48.45565" lon="7.12113">
        <ele>664</ele>
        <time>2019-05-15T11:43:49.082Z</time>
      </trkpt>
      <trkpt lat="48.45565" lon="7.12113">
        <ele>664</ele>
        <time>2019-05-15T11:43:50.082Z</time>
      </trkpt>
      <trkpt lat="48.45565" lon="7.12113">
        <ele>664</ele>
        <time>2019-05-15T11:43:51.082Z</time>
      </trkpt>
      <trkpt lat="48.45566" lon="7.12113">
        <ele>663</ele>
        <time>2019-05-15T11:43:52.082Z</time>
      </trkpt>
      <trkpt lat="48.45566" lon="7.12113">
        <ele>664</ele>
        <time>2019-05-15T11:43:53.082Z</time>
      </trkpt>
      <trkpt lat="48.45566" lon="7.12113">
        <ele>663</ele>
        <time>2019-05-15T11:43:54.082Z</time>
      </trkpt>
      <trkpt lat="48.45566" lon="7.12113">
        <ele>663</ele>
        <time>2019-05-15T11:43:55.082Z</time>
      </trkpt>
      <trkpt lat="48.45566" lon="7.12113">
        <ele>663</ele>
        <time>2019-05-15T11:43:56.082Z</time>
      </trkpt>
      <trkpt lat="48.45566" lon="7.12113">
        <ele>663</ele>
        <time>2019-05-15T11:43:57.082Z</time>
      </trkpt>
      <trkpt lat="48.45567" lon="7.12113">
        <ele>663</ele>
        <time>2019-05-15T11:43:58.082Z</time>
      </trkpt>
      <trkpt lat="48.45567" lon="7.12113">
        <ele>663</ele>
        <time>2019-05-15T11:43:59.082Z</time>
      </trkpt>
      <trkpt lat="48.45567" lon="7.12113">
        <ele>663</ele>
        <time>2019-05-15T11:44:00.082Z</time>
      </trkpt>
      <trkpt lat="48.45567" lon="7.12113">
        <ele>663</ele>
        <time>2019-05-15T11:44:01.082Z</time>
      </trkpt>
      <trkpt lat="48.45567" lon="7.12113">
        <ele>663</ele>
        <time>2019-05-15T11:44:02.082Z</time>
      </trkpt>
      <trkpt lat="48.45568" lon="7.12114">
        <ele>663</ele>
        <time>2019-05-15T11:44:03.082Z</time>
      </trkpt>
      <trkpt lat="48.45568" lon="7.12115">
        <ele>664</ele>
        <time>2019-05-15T11:44:04.082Z</time>
      </trkpt>
      <trkpt lat="48.45568" lon="7.12115">
        <ele>664</ele>
        <time>2019-05-15T11:44:05.082Z</time>
      </trkpt>
      <trkpt lat="48.45569" lon="7.12115">
        <ele>664</ele>
        <time>2019-05-15T11:44:06.082Z</time>
      </trkpt>
      <trkpt lat="48.45569" lon="7.12115">
        <ele>664</ele>
        <time>2019-05-15T11:44:07.082Z</time>
      </trkpt>
      <trkpt lat="48.45569" lon="7.12115">
        <ele>665</ele>
        <time>2019-05-15T11:44:08.082Z</time>
      </trkpt>
      <trkpt lat="48.4557" lon="7.12115">
        <ele>665</ele>
        <time>2019-05-15T11:44:09.082Z</time>
      </trkpt>
      <trkpt lat="48.4557" lon="7.12115">
        <ele>665</ele>
        <time>2019-05-15T11:44:10.082Z</time>
      </trkpt>
      <trkpt lat="48.4557" lon="7.12115">
        <ele>666</ele>
        <time>2019-05-15T11:44:11.082Z</time>
      </trkpt>
      <trkpt lat="48.45571" lon="7.12115">
        <ele>666</ele>
        <time>2019-05-15T11:44:12.082Z</time>
      </trkpt>
      <trkpt lat="48.45571" lon="7.12115">
        <ele>667</ele>
        <time>2019-05-15T11:44:13.082Z</time>
      </trkpt>
      <trkpt lat="48.45572" lon="7.12115">
        <ele>666</ele>
        <time>2019-05-15T11:44:14.082Z</time>
      </trkpt>
      <trkpt lat="48.45572" lon="7.12116">
        <ele>666</ele>
        <time>2019-05-15T11:44:15.082Z</time>
      </trkpt>
      <trkpt lat="48.45572" lon="7.12116">
        <ele>665</ele>
        <time>2019-05-15T11:44:16.082Z</time>
      </trkpt>
      <trkpt lat="48.45572" lon="7.12117">
        <ele>665</ele>
        <time>2019-05-15T11:44:17.082Z</time>
      </trkpt>
      <trkpt lat="48.45572" lon="7.12117">
        <ele>665</ele>
        <time>2019-05-15T11:44:18.082Z</time>
      </trkpt>
      <trkpt lat="48.45571" lon="7.12117">
        <ele>664</ele>
        <time>2019-05-15T11:44:19.082Z</time>
      </trkpt>
      <trkpt lat="48.45571" lon="7.12118">
        <ele>664</ele>
        <time>2019-05-15T11:44:20.082Z</time>
      </trkpt>
      <trkpt lat="48.45571" lon="7.12118">
        <ele>664</ele>
        <time>2019-05-15T11:44:21.082Z</time>
      </trkpt>
      <trkpt lat="48.4557" lon="7.12119">
        <ele>664</ele>
        <time>2019-05-15T11:44:22.082Z</time>
      </trkpt>
      <trkpt lat="48.4557" lon="7.12119">
        <ele>664</ele>
        <time>2019-05-15T11:44:23.082Z</time>
      </trkpt>
      <trkpt lat="48.45569" lon="7.12119">
        <ele>664</ele>
        <time>2019-05-15T11:44:24.082Z</time>
      </trkpt>
      <trkpt lat="48.45569" lon="7.12119">
        <ele>663</ele>
        <time>2019-05-15T11:44:25.082Z</time>
      </trkpt>
      <trkpt lat="48.45569" lon="7.12119">
        <ele>663</ele>
        <time>2019-05-15T11:44:26.082Z</time>
      </trkpt>
      <trkpt lat="48.45569" lon="7.1212">
        <ele>663</ele>
        <time>2019-05-15T11:44:27.082Z</time>
      </trkpt>
      <trkpt lat="48.45569" lon="7.1212">
        <ele>663</ele>
        <time>2019-05-15T11:44:28.082Z</time>
      </trkpt>
      <trkpt lat="48.45568" lon="7.1212">
        <ele>663</ele>
        <time>2019-05-15T11:44:29.082Z</time>
      </trkpt>
      <trkpt lat="48.45568" lon="7.12121">
        <ele>662</ele>
        <time>2019-05-15T11:44:30.082Z</time>
      </trkpt>
      <trkpt lat="48.45567" lon="7.12121">
        <ele>662</ele>
        <time>2019-05-15T11:44:31.082Z</time>
      </trkpt>
      <trkpt lat="48.45566" lon="7.12121">
        <ele>662</ele>
        <time>2019-05-15T11:44:32.082Z</time>
      </trkpt>
      <trkpt lat="48.45565" lon="7.12121">
        <ele>662</ele>
        <time>2019-05-15T11:44:33.082Z</time>
      </trkpt>
      <trkpt lat="48.45565" lon="7.12121">
        <ele>661</ele>
        <time>2019-05-15T11:44:34.082Z</time>
      </trkpt>
      <trkpt lat="48.45565" lon="7.12121">
        <ele>661</ele>
        <time>2019-05-15T11:44:35.082Z</time>
      </trkpt>
      <trkpt lat="48.45564" lon="7.12122">
        <ele>661</ele>
        <time>2019-05-15T11:44:36.082Z</time>
      </trkpt>
      <trkpt lat="48.45564" lon="7.12123">
        <ele>661</ele>
        <time>2019-05-15T11:44:37.082Z</time>
      </trkpt>
      <trkpt lat="48.45564" lon="7.12124">
        <ele>661</ele>
        <time>2019-05-15T11:44:38.082Z</time>
      </trkpt>
      <trkpt lat="48.45564" lon="7.12124">
        <ele>661</ele>
        <time>2019-05-15T11:44:39.082Z</time>
      </trkpt>
      <trkpt lat="48.45564" lon="7.12125">
        <ele>661</ele>
        <time>2019-05-15T11:44:40.082Z</time>
      </trkpt>
      <trkpt lat="48.45564" lon="7.12125">
        <ele>661</ele>
        <time>2019-05-15T11:44:41.082Z</time>
      </trkpt>
      <trkpt lat="48.45563" lon="7.12126">
        <ele>661</ele>
        <time>2019-05-15T11:44:42.082Z</time>
      </trkpt>
      <trkpt lat="48.45563" lon="7.12127">
        <ele>661</ele>
        <time>2019-05-15T11:44:43.082Z</time>
      </trkpt>
      <trkpt lat="48.45562" lon="7.12128">
        <ele>661</ele>
        <time>2019-05-15T11:44:44.082Z</time>
      </trkpt>
      <trkpt lat="48.45562" lon="7.12129">
        <ele>661</ele>
        <time>2019-05-15T11:44:45.082Z</time>
      </trkpt>
      <trkpt lat="48.45561" lon="7.1213">
        <ele>661</ele>
        <time>2019-05-15T11:44:46.082Z</time>
      </trkpt>
      <trkpt lat="48.45561" lon="7.1213">
        <ele>661</ele>
        <time>2019-05-15T11:44:47.082Z</time>
      </trkpt>
      <trkpt lat="48.4556" lon="7.12131">
        <ele>662</ele>
        <time>2019-05-15T11:44:48.082Z</time>
      </trkpt>
      <trkpt lat="48.4556" lon="7.12132">
        <ele>662</ele>
        <time>2019-05-15T11:44:49.082Z</time>
      </trkpt>
      <trkpt lat="48.4556" lon="7.12133">
        <ele>662</ele>
        <time>2019-05-15T11:44:50.082Z</time>
      </trkpt>
      <trkpt lat="48.4556" lon="7.12133">
        <ele>662</ele>
        <time>2019-05-15T11:44:51.082Z</time>
      </trkpt>
      <trkpt lat="48.4556" lon="7.12134">
        <ele>662</ele>
        <time>2019-05-15T11:44:52.082Z</time>
      </trkpt>
      <trkpt lat="48.4556" lon="7.12134">
        <ele>662</ele>
        <time>2019-05-15T11:44:53.082Z</time>
      </trkpt>
      <trkpt lat="48.4556" lon="7.12134">
        <ele>662</ele>
        <time>2019-05-15T11:44:54.082Z</time>
      </trkpt>
      <trkpt lat="48.4556" lon="7.12135">
        <ele>661</ele>
        <time>2019-05-15T11:44:55.082Z</time>
      </trkpt>
      <trkpt lat="48.4556" lon="7.12135">
        <ele>661</ele>
        <time>2019-05-15T11:44:56.082Z</time>
      </trkpt>
      <trkpt lat="48.4556" lon="7.12135">
        <ele>661</ele>
        <time>2019-05-15T11:44:57.082Z</time>
      </trkpt>
      <trkpt lat="48.4556" lon="7.12135">
        <ele>660</ele>
        <time>2019-05-15T11:44:58.082Z</time>
      </trkpt>
      <trkpt lat="48.4556" lon="7.12136">
        <ele>660</ele>
        <time>2019-05-15T11:44:59.082Z</time>
      </trkpt>
      <trkpt lat="48.45559" lon="7.12136">
        <ele>660</ele>
        <time>2019-05-15T11:45:00.082Z</time>
      </trkpt>
      <trkpt lat="48.45558" lon="7.12136">
        <ele>660</ele>
        <time>2019-05-15T11:45:01.082Z</time>
      </trkpt>
      <trkpt lat="48.45558" lon="7.12136">
        <ele>660</ele>
        <time>2019-05-15T11:45:02.082Z</time>
      </trkpt>
      <trkpt lat="48.45558" lon="7.12137">
        <ele>660</ele>
        <time>2019-05-15T11:45:03.082Z</time>
      </trkpt>
      <trkpt lat="48.45558" lon="7.12137">
        <ele>660</ele>
        <time>2019-05-15T11:45:04.082Z</time>
      </trkpt>
      <trkpt lat="48.45557" lon="7.12137">
        <ele>660</ele>
        <time>2019-05-15T11:45:05.082Z</time>
      </trkpt>
      <trkpt lat="48.45557" lon="7.12137">
        <ele>660</ele>
        <time>2019-05-15T11:45:06.082Z</time>
      </trkpt>
      <trkpt lat="48.45557" lon="7.12137">
        <ele>659</ele>
        <time>2019-05-15T11:45:07.082Z</time>
      </trkpt>
      <trkpt lat="48.45557" lon="7.12137">
        <ele>658</ele>
        <time>2019-05-15T11:45:08.082Z</time>
      </trkpt>
      <trkpt lat="48.45558" lon="7.12137">
        <ele>657</ele>
        <time>2019-05-15T11:45:09.082Z</time>
      </trkpt>
      <trkpt lat="48.45558" lon="7.12137">
        <ele>657</ele>
        <time>2019-05-15T11:45:10.082Z</time>
      </trkpt>
      <trkpt lat="48.45559" lon="7.12138">
        <ele>657</ele>
        <time>2019-05-15T11:45:11.082Z</time>
      </trkpt>
      <trkpt lat="48.45559" lon="7.12138">
        <ele>657</ele>
        <time>2019-05-15T11:45:12.082Z</time>
      </trkpt>
      <trkpt lat="48.45559" lon="7.12139">
        <ele>657</ele>
        <time>2019-05-15T11:45:13.082Z</time>
      </trkpt>
      <trkpt lat="48.4556" lon="7.12139">
        <ele>657</ele>
        <time>2019-05-15T11:45:14.082Z</time>
      </trkpt>
      <trkpt lat="48.4556" lon="7.1214">
        <ele>657</ele>
        <time>2019-05-15T11:45:15.082Z</time>
      </trkpt>
      <trkpt lat="48.4556" lon="7.1214">
        <ele>657</ele>
        <time>2019-05-15T11:45:16.082Z</time>
      </trkpt>
      <trkpt lat="48.4556" lon="7.12141">
        <ele>657</ele>
        <time>2019-05-15T11:45:17.082Z</time>
      </trkpt>
      <trkpt lat="48.4556" lon="7.12141">
        <ele>656</ele>
        <time>2019-05-15T11:45:18.082Z</time>
      </trkpt>
      <trkpt lat="48.45561" lon="7.12141">
        <ele>656</ele>
        <time>2019-05-15T11:45:19.082Z</time>
      </trkpt>
      <trkpt lat="48.45561" lon="7.12141">
        <ele>656</ele>
        <time>2019-05-15T11:45:20.082Z</time>
      </trkpt>
      <trkpt lat="48.45561" lon="7.12141">
        <ele>655</ele>
        <time>2019-05-15T11:45:21.082Z</time>
      </trkpt>
      <trkpt lat="48.45562" lon="7.12142">
        <ele>655</ele>
        <time>2019-05-15T11:45:22.082Z</time>
      </trkpt>
      <trkpt lat="48.45562" lon="7.12142">
        <ele>655</ele>
        <time>2019-05-15T11:45:23.082Z</time>
      </trkpt>
      <trkpt lat="48.45562" lon="7.12142">
        <ele>655</ele>
        <time>2019-05-15T11:45:24.082Z</time>
      </trkpt>
      <trkpt lat="48.45562" lon="7.12143">
        <ele>655</ele>
        <time>2019-05-15T11:45:25.082Z</time>
      </trkpt>
      <trkpt lat="48.45562" lon="7.12143">
        <ele>655</ele>
        <time>2019-05-15T11:45:26.082Z</time>
      </trkpt>
      <trkpt lat="48.45562" lon="7.12144">
        <ele>655</ele>
        <time>2019-05-15T11:45:27.082Z</time>
      </trkpt>
      <trkpt lat="48.45562" lon="7.12144">
        <ele>656</ele>
        <time>2019-05-15T11:45:28.082Z</time>
      </trkpt>
      <trkpt lat="48.45562" lon="7.12144">
        <ele>656</ele>
        <time>2019-05-15T11:45:29.082Z</time>
      </trkpt>
      <trkpt lat="48.45562" lon="7.12144">
        <ele>656</ele>
        <time>2019-05-15T11:45:30.082Z</time>
      </trkpt>
      <trkpt lat="48.45561" lon="7.12145">
        <ele>656</ele>
        <time>2019-05-15T11:45:31.082Z</time>
      </trkpt>
      <trkpt lat="48.45561" lon="7.12146">
        <ele>656</ele>
        <time>2019-05-15T11:45:32.082Z</time>
      </trkpt>
      <trkpt lat="48.45561" lon="7.12146">
        <ele>656</ele>
        <time>2019-05-15T11:45:33.082Z</time>
      </trkpt>
      <trkpt lat="48.4556" lon="7.12147">
        <ele>656</ele>
        <time>2019-05-15T11:45:34.082Z</time>
      </trkpt>
      <trkpt lat="48.4556" lon="7.12147">
        <ele>656</ele>
        <time>2019-05-15T11:45:35.082Z</time>
      </trkpt>
      <trkpt lat="48.4556" lon="7.12148">
        <ele>656</ele>
        <time>2019-05-15T11:45:36.082Z</time>
      </trkpt>
      <trkpt lat="48.45559" lon="7.12149">
        <ele>656</ele>
        <time>2019-05-15T11:45:37.082Z</time>
      </trkpt>
      <trkpt lat="48.45559" lon="7.1215">
        <ele>657</ele>
        <time>2019-05-15T11:45:38.082Z</time>
      </trkpt>
      <trkpt lat="48.45558" lon="7.12151">
        <ele>657</ele>
        <time>2019-05-15T11:45:39.082Z</time>
      </trkpt>
      <trkpt lat="48.45558" lon="7.12151">
        <ele>657</ele>
        <time>2019-05-15T11:45:40.082Z</time>
      </trkpt>
      <trkpt lat="48.45558" lon="7.12152">
        <ele>657</ele>
        <time>2019-05-15T11:45:41.082Z</time>
      </trkpt>
      <trkpt lat="48.45558" lon="7.12153">
        <ele>658</ele>
        <time>2019-05-15T11:45:42.082Z</time>
      </trkpt>
      <trkpt lat="48.45558" lon="7.12153">
        <ele>658</ele>
        <time>2019-05-15T11:45:43.082Z</time>
      </trkpt>
      <trkpt lat="48.45559" lon="7.12154">
        <ele>659</ele>
        <time>2019-05-15T11:45:44.082Z</time>
      </trkpt>
      <trkpt lat="48.45559" lon="7.12155">
        <ele>659</ele>
        <time>2019-05-15T11:45:45.082Z</time>
      </trkpt>
      <trkpt lat="48.45559" lon="7.12156">
        <ele>660</ele>
        <time>2019-05-15T11:45:46.082Z</time>
      </trkpt>
      <trkpt lat="48.45559" lon="7.12156">
        <ele>659</ele>
        <time>2019-05-15T11:45:47.082Z</time>
      </trkpt>
      <trkpt lat="48.45559" lon="7.12157">
        <ele>659</ele>
        <time>2019-05-15T11:45:48.082Z</time>
      </trkpt>
      <trkpt lat="48.45559" lon="7.12158">
        <ele>659</ele>
        <time>2019-05-15T11:45:49.082Z</time>
      </trkpt>
      <trkpt lat="48.45558" lon="7.12158">
        <ele>659</ele>
        <time>2019-05-15T11:45:50.082Z</time>
      </trkpt>
      <trkpt lat="48.45558" lon="7.12158">
        <ele>658</ele>
        <time>2019-05-15T11:45:51.082Z</time>
      </trkpt>
      <trkpt lat="48.45558" lon="7.12159">
        <ele>659</ele>
        <time>2019-05-15T11:45:52.082Z</time>
      </trkpt>
      <trkpt lat="48.45558" lon="7.12159">
        <ele>659</ele>
        <time>2019-05-15T11:45:53.082Z</time>
      </trkpt>
      <trkpt lat="48.45558" lon="7.12159">
        <ele>659</ele>
        <time>2019-05-15T11:45:54.082Z</time>
      </trkpt>
      <trkpt lat="48.45558" lon="7.12159">
        <ele>659</ele>
        <time>2019-05-15T11:45:55.082Z</time>
      </trkpt>
      <trkpt lat="48.45558" lon="7.12159">
        <ele>660</ele>
        <time>2019-05-15T11:45:56.082Z</time>
      </trkpt>
      <trkpt lat="48.45558" lon="7.1216">
        <ele>660</ele>
        <time>2019-05-15T11:45:57.082Z</time>
      </trkpt>
      <trkpt lat="48.45558" lon="7.12161">
        <ele>660</ele>
        <time>2019-05-15T11:45:58.082Z</time>
      </trkpt>
      <trkpt lat="48.45558" lon="7.12161">
        <ele>661</ele>
        <time>2019-05-15T11:45:59.082Z</time>
      </trkpt>
      <trkpt lat="48.45558" lon="7.12161">
        <ele>661</ele>
        <time>2019-05-15T11:46:00.082Z</time>
      </trkpt>
      <trkpt lat="48.45559" lon="7.12161">
        <ele>662</ele>
        <time>2019-05-15T11:46:01.082Z</time>
      </trkpt>
      <trkpt lat="48.45559" lon="7.12161">
        <ele>662</ele>
        <time>2019-05-15T11:46:02.082Z</time>
      </trkpt>
      <trkpt lat="48.4556" lon="7.12161">
        <ele>662</ele>
        <time>2019-05-15T11:46:03.082Z</time>
      </trkpt>
      <trkpt lat="48.4556" lon="7.12161">
        <ele>662</ele>
        <time>2019-05-15T11:46:04.082Z</time>
      </trkpt>
      <trkpt lat="48.45561" lon="7.12162">
        <ele>663</ele>
        <time>2019-05-15T11:46:05.082Z</time>
      </trkpt>
      <trkpt lat="48.45561" lon="7.12163">
        <ele>663</ele>
        <time>2019-05-15T11:46:06.082Z</time>
      </trkpt>
      <trkpt lat="48.45561" lon="7.12163">
        <ele>663</ele>
        <time>2019-05-15T11:46:07.082Z</time>
      </trkpt>
      <trkpt lat="48.45562" lon="7.12164">
        <ele>664</ele>
        <time>2019-05-15T11:46:08.082Z</time>
      </trkpt>
      <trkpt lat="48.45562" lon="7.12165">
        <ele>664</ele>
        <time>2019-05-15T11:46:09.082Z</time>
      </trkpt>
      <trkpt lat="48.45562" lon="7.12166">
        <ele>665</ele>
        <time>2019-05-15T11:46:10.082Z</time>
      </trkpt>
      <trkpt lat="48.45562" lon="7.12167">
        <ele>665</ele>
        <time>2019-05-15T11:46:11.082Z</time>
      </trkpt>
      <trkpt lat="48.45562" lon="7.12167">
        <ele>665</ele>
        <time>2019-05-15T11:46:12.082Z</time>
      </trkpt>
      <trkpt lat="48.45562" lon="7.12168">
        <ele>664</ele>
        <time>2019-05-15T11:46:13.082Z</time>
      </trkpt>
      <trkpt lat="48.45562" lon="7.12169">
        <ele>664</ele>
        <time>2019-05-15T11:46:14.082Z</time>
      </trkpt>
      <trkpt lat="48.45562" lon="7.1217">
        <ele>665</ele>
        <time>2019-05-15T11:46:15.082Z</time>
      </trkpt>
      <trkpt lat="48.45562" lon="7.12171">
        <ele>664</ele>
        <time>2019-05-15T11:46:16.082Z</time>
      </trkpt>
      <trkpt lat="48.45562" lon="7.12172">
        <ele>664</ele>
        <time>2019-05-15T11:46:17.082Z</time>
      </trkpt>
      <trkpt lat="48.45562" lon="7.12174">
        <ele>664</ele>
        <time>2019-05-15T11:46:18.082Z</time>
      </trkpt>
      <trkpt lat="48.45562" lon="7.12175">
        <ele>664</ele>
        <time>2019-05-15T11:46:19.082Z</time>
      </trkpt>
      <trkpt lat="48.45561" lon="7.12176">
        <ele>664</ele>
        <time>2019-05-15T11:46:20.082Z</time>
      </trkpt>
      <trkpt lat="48.45561" lon="7.12176">
        <ele>665</ele>
        <time>2019-05-15T11:46:21.082Z</time>
      </trkpt>
      <trkpt lat="48.45561" lon="7.12177">
        <ele>665</ele>
        <time>2019-05-15T11:46:22.082Z</time>
      </trkpt>
      <trkpt lat="48.45562" lon="7.12178">
        <ele>664</ele>
        <time>2019-05-15T11:46:23.082Z</time>
      </trkpt>
      <trkpt lat="48.45562" lon="7.12179">
        <ele>664</ele>
        <time>2019-05-15T11:46:24.082Z</time>
      </trkpt>
      <trkpt lat="48.45562" lon="7.1218">
        <ele>663</ele>
        <time>2019-05-15T11:46:25.082Z</time>
      </trkpt>
      <trkpt lat="48.45562" lon="7.12181">
        <ele>663</ele>
        <time>2019-05-15T11:46:26.082Z</time>
      </trkpt>
      <trkpt lat="48.45562" lon="7.12182">
        <ele>663</ele>
        <time>2019-05-15T11:46:27.082Z</time>
      </trkpt>
      <trkpt lat="48.45562" lon="7.12182">
        <ele>663</ele>
        <time>2019-05-15T11:46:28.082Z</time>
      </trkpt>
      <trkpt lat="48.45562" lon="7.12183">
        <ele>663</ele>
        <time>2019-05-15T11:46:29.082Z</time>
      </trkpt>
      <trkpt lat="48.45562" lon="7.12184">
        <ele>664</ele>
        <time>2019-05-15T11:46:30.082Z</time>
      </trkpt>
      <trkpt lat="48.45563" lon="7.12185">
        <ele>664</ele>
        <time>2019-05-15T11:46:31.082Z</time>
      </trkpt>
      <trkpt lat="48.45563" lon="7.12186">
        <ele>664</ele>
        <time>2019-05-15T11:46:32.082Z</time>
      </trkpt>
      <trkpt lat="48.45563" lon="7.12187">
        <ele>664</ele>
        <time>2019-05-15T11:46:33.082Z</time>
      </trkpt>
      <trkpt lat="48.45563" lon="7.12187">
        <ele>664</ele>
        <time>2019-05-15T11:46:34.082Z</time>
      </trkpt>
      <trkpt lat="48.45563" lon="7.12189">
        <ele>664</ele>
        <time>2019-05-15T11:46:35.082Z</time>
      </trkpt>
      <trkpt lat="48.45563" lon="7.1219">
        <ele>664</ele>
        <time>2019-05-15T11:46:36.082Z</time>
      </trkpt>
      <trkpt lat="48.45564" lon="7.12191">
        <ele>663</ele>
        <time>2019-05-15T11:46:37.082Z</time>
      </trkpt>
      <trkpt lat="48.45563" lon="7.12193">
        <ele>663</ele>
        <time>2019-05-15T11:46:38.082Z</time>
      </trkpt>
      <trkpt lat="48.45563" lon="7.12194">
        <ele>663</ele>
        <time>2019-05-15T11:46:39.082Z</time>
      </trkpt>
      <trkpt lat="48.45562" lon="7.12196">
        <ele>663</ele>
        <time>2019-05-15T11:46:40.082Z</time>
      </trkpt>
      <trkpt lat="48.45562" lon="7.12197">
        <ele>663</ele>
        <time>2019-05-15T11:46:41.082Z</time>
      </trkpt>
      <trkpt lat="48.45562" lon="7.12199">
        <ele>663</ele>
        <time>2019-05-15T11:46:42.082Z</time>
      </trkpt>
      <trkpt lat="48.45563" lon="7.122">
        <ele>662</ele>
        <time>2019-05-15T11:46:43.082Z</time>
      </trkpt>
      <trkpt lat="48.45563" lon="7.12201">
        <ele>661</ele>
        <time>2019-05-15T11:46:44.082Z</time>
      </trkpt>
      <trkpt lat="48.45563" lon="7.12202">
        <ele>660</ele>
        <time>2019-05-15T11:46:45.082Z</time>
      </trkpt>
      <trkpt lat="48.45563" lon="7.12204">
        <ele>659</ele>
        <time>2019-05-15T11:46:46.082Z</time>
      </trkpt>
      <trkpt lat="48.45563" lon="7.12205">
        <ele>659</ele>
        <time>2019-05-15T11:46:47.082Z</time>
      </trkpt>
      <trkpt lat="48.45563" lon="7.12206">
        <ele>658</ele>
        <time>2019-05-15T11:46:48.082Z</time>
      </trkpt>
      <trkpt lat="48.45564" lon="7.12208">
        <ele>658</ele>
        <time>2019-05-15T11:46:49.082Z</time>
      </trkpt>
      <trkpt lat="48.45564" lon="7.12209">
        <ele>657</ele>
        <time>2019-05-15T11:46:50.082Z</time>
      </trkpt>
      <trkpt lat="48.45564" lon="7.1221">
        <ele>656</ele>
        <time>2019-05-15T11:46:51.082Z</time>
      </trkpt>
      <trkpt lat="48.45563" lon="7.12211">
        <ele>656</ele>
        <time>2019-05-15T11:46:52.082Z</time>
      </trkpt>
      <trkpt lat="48.45563" lon="7.12212">
        <ele>655</ele>
        <time>2019-05-15T11:46:53.082Z</time>
      </trkpt>
      <trkpt lat="48.45563" lon="7.12213">
        <ele>655</ele>
        <time>2019-05-15T11:46:54.082Z</time>
      </trkpt>
      <trkpt lat="48.45563" lon="7.12213">
        <ele>655</ele>
        <time>2019-05-15T11:46:55.082Z</time>
      </trkpt>
      <trkpt lat="48.45563" lon="7.12214">
        <ele>655</ele>
        <time>2019-05-15T11:46:56.082Z</time>
      </trkpt>
      <trkpt lat="48.45563" lon="7.12214">
        <ele>655</ele>
        <time>2019-05-15T11:46:57.082Z</time>
      </trkpt>
      <trkpt lat="48.45563" lon="7.12214">
        <ele>655</ele>
        <time>2019-05-15T11:46:58.082Z</time>
      </trkpt>
      <trkpt lat="48.45563" lon="7.12215">
        <ele>655</ele>
        <time>2019-05-15T11:46:59.082Z</time>
      </trkpt>
      <trkpt lat="48.45563" lon="7.12215">
        <ele>656</ele>
        <time>2019-05-15T11:47:00.082Z</time>
      </trkpt>
      <trkpt lat="48.45563" lon="7.12215">
        <ele>656</ele>
        <time>2019-05-15T11:47:01.082Z</time>
      </trkpt>
      <trkpt lat="48.45563" lon="7.12215">
        <ele>656</ele>
        <time>2019-05-15T11:47:02.082Z</time>
      </trkpt>
      <trkpt lat="48.45563" lon="7.12215">
        <ele>656</ele>
        <time>2019-05-15T11:47:03.082Z</time>
      </trkpt>
      <trkpt lat="48.45563" lon="7.12215">
        <ele>656</ele>
        <time>2019-05-15T11:47:04.082Z</time>
      </trkpt>
      <trkpt lat="48.45562" lon="7.12215">
        <ele>656</ele>
        <time>2019-05-15T11:47:05.082Z</time>
      </trkpt>
      <trkpt lat="48.45562" lon="7.12216">
        <ele>656</ele>
        <time>2019-05-15T11:47:06.082Z</time>
      </trkpt>
      <trkpt lat="48.45561" lon="7.12216">
        <ele>657</ele>
        <time>2019-05-15T11:47:07.082Z</time>
      </trkpt>
      <trkpt lat="48.45561" lon="7.12216">
        <ele>657</ele>
        <time>2019-05-15T11:47:08.082Z</time>
      </trkpt>
      <trkpt lat="48.45561" lon="7.12216">
        <ele>658</ele>
        <time>2019-05-15T11:47:09.082Z</time>
      </trkpt>
      <trkpt lat="48.45561" lon="7.12216">
        <ele>658</ele>
        <time>2019-05-15T11:47:10.082Z</time>
      </trkpt>
      <trkpt lat="48.4556" lon="7.12216">
        <ele>659</ele>
        <time>2019-05-15T11:47:11.082Z</time>
      </trkpt>
      <trkpt lat="48.4556" lon="7.12217">
        <ele>659</ele>
        <time>2019-05-15T11:47:12.082Z</time>
      </trkpt>
      <trkpt lat="48.45561" lon="7.12217">
        <ele>659</ele>
        <time>2019-05-15T11:47:13.082Z</time>
      </trkpt>
      <trkpt lat="48.45561" lon="7.12218">
        <ele>660</ele>
        <time>2019-05-15T11:47:14.082Z</time>
      </trkpt>
      <trkpt lat="48.45562" lon="7.12218">
        <ele>660</ele>
        <time>2019-05-15T11:47:15.082Z</time>
      </trkpt>
      <trkpt lat="48.45562" lon="7.12219">
        <ele>661</ele>
        <time>2019-05-15T11:47:16.082Z</time>
      </trkpt>
      <trkpt lat="48.45562" lon="7.12219">
        <ele>661</ele>
        <time>2019-05-15T11:47:17.082Z</time>
      </trkpt>
      <trkpt lat="48.45562" lon="7.12219">
        <ele>662</ele>
        <time>2019-05-15T11:47:18.082Z</time>
      </trkpt>
      <trkpt lat="48.45563" lon="7.1222">
        <ele>662</ele>
        <time>2019-05-15T11:47:19.082Z</time>
      </trkpt>
      <trkpt lat="48.45563" lon="7.1222">
        <ele>662</ele>
        <time>2019-05-15T11:47:20.082Z</time>
      </trkpt>
      <trkpt lat="48.45563" lon="7.12221">
        <ele>662</ele>
        <time>2019-05-15T11:47:21.082Z</time>
      </trkpt>
      <trkpt lat="48.45564" lon="7.12221">
        <ele>662</ele>
        <time>2019-05-15T11:47:22.082Z</time>
      </trkpt>
      <trkpt lat="48.45564" lon="7.12222">
        <ele>662</ele>
        <time>2019-05-15T11:47:23.082Z</time>
      </trkpt>
      <trkpt lat="48.45564" lon="7.12222">
        <ele>661</ele>
        <time>2019-05-15T11:47:24.082Z</time>
      </trkpt>
      <trkpt lat="48.45564" lon="7.12222">
        <ele>661</ele>
        <time>2019-05-15T11:47:25.082Z</time>
      </trkpt>
      <trkpt lat="48.45564" lon="7.12222">
        <ele>660</ele>
        <time>2019-05-15T11:47:26.082Z</time>
      </trkpt>
      <trkpt lat="48.45565" lon="7.12222">
        <ele>660</ele>
        <time>2019-05-15T11:47:27.082Z</time>
      </trkpt>
      <trkpt lat="48.45565" lon="7.12222">
        <ele>659</ele>
        <time>2019-05-15T11:47:28.082Z</time>
      </trkpt>
      <trkpt lat="48.45565" lon="7.12222">
        <ele>659</ele>
        <time>2019-05-15T11:47:29.082Z</time>
      </trkpt>
      <trkpt lat="48.45566" lon="7.12223">
        <ele>658</ele>
        <time>2019-05-15T11:47:30.082Z</time>
      </trkpt>
      <trkpt lat="48.45566" lon="7.12222">
        <ele>658</ele>
        <time>2019-05-15T11:47:31.082Z</time>
      </trkpt>
      <trkpt lat="48.45566" lon="7.12222">
        <ele>658</ele>
        <time>2019-05-15T11:47:32.082Z</time>
      </trkpt>
      <trkpt lat="48.45566" lon="7.12222">
        <ele>658</ele>
        <time>2019-05-15T11:47:33.082Z</time>
      </trkpt>
      <trkpt lat="48.45566" lon="7.12221">
        <ele>658</ele>
        <time>2019-05-15T11:47:34.082Z</time>
      </trkpt>
      <trkpt lat="48.45565" lon="7.12221">
        <ele>658</ele>
        <time>2019-05-15T11:47:35.082Z</time>
      </trkpt>
      <trkpt lat="48.45565" lon="7.1222">
        <ele>658</ele>
        <time>2019-05-15T11:47:36.082Z</time>
      </trkpt>
      <trkpt lat="48.45565" lon="7.1222">
        <ele>658</ele>
        <time>2019-05-15T11:47:37.082Z</time>
      </trkpt>
      <trkpt lat="48.45565" lon="7.1222">
        <ele>657</ele>
        <time>2019-05-15T11:47:38.082Z</time>
      </trkpt>
      <trkpt lat="48.45565" lon="7.1222">
        <ele>657</ele>
        <time>2019-05-15T11:47:39.082Z</time>
      </trkpt>
      <trkpt lat="48.45564" lon="7.1222">
        <ele>657</ele>
        <time>2019-05-15T11:47:40.082Z</time>
      </trkpt>
      <trkpt lat="48.45564" lon="7.12221">
        <ele>657</ele>
        <time>2019-05-15T11:47:41.082Z</time>
      </trkpt>
      <trkpt lat="48.45564" lon="7.12221">
        <ele>657</ele>
        <time>2019-05-15T11:47:42.082Z</time>
      </trkpt>
      <trkpt lat="48.45564" lon="7.12221">
        <ele>657</ele>
        <time>2019-05-15T11:47:43.082Z</time>
      </trkpt>
      <trkpt lat="48.45565" lon="7.12221">
        <ele>657</ele>
        <time>2019-05-15T11:47:44.082Z</time>
      </trkpt>
      <trkpt lat="48.45565" lon="7.12221">
        <ele>657</ele>
        <time>2019-05-15T11:47:45.082Z</time>
      </trkpt>
      <trkpt lat="48.45565" lon="7.12222">
        <ele>658</ele>
        <time>2019-05-15T11:47:46.082Z</time>
      </trkpt>
      <trkpt lat="48.45565" lon="7.12222">
        <ele>658</ele>
        <time>2019-05-15T11:47:47.082Z</time>
      </trkpt>
      <trkpt lat="48.45566" lon="7.12223">
        <ele>658</ele>
        <time>2019-05-15T11:47:48.082Z</time>
      </trkpt>
      <trkpt lat="48.45566" lon="7.12223">
        <ele>658</ele>
        <time>2019-05-15T11:47:49.082Z</time>
      </trkpt>
      <trkpt lat="48.45566" lon="7.12224">
        <ele>658</ele>
        <time>2019-05-15T11:47:50.082Z</time>
      </trkpt>
      <trkpt lat="48.45566" lon="7.12224">
        <ele>657</ele>
        <time>2019-05-15T11:47:51.082Z</time>
      </trkpt>
      <trkpt lat="48.45566" lon="7.12225">
        <ele>657</ele>
        <time>2019-05-15T11:47:52.082Z</time>
      </trkpt>
      <trkpt lat="48.45565" lon="7.12225">
        <ele>657</ele>
        <time>2019-05-15T11:47:53.082Z</time>
      </trkpt>
      <trkpt lat="48.45565" lon="7.12226">
        <ele>656</ele>
        <time>2019-05-15T11:47:54.082Z</time>
      </trkpt>
      <trkpt lat="48.45566" lon="7.12226">
        <ele>656</ele>
        <time>2019-05-15T11:47:55.082Z</time>
      </trkpt>
      <trkpt lat="48.45566" lon="7.12227">
        <ele>656</ele>
        <time>2019-05-15T11:47:56.082Z</time>
      </trkpt>
      <trkpt lat="48.45566" lon="7.12228">
        <ele>657</ele>
        <time>2019-05-15T11:47:57.082Z</time>
      </trkpt>
      <trkpt lat="48.45566" lon="7.12228">
        <ele>656</ele>
        <time>2019-05-15T11:47:58.082Z</time>
      </trkpt>
      <trkpt lat="48.45566" lon="7.12229">
        <ele>656</ele>
        <time>2019-05-15T11:47:59.082Z</time>
      </trkpt>
      <trkpt lat="48.45566" lon="7.1223">
        <ele>655</ele>
        <time>2019-05-15T11:48:00.082Z</time>
      </trkpt>
      <trkpt lat="48.45566" lon="7.12231">
        <ele>654</ele>
        <time>2019-05-15T11:48:01.082Z</time>
      </trkpt>
      <trkpt lat="48.45566" lon="7.12231">
        <ele>654</ele>
        <time>2019-05-15T11:48:02.082Z</time>
      </trkpt>
      <trkpt lat="48.45566" lon="7.12232">
        <ele>654</ele>
        <time>2019-05-15T11:48:03.082Z</time>
      </trkpt>
      <trkpt lat="48.45565" lon="7.12233">
        <ele>654</ele>
        <time>2019-05-15T11:48:04.082Z</time>
      </trkpt>
      <trkpt lat="48.45565" lon="7.12233">
        <ele>654</ele>
        <time>2019-05-15T11:48:05.082Z</time>
      </trkpt>
      <trkpt lat="48.45565" lon="7.12234">
        <ele>654</ele>
        <time>2019-05-15T11:48:06.082Z</time>
      </trkpt>
      <trkpt lat="48.45565" lon="7.12234">
        <ele>653</ele>
        <time>2019-05-15T11:48:07.082Z</time>
      </trkpt>
      <trkpt lat="48.45565" lon="7.12234">
        <ele>653</ele>
        <time>2019-05-15T11:48:08.082Z</time>
      </trkpt>
      <trkpt lat="48.45566" lon="7.12234">
        <ele>652</ele>
        <time>2019-05-15T11:48:09.082Z</time>
      </trkpt>
      <trkpt lat="48.45566" lon="7.12234">
        <ele>652</ele>
        <time>2019-05-15T11:48:10.082Z</time>
      </trkpt>
      <trkpt lat="48.45566" lon="7.12235">
        <ele>652</ele>
        <time>2019-05-15T11:48:11.082Z</time>
      </trkpt>
      <trkpt lat="48.45567" lon="7.12235">
        <ele>651</ele>
        <time>2019-05-15T11:48:12.082Z</time>
      </trkpt>
      <trkpt lat="48.45567" lon="7.12235">
        <ele>651</ele>
        <time>2019-05-15T11:48:13.082Z</time>
      </trkpt>
      <trkpt lat="48.45567" lon="7.12235">
        <ele>651</ele>
        <time>2019-05-15T11:48:14.082Z</time>
      </trkpt>
      <trkpt lat="48.45567" lon="7.12235">
        <ele>651</ele>
        <time>2019-05-15T11:48:15.082Z</time>
      </trkpt>
      <trkpt lat="48.45567" lon="7.12235">
        <ele>651</ele>
        <time>2019-05-15T11:48:16.082Z</time>
      </trkpt>
      <trkpt lat="48.45567" lon="7.12236">
        <ele>651</ele>
        <time>2019-05-15T11:48:17.082Z</time>
      </trkpt>
      <trkpt lat="48.45568" lon="7.12236">
        <ele>650</ele>
        <time>2019-05-15T11:48:18.082Z</time>
      </trkpt>
      <trkpt lat="48.45568" lon="7.12236">
        <ele>651</ele>
        <time>2019-05-15T11:48:19.082Z</time>
      </trkpt>
      <trkpt lat="48.45568" lon="7.12236">
        <ele>651</ele>
        <time>2019-05-15T11:48:20.082Z</time>
      </trkpt>
      <trkpt lat="48.45568" lon="7.12236">
        <ele>651</ele>
        <time>2019-05-15T11:48:21.082Z</time>
      </trkpt>
      <trkpt lat="48.45568" lon="7.12236">
        <ele>651</ele>
        <time>2019-05-15T11:48:22.082Z</time>
      </trkpt>
      <trkpt lat="48.45568" lon="7.12236">
        <ele>650</ele>
        <time>2019-05-15T11:48:23.082Z</time>
      </trkpt>
      <trkpt lat="48.45567" lon="7.12235">
        <ele>650</ele>
        <time>2019-05-15T11:48:24.082Z</time>
      </trkpt>
      <trkpt lat="48.45567" lon="7.12235">
        <ele>650</ele>
        <time>2019-05-15T11:48:25.082Z</time>
      </trkpt>
      <trkpt lat="48.45567" lon="7.12235">
        <ele>650</ele>
        <time>2019-05-15T11:48:26.082Z</time>
      </trkpt>
      <trkpt lat="48.45567" lon="7.12235">
        <ele>650</ele>
        <time>2019-05-15T11:48:27.082Z</time>
      </trkpt>
      <trkpt lat="48.45567" lon="7.12235">
        <ele>651</ele>
        <time>2019-05-15T11:48:28.082Z</time>
      </trkpt>
      <trkpt lat="48.45566" lon="7.12235">
        <ele>651</ele>
        <time>2019-05-15T11:48:29.082Z</time>
      </trkpt>
      <trkpt lat="48.45566" lon="7.12236">
        <ele>652</ele>
        <time>2019-05-15T11:48:30.082Z</time>
      </trkpt>
      <trkpt lat="48.45566" lon="7.12236">
        <ele>652</ele>
        <time>2019-05-15T11:48:31.082Z</time>
      </trkpt>
      <trkpt lat="48.45565" lon="7.12236">
        <ele>652</ele>
        <time>2019-05-15T11:48:32.082Z</time>
      </trkpt>
      <trkpt lat="48.45565" lon="7.12237">
        <ele>652</ele>
        <time>2019-05-15T11:48:33.082Z</time>
      </trkpt>
      <trkpt lat="48.45565" lon="7.12237">
        <ele>652</ele>
        <time>2019-05-15T11:48:34.082Z</time>
      </trkpt>
      <trkpt lat="48.45564" lon="7.12237">
        <ele>653</ele>
        <time>2019-05-15T11:48:35.082Z</time>
      </trkpt>
      <trkpt lat="48.45564" lon="7.12237">
        <ele>653</ele>
        <time>2019-05-15T11:48:36.082Z</time>
      </trkpt>
      <trkpt lat="48.45564" lon="7.12237">
        <ele>653</ele>
        <time>2019-05-15T11:48:37.082Z</time>
      </trkpt>
      <trkpt lat="48.45564" lon="7.12237">
        <ele>653</ele>
        <time>2019-05-15T11:48:38.082Z</time>
      </trkpt>
      <trkpt lat="48.45564" lon="7.12237">
        <ele>653</ele>
        <time>2019-05-15T11:48:39.082Z</time>
      </trkpt>
      <trkpt lat="48.45564" lon="7.12237">
        <ele>653</ele>
        <time>2019-05-15T11:48:40.082Z</time>
      </trkpt>
      <trkpt lat="48.45563" lon="7.12237">
        <ele>653</ele>
        <time>2019-05-15T11:48:41.082Z</time>
      </trkpt>
      <trkpt lat="48.45563" lon="7.12237">
        <ele>653</ele>
        <time>2019-05-15T11:48:42.082Z</time>
      </trkpt>
      <trkpt lat="48.45563" lon="7.12237">
        <ele>652</ele>
        <time>2019-05-15T11:48:43.082Z</time>
      </trkpt>
      <trkpt lat="48.45564" lon="7.12238">
        <ele>652</ele>
        <time>2019-05-15T11:48:44.082Z</time>
      </trkpt>
      <trkpt lat="48.45564" lon="7.12238">
        <ele>652</ele>
        <time>2019-05-15T11:48:45.082Z</time>
      </trkpt>
      <trkpt lat="48.45564" lon="7.12238">
        <ele>652</ele>
        <time>2019-05-15T11:48:46.082Z</time>
      </trkpt>
      <trkpt lat="48.45564" lon="7.12238">
        <ele>652</ele>
        <time>2019-05-15T11:48:47.082Z</time>
      </trkpt>
      <trkpt lat="48.45564" lon="7.12238">
        <ele>652</ele>
        <time>2019-05-15T11:48:48.082Z</time>
      </trkpt>
      <trkpt lat="48.45564" lon="7.12238">
        <ele>651</ele>
        <time>2019-05-15T11:48:49.082Z</time>
      </trkpt>
      <trkpt lat="48.45564" lon="7.12238">
        <ele>651</ele>
        <time>2019-05-15T11:48:50.082Z</time>
      </trkpt>
      <trkpt lat="48.45564" lon="7.12238">
        <ele>651</ele>
        <time>2019-05-15T11:48:51.082Z</time>
      </trkpt>
      <trkpt lat="48.45564" lon="7.12238">
        <ele>651</ele>
        <time>2019-05-15T11:48:52.082Z</time>
      </trkpt>
      <trkpt lat="48.45564" lon="7.12238">
        <ele>650</ele>
        <time>2019-05-15T11:48:53.082Z</time>
      </trkpt>
      <trkpt lat="48.45563" lon="7.12237">
        <ele>650</ele>
        <time>2019-05-15T11:48:54.082Z</time>
      </trkpt>
      <trkpt lat="48.45563" lon="7.12237">
        <ele>650</ele>
        <time>2019-05-15T11:48:55.082Z</time>
      </trkpt>
      <trkpt lat="48.45563" lon="7.12237">
        <ele>649</ele>
        <time>2019-05-15T11:48:56.082Z</time>
      </trkpt>
      <trkpt lat="48.45563" lon="7.12237">
        <ele>649</ele>
        <time>2019-05-15T11:48:57.082Z</time>
      </trkpt>
      <trkpt lat="48.45563" lon="7.12237">
        <ele>649</ele>
        <time>2019-05-15T11:48:58.082Z</time>
      </trkpt>
      <trkpt lat="48.45563" lon="7.12237">
        <ele>648</ele>
        <time>2019-05-15T11:48:59.082Z</time>
      </trkpt>
      <trkpt lat="48.45563" lon="7.12237">
        <ele>648</ele>
        <time>2019-05-15T11:49:00.082Z</time>
      </trkpt>
      <trkpt lat="48.45563" lon="7.12238">
        <ele>649</ele>
        <time>2019-05-15T11:49:01.082Z</time>
      </trkpt>
      <trkpt lat="48.45563" lon="7.12238">
        <ele>649</ele>
        <time>2019-05-15T11:49:02.082Z</time>
      </trkpt>
      <trkpt lat="48.45563" lon="7.12238">
        <ele>649</ele>
        <time>2019-05-15T11:49:03.082Z</time>
      </trkpt>
      <trkpt lat="48.45563" lon="7.12239">
        <ele>650</ele>
        <time>2019-05-15T11:49:04.082Z</time>
      </trkpt>
      <trkpt lat="48.45563" lon="7.12239">
        <ele>650</ele>
        <time>2019-05-15T11:49:05.082Z</time>
      </trkpt>
      <trkpt lat="48.45563" lon="7.1224">
        <ele>650</ele>
        <time>2019-05-15T11:49:06.082Z</time>
      </trkpt>
      <trkpt lat="48.45562" lon="7.1224">
        <ele>650</ele>
        <time>2019-05-15T11:49:07.082Z</time>
      </trkpt>
      <trkpt lat="48.45562" lon="7.12241">
        <ele>650</ele>
        <time>2019-05-15T11:49:08.082Z</time>
      </trkpt>
      <trkpt lat="48.45562" lon="7.12242">
        <ele>650</ele>
        <time>2019-05-15T11:49:09.082Z</time>
      </trkpt>
      <trkpt lat="48.45562" lon="7.12243">
        <ele>651</ele>
        <time>2019-05-15T11:49:10.082Z</time>
      </trkpt>
      <trkpt lat="48.45563" lon="7.12243">
        <ele>651</ele>
        <time>2019-05-15T11:49:11.082Z</time>
      </trkpt>
      <trkpt lat="48.45563" lon="7.12244">
        <ele>651</ele>
        <time>2019-05-15T11:49:12.082Z</time>
      </trkpt>
      <trkpt lat="48.45563" lon="7.12245">
        <ele>651</ele>
        <time>2019-05-15T11:49:13.082Z</time>
      </trkpt>
      <trkpt lat="48.45563" lon="7.12246">
        <ele>651</ele>
        <time>2019-05-15T11:49:14.082Z</time>
      </trkpt>
      <trkpt lat="48.45563" lon="7.12246">
        <ele>651</ele>
        <time>2019-05-15T11:49:15.082Z</time>
      </trkpt>
      <trkpt lat="48.45563" lon="7.12247">
        <ele>651</ele>
        <time>2019-05-15T11:49:16.082Z</time>
      </trkpt>
      <trkpt lat="48.45563" lon="7.12248">
        <ele>651</ele>
        <time>2019-05-15T11:49:17.082Z</time>
      </trkpt>
      <trkpt lat="48.45563" lon="7.12249">
        <ele>651</ele>
        <time>2019-05-15T11:49:18.082Z</time>
      </trkpt>
      <trkpt lat="48.45563" lon="7.12249">
        <ele>650</ele>
        <time>2019-05-15T11:49:19.082Z</time>
      </trkpt>
      <trkpt lat="48.45563" lon="7.1225">
        <ele>650</ele>
        <time>2019-05-15T11:49:20.082Z</time>
      </trkpt>
      <trkpt lat="48.45562" lon="7.1225">
        <ele>650</ele>
        <time>2019-05-15T11:49:21.082Z</time>
      </trkpt>
      <trkpt lat="48.45562" lon="7.1225">
        <ele>649</ele>
        <time>2019-05-15T11:49:22.082Z</time>
      </trkpt>
      <trkpt lat="48.45562" lon="7.12251">
        <ele>649</ele>
        <time>2019-05-15T11:49:23.082Z</time>
      </trkpt>
      <trkpt lat="48.45561" lon="7.1225">
        <ele>648</ele>
        <time>2019-05-15T11:49:24.082Z</time>
      </trkpt>
      <trkpt lat="48.45561" lon="7.12249">
        <ele>648</ele>
        <time>2019-05-15T11:49:25.082Z</time>
      </trkpt>
      <trkpt lat="48.45561" lon="7.12248">
        <ele>648</ele>
        <time>2019-05-15T11:49:26.082Z</time>
      </trkpt>
      <trkpt lat="48.45561" lon="7.12248">
        <ele>649</ele>
        <time>2019-05-15T11:49:27.082Z</time>
      </trkpt>
      <trkpt lat="48.4556" lon="7.12248">
        <ele>649</ele>
        <time>2019-05-15T11:49:28.082Z</time>
      </trkpt>
      <trkpt lat="48.4556" lon="7.12248">
        <ele>649</ele>
        <time>2019-05-15T11:49:29.082Z</time>
      </trkpt>
      <trkpt lat="48.45561" lon="7.12248">
        <ele>648</ele>
        <time>2019-05-15T11:49:30.082Z</time>
      </trkpt>
      <trkpt lat="48.45561" lon="7.12247">
        <ele>648</ele>
        <time>2019-05-15T11:49:31.082Z</time>
      </trkpt>
      <trkpt lat="48.45561" lon="7.12247">
        <ele>647</ele>
        <time>2019-05-15T11:49:32.082Z</time>
      </trkpt>
      <trkpt lat="48.45561" lon="7.12247">
        <ele>647</ele>
        <time>2019-05-15T11:49:33.082Z</time>
      </trkpt>
      <trkpt lat="48.45561" lon="7.12247">
        <ele>647</ele>
        <time>2019-05-15T11:49:34.082Z</time>
      </trkpt>
      <trkpt lat="48.45561" lon="7.12246">
        <ele>647</ele>
        <time>2019-05-15T11:49:35.082Z</time>
      </trkpt>
      <trkpt lat="48.45561" lon="7.12246">
        <ele>647</ele>
        <time>2019-05-15T11:49:36.082Z</time>
      </trkpt>
      <trkpt lat="48.45561" lon="7.12246">
        <ele>647</ele>
        <time>2019-05-15T11:49:37.082Z</time>
      </trkpt>
      <trkpt lat="48.45562" lon="7.12245">
        <ele>648</ele>
        <time>2019-05-15T11:49:38.082Z</time>
      </trkpt>
      <trkpt lat="48.45562" lon="7.12245">
        <ele>648</ele>
        <time>2019-05-15T11:49:39.082Z</time>
      </trkpt>
      <trkpt lat="48.45562" lon="7.12245">
        <ele>648</ele>
        <time>2019-05-15T11:49:40.082Z</time>
      </trkpt>
      <trkpt lat="48.45562" lon="7.12245">
        <ele>649</ele>
        <time>2019-05-15T11:49:41.082Z</time>
      </trkpt>
      <trkpt lat="48.45562" lon="7.12245">
        <ele>650</ele>
        <time>2019-05-15T11:49:42.082Z</time>
      </trkpt>
      <trkpt lat="48.45562" lon="7.12245">
        <ele>649</ele>
        <time>2019-05-15T11:49:43.082Z</time>
      </trkpt>
      <trkpt lat="48.45562" lon="7.12245">
        <ele>648</ele>
        <time>2019-05-15T11:49:44.082Z</time>
      </trkpt>
      <trkpt lat="48.45562" lon="7.12245">
        <ele>647</ele>
        <time>2019-05-15T11:49:45.082Z</time>
      </trkpt>
      <trkpt lat="48.45562" lon="7.12246">
        <ele>648</ele>
        <time>2019-05-15T11:49:46.082Z</time>
      </trkpt>
      <trkpt lat="48.45562" lon="7.12246">
        <ele>649</ele>
        <time>2019-05-15T11:49:47.082Z</time>
      </trkpt>
      <trkpt lat="48.45562" lon="7.12247">
        <ele>647</ele>
        <time>2019-05-15T11:49:48.082Z</time>
      </trkpt>
      <trkpt lat="48.45562" lon="7.12248">
        <ele>646</ele>
        <time>2019-05-15T11:49:49.082Z</time>
      </trkpt>
      <trkpt lat="48.45562" lon="7.12249">
        <ele>646</ele>
        <time>2019-05-15T11:49:50.082Z</time>
      </trkpt>
      <trkpt lat="48.45562" lon="7.12251">
        <ele>647</ele>
        <time>2019-05-15T11:49:51.082Z</time>
      </trkpt>
      <trkpt lat="48.45562" lon="7.12252">
        <ele>647</ele>
        <time>2019-05-15T11:49:52.082Z</time>
      </trkpt>
      <trkpt lat="48.45562" lon="7.12253">
        <ele>647</ele>
        <time>2019-05-15T11:49:53.082Z</time>
      </trkpt>
      <trkpt lat="48.45562" lon="7.12254">
        <ele>646</ele>
        <time>2019-05-15T11:49:54.082Z</time>
      </trkpt>
      <trkpt lat="48.45562" lon="7.12255">
        <ele>647</ele>
        <time>2019-05-15T11:49:55.082Z</time>
      </trkpt>
      <trkpt lat="48.45562" lon="7.12256">
        <ele>647</ele>
        <time>2019-05-15T11:49:56.082Z</time>
      </trkpt>
      <trkpt lat="48.45563" lon="7.12257">
        <ele>648</ele>
        <time>2019-05-15T11:49:57.082Z</time>
      </trkpt>
      <trkpt lat="48.45563" lon="7.12259">
        <ele>648</ele>
        <time>2019-05-15T11:49:58.082Z</time>
      </trkpt>
      <trkpt lat="48.45563" lon="7.1226">
        <ele>648</ele>
        <time>2019-05-15T11:49:59.082Z</time>
      </trkpt>
      <trkpt lat="48.45563" lon="7.12261">
        <ele>647</ele>
        <time>2019-05-15T11:50:00.082Z</time>
      </trkpt>
      <trkpt lat="48.45563" lon="7.12263">
        <ele>647</ele>
        <time>2019-05-15T11:50:01.082Z</time>
      </trkpt>
      <trkpt lat="48.45563" lon="7.12264">
        <ele>647</ele>
        <time>2019-05-15T11:50:02.082Z</time>
      </trkpt>
      <trkpt lat="48.45563" lon="7.12265">
        <ele>646</ele>
        <time>2019-05-15T11:50:03.082Z</time>
      </trkpt>
      <trkpt lat="48.45563" lon="7.12266">
        <ele>646</ele>
        <time>2019-05-15T11:50:04.082Z</time>
      </trkpt>
      <trkpt lat="48.45563" lon="7.12267">
        <ele>645</ele>
        <time>2019-05-15T11:50:05.082Z</time>
      </trkpt>
      <trkpt lat="48.45563" lon="7.12268">
        <ele>645</ele>
        <time>2019-05-15T11:50:06.082Z</time>
      </trkpt>
      <trkpt lat="48.45563" lon="7.12269">
        <ele>644</ele>
        <time>2019-05-15T11:50:07.082Z</time>
      </trkpt>
      <trkpt lat="48.45564" lon="7.12271">
        <ele>644</ele>
        <time>2019-05-15T11:50:08.082Z</time>
      </trkpt>
      <trkpt lat="48.45564" lon="7.12272">
        <ele>644</ele>
        <time>2019-05-15T11:50:09.082Z</time>
      </trkpt>
      <trkpt lat="48.45564" lon="7.12273">
        <ele>644</ele>
        <time>2019-05-15T11:50:10.082Z</time>
      </trkpt>
      <trkpt lat="48.45564" lon="7.12274">
        <ele>643</ele>
        <time>2019-05-15T11:50:11.082Z</time>
      </trkpt>
      <trkpt lat="48.45565" lon="7.12275">
        <ele>644</ele>
        <time>2019-05-15T11:50:12.082Z</time>
      </trkpt>
      <trkpt lat="48.45565" lon="7.12276">
        <ele>644</ele>
        <time>2019-05-15T11:50:13.082Z</time>
      </trkpt>
      <trkpt lat="48.45564" lon="7.12278">
        <ele>643</ele>
        <time>2019-05-15T11:50:14.082Z</time>
      </trkpt>
      <trkpt lat="48.45564" lon="7.12279">
        <ele>643</ele>
        <time>2019-05-15T11:50:15.082Z</time>
      </trkpt>
      <trkpt lat="48.45564" lon="7.1228">
        <ele>642</ele>
        <time>2019-05-15T11:50:16.082Z</time>
      </trkpt>
      <trkpt lat="48.45565" lon="7.12281">
        <ele>642</ele>
        <time>2019-05-15T11:50:17.082Z</time>
      </trkpt>
      <trkpt lat="48.45565" lon="7.12282">
        <ele>641</ele>
        <time>2019-05-15T11:50:18.082Z</time>
      </trkpt>
      <trkpt lat="48.45565" lon="7.12284">
        <ele>639</ele>
        <time>2019-05-15T11:50:19.082Z</time>
      </trkpt>
      <trkpt lat="48.45565" lon="7.12285">
        <ele>638</ele>
        <time>2019-05-15T11:50:20.082Z</time>
      </trkpt>
      <trkpt lat="48.45565" lon="7.12286">
        <ele>638</ele>
        <time>2019-05-15T11:50:21.082Z</time>
      </trkpt>
      <trkpt lat="48.45565" lon="7.12287">
        <ele>638</ele>
        <time>2019-05-15T11:50:22.082Z</time>
      </trkpt>
      <trkpt lat="48.45565" lon="7.12289">
        <ele>638</ele>
        <time>2019-05-15T11:50:23.082Z</time>
      </trkpt>
      <trkpt lat="48.45566" lon="7.12289">
        <ele>637</ele>
        <time>2019-05-15T11:50:24.082Z</time>
      </trkpt>
      <trkpt lat="48.45566" lon="7.1229">
        <ele>636</ele>
        <time>2019-05-15T11:50:25.082Z</time>
      </trkpt>
      <trkpt lat="48.45566" lon="7.12292">
        <ele>635</ele>
        <time>2019-05-15T11:50:26.082Z</time>
      </trkpt>
      <trkpt lat="48.45567" lon="7.12293">
        <ele>636</ele>
        <time>2019-05-15T11:50:27.082Z</time>
      </trkpt>
      <trkpt lat="48.45567" lon="7.12294">
        <ele>636</ele>
        <time>2019-05-15T11:50:28.082Z</time>
      </trkpt>
      <trkpt lat="48.45568" lon="7.12295">
        <ele>635</ele>
        <time>2019-05-15T11:50:29.082Z</time>
      </trkpt>
      <trkpt lat="48.45568" lon="7.12297">
        <ele>635</ele>
        <time>2019-05-15T11:50:30.082Z</time>
      </trkpt>
      <trkpt lat="48.45568" lon="7.12299">
        <ele>634</ele>
        <time>2019-05-15T11:50:31.082Z</time>
      </trkpt>
      <trkpt lat="48.45568" lon="7.123">
        <ele>634</ele>
        <time>2019-05-15T11:50:32.082Z</time>
      </trkpt>
      <trkpt lat="48.45568" lon="7.12302">
        <ele>634</ele>
        <time>2019-05-15T11:50:33.082Z</time>
      </trkpt>
      <trkpt lat="48.45568" lon="7.12303">
        <ele>635</ele>
        <time>2019-05-15T11:50:34.082Z</time>
      </trkpt>
      <trkpt lat="48.45568" lon="7.12305">
        <ele>635</ele>
        <time>2019-05-15T11:50:35.082Z</time>
      </trkpt>
      <trkpt lat="48.45567" lon="7.12307">
        <ele>635</ele>
        <time>2019-05-15T11:50:36.082Z</time>
      </trkpt>
      <trkpt lat="48.45568" lon="7.12308">
        <ele>636</ele>
        <time>2019-05-15T11:50:37.082Z</time>
      </trkpt>
      <trkpt lat="48.45568" lon="7.1231">
        <ele>636</ele>
        <time>2019-05-15T11:50:38.082Z</time>
      </trkpt>
      <trkpt lat="48.45568" lon="7.12311">
        <ele>637</ele>
        <time>2019-05-15T11:50:39.082Z</time>
      </trkpt>
      <trkpt lat="48.45568" lon="7.12312">
        <ele>636</ele>
        <time>2019-05-15T11:50:40.082Z</time>
      </trkpt>
      <trkpt lat="48.45568" lon="7.12313">
        <ele>635</ele>
        <time>2019-05-15T11:50:41.082Z</time>
      </trkpt>
      <trkpt lat="48.45568" lon="7.12315">
        <ele>635</ele>
        <time>2019-05-15T11:50:42.082Z</time>
      </trkpt>
      <trkpt lat="48.45568" lon="7.12316">
        <ele>635</ele>
        <time>2019-05-15T11:50:43.082Z</time>
      </trkpt>
      <trkpt lat="48.45568" lon="7.12318">
        <ele>635</ele>
        <time>2019-05-15T11:50:44.082Z</time>
      </trkpt>
      <trkpt lat="48.45568" lon="7.1232">
        <ele>635</ele>
        <time>2019-05-15T11:50:45.082Z</time>
      </trkpt>
      <trkpt lat="48.45568" lon="7.12321">
        <ele>635</ele>
        <time>2019-05-15T11:50:46.082Z</time>
      </trkpt>
      <trkpt lat="48.45568" lon="7.12322">
        <ele>635</ele>
        <time>2019-05-15T11:50:47.082Z</time>
      </trkpt>
      <trkpt lat="48.45568" lon="7.12322">
        <ele>635</ele>
        <time>2019-05-15T11:50:48.082Z</time>
      </trkpt>
      <trkpt lat="48.45568" lon="7.12322">
        <ele>636</ele>
        <time>2019-05-15T11:50:49.082Z</time>
      </trkpt>
      <trkpt lat="48.45568" lon="7.12322">
        <ele>637</ele>
        <time>2019-05-15T11:50:50.082Z</time>
      </trkpt>
      <trkpt lat="48.45568" lon="7.12322">
        <ele>637</ele>
        <time>2019-05-15T11:50:51.082Z</time>
      </trkpt>
      <trkpt lat="48.45567" lon="7.12322">
        <ele>637</ele>
        <time>2019-05-15T11:50:52.082Z</time>
      </trkpt>
      <trkpt lat="48.45567" lon="7.12322">
        <ele>638</ele>
        <time>2019-05-15T11:50:53.082Z</time>
      </trkpt>
      <trkpt lat="48.45567" lon="7.12322">
        <ele>638</ele>
        <time>2019-05-15T11:50:54.082Z</time>
      </trkpt>
      <trkpt lat="48.45567" lon="7.12322">
        <ele>638</ele>
        <time>2019-05-15T11:50:55.082Z</time>
      </trkpt>
      <trkpt lat="48.45567" lon="7.12322">
        <ele>638</ele>
        <time>2019-05-15T11:50:56.082Z</time>
      </trkpt>
      <trkpt lat="48.45567" lon="7.12322">
        <ele>638</ele>
        <time>2019-05-15T11:50:57.082Z</time>
      </trkpt>
      <trkpt lat="48.45567" lon="7.12322">
        <ele>638</ele>
        <time>2019-05-15T11:50:58.082Z</time>
      </trkpt>
      <trkpt lat="48.45567" lon="7.12322">
        <ele>638</ele>
        <time>2019-05-15T11:50:59.082Z</time>
      </trkpt>
      <trkpt lat="48.45567" lon="7.12321">
        <ele>638</ele>
        <time>2019-05-15T11:51:00.082Z</time>
      </trkpt>
      <trkpt lat="48.45567" lon="7.12321">
        <ele>638</ele>
        <time>2019-05-15T11:51:01.082Z</time>
      </trkpt>
      <trkpt lat="48.45567" lon="7.12321">
        <ele>637</ele>
        <time>2019-05-15T11:51:02.082Z</time>
      </trkpt>
      <trkpt lat="48.45567" lon="7.12321">
        <ele>637</ele>
        <time>2019-05-15T11:51:03.082Z</time>
      </trkpt>
      <trkpt lat="48.45567" lon="7.1232">
        <ele>637</ele>
        <time>2019-05-15T11:51:04.082Z</time>
      </trkpt>
      <trkpt lat="48.45567" lon="7.1232">
        <ele>637</ele>
        <time>2019-05-15T11:51:05.082Z</time>
      </trkpt>
      <trkpt lat="48.45567" lon="7.1232">
        <ele>637</ele>
        <time>2019-05-15T11:51:06.082Z</time>
      </trkpt>
      <trkpt lat="48.45567" lon="7.1232">
        <ele>637</ele>
        <time>2019-05-15T11:51:07.082Z</time>
      </trkpt>
      <trkpt lat="48.45567" lon="7.1232">
        <ele>636</ele>
        <time>2019-05-15T11:51:08.082Z</time>
      </trkpt>
      <trkpt lat="48.45567" lon="7.1232">
        <ele>637</ele>
        <time>2019-05-15T11:51:09.082Z</time>
      </trkpt>
      <trkpt lat="48.45567" lon="7.12319">
        <ele>637</ele>
        <time>2019-05-15T11:51:10.082Z</time>
      </trkpt>
      <trkpt lat="48.45567" lon="7.12319">
        <ele>637</ele>
        <time>2019-05-15T11:51:11.082Z</time>
      </trkpt>
      <trkpt lat="48.45567" lon="7.12319">
        <ele>637</ele>
        <time>2019-05-15T11:51:12.082Z</time>
      </trkpt>
      <trkpt lat="48.45567" lon="7.12319">
        <ele>637</ele>
        <time>2019-05-15T11:51:13.082Z</time>
      </trkpt>
      <trkpt lat="48.45567" lon="7.12319">
        <ele>637</ele>
        <time>2019-05-15T11:51:14.082Z</time>
      </trkpt>
      <trkpt lat="48.45567" lon="7.12319">
        <ele>638</ele>
        <time>2019-05-15T11:51:15.082Z</time>
      </trkpt>
      <trkpt lat="48.45567" lon="7.12319">
        <ele>638</ele>
        <time>2019-05-15T11:51:16.082Z</time>
      </trkpt>
      <trkpt lat="48.45567" lon="7.12319">
        <ele>638</ele>
        <time>2019-05-15T11:51:17.082Z</time>
      </trkpt>
      <trkpt lat="48.45567" lon="7.12319">
        <ele>638</ele>
        <time>2019-05-15T11:51:18.082Z</time>
      </trkpt>
      <trkpt lat="48.45567" lon="7.12319">
        <ele>639</ele>
        <time>2019-05-15T11:51:19.082Z</time>
      </trkpt>
      <trkpt lat="48.45567" lon="7.1232">
        <ele>639</ele>
        <time>2019-05-15T11:51:20.082Z</time>
      </trkpt>
      <trkpt lat="48.45567" lon="7.12321">
        <ele>639</ele>
        <time>2019-05-15T11:51:21.082Z</time>
      </trkpt>
      <trkpt lat="48.45567" lon="7.12322">
        <ele>639</ele>
        <time>2019-05-15T11:51:22.082Z</time>
      </trkpt>
      <trkpt lat="48.45567" lon="7.12323">
        <ele>639</ele>
        <time>2019-05-15T11:51:23.082Z</time>
      </trkpt>
      <trkpt lat="48.45567" lon="7.12324">
        <ele>639</ele>
        <time>2019-05-15T11:51:24.082Z</time>
      </trkpt>
      <trkpt lat="48.45567" lon="7.12325">
        <ele>639</ele>
        <time>2019-05-15T11:51:25.082Z</time>
      </trkpt>
      <trkpt lat="48.45567" lon="7.12326">
        <ele>640</ele>
        <time>2019-05-15T11:51:26.082Z</time>
      </trkpt>
      <trkpt lat="48.45567" lon="7.12327">
        <ele>640</ele>
        <time>2019-05-15T11:51:27.082Z</time>
      </trkpt>
      <trkpt lat="48.45567" lon="7.12329">
        <ele>639</ele>
        <time>2019-05-15T11:51:28.082Z</time>
      </trkpt>
      <trkpt lat="48.45567" lon="7.1233">
        <ele>639</ele>
        <time>2019-05-15T11:51:29.082Z</time>
      </trkpt>
      <trkpt lat="48.45567" lon="7.12332">
        <ele>639</ele>
        <time>2019-05-15T11:51:30.082Z</time>
      </trkpt>
      <trkpt lat="48.45567" lon="7.12334">
        <ele>642</ele>
        <time>2019-05-15T11:51:31.082Z</time>
      </trkpt>
      <trkpt lat="48.45567" lon="7.12336">
        <ele>642</ele>
        <time>2019-05-15T11:51:32.082Z</time>
      </trkpt>
      <trkpt lat="48.45568" lon="7.12338">
        <ele>643</ele>
        <time>2019-05-15T11:51:33.082Z</time>
      </trkpt>
      <trkpt lat="48.45568" lon="7.1234">
        <ele>643</ele>
        <time>2019-05-15T11:51:34.082Z</time>
      </trkpt>
      <trkpt lat="48.45568" lon="7.12342">
        <ele>644</ele>
        <time>2019-05-15T11:51:35.082Z</time>
      </trkpt>
      <trkpt lat="48.45569" lon="7.12343">
        <ele>644</ele>
        <time>2019-05-15T11:51:36.082Z</time>
      </trkpt>
      <trkpt lat="48.4557" lon="7.12345">
        <ele>644</ele>
        <time>2019-05-15T11:51:37.082Z</time>
      </trkpt>
      <trkpt lat="48.4557" lon="7.12347">
        <ele>645</ele>
        <time>2019-05-15T11:51:38.082Z</time>
      </trkpt>
      <trkpt lat="48.4557" lon="7.12349">
        <ele>645</ele>
        <time>2019-05-15T11:51:39.082Z</time>
      </trkpt>
      <trkpt lat="48.4557" lon="7.1235">
        <ele>645</ele>
        <time>2019-05-15T11:51:40.082Z</time>
      </trkpt>
      <trkpt lat="48.4557" lon="7.12352">
        <ele>645</ele>
        <time>2019-05-15T11:51:41.082Z</time>
      </trkpt>
      <trkpt lat="48.4557" lon="7.12354">
        <ele>645</ele>
        <time>2019-05-15T11:51:42.082Z</time>
      </trkpt>
      <trkpt lat="48.4557" lon="7.12356">
        <ele>645</ele>
        <time>2019-05-15T11:51:43.082Z</time>
      </trkpt>
      <trkpt lat="48.4557" lon="7.12357">
        <ele>645</ele>
        <time>2019-05-15T11:51:44.082Z</time>
      </trkpt>
      <trkpt lat="48.45569" lon="7.12359">
        <ele>645</ele>
        <time>2019-05-15T11:51:45.082Z</time>
      </trkpt>
      <trkpt lat="48.45569" lon="7.12361">
        <ele>646</ele>
        <time>2019-05-15T11:51:46.082Z</time>
      </trkpt>
      <trkpt lat="48.45569" lon="7.12362">
        <ele>646</ele>
        <time>2019-05-15T11:51:47.082Z</time>
      </trkpt>
      <trkpt lat="48.45569" lon="7.12364">
        <ele>645</ele>
        <time>2019-05-15T11:51:48.082Z</time>
      </trkpt>
      <trkpt lat="48.45569" lon="7.12365">
        <ele>645</ele>
        <time>2019-05-15T11:51:49.082Z</time>
      </trkpt>
      <trkpt lat="48.4557" lon="7.12367">
        <ele>646</ele>
        <time>2019-05-15T11:51:50.082Z</time>
      </trkpt>
      <trkpt lat="48.4557" lon="7.12368">
        <ele>646</ele>
        <time>2019-05-15T11:51:51.082Z</time>
      </trkpt>
      <trkpt lat="48.45571" lon="7.1237">
        <ele>645</ele>
        <time>2019-05-15T11:51:52.082Z</time>
      </trkpt>
      <trkpt lat="48.45571" lon="7.12371">
        <ele>646</ele>
        <time>2019-05-15T11:51:53.082Z</time>
      </trkpt>
      <trkpt lat="48.45572" lon="7.12372">
        <ele>646</ele>
        <time>2019-05-15T11:51:54.082Z</time>
      </trkpt>
      <trkpt lat="48.45572" lon="7.12374">
        <ele>646</ele>
        <time>2019-05-15T11:51:55.082Z</time>
      </trkpt>
      <trkpt lat="48.45573" lon="7.12375">
        <ele>645</ele>
        <time>2019-05-15T11:51:56.082Z</time>
      </trkpt>
      <trkpt lat="48.45573" lon="7.12376">
        <ele>645</ele>
        <time>2019-05-15T11:51:57.082Z</time>
      </trkpt>
      <trkpt lat="48.45574" lon="7.12377">
        <ele>645</ele>
        <time>2019-05-15T11:51:58.082Z</time>
      </trkpt>
      <trkpt lat="48.45574" lon="7.12378">
        <ele>645</ele>
        <time>2019-05-15T11:51:59.082Z</time>
      </trkpt>
      <trkpt lat="48.45575" lon="7.12379">
        <ele>646</ele>
        <time>2019-05-15T11:52:00.082Z</time>
      </trkpt>
      <trkpt lat="48.45575" lon="7.12381">
        <ele>645</ele>
        <time>2019-05-15T11:52:01.082Z</time>
      </trkpt>
      <trkpt lat="48.45575" lon="7.12382">
        <ele>645</ele>
        <time>2019-05-15T11:52:02.082Z</time>
      </trkpt>
      <trkpt lat="48.45576" lon="7.12383">
        <ele>645</ele>
        <time>2019-05-15T11:52:03.082Z</time>
      </trkpt>
      <trkpt lat="48.45576" lon="7.12384">
        <ele>645</ele>
        <time>2019-05-15T11:52:04.082Z</time>
      </trkpt>
      <trkpt lat="48.45576" lon="7.12386">
        <ele>646</ele>
        <time>2019-05-15T11:52:05.082Z</time>
      </trkpt>
      <trkpt lat="48.45576" lon="7.12387">
        <ele>646</ele>
        <time>2019-05-15T11:52:06.082Z</time>
      </trkpt>
      <trkpt lat="48.45576" lon="7.12389">
        <ele>646</ele>
        <time>2019-05-15T11:52:07.082Z</time>
      </trkpt>
      <trkpt lat="48.45576" lon="7.12391">
        <ele>646</ele>
        <time>2019-05-15T11:52:08.082Z</time>
      </trkpt>
      <trkpt lat="48.45576" lon="7.12392">
        <ele>647</ele>
        <time>2019-05-15T11:52:09.082Z</time>
      </trkpt>
      <trkpt lat="48.45576" lon="7.12393">
        <ele>647</ele>
        <time>2019-05-15T11:52:10.082Z</time>
      </trkpt>
      <trkpt lat="48.45576" lon="7.12394">
        <ele>647</ele>
        <time>2019-05-15T11:52:11.082Z</time>
      </trkpt>
      <trkpt lat="48.45576" lon="7.12395">
        <ele>647</ele>
        <time>2019-05-15T11:52:12.082Z</time>
      </trkpt>
      <trkpt lat="48.45577" lon="7.12397">
        <ele>647</ele>
        <time>2019-05-15T11:52:13.082Z</time>
      </trkpt>
      <trkpt lat="48.45577" lon="7.12398">
        <ele>648</ele>
        <time>2019-05-15T11:52:14.082Z</time>
      </trkpt>
      <trkpt lat="48.45577" lon="7.124">
        <ele>648</ele>
        <time>2019-05-15T11:52:15.082Z</time>
      </trkpt>
      <trkpt lat="48.45577" lon="7.12401">
        <ele>648</ele>
        <time>2019-05-15T11:52:16.082Z</time>
      </trkpt>
      <trkpt lat="48.45577" lon="7.12402">
        <ele>648</ele>
        <time>2019-05-15T11:52:17.082Z</time>
      </trkpt>
      <trkpt lat="48.45577" lon="7.12404">
        <ele>649</ele>
        <time>2019-05-15T11:52:18.082Z</time>
      </trkpt>
      <trkpt lat="48.45576" lon="7.12407">
        <ele>650</ele>
        <time>2019-05-15T11:52:19.082Z</time>
      </trkpt>
      <trkpt lat="48.45576" lon="7.12409">
        <ele>650</ele>
        <time>2019-05-15T11:52:20.082Z</time>
      </trkpt>
      <trkpt lat="48.45576" lon="7.12411">
        <ele>651</ele>
        <time>2019-05-15T11:52:21.082Z</time>
      </trkpt>
      <trkpt lat="48.45576" lon="7.12413">
        <ele>651</ele>
        <time>2019-05-15T11:52:22.082Z</time>
      </trkpt>
      <trkpt lat="48.45576" lon="7.12414">
        <ele>652</ele>
        <time>2019-05-15T11:52:23.082Z</time>
      </trkpt>
      <trkpt lat="48.45576" lon="7.12416">
        <ele>651</ele>
        <time>2019-05-15T11:52:24.082Z</time>
      </trkpt>
      <trkpt lat="48.45576" lon="7.12417">
        <ele>652</ele>
        <time>2019-05-15T11:52:25.082Z</time>
      </trkpt>
      <trkpt lat="48.45577" lon="7.12419">
        <ele>652</ele>
        <time>2019-05-15T11:52:26.082Z</time>
      </trkpt>
      <trkpt lat="48.45577" lon="7.1242">
        <ele>652</ele>
        <time>2019-05-15T11:52:27.082Z</time>
      </trkpt>
      <trkpt lat="48.45577" lon="7.12422">
        <ele>652</ele>
        <time>2019-05-15T11:52:28.082Z</time>
      </trkpt>
      <trkpt lat="48.45577" lon="7.12423">
        <ele>652</ele>
        <time>2019-05-15T11:52:29.082Z</time>
      </trkpt>
      <trkpt lat="48.45578" lon="7.12425">
        <ele>653</ele>
        <time>2019-05-15T11:52:30.082Z</time>
      </trkpt>
      <trkpt lat="48.45578" lon="7.12426">
        <ele>653</ele>
        <time>2019-05-15T11:52:31.082Z</time>
      </trkpt>
      <trkpt lat="48.45578" lon="7.12428">
        <ele>654</ele>
        <time>2019-05-15T11:52:32.082Z</time>
      </trkpt>
      <trkpt lat="48.45578" lon="7.12429">
        <ele>653</ele>
        <time>2019-05-15T11:52:33.082Z</time>
      </trkpt>
      <trkpt lat="48.45578" lon="7.12431">
        <ele>654</ele>
        <time>2019-05-15T11:52:34.082Z</time>
      </trkpt>
      <trkpt lat="48.45578" lon="7.12432">
        <ele>653</ele>
        <time>2019-05-15T11:52:35.082Z</time>
      </trkpt>
      <trkpt lat="48.45578" lon="7.12434">
        <ele>653</ele>
        <time>2019-05-15T11:52:36.082Z</time>
      </trkpt>
      <trkpt lat="48.45578" lon="7.12435">
        <ele>652</ele>
        <time>2019-05-15T11:52:37.082Z</time>
      </trkpt>
      <trkpt lat="48.45578" lon="7.12437">
        <ele>652</ele>
        <time>2019-05-15T11:52:38.082Z</time>
      </trkpt>
      <trkpt lat="48.45578" lon="7.12438">
        <ele>652</ele>
        <time>2019-05-15T11:52:39.082Z</time>
      </trkpt>
      <trkpt lat="48.45579" lon="7.12439">
        <ele>652</ele>
        <time>2019-05-15T11:52:40.082Z</time>
      </trkpt>
      <trkpt lat="48.45579" lon="7.12441">
        <ele>653</ele>
        <time>2019-05-15T11:52:41.082Z</time>
      </trkpt>
      <trkpt lat="48.45579" lon="7.12442">
        <ele>653</ele>
        <time>2019-05-15T11:52:42.082Z</time>
      </trkpt>
      <trkpt lat="48.4558" lon="7.12444">
        <ele>653</ele>
        <time>2019-05-15T11:52:43.082Z</time>
      </trkpt>
      <trkpt lat="48.4558" lon="7.12445">
        <ele>653</ele>
        <time>2019-05-15T11:52:44.082Z</time>
      </trkpt>
      <trkpt lat="48.4558" lon="7.12447">
        <ele>653</ele>
        <time>2019-05-15T11:52:45.082Z</time>
      </trkpt>
      <trkpt lat="48.4558" lon="7.12449">
        <ele>653</ele>
        <time>2019-05-15T11:52:46.082Z</time>
      </trkpt>
      <trkpt lat="48.4558" lon="7.12451">
        <ele>652</ele>
        <time>2019-05-15T11:52:47.082Z</time>
      </trkpt>
      <trkpt lat="48.45579" lon="7.12453">
        <ele>652</ele>
        <time>2019-05-15T11:52:48.082Z</time>
      </trkpt>
      <trkpt lat="48.45578" lon="7.12456">
        <ele>652</ele>
        <time>2019-05-15T11:52:49.082Z</time>
      </trkpt>
      <trkpt lat="48.45577" lon="7.12458">
        <ele>651</ele>
        <time>2019-05-15T11:52:50.082Z</time>
      </trkpt>
      <trkpt lat="48.45577" lon="7.1246">
        <ele>651</ele>
        <time>2019-05-15T11:52:51.082Z</time>
      </trkpt>
      <trkpt lat="48.45576" lon="7.12462">
        <ele>651</ele>
        <time>2019-05-15T11:52:52.082Z</time>
      </trkpt>
      <trkpt lat="48.45575" lon="7.12464">
        <ele>650</ele>
        <time>2019-05-15T11:52:53.082Z</time>
      </trkpt>
      <trkpt lat="48.45575" lon="7.12466">
        <ele>650</ele>
        <time>2019-05-15T11:52:54.082Z</time>
      </trkpt>
      <trkpt lat="48.45574" lon="7.12468">
        <ele>650</ele>
        <time>2019-05-15T11:52:55.082Z</time>
      </trkpt>
      <trkpt lat="48.45574" lon="7.12469">
        <ele>650</ele>
        <time>2019-05-15T11:52:56.082Z</time>
      </trkpt>
      <trkpt lat="48.45573" lon="7.12471">
        <ele>651</ele>
        <time>2019-05-15T11:52:57.082Z</time>
      </trkpt>
      <trkpt lat="48.45573" lon="7.12473">
        <ele>650</ele>
        <time>2019-05-15T11:52:58.082Z</time>
      </trkpt>
      <trkpt lat="48.45573" lon="7.12474">
        <ele>649</ele>
        <time>2019-05-15T11:52:59.082Z</time>
      </trkpt>
      <trkpt lat="48.45573" lon="7.12476">
        <ele>650</ele>
        <time>2019-05-15T11:53:00.082Z</time>
      </trkpt>
      <trkpt lat="48.45572" lon="7.12477">
        <ele>649</ele>
        <time>2019-05-15T11:53:01.082Z</time>
      </trkpt>
      <trkpt lat="48.45572" lon="7.12478">
        <ele>649</ele>
        <time>2019-05-15T11:53:02.082Z</time>
      </trkpt>
      <trkpt lat="48.45572" lon="7.12479">
        <ele>649</ele>
        <time>2019-05-15T11:53:03.082Z</time>
      </trkpt>
      <trkpt lat="48.45572" lon="7.12481">
        <ele>649</ele>
        <time>2019-05-15T11:53:04.082Z</time>
      </trkpt>
      <trkpt lat="48.45572" lon="7.12482">
        <ele>648</ele>
        <time>2019-05-15T11:53:05.082Z</time>
      </trkpt>
      <trkpt lat="48.45573" lon="7.12484">
        <ele>647</ele>
        <time>2019-05-15T11:53:06.082Z</time>
      </trkpt>
      <trkpt lat="48.45573" lon="7.12485">
        <ele>646</ele>
        <time>2019-05-15T11:53:07.082Z</time>
      </trkpt>
      <trkpt lat="48.45573" lon="7.12487">
        <ele>645</ele>
        <time>2019-05-15T11:53:08.082Z</time>
      </trkpt>
      <trkpt lat="48.45572" lon="7.12489">
        <ele>645</ele>
        <time>2019-05-15T11:53:09.082Z</time>
      </trkpt>
      <trkpt lat="48.45573" lon="7.12491">
        <ele>644</ele>
        <time>2019-05-15T11:53:10.082Z</time>
      </trkpt>
      <trkpt lat="48.45573" lon="7.12492">
        <ele>644</ele>
        <time>2019-05-15T11:53:11.082Z</time>
      </trkpt>
      <trkpt lat="48.45573" lon="7.12494">
        <ele>645</ele>
        <time>2019-05-15T11:53:12.082Z</time>
      </trkpt>
      <trkpt lat="48.45573" lon="7.12496">
        <ele>644</ele>
        <time>2019-05-15T11:53:13.082Z</time>
      </trkpt>
      <trkpt lat="48.45573" lon="7.12497">
        <ele>644</ele>
        <time>2019-05-15T11:53:14.082Z</time>
      </trkpt>
      <trkpt lat="48.45573" lon="7.12499">
        <ele>644</ele>
        <time>2019-05-15T11:53:15.082Z</time>
      </trkpt>
      <trkpt lat="48.45573" lon="7.125">
        <ele>644</ele>
        <time>2019-05-15T11:53:16.082Z</time>
      </trkpt>
      <trkpt lat="48.45573" lon="7.12502">
        <ele>644</ele>
        <time>2019-05-15T11:53:17.082Z</time>
      </trkpt>
      <trkpt lat="48.45573" lon="7.12504">
        <ele>644</ele>
        <time>2019-05-15T11:53:18.082Z</time>
      </trkpt>
      <trkpt lat="48.45573" lon="7.12505">
        <ele>644</ele>
        <time>2019-05-15T11:53:19.082Z</time>
      </trkpt>
      <trkpt lat="48.45574" lon="7.12507">
        <ele>644</ele>
        <time>2019-05-15T11:53:20.082Z</time>
      </trkpt>
      <trkpt lat="48.45574" lon="7.12509">
        <ele>644</ele>
        <time>2019-05-15T11:53:21.082Z</time>
      </trkpt>
      <trkpt lat="48.45574" lon="7.1251">
        <ele>644</ele>
        <time>2019-05-15T11:53:22.082Z</time>
      </trkpt>
      <trkpt lat="48.45574" lon="7.12512">
        <ele>644</ele>
        <time>2019-05-15T11:53:23.082Z</time>
      </trkpt>
      <trkpt lat="48.45575" lon="7.12513">
        <ele>644</ele>
        <time>2019-05-15T11:53:24.082Z</time>
      </trkpt>
      <trkpt lat="48.45575" lon="7.12515">
        <ele>643</ele>
        <time>2019-05-15T11:53:25.082Z</time>
      </trkpt>
      <trkpt lat="48.45575" lon="7.12516">
        <ele>642</ele>
        <time>2019-05-15T11:53:26.082Z</time>
      </trkpt>
      <trkpt lat="48.45575" lon="7.12518">
        <ele>642</ele>
        <time>2019-05-15T11:53:27.082Z</time>
      </trkpt>
      <trkpt lat="48.45576" lon="7.1252">
        <ele>641</ele>
        <time>2019-05-15T11:53:28.082Z</time>
      </trkpt>
      <trkpt lat="48.45576" lon="7.12521">
        <ele>641</ele>
        <time>2019-05-15T11:53:29.082Z</time>
      </trkpt>
      <trkpt lat="48.45576" lon="7.12523">
        <ele>640</ele>
        <time>2019-05-15T11:53:30.082Z</time>
      </trkpt>
      <trkpt lat="48.45576" lon="7.12525">
        <ele>640</ele>
        <time>2019-05-15T11:53:31.082Z</time>
      </trkpt>
      <trkpt lat="48.45576" lon="7.12527">
        <ele>641</ele>
        <time>2019-05-15T11:53:32.082Z</time>
      </trkpt>
      <trkpt lat="48.45576" lon="7.12529">
        <ele>640</ele>
        <time>2019-05-15T11:53:33.082Z</time>
      </trkpt>
      <trkpt lat="48.45576" lon="7.12531">
        <ele>640</ele>
        <time>2019-05-15T11:53:34.082Z</time>
      </trkpt>
      <trkpt lat="48.45576" lon="7.12533">
        <ele>640</ele>
        <time>2019-05-15T11:53:35.082Z</time>
      </trkpt>
      <trkpt lat="48.45575" lon="7.12535">
        <ele>640</ele>
        <time>2019-05-15T11:53:36.082Z</time>
      </trkpt>
      <trkpt lat="48.45575" lon="7.12536">
        <ele>640</ele>
        <time>2019-05-15T11:53:37.082Z</time>
      </trkpt>
      <trkpt lat="48.45575" lon="7.12538">
        <ele>640</ele>
        <time>2019-05-15T11:53:38.082Z</time>
      </trkpt>
      <trkpt lat="48.45575" lon="7.12539">
        <ele>640</ele>
        <time>2019-05-15T11:53:39.082Z</time>
      </trkpt>
      <trkpt lat="48.45574" lon="7.1254">
        <ele>640</ele>
        <time>2019-05-15T11:53:40.082Z</time>
      </trkpt>
      <trkpt lat="48.45573" lon="7.12541">
        <ele>640</ele>
        <time>2019-05-15T11:53:41.082Z</time>
      </trkpt>
      <trkpt lat="48.45572" lon="7.12541">
        <ele>640</ele>
        <time>2019-05-15T11:53:42.082Z</time>
      </trkpt>
      <trkpt lat="48.45572" lon="7.12542">
        <ele>640</ele>
        <time>2019-05-15T11:53:43.082Z</time>
      </trkpt>
      <trkpt lat="48.45572" lon="7.12542">
        <ele>640</ele>
        <time>2019-05-15T11:53:44.082Z</time>
      </trkpt>
      <trkpt lat="48.45572" lon="7.12543">
        <ele>640</ele>
        <time>2019-05-15T11:53:45.082Z</time>
      </trkpt>
      <trkpt lat="48.45572" lon="7.12543">
        <ele>640</ele>
        <time>2019-05-15T11:53:46.082Z</time>
      </trkpt>
      <trkpt lat="48.45573" lon="7.12543">
        <ele>640</ele>
        <time>2019-05-15T11:53:47.082Z</time>
      </trkpt>
      <trkpt lat="48.45573" lon="7.12544">
        <ele>640</ele>
        <time>2019-05-15T11:53:48.082Z</time>
      </trkpt>
      <trkpt lat="48.45573" lon="7.12544">
        <ele>640</ele>
        <time>2019-05-15T11:53:49.082Z</time>
      </trkpt>
      <trkpt lat="48.45573" lon="7.12544">
        <ele>640</ele>
        <time>2019-05-15T11:53:50.082Z</time>
      </trkpt>
      <trkpt lat="48.45573" lon="7.12544">
        <ele>640</ele>
        <time>2019-05-15T11:53:51.082Z</time>
      </trkpt>
      <trkpt lat="48.45573" lon="7.12544">
        <ele>640</ele>
        <time>2019-05-15T11:53:52.082Z</time>
      </trkpt>
      <trkpt lat="48.45573" lon="7.12544">
        <ele>640</ele>
        <time>2019-05-15T11:53:53.082Z</time>
      </trkpt>
      <trkpt lat="48.45573" lon="7.12545">
        <ele>640</ele>
        <time>2019-05-15T11:53:54.082Z</time>
      </trkpt>
      <trkpt lat="48.45573" lon="7.12545">
        <ele>640</ele>
        <time>2019-05-15T11:53:55.082Z</time>
      </trkpt>
      <trkpt lat="48.45573" lon="7.12545">
        <ele>639</ele>
        <time>2019-05-15T11:53:56.082Z</time>
      </trkpt>
      <trkpt lat="48.45573" lon="7.12546">
        <ele>639</ele>
        <time>2019-05-15T11:53:57.082Z</time>
      </trkpt>
      <trkpt lat="48.45572" lon="7.12546">
        <ele>639</ele>
        <time>2019-05-15T11:53:58.082Z</time>
      </trkpt>
      <trkpt lat="48.45572" lon="7.12546">
        <ele>639</ele>
        <time>2019-05-15T11:53:59.082Z</time>
      </trkpt>
      <trkpt lat="48.45572" lon="7.12546">
        <ele>639</ele>
        <time>2019-05-15T11:54:00.082Z</time>
      </trkpt>
      <trkpt lat="48.45572" lon="7.12547">
        <ele>639</ele>
        <time>2019-05-15T11:54:01.082Z</time>
      </trkpt>
      <trkpt lat="48.45572" lon="7.12547">
        <ele>639</ele>
        <time>2019-05-15T11:54:02.082Z</time>
      </trkpt>
      <trkpt lat="48.45572" lon="7.12547">
        <ele>638</ele>
        <time>2019-05-15T11:54:03.082Z</time>
      </trkpt>
      <trkpt lat="48.45572" lon="7.12547">
        <ele>638</ele>
        <time>2019-05-15T11:54:04.082Z</time>
      </trkpt>
      <trkpt lat="48.45571" lon="7.12547">
        <ele>638</ele>
        <time>2019-05-15T11:54:05.082Z</time>
      </trkpt>
      <trkpt lat="48.45571" lon="7.12548">
        <ele>638</ele>
        <time>2019-05-15T11:54:06.082Z</time>
      </trkpt>
      <trkpt lat="48.45571" lon="7.12548">
        <ele>638</ele>
        <time>2019-05-15T11:54:07.082Z</time>
      </trkpt>
      <trkpt lat="48.45571" lon="7.12548">
        <ele>638</ele>
        <time>2019-05-15T11:54:08.082Z</time>
      </trkpt>
      <trkpt lat="48.45571" lon="7.12548">
        <ele>638</ele>
        <time>2019-05-15T11:54:09.082Z</time>
      </trkpt>
      <trkpt lat="48.45571" lon="7.12549">
        <ele>638</ele>
        <time>2019-05-15T11:54:10.082Z</time>
      </trkpt>
      <trkpt lat="48.45571" lon="7.12549">
        <ele>638</ele>
        <time>2019-05-15T11:54:11.082Z</time>
      </trkpt>
      <trkpt lat="48.45571" lon="7.12549">
        <ele>638</ele>
        <time>2019-05-15T11:54:12.082Z</time>
      </trkpt>
      <trkpt lat="48.45571" lon="7.12549">
        <ele>638</ele>
        <time>2019-05-15T11:54:13.082Z</time>
      </trkpt>
      <trkpt lat="48.45571" lon="7.12549">
        <ele>638</ele>
        <time>2019-05-15T11:54:14.082Z</time>
      </trkpt>
      <trkpt lat="48.45571" lon="7.12549">
        <ele>637</ele>
        <time>2019-05-15T11:54:15.082Z</time>
      </trkpt>
      <trkpt lat="48.45571" lon="7.12548">
        <ele>637</ele>
        <time>2019-05-15T11:54:16.082Z</time>
      </trkpt>
      <trkpt lat="48.45571" lon="7.12548">
        <ele>637</ele>
        <time>2019-05-15T11:54:17.082Z</time>
      </trkpt>
      <trkpt lat="48.4557" lon="7.12547">
        <ele>637</ele>
        <time>2019-05-15T11:54:18.082Z</time>
      </trkpt>
      <trkpt lat="48.4557" lon="7.12546">
        <ele>637</ele>
        <time>2019-05-15T11:54:19.082Z</time>
      </trkpt>
      <trkpt lat="48.45569" lon="7.12544">
        <ele>636</ele>
        <time>2019-05-15T11:54:20.082Z</time>
      </trkpt>
      <trkpt lat="48.45568" lon="7.12543">
        <ele>635</ele>
        <time>2019-05-15T11:54:21.082Z</time>
      </trkpt>
      <trkpt lat="48.45567" lon="7.12541">
        <ele>635</ele>
        <time>2019-05-15T11:54:22.082Z</time>
      </trkpt>
      <trkpt lat="48.45566" lon="7.1254">
        <ele>635</ele>
        <time>2019-05-15T11:54:23.082Z</time>
      </trkpt>
      <trkpt lat="48.45565" lon="7.12538">
        <ele>634</ele>
        <time>2019-05-15T11:54:24.082Z</time>
      </trkpt>
      <trkpt lat="48.45564" lon="7.12537">
        <ele>634</ele>
        <time>2019-05-15T11:54:25.082Z</time>
      </trkpt>
      <trkpt lat="48.45563" lon="7.12536">
        <ele>635</ele>
        <time>2019-05-15T11:54:26.082Z</time>
      </trkpt>
      <trkpt lat="48.45562" lon="7.12535">
        <ele>635</ele>
        <time>2019-05-15T11:54:27.082Z</time>
      </trkpt>
      <trkpt lat="48.45562" lon="7.12534">
        <ele>635</ele>
        <time>2019-05-15T11:54:28.082Z</time>
      </trkpt>
      <trkpt lat="48.45561" lon="7.12533">
        <ele>634</ele>
        <time>2019-05-15T11:54:29.082Z</time>
      </trkpt>
      <trkpt lat="48.4556" lon="7.12531">
        <ele>635</ele>
        <time>2019-05-15T11:54:30.082Z</time>
      </trkpt>
      <trkpt lat="48.4556" lon="7.12529">
        <ele>634</ele>
        <time>2019-05-15T11:54:31.082Z</time>
      </trkpt>
      <trkpt lat="48.4556" lon="7.12527">
        <ele>634</ele>
        <time>2019-05-15T11:54:32.082Z</time>
      </trkpt>
      <trkpt lat="48.4556" lon="7.12525">
        <ele>634</ele>
        <time>2019-05-15T11:54:33.082Z</time>
      </trkpt>
      <trkpt lat="48.4556" lon="7.12524">
        <ele>634</ele>
        <time>2019-05-15T11:54:34.082Z</time>
      </trkpt>
      <trkpt lat="48.45559" lon="7.12523">
        <ele>634</ele>
        <time>2019-05-15T11:54:35.082Z</time>
      </trkpt>
      <trkpt lat="48.45559" lon="7.12523">
        <ele>634</ele>
        <time>2019-05-15T11:54:36.082Z</time>
      </trkpt>
      <trkpt lat="48.45558" lon="7.12522">
        <ele>634</ele>
        <time>2019-05-15T11:54:37.082Z</time>
      </trkpt>
      <trkpt lat="48.45558" lon="7.12522">
        <ele>634</ele>
        <time>2019-05-15T11:54:38.082Z</time>
      </trkpt>
      <trkpt lat="48.45557" lon="7.12521">
        <ele>633</ele>
        <time>2019-05-15T11:54:39.082Z</time>
      </trkpt>
      <trkpt lat="48.45556" lon="7.1252">
        <ele>633</ele>
        <time>2019-05-15T11:54:40.082Z</time>
      </trkpt>
      <trkpt lat="48.45556" lon="7.12519">
        <ele>633</ele>
        <time>2019-05-15T11:54:41.082Z</time>
      </trkpt>
      <trkpt lat="48.45555" lon="7.12518">
        <ele>633</ele>
        <time>2019-05-15T11:54:42.082Z</time>
      </trkpt>
      <trkpt lat="48.45554" lon="7.12517">
        <ele>633</ele>
        <time>2019-05-15T11:54:43.082Z</time>
      </trkpt>
      <trkpt lat="48.45553" lon="7.12516">
        <ele>632</ele>
        <time>2019-05-15T11:54:44.082Z</time>
      </trkpt>
      <trkpt lat="48.45553" lon="7.12515">
        <ele>632</ele>
        <time>2019-05-15T11:54:45.082Z</time>
      </trkpt>
      <trkpt lat="48.45552" lon="7.12514">
        <ele>632</ele>
        <time>2019-05-15T11:54:46.082Z</time>
      </trkpt>
      <trkpt lat="48.45552" lon="7.12513">
        <ele>632</ele>
        <time>2019-05-15T11:54:47.082Z</time>
      </trkpt>
      <trkpt lat="48.45552" lon="7.12513">
        <ele>632</ele>
        <time>2019-05-15T11:54:48.082Z</time>
      </trkpt>
      <trkpt lat="48.45552" lon="7.12512">
        <ele>632</ele>
        <time>2019-05-15T11:54:49.082Z</time>
      </trkpt>
      <trkpt lat="48.45551" lon="7.12511">
        <ele>632</ele>
        <time>2019-05-15T11:54:50.082Z</time>
      </trkpt>
      <trkpt lat="48.45551" lon="7.1251">
        <ele>632</ele>
        <time>2019-05-15T11:54:51.082Z</time>
      </trkpt>
      <trkpt lat="48.4555" lon="7.1251">
        <ele>633</ele>
        <time>2019-05-15T11:54:52.082Z</time>
      </trkpt>
      <trkpt lat="48.4555" lon="7.12509">
        <ele>633</ele>
        <time>2019-05-15T11:54:53.082Z</time>
      </trkpt>
      <trkpt lat="48.45549" lon="7.12508">
        <ele>633</ele>
        <time>2019-05-15T11:54:54.082Z</time>
      </trkpt>
      <trkpt lat="48.45549" lon="7.12507">
        <ele>633</ele>
        <time>2019-05-15T11:54:55.082Z</time>
      </trkpt>
      <trkpt lat="48.45549" lon="7.12506">
        <ele>634</ele>
        <time>2019-05-15T11:54:56.082Z</time>
      </trkpt>
      <trkpt lat="48.45548" lon="7.12505">
        <ele>634</ele>
        <time>2019-05-15T11:54:57.082Z</time>
      </trkpt>
      <trkpt lat="48.45548" lon="7.12505">
        <ele>634</ele>
        <time>2019-05-15T11:54:58.082Z</time>
      </trkpt>
      <trkpt lat="48.45547" lon="7.12504">
        <ele>634</ele>
        <time>2019-05-15T11:54:59.082Z</time>
      </trkpt>
      <trkpt lat="48.45547" lon="7.12503">
        <ele>634</ele>
        <time>2019-05-15T11:55:00.082Z</time>
      </trkpt>
      <trkpt lat="48.45547" lon="7.12503">
        <ele>633</ele>
        <time>2019-05-15T11:55:01.082Z</time>
      </trkpt>
      <trkpt lat="48.45547" lon="7.12502">
        <ele>632</ele>
        <time>2019-05-15T11:55:02.082Z</time>
      </trkpt>
      <trkpt lat="48.45547" lon="7.12501">
        <ele>632</ele>
        <time>2019-05-15T11:55:03.082Z</time>
      </trkpt>
      <trkpt lat="48.45547" lon="7.125">
        <ele>632</ele>
        <time>2019-05-15T11:55:04.082Z</time>
      </trkpt>
      <trkpt lat="48.45546" lon="7.12499">
        <ele>631</ele>
        <time>2019-05-15T11:55:05.082Z</time>
      </trkpt>
      <trkpt lat="48.45546" lon="7.12498">
        <ele>631</ele>
        <time>2019-05-15T11:55:06.082Z</time>
      </trkpt>
      <trkpt lat="48.45545" lon="7.12497">
        <ele>631</ele>
        <time>2019-05-15T11:55:07.082Z</time>
      </trkpt>
      <trkpt lat="48.45545" lon="7.12497">
        <ele>631</ele>
        <time>2019-05-15T11:55:08.082Z</time>
      </trkpt>
      <trkpt lat="48.45544" lon="7.12496">
        <ele>631</ele>
        <time>2019-05-15T11:55:09.082Z</time>
      </trkpt>
      <trkpt lat="48.45544" lon="7.12495">
        <ele>632</ele>
        <time>2019-05-15T11:55:10.082Z</time>
      </trkpt>
      <trkpt lat="48.45543" lon="7.12494">
        <ele>632</ele>
        <time>2019-05-15T11:55:11.082Z</time>
      </trkpt>
      <trkpt lat="48.45543" lon="7.12494">
        <ele>631</ele>
        <time>2019-05-15T11:55:12.082Z</time>
      </trkpt>
      <trkpt lat="48.45542" lon="7.12493">
        <ele>632</ele>
        <time>2019-05-15T11:55:13.082Z</time>
      </trkpt>
      <trkpt lat="48.45542" lon="7.12493">
        <ele>632</ele>
        <time>2019-05-15T11:55:14.082Z</time>
      </trkpt>
      <trkpt lat="48.45542" lon="7.12493">
        <ele>632</ele>
        <time>2019-05-15T11:55:15.082Z</time>
      </trkpt>
      <trkpt lat="48.45541" lon="7.12492">
        <ele>632</ele>
        <time>2019-05-15T11:55:16.082Z</time>
      </trkpt>
      <trkpt lat="48.45541" lon="7.12492">
        <ele>633</ele>
        <time>2019-05-15T11:55:17.082Z</time>
      </trkpt>
      <trkpt lat="48.45541" lon="7.12491">
        <ele>633</ele>
        <time>2019-05-15T11:55:18.082Z</time>
      </trkpt>
      <trkpt lat="48.4554" lon="7.1249">
        <ele>633</ele>
        <time>2019-05-15T11:55:19.082Z</time>
      </trkpt>
      <trkpt lat="48.45539" lon="7.12489">
        <ele>633</ele>
        <time>2019-05-15T11:55:20.082Z</time>
      </trkpt>
      <trkpt lat="48.45539" lon="7.12488">
        <ele>633</ele>
        <time>2019-05-15T11:55:21.082Z</time>
      </trkpt>
      <trkpt lat="48.45539" lon="7.12488">
        <ele>633</ele>
        <time>2019-05-15T11:55:22.082Z</time>
      </trkpt>
      <trkpt lat="48.45539" lon="7.12487">
        <ele>632</ele>
        <time>2019-05-15T11:55:23.082Z</time>
      </trkpt>
      <trkpt lat="48.45538" lon="7.12487">
        <ele>632</ele>
        <time>2019-05-15T11:55:24.082Z</time>
      </trkpt>
      <trkpt lat="48.45538" lon="7.12487">
        <ele>632</ele>
        <time>2019-05-15T11:55:25.082Z</time>
      </trkpt>
      <trkpt lat="48.45538" lon="7.12487">
        <ele>633</ele>
        <time>2019-05-15T11:55:26.082Z</time>
      </trkpt>
      <trkpt lat="48.45538" lon="7.12488">
        <ele>633</ele>
        <time>2019-05-15T11:55:27.082Z</time>
      </trkpt>
      <trkpt lat="48.45538" lon="7.12488">
        <ele>633</ele>
        <time>2019-05-15T11:55:28.082Z</time>
      </trkpt>
      <trkpt lat="48.45538" lon="7.12488">
        <ele>633</ele>
        <time>2019-05-15T11:55:29.082Z</time>
      </trkpt>
      <trkpt lat="48.45538" lon="7.12488">
        <ele>634</ele>
        <time>2019-05-15T11:55:30.082Z</time>
      </trkpt>
      <trkpt lat="48.45538" lon="7.12489">
        <ele>634</ele>
        <time>2019-05-15T11:55:31.082Z</time>
      </trkpt>
      <trkpt lat="48.45538" lon="7.12489">
        <ele>634</ele>
        <time>2019-05-15T11:55:32.082Z</time>
      </trkpt>
      <trkpt lat="48.45538" lon="7.12489">
        <ele>635</ele>
        <time>2019-05-15T11:55:33.082Z</time>
      </trkpt>
      <trkpt lat="48.45538" lon="7.12489">
        <ele>635</ele>
        <time>2019-05-15T11:55:34.082Z</time>
      </trkpt>
      <trkpt lat="48.45538" lon="7.12489">
        <ele>635</ele>
        <time>2019-05-15T11:55:35.082Z</time>
      </trkpt>
      <trkpt lat="48.45538" lon="7.12489">
        <ele>635</ele>
        <time>2019-05-15T11:55:36.082Z</time>
      </trkpt>
      <trkpt lat="48.45538" lon="7.12489">
        <ele>635</ele>
        <time>2019-05-15T11:55:37.082Z</time>
      </trkpt>
      <trkpt lat="48.45537" lon="7.1249">
        <ele>636</ele>
        <time>2019-05-15T11:55:38.082Z</time>
      </trkpt>
      <trkpt lat="48.45537" lon="7.1249">
        <ele>636</ele>
        <time>2019-05-15T11:55:39.082Z</time>
      </trkpt>
      <trkpt lat="48.45537" lon="7.1249">
        <ele>636</ele>
        <time>2019-05-15T11:55:40.082Z</time>
      </trkpt>
      <trkpt lat="48.45537" lon="7.1249">
        <ele>636</ele>
        <time>2019-05-15T11:55:41.082Z</time>
      </trkpt>
      <trkpt lat="48.45537" lon="7.1249">
        <ele>636</ele>
        <time>2019-05-15T11:55:42.082Z</time>
      </trkpt>
      <trkpt lat="48.45537" lon="7.1249">
        <ele>636</ele>
        <time>2019-05-15T11:55:43.082Z</time>
      </trkpt>
      <trkpt lat="48.45537" lon="7.1249">
        <ele>636</ele>
        <time>2019-05-15T11:55:44.082Z</time>
      </trkpt>
      <trkpt lat="48.45537" lon="7.1249">
        <ele>636</ele>
        <time>2019-05-15T11:55:45.082Z</time>
      </trkpt>
      <trkpt lat="48.45537" lon="7.1249">
        <ele>636</ele>
        <time>2019-05-15T11:55:46.082Z</time>
      </trkpt>
      <trkpt lat="48.45537" lon="7.1249">
        <ele>636</ele>
        <time>2019-05-15T11:55:47.082Z</time>
      </trkpt>
      <trkpt lat="48.45537" lon="7.1249">
        <ele>636</ele>
        <time>2019-05-15T11:55:48.082Z</time>
      </trkpt>
      <trkpt lat="48.45537" lon="7.1249">
        <ele>636</ele>
        <time>2019-05-15T11:55:49.082Z</time>
      </trkpt>
      <trkpt lat="48.45537" lon="7.1249">
        <ele>636</ele>
        <time>2019-05-15T11:55:50.082Z</time>
      </trkpt>
      <trkpt lat="48.45537" lon="7.12491">
        <ele>636</ele>
        <time>2019-05-15T11:55:51.082Z</time>
      </trkpt>
      <trkpt lat="48.45537" lon="7.12491">
        <ele>636</ele>
        <time>2019-05-15T11:55:52.082Z</time>
      </trkpt>
      <trkpt lat="48.45537" lon="7.12491">
        <ele>636</ele>
        <time>2019-05-15T11:55:53.082Z</time>
      </trkpt>
      <trkpt lat="48.45537" lon="7.12491">
        <ele>636</ele>
        <time>2019-05-15T11:55:54.082Z</time>
      </trkpt>
      <trkpt lat="48.45537" lon="7.1249">
        <ele>636</ele>
        <time>2019-05-15T11:55:55.082Z</time>
      </trkpt>
      <trkpt lat="48.45537" lon="7.1249">
        <ele>636</ele>
        <time>2019-05-15T11:55:56.082Z</time>
      </trkpt>
      <trkpt lat="48.45537" lon="7.1249">
        <ele>636</ele>
        <time>2019-05-15T11:55:57.082Z</time>
      </trkpt>
      <trkpt lat="48.45537" lon="7.1249">
        <ele>636</ele>
        <time>2019-05-15T11:55:58.082Z</time>
      </trkpt>
      <trkpt lat="48.45537" lon="7.1249">
        <ele>636</ele>
        <time>2019-05-15T11:55:59.082Z</time>
      </trkpt>
      <trkpt lat="48.45537" lon="7.1249">
        <ele>636</ele>
        <time>2019-05-15T11:56:00.082Z</time>
      </trkpt>
      <trkpt lat="48.45537" lon="7.1249">
        <ele>637</ele>
        <time>2019-05-15T11:56:01.082Z</time>
      </trkpt>
      <trkpt lat="48.45537" lon="7.1249">
        <ele>637</ele>
        <time>2019-05-15T11:56:02.082Z</time>
      </trkpt>
      <trkpt lat="48.45537" lon="7.12491">
        <ele>637</ele>
        <time>2019-05-15T11:56:03.082Z</time>
      </trkpt>
      <trkpt lat="48.45537" lon="7.12491">
        <ele>637</ele>
        <time>2019-05-15T11:56:04.082Z</time>
      </trkpt>
      <trkpt lat="48.45537" lon="7.12491">
        <ele>637</ele>
        <time>2019-05-15T11:56:05.082Z</time>
      </trkpt>
      <trkpt lat="48.45537" lon="7.12491">
        <ele>637</ele>
        <time>2019-05-15T11:56:06.082Z</time>
      </trkpt>
      <trkpt lat="48.45537" lon="7.12491">
        <ele>637</ele>
        <time>2019-05-15T11:56:07.082Z</time>
      </trkpt>
      <trkpt lat="48.45536" lon="7.12492">
        <ele>638</ele>
        <time>2019-05-15T11:56:08.082Z</time>
      </trkpt>
      <trkpt lat="48.45536" lon="7.12492">
        <ele>638</ele>
        <time>2019-05-15T11:56:09.082Z</time>
      </trkpt>
      <trkpt lat="48.45536" lon="7.12492">
        <ele>638</ele>
        <time>2019-05-15T11:56:10.082Z</time>
      </trkpt>
      <trkpt lat="48.45536" lon="7.12492">
        <ele>639</ele>
        <time>2019-05-15T11:56:11.082Z</time>
      </trkpt>
      <trkpt lat="48.45536" lon="7.12492">
        <ele>639</ele>
        <time>2019-05-15T11:56:12.082Z</time>
      </trkpt>
      <trkpt lat="48.45537" lon="7.12491">
        <ele>637</ele>
        <time>2019-05-15T11:56:13.082Z</time>
      </trkpt>
      <trkpt lat="48.45537" lon="7.1249">
        <ele>637</ele>
        <time>2019-05-15T11:56:14.082Z</time>
      </trkpt>
      <trkpt lat="48.45537" lon="7.1249">
        <ele>638</ele>
        <time>2019-05-15T11:56:15.082Z</time>
      </trkpt>
      <trkpt lat="48.45537" lon="7.12489">
        <ele>638</ele>
        <time>2019-05-15T11:56:16.082Z</time>
      </trkpt>
      <trkpt lat="48.45537" lon="7.12489">
        <ele>638</ele>
        <time>2019-05-15T11:56:17.082Z</time>
      </trkpt>
      <trkpt lat="48.45537" lon="7.12489">
        <ele>637</ele>
        <time>2019-05-15T11:56:18.082Z</time>
      </trkpt>
      <trkpt lat="48.45538" lon="7.12489">
        <ele>637</ele>
        <time>2019-05-15T11:56:19.082Z</time>
      </trkpt>
      <trkpt lat="48.45538" lon="7.12489">
        <ele>637</ele>
        <time>2019-05-15T11:56:20.082Z</time>
      </trkpt>
      <trkpt lat="48.45537" lon="7.12488">
        <ele>637</ele>
        <time>2019-05-15T11:56:21.082Z</time>
      </trkpt>
      <trkpt lat="48.45537" lon="7.12488">
        <ele>637</ele>
        <time>2019-05-15T11:56:22.082Z</time>
      </trkpt>
      <trkpt lat="48.45537" lon="7.12489">
        <ele>637</ele>
        <time>2019-05-15T11:56:23.082Z</time>
      </trkpt>
      <trkpt lat="48.45538" lon="7.12489">
        <ele>637</ele>
        <time>2019-05-15T11:56:24.082Z</time>
      </trkpt>
      <trkpt lat="48.45538" lon="7.12489">
        <ele>637</ele>
        <time>2019-05-15T11:56:25.082Z</time>
      </trkpt>
      <trkpt lat="48.45538" lon="7.12488">
        <ele>637</ele>
        <time>2019-05-15T11:56:26.082Z</time>
      </trkpt>
      <trkpt lat="48.45538" lon="7.12488">
        <ele>636</ele>
        <time>2019-05-15T11:56:27.082Z</time>
      </trkpt>
      <trkpt lat="48.45538" lon="7.12488">
        <ele>636</ele>
        <time>2019-05-15T11:56:28.082Z</time>
      </trkpt>
      <trkpt lat="48.45538" lon="7.12487">
        <ele>636</ele>
        <time>2019-05-15T11:56:29.082Z</time>
      </trkpt>
      <trkpt lat="48.45539" lon="7.12487">
        <ele>636</ele>
        <time>2019-05-15T11:56:30.082Z</time>
      </trkpt>
      <trkpt lat="48.45539" lon="7.12487">
        <ele>636</ele>
        <time>2019-05-15T11:56:31.082Z</time>
      </trkpt>
      <trkpt lat="48.45539" lon="7.12487">
        <ele>636</ele>
        <time>2019-05-15T11:56:32.082Z</time>
      </trkpt>
      <trkpt lat="48.45539" lon="7.12487">
        <ele>636</ele>
        <time>2019-05-15T11:56:33.082Z</time>
      </trkpt>
      <trkpt lat="48.45539" lon="7.12487">
        <ele>636</ele>
        <time>2019-05-15T11:56:34.082Z</time>
      </trkpt>
      <trkpt lat="48.45538" lon="7.12487">
        <ele>635</ele>
        <time>2019-05-15T11:56:35.082Z</time>
      </trkpt>
      <trkpt lat="48.45538" lon="7.12488">
        <ele>635</ele>
        <time>2019-05-15T11:56:36.082Z</time>
      </trkpt>
      <trkpt lat="48.45538" lon="7.12488">
        <ele>636</ele>
        <time>2019-05-15T11:56:37.082Z</time>
      </trkpt>
      <trkpt lat="48.45539" lon="7.12487">
        <ele>636</ele>
        <time>2019-05-15T11:56:38.082Z</time>
      </trkpt>
      <trkpt lat="48.45539" lon="7.12487">
        <ele>636</ele>
        <time>2019-05-15T11:56:39.082Z</time>
      </trkpt>
      <trkpt lat="48.45539" lon="7.12488">
        <ele>635</ele>
        <time>2019-05-15T11:56:40.082Z</time>
      </trkpt>
      <trkpt lat="48.4554" lon="7.12489">
        <ele>635</ele>
        <time>2019-05-15T11:56:41.082Z</time>
      </trkpt>
      <trkpt lat="48.4554" lon="7.12489">
        <ele>635</ele>
        <time>2019-05-15T11:56:42.082Z</time>
      </trkpt>
      <trkpt lat="48.45541" lon="7.1249">
        <ele>634</ele>
        <time>2019-05-15T11:56:43.082Z</time>
      </trkpt>
      <trkpt lat="48.45541" lon="7.1249">
        <ele>634</ele>
        <time>2019-05-15T11:56:44.082Z</time>
      </trkpt>
      <trkpt lat="48.45542" lon="7.12491">
        <ele>634</ele>
        <time>2019-05-15T11:56:45.082Z</time>
      </trkpt>
      <trkpt lat="48.45542" lon="7.12492">
        <ele>634</ele>
        <time>2019-05-15T11:56:46.082Z</time>
      </trkpt>
      <trkpt lat="48.45542" lon="7.12492">
        <ele>634</ele>
        <time>2019-05-15T11:56:47.082Z</time>
      </trkpt>
      <trkpt lat="48.45543" lon="7.12493">
        <ele>634</ele>
        <time>2019-05-15T11:56:48.082Z</time>
      </trkpt>
      <trkpt lat="48.45543" lon="7.12493">
        <ele>634</ele>
        <time>2019-05-15T11:56:49.082Z</time>
      </trkpt>
      <trkpt lat="48.45544" lon="7.12494">
        <ele>635</ele>
        <time>2019-05-15T11:56:50.082Z</time>
      </trkpt>
      <trkpt lat="48.45544" lon="7.12495">
        <ele>635</ele>
        <time>2019-05-15T11:56:51.082Z</time>
      </trkpt>
      <trkpt lat="48.45545" lon="7.12495">
        <ele>635</ele>
        <time>2019-05-15T11:56:52.082Z</time>
      </trkpt>
      <trkpt lat="48.45545" lon="7.12495">
        <ele>635</ele>
        <time>2019-05-15T11:56:53.082Z</time>
      </trkpt>
      <trkpt lat="48.45545" lon="7.12495">
        <ele>635</ele>
        <time>2019-05-15T11:56:54.082Z</time>
      </trkpt>
      <trkpt lat="48.45545" lon="7.12496">
        <ele>635</ele>
        <time>2019-05-15T11:56:55.082Z</time>
      </trkpt>
      <trkpt lat="48.45545" lon="7.12496">
        <ele>635</ele>
        <time>2019-05-15T11:56:56.082Z</time>
      </trkpt>
      <trkpt lat="48.45546" lon="7.12497">
        <ele>636</ele>
        <time>2019-05-15T11:56:57.082Z</time>
      </trkpt>
      <trkpt lat="48.45546" lon="7.12497">
        <ele>636</ele>
        <time>2019-05-15T11:56:58.082Z</time>
      </trkpt>
      <trkpt lat="48.45546" lon="7.12498">
        <ele>636</ele>
        <time>2019-05-15T11:56:59.082Z</time>
      </trkpt>
      <trkpt lat="48.45547" lon="7.12498">
        <ele>636</ele>
        <time>2019-05-15T11:57:00.082Z</time>
      </trkpt>
      <trkpt lat="48.45547" lon="7.12499">
        <ele>636</ele>
        <time>2019-05-15T11:57:01.082Z</time>
      </trkpt>
      <trkpt lat="48.45548" lon="7.12499">
        <ele>636</ele>
        <time>2019-05-15T11:57:02.082Z</time>
      </trkpt>
      <trkpt lat="48.45548" lon="7.125">
        <ele>636</ele>
        <time>2019-05-15T11:57:03.082Z</time>
      </trkpt>
      <trkpt lat="48.45548" lon="7.12501">
        <ele>637</ele>
        <time>2019-05-15T11:57:04.082Z</time>
      </trkpt>
      <trkpt lat="48.45549" lon="7.12501">
        <ele>636</ele>
        <time>2019-05-15T11:57:05.082Z</time>
      </trkpt>
      <trkpt lat="48.45549" lon="7.12502">
        <ele>637</ele>
        <time>2019-05-15T11:57:06.082Z</time>
      </trkpt>
      <trkpt lat="48.4555" lon="7.12503">
        <ele>636</ele>
        <time>2019-05-15T11:57:07.082Z</time>
      </trkpt>
      <trkpt lat="48.45551" lon="7.12504">
        <ele>636</ele>
        <time>2019-05-15T11:57:08.082Z</time>
      </trkpt>
      <trkpt lat="48.45551" lon="7.12504">
        <ele>636</ele>
        <time>2019-05-15T11:57:09.082Z</time>
      </trkpt>
      <trkpt lat="48.45551" lon="7.12505">
        <ele>636</ele>
        <time>2019-05-15T11:57:10.082Z</time>
      </trkpt>
      <trkpt lat="48.45552" lon="7.12505">
        <ele>637</ele>
        <time>2019-05-15T11:57:11.082Z</time>
      </trkpt>
      <trkpt lat="48.45552" lon="7.12506">
        <ele>637</ele>
        <time>2019-05-15T11:57:12.082Z</time>
      </trkpt>
      <trkpt lat="48.45553" lon="7.12507">
        <ele>638</ele>
        <time>2019-05-15T11:57:13.082Z</time>
      </trkpt>
      <trkpt lat="48.45552" lon="7.12507">
        <ele>637</ele>
        <time>2019-05-15T11:57:14.082Z</time>
      </trkpt>
      <trkpt lat="48.45552" lon="7.12507">
        <ele>637</ele>
        <time>2019-05-15T11:57:15.082Z</time>
      </trkpt>
      <trkpt lat="48.45552" lon="7.12507">
        <ele>637</ele>
        <time>2019-05-15T11:57:16.082Z</time>
      </trkpt>
      <trkpt lat="48.45553" lon="7.12508">
        <ele>638</ele>
        <time>2019-05-15T11:57:17.082Z</time>
      </trkpt>
      <trkpt lat="48.45553" lon="7.12508">
        <ele>637</ele>
        <time>2019-05-15T11:57:18.082Z</time>
      </trkpt>
      <trkpt lat="48.45554" lon="7.12509">
        <ele>637</ele>
        <time>2019-05-15T11:57:19.082Z</time>
      </trkpt>
      <trkpt lat="48.45554" lon="7.1251">
        <ele>636</ele>
        <time>2019-05-15T11:57:20.082Z</time>
      </trkpt>
      <trkpt lat="48.45555" lon="7.12511">
        <ele>636</ele>
        <time>2019-05-15T11:57:21.082Z</time>
      </trkpt>
      <trkpt lat="48.45556" lon="7.12511">
        <ele>636</ele>
        <time>2019-05-15T11:57:22.082Z</time>
      </trkpt>
      <trkpt lat="48.45556" lon="7.12512">
        <ele>636</ele>
        <time>2019-05-15T11:57:23.082Z</time>
      </trkpt>
      <trkpt lat="48.45557" lon="7.12513">
        <ele>637</ele>
        <time>2019-05-15T11:57:24.082Z</time>
      </trkpt>
      <trkpt lat="48.45558" lon="7.12514">
        <ele>638</ele>
        <time>2019-05-15T11:57:25.082Z</time>
      </trkpt>
      <trkpt lat="48.45558" lon="7.12514">
        <ele>637</ele>
        <time>2019-05-15T11:57:26.082Z</time>
      </trkpt>
      <trkpt lat="48.45559" lon="7.12515">
        <ele>636</ele>
        <time>2019-05-15T11:57:27.082Z</time>
      </trkpt>
      <trkpt lat="48.45559" lon="7.12517">
        <ele>635</ele>
        <time>2019-05-15T11:57:28.082Z</time>
      </trkpt>
      <trkpt lat="48.45559" lon="7.12519">
        <ele>636</ele>
        <time>2019-05-15T11:57:29.082Z</time>
      </trkpt>
      <trkpt lat="48.45559" lon="7.1252">
        <ele>636</ele>
        <time>2019-05-15T11:57:30.082Z</time>
      </trkpt>
      <trkpt lat="48.45559" lon="7.12521">
        <ele>636</ele>
        <time>2019-05-15T11:57:31.082Z</time>
      </trkpt>
      <trkpt lat="48.4556" lon="7.12521">
        <ele>636</ele>
        <time>2019-05-15T11:57:32.082Z</time>
      </trkpt>
      <trkpt lat="48.4556" lon="7.12522">
        <ele>637</ele>
        <time>2019-05-15T11:57:33.082Z</time>
      </trkpt>
      <trkpt lat="48.45561" lon="7.12522">
        <ele>637</ele>
        <time>2019-05-15T11:57:34.082Z</time>
      </trkpt>
      <trkpt lat="48.45561" lon="7.12523">
        <ele>637</ele>
        <time>2019-05-15T11:57:35.082Z</time>
      </trkpt>
      <trkpt lat="48.45561" lon="7.12523">
        <ele>636</ele>
        <time>2019-05-15T11:57:36.082Z</time>
      </trkpt>
      <trkpt lat="48.45562" lon="7.12524">
        <ele>636</ele>
        <time>2019-05-15T11:57:37.082Z</time>
      </trkpt>
      <trkpt lat="48.45562" lon="7.12524">
        <ele>636</ele>
        <time>2019-05-15T11:57:38.082Z</time>
      </trkpt>
      <trkpt lat="48.45563" lon="7.12525">
        <ele>635</ele>
        <time>2019-05-15T11:57:39.082Z</time>
      </trkpt>
      <trkpt lat="48.45563" lon="7.12525">
        <ele>635</ele>
        <time>2019-05-15T11:57:40.082Z</time>
      </trkpt>
      <trkpt lat="48.45564" lon="7.12526">
        <ele>635</ele>
        <time>2019-05-15T11:57:41.082Z</time>
      </trkpt>
      <trkpt lat="48.45564" lon="7.12526">
        <ele>635</ele>
        <time>2019-05-15T11:57:42.082Z</time>
      </trkpt>
      <trkpt lat="48.45564" lon="7.12527">
        <ele>635</ele>
        <time>2019-05-15T11:57:43.082Z</time>
      </trkpt>
      <trkpt lat="48.45565" lon="7.12527">
        <ele>636</ele>
        <time>2019-05-15T11:57:44.082Z</time>
      </trkpt>
      <trkpt lat="48.45565" lon="7.12527">
        <ele>637</ele>
        <time>2019-05-15T11:57:45.082Z</time>
      </trkpt>
      <trkpt lat="48.45566" lon="7.12528">
        <ele>637</ele>
        <time>2019-05-15T11:57:46.082Z</time>
      </trkpt>
      <trkpt lat="48.45566" lon="7.12528">
        <ele>637</ele>
        <time>2019-05-15T11:57:47.082Z</time>
      </trkpt>
      <trkpt lat="48.45567" lon="7.12529">
        <ele>637</ele>
        <time>2019-05-15T11:57:48.082Z</time>
      </trkpt>
      <trkpt lat="48.45568" lon="7.1253">
        <ele>637</ele>
        <time>2019-05-15T11:57:49.082Z</time>
      </trkpt>
      <trkpt lat="48.45569" lon="7.12532">
        <ele>639</ele>
        <time>2019-05-15T11:57:50.082Z</time>
      </trkpt>
      <trkpt lat="48.45569" lon="7.12533">
        <ele>639</ele>
        <time>2019-05-15T11:57:51.082Z</time>
      </trkpt>
      <trkpt lat="48.45569" lon="7.12535">
        <ele>639</ele>
        <time>2019-05-15T11:57:52.082Z</time>
      </trkpt>
      <trkpt lat="48.45569" lon="7.12537">
        <ele>639</ele>
        <time>2019-05-15T11:57:53.082Z</time>
      </trkpt>
      <trkpt lat="48.45568" lon="7.12539">
        <ele>639</ele>
        <time>2019-05-15T11:57:54.082Z</time>
      </trkpt>
      <trkpt lat="48.45568" lon="7.12539">
        <ele>639</ele>
        <time>2019-05-15T11:57:55.082Z</time>
      </trkpt>
      <trkpt lat="48.45568" lon="7.1254">
        <ele>639</ele>
        <time>2019-05-15T11:57:56.082Z</time>
      </trkpt>
      <trkpt lat="48.45568" lon="7.1254">
        <ele>639</ele>
        <time>2019-05-15T11:57:57.082Z</time>
      </trkpt>
      <trkpt lat="48.45568" lon="7.12541">
        <ele>639</ele>
        <time>2019-05-15T11:57:58.082Z</time>
      </trkpt>
      <trkpt lat="48.45568" lon="7.12541">
        <ele>639</ele>
        <time>2019-05-15T11:57:59.082Z</time>
      </trkpt>
      <trkpt lat="48.45568" lon="7.12541">
        <ele>639</ele>
        <time>2019-05-15T11:58:00.082Z</time>
      </trkpt>
      <trkpt lat="48.45568" lon="7.12541">
        <ele>639</ele>
        <time>2019-05-15T11:58:01.082Z</time>
      </trkpt>
      <trkpt lat="48.45568" lon="7.12542">
        <ele>639</ele>
        <time>2019-05-15T11:58:02.082Z</time>
      </trkpt>
      <trkpt lat="48.45568" lon="7.12542">
        <ele>639</ele>
        <time>2019-05-15T11:58:03.082Z</time>
      </trkpt>
      <trkpt lat="48.45568" lon="7.12542">
        <ele>639</ele>
        <time>2019-05-15T11:58:04.082Z</time>
      </trkpt>
      <trkpt lat="48.45569" lon="7.12542">
        <ele>639</ele>
        <time>2019-05-15T11:58:05.082Z</time>
      </trkpt>
      <trkpt lat="48.45569" lon="7.12542">
        <ele>639</ele>
        <time>2019-05-15T11:58:06.082Z</time>
      </trkpt>
      <trkpt lat="48.45569" lon="7.12542">
        <ele>639</ele>
        <time>2019-05-15T11:58:07.082Z</time>
      </trkpt>
      <trkpt lat="48.45569" lon="7.12542">
        <ele>639</ele>
        <time>2019-05-15T11:58:08.082Z</time>
      </trkpt>
      <trkpt lat="48.45569" lon="7.12542">
        <ele>640</ele>
        <time>2019-05-15T11:58:09.082Z</time>
      </trkpt>
      <trkpt lat="48.45569" lon="7.12542">
        <ele>640</ele>
        <time>2019-05-15T11:58:10.082Z</time>
      </trkpt>
      <trkpt lat="48.45569" lon="7.12542">
        <ele>640</ele>
        <time>2019-05-15T11:58:11.082Z</time>
      </trkpt>
      <trkpt lat="48.45569" lon="7.12542">
        <ele>640</ele>
        <time>2019-05-15T11:58:12.082Z</time>
      </trkpt>
      <trkpt lat="48.45569" lon="7.12543">
        <ele>640</ele>
        <time>2019-05-15T11:58:13.082Z</time>
      </trkpt>
      <trkpt lat="48.45568" lon="7.12543">
        <ele>640</ele>
        <time>2019-05-15T11:58:14.082Z</time>
      </trkpt>
      <trkpt lat="48.45568" lon="7.12544">
        <ele>640</ele>
        <time>2019-05-15T11:58:15.082Z</time>
      </trkpt>
      <trkpt lat="48.45568" lon="7.12544">
        <ele>640</ele>
        <time>2019-05-15T11:58:16.082Z</time>
      </trkpt>
      <trkpt lat="48.45568" lon="7.12544">
        <ele>640</ele>
        <time>2019-05-15T11:58:17.082Z</time>
      </trkpt>
      <trkpt lat="48.45568" lon="7.12544">
        <ele>640</ele>
        <time>2019-05-15T11:58:18.082Z</time>
      </trkpt>
      <trkpt lat="48.45568" lon="7.12544">
        <ele>640</ele>
        <time>2019-05-15T11:58:19.082Z</time>
      </trkpt>
      <trkpt lat="48.45568" lon="7.12544">
        <ele>641</ele>
        <time>2019-05-15T11:58:20.082Z</time>
      </trkpt>
      <trkpt lat="48.45567" lon="7.12544">
        <ele>641</ele>
        <time>2019-05-15T11:58:21.082Z</time>
      </trkpt>
      <trkpt lat="48.45567" lon="7.12545">
        <ele>641</ele>
        <time>2019-05-15T11:58:22.082Z</time>
      </trkpt>
      <trkpt lat="48.45567" lon="7.12545">
        <ele>641</ele>
        <time>2019-05-15T11:58:23.082Z</time>
      </trkpt>
      <trkpt lat="48.45567" lon="7.12545">
        <ele>641</ele>
        <time>2019-05-15T11:58:24.082Z</time>
      </trkpt>
      <trkpt lat="48.45567" lon="7.12545">
        <ele>642</ele>
        <time>2019-05-15T11:58:25.082Z</time>
      </trkpt>
      <trkpt lat="48.45567" lon="7.12545">
        <ele>642</ele>
        <time>2019-05-15T11:58:26.082Z</time>
      </trkpt>
      <trkpt lat="48.45567" lon="7.12546">
        <ele>642</ele>
        <time>2019-05-15T11:58:27.082Z</time>
      </trkpt>
      <trkpt lat="48.45567" lon="7.12546">
        <ele>642</ele>
        <time>2019-05-15T11:58:28.082Z</time>
      </trkpt>
      <trkpt lat="48.45567" lon="7.12546">
        <ele>642</ele>
        <time>2019-05-15T11:58:29.082Z</time>
      </trkpt>
      <trkpt lat="48.45566" lon="7.12546">
        <ele>642</ele>
        <time>2019-05-15T11:58:30.082Z</time>
      </trkpt>
      <trkpt lat="48.45566" lon="7.12546">
        <ele>642</ele>
        <time>2019-05-15T11:58:31.082Z</time>
      </trkpt>
      <trkpt lat="48.45566" lon="7.12546">
        <ele>641</ele>
        <time>2019-05-15T11:58:32.082Z</time>
      </trkpt>
      <trkpt lat="48.45566" lon="7.12547">
        <ele>641</ele>
        <time>2019-05-15T11:58:33.082Z</time>
      </trkpt>
      <trkpt lat="48.45566" lon="7.12547">
        <ele>641</ele>
        <time>2019-05-15T11:58:34.082Z</time>
      </trkpt>
      <trkpt lat="48.45566" lon="7.12547">
        <ele>641</ele>
        <time>2019-05-15T11:58:35.082Z</time>
      </trkpt>
      <trkpt lat="48.45566" lon="7.12547">
        <ele>640</ele>
        <time>2019-05-15T11:58:36.082Z</time>
      </trkpt>
      <trkpt lat="48.45566" lon="7.12547">
        <ele>641</ele>
        <time>2019-05-15T11:58:37.082Z</time>
      </trkpt>
      <trkpt lat="48.45566" lon="7.12547">
        <ele>641</ele>
        <time>2019-05-15T11:58:38.082Z</time>
      </trkpt>
      <trkpt lat="48.45566" lon="7.12547">
        <ele>641</ele>
        <time>2019-05-15T11:58:39.082Z</time>
      </trkpt>
      <trkpt lat="48.45566" lon="7.12547">
        <ele>641</ele>
        <time>2019-05-15T11:58:40.082Z</time>
      </trkpt>
      <trkpt lat="48.45566" lon="7.12547">
        <ele>641</ele>
        <time>2019-05-15T11:58:41.082Z</time>
      </trkpt>
      <trkpt lat="48.45565" lon="7.12547">
        <ele>641</ele>
        <time>2019-05-15T11:58:42.082Z</time>
      </trkpt>
      <trkpt lat="48.45565" lon="7.12547">
        <ele>641</ele>
        <time>2019-05-15T11:58:43.082Z</time>
      </trkpt>
      <trkpt lat="48.45565" lon="7.12547">
        <ele>641</ele>
        <time>2019-05-15T11:58:44.082Z</time>
      </trkpt>
      <trkpt lat="48.45565" lon="7.12547">
        <ele>641</ele>
        <time>2019-05-15T11:58:45.082Z</time>
      </trkpt>
      <trkpt lat="48.45565" lon="7.12547">
        <ele>641</ele>
        <time>2019-05-15T11:58:46.082Z</time>
      </trkpt>
      <trkpt lat="48.45565" lon="7.12547">
        <ele>640</ele>
        <time>2019-05-15T11:58:47.082Z</time>
      </trkpt>
      <trkpt lat="48.45565" lon="7.12547">
        <ele>640</ele>
        <time>2019-05-15T11:58:48.082Z</time>
      </trkpt>
      <trkpt lat="48.45565" lon="7.12547">
        <ele>640</ele>
        <time>2019-05-15T11:58:49.082Z</time>
      </trkpt>
      <trkpt lat="48.45565" lon="7.12547">
        <ele>640</ele>
        <time>2019-05-15T11:58:50.082Z</time>
      </trkpt>
      <trkpt lat="48.45565" lon="7.12547">
        <ele>640</ele>
        <time>2019-05-15T11:58:51.082Z</time>
      </trkpt>
      <trkpt lat="48.45565" lon="7.12547">
        <ele>640</ele>
        <time>2019-05-15T11:58:52.082Z</time>
      </trkpt>
      <trkpt lat="48.45565" lon="7.12547">
        <ele>640</ele>
        <time>2019-05-15T11:58:53.082Z</time>
      </trkpt>
      <trkpt lat="48.45565" lon="7.12547">
        <ele>639</ele>
        <time>2019-05-15T11:58:54.082Z</time>
      </trkpt>
      <trkpt lat="48.45564" lon="7.12547">
        <ele>639</ele>
        <time>2019-05-15T11:58:55.082Z</time>
      </trkpt>
      <trkpt lat="48.45565" lon="7.12546">
        <ele>640</ele>
        <time>2019-05-15T11:58:56.082Z</time>
      </trkpt>
      <trkpt lat="48.45565" lon="7.12546">
        <ele>640</ele>
        <time>2019-05-15T11:58:57.082Z</time>
      </trkpt>
      <trkpt lat="48.45564" lon="7.12546">
        <ele>640</ele>
        <time>2019-05-15T11:58:58.082Z</time>
      </trkpt>
      <trkpt lat="48.45564" lon="7.12546">
        <ele>640</ele>
        <time>2019-05-15T11:58:59.082Z</time>
      </trkpt>
      <trkpt lat="48.45564" lon="7.12546">
        <ele>640</ele>
        <time>2019-05-15T11:59:00.082Z</time>
      </trkpt>
      <trkpt lat="48.45564" lon="7.12546">
        <ele>640</ele>
        <time>2019-05-15T11:59:01.082Z</time>
      </trkpt>
      <trkpt lat="48.45564" lon="7.12546">
        <ele>640</ele>
        <time>2019-05-15T11:59:02.082Z</time>
      </trkpt>
      <trkpt lat="48.45564" lon="7.12546">
        <ele>640</ele>
        <time>2019-05-15T11:59:03.082Z</time>
      </trkpt>
      <trkpt lat="48.45564" lon="7.12546">
        <ele>640</ele>
        <time>2019-05-15T11:59:04.082Z</time>
      </trkpt>
      <trkpt lat="48.45564" lon="7.12546">
        <ele>639</ele>
        <time>2019-05-15T11:59:05.082Z</time>
      </trkpt>
      <trkpt lat="48.45564" lon="7.12546">
        <ele>639</ele>
        <time>2019-05-15T11:59:06.082Z</time>
      </trkpt>
      <trkpt lat="48.45564" lon="7.12545">
        <ele>638</ele>
        <time>2019-05-15T11:59:07.082Z</time>
      </trkpt>
      <trkpt lat="48.45564" lon="7.12545">
        <ele>637</ele>
        <time>2019-05-15T11:59:08.082Z</time>
      </trkpt>
      <trkpt lat="48.45564" lon="7.12545">
        <ele>637</ele>
        <time>2019-05-15T11:59:09.082Z</time>
      </trkpt>
      <trkpt lat="48.45564" lon="7.12545">
        <ele>636</ele>
        <time>2019-05-15T11:59:10.082Z</time>
      </trkpt>
      <trkpt lat="48.45563" lon="7.12544">
        <ele>636</ele>
        <time>2019-05-15T11:59:11.082Z</time>
      </trkpt>
      <trkpt lat="48.45563" lon="7.12544">
        <ele>635</ele>
        <time>2019-05-15T11:59:12.082Z</time>
      </trkpt>
      <trkpt lat="48.45563" lon="7.12544">
        <ele>635</ele>
        <time>2019-05-15T11:59:13.082Z</time>
      </trkpt>
      <trkpt lat="48.45563" lon="7.12544">
        <ele>635</ele>
        <time>2019-05-15T11:59:14.082Z</time>
      </trkpt>
      <trkpt lat="48.45564" lon="7.12544">
        <ele>634</ele>
        <time>2019-05-15T11:59:15.082Z</time>
      </trkpt>
      <trkpt lat="48.45564" lon="7.12544">
        <ele>634</ele>
        <time>2019-05-15T11:59:16.082Z</time>
      </trkpt>
      <trkpt lat="48.45564" lon="7.12544">
        <ele>634</ele>
        <time>2019-05-15T11:59:17.082Z</time>
      </trkpt>
      <trkpt lat="48.45564" lon="7.12544">
        <ele>634</ele>
        <time>2019-05-15T11:59:18.082Z</time>
      </trkpt>
      <trkpt lat="48.45564" lon="7.12544">
        <ele>634</ele>
        <time>2019-05-15T11:59:19.082Z</time>
      </trkpt>
      <trkpt lat="48.45564" lon="7.12544">
        <ele>634</ele>
        <time>2019-05-15T11:59:20.082Z</time>
      </trkpt>
      <trkpt lat="48.45564" lon="7.12543">
        <ele>634</ele>
        <time>2019-05-15T11:59:21.082Z</time>
      </trkpt>
      <trkpt lat="48.45564" lon="7.12543">
        <ele>633</ele>
        <time>2019-05-15T11:59:22.082Z</time>
      </trkpt>
      <trkpt lat="48.45565" lon="7.12543">
        <ele>632</ele>
        <time>2019-05-15T11:59:23.082Z</time>
      </trkpt>
      <trkpt lat="48.45565" lon="7.12543">
        <ele>632</ele>
        <time>2019-05-15T11:59:24.082Z</time>
      </trkpt>
      <trkpt lat="48.45565" lon="7.12543">
        <ele>632</ele>
        <time>2019-05-15T11:59:25.082Z</time>
      </trkpt>
      <trkpt lat="48.45565" lon="7.12542">
        <ele>631</ele>
        <time>2019-05-15T11:59:26.082Z</time>
      </trkpt>
      <trkpt lat="48.45565" lon="7.12542">
        <ele>630</ele>
        <time>2019-05-15T11:59:27.082Z</time>
      </trkpt>
      <trkpt lat="48.45565" lon="7.12542">
        <ele>630</ele>
        <time>2019-05-15T11:59:28.082Z</time>
      </trkpt>
      <trkpt lat="48.45565" lon="7.12542">
        <ele>630</ele>
        <time>2019-05-15T11:59:29.082Z</time>
      </trkpt>
      <trkpt lat="48.45565" lon="7.12542">
        <ele>629</ele>
        <time>2019-05-15T11:59:30.082Z</time>
      </trkpt>
      <trkpt lat="48.45565" lon="7.12542">
        <ele>628</ele>
        <time>2019-05-15T11:59:31.082Z</time>
      </trkpt>
      <trkpt lat="48.45565" lon="7.12542">
        <ele>627</ele>
        <time>2019-05-15T11:59:32.082Z</time>
      </trkpt>
      <trkpt lat="48.45565" lon="7.12542">
        <ele>625</ele>
        <time>2019-05-15T11:59:33.082Z</time>
      </trkpt>
      <trkpt lat="48.45565" lon="7.12542">
        <ele>623</ele>
        <time>2019-05-15T11:59:34.082Z</time>
      </trkpt>
      <trkpt lat="48.45565" lon="7.12543">
        <ele>622</ele>
        <time>2019-05-15T11:59:35.082Z</time>
      </trkpt>
      <trkpt lat="48.45565" lon="7.12543">
        <ele>622</ele>
        <time>2019-05-15T11:59:36.082Z</time>
      </trkpt>
      <trkpt lat="48.45565" lon="7.12543">
        <ele>621</ele>
        <time>2019-05-15T11:59:37.082Z</time>
      </trkpt>
      <trkpt lat="48.45565" lon="7.12543">
        <ele>621</ele>
        <time>2019-05-15T11:59:38.082Z</time>
      </trkpt>
      <trkpt lat="48.45565" lon="7.12543">
        <ele>621</ele>
        <time>2019-05-15T11:59:39.082Z</time>
      </trkpt>
      <trkpt lat="48.45565" lon="7.12542">
        <ele>622</ele>
        <time>2019-05-15T11:59:40.082Z</time>
      </trkpt>
      <trkpt lat="48.45565" lon="7.12542">
        <ele>622</ele>
        <time>2019-05-15T11:59:41.082Z</time>
      </trkpt>
      <trkpt lat="48.45565" lon="7.12542">
        <ele>622</ele>
        <time>2019-05-15T11:59:42.082Z</time>
      </trkpt>
      <trkpt lat="48.45565" lon="7.12542">
        <ele>624</ele>
        <time>2019-05-15T11:59:43.082Z</time>
      </trkpt>
      <trkpt lat="48.45565" lon="7.12543">
        <ele>625</ele>
        <time>2019-05-15T11:59:44.082Z</time>
      </trkpt>
      <trkpt lat="48.45565" lon="7.12543">
        <ele>628</ele>
        <time>2019-05-15T11:59:45.082Z</time>
      </trkpt>
      <trkpt lat="48.45566" lon="7.12544">
        <ele>629</ele>
        <time>2019-05-15T11:59:46.082Z</time>
      </trkpt>
      <trkpt lat="48.45567" lon="7.12545">
        <ele>631</ele>
        <time>2019-05-15T11:59:47.082Z</time>
      </trkpt>
      <trkpt lat="48.45567" lon="7.12545">
        <ele>631</ele>
        <time>2019-05-15T11:59:48.082Z</time>
      </trkpt>
      <trkpt lat="48.45568" lon="7.12545">
        <ele>632</ele>
        <time>2019-05-15T11:59:49.082Z</time>
      </trkpt>
      <trkpt lat="48.45568" lon="7.12544">
        <ele>633</ele>
        <time>2019-05-15T11:59:50.082Z</time>
      </trkpt>
      <trkpt lat="48.45568" lon="7.12544">
        <ele>634</ele>
        <time>2019-05-15T11:59:51.082Z</time>
      </trkpt>
      <trkpt lat="48.45569" lon="7.12544">
        <ele>634</ele>
        <time>2019-05-15T11:59:52.082Z</time>
      </trkpt>
      <trkpt lat="48.45569" lon="7.12543">
        <ele>634</ele>
        <time>2019-05-15T11:59:53.082Z</time>
      </trkpt>
      <trkpt lat="48.45569" lon="7.12543">
        <ele>634</ele>
        <time>2019-05-15T11:59:54.082Z</time>
      </trkpt>
      <trkpt lat="48.45569" lon="7.12543">
        <ele>635</ele>
        <time>2019-05-15T11:59:55.082Z</time>
      </trkpt>
      <trkpt lat="48.4557" lon="7.12543">
        <ele>635</ele>
        <time>2019-05-15T11:59:56.082Z</time>
      </trkpt>
      <trkpt lat="48.4557" lon="7.12543">
        <ele>636</ele>
        <time>2019-05-15T11:59:57.082Z</time>
      </trkpt>
      <trkpt lat="48.45571" lon="7.12543">
        <ele>636</ele>
        <time>2019-05-15T11:59:58.082Z</time>
      </trkpt>
      <trkpt lat="48.45572" lon="7.12543">
        <ele>637</ele>
        <time>2019-05-15T11:59:59.082Z</time>
      </trkpt>
      <trkpt lat="48.45573" lon="7.12543">
        <ele>637</ele>
        <time>2019-05-15T12:00:00.082Z</time>
      </trkpt>
      <trkpt lat="48.45573" lon="7.12543">
        <ele>637</ele>
        <time>2019-05-15T12:00:01.082Z</time>
      </trkpt>
      <trkpt lat="48.45574" lon="7.12543">
        <ele>637</ele>
        <time>2019-05-15T12:00:02.082Z</time>
      </trkpt>
      <trkpt lat="48.45574" lon="7.12542">
        <ele>636</ele>
        <time>2019-05-15T12:00:03.082Z</time>
      </trkpt>
      <trkpt lat="48.45575" lon="7.12542">
        <ele>637</ele>
        <time>2019-05-15T12:00:04.082Z</time>
      </trkpt>
      <trkpt lat="48.45575" lon="7.12542">
        <ele>638</ele>
        <time>2019-05-15T12:00:05.082Z</time>
      </trkpt>
      <trkpt lat="48.45575" lon="7.12541">
        <ele>638</ele>
        <time>2019-05-15T12:00:06.082Z</time>
      </trkpt>
      <trkpt lat="48.45575" lon="7.12541">
        <ele>640</ele>
        <time>2019-05-15T12:00:07.082Z</time>
      </trkpt>
      <trkpt lat="48.45575" lon="7.12541">
        <ele>641</ele>
        <time>2019-05-15T12:00:08.082Z</time>
      </trkpt>
      <trkpt lat="48.45575" lon="7.12541">
        <ele>642</ele>
        <time>2019-05-15T12:00:09.082Z</time>
      </trkpt>
      <trkpt lat="48.45574" lon="7.12542">
        <ele>642</ele>
        <time>2019-05-15T12:00:10.082Z</time>
      </trkpt>
      <trkpt lat="48.45574" lon="7.12542">
        <ele>643</ele>
        <time>2019-05-15T12:00:11.082Z</time>
      </trkpt>
      <trkpt lat="48.45574" lon="7.12542">
        <ele>643</ele>
        <time>2019-05-15T12:00:12.082Z</time>
      </trkpt>
      <trkpt lat="48.45574" lon="7.12541">
        <ele>643</ele>
        <time>2019-05-15T12:00:13.082Z</time>
      </trkpt>
      <trkpt lat="48.45574" lon="7.12541">
        <ele>643</ele>
        <time>2019-05-15T12:00:14.082Z</time>
      </trkpt>
      <trkpt lat="48.45574" lon="7.12541">
        <ele>643</ele>
        <time>2019-05-15T12:00:15.082Z</time>
      </trkpt>
      <trkpt lat="48.45574" lon="7.12541">
        <ele>643</ele>
        <time>2019-05-15T12:00:16.082Z</time>
      </trkpt>
      <trkpt lat="48.45574" lon="7.12541">
        <ele>643</ele>
        <time>2019-05-15T12:00:17.082Z</time>
      </trkpt>
      <trkpt lat="48.45574" lon="7.12541">
        <ele>643</ele>
        <time>2019-05-15T12:00:18.082Z</time>
      </trkpt>
      <trkpt lat="48.45574" lon="7.12541">
        <ele>643</ele>
        <time>2019-05-15T12:00:19.082Z</time>
      </trkpt>
      <trkpt lat="48.45574" lon="7.12541">
        <ele>643</ele>
        <time>2019-05-15T12:00:20.082Z</time>
      </trkpt>
      <trkpt lat="48.45575" lon="7.12541">
        <ele>643</ele>
        <time>2019-05-15T12:00:21.082Z</time>
      </trkpt>
      <trkpt lat="48.45575" lon="7.12541">
        <ele>642</ele>
        <time>2019-05-15T12:00:22.082Z</time>
      </trkpt>
      <trkpt lat="48.45575" lon="7.12541">
        <ele>642</ele>
        <time>2019-05-15T12:00:23.082Z</time>
      </trkpt>
      <trkpt lat="48.45575" lon="7.12541">
        <ele>642</ele>
        <time>2019-05-15T12:00:24.082Z</time>
      </trkpt>
      <trkpt lat="48.45575" lon="7.1254">
        <ele>642</ele>
        <time>2019-05-15T12:00:25.082Z</time>
      </trkpt>
      <trkpt lat="48.45575" lon="7.1254">
        <ele>642</ele>
        <time>2019-05-15T12:00:26.082Z</time>
      </trkpt>
      <trkpt lat="48.45575" lon="7.1254">
        <ele>642</ele>
        <time>2019-05-15T12:00:27.082Z</time>
      </trkpt>
      <trkpt lat="48.45575" lon="7.1254">
        <ele>643</ele>
        <time>2019-05-15T12:00:28.082Z</time>
      </trkpt>
      <trkpt lat="48.45575" lon="7.12541">
        <ele>643</ele>
        <time>2019-05-15T12:00:29.082Z</time>
      </trkpt>
      <trkpt lat="48.45575" lon="7.12541">
        <ele>644</ele>
        <time>2019-05-15T12:00:30.082Z</time>
      </trkpt>
      <trkpt lat="48.45575" lon="7.12541">
        <ele>644</ele>
        <time>2019-05-15T12:00:31.082Z</time>
      </trkpt>
      <trkpt lat="48.45575" lon="7.12541">
        <ele>645</ele>
        <time>2019-05-15T12:00:32.082Z</time>
      </trkpt>
      <trkpt lat="48.45574" lon="7.12541">
        <ele>646</ele>
        <time>2019-05-15T12:00:33.082Z</time>
      </trkpt>
      <trkpt lat="48.45574" lon="7.12541">
        <ele>646</ele>
        <time>2019-05-15T12:00:34.082Z</time>
      </trkpt>
      <trkpt lat="48.45574" lon="7.12541">
        <ele>646</ele>
        <time>2019-05-15T12:00:35.082Z</time>
      </trkpt>
      <trkpt lat="48.45573" lon="7.12541">
        <ele>647</ele>
        <time>2019-05-15T12:00:36.082Z</time>
      </trkpt>
      <trkpt lat="48.45573" lon="7.12541">
        <ele>648</ele>
        <time>2019-05-15T12:00:37.082Z</time>
      </trkpt>
      <trkpt lat="48.45573" lon="7.12541">
        <ele>649</ele>
        <time>2019-05-15T12:00:38.082Z</time>
      </trkpt>
      <trkpt lat="48.45573" lon="7.12542">
        <ele>650</ele>
        <time>2019-05-15T12:00:39.082Z</time>
      </trkpt>
      <trkpt lat="48.45572" lon="7.12542">
        <ele>650</ele>
        <time>2019-05-15T12:00:40.082Z</time>
      </trkpt>
      <trkpt lat="48.45572" lon="7.12542">
        <ele>651</ele>
        <time>2019-05-15T12:00:41.082Z</time>
      </trkpt>
      <trkpt lat="48.45572" lon="7.12542">
        <ele>651</ele>
        <time>2019-05-15T12:00:42.082Z</time>
      </trkpt>
      <trkpt lat="48.45572" lon="7.12542">
        <ele>652</ele>
        <time>2019-05-15T12:00:43.082Z</time>
      </trkpt>
      <trkpt lat="48.45572" lon="7.12542">
        <ele>652</ele>
        <time>2019-05-15T12:00:44.082Z</time>
      </trkpt>
      <trkpt lat="48.45572" lon="7.12542">
        <ele>653</ele>
        <time>2019-05-15T12:00:45.082Z</time>
      </trkpt>
      <trkpt lat="48.45572" lon="7.12542">
        <ele>653</ele>
        <time>2019-05-15T12:00:46.082Z</time>
      </trkpt>
      <trkpt lat="48.45572" lon="7.12542">
        <ele>654</ele>
        <time>2019-05-15T12:00:47.082Z</time>
      </trkpt>
      <trkpt lat="48.45572" lon="7.12542">
        <ele>654</ele>
        <time>2019-05-15T12:00:48.082Z</time>
      </trkpt>
      <trkpt lat="48.45573" lon="7.12542">
        <ele>654</ele>
        <time>2019-05-15T12:00:49.082Z</time>
      </trkpt>
      <trkpt lat="48.45573" lon="7.12543">
        <ele>654</ele>
        <time>2019-05-15T12:00:50.082Z</time>
      </trkpt>
      <trkpt lat="48.45573" lon="7.12543">
        <ele>655</ele>
        <time>2019-05-15T12:00:51.082Z</time>
      </trkpt>
      <trkpt lat="48.45573" lon="7.12543">
        <ele>654</ele>
        <time>2019-05-15T12:00:52.082Z</time>
      </trkpt>
      <trkpt lat="48.45572" lon="7.12543">
        <ele>654</ele>
        <time>2019-05-15T12:00:53.082Z</time>
      </trkpt>
      <trkpt lat="48.45572" lon="7.12543">
        <ele>655</ele>
        <time>2019-05-15T12:00:54.082Z</time>
      </trkpt>
      <trkpt lat="48.45572" lon="7.12543">
        <ele>655</ele>
        <time>2019-05-15T12:00:55.082Z</time>
      </trkpt>
      <trkpt lat="48.45572" lon="7.12543">
        <ele>656</ele>
        <time>2019-05-15T12:00:56.082Z</time>
      </trkpt>
      <trkpt lat="48.45572" lon="7.12544">
        <ele>656</ele>
        <time>2019-05-15T12:00:57.082Z</time>
      </trkpt>
      <trkpt lat="48.45572" lon="7.12544">
        <ele>657</ele>
        <time>2019-05-15T12:00:58.082Z</time>
      </trkpt>
      <trkpt lat="48.45572" lon="7.12544">
        <ele>657</ele>
        <time>2019-05-15T12:00:59.082Z</time>
      </trkpt>
      <trkpt lat="48.45572" lon="7.12544">
        <ele>658</ele>
        <time>2019-05-15T12:01:00.082Z</time>
      </trkpt>
      <trkpt lat="48.45572" lon="7.12544">
        <ele>658</ele>
        <time>2019-05-15T12:01:01.082Z</time>
      </trkpt>
      <trkpt lat="48.45572" lon="7.12544">
        <ele>659</ele>
        <time>2019-05-15T12:01:02.082Z</time>
      </trkpt>
      <trkpt lat="48.45572" lon="7.12544">
        <ele>660</ele>
        <time>2019-05-15T12:01:03.082Z</time>
      </trkpt>
      <trkpt lat="48.45572" lon="7.12544">
        <ele>661</ele>
        <time>2019-05-15T12:01:04.082Z</time>
      </trkpt>
      <trkpt lat="48.45572" lon="7.12545">
        <ele>661</ele>
        <time>2019-05-15T12:01:05.082Z</time>
      </trkpt>
      <trkpt lat="48.45572" lon="7.12545">
        <ele>661</ele>
        <time>2019-05-15T12:01:06.082Z</time>
      </trkpt>
      <trkpt lat="48.45572" lon="7.12545">
        <ele>661</ele>
        <time>2019-05-15T12:01:07.082Z</time>
      </trkpt>
      <trkpt lat="48.45572" lon="7.12545">
        <ele>662</ele>
        <time>2019-05-15T12:01:08.082Z</time>
      </trkpt>
      <trkpt lat="48.45572" lon="7.12545">
        <ele>662</ele>
        <time>2019-05-15T12:01:09.082Z</time>
      </trkpt>
      <trkpt lat="48.45572" lon="7.12545">
        <ele>663</ele>
        <time>2019-05-15T12:01:10.082Z</time>
      </trkpt>
      <trkpt lat="48.45572" lon="7.12545">
        <ele>662</ele>
        <time>2019-05-15T12:01:11.082Z</time>
      </trkpt>
      <trkpt lat="48.45572" lon="7.12545">
        <ele>662</ele>
        <time>2019-05-15T12:01:12.082Z</time>
      </trkpt>
      <trkpt lat="48.45572" lon="7.12545">
        <ele>662</ele>
        <time>2019-05-15T12:01:13.082Z</time>
      </trkpt>
      <trkpt lat="48.45572" lon="7.12545">
        <ele>661</ele>
        <time>2019-05-15T12:01:14.082Z</time>
      </trkpt>
      <trkpt lat="48.45572" lon="7.12545">
        <ele>660</ele>
        <time>2019-05-15T12:01:15.082Z</time>
      </trkpt>
      <trkpt lat="48.45571" lon="7.12545">
        <ele>660</ele>
        <time>2019-05-15T12:01:16.082Z</time>
      </trkpt>
      <trkpt lat="48.45571" lon="7.12546">
        <ele>660</ele>
        <time>2019-05-15T12:01:17.082Z</time>
      </trkpt>
      <trkpt lat="48.45571" lon="7.12546">
        <ele>660</ele>
        <time>2019-05-15T12:01:18.082Z</time>
      </trkpt>
      <trkpt lat="48.45571" lon="7.12546">
        <ele>661</ele>
        <time>2019-05-15T12:01:19.082Z</time>
      </trkpt>
      <trkpt lat="48.45571" lon="7.12546">
        <ele>660</ele>
        <time>2019-05-15T12:01:20.082Z</time>
      </trkpt>
      <trkpt lat="48.45571" lon="7.12546">
        <ele>659</ele>
        <time>2019-05-15T12:01:21.082Z</time>
      </trkpt>
      <trkpt lat="48.45571" lon="7.12546">
        <ele>659</ele>
        <time>2019-05-15T12:01:22.082Z</time>
      </trkpt>
      <trkpt lat="48.45571" lon="7.12546">
        <ele>659</ele>
        <time>2019-05-15T12:01:23.082Z</time>
      </trkpt>
      <trkpt lat="48.45571" lon="7.12546">
        <ele>658</ele>
        <time>2019-05-15T12:01:24.082Z</time>
      </trkpt>
      <trkpt lat="48.45571" lon="7.12547">
        <ele>657</ele>
        <time>2019-05-15T12:01:25.082Z</time>
      </trkpt>
      <trkpt lat="48.45571" lon="7.12547">
        <ele>654</ele>
        <time>2019-05-15T12:01:26.082Z</time>
      </trkpt>
      <trkpt lat="48.45571" lon="7.12548">
        <ele>653</ele>
        <time>2019-05-15T12:01:27.082Z</time>
      </trkpt>
      <trkpt lat="48.45572" lon="7.12548">
        <ele>651</ele>
        <time>2019-05-15T12:01:28.082Z</time>
      </trkpt>
      <trkpt lat="48.45572" lon="7.12548">
        <ele>649</ele>
        <time>2019-05-15T12:01:29.082Z</time>
      </trkpt>
      <trkpt lat="48.45572" lon="7.12548">
        <ele>647</ele>
        <time>2019-05-15T12:01:30.082Z</time>
      </trkpt>
      <trkpt lat="48.45573" lon="7.12548">
        <ele>645</ele>
        <time>2019-05-15T12:01:31.082Z</time>
      </trkpt>
      <trkpt lat="48.45573" lon="7.12549">
        <ele>644</ele>
        <time>2019-05-15T12:01:32.082Z</time>
      </trkpt>
      <trkpt lat="48.45573" lon="7.12549">
        <ele>643</ele>
        <time>2019-05-15T12:01:33.082Z</time>
      </trkpt>
      <trkpt lat="48.45573" lon="7.12549">
        <ele>642</ele>
        <time>2019-05-15T12:01:34.082Z</time>
      </trkpt>
      <trkpt lat="48.45574" lon="7.12549">
        <ele>641</ele>
        <time>2019-05-15T12:01:35.082Z</time>
      </trkpt>
      <trkpt lat="48.45574" lon="7.1255">
        <ele>641</ele>
        <time>2019-05-15T12:01:36.082Z</time>
      </trkpt>
      <trkpt lat="48.45574" lon="7.1255">
        <ele>640</ele>
        <time>2019-05-15T12:01:37.082Z</time>
      </trkpt>
      <trkpt lat="48.45574" lon="7.12551">
        <ele>640</ele>
        <time>2019-05-15T12:01:38.082Z</time>
      </trkpt>
      <trkpt lat="48.45574" lon="7.12552">
        <ele>640</ele>
        <time>2019-05-15T12:01:39.082Z</time>
      </trkpt>
      <trkpt lat="48.45574" lon="7.12553">
        <ele>640</ele>
        <time>2019-05-15T12:01:40.082Z</time>
      </trkpt>
      <trkpt lat="48.45574" lon="7.12553">
        <ele>639</ele>
        <time>2019-05-15T12:01:41.082Z</time>
      </trkpt>
      <trkpt lat="48.45574" lon="7.12554">
        <ele>640</ele>
        <time>2019-05-15T12:01:42.082Z</time>
      </trkpt>
      <trkpt lat="48.45574" lon="7.12555">
        <ele>639</ele>
        <time>2019-05-15T12:01:43.082Z</time>
      </trkpt>
      <trkpt lat="48.45574" lon="7.12556">
        <ele>639</ele>
        <time>2019-05-15T12:01:44.082Z</time>
      </trkpt>
      <trkpt lat="48.45574" lon="7.12557">
        <ele>639</ele>
        <time>2019-05-15T12:01:45.082Z</time>
      </trkpt>
      <trkpt lat="48.45574" lon="7.12557">
        <ele>638</ele>
        <time>2019-05-15T12:01:46.082Z</time>
      </trkpt>
      <trkpt lat="48.45574" lon="7.12559">
        <ele>638</ele>
        <time>2019-05-15T12:01:47.082Z</time>
      </trkpt>
      <trkpt lat="48.45574" lon="7.1256">
        <ele>638</ele>
        <time>2019-05-15T12:01:48.082Z</time>
      </trkpt>
      <trkpt lat="48.45574" lon="7.12561">
        <ele>639</ele>
        <time>2019-05-15T12:01:49.082Z</time>
      </trkpt>
      <trkpt lat="48.45573" lon="7.12562">
        <ele>639</ele>
        <time>2019-05-15T12:01:50.082Z</time>
      </trkpt>
      <trkpt lat="48.45574" lon="7.12563">
        <ele>638</ele>
        <time>2019-05-15T12:01:51.082Z</time>
      </trkpt>
      <trkpt lat="48.45574" lon="7.12564">
        <ele>637</ele>
        <time>2019-05-15T12:01:52.082Z</time>
      </trkpt>
      <trkpt lat="48.45574" lon="7.12566">
        <ele>637</ele>
        <time>2019-05-15T12:01:53.082Z</time>
      </trkpt>
      <trkpt lat="48.45574" lon="7.12567">
        <ele>636</ele>
        <time>2019-05-15T12:01:54.082Z</time>
      </trkpt>
      <trkpt lat="48.45574" lon="7.12568">
        <ele>636</ele>
        <time>2019-05-15T12:01:55.082Z</time>
      </trkpt>
      <trkpt lat="48.45574" lon="7.1257">
        <ele>636</ele>
        <time>2019-05-15T12:01:56.082Z</time>
      </trkpt>
      <trkpt lat="48.45574" lon="7.12571">
        <ele>635</ele>
        <time>2019-05-15T12:01:57.082Z</time>
      </trkpt>
      <trkpt lat="48.45574" lon="7.12572">
        <ele>635</ele>
        <time>2019-05-15T12:01:58.082Z</time>
      </trkpt>
      <trkpt lat="48.45574" lon="7.12574">
        <ele>635</ele>
        <time>2019-05-15T12:01:59.082Z</time>
      </trkpt>
      <trkpt lat="48.45574" lon="7.12575">
        <ele>635</ele>
        <time>2019-05-15T12:02:00.082Z</time>
      </trkpt>
      <trkpt lat="48.45574" lon="7.12576">
        <ele>634</ele>
        <time>2019-05-15T12:02:01.082Z</time>
      </trkpt>
      <trkpt lat="48.45573" lon="7.12578">
        <ele>634</ele>
        <time>2019-05-15T12:02:02.082Z</time>
      </trkpt>
      <trkpt lat="48.45573" lon="7.12579">
        <ele>634</ele>
        <time>2019-05-15T12:02:03.082Z</time>
      </trkpt>
      <trkpt lat="48.45573" lon="7.1258">
        <ele>634</ele>
        <time>2019-05-15T12:02:04.082Z</time>
      </trkpt>
      <trkpt lat="48.45572" lon="7.12582">
        <ele>634</ele>
        <time>2019-05-15T12:02:05.082Z</time>
      </trkpt>
      <trkpt lat="48.45572" lon="7.12583">
        <ele>634</ele>
        <time>2019-05-15T12:02:06.082Z</time>
      </trkpt>
      <trkpt lat="48.45572" lon="7.12584">
        <ele>634</ele>
        <time>2019-05-15T12:02:07.082Z</time>
      </trkpt>
      <trkpt lat="48.45572" lon="7.12585">
        <ele>634</ele>
        <time>2019-05-15T12:02:08.082Z</time>
      </trkpt>
      <trkpt lat="48.45572" lon="7.12587">
        <ele>634</ele>
        <time>2019-05-15T12:02:09.082Z</time>
      </trkpt>
      <trkpt lat="48.45572" lon="7.12588">
        <ele>634</ele>
        <time>2019-05-15T12:02:10.082Z</time>
      </trkpt>
      <trkpt lat="48.45572" lon="7.1259">
        <ele>634</ele>
        <time>2019-05-15T12:02:11.082Z</time>
      </trkpt>
      <trkpt lat="48.45571" lon="7.12591">
        <ele>634</ele>
        <time>2019-05-15T12:02:12.082Z</time>
      </trkpt>
      <trkpt lat="48.45571" lon="7.12592">
        <ele>634</ele>
        <time>2019-05-15T12:02:13.082Z</time>
      </trkpt>
      <trkpt lat="48.45571" lon="7.12594">
        <ele>633</ele>
        <time>2019-05-15T12:02:14.082Z</time>
      </trkpt>
      <trkpt lat="48.4557" lon="7.12596">
        <ele>633</ele>
        <time>2019-05-15T12:02:15.082Z</time>
      </trkpt>
      <trkpt lat="48.4557" lon="7.12597">
        <ele>632</ele>
        <time>2019-05-15T12:02:16.082Z</time>
      </trkpt>
      <trkpt lat="48.45569" lon="7.12598">
        <ele>632</ele>
        <time>2019-05-15T12:02:17.082Z</time>
      </trkpt>
      <trkpt lat="48.45569" lon="7.12599">
        <ele>632</ele>
        <time>2019-05-15T12:02:18.082Z</time>
      </trkpt>
      <trkpt lat="48.45569" lon="7.12601">
        <ele>632</ele>
        <time>2019-05-15T12:02:19.082Z</time>
      </trkpt>
      <trkpt lat="48.45568" lon="7.12602">
        <ele>632</ele>
        <time>2019-05-15T12:02:20.082Z</time>
      </trkpt>
      <trkpt lat="48.45568" lon="7.12604">
        <ele>632</ele>
        <time>2019-05-15T12:02:21.082Z</time>
      </trkpt>
      <trkpt lat="48.45568" lon="7.12605">
        <ele>631</ele>
        <time>2019-05-15T12:02:22.082Z</time>
      </trkpt>
      <trkpt lat="48.45567" lon="7.12606">
        <ele>631</ele>
        <time>2019-05-15T12:02:23.082Z</time>
      </trkpt>
      <trkpt lat="48.45567" lon="7.12608">
        <ele>631</ele>
        <time>2019-05-15T12:02:24.082Z</time>
      </trkpt>
      <trkpt lat="48.45567" lon="7.12609">
        <ele>631</ele>
        <time>2019-05-15T12:02:25.082Z</time>
      </trkpt>
      <trkpt lat="48.45567" lon="7.12611">
        <ele>632</ele>
        <time>2019-05-15T12:02:26.082Z</time>
      </trkpt>
      <trkpt lat="48.45567" lon="7.12613">
        <ele>631</ele>
        <time>2019-05-15T12:02:27.082Z</time>
      </trkpt>
      <trkpt lat="48.45566" lon="7.12614">
        <ele>631</ele>
        <time>2019-05-15T12:02:28.082Z</time>
      </trkpt>
      <trkpt lat="48.45566" lon="7.12615">
        <ele>631</ele>
        <time>2019-05-15T12:02:29.082Z</time>
      </trkpt>
      <trkpt lat="48.45566" lon="7.12617">
        <ele>631</ele>
        <time>2019-05-15T12:02:30.082Z</time>
      </trkpt>
      <trkpt lat="48.45565" lon="7.12618">
        <ele>631</ele>
        <time>2019-05-15T12:02:31.082Z</time>
      </trkpt>
      <trkpt lat="48.45565" lon="7.1262">
        <ele>631</ele>
        <time>2019-05-15T12:02:32.082Z</time>
      </trkpt>
      <trkpt lat="48.45565" lon="7.12621">
        <ele>631</ele>
        <time>2019-05-15T12:02:33.082Z</time>
      </trkpt>
      <trkpt lat="48.45564" lon="7.12622">
        <ele>631</ele>
        <time>2019-05-15T12:02:34.082Z</time>
      </trkpt>
      <trkpt lat="48.45564" lon="7.12624">
        <ele>630</ele>
        <time>2019-05-15T12:02:35.082Z</time>
      </trkpt>
      <trkpt lat="48.45563" lon="7.12625">
        <ele>630</ele>
        <time>2019-05-15T12:02:36.082Z</time>
      </trkpt>
      <trkpt lat="48.45563" lon="7.12626">
        <ele>629</ele>
        <time>2019-05-15T12:02:37.082Z</time>
      </trkpt>
      <trkpt lat="48.45562" lon="7.12627">
        <ele>629</ele>
        <time>2019-05-15T12:02:38.082Z</time>
      </trkpt>
      <trkpt lat="48.45562" lon="7.12628">
        <ele>629</ele>
        <time>2019-05-15T12:02:39.082Z</time>
      </trkpt>
      <trkpt lat="48.45562" lon="7.12629">
        <ele>629</ele>
        <time>2019-05-15T12:02:40.082Z</time>
      </trkpt>
      <trkpt lat="48.45561" lon="7.12631">
        <ele>628</ele>
        <time>2019-05-15T12:02:41.082Z</time>
      </trkpt>
      <trkpt lat="48.45561" lon="7.12632">
        <ele>628</ele>
        <time>2019-05-15T12:02:42.082Z</time>
      </trkpt>
      <trkpt lat="48.4556" lon="7.12634">
        <ele>628</ele>
        <time>2019-05-15T12:02:43.082Z</time>
      </trkpt>
      <trkpt lat="48.45559" lon="7.12635">
        <ele>627</ele>
        <time>2019-05-15T12:02:44.082Z</time>
      </trkpt>
      <trkpt lat="48.45559" lon="7.12636">
        <ele>627</ele>
        <time>2019-05-15T12:02:45.082Z</time>
      </trkpt>
      <trkpt lat="48.45558" lon="7.12637">
        <ele>627</ele>
        <time>2019-05-15T12:02:46.082Z</time>
      </trkpt>
      <trkpt lat="48.45557" lon="7.12639">
        <ele>627</ele>
        <time>2019-05-15T12:02:47.082Z</time>
      </trkpt>
      <trkpt lat="48.45557" lon="7.1264">
        <ele>627</ele>
        <time>2019-05-15T12:02:48.082Z</time>
      </trkpt>
      <trkpt lat="48.45557" lon="7.12642">
        <ele>628</ele>
        <time>2019-05-15T12:02:49.082Z</time>
      </trkpt>
      <trkpt lat="48.45556" lon="7.12643">
        <ele>629</ele>
        <time>2019-05-15T12:02:50.082Z</time>
      </trkpt>
      <trkpt lat="48.45556" lon="7.12644">
        <ele>629</ele>
        <time>2019-05-15T12:02:51.082Z</time>
      </trkpt>
      <trkpt lat="48.45555" lon="7.12646">
        <ele>629</ele>
        <time>2019-05-15T12:02:52.082Z</time>
      </trkpt>
      <trkpt lat="48.45554" lon="7.12647">
        <ele>629</ele>
        <time>2019-05-15T12:02:53.082Z</time>
      </trkpt>
      <trkpt lat="48.45554" lon="7.12648">
        <ele>628</ele>
        <time>2019-05-15T12:02:54.082Z</time>
      </trkpt>
      <trkpt lat="48.45553" lon="7.12649">
        <ele>628</ele>
        <time>2019-05-15T12:02:55.082Z</time>
      </trkpt>
      <trkpt lat="48.45553" lon="7.12651">
        <ele>628</ele>
        <time>2019-05-15T12:02:56.082Z</time>
      </trkpt>
      <trkpt lat="48.45552" lon="7.12652">
        <ele>628</ele>
        <time>2019-05-15T12:02:57.082Z</time>
      </trkpt>
      <trkpt lat="48.45552" lon="7.12653">
        <ele>629</ele>
        <time>2019-05-15T12:02:58.082Z</time>
      </trkpt>
      <trkpt lat="48.45552" lon="7.12654">
        <ele>629</ele>
        <time>2019-05-15T12:02:59.082Z</time>
      </trkpt>
      <trkpt lat="48.45552" lon="7.12655">
        <ele>630</ele>
        <time>2019-05-15T12:03:00.082Z</time>
      </trkpt>
      <trkpt lat="48.45552" lon="7.12655">
        <ele>629</ele>
        <time>2019-05-15T12:03:01.082Z</time>
      </trkpt>
      <trkpt lat="48.45552" lon="7.12656">
        <ele>629</ele>
        <time>2019-05-15T12:03:02.082Z</time>
      </trkpt>
      <trkpt lat="48.45551" lon="7.12657">
        <ele>629</ele>
        <time>2019-05-15T12:03:03.082Z</time>
      </trkpt>
      <trkpt lat="48.45551" lon="7.12658">
        <ele>629</ele>
        <time>2019-05-15T12:03:04.082Z</time>
      </trkpt>
      <trkpt lat="48.4555" lon="7.12659">
        <ele>629</ele>
        <time>2019-05-15T12:03:05.082Z</time>
      </trkpt>
      <trkpt lat="48.4555" lon="7.12661">
        <ele>630</ele>
        <time>2019-05-15T12:03:06.082Z</time>
      </trkpt>
      <trkpt lat="48.4555" lon="7.12662">
        <ele>630</ele>
        <time>2019-05-15T12:03:07.082Z</time>
      </trkpt>
      <trkpt lat="48.4555" lon="7.12663">
        <ele>630</ele>
        <time>2019-05-15T12:03:08.082Z</time>
      </trkpt>
      <trkpt lat="48.45549" lon="7.12664">
        <ele>630</ele>
        <time>2019-05-15T12:03:09.082Z</time>
      </trkpt>
      <trkpt lat="48.45549" lon="7.12666">
        <ele>630</ele>
        <time>2019-05-15T12:03:10.082Z</time>
      </trkpt>
      <trkpt lat="48.45548" lon="7.12667">
        <ele>630</ele>
        <time>2019-05-15T12:03:11.082Z</time>
      </trkpt>
      <trkpt lat="48.45548" lon="7.12668">
        <ele>630</ele>
        <time>2019-05-15T12:03:12.082Z</time>
      </trkpt>
      <trkpt lat="48.45548" lon="7.12669">
        <ele>630</ele>
        <time>2019-05-15T12:03:13.082Z</time>
      </trkpt>
      <trkpt lat="48.45547" lon="7.1267">
        <ele>630</ele>
        <time>2019-05-15T12:03:14.082Z</time>
      </trkpt>
      <trkpt lat="48.45546" lon="7.12671">
        <ele>630</ele>
        <time>2019-05-15T12:03:15.082Z</time>
      </trkpt>
      <trkpt lat="48.45546" lon="7.12672">
        <ele>629</ele>
        <time>2019-05-15T12:03:16.082Z</time>
      </trkpt>
      <trkpt lat="48.45545" lon="7.12673">
        <ele>629</ele>
        <time>2019-05-15T12:03:17.082Z</time>
      </trkpt>
      <trkpt lat="48.45545" lon="7.12674">
        <ele>630</ele>
        <time>2019-05-15T12:03:18.082Z</time>
      </trkpt>
      <trkpt lat="48.45544" lon="7.12676">
        <ele>629</ele>
        <time>2019-05-15T12:03:19.082Z</time>
      </trkpt>
      <trkpt lat="48.45544" lon="7.12677">
        <ele>629</ele>
        <time>2019-05-15T12:03:20.082Z</time>
      </trkpt>
      <trkpt lat="48.45543" lon="7.12679">
        <ele>629</ele>
        <time>2019-05-15T12:03:21.082Z</time>
      </trkpt>
      <trkpt lat="48.45542" lon="7.1268">
        <ele>628</ele>
        <time>2019-05-15T12:03:22.082Z</time>
      </trkpt>
      <trkpt lat="48.45541" lon="7.12682">
        <ele>628</ele>
        <time>2019-05-15T12:03:23.082Z</time>
      </trkpt>
      <trkpt lat="48.4554" lon="7.12683">
        <ele>628</ele>
        <time>2019-05-15T12:03:24.082Z</time>
      </trkpt>
      <trkpt lat="48.45539" lon="7.12684">
        <ele>628</ele>
        <time>2019-05-15T12:03:25.082Z</time>
      </trkpt>
      <trkpt lat="48.45538" lon="7.12685">
        <ele>628</ele>
        <time>2019-05-15T12:03:26.082Z</time>
      </trkpt>
      <trkpt lat="48.45537" lon="7.12687">
        <ele>628</ele>
        <time>2019-05-15T12:03:27.082Z</time>
      </trkpt>
      <trkpt lat="48.45536" lon="7.12688">
        <ele>628</ele>
        <time>2019-05-15T12:03:28.082Z</time>
      </trkpt>
      <trkpt lat="48.45535" lon="7.1269">
        <ele>628</ele>
        <time>2019-05-15T12:03:29.082Z</time>
      </trkpt>
      <trkpt lat="48.45535" lon="7.12691">
        <ele>628</ele>
        <time>2019-05-15T12:03:30.082Z</time>
      </trkpt>
      <trkpt lat="48.45534" lon="7.12692">
        <ele>628</ele>
        <time>2019-05-15T12:03:31.082Z</time>
      </trkpt>
      <trkpt lat="48.45533" lon="7.12693">
        <ele>627</ele>
        <time>2019-05-15T12:03:32.082Z</time>
      </trkpt>
      <trkpt lat="48.45532" lon="7.12695">
        <ele>627</ele>
        <time>2019-05-15T12:03:33.082Z</time>
      </trkpt>
      <trkpt lat="48.45531" lon="7.12696">
        <ele>627</ele>
        <time>2019-05-15T12:03:34.082Z</time>
      </trkpt>
      <trkpt lat="48.4553" lon="7.12697">
        <ele>626</ele>
        <time>2019-05-15T12:03:35.082Z</time>
      </trkpt>
      <trkpt lat="48.45529" lon="7.12698">
        <ele>626</ele>
        <time>2019-05-15T12:03:36.082Z</time>
      </trkpt>
      <trkpt lat="48.45528" lon="7.12699">
        <ele>625</ele>
        <time>2019-05-15T12:03:37.082Z</time>
      </trkpt>
      <trkpt lat="48.45528" lon="7.12701">
        <ele>624</ele>
        <time>2019-05-15T12:03:38.082Z</time>
      </trkpt>
      <trkpt lat="48.45527" lon="7.12702">
        <ele>625</ele>
        <time>2019-05-15T12:03:39.082Z</time>
      </trkpt>
      <trkpt lat="48.45526" lon="7.12703">
        <ele>625</ele>
        <time>2019-05-15T12:03:40.082Z</time>
      </trkpt>
      <trkpt lat="48.45526" lon="7.12704">
        <ele>625</ele>
        <time>2019-05-15T12:03:41.082Z</time>
      </trkpt>
      <trkpt lat="48.45525" lon="7.12705">
        <ele>624</ele>
        <time>2019-05-15T12:03:42.082Z</time>
      </trkpt>
      <trkpt lat="48.45525" lon="7.12706">
        <ele>625</ele>
        <time>2019-05-15T12:03:43.082Z</time>
      </trkpt>
      <trkpt lat="48.45524" lon="7.12708">
        <ele>625</ele>
        <time>2019-05-15T12:03:44.082Z</time>
      </trkpt>
      <trkpt lat="48.45523" lon="7.12709">
        <ele>625</ele>
        <time>2019-05-15T12:03:45.082Z</time>
      </trkpt>
      <trkpt lat="48.45523" lon="7.1271">
        <ele>625</ele>
        <time>2019-05-15T12:03:46.082Z</time>
      </trkpt>
      <trkpt lat="48.45522" lon="7.12711">
        <ele>625</ele>
        <time>2019-05-15T12:03:47.082Z</time>
      </trkpt>
      <trkpt lat="48.45521" lon="7.12712">
        <ele>625</ele>
        <time>2019-05-15T12:03:48.082Z</time>
      </trkpt>
      <trkpt lat="48.4552" lon="7.12713">
        <ele>624</ele>
        <time>2019-05-15T12:03:49.082Z</time>
      </trkpt>
      <trkpt lat="48.4552" lon="7.12714">
        <ele>624</ele>
        <time>2019-05-15T12:03:50.082Z</time>
      </trkpt>
      <trkpt lat="48.45519" lon="7.12716">
        <ele>624</ele>
        <time>2019-05-15T12:03:51.082Z</time>
      </trkpt>
      <trkpt lat="48.45518" lon="7.12717">
        <ele>624</ele>
        <time>2019-05-15T12:03:52.082Z</time>
      </trkpt>
      <trkpt lat="48.45517" lon="7.12718">
        <ele>624</ele>
        <time>2019-05-15T12:03:53.082Z</time>
      </trkpt>
      <trkpt lat="48.45517" lon="7.1272">
        <ele>623</ele>
        <time>2019-05-15T12:03:54.082Z</time>
      </trkpt>
      <trkpt lat="48.45516" lon="7.12721">
        <ele>623</ele>
        <time>2019-05-15T12:03:55.082Z</time>
      </trkpt>
      <trkpt lat="48.45516" lon="7.12722">
        <ele>623</ele>
        <time>2019-05-15T12:03:56.082Z</time>
      </trkpt>
      <trkpt lat="48.45515" lon="7.12724">
        <ele>623</ele>
        <time>2019-05-15T12:03:57.082Z</time>
      </trkpt>
      <trkpt lat="48.45515" lon="7.12725">
        <ele>623</ele>
        <time>2019-05-15T12:03:58.082Z</time>
      </trkpt>
      <trkpt lat="48.45514" lon="7.12726">
        <ele>623</ele>
        <time>2019-05-15T12:03:59.082Z</time>
      </trkpt>
      <trkpt lat="48.45514" lon="7.12728">
        <ele>623</ele>
        <time>2019-05-15T12:04:00.082Z</time>
      </trkpt>
      <trkpt lat="48.45513" lon="7.12729">
        <ele>622</ele>
        <time>2019-05-15T12:04:01.082Z</time>
      </trkpt>
      <trkpt lat="48.45512" lon="7.1273">
        <ele>622</ele>
        <time>2019-05-15T12:04:02.082Z</time>
      </trkpt>
      <trkpt lat="48.45512" lon="7.12731">
        <ele>622</ele>
        <time>2019-05-15T12:04:03.082Z</time>
      </trkpt>
      <trkpt lat="48.45511" lon="7.12733">
        <ele>623</ele>
        <time>2019-05-15T12:04:04.082Z</time>
      </trkpt>
      <trkpt lat="48.4551" lon="7.12734">
        <ele>623</ele>
        <time>2019-05-15T12:04:05.082Z</time>
      </trkpt>
      <trkpt lat="48.4551" lon="7.12735">
        <ele>624</ele>
        <time>2019-05-15T12:04:06.082Z</time>
      </trkpt>
      <trkpt lat="48.45509" lon="7.12737">
        <ele>624</ele>
        <time>2019-05-15T12:04:07.082Z</time>
      </trkpt>
      <trkpt lat="48.45509" lon="7.12738">
        <ele>625</ele>
        <time>2019-05-15T12:04:08.082Z</time>
      </trkpt>
      <trkpt lat="48.45509" lon="7.12739">
        <ele>625</ele>
        <time>2019-05-15T12:04:09.082Z</time>
      </trkpt>
      <trkpt lat="48.45508" lon="7.12741">
        <ele>625</ele>
        <time>2019-05-15T12:04:10.082Z</time>
      </trkpt>
      <trkpt lat="48.45508" lon="7.12742">
        <ele>625</ele>
        <time>2019-05-15T12:04:11.082Z</time>
      </trkpt>
      <trkpt lat="48.45507" lon="7.12743">
        <ele>625</ele>
        <time>2019-05-15T12:04:12.082Z</time>
      </trkpt>
      <trkpt lat="48.45507" lon="7.12744">
        <ele>626</ele>
        <time>2019-05-15T12:04:13.082Z</time>
      </trkpt>
      <trkpt lat="48.45506" lon="7.12745">
        <ele>625</ele>
        <time>2019-05-15T12:04:14.082Z</time>
      </trkpt>
      <trkpt lat="48.45506" lon="7.12747">
        <ele>625</ele>
        <time>2019-05-15T12:04:15.082Z</time>
      </trkpt>
      <trkpt lat="48.45506" lon="7.12748">
        <ele>625</ele>
        <time>2019-05-15T12:04:16.082Z</time>
      </trkpt>
      <trkpt lat="48.45506" lon="7.1275">
        <ele>625</ele>
        <time>2019-05-15T12:04:17.082Z</time>
      </trkpt>
      <trkpt lat="48.45505" lon="7.12751">
        <ele>626</ele>
        <time>2019-05-15T12:04:18.082Z</time>
      </trkpt>
      <trkpt lat="48.45505" lon="7.12753">
        <ele>627</ele>
        <time>2019-05-15T12:04:19.082Z</time>
      </trkpt>
      <trkpt lat="48.45505" lon="7.12754">
        <ele>627</ele>
        <time>2019-05-15T12:04:20.082Z</time>
      </trkpt>
      <trkpt lat="48.45505" lon="7.12756">
        <ele>627</ele>
        <time>2019-05-15T12:04:21.082Z</time>
      </trkpt>
      <trkpt lat="48.45505" lon="7.12757">
        <ele>628</ele>
        <time>2019-05-15T12:04:22.082Z</time>
      </trkpt>
      <trkpt lat="48.45504" lon="7.12758">
        <ele>627</ele>
        <time>2019-05-15T12:04:23.082Z</time>
      </trkpt>
      <trkpt lat="48.45504" lon="7.12759">
        <ele>628</ele>
        <time>2019-05-15T12:04:24.082Z</time>
      </trkpt>
      <trkpt lat="48.45504" lon="7.1276">
        <ele>628</ele>
        <time>2019-05-15T12:04:25.082Z</time>
      </trkpt>
      <trkpt lat="48.45503" lon="7.12761">
        <ele>628</ele>
        <time>2019-05-15T12:04:26.082Z</time>
      </trkpt>
      <trkpt lat="48.45503" lon="7.12762">
        <ele>629</ele>
        <time>2019-05-15T12:04:27.082Z</time>
      </trkpt>
      <trkpt lat="48.45503" lon="7.12764">
        <ele>629</ele>
        <time>2019-05-15T12:04:28.082Z</time>
      </trkpt>
      <trkpt lat="48.45503" lon="7.12765">
        <ele>628</ele>
        <time>2019-05-15T12:04:29.082Z</time>
      </trkpt>
      <trkpt lat="48.45502" lon="7.12766">
        <ele>628</ele>
        <time>2019-05-15T12:04:30.082Z</time>
      </trkpt>
      <trkpt lat="48.45502" lon="7.12768">
        <ele>627</ele>
        <time>2019-05-15T12:04:31.082Z</time>
      </trkpt>
      <trkpt lat="48.45502" lon="7.12769">
        <ele>627</ele>
        <time>2019-05-15T12:04:32.082Z</time>
      </trkpt>
      <trkpt lat="48.45502" lon="7.1277">
        <ele>628</ele>
        <time>2019-05-15T12:04:33.082Z</time>
      </trkpt>
      <trkpt lat="48.45502" lon="7.12771">
        <ele>628</ele>
        <time>2019-05-15T12:04:34.082Z</time>
      </trkpt>
      <trkpt lat="48.45501" lon="7.12773">
        <ele>629</ele>
        <time>2019-05-15T12:04:35.082Z</time>
      </trkpt>
      <trkpt lat="48.45501" lon="7.12774">
        <ele>629</ele>
        <time>2019-05-15T12:04:36.082Z</time>
      </trkpt>
      <trkpt lat="48.45501" lon="7.12775">
        <ele>629</ele>
        <time>2019-05-15T12:04:37.082Z</time>
      </trkpt>
      <trkpt lat="48.45501" lon="7.12776">
        <ele>630</ele>
        <time>2019-05-15T12:04:38.082Z</time>
      </trkpt>
      <trkpt lat="48.455" lon="7.12777">
        <ele>629</ele>
        <time>2019-05-15T12:04:39.082Z</time>
      </trkpt>
      <trkpt lat="48.455" lon="7.12778">
        <ele>629</ele>
        <time>2019-05-15T12:04:40.082Z</time>
      </trkpt>
      <trkpt lat="48.45499" lon="7.12779">
        <ele>629</ele>
        <time>2019-05-15T12:04:41.082Z</time>
      </trkpt>
      <trkpt lat="48.45498" lon="7.12781">
        <ele>629</ele>
        <time>2019-05-15T12:04:42.082Z</time>
      </trkpt>
      <trkpt lat="48.45498" lon="7.12782">
        <ele>628</ele>
        <time>2019-05-15T12:04:43.082Z</time>
      </trkpt>
      <trkpt lat="48.45497" lon="7.12783">
        <ele>628</ele>
        <time>2019-05-15T12:04:44.082Z</time>
      </trkpt>
      <trkpt lat="48.45496" lon="7.12784">
        <ele>629</ele>
        <time>2019-05-15T12:04:45.082Z</time>
      </trkpt>
      <trkpt lat="48.45496" lon="7.12786">
        <ele>627</ele>
        <time>2019-05-15T12:04:46.082Z</time>
      </trkpt>
      <trkpt lat="48.45495" lon="7.12787">
        <ele>627</ele>
        <time>2019-05-15T12:04:47.082Z</time>
      </trkpt>
      <trkpt lat="48.45494" lon="7.12789">
        <ele>627</ele>
        <time>2019-05-15T12:04:48.082Z</time>
      </trkpt>
      <trkpt lat="48.45493" lon="7.1279">
        <ele>627</ele>
        <time>2019-05-15T12:04:49.082Z</time>
      </trkpt>
      <trkpt lat="48.45492" lon="7.12791">
        <ele>626</ele>
        <time>2019-05-15T12:04:50.082Z</time>
      </trkpt>
      <trkpt lat="48.45491" lon="7.12792">
        <ele>626</ele>
        <time>2019-05-15T12:04:51.082Z</time>
      </trkpt>
      <trkpt lat="48.4549" lon="7.12793">
        <ele>625</ele>
        <time>2019-05-15T12:04:52.082Z</time>
      </trkpt>
      <trkpt lat="48.45489" lon="7.12793">
        <ele>625</ele>
        <time>2019-05-15T12:04:53.082Z</time>
      </trkpt>
      <trkpt lat="48.45489" lon="7.12794">
        <ele>624</ele>
        <time>2019-05-15T12:04:54.082Z</time>
      </trkpt>
      <trkpt lat="48.45488" lon="7.12794">
        <ele>624</ele>
        <time>2019-05-15T12:04:55.082Z</time>
      </trkpt>
      <trkpt lat="48.45487" lon="7.12795">
        <ele>625</ele>
        <time>2019-05-15T12:04:56.082Z</time>
      </trkpt>
      <trkpt lat="48.45486" lon="7.12795">
        <ele>624</ele>
        <time>2019-05-15T12:04:57.082Z</time>
      </trkpt>
      <trkpt lat="48.45485" lon="7.12796">
        <ele>625</ele>
        <time>2019-05-15T12:04:58.082Z</time>
      </trkpt>
      <trkpt lat="48.45484" lon="7.12796">
        <ele>625</ele>
        <time>2019-05-15T12:04:59.082Z</time>
      </trkpt>
      <trkpt lat="48.45484" lon="7.12797">
        <ele>625</ele>
        <time>2019-05-15T12:05:00.082Z</time>
      </trkpt>
      <trkpt lat="48.45483" lon="7.12797">
        <ele>624</ele>
        <time>2019-05-15T12:05:01.082Z</time>
      </trkpt>
      <trkpt lat="48.45482" lon="7.12797">
        <ele>624</ele>
        <time>2019-05-15T12:05:02.082Z</time>
      </trkpt>
      <trkpt lat="48.45481" lon="7.12798">
        <ele>624</ele>
        <time>2019-05-15T12:05:03.082Z</time>
      </trkpt>
      <trkpt lat="48.4548" lon="7.12798">
        <ele>624</ele>
        <time>2019-05-15T12:05:04.082Z</time>
      </trkpt>
      <trkpt lat="48.45479" lon="7.12798">
        <ele>624</ele>
        <time>2019-05-15T12:05:05.082Z</time>
      </trkpt>
      <trkpt lat="48.45478" lon="7.12798">
        <ele>623</ele>
        <time>2019-05-15T12:05:06.082Z</time>
      </trkpt>
      <trkpt lat="48.45477" lon="7.12798">
        <ele>623</ele>
        <time>2019-05-15T12:05:07.082Z</time>
      </trkpt>
      <trkpt lat="48.45476" lon="7.12798">
        <ele>622</ele>
        <time>2019-05-15T12:05:08.082Z</time>
      </trkpt>
      <trkpt lat="48.45476" lon="7.12798">
        <ele>621</ele>
        <time>2019-05-15T12:05:09.082Z</time>
      </trkpt>
      <trkpt lat="48.45475" lon="7.12798">
        <ele>622</ele>
        <time>2019-05-15T12:05:10.082Z</time>
      </trkpt>
      <trkpt lat="48.45474" lon="7.12798">
        <ele>621</ele>
        <time>2019-05-15T12:05:11.082Z</time>
      </trkpt>
      <trkpt lat="48.45472" lon="7.12798">
        <ele>620</ele>
        <time>2019-05-15T12:05:12.082Z</time>
      </trkpt>
      <trkpt lat="48.45471" lon="7.12797">
        <ele>620</ele>
        <time>2019-05-15T12:05:13.082Z</time>
      </trkpt>
      <trkpt lat="48.4547" lon="7.12797">
        <ele>620</ele>
        <time>2019-05-15T12:05:14.082Z</time>
      </trkpt>
      <trkpt lat="48.45469" lon="7.12796">
        <ele>620</ele>
        <time>2019-05-15T12:05:15.082Z</time>
      </trkpt>
      <trkpt lat="48.45468" lon="7.12795">
        <ele>620</ele>
        <time>2019-05-15T12:05:16.082Z</time>
      </trkpt>
      <trkpt lat="48.45467" lon="7.12794">
        <ele>620</ele>
        <time>2019-05-15T12:05:17.082Z</time>
      </trkpt>
      <trkpt lat="48.45466" lon="7.12793">
        <ele>620</ele>
        <time>2019-05-15T12:05:18.082Z</time>
      </trkpt>
      <trkpt lat="48.45466" lon="7.12793">
        <ele>620</ele>
        <time>2019-05-15T12:05:19.082Z</time>
      </trkpt>
      <trkpt lat="48.45465" lon="7.12792">
        <ele>620</ele>
        <time>2019-05-15T12:05:20.082Z</time>
      </trkpt>
      <trkpt lat="48.45465" lon="7.12791">
        <ele>621</ele>
        <time>2019-05-15T12:05:21.082Z</time>
      </trkpt>
      <trkpt lat="48.45464" lon="7.12791">
        <ele>621</ele>
        <time>2019-05-15T12:05:22.082Z</time>
      </trkpt>
      <trkpt lat="48.45463" lon="7.1279">
        <ele>621</ele>
        <time>2019-05-15T12:05:23.082Z</time>
      </trkpt>
      <trkpt lat="48.45462" lon="7.12789">
        <ele>621</ele>
        <time>2019-05-15T12:05:24.082Z</time>
      </trkpt>
      <trkpt lat="48.45461" lon="7.12789">
        <ele>621</ele>
        <time>2019-05-15T12:05:25.082Z</time>
      </trkpt>
      <trkpt lat="48.4546" lon="7.12789">
        <ele>621</ele>
        <time>2019-05-15T12:05:26.082Z</time>
      </trkpt>
      <trkpt lat="48.45459" lon="7.12788">
        <ele>621</ele>
        <time>2019-05-15T12:05:27.082Z</time>
      </trkpt>
      <trkpt lat="48.45459" lon="7.12788">
        <ele>620</ele>
        <time>2019-05-15T12:05:28.082Z</time>
      </trkpt>
      <trkpt lat="48.45458" lon="7.12788">
        <ele>620</ele>
        <time>2019-05-15T12:05:29.082Z</time>
      </trkpt>
      <trkpt lat="48.45457" lon="7.12788">
        <ele>620</ele>
        <time>2019-05-15T12:05:30.082Z</time>
      </trkpt>
      <trkpt lat="48.45456" lon="7.12787">
        <ele>620</ele>
        <time>2019-05-15T12:05:31.082Z</time>
      </trkpt>
      <trkpt lat="48.45455" lon="7.12787">
        <ele>620</ele>
        <time>2019-05-15T12:05:32.082Z</time>
      </trkpt>
      <trkpt lat="48.45454" lon="7.12787">
        <ele>620</ele>
        <time>2019-05-15T12:05:33.082Z</time>
      </trkpt>
      <trkpt lat="48.45453" lon="7.12786">
        <ele>620</ele>
        <time>2019-05-15T12:05:34.082Z</time>
      </trkpt>
      <trkpt lat="48.45452" lon="7.12786">
        <ele>620</ele>
        <time>2019-05-15T12:05:35.082Z</time>
      </trkpt>
      <trkpt lat="48.45452" lon="7.12785">
        <ele>620</ele>
        <time>2019-05-15T12:05:36.082Z</time>
      </trkpt>
      <trkpt lat="48.45451" lon="7.12784">
        <ele>620</ele>
        <time>2019-05-15T12:05:37.082Z</time>
      </trkpt>
      <trkpt lat="48.4545" lon="7.12783">
        <ele>620</ele>
        <time>2019-05-15T12:05:38.082Z</time>
      </trkpt>
      <trkpt lat="48.4545" lon="7.12782">
        <ele>620</ele>
        <time>2019-05-15T12:05:39.082Z</time>
      </trkpt>
      <trkpt lat="48.45449" lon="7.12782">
        <ele>620</ele>
        <time>2019-05-15T12:05:40.082Z</time>
      </trkpt>
      <trkpt lat="48.45448" lon="7.12781">
        <ele>619</ele>
        <time>2019-05-15T12:05:41.082Z</time>
      </trkpt>
      <trkpt lat="48.45447" lon="7.1278">
        <ele>618</ele>
        <time>2019-05-15T12:05:42.082Z</time>
      </trkpt>
      <trkpt lat="48.45446" lon="7.12778">
        <ele>618</ele>
        <time>2019-05-15T12:05:43.082Z</time>
      </trkpt>
      <trkpt lat="48.45445" lon="7.12777">
        <ele>618</ele>
        <time>2019-05-15T12:05:44.082Z</time>
      </trkpt>
      <trkpt lat="48.45444" lon="7.12776">
        <ele>617</ele>
        <time>2019-05-15T12:05:45.082Z</time>
      </trkpt>
      <trkpt lat="48.45443" lon="7.12775">
        <ele>617</ele>
        <time>2019-05-15T12:05:46.082Z</time>
      </trkpt>
      <trkpt lat="48.45442" lon="7.12775">
        <ele>616</ele>
        <time>2019-05-15T12:05:47.082Z</time>
      </trkpt>
      <trkpt lat="48.45441" lon="7.12774">
        <ele>616</ele>
        <time>2019-05-15T12:05:48.082Z</time>
      </trkpt>
      <trkpt lat="48.4544" lon="7.12774">
        <ele>616</ele>
        <time>2019-05-15T12:05:49.082Z</time>
      </trkpt>
      <trkpt lat="48.45439" lon="7.12773">
        <ele>616</ele>
        <time>2019-05-15T12:05:50.082Z</time>
      </trkpt>
      <trkpt lat="48.45438" lon="7.12773">
        <ele>615</ele>
        <time>2019-05-15T12:05:51.082Z</time>
      </trkpt>
      <trkpt lat="48.45437" lon="7.12773">
        <ele>615</ele>
        <time>2019-05-15T12:05:52.082Z</time>
      </trkpt>
      <trkpt lat="48.45436" lon="7.12773">
        <ele>615</ele>
        <time>2019-05-15T12:05:53.082Z</time>
      </trkpt>
      <trkpt lat="48.45435" lon="7.12773">
        <ele>615</ele>
        <time>2019-05-15T12:05:54.082Z</time>
      </trkpt>
      <trkpt lat="48.45434" lon="7.12773">
        <ele>616</ele>
        <time>2019-05-15T12:05:55.082Z</time>
      </trkpt>
      <trkpt lat="48.45433" lon="7.12772">
        <ele>615</ele>
        <time>2019-05-15T12:05:56.082Z</time>
      </trkpt>
      <trkpt lat="48.45431" lon="7.12772">
        <ele>615</ele>
        <time>2019-05-15T12:05:57.082Z</time>
      </trkpt>
      <trkpt lat="48.4543" lon="7.12772">
        <ele>615</ele>
        <time>2019-05-15T12:05:58.082Z</time>
      </trkpt>
      <trkpt lat="48.45429" lon="7.12771">
        <ele>614</ele>
        <time>2019-05-15T12:05:59.082Z</time>
      </trkpt>
      <trkpt lat="48.45428" lon="7.1277">
        <ele>614</ele>
        <time>2019-05-15T12:06:00.082Z</time>
      </trkpt>
      <trkpt lat="48.45427" lon="7.1277">
        <ele>614</ele>
        <time>2019-05-15T12:06:01.082Z</time>
      </trkpt>
      <trkpt lat="48.45426" lon="7.1277">
        <ele>614</ele>
        <time>2019-05-15T12:06:02.082Z</time>
      </trkpt>
      <trkpt lat="48.45425" lon="7.1277">
        <ele>614</ele>
        <time>2019-05-15T12:06:03.082Z</time>
      </trkpt>
      <trkpt lat="48.45424" lon="7.12769">
        <ele>614</ele>
        <time>2019-05-15T12:06:04.082Z</time>
      </trkpt>
      <trkpt lat="48.45423" lon="7.12769">
        <ele>614</ele>
        <time>2019-05-15T12:06:05.082Z</time>
      </trkpt>
      <trkpt lat="48.45422" lon="7.12769">
        <ele>614</ele>
        <time>2019-05-15T12:06:06.082Z</time>
      </trkpt>
      <trkpt lat="48.45421" lon="7.12768">
        <ele>613</ele>
        <time>2019-05-15T12:06:07.082Z</time>
      </trkpt>
      <trkpt lat="48.4542" lon="7.12768">
        <ele>613</ele>
        <time>2019-05-15T12:06:08.082Z</time>
      </trkpt>
      <trkpt lat="48.45419" lon="7.12767">
        <ele>614</ele>
        <time>2019-05-15T12:06:09.082Z</time>
      </trkpt>
      <trkpt lat="48.45418" lon="7.12768">
        <ele>613</ele>
        <time>2019-05-15T12:06:10.082Z</time>
      </trkpt>
      <trkpt lat="48.45417" lon="7.12768">
        <ele>613</ele>
        <time>2019-05-15T12:06:11.082Z</time>
      </trkpt>
      <trkpt lat="48.45415" lon="7.12767">
        <ele>613</ele>
        <time>2019-05-15T12:06:12.082Z</time>
      </trkpt>
      <trkpt lat="48.45414" lon="7.12767">
        <ele>613</ele>
        <time>2019-05-15T12:06:13.082Z</time>
      </trkpt>
      <trkpt lat="48.45413" lon="7.12767">
        <ele>613</ele>
        <time>2019-05-15T12:06:14.082Z</time>
      </trkpt>
      <trkpt lat="48.45412" lon="7.12766">
        <ele>613</ele>
        <time>2019-05-15T12:06:15.082Z</time>
      </trkpt>
      <trkpt lat="48.45411" lon="7.12766">
        <ele>613</ele>
        <time>2019-05-15T12:06:16.082Z</time>
      </trkpt>
      <trkpt lat="48.45411" lon="7.12765">
        <ele>614</ele>
        <time>2019-05-15T12:06:17.082Z</time>
      </trkpt>
      <trkpt lat="48.4541" lon="7.12765">
        <ele>613</ele>
        <time>2019-05-15T12:06:18.082Z</time>
      </trkpt>
      <trkpt lat="48.45409" lon="7.12764">
        <ele>613</ele>
        <time>2019-05-15T12:06:19.082Z</time>
      </trkpt>
      <trkpt lat="48.45408" lon="7.12764">
        <ele>613</ele>
        <time>2019-05-15T12:06:20.082Z</time>
      </trkpt>
      <trkpt lat="48.45407" lon="7.12763">
        <ele>613</ele>
        <time>2019-05-15T12:06:21.082Z</time>
      </trkpt>
      <trkpt lat="48.45406" lon="7.12762">
        <ele>613</ele>
        <time>2019-05-15T12:06:22.082Z</time>
      </trkpt>
      <trkpt lat="48.45405" lon="7.12762">
        <ele>613</ele>
        <time>2019-05-15T12:06:23.082Z</time>
      </trkpt>
      <trkpt lat="48.45404" lon="7.12762">
        <ele>613</ele>
        <time>2019-05-15T12:06:24.082Z</time>
      </trkpt>
      <trkpt lat="48.45403" lon="7.12761">
        <ele>613</ele>
        <time>2019-05-15T12:06:25.082Z</time>
      </trkpt>
      <trkpt lat="48.45402" lon="7.1276">
        <ele>613</ele>
        <time>2019-05-15T12:06:26.082Z</time>
      </trkpt>
      <trkpt lat="48.45401" lon="7.1276">
        <ele>612</ele>
        <time>2019-05-15T12:06:27.082Z</time>
      </trkpt>
      <trkpt lat="48.454" lon="7.12759">
        <ele>612</ele>
        <time>2019-05-15T12:06:28.082Z</time>
      </trkpt>
      <trkpt lat="48.45399" lon="7.12758">
        <ele>612</ele>
        <time>2019-05-15T12:06:29.082Z</time>
      </trkpt>
      <trkpt lat="48.45398" lon="7.12758">
        <ele>612</ele>
        <time>2019-05-15T12:06:30.082Z</time>
      </trkpt>
      <trkpt lat="48.45397" lon="7.12757">
        <ele>611</ele>
        <time>2019-05-15T12:06:31.082Z</time>
      </trkpt>
      <trkpt lat="48.45397" lon="7.12756">
        <ele>612</ele>
        <time>2019-05-15T12:06:32.082Z</time>
      </trkpt>
      <trkpt lat="48.45396" lon="7.12755">
        <ele>611</ele>
        <time>2019-05-15T12:06:33.082Z</time>
      </trkpt>
      <trkpt lat="48.45395" lon="7.12754">
        <ele>610</ele>
        <time>2019-05-15T12:06:34.082Z</time>
      </trkpt>
      <trkpt lat="48.45394" lon="7.12753">
        <ele>611</ele>
        <time>2019-05-15T12:06:35.082Z</time>
      </trkpt>
      <trkpt lat="48.45393" lon="7.12752">
        <ele>611</ele>
        <time>2019-05-15T12:06:36.082Z</time>
      </trkpt>
      <trkpt lat="48.45393" lon="7.12751">
        <ele>611</ele>
        <time>2019-05-15T12:06:37.082Z</time>
      </trkpt>
      <trkpt lat="48.45392" lon="7.1275">
        <ele>611</ele>
        <time>2019-05-15T12:06:38.082Z</time>
      </trkpt>
      <trkpt lat="48.45391" lon="7.12749">
        <ele>611</ele>
        <time>2019-05-15T12:06:39.082Z</time>
      </trkpt>
      <trkpt lat="48.45391" lon="7.12748">
        <ele>611</ele>
        <time>2019-05-15T12:06:40.082Z</time>
      </trkpt>
      <trkpt lat="48.4539" lon="7.12747">
        <ele>611</ele>
        <time>2019-05-15T12:06:41.082Z</time>
      </trkpt>
      <trkpt lat="48.45389" lon="7.12746">
        <ele>610</ele>
        <time>2019-05-15T12:06:42.082Z</time>
      </trkpt>
      <trkpt lat="48.45388" lon="7.12745">
        <ele>611</ele>
        <time>2019-05-15T12:06:43.082Z</time>
      </trkpt>
      <trkpt lat="48.45388" lon="7.12744">
        <ele>611</ele>
        <time>2019-05-15T12:06:44.082Z</time>
      </trkpt>
      <trkpt lat="48.45387" lon="7.12743">
        <ele>611</ele>
        <time>2019-05-15T12:06:45.082Z</time>
      </trkpt>
      <trkpt lat="48.45386" lon="7.12742">
        <ele>611</ele>
        <time>2019-05-15T12:06:46.082Z</time>
      </trkpt>
      <trkpt lat="48.45385" lon="7.12741">
        <ele>611</ele>
        <time>2019-05-15T12:06:47.082Z</time>
      </trkpt>
      <trkpt lat="48.45385" lon="7.12739">
        <ele>611</ele>
        <time>2019-05-15T12:06:48.082Z</time>
      </trkpt>
      <trkpt lat="48.45384" lon="7.12738">
        <ele>611</ele>
        <time>2019-05-15T12:06:49.082Z</time>
      </trkpt>
      <trkpt lat="48.45383" lon="7.12737">
        <ele>610</ele>
        <time>2019-05-15T12:06:50.082Z</time>
      </trkpt>
      <trkpt lat="48.45382" lon="7.12735">
        <ele>611</ele>
        <time>2019-05-15T12:06:51.082Z</time>
      </trkpt>
      <trkpt lat="48.45381" lon="7.12734">
        <ele>611</ele>
        <time>2019-05-15T12:06:52.082Z</time>
      </trkpt>
      <trkpt lat="48.4538" lon="7.12733">
        <ele>610</ele>
        <time>2019-05-15T12:06:53.082Z</time>
      </trkpt>
      <trkpt lat="48.4538" lon="7.12731">
        <ele>611</ele>
        <time>2019-05-15T12:06:54.082Z</time>
      </trkpt>
      <trkpt lat="48.45379" lon="7.1273">
        <ele>611</ele>
        <time>2019-05-15T12:06:55.082Z</time>
      </trkpt>
      <trkpt lat="48.45378" lon="7.12729">
        <ele>611</ele>
        <time>2019-05-15T12:06:56.082Z</time>
      </trkpt>
      <trkpt lat="48.45378" lon="7.12728">
        <ele>610</ele>
        <time>2019-05-15T12:06:57.082Z</time>
      </trkpt>
      <trkpt lat="48.45377" lon="7.12727">
        <ele>610</ele>
        <time>2019-05-15T12:06:58.082Z</time>
      </trkpt>
      <trkpt lat="48.45376" lon="7.12726">
        <ele>610</ele>
        <time>2019-05-15T12:06:59.082Z</time>
      </trkpt>
      <trkpt lat="48.45375" lon="7.12725">
        <ele>610</ele>
        <time>2019-05-15T12:07:00.082Z</time>
      </trkpt>
      <trkpt lat="48.45375" lon="7.12724">
        <ele>610</ele>
        <time>2019-05-15T12:07:01.082Z</time>
      </trkpt>
      <trkpt lat="48.45374" lon="7.12722">
        <ele>610</ele>
        <time>2019-05-15T12:07:02.082Z</time>
      </trkpt>
      <trkpt lat="48.45373" lon="7.12721">
        <ele>609</ele>
        <time>2019-05-15T12:07:03.082Z</time>
      </trkpt>
      <trkpt lat="48.45372" lon="7.1272">
        <ele>610</ele>
        <time>2019-05-15T12:07:04.082Z</time>
      </trkpt>
      <trkpt lat="48.45371" lon="7.12719">
        <ele>609</ele>
        <time>2019-05-15T12:07:05.082Z</time>
      </trkpt>
      <trkpt lat="48.4537" lon="7.12717">
        <ele>608</ele>
        <time>2019-05-15T12:07:06.082Z</time>
      </trkpt>
      <trkpt lat="48.4537" lon="7.12716">
        <ele>609</ele>
        <time>2019-05-15T12:07:07.082Z</time>
      </trkpt>
      <trkpt lat="48.45369" lon="7.12716">
        <ele>608</ele>
        <time>2019-05-15T12:07:08.082Z</time>
      </trkpt>
      <trkpt lat="48.45367" lon="7.12715">
        <ele>608</ele>
        <time>2019-05-15T12:07:09.082Z</time>
      </trkpt>
      <trkpt lat="48.45366" lon="7.12714">
        <ele>608</ele>
        <time>2019-05-15T12:07:10.082Z</time>
      </trkpt>
      <trkpt lat="48.45365" lon="7.12713">
        <ele>607</ele>
        <time>2019-05-15T12:07:11.082Z</time>
      </trkpt>
      <trkpt lat="48.45364" lon="7.12712">
        <ele>607</ele>
        <time>2019-05-15T12:07:12.082Z</time>
      </trkpt>
      <trkpt lat="48.45364" lon="7.1271">
        <ele>608</ele>
        <time>2019-05-15T12:07:13.082Z</time>
      </trkpt>
      <trkpt lat="48.45363" lon="7.12709">
        <ele>607</ele>
        <time>2019-05-15T12:07:14.082Z</time>
      </trkpt>
      <trkpt lat="48.45362" lon="7.12708">
        <ele>607</ele>
        <time>2019-05-15T12:07:15.082Z</time>
      </trkpt>
      <trkpt lat="48.45362" lon="7.12707">
        <ele>607</ele>
        <time>2019-05-15T12:07:16.082Z</time>
      </trkpt>
      <trkpt lat="48.45361" lon="7.12706">
        <ele>607</ele>
        <time>2019-05-15T12:07:17.082Z</time>
      </trkpt>
      <trkpt lat="48.4536" lon="7.12705">
        <ele>608</ele>
        <time>2019-05-15T12:07:18.082Z</time>
      </trkpt>
      <trkpt lat="48.4536" lon="7.12704">
        <ele>608</ele>
        <time>2019-05-15T12:07:19.082Z</time>
      </trkpt>
      <trkpt lat="48.45359" lon="7.12703">
        <ele>608</ele>
        <time>2019-05-15T12:07:20.082Z</time>
      </trkpt>
      <trkpt lat="48.45358" lon="7.12702">
        <ele>609</ele>
        <time>2019-05-15T12:07:21.082Z</time>
      </trkpt>
      <trkpt lat="48.45358" lon="7.12701">
        <ele>609</ele>
        <time>2019-05-15T12:07:22.082Z</time>
      </trkpt>
      <trkpt lat="48.45357" lon="7.127">
        <ele>609</ele>
        <time>2019-05-15T12:07:23.082Z</time>
      </trkpt>
      <trkpt lat="48.45356" lon="7.12699">
        <ele>609</ele>
        <time>2019-05-15T12:07:24.082Z</time>
      </trkpt>
      <trkpt lat="48.45356" lon="7.12697">
        <ele>608</ele>
        <time>2019-05-15T12:07:25.082Z</time>
      </trkpt>
      <trkpt lat="48.45355" lon="7.12696">
        <ele>608</ele>
        <time>2019-05-15T12:07:26.082Z</time>
      </trkpt>
      <trkpt lat="48.45355" lon="7.12694">
        <ele>608</ele>
        <time>2019-05-15T12:07:27.082Z</time>
      </trkpt>
      <trkpt lat="48.45354" lon="7.12693">
        <ele>608</ele>
        <time>2019-05-15T12:07:28.082Z</time>
      </trkpt>
      <trkpt lat="48.45353" lon="7.12691">
        <ele>607</ele>
        <time>2019-05-15T12:07:29.082Z</time>
      </trkpt>
      <trkpt lat="48.45353" lon="7.1269">
        <ele>607</ele>
        <time>2019-05-15T12:07:30.082Z</time>
      </trkpt>
      <trkpt lat="48.45352" lon="7.12689">
        <ele>607</ele>
        <time>2019-05-15T12:07:31.082Z</time>
      </trkpt>
      <trkpt lat="48.45351" lon="7.12688">
        <ele>607</ele>
        <time>2019-05-15T12:07:32.082Z</time>
      </trkpt>
      <trkpt lat="48.45351" lon="7.12686">
        <ele>607</ele>
        <time>2019-05-15T12:07:33.082Z</time>
      </trkpt>
      <trkpt lat="48.4535" lon="7.12685">
        <ele>607</ele>
        <time>2019-05-15T12:07:34.082Z</time>
      </trkpt>
      <trkpt lat="48.4535" lon="7.12683">
        <ele>607</ele>
        <time>2019-05-15T12:07:35.082Z</time>
      </trkpt>
      <trkpt lat="48.45349" lon="7.12682">
        <ele>607</ele>
        <time>2019-05-15T12:07:36.082Z</time>
      </trkpt>
      <trkpt lat="48.45348" lon="7.12681">
        <ele>607</ele>
        <time>2019-05-15T12:07:37.082Z</time>
      </trkpt>
      <trkpt lat="48.45347" lon="7.1268">
        <ele>607</ele>
        <time>2019-05-15T12:07:38.082Z</time>
      </trkpt>
      <trkpt lat="48.45347" lon="7.12678">
        <ele>606</ele>
        <time>2019-05-15T12:07:39.082Z</time>
      </trkpt>
      <trkpt lat="48.45346" lon="7.12677">
        <ele>607</ele>
        <time>2019-05-15T12:07:40.082Z</time>
      </trkpt>
      <trkpt lat="48.45345" lon="7.12675">
        <ele>606</ele>
        <time>2019-05-15T12:07:41.082Z</time>
      </trkpt>
      <trkpt lat="48.45344" lon="7.12674">
        <ele>606</ele>
        <time>2019-05-15T12:07:42.082Z</time>
      </trkpt>
      <trkpt lat="48.45344" lon="7.12672">
        <ele>606</ele>
        <time>2019-05-15T12:07:43.082Z</time>
      </trkpt>
      <trkpt lat="48.45343" lon="7.12671">
        <ele>606</ele>
        <time>2019-05-15T12:07:44.082Z</time>
      </trkpt>
      <trkpt lat="48.45342" lon="7.1267">
        <ele>606</ele>
        <time>2019-05-15T12:07:45.082Z</time>
      </trkpt>
      <trkpt lat="48.45341" lon="7.12668">
        <ele>606</ele>
        <time>2019-05-15T12:07:46.082Z</time>
      </trkpt>
      <trkpt lat="48.45341" lon="7.12667">
        <ele>606</ele>
        <time>2019-05-15T12:07:47.082Z</time>
      </trkpt>
      <trkpt lat="48.45341" lon="7.12666">
        <ele>606</ele>
        <time>2019-05-15T12:07:48.082Z</time>
      </trkpt>
      <trkpt lat="48.45341" lon="7.12664">
        <ele>605</ele>
        <time>2019-05-15T12:07:49.082Z</time>
      </trkpt>
      <trkpt lat="48.4534" lon="7.12662">
        <ele>605</ele>
        <time>2019-05-15T12:07:50.082Z</time>
      </trkpt>
      <trkpt lat="48.4534" lon="7.12661">
        <ele>605</ele>
        <time>2019-05-15T12:07:51.082Z</time>
      </trkpt>
      <trkpt lat="48.4534" lon="7.12659">
        <ele>605</ele>
        <time>2019-05-15T12:07:52.082Z</time>
      </trkpt>
      <trkpt lat="48.45339" lon="7.12658">
        <ele>605</ele>
        <time>2019-05-15T12:07:53.082Z</time>
      </trkpt>
      <trkpt lat="48.45339" lon="7.12657">
        <ele>605</ele>
        <time>2019-05-15T12:07:54.082Z</time>
      </trkpt>
      <trkpt lat="48.45338" lon="7.12656">
        <ele>605</ele>
        <time>2019-05-15T12:07:55.082Z</time>
      </trkpt>
      <trkpt lat="48.45338" lon="7.12654">
        <ele>605</ele>
        <time>2019-05-15T12:07:56.082Z</time>
      </trkpt>
      <trkpt lat="48.45338" lon="7.12653">
        <ele>606</ele>
        <time>2019-05-15T12:07:57.082Z</time>
      </trkpt>
      <trkpt lat="48.45337" lon="7.12652">
        <ele>605</ele>
        <time>2019-05-15T12:07:58.082Z</time>
      </trkpt>
      <trkpt lat="48.45337" lon="7.1265">
        <ele>605</ele>
        <time>2019-05-15T12:07:59.082Z</time>
      </trkpt>
      <trkpt lat="48.45336" lon="7.12649">
        <ele>605</ele>
        <time>2019-05-15T12:08:00.082Z</time>
      </trkpt>
      <trkpt lat="48.45336" lon="7.12647">
        <ele>605</ele>
        <time>2019-05-15T12:08:01.082Z</time>
      </trkpt>
      <trkpt lat="48.45335" lon="7.12646">
        <ele>605</ele>
        <time>2019-05-15T12:08:02.082Z</time>
      </trkpt>
      <trkpt lat="48.45334" lon="7.12645">
        <ele>605</ele>
        <time>2019-05-15T12:08:03.082Z</time>
      </trkpt>
      <trkpt lat="48.45334" lon="7.12644">
        <ele>605</ele>
        <time>2019-05-15T12:08:04.082Z</time>
      </trkpt>
      <trkpt lat="48.45333" lon="7.12643">
        <ele>604</ele>
        <time>2019-05-15T12:08:05.082Z</time>
      </trkpt>
      <trkpt lat="48.45332" lon="7.12641">
        <ele>604</ele>
        <time>2019-05-15T12:08:06.082Z</time>
      </trkpt>
      <trkpt lat="48.45331" lon="7.1264">
        <ele>604</ele>
        <time>2019-05-15T12:08:07.082Z</time>
      </trkpt>
      <trkpt lat="48.4533" lon="7.12639">
        <ele>604</ele>
        <time>2019-05-15T12:08:08.082Z</time>
      </trkpt>
      <trkpt lat="48.45329" lon="7.12638">
        <ele>604</ele>
        <time>2019-05-15T12:08:09.082Z</time>
      </trkpt>
      <trkpt lat="48.45328" lon="7.12638">
        <ele>604</ele>
        <time>2019-05-15T12:08:10.082Z</time>
      </trkpt>
      <trkpt lat="48.45328" lon="7.12637">
        <ele>603</ele>
        <time>2019-05-15T12:08:11.082Z</time>
      </trkpt>
      <trkpt lat="48.45327" lon="7.12635">
        <ele>603</ele>
        <time>2019-05-15T12:08:12.082Z</time>
      </trkpt>
      <trkpt lat="48.45326" lon="7.12635">
        <ele>603</ele>
        <time>2019-05-15T12:08:13.082Z</time>
      </trkpt>
      <trkpt lat="48.45325" lon="7.12634">
        <ele>603</ele>
        <time>2019-05-15T12:08:14.082Z</time>
      </trkpt>
      <trkpt lat="48.45324" lon="7.12633">
        <ele>604</ele>
        <time>2019-05-15T12:08:15.082Z</time>
      </trkpt>
      <trkpt lat="48.45324" lon="7.12632">
        <ele>603</ele>
        <time>2019-05-15T12:08:16.082Z</time>
      </trkpt>
      <trkpt lat="48.45323" lon="7.12631">
        <ele>603</ele>
        <time>2019-05-15T12:08:17.082Z</time>
      </trkpt>
      <trkpt lat="48.45323" lon="7.1263">
        <ele>603</ele>
        <time>2019-05-15T12:08:18.082Z</time>
      </trkpt>
      <trkpt lat="48.45323" lon="7.12629">
        <ele>603</ele>
        <time>2019-05-15T12:08:19.082Z</time>
      </trkpt>
      <trkpt lat="48.45322" lon="7.12629">
        <ele>603</ele>
        <time>2019-05-15T12:08:20.082Z</time>
      </trkpt>
      <trkpt lat="48.45322" lon="7.12628">
        <ele>603</ele>
        <time>2019-05-15T12:08:21.082Z</time>
      </trkpt>
      <trkpt lat="48.45321" lon="7.12627">
        <ele>603</ele>
        <time>2019-05-15T12:08:22.082Z</time>
      </trkpt>
      <trkpt lat="48.4532" lon="7.12627">
        <ele>603</ele>
        <time>2019-05-15T12:08:23.082Z</time>
      </trkpt>
      <trkpt lat="48.45318" lon="7.12627">
        <ele>603</ele>
        <time>2019-05-15T12:08:24.082Z</time>
      </trkpt>
      <trkpt lat="48.45317" lon="7.12628">
        <ele>603</ele>
        <time>2019-05-15T12:08:25.082Z</time>
      </trkpt>
      <trkpt lat="48.45317" lon="7.12627">
        <ele>602</ele>
        <time>2019-05-15T12:08:26.082Z</time>
      </trkpt>
      <trkpt lat="48.45317" lon="7.12627">
        <ele>602</ele>
        <time>2019-05-15T12:08:27.082Z</time>
      </trkpt>
      <trkpt lat="48.45317" lon="7.12626">
        <ele>602</ele>
        <time>2019-05-15T12:08:28.082Z</time>
      </trkpt>
      <trkpt lat="48.45317" lon="7.12626">
        <ele>603</ele>
        <time>2019-05-15T12:08:29.082Z</time>
      </trkpt>
      <trkpt lat="48.45316" lon="7.12625">
        <ele>603</ele>
        <time>2019-05-15T12:08:30.082Z</time>
      </trkpt>
      <trkpt lat="48.45316" lon="7.12625">
        <ele>603</ele>
        <time>2019-05-15T12:08:31.082Z</time>
      </trkpt>
      <trkpt lat="48.45316" lon="7.12625">
        <ele>604</ele>
        <time>2019-05-15T12:08:32.082Z</time>
      </trkpt>
      <trkpt lat="48.45316" lon="7.12624">
        <ele>604</ele>
        <time>2019-05-15T12:08:33.082Z</time>
      </trkpt>
      <trkpt lat="48.45315" lon="7.12624">
        <ele>604</ele>
        <time>2019-05-15T12:08:34.082Z</time>
      </trkpt>
      <trkpt lat="48.45315" lon="7.12624">
        <ele>604</ele>
        <time>2019-05-15T12:08:35.082Z</time>
      </trkpt>
      <trkpt lat="48.45315" lon="7.12624">
        <ele>605</ele>
        <time>2019-05-15T12:08:36.082Z</time>
      </trkpt>
      <trkpt lat="48.45315" lon="7.12623">
        <ele>605</ele>
        <time>2019-05-15T12:08:37.082Z</time>
      </trkpt>
      <trkpt lat="48.45315" lon="7.12623">
        <ele>604</ele>
        <time>2019-05-15T12:08:38.082Z</time>
      </trkpt>
      <trkpt lat="48.45315" lon="7.12623">
        <ele>604</ele>
        <time>2019-05-15T12:08:39.082Z</time>
      </trkpt>
      <trkpt lat="48.45315" lon="7.12623">
        <ele>604</ele>
        <time>2019-05-15T12:08:40.082Z</time>
      </trkpt>
      <trkpt lat="48.45315" lon="7.12623">
        <ele>604</ele>
        <time>2019-05-15T12:08:41.082Z</time>
      </trkpt>
      <trkpt lat="48.45315" lon="7.12624">
        <ele>604</ele>
        <time>2019-05-15T12:08:42.082Z</time>
      </trkpt>
      <trkpt lat="48.45316" lon="7.12624">
        <ele>603</ele>
        <time>2019-05-15T12:08:43.082Z</time>
      </trkpt>
      <trkpt lat="48.45316" lon="7.12624">
        <ele>603</ele>
        <time>2019-05-15T12:08:44.082Z</time>
      </trkpt>
      <trkpt lat="48.45317" lon="7.12624">
        <ele>604</ele>
        <time>2019-05-15T12:08:45.082Z</time>
      </trkpt>
      <trkpt lat="48.45318" lon="7.12625">
        <ele>605</ele>
        <time>2019-05-15T12:08:46.082Z</time>
      </trkpt>
      <trkpt lat="48.45319" lon="7.12625">
        <ele>605</ele>
        <time>2019-05-15T12:08:47.082Z</time>
      </trkpt>
      <trkpt lat="48.45319" lon="7.12626">
        <ele>605</ele>
        <time>2019-05-15T12:08:48.082Z</time>
      </trkpt>
      <trkpt lat="48.4532" lon="7.12626">
        <ele>606</ele>
        <time>2019-05-15T12:08:49.082Z</time>
      </trkpt>
      <trkpt lat="48.45321" lon="7.12626">
        <ele>607</ele>
        <time>2019-05-15T12:08:50.082Z</time>
      </trkpt>
      <trkpt lat="48.45322" lon="7.12626">
        <ele>607</ele>
        <time>2019-05-15T12:08:51.082Z</time>
      </trkpt>
      <trkpt lat="48.45322" lon="7.12627">
        <ele>608</ele>
        <time>2019-05-15T12:08:52.082Z</time>
      </trkpt>
      <trkpt lat="48.45323" lon="7.12628">
        <ele>606</ele>
        <time>2019-05-15T12:08:53.082Z</time>
      </trkpt>
      <trkpt lat="48.45324" lon="7.1263">
        <ele>606</ele>
        <time>2019-05-15T12:08:54.082Z</time>
      </trkpt>
      <trkpt lat="48.45325" lon="7.12631">
        <ele>606</ele>
        <time>2019-05-15T12:08:55.082Z</time>
      </trkpt>
      <trkpt lat="48.45326" lon="7.12632">
        <ele>608</ele>
        <time>2019-05-15T12:08:56.082Z</time>
      </trkpt>
      <trkpt lat="48.45327" lon="7.12633">
        <ele>609</ele>
        <time>2019-05-15T12:08:57.082Z</time>
      </trkpt>
      <trkpt lat="48.45328" lon="7.12634">
        <ele>609</ele>
        <time>2019-05-15T12:08:58.082Z</time>
      </trkpt>
      <trkpt lat="48.45329" lon="7.12635">
        <ele>610</ele>
        <time>2019-05-15T12:08:59.082Z</time>
      </trkpt>
      <trkpt lat="48.4533" lon="7.12636">
        <ele>611</ele>
        <time>2019-05-15T12:09:00.082Z</time>
      </trkpt>
      <trkpt lat="48.4533" lon="7.12636">
        <ele>611</ele>
        <time>2019-05-15T12:09:01.082Z</time>
      </trkpt>
      <trkpt lat="48.45331" lon="7.12637">
        <ele>611</ele>
        <time>2019-05-15T12:09:02.082Z</time>
      </trkpt>
      <trkpt lat="48.45331" lon="7.12638">
        <ele>611</ele>
        <time>2019-05-15T12:09:03.082Z</time>
      </trkpt>
      <trkpt lat="48.45332" lon="7.12638">
        <ele>611</ele>
        <time>2019-05-15T12:09:04.082Z</time>
      </trkpt>
      <trkpt lat="48.45332" lon="7.12639">
        <ele>611</ele>
        <time>2019-05-15T12:09:05.082Z</time>
      </trkpt>
      <trkpt lat="48.45333" lon="7.1264">
        <ele>612</ele>
        <time>2019-05-15T12:09:06.082Z</time>
      </trkpt>
      <trkpt lat="48.45334" lon="7.12641">
        <ele>611</ele>
        <time>2019-05-15T12:09:07.082Z</time>
      </trkpt>
      <trkpt lat="48.45334" lon="7.12643">
        <ele>611</ele>
        <time>2019-05-15T12:09:08.082Z</time>
      </trkpt>
      <trkpt lat="48.45334" lon="7.12644">
        <ele>612</ele>
        <time>2019-05-15T12:09:09.082Z</time>
      </trkpt>
      <trkpt lat="48.45335" lon="7.12645">
        <ele>612</ele>
        <time>2019-05-15T12:09:10.082Z</time>
      </trkpt>
      <trkpt lat="48.45335" lon="7.12647">
        <ele>612</ele>
        <time>2019-05-15T12:09:11.082Z</time>
      </trkpt>
      <trkpt lat="48.45336" lon="7.12648">
        <ele>614</ele>
        <time>2019-05-15T12:09:12.082Z</time>
      </trkpt>
      <trkpt lat="48.45337" lon="7.1265">
        <ele>613</ele>
        <time>2019-05-15T12:09:13.082Z</time>
      </trkpt>
      <trkpt lat="48.45337" lon="7.12651">
        <ele>613</ele>
        <time>2019-05-15T12:09:14.082Z</time>
      </trkpt>
      <trkpt lat="48.45338" lon="7.12652">
        <ele>612</ele>
        <time>2019-05-15T12:09:15.082Z</time>
      </trkpt>
      <trkpt lat="48.45338" lon="7.12653">
        <ele>613</ele>
        <time>2019-05-15T12:09:16.082Z</time>
      </trkpt>
      <trkpt lat="48.45339" lon="7.12654">
        <ele>613</ele>
        <time>2019-05-15T12:09:17.082Z</time>
      </trkpt>
      <trkpt lat="48.4534" lon="7.12656">
        <ele>613</ele>
        <time>2019-05-15T12:09:18.082Z</time>
      </trkpt>
      <trkpt lat="48.4534" lon="7.12657">
        <ele>613</ele>
        <time>2019-05-15T12:09:19.082Z</time>
      </trkpt>
      <trkpt lat="48.45341" lon="7.12657">
        <ele>612</ele>
        <time>2019-05-15T12:09:20.082Z</time>
      </trkpt>
      <trkpt lat="48.45341" lon="7.12658">
        <ele>612</ele>
        <time>2019-05-15T12:09:21.082Z</time>
      </trkpt>
      <trkpt lat="48.45341" lon="7.12659">
        <ele>613</ele>
        <time>2019-05-15T12:09:22.082Z</time>
      </trkpt>
      <trkpt lat="48.45342" lon="7.1266">
        <ele>613</ele>
        <time>2019-05-15T12:09:23.082Z</time>
      </trkpt>
      <trkpt lat="48.45342" lon="7.12661">
        <ele>613</ele>
        <time>2019-05-15T12:09:24.082Z</time>
      </trkpt>
      <trkpt lat="48.45343" lon="7.12662">
        <ele>613</ele>
        <time>2019-05-15T12:09:25.082Z</time>
      </trkpt>
      <trkpt lat="48.45344" lon="7.12663">
        <ele>613</ele>
        <time>2019-05-15T12:09:26.082Z</time>
      </trkpt>
      <trkpt lat="48.45344" lon="7.12664">
        <ele>612</ele>
        <time>2019-05-15T12:09:27.082Z</time>
      </trkpt>
      <trkpt lat="48.45344" lon="7.12665">
        <ele>612</ele>
        <time>2019-05-15T12:09:28.082Z</time>
      </trkpt>
      <trkpt lat="48.45345" lon="7.12666">
        <ele>611</ele>
        <time>2019-05-15T12:09:29.082Z</time>
      </trkpt>
      <trkpt lat="48.45345" lon="7.12667">
        <ele>611</ele>
        <time>2019-05-15T12:09:30.082Z</time>
      </trkpt>
      <trkpt lat="48.45345" lon="7.12668">
        <ele>611</ele>
        <time>2019-05-15T12:09:31.082Z</time>
      </trkpt>
      <trkpt lat="48.45345" lon="7.12668">
        <ele>611</ele>
        <time>2019-05-15T12:09:32.082Z</time>
      </trkpt>
      <trkpt lat="48.45345" lon="7.12668">
        <ele>610</ele>
        <time>2019-05-15T12:09:33.082Z</time>
      </trkpt>
      <trkpt lat="48.45345" lon="7.12669">
        <ele>610</ele>
        <time>2019-05-15T12:09:34.082Z</time>
      </trkpt>
      <trkpt lat="48.45345" lon="7.12669">
        <ele>610</ele>
        <time>2019-05-15T12:09:35.082Z</time>
      </trkpt>
      <trkpt lat="48.45345" lon="7.1267">
        <ele>610</ele>
        <time>2019-05-15T12:09:36.082Z</time>
      </trkpt>
      <trkpt lat="48.45345" lon="7.1267">
        <ele>610</ele>
        <time>2019-05-15T12:09:37.082Z</time>
      </trkpt>
      <trkpt lat="48.45345" lon="7.1267">
        <ele>610</ele>
        <time>2019-05-15T12:09:38.082Z</time>
      </trkpt>
      <trkpt lat="48.45345" lon="7.12671">
        <ele>610</ele>
        <time>2019-05-15T12:09:39.082Z</time>
      </trkpt>
      <trkpt lat="48.45345" lon="7.12672">
        <ele>610</ele>
        <time>2019-05-15T12:09:40.082Z</time>
      </trkpt>
      <trkpt lat="48.45344" lon="7.12673">
        <ele>610</ele>
        <time>2019-05-15T12:09:41.082Z</time>
      </trkpt>
      <trkpt lat="48.45342" lon="7.12673">
        <ele>610</ele>
        <time>2019-05-15T12:09:42.082Z</time>
      </trkpt>
      <trkpt lat="48.45342" lon="7.12674">
        <ele>610</ele>
        <time>2019-05-15T12:09:43.082Z</time>
      </trkpt>
      <trkpt lat="48.45341" lon="7.12674">
        <ele>610</ele>
        <time>2019-05-15T12:09:44.082Z</time>
      </trkpt>
      <trkpt lat="48.45341" lon="7.12675">
        <ele>610</ele>
        <time>2019-05-15T12:09:45.082Z</time>
      </trkpt>
      <trkpt lat="48.4534" lon="7.12675">
        <ele>610</ele>
        <time>2019-05-15T12:09:46.082Z</time>
      </trkpt>
      <trkpt lat="48.4534" lon="7.12676">
        <ele>610</ele>
        <time>2019-05-15T12:09:47.082Z</time>
      </trkpt>
      <trkpt lat="48.45339" lon="7.12677">
        <ele>609</ele>
        <time>2019-05-15T12:09:48.082Z</time>
      </trkpt>
      <trkpt lat="48.45339" lon="7.12678">
        <ele>609</ele>
        <time>2019-05-15T12:09:49.082Z</time>
      </trkpt>
      <trkpt lat="48.45338" lon="7.12678">
        <ele>609</ele>
        <time>2019-05-15T12:09:50.082Z</time>
      </trkpt>
      <trkpt lat="48.45338" lon="7.12679">
        <ele>608</ele>
        <time>2019-05-15T12:09:51.082Z</time>
      </trkpt>
      <trkpt lat="48.45338" lon="7.1268">
        <ele>607</ele>
        <time>2019-05-15T12:09:52.082Z</time>
      </trkpt>
      <trkpt lat="48.45337" lon="7.12682">
        <ele>607</ele>
        <time>2019-05-15T12:09:53.082Z</time>
      </trkpt>
      <trkpt lat="48.45337" lon="7.12683">
        <ele>606</ele>
        <time>2019-05-15T12:09:54.082Z</time>
      </trkpt>
      <trkpt lat="48.45337" lon="7.12684">
        <ele>606</ele>
        <time>2019-05-15T12:09:55.082Z</time>
      </trkpt>
      <trkpt lat="48.45337" lon="7.12685">
        <ele>605</ele>
        <time>2019-05-15T12:09:56.082Z</time>
      </trkpt>
      <trkpt lat="48.45336" lon="7.12686">
        <ele>605</ele>
        <time>2019-05-15T12:09:57.082Z</time>
      </trkpt>
      <trkpt lat="48.45336" lon="7.12687">
        <ele>604</ele>
        <time>2019-05-15T12:09:58.082Z</time>
      </trkpt>
      <trkpt lat="48.45336" lon="7.12688">
        <ele>605</ele>
        <time>2019-05-15T12:09:59.082Z</time>
      </trkpt>
      <trkpt lat="48.45335" lon="7.12689">
        <ele>605</ele>
        <time>2019-05-15T12:10:00.082Z</time>
      </trkpt>
      <trkpt lat="48.45335" lon="7.1269">
        <ele>604</ele>
        <time>2019-05-15T12:10:01.082Z</time>
      </trkpt>
      <trkpt lat="48.45335" lon="7.12691">
        <ele>605</ele>
        <time>2019-05-15T12:10:02.082Z</time>
      </trkpt>
      <trkpt lat="48.45335" lon="7.12692">
        <ele>604</ele>
        <time>2019-05-15T12:10:03.082Z</time>
      </trkpt>
      <trkpt lat="48.45336" lon="7.12693">
        <ele>605</ele>
        <time>2019-05-15T12:10:04.082Z</time>
      </trkpt>
      <trkpt lat="48.45336" lon="7.12694">
        <ele>605</ele>
        <time>2019-05-15T12:10:05.082Z</time>
      </trkpt>
      <trkpt lat="48.45336" lon="7.12696">
        <ele>605</ele>
        <time>2019-05-15T12:10:06.082Z</time>
      </trkpt>
      <trkpt lat="48.45336" lon="7.12697">
        <ele>605</ele>
        <time>2019-05-15T12:10:07.082Z</time>
      </trkpt>
      <trkpt lat="48.45336" lon="7.12698">
        <ele>605</ele>
        <time>2019-05-15T12:10:08.082Z</time>
      </trkpt>
      <trkpt lat="48.45336" lon="7.12698">
        <ele>606</ele>
        <time>2019-05-15T12:10:09.082Z</time>
      </trkpt>
      <trkpt lat="48.45336" lon="7.12699">
        <ele>605</ele>
        <time>2019-05-15T12:10:10.082Z</time>
      </trkpt>
      <trkpt lat="48.45336" lon="7.127">
        <ele>605</ele>
        <time>2019-05-15T12:10:11.082Z</time>
      </trkpt>
      <trkpt lat="48.45336" lon="7.12701">
        <ele>605</ele>
        <time>2019-05-15T12:10:12.082Z</time>
      </trkpt>
      <trkpt lat="48.45336" lon="7.12701">
        <ele>605</ele>
        <time>2019-05-15T12:10:13.082Z</time>
      </trkpt>
      <trkpt lat="48.45336" lon="7.12702">
        <ele>605</ele>
        <time>2019-05-15T12:10:14.082Z</time>
      </trkpt>
      <trkpt lat="48.45336" lon="7.12703">
        <ele>604</ele>
        <time>2019-05-15T12:10:15.082Z</time>
      </trkpt>
      <trkpt lat="48.45336" lon="7.12704">
        <ele>604</ele>
        <time>2019-05-15T12:10:16.082Z</time>
      </trkpt>
      <trkpt lat="48.45335" lon="7.12705">
        <ele>604</ele>
        <time>2019-05-15T12:10:17.082Z</time>
      </trkpt>
      <trkpt lat="48.45335" lon="7.12706">
        <ele>604</ele>
        <time>2019-05-15T12:10:18.082Z</time>
      </trkpt>
      <trkpt lat="48.45335" lon="7.12707">
        <ele>604</ele>
        <time>2019-05-15T12:10:19.082Z</time>
      </trkpt>
      <trkpt lat="48.45336" lon="7.12708">
        <ele>604</ele>
        <time>2019-05-15T12:10:20.082Z</time>
      </trkpt>
      <trkpt lat="48.45336" lon="7.12709">
        <ele>604</ele>
        <time>2019-05-15T12:10:21.082Z</time>
      </trkpt>
      <trkpt lat="48.45336" lon="7.1271">
        <ele>603</ele>
        <time>2019-05-15T12:10:22.082Z</time>
      </trkpt>
      <trkpt lat="48.45336" lon="7.12711">
        <ele>603</ele>
        <time>2019-05-15T12:10:23.082Z</time>
      </trkpt>
      <trkpt lat="48.45336" lon="7.12711">
        <ele>603</ele>
        <time>2019-05-15T12:10:24.082Z</time>
      </trkpt>
      <trkpt lat="48.45336" lon="7.12712">
        <ele>603</ele>
        <time>2019-05-15T12:10:25.082Z</time>
      </trkpt>
      <trkpt lat="48.45337" lon="7.12713">
        <ele>603</ele>
        <time>2019-05-15T12:10:26.082Z</time>
      </trkpt>
      <trkpt lat="48.45336" lon="7.12714">
        <ele>603</ele>
        <time>2019-05-15T12:10:27.082Z</time>
      </trkpt>
      <trkpt lat="48.45336" lon="7.12715">
        <ele>602</ele>
        <time>2019-05-15T12:10:28.082Z</time>
      </trkpt>
      <trkpt lat="48.45336" lon="7.12716">
        <ele>603</ele>
        <time>2019-05-15T12:10:29.082Z</time>
      </trkpt>
      <trkpt lat="48.45336" lon="7.12718">
        <ele>602</ele>
        <time>2019-05-15T12:10:30.082Z</time>
      </trkpt>
      <trkpt lat="48.45336" lon="7.12719">
        <ele>602</ele>
        <time>2019-05-15T12:10:31.082Z</time>
      </trkpt>
      <trkpt lat="48.45336" lon="7.1272">
        <ele>602</ele>
        <time>2019-05-15T12:10:32.082Z</time>
      </trkpt>
      <trkpt lat="48.45337" lon="7.12721">
        <ele>601</ele>
        <time>2019-05-15T12:10:33.082Z</time>
      </trkpt>
      <trkpt lat="48.45337" lon="7.12722">
        <ele>601</ele>
        <time>2019-05-15T12:10:34.082Z</time>
      </trkpt>
      <trkpt lat="48.45337" lon="7.12722">
        <ele>600</ele>
        <time>2019-05-15T12:10:35.082Z</time>
      </trkpt>
      <trkpt lat="48.45338" lon="7.12723">
        <ele>599</ele>
        <time>2019-05-15T12:10:36.082Z</time>
      </trkpt>
      <trkpt lat="48.45338" lon="7.12724">
        <ele>599</ele>
        <time>2019-05-15T12:10:37.082Z</time>
      </trkpt>
      <trkpt lat="48.45338" lon="7.12725">
        <ele>599</ele>
        <time>2019-05-15T12:10:38.082Z</time>
      </trkpt>
      <trkpt lat="48.45338" lon="7.12726">
        <ele>599</ele>
        <time>2019-05-15T12:10:39.082Z</time>
      </trkpt>
      <trkpt lat="48.45339" lon="7.12727">
        <ele>599</ele>
        <time>2019-05-15T12:10:40.082Z</time>
      </trkpt>
      <trkpt lat="48.45339" lon="7.12729">
        <ele>598</ele>
        <time>2019-05-15T12:10:41.082Z</time>
      </trkpt>
      <trkpt lat="48.45339" lon="7.1273">
        <ele>598</ele>
        <time>2019-05-15T12:10:42.082Z</time>
      </trkpt>
      <trkpt lat="48.4534" lon="7.12731">
        <ele>598</ele>
        <time>2019-05-15T12:10:43.082Z</time>
      </trkpt>
      <trkpt lat="48.4534" lon="7.12733">
        <ele>597</ele>
        <time>2019-05-15T12:10:44.082Z</time>
      </trkpt>
      <trkpt lat="48.4534" lon="7.12734">
        <ele>596</ele>
        <time>2019-05-15T12:10:45.082Z</time>
      </trkpt>
      <trkpt lat="48.4534" lon="7.12736">
        <ele>596</ele>
        <time>2019-05-15T12:10:46.082Z</time>
      </trkpt>
      <trkpt lat="48.45341" lon="7.12737">
        <ele>595</ele>
        <time>2019-05-15T12:10:47.082Z</time>
      </trkpt>
      <trkpt lat="48.45341" lon="7.12738">
        <ele>595</ele>
        <time>2019-05-15T12:10:48.082Z</time>
      </trkpt>
      <trkpt lat="48.45341" lon="7.12739">
        <ele>594</ele>
        <time>2019-05-15T12:10:49.082Z</time>
      </trkpt>
      <trkpt lat="48.45341" lon="7.12741">
        <ele>594</ele>
        <time>2019-05-15T12:10:50.082Z</time>
      </trkpt>
      <trkpt lat="48.45342" lon="7.12742">
        <ele>594</ele>
        <time>2019-05-15T12:10:51.082Z</time>
      </trkpt>
      <trkpt lat="48.45342" lon="7.12744">
        <ele>594</ele>
        <time>2019-05-15T12:10:52.082Z</time>
      </trkpt>
      <trkpt lat="48.45342" lon="7.12745">
        <ele>594</ele>
        <time>2019-05-15T12:10:53.082Z</time>
      </trkpt>
      <trkpt lat="48.45343" lon="7.12746">
        <ele>594</ele>
        <time>2019-05-15T12:10:54.082Z</time>
      </trkpt>
      <trkpt lat="48.45343" lon="7.12748">
        <ele>594</ele>
        <time>2019-05-15T12:10:55.082Z</time>
      </trkpt>
      <trkpt lat="48.45343" lon="7.12749">
        <ele>593</ele>
        <time>2019-05-15T12:10:56.082Z</time>
      </trkpt>
      <trkpt lat="48.45343" lon="7.12751">
        <ele>593</ele>
        <time>2019-05-15T12:10:57.082Z</time>
      </trkpt>
      <trkpt lat="48.45344" lon="7.12752">
        <ele>593</ele>
        <time>2019-05-15T12:10:58.082Z</time>
      </trkpt>
      <trkpt lat="48.45344" lon="7.12754">
        <ele>593</ele>
        <time>2019-05-15T12:10:59.082Z</time>
      </trkpt>
      <trkpt lat="48.45345" lon="7.12755">
        <ele>592</ele>
        <time>2019-05-15T12:11:00.082Z</time>
      </trkpt>
      <trkpt lat="48.45345" lon="7.12757">
        <ele>593</ele>
        <time>2019-05-15T12:11:01.082Z</time>
      </trkpt>
      <trkpt lat="48.45345" lon="7.12758">
        <ele>593</ele>
        <time>2019-05-15T12:11:02.082Z</time>
      </trkpt>
      <trkpt lat="48.45346" lon="7.12759">
        <ele>592</ele>
        <time>2019-05-15T12:11:03.082Z</time>
      </trkpt>
      <trkpt lat="48.45346" lon="7.1276">
        <ele>592</ele>
        <time>2019-05-15T12:11:04.082Z</time>
      </trkpt>
      <trkpt lat="48.45347" lon="7.12762">
        <ele>592</ele>
        <time>2019-05-15T12:11:05.082Z</time>
      </trkpt>
      <trkpt lat="48.45347" lon="7.12763">
        <ele>592</ele>
        <time>2019-05-15T12:11:06.082Z</time>
      </trkpt>
      <trkpt lat="48.45347" lon="7.12764">
        <ele>592</ele>
        <time>2019-05-15T12:11:07.082Z</time>
      </trkpt>
      <trkpt lat="48.45348" lon="7.12766">
        <ele>591</ele>
        <time>2019-05-15T12:11:08.082Z</time>
      </trkpt>
      <trkpt lat="48.45348" lon="7.12767">
        <ele>591</ele>
        <time>2019-05-15T12:11:09.082Z</time>
      </trkpt>
      <trkpt lat="48.45349" lon="7.12768">
        <ele>591</ele>
        <time>2019-05-15T12:11:10.082Z</time>
      </trkpt>
      <trkpt lat="48.45349" lon="7.12769">
        <ele>590</ele>
        <time>2019-05-15T12:11:11.082Z</time>
      </trkpt>
      <trkpt lat="48.4535" lon="7.1277">
        <ele>590</ele>
        <time>2019-05-15T12:11:12.082Z</time>
      </trkpt>
      <trkpt lat="48.45351" lon="7.12771">
        <ele>590</ele>
        <time>2019-05-15T12:11:13.082Z</time>
      </trkpt>
      <trkpt lat="48.45351" lon="7.12772">
        <ele>590</ele>
        <time>2019-05-15T12:11:14.082Z</time>
      </trkpt>
      <trkpt lat="48.45351" lon="7.12773">
        <ele>590</ele>
        <time>2019-05-15T12:11:15.082Z</time>
      </trkpt>
      <trkpt lat="48.45352" lon="7.12774">
        <ele>590</ele>
        <time>2019-05-15T12:11:16.082Z</time>
      </trkpt>
      <trkpt lat="48.45352" lon="7.12776">
        <ele>590</ele>
        <time>2019-05-15T12:11:17.082Z</time>
      </trkpt>
      <trkpt lat="48.45352" lon="7.12777">
        <ele>590</ele>
        <time>2019-05-15T12:11:18.082Z</time>
      </trkpt>
      <trkpt lat="48.45353" lon="7.12778">
        <ele>589</ele>
        <time>2019-05-15T12:11:19.082Z</time>
      </trkpt>
      <trkpt lat="48.45353" lon="7.12779">
        <ele>589</ele>
        <time>2019-05-15T12:11:20.082Z</time>
      </trkpt>
      <trkpt lat="48.45354" lon="7.1278">
        <ele>589</ele>
        <time>2019-05-15T12:11:21.082Z</time>
      </trkpt>
      <trkpt lat="48.45354" lon="7.12781">
        <ele>589</ele>
        <time>2019-05-15T12:11:22.082Z</time>
      </trkpt>
      <trkpt lat="48.45355" lon="7.12782">
        <ele>588</ele>
        <time>2019-05-15T12:11:23.082Z</time>
      </trkpt>
      <trkpt lat="48.45355" lon="7.12783">
        <ele>588</ele>
        <time>2019-05-15T12:11:24.082Z</time>
      </trkpt>
      <trkpt lat="48.45355" lon="7.12784">
        <ele>588</ele>
        <time>2019-05-15T12:11:25.082Z</time>
      </trkpt>
      <trkpt lat="48.45356" lon="7.12784">
        <ele>588</ele>
        <time>2019-05-15T12:11:26.082Z</time>
      </trkpt>
      <trkpt lat="48.45356" lon="7.12785">
        <ele>588</ele>
        <time>2019-05-15T12:11:27.082Z</time>
      </trkpt>
      <trkpt lat="48.45356" lon="7.12786">
        <ele>587</ele>
        <time>2019-05-15T12:11:28.082Z</time>
      </trkpt>
      <trkpt lat="48.45357" lon="7.12786">
        <ele>587</ele>
        <time>2019-05-15T12:11:29.082Z</time>
      </trkpt>
      <trkpt lat="48.45357" lon="7.12787">
        <ele>587</ele>
        <time>2019-05-15T12:11:30.082Z</time>
      </trkpt>
      <trkpt lat="48.45358" lon="7.12788">
        <ele>586</ele>
        <time>2019-05-15T12:11:31.082Z</time>
      </trkpt>
      <trkpt lat="48.45358" lon="7.12789">
        <ele>586</ele>
        <time>2019-05-15T12:11:32.082Z</time>
      </trkpt>
      <trkpt lat="48.45359" lon="7.1279">
        <ele>585</ele>
        <time>2019-05-15T12:11:33.082Z</time>
      </trkpt>
      <trkpt lat="48.45359" lon="7.12791">
        <ele>586</ele>
        <time>2019-05-15T12:11:34.082Z</time>
      </trkpt>
      <trkpt lat="48.4536" lon="7.12792">
        <ele>586</ele>
        <time>2019-05-15T12:11:35.082Z</time>
      </trkpt>
      <trkpt lat="48.4536" lon="7.12793">
        <ele>585</ele>
        <time>2019-05-15T12:11:36.082Z</time>
      </trkpt>
      <trkpt lat="48.45361" lon="7.12794">
        <ele>585</ele>
        <time>2019-05-15T12:11:37.082Z</time>
      </trkpt>
      <trkpt lat="48.45361" lon="7.12795">
        <ele>585</ele>
        <time>2019-05-15T12:11:38.082Z</time>
      </trkpt>
      <trkpt lat="48.45361" lon="7.12795">
        <ele>585</ele>
        <time>2019-05-15T12:11:39.082Z</time>
      </trkpt>
      <trkpt lat="48.45362" lon="7.12796">
        <ele>585</ele>
        <time>2019-05-15T12:11:40.082Z</time>
      </trkpt>
      <trkpt lat="48.45362" lon="7.12796">
        <ele>584</ele>
        <time>2019-05-15T12:11:41.082Z</time>
      </trkpt>
      <trkpt lat="48.45363" lon="7.12797">
        <ele>584</ele>
        <time>2019-05-15T12:11:42.082Z</time>
      </trkpt>
      <trkpt lat="48.45364" lon="7.12797">
        <ele>584</ele>
        <time>2019-05-15T12:11:43.082Z</time>
      </trkpt>
      <trkpt lat="48.45364" lon="7.12798">
        <ele>584</ele>
        <time>2019-05-15T12:11:44.082Z</time>
      </trkpt>
      <trkpt lat="48.45364" lon="7.12799">
        <ele>584</ele>
        <time>2019-05-15T12:11:45.082Z</time>
      </trkpt>
      <trkpt lat="48.45364" lon="7.128">
        <ele>584</ele>
        <time>2019-05-15T12:11:46.082Z</time>
      </trkpt>
      <trkpt lat="48.45365" lon="7.12801">
        <ele>583</ele>
        <time>2019-05-15T12:11:47.082Z</time>
      </trkpt>
      <trkpt lat="48.45365" lon="7.12801">
        <ele>583</ele>
        <time>2019-05-15T12:11:48.082Z</time>
      </trkpt>
      <trkpt lat="48.45365" lon="7.12802">
        <ele>584</ele>
        <time>2019-05-15T12:11:49.082Z</time>
      </trkpt>
      <trkpt lat="48.45365" lon="7.12803">
        <ele>584</ele>
        <time>2019-05-15T12:11:50.082Z</time>
      </trkpt>
      <trkpt lat="48.45365" lon="7.12804">
        <ele>584</ele>
        <time>2019-05-15T12:11:51.082Z</time>
      </trkpt>
      <trkpt lat="48.45366" lon="7.12804">
        <ele>584</ele>
        <time>2019-05-15T12:11:52.082Z</time>
      </trkpt>
      <trkpt lat="48.45366" lon="7.12805">
        <ele>584</ele>
        <time>2019-05-15T12:11:53.082Z</time>
      </trkpt>
      <trkpt lat="48.45367" lon="7.12806">
        <ele>583</ele>
        <time>2019-05-15T12:11:54.082Z</time>
      </trkpt>
      <trkpt lat="48.45367" lon="7.12807">
        <ele>583</ele>
        <time>2019-05-15T12:11:55.082Z</time>
      </trkpt>
      <trkpt lat="48.45368" lon="7.12808">
        <ele>583</ele>
        <time>2019-05-15T12:11:56.082Z</time>
      </trkpt>
      <trkpt lat="48.45368" lon="7.12809">
        <ele>582</ele>
        <time>2019-05-15T12:11:57.082Z</time>
      </trkpt>
      <trkpt lat="48.45368" lon="7.12809">
        <ele>582</ele>
        <time>2019-05-15T12:11:58.082Z</time>
      </trkpt>
      <trkpt lat="48.45368" lon="7.1281">
        <ele>582</ele>
        <time>2019-05-15T12:11:59.082Z</time>
      </trkpt>
      <trkpt lat="48.45369" lon="7.1281">
        <ele>581</ele>
        <time>2019-05-15T12:12:00.082Z</time>
      </trkpt>
      <trkpt lat="48.45369" lon="7.12811">
        <ele>581</ele>
        <time>2019-05-15T12:12:01.082Z</time>
      </trkpt>
      <trkpt lat="48.45369" lon="7.12811">
        <ele>581</ele>
        <time>2019-05-15T12:12:02.082Z</time>
      </trkpt>
      <trkpt lat="48.45369" lon="7.12812">
        <ele>581</ele>
        <time>2019-05-15T12:12:03.082Z</time>
      </trkpt>
      <trkpt lat="48.45369" lon="7.12813">
        <ele>581</ele>
        <time>2019-05-15T12:12:04.082Z</time>
      </trkpt>
      <trkpt lat="48.45369" lon="7.12814">
        <ele>581</ele>
        <time>2019-05-15T12:12:05.082Z</time>
      </trkpt>
      <trkpt lat="48.45369" lon="7.12814">
        <ele>581</ele>
        <time>2019-05-15T12:12:06.082Z</time>
      </trkpt>
      <trkpt lat="48.45369" lon="7.12815">
        <ele>581</ele>
        <time>2019-05-15T12:12:07.082Z</time>
      </trkpt>
      <trkpt lat="48.4537" lon="7.12816">
        <ele>581</ele>
        <time>2019-05-15T12:12:08.082Z</time>
      </trkpt>
      <trkpt lat="48.4537" lon="7.12817">
        <ele>581</ele>
        <time>2019-05-15T12:12:09.082Z</time>
      </trkpt>
      <trkpt lat="48.4537" lon="7.12818">
        <ele>581</ele>
        <time>2019-05-15T12:12:10.082Z</time>
      </trkpt>
      <trkpt lat="48.4537" lon="7.12818">
        <ele>581</ele>
        <time>2019-05-15T12:12:11.082Z</time>
      </trkpt>
      <trkpt lat="48.45371" lon="7.12819">
        <ele>580</ele>
        <time>2019-05-15T12:12:12.082Z</time>
      </trkpt>
      <trkpt lat="48.45371" lon="7.1282">
        <ele>580</ele>
        <time>2019-05-15T12:12:13.082Z</time>
      </trkpt>
      <trkpt lat="48.45371" lon="7.12822">
        <ele>581</ele>
        <time>2019-05-15T12:12:14.082Z</time>
      </trkpt>
      <trkpt lat="48.45371" lon="7.12823">
        <ele>580</ele>
        <time>2019-05-15T12:12:15.082Z</time>
      </trkpt>
      <trkpt lat="48.45371" lon="7.12824">
        <ele>580</ele>
        <time>2019-05-15T12:12:16.082Z</time>
      </trkpt>
      <trkpt lat="48.45371" lon="7.12825">
        <ele>580</ele>
        <time>2019-05-15T12:12:17.082Z</time>
      </trkpt>
      <trkpt lat="48.45371" lon="7.12826">
        <ele>580</ele>
        <time>2019-05-15T12:12:18.082Z</time>
      </trkpt>
      <trkpt lat="48.45371" lon="7.12826">
        <ele>580</ele>
        <time>2019-05-15T12:12:19.082Z</time>
      </trkpt>
      <trkpt lat="48.45372" lon="7.12827">
        <ele>579</ele>
        <time>2019-05-15T12:12:20.082Z</time>
      </trkpt>
      <trkpt lat="48.45372" lon="7.12828">
        <ele>579</ele>
        <time>2019-05-15T12:12:21.082Z</time>
      </trkpt>
      <trkpt lat="48.45373" lon="7.12829">
        <ele>580</ele>
        <time>2019-05-15T12:12:22.082Z</time>
      </trkpt>
      <trkpt lat="48.45373" lon="7.12829">
        <ele>580</ele>
        <time>2019-05-15T12:12:23.082Z</time>
      </trkpt>
      <trkpt lat="48.45373" lon="7.12831">
        <ele>580</ele>
        <time>2019-05-15T12:12:24.082Z</time>
      </trkpt>
      <trkpt lat="48.45373" lon="7.12833">
        <ele>581</ele>
        <time>2019-05-15T12:12:25.082Z</time>
      </trkpt>
      <trkpt lat="48.45373" lon="7.12834">
        <ele>580</ele>
        <time>2019-05-15T12:12:26.082Z</time>
      </trkpt>
      <trkpt lat="48.45373" lon="7.12835">
        <ele>580</ele>
        <time>2019-05-15T12:12:27.082Z</time>
      </trkpt>
      <trkpt lat="48.45374" lon="7.12835">
        <ele>580</ele>
        <time>2019-05-15T12:12:28.082Z</time>
      </trkpt>
      <trkpt lat="48.45374" lon="7.12836">
        <ele>580</ele>
        <time>2019-05-15T12:12:29.082Z</time>
      </trkpt>
      <trkpt lat="48.45374" lon="7.12837">
        <ele>580</ele>
        <time>2019-05-15T12:12:30.082Z</time>
      </trkpt>
      <trkpt lat="48.45373" lon="7.12838">
        <ele>580</ele>
        <time>2019-05-15T12:12:31.082Z</time>
      </trkpt>
      <trkpt lat="48.45373" lon="7.12839">
        <ele>581</ele>
        <time>2019-05-15T12:12:32.082Z</time>
      </trkpt>
      <trkpt lat="48.45373" lon="7.1284">
        <ele>581</ele>
        <time>2019-05-15T12:12:33.082Z</time>
      </trkpt>
      <trkpt lat="48.45374" lon="7.12841">
        <ele>581</ele>
        <time>2019-05-15T12:12:34.082Z</time>
      </trkpt>
      <trkpt lat="48.45374" lon="7.12842">
        <ele>581</ele>
        <time>2019-05-15T12:12:35.082Z</time>
      </trkpt>
      <trkpt lat="48.45374" lon="7.12843">
        <ele>582</ele>
        <time>2019-05-15T12:12:36.082Z</time>
      </trkpt>
      <trkpt lat="48.45374" lon="7.12844">
        <ele>581</ele>
        <time>2019-05-15T12:12:37.082Z</time>
      </trkpt>
      <trkpt lat="48.45374" lon="7.12846">
        <ele>581</ele>
        <time>2019-05-15T12:12:38.082Z</time>
      </trkpt>
      <trkpt lat="48.45375" lon="7.12847">
        <ele>580</ele>
        <time>2019-05-15T12:12:39.082Z</time>
      </trkpt>
      <trkpt lat="48.45375" lon="7.12849">
        <ele>579</ele>
        <time>2019-05-15T12:12:40.082Z</time>
      </trkpt>
      <trkpt lat="48.45375" lon="7.1285">
        <ele>580</ele>
        <time>2019-05-15T12:12:41.082Z</time>
      </trkpt>
      <trkpt lat="48.45375" lon="7.12851">
        <ele>580</ele>
        <time>2019-05-15T12:12:42.082Z</time>
      </trkpt>
      <trkpt lat="48.45375" lon="7.12851">
        <ele>579</ele>
        <time>2019-05-15T12:12:43.082Z</time>
      </trkpt>
      <trkpt lat="48.45375" lon="7.12852">
        <ele>579</ele>
        <time>2019-05-15T12:12:44.082Z</time>
      </trkpt>
      <trkpt lat="48.45375" lon="7.12853">
        <ele>579</ele>
        <time>2019-05-15T12:12:45.082Z</time>
      </trkpt>
      <trkpt lat="48.45376" lon="7.12854">
        <ele>579</ele>
        <time>2019-05-15T12:12:46.082Z</time>
      </trkpt>
      <trkpt lat="48.45376" lon="7.12855">
        <ele>579</ele>
        <time>2019-05-15T12:12:47.082Z</time>
      </trkpt>
      <trkpt lat="48.45377" lon="7.12855">
        <ele>580</ele>
        <time>2019-05-15T12:12:48.082Z</time>
      </trkpt>
      <trkpt lat="48.45377" lon="7.12856">
        <ele>579</ele>
        <time>2019-05-15T12:12:49.082Z</time>
      </trkpt>
      <trkpt lat="48.45378" lon="7.12857">
        <ele>579</ele>
        <time>2019-05-15T12:12:50.082Z</time>
      </trkpt>
      <trkpt lat="48.45378" lon="7.12857">
        <ele>579</ele>
        <time>2019-05-15T12:12:51.082Z</time>
      </trkpt>
      <trkpt lat="48.45379" lon="7.12859">
        <ele>579</ele>
        <time>2019-05-15T12:12:52.082Z</time>
      </trkpt>
      <trkpt lat="48.45379" lon="7.1286">
        <ele>578</ele>
        <time>2019-05-15T12:12:53.082Z</time>
      </trkpt>
      <trkpt lat="48.4538" lon="7.12861">
        <ele>578</ele>
        <time>2019-05-15T12:12:54.082Z</time>
      </trkpt>
      <trkpt lat="48.4538" lon="7.12861">
        <ele>578</ele>
        <time>2019-05-15T12:12:55.082Z</time>
      </trkpt>
      <trkpt lat="48.4538" lon="7.12862">
        <ele>578</ele>
        <time>2019-05-15T12:12:56.082Z</time>
      </trkpt>
      <trkpt lat="48.45381" lon="7.12863">
        <ele>577</ele>
        <time>2019-05-15T12:12:57.082Z</time>
      </trkpt>
      <trkpt lat="48.45381" lon="7.12864">
        <ele>576</ele>
        <time>2019-05-15T12:12:58.082Z</time>
      </trkpt>
      <trkpt lat="48.45381" lon="7.12865">
        <ele>575</ele>
        <time>2019-05-15T12:12:59.082Z</time>
      </trkpt>
      <trkpt lat="48.45381" lon="7.12866">
        <ele>575</ele>
        <time>2019-05-15T12:13:00.082Z</time>
      </trkpt>
      <trkpt lat="48.45381" lon="7.12867">
        <ele>574</ele>
        <time>2019-05-15T12:13:01.082Z</time>
      </trkpt>
      <trkpt lat="48.45382" lon="7.12868">
        <ele>574</ele>
        <time>2019-05-15T12:13:02.082Z</time>
      </trkpt>
      <trkpt lat="48.45382" lon="7.12869">
        <ele>573</ele>
        <time>2019-05-15T12:13:03.082Z</time>
      </trkpt>
      <trkpt lat="48.45383" lon="7.1287">
        <ele>573</ele>
        <time>2019-05-15T12:13:04.082Z</time>
      </trkpt>
      <trkpt lat="48.45383" lon="7.1287">
        <ele>573</ele>
        <time>2019-05-15T12:13:05.082Z</time>
      </trkpt>
      <trkpt lat="48.45384" lon="7.12871">
        <ele>572</ele>
        <time>2019-05-15T12:13:06.082Z</time>
      </trkpt>
      <trkpt lat="48.45384" lon="7.12872">
        <ele>572</ele>
        <time>2019-05-15T12:13:07.082Z</time>
      </trkpt>
      <trkpt lat="48.45385" lon="7.12873">
        <ele>571</ele>
        <time>2019-05-15T12:13:08.082Z</time>
      </trkpt>
      <trkpt lat="48.45385" lon="7.12874">
        <ele>571</ele>
        <time>2019-05-15T12:13:09.082Z</time>
      </trkpt>
      <trkpt lat="48.45386" lon="7.12875">
        <ele>571</ele>
        <time>2019-05-15T12:13:10.082Z</time>
      </trkpt>
      <trkpt lat="48.45386" lon="7.12876">
        <ele>571</ele>
        <time>2019-05-15T12:13:11.082Z</time>
      </trkpt>
      <trkpt lat="48.45387" lon="7.12877">
        <ele>571</ele>
        <time>2019-05-15T12:13:12.082Z</time>
      </trkpt>
      <trkpt lat="48.45387" lon="7.12879">
        <ele>571</ele>
        <time>2019-05-15T12:13:13.082Z</time>
      </trkpt>
      <trkpt lat="48.45388" lon="7.1288">
        <ele>570</ele>
        <time>2019-05-15T12:13:14.082Z</time>
      </trkpt>
      <trkpt lat="48.45388" lon="7.12882">
        <ele>571</ele>
        <time>2019-05-15T12:13:15.082Z</time>
      </trkpt>
      <trkpt lat="48.45389" lon="7.12883">
        <ele>571</ele>
        <time>2019-05-15T12:13:16.082Z</time>
      </trkpt>
      <trkpt lat="48.45389" lon="7.12884">
        <ele>570</ele>
        <time>2019-05-15T12:13:17.082Z</time>
      </trkpt>
      <trkpt lat="48.4539" lon="7.12885">
        <ele>570</ele>
        <time>2019-05-15T12:13:18.082Z</time>
      </trkpt>
      <trkpt lat="48.4539" lon="7.12886">
        <ele>569</ele>
        <time>2019-05-15T12:13:19.082Z</time>
      </trkpt>
      <trkpt lat="48.45391" lon="7.12887">
        <ele>570</ele>
        <time>2019-05-15T12:13:20.082Z</time>
      </trkpt>
      <trkpt lat="48.45391" lon="7.12889">
        <ele>570</ele>
        <time>2019-05-15T12:13:21.082Z</time>
      </trkpt>
      <trkpt lat="48.45392" lon="7.1289">
        <ele>570</ele>
        <time>2019-05-15T12:13:22.082Z</time>
      </trkpt>
      <trkpt lat="48.45392" lon="7.12892">
        <ele>569</ele>
        <time>2019-05-15T12:13:23.082Z</time>
      </trkpt>
      <trkpt lat="48.45392" lon="7.12893">
        <ele>568</ele>
        <time>2019-05-15T12:13:24.082Z</time>
      </trkpt>
      <trkpt lat="48.45393" lon="7.12894">
        <ele>568</ele>
        <time>2019-05-15T12:13:25.082Z</time>
      </trkpt>
      <trkpt lat="48.45393" lon="7.12895">
        <ele>568</ele>
        <time>2019-05-15T12:13:26.082Z</time>
      </trkpt>
      <trkpt lat="48.45393" lon="7.12897">
        <ele>567</ele>
        <time>2019-05-15T12:13:27.082Z</time>
      </trkpt>
      <trkpt lat="48.45394" lon="7.12898">
        <ele>568</ele>
        <time>2019-05-15T12:13:28.082Z</time>
      </trkpt>
      <trkpt lat="48.45394" lon="7.12899">
        <ele>568</ele>
        <time>2019-05-15T12:13:29.082Z</time>
      </trkpt>
      <trkpt lat="48.45395" lon="7.129">
        <ele>567</ele>
        <time>2019-05-15T12:13:30.082Z</time>
      </trkpt>
      <trkpt lat="48.45395" lon="7.12901">
        <ele>567</ele>
        <time>2019-05-15T12:13:31.082Z</time>
      </trkpt>
      <trkpt lat="48.45395" lon="7.12902">
        <ele>567</ele>
        <time>2019-05-15T12:13:32.082Z</time>
      </trkpt>
      <trkpt lat="48.45395" lon="7.12902">
        <ele>567</ele>
        <time>2019-05-15T12:13:33.082Z</time>
      </trkpt>
      <trkpt lat="48.45396" lon="7.12903">
        <ele>567</ele>
        <time>2019-05-15T12:13:34.082Z</time>
      </trkpt>
      <trkpt lat="48.45396" lon="7.12904">
        <ele>567</ele>
        <time>2019-05-15T12:13:35.082Z</time>
      </trkpt>
      <trkpt lat="48.45396" lon="7.12905">
        <ele>567</ele>
        <time>2019-05-15T12:13:36.082Z</time>
      </trkpt>
      <trkpt lat="48.45397" lon="7.12906">
        <ele>567</ele>
        <time>2019-05-15T12:13:37.082Z</time>
      </trkpt>
      <trkpt lat="48.45397" lon="7.12907">
        <ele>567</ele>
        <time>2019-05-15T12:13:38.082Z</time>
      </trkpt>
      <trkpt lat="48.45397" lon="7.12909">
        <ele>565</ele>
        <time>2019-05-15T12:13:39.082Z</time>
      </trkpt>
      <trkpt lat="48.45397" lon="7.1291">
        <ele>564</ele>
        <time>2019-05-15T12:13:40.082Z</time>
      </trkpt>
      <trkpt lat="48.45397" lon="7.12911">
        <ele>564</ele>
        <time>2019-05-15T12:13:41.082Z</time>
      </trkpt>
      <trkpt lat="48.45397" lon="7.12912">
        <ele>563</ele>
        <time>2019-05-15T12:13:42.082Z</time>
      </trkpt>
      <trkpt lat="48.45397" lon="7.12914">
        <ele>563</ele>
        <time>2019-05-15T12:13:43.082Z</time>
      </trkpt>
      <trkpt lat="48.45398" lon="7.12915">
        <ele>563</ele>
        <time>2019-05-15T12:13:44.082Z</time>
      </trkpt>
      <trkpt lat="48.45398" lon="7.12916">
        <ele>564</ele>
        <time>2019-05-15T12:13:45.082Z</time>
      </trkpt>
      <trkpt lat="48.45398" lon="7.12917">
        <ele>563</ele>
        <time>2019-05-15T12:13:46.082Z</time>
      </trkpt>
      <trkpt lat="48.45398" lon="7.12919">
        <ele>562</ele>
        <time>2019-05-15T12:13:47.082Z</time>
      </trkpt>
      <trkpt lat="48.45398" lon="7.1292">
        <ele>562</ele>
        <time>2019-05-15T12:13:48.082Z</time>
      </trkpt>
      <trkpt lat="48.45398" lon="7.12921">
        <ele>562</ele>
        <time>2019-05-15T12:13:49.082Z</time>
      </trkpt>
      <trkpt lat="48.45398" lon="7.12923">
        <ele>561</ele>
        <time>2019-05-15T12:13:50.082Z</time>
      </trkpt>
      <trkpt lat="48.45399" lon="7.12924">
        <ele>561</ele>
        <time>2019-05-15T12:13:51.082Z</time>
      </trkpt>
      <trkpt lat="48.45399" lon="7.12926">
        <ele>561</ele>
        <time>2019-05-15T12:13:52.082Z</time>
      </trkpt>
      <trkpt lat="48.454" lon="7.12927">
        <ele>561</ele>
        <time>2019-05-15T12:13:53.082Z</time>
      </trkpt>
      <trkpt lat="48.454" lon="7.12928">
        <ele>560</ele>
        <time>2019-05-15T12:13:54.082Z</time>
      </trkpt>
      <trkpt lat="48.45401" lon="7.12929">
        <ele>559</ele>
        <time>2019-05-15T12:13:55.082Z</time>
      </trkpt>
      <trkpt lat="48.45402" lon="7.1293">
        <ele>559</ele>
        <time>2019-05-15T12:13:56.082Z</time>
      </trkpt>
      <trkpt lat="48.45402" lon="7.12931">
        <ele>558</ele>
        <time>2019-05-15T12:13:57.082Z</time>
      </trkpt>
      <trkpt lat="48.45403" lon="7.12933">
        <ele>557</ele>
        <time>2019-05-15T12:13:58.082Z</time>
      </trkpt>
      <trkpt lat="48.45403" lon="7.12934">
        <ele>557</ele>
        <time>2019-05-15T12:13:59.082Z</time>
      </trkpt>
      <trkpt lat="48.45403" lon="7.12936">
        <ele>556</ele>
        <time>2019-05-15T12:14:00.082Z</time>
      </trkpt>
      <trkpt lat="48.45402" lon="7.12938">
        <ele>556</ele>
        <time>2019-05-15T12:14:01.082Z</time>
      </trkpt>
      <trkpt lat="48.45402" lon="7.12939">
        <ele>556</ele>
        <time>2019-05-15T12:14:02.082Z</time>
      </trkpt>
      <trkpt lat="48.45402" lon="7.12941">
        <ele>556</ele>
        <time>2019-05-15T12:14:03.082Z</time>
      </trkpt>
      <trkpt lat="48.45402" lon="7.12942">
        <ele>556</ele>
        <time>2019-05-15T12:14:04.082Z</time>
      </trkpt>
      <trkpt lat="48.45402" lon="7.12943">
        <ele>556</ele>
        <time>2019-05-15T12:14:05.082Z</time>
      </trkpt>
      <trkpt lat="48.45403" lon="7.12945">
        <ele>556</ele>
        <time>2019-05-15T12:14:06.082Z</time>
      </trkpt>
      <trkpt lat="48.45403" lon="7.12946">
        <ele>557</ele>
        <time>2019-05-15T12:14:07.082Z</time>
      </trkpt>
      <trkpt lat="48.45404" lon="7.12948">
        <ele>557</ele>
        <time>2019-05-15T12:14:08.082Z</time>
      </trkpt>
      <trkpt lat="48.45404" lon="7.12949">
        <ele>558</ele>
        <time>2019-05-15T12:14:09.082Z</time>
      </trkpt>
      <trkpt lat="48.45404" lon="7.12951">
        <ele>557</ele>
        <time>2019-05-15T12:14:10.082Z</time>
      </trkpt>
      <trkpt lat="48.45404" lon="7.12952">
        <ele>557</ele>
        <time>2019-05-15T12:14:11.082Z</time>
      </trkpt>
      <trkpt lat="48.45404" lon="7.12953">
        <ele>557</ele>
        <time>2019-05-15T12:14:12.082Z</time>
      </trkpt>
      <trkpt lat="48.45404" lon="7.12955">
        <ele>556</ele>
        <time>2019-05-15T12:14:13.082Z</time>
      </trkpt>
      <trkpt lat="48.45405" lon="7.12956">
        <ele>556</ele>
        <time>2019-05-15T12:14:14.082Z</time>
      </trkpt>
      <trkpt lat="48.45405" lon="7.12957">
        <ele>556</ele>
        <time>2019-05-15T12:14:15.082Z</time>
      </trkpt>
      <trkpt lat="48.45405" lon="7.12958">
        <ele>556</ele>
        <time>2019-05-15T12:14:16.082Z</time>
      </trkpt>
      <trkpt lat="48.45406" lon="7.12959">
        <ele>556</ele>
        <time>2019-05-15T12:14:17.082Z</time>
      </trkpt>
      <trkpt lat="48.45406" lon="7.12961">
        <ele>556</ele>
        <time>2019-05-15T12:14:18.082Z</time>
      </trkpt>
      <trkpt lat="48.45406" lon="7.12961">
        <ele>556</ele>
        <time>2019-05-15T12:14:19.082Z</time>
      </trkpt>
      <trkpt lat="48.45406" lon="7.12962">
        <ele>555</ele>
        <time>2019-05-15T12:14:20.082Z</time>
      </trkpt>
      <trkpt lat="48.45407" lon="7.12963">
        <ele>555</ele>
        <time>2019-05-15T12:14:21.082Z</time>
      </trkpt>
      <trkpt lat="48.45407" lon="7.12964">
        <ele>556</ele>
        <time>2019-05-15T12:14:22.082Z</time>
      </trkpt>
      <trkpt lat="48.45408" lon="7.12965">
        <ele>555</ele>
        <time>2019-05-15T12:14:23.082Z</time>
      </trkpt>
      <trkpt lat="48.45408" lon="7.12966">
        <ele>555</ele>
        <time>2019-05-15T12:14:24.082Z</time>
      </trkpt>
      <trkpt lat="48.45408" lon="7.12966">
        <ele>556</ele>
        <time>2019-05-15T12:14:25.082Z</time>
      </trkpt>
      <trkpt lat="48.45409" lon="7.12967">
        <ele>556</ele>
        <time>2019-05-15T12:14:26.082Z</time>
      </trkpt>
      <trkpt lat="48.45408" lon="7.12968">
        <ele>556</ele>
        <time>2019-05-15T12:14:27.082Z</time>
      </trkpt>
      <trkpt lat="48.45408" lon="7.12969">
        <ele>557</ele>
        <time>2019-05-15T12:14:28.082Z</time>
      </trkpt>
      <trkpt lat="48.45408" lon="7.1297">
        <ele>556</ele>
        <time>2019-05-15T12:14:29.082Z</time>
      </trkpt>
      <trkpt lat="48.45408" lon="7.12971">
        <ele>557</ele>
        <time>2019-05-15T12:14:30.082Z</time>
      </trkpt>
      <trkpt lat="48.45407" lon="7.12972">
        <ele>557</ele>
        <time>2019-05-15T12:14:31.082Z</time>
      </trkpt>
      <trkpt lat="48.45407" lon="7.12973">
        <ele>557</ele>
        <time>2019-05-15T12:14:32.082Z</time>
      </trkpt>
      <trkpt lat="48.45407" lon="7.12973">
        <ele>557</ele>
        <time>2019-05-15T12:14:33.082Z</time>
      </trkpt>
      <trkpt lat="48.45407" lon="7.12974">
        <ele>557</ele>
        <time>2019-05-15T12:14:34.082Z</time>
      </trkpt>
      <trkpt lat="48.45407" lon="7.12975">
        <ele>557</ele>
        <time>2019-05-15T12:14:35.082Z</time>
      </trkpt>
      <trkpt lat="48.45407" lon="7.12976">
        <ele>557</ele>
        <time>2019-05-15T12:14:36.082Z</time>
      </trkpt>
      <trkpt lat="48.45407" lon="7.12977">
        <ele>557</ele>
        <time>2019-05-15T12:14:37.082Z</time>
      </trkpt>
      <trkpt lat="48.45407" lon="7.12978">
        <ele>556</ele>
        <time>2019-05-15T12:14:38.082Z</time>
      </trkpt>
      <trkpt lat="48.45407" lon="7.12979">
        <ele>557</ele>
        <time>2019-05-15T12:14:39.082Z</time>
      </trkpt>
      <trkpt lat="48.45407" lon="7.1298">
        <ele>557</ele>
        <time>2019-05-15T12:14:40.082Z</time>
      </trkpt>
      <trkpt lat="48.45407" lon="7.12981">
        <ele>557</ele>
        <time>2019-05-15T12:14:41.082Z</time>
      </trkpt>
      <trkpt lat="48.45407" lon="7.12982">
        <ele>558</ele>
        <time>2019-05-15T12:14:42.082Z</time>
      </trkpt>
      <trkpt lat="48.45407" lon="7.12983">
        <ele>558</ele>
        <time>2019-05-15T12:14:43.082Z</time>
      </trkpt>
      <trkpt lat="48.45407" lon="7.12984">
        <ele>559</ele>
        <time>2019-05-15T12:14:44.082Z</time>
      </trkpt>
      <trkpt lat="48.45407" lon="7.12985">
        <ele>559</ele>
        <time>2019-05-15T12:14:45.082Z</time>
      </trkpt>
      <trkpt lat="48.45407" lon="7.12986">
        <ele>560</ele>
        <time>2019-05-15T12:14:46.082Z</time>
      </trkpt>
      <trkpt lat="48.45407" lon="7.12987">
        <ele>560</ele>
        <time>2019-05-15T12:14:47.082Z</time>
      </trkpt>
      <trkpt lat="48.45407" lon="7.12988">
        <ele>562</ele>
        <time>2019-05-15T12:14:48.082Z</time>
      </trkpt>
      <trkpt lat="48.45407" lon="7.12988">
        <ele>564</ele>
        <time>2019-05-15T12:14:49.082Z</time>
      </trkpt>
      <trkpt lat="48.45408" lon="7.12989">
        <ele>566</ele>
        <time>2019-05-15T12:14:50.082Z</time>
      </trkpt>
      <trkpt lat="48.45408" lon="7.1299">
        <ele>567</ele>
        <time>2019-05-15T12:14:51.082Z</time>
      </trkpt>
      <trkpt lat="48.45408" lon="7.12991">
        <ele>568</ele>
        <time>2019-05-15T12:14:52.082Z</time>
      </trkpt>
      <trkpt lat="48.45408" lon="7.12992">
        <ele>569</ele>
        <time>2019-05-15T12:14:53.082Z</time>
      </trkpt>
      <trkpt lat="48.45409" lon="7.12994">
        <ele>571</ele>
        <time>2019-05-15T12:14:54.082Z</time>
      </trkpt>
      <trkpt lat="48.4541" lon="7.12995">
        <ele>573</ele>
        <time>2019-05-15T12:14:55.082Z</time>
      </trkpt>
      <trkpt lat="48.4541" lon="7.12996">
        <ele>575</ele>
        <time>2019-05-15T12:14:56.082Z</time>
      </trkpt>
      <trkpt lat="48.45411" lon="7.12996">
        <ele>578</ele>
        <time>2019-05-15T12:14:57.082Z</time>
      </trkpt>
      <trkpt lat="48.45412" lon="7.12997">
        <ele>579</ele>
        <time>2019-05-15T12:14:58.082Z</time>
      </trkpt>
      <trkpt lat="48.45413" lon="7.12998">
        <ele>582</ele>
        <time>2019-05-15T12:14:59.082Z</time>
      </trkpt>
      <trkpt lat="48.45414" lon="7.12999">
        <ele>585</ele>
        <time>2019-05-15T12:15:00.082Z</time>
      </trkpt>
      <trkpt lat="48.45414" lon="7.13">
        <ele>587</ele>
        <time>2019-05-15T12:15:01.082Z</time>
      </trkpt>
      <trkpt lat="48.45414" lon="7.13002">
        <ele>587</ele>
        <time>2019-05-15T12:15:02.082Z</time>
      </trkpt>
      <trkpt lat="48.45414" lon="7.13004">
        <ele>586</ele>
        <time>2019-05-15T12:15:03.082Z</time>
      </trkpt>
      <trkpt lat="48.45413" lon="7.13006">
        <ele>584</ele>
        <time>2019-05-15T12:15:04.082Z</time>
      </trkpt>
      <trkpt lat="48.45412" lon="7.13008">
        <ele>582</ele>
        <time>2019-05-15T12:15:05.082Z</time>
      </trkpt>
      <trkpt lat="48.45411" lon="7.1301">
        <ele>581</ele>
        <time>2019-05-15T12:15:06.082Z</time>
      </trkpt>
      <trkpt lat="48.45411" lon="7.13011">
        <ele>581</ele>
        <time>2019-05-15T12:15:07.082Z</time>
      </trkpt>
      <trkpt lat="48.4541" lon="7.13012">
        <ele>581</ele>
        <time>2019-05-15T12:15:08.082Z</time>
      </trkpt>
      <trkpt lat="48.4541" lon="7.13013">
        <ele>581</ele>
        <time>2019-05-15T12:15:09.082Z</time>
      </trkpt>
      <trkpt lat="48.4541" lon="7.13015">
        <ele>578</ele>
        <time>2019-05-15T12:15:10.082Z</time>
      </trkpt>
      <trkpt lat="48.4541" lon="7.13016">
        <ele>578</ele>
        <time>2019-05-15T12:15:11.082Z</time>
      </trkpt>
      <trkpt lat="48.4541" lon="7.13017">
        <ele>577</ele>
        <time>2019-05-15T12:15:12.082Z</time>
      </trkpt>
      <trkpt lat="48.4541" lon="7.13018">
        <ele>577</ele>
        <time>2019-05-15T12:15:13.082Z</time>
      </trkpt>
      <trkpt lat="48.45409" lon="7.1302">
        <ele>575</ele>
        <time>2019-05-15T12:15:14.082Z</time>
      </trkpt>
      <trkpt lat="48.45409" lon="7.1302">
        <ele>574</ele>
        <time>2019-05-15T12:15:15.082Z</time>
      </trkpt>
      <trkpt lat="48.45408" lon="7.13021">
        <ele>573</ele>
        <time>2019-05-15T12:15:16.082Z</time>
      </trkpt>
      <trkpt lat="48.45408" lon="7.13022">
        <ele>572</ele>
        <time>2019-05-15T12:15:17.082Z</time>
      </trkpt>
      <trkpt lat="48.45407" lon="7.13022">
        <ele>572</ele>
        <time>2019-05-15T12:15:18.082Z</time>
      </trkpt>
      <trkpt lat="48.45406" lon="7.13023">
        <ele>571</ele>
        <time>2019-05-15T12:15:19.082Z</time>
      </trkpt>
      <trkpt lat="48.45406" lon="7.13023">
        <ele>570</ele>
        <time>2019-05-15T12:15:20.082Z</time>
      </trkpt>
      <trkpt lat="48.45406" lon="7.13023">
        <ele>570</ele>
        <time>2019-05-15T12:15:21.082Z</time>
      </trkpt>
      <trkpt lat="48.45405" lon="7.13023">
        <ele>569</ele>
        <time>2019-05-15T12:15:22.082Z</time>
      </trkpt>
      <trkpt lat="48.45405" lon="7.13024">
        <ele>568</ele>
        <time>2019-05-15T12:15:23.082Z</time>
      </trkpt>
      <trkpt lat="48.45405" lon="7.13025">
        <ele>569</ele>
        <time>2019-05-15T12:15:24.082Z</time>
      </trkpt>
      <trkpt lat="48.45404" lon="7.13025">
        <ele>568</ele>
        <time>2019-05-15T12:15:25.082Z</time>
      </trkpt>
      <trkpt lat="48.45404" lon="7.13026">
        <ele>568</ele>
        <time>2019-05-15T12:15:26.082Z</time>
      </trkpt>
      <trkpt lat="48.45403" lon="7.13026">
        <ele>568</ele>
        <time>2019-05-15T12:15:27.082Z</time>
      </trkpt>
      <trkpt lat="48.45403" lon="7.13026">
        <ele>567</ele>
        <time>2019-05-15T12:15:28.082Z</time>
      </trkpt>
      <trkpt lat="48.45402" lon="7.13027">
        <ele>566</ele>
        <time>2019-05-15T12:15:29.082Z</time>
      </trkpt>
      <trkpt lat="48.45402" lon="7.13027">
        <ele>565</ele>
        <time>2019-05-15T12:15:30.082Z</time>
      </trkpt>
      <trkpt lat="48.45402" lon="7.13027">
        <ele>564</ele>
        <time>2019-05-15T12:15:31.082Z</time>
      </trkpt>
      <trkpt lat="48.45402" lon="7.13027">
        <ele>563</ele>
        <time>2019-05-15T12:15:32.082Z</time>
      </trkpt>
      <trkpt lat="48.45402" lon="7.13027">
        <ele>563</ele>
        <time>2019-05-15T12:15:33.082Z</time>
      </trkpt>
      <trkpt lat="48.45402" lon="7.13028">
        <ele>563</ele>
        <time>2019-05-15T12:15:34.082Z</time>
      </trkpt>
      <trkpt lat="48.45402" lon="7.13028">
        <ele>563</ele>
        <time>2019-05-15T12:15:35.082Z</time>
      </trkpt>
      <trkpt lat="48.45402" lon="7.13028">
        <ele>562</ele>
        <time>2019-05-15T12:15:36.082Z</time>
      </trkpt>
      <trkpt lat="48.45403" lon="7.13029">
        <ele>562</ele>
        <time>2019-05-15T12:15:37.082Z</time>
      </trkpt>
      <trkpt lat="48.45403" lon="7.13029">
        <ele>562</ele>
        <time>2019-05-15T12:15:38.082Z</time>
      </trkpt>
      <trkpt lat="48.45402" lon="7.13029">
        <ele>562</ele>
        <time>2019-05-15T12:15:39.082Z</time>
      </trkpt>
      <trkpt lat="48.45402" lon="7.13029">
        <ele>563</ele>
        <time>2019-05-15T12:15:40.082Z</time>
      </trkpt>
      <trkpt lat="48.45402" lon="7.13029">
        <ele>563</ele>
        <time>2019-05-15T12:15:41.082Z</time>
      </trkpt>
      <trkpt lat="48.45402" lon="7.13029">
        <ele>563</ele>
        <time>2019-05-15T12:15:42.082Z</time>
      </trkpt>
      <trkpt lat="48.45402" lon="7.13029">
        <ele>564</ele>
        <time>2019-05-15T12:15:43.082Z</time>
      </trkpt>
      <trkpt lat="48.45402" lon="7.13029">
        <ele>563</ele>
        <time>2019-05-15T12:15:44.082Z</time>
      </trkpt>
      <trkpt lat="48.45402" lon="7.13029">
        <ele>562</ele>
        <time>2019-05-15T12:15:45.082Z</time>
      </trkpt>
      <trkpt lat="48.45402" lon="7.13029">
        <ele>562</ele>
        <time>2019-05-15T12:15:46.082Z</time>
      </trkpt>
      <trkpt lat="48.45402" lon="7.13029">
        <ele>562</ele>
        <time>2019-05-15T12:15:47.082Z</time>
      </trkpt>
      <trkpt lat="48.45402" lon="7.13029">
        <ele>562</ele>
        <time>2019-05-15T12:15:48.082Z</time>
      </trkpt>
      <trkpt lat="48.45402" lon="7.13028">
        <ele>562</ele>
        <time>2019-05-15T12:15:49.082Z</time>
      </trkpt>
      <trkpt lat="48.45402" lon="7.13028">
        <ele>562</ele>
        <time>2019-05-15T12:15:50.082Z</time>
      </trkpt>
      <trkpt lat="48.45403" lon="7.13028">
        <ele>561</ele>
        <time>2019-05-15T12:15:51.082Z</time>
      </trkpt>
      <trkpt lat="48.45403" lon="7.13028">
        <ele>561</ele>
        <time>2019-05-15T12:15:52.082Z</time>
      </trkpt>
      <trkpt lat="48.45403" lon="7.13028">
        <ele>562</ele>
        <time>2019-05-15T12:15:53.082Z</time>
      </trkpt>
      <trkpt lat="48.45403" lon="7.13028">
        <ele>562</ele>
        <time>2019-05-15T12:15:54.082Z</time>
      </trkpt>
      <trkpt lat="48.45403" lon="7.13028">
        <ele>562</ele>
        <time>2019-05-15T12:15:55.082Z</time>
      </trkpt>
      <trkpt lat="48.45403" lon="7.13028">
        <ele>563</ele>
        <time>2019-05-15T12:15:56.082Z</time>
      </trkpt>
      <trkpt lat="48.45403" lon="7.13028">
        <ele>563</ele>
        <time>2019-05-15T12:15:57.082Z</time>
      </trkpt>
      <trkpt lat="48.45403" lon="7.13028">
        <ele>562</ele>
        <time>2019-05-15T12:15:58.082Z</time>
      </trkpt>
      <trkpt lat="48.45403" lon="7.13028">
        <ele>562</ele>
        <time>2019-05-15T12:15:59.082Z</time>
      </trkpt>
      <trkpt lat="48.45404" lon="7.13028">
        <ele>562</ele>
        <time>2019-05-15T12:16:00.082Z</time>
      </trkpt>
      <trkpt lat="48.45403" lon="7.13028">
        <ele>561</ele>
        <time>2019-05-15T12:16:01.082Z</time>
      </trkpt>
      <trkpt lat="48.45403" lon="7.13029">
        <ele>561</ele>
        <time>2019-05-15T12:16:02.082Z</time>
      </trkpt>
      <trkpt lat="48.45403" lon="7.13029">
        <ele>561</ele>
        <time>2019-05-15T12:16:03.082Z</time>
      </trkpt>
      <trkpt lat="48.45402" lon="7.13029">
        <ele>561</ele>
        <time>2019-05-15T12:16:04.082Z</time>
      </trkpt>
      <trkpt lat="48.45402" lon="7.13029">
        <ele>560</ele>
        <time>2019-05-15T12:16:05.082Z</time>
      </trkpt>
      <trkpt lat="48.45403" lon="7.13029">
        <ele>559</ele>
        <time>2019-05-15T12:16:06.082Z</time>
      </trkpt>
      <trkpt lat="48.45403" lon="7.13029">
        <ele>558</ele>
        <time>2019-05-15T12:16:07.082Z</time>
      </trkpt>
      <trkpt lat="48.45403" lon="7.13029">
        <ele>557</ele>
        <time>2019-05-15T12:16:08.082Z</time>
      </trkpt>
      <trkpt lat="48.45404" lon="7.13029">
        <ele>556</ele>
        <time>2019-05-15T12:16:09.082Z</time>
      </trkpt>
      <trkpt lat="48.45404" lon="7.13029">
        <ele>555</ele>
        <time>2019-05-15T12:16:10.082Z</time>
      </trkpt>
      <trkpt lat="48.45404" lon="7.13029">
        <ele>555</ele>
        <time>2019-05-15T12:16:11.082Z</time>
      </trkpt>
      <trkpt lat="48.45404" lon="7.13029">
        <ele>555</ele>
        <time>2019-05-15T12:16:12.082Z</time>
      </trkpt>
      <trkpt lat="48.45404" lon="7.13029">
        <ele>556</ele>
        <time>2019-05-15T12:16:13.082Z</time>
      </trkpt>
      <trkpt lat="48.45404" lon="7.13029">
        <ele>557</ele>
        <time>2019-05-15T12:16:14.082Z</time>
      </trkpt>
      <trkpt lat="48.45404" lon="7.13029">
        <ele>557</ele>
        <time>2019-05-15T12:16:15.082Z</time>
      </trkpt>
      <trkpt lat="48.45404" lon="7.13029">
        <ele>558</ele>
        <time>2019-05-15T12:16:16.082Z</time>
      </trkpt>
      <trkpt lat="48.45404" lon="7.13028">
        <ele>558</ele>
        <time>2019-05-15T12:16:17.082Z</time>
      </trkpt>
      <trkpt lat="48.45404" lon="7.13028">
        <ele>557</ele>
        <time>2019-05-15T12:16:18.082Z</time>
      </trkpt>
      <trkpt lat="48.45404" lon="7.13028">
        <ele>557</ele>
        <time>2019-05-15T12:16:19.082Z</time>
      </trkpt>
      <trkpt lat="48.45404" lon="7.13028">
        <ele>557</ele>
        <time>2019-05-15T12:16:20.082Z</time>
      </trkpt>
      <trkpt lat="48.45404" lon="7.13028">
        <ele>559</ele>
        <time>2019-05-15T12:16:21.082Z</time>
      </trkpt>
      <trkpt lat="48.45404" lon="7.13029">
        <ele>560</ele>
        <time>2019-05-15T12:16:22.082Z</time>
      </trkpt>
      <trkpt lat="48.45404" lon="7.13029">
        <ele>560</ele>
        <time>2019-05-15T12:16:23.082Z</time>
      </trkpt>
      <trkpt lat="48.45404" lon="7.13029">
        <ele>561</ele>
        <time>2019-05-15T12:16:24.082Z</time>
      </trkpt>
      <trkpt lat="48.45405" lon="7.1303">
        <ele>562</ele>
        <time>2019-05-15T12:16:25.082Z</time>
      </trkpt>
      <trkpt lat="48.45405" lon="7.1303">
        <ele>563</ele>
        <time>2019-05-15T12:16:26.082Z</time>
      </trkpt>
      <trkpt lat="48.45405" lon="7.1303">
        <ele>563</ele>
        <time>2019-05-15T12:16:27.082Z</time>
      </trkpt>
      <trkpt lat="48.45405" lon="7.1303">
        <ele>564</ele>
        <time>2019-05-15T12:16:28.082Z</time>
      </trkpt>
      <trkpt lat="48.45405" lon="7.13031">
        <ele>564</ele>
        <time>2019-05-15T12:16:29.082Z</time>
      </trkpt>
      <trkpt lat="48.45405" lon="7.13031">
        <ele>564</ele>
        <time>2019-05-15T12:16:30.082Z</time>
      </trkpt>
      <trkpt lat="48.45405" lon="7.13031">
        <ele>564</ele>
        <time>2019-05-15T12:16:31.082Z</time>
      </trkpt>
      <trkpt lat="48.45405" lon="7.13031">
        <ele>565</ele>
        <time>2019-05-15T12:16:32.082Z</time>
      </trkpt>
      <trkpt lat="48.45405" lon="7.13031">
        <ele>566</ele>
        <time>2019-05-15T12:16:33.082Z</time>
      </trkpt>
      <trkpt lat="48.45405" lon="7.13031">
        <ele>566</ele>
        <time>2019-05-15T12:16:34.082Z</time>
      </trkpt>
      <trkpt lat="48.45405" lon="7.13031">
        <ele>566</ele>
        <time>2019-05-15T12:16:35.082Z</time>
      </trkpt>
      <trkpt lat="48.45405" lon="7.13031">
        <ele>566</ele>
        <time>2019-05-15T12:16:36.082Z</time>
      </trkpt>
      <trkpt lat="48.45405" lon="7.13031">
        <ele>566</ele>
        <time>2019-05-15T12:16:37.082Z</time>
      </trkpt>
      <trkpt lat="48.45405" lon="7.13031">
        <ele>567</ele>
        <time>2019-05-15T12:16:38.082Z</time>
      </trkpt>
      <trkpt lat="48.45405" lon="7.13031">
        <ele>567</ele>
        <time>2019-05-15T12:16:39.082Z</time>
      </trkpt>
      <trkpt lat="48.45405" lon="7.13031">
        <ele>567</ele>
        <time>2019-05-15T12:16:40.082Z</time>
      </trkpt>
      <trkpt lat="48.45405" lon="7.13031">
        <ele>567</ele>
        <time>2019-05-15T12:16:41.082Z</time>
      </trkpt>
      <trkpt lat="48.45405" lon="7.1303">
        <ele>567</ele>
        <time>2019-05-15T12:16:42.082Z</time>
      </trkpt>
      <trkpt lat="48.45405" lon="7.1303">
        <ele>568</ele>
        <time>2019-05-15T12:16:43.082Z</time>
      </trkpt>
      <trkpt lat="48.45405" lon="7.1303">
        <ele>568</ele>
        <time>2019-05-15T12:16:44.082Z</time>
      </trkpt>
      <trkpt lat="48.45405" lon="7.1303">
        <ele>568</ele>
        <time>2019-05-15T12:16:45.082Z</time>
      </trkpt>
      <trkpt lat="48.45405" lon="7.1303">
        <ele>567</ele>
        <time>2019-05-15T12:16:46.082Z</time>
      </trkpt>
      <trkpt lat="48.45405" lon="7.1303">
        <ele>567</ele>
        <time>2019-05-15T12:16:47.082Z</time>
      </trkpt>
      <trkpt lat="48.45405" lon="7.1303">
        <ele>567</ele>
        <time>2019-05-15T12:16:48.082Z</time>
      </trkpt>
      <trkpt lat="48.45405" lon="7.1303">
        <ele>567</ele>
        <time>2019-05-15T12:16:49.082Z</time>
      </trkpt>
      <trkpt lat="48.45405" lon="7.1303">
        <ele>566</ele>
        <time>2019-05-15T12:16:50.082Z</time>
      </trkpt>
      <trkpt lat="48.45405" lon="7.13029">
        <ele>566</ele>
        <time>2019-05-15T12:16:51.082Z</time>
      </trkpt>
      <trkpt lat="48.45405" lon="7.13029">
        <ele>565</ele>
        <time>2019-05-15T12:16:52.082Z</time>
      </trkpt>
      <trkpt lat="48.45405" lon="7.13029">
        <ele>565</ele>
        <time>2019-05-15T12:16:53.082Z</time>
      </trkpt>
      <trkpt lat="48.45405" lon="7.13029">
        <ele>564</ele>
        <time>2019-05-15T12:16:54.082Z</time>
      </trkpt>
      <trkpt lat="48.45405" lon="7.13029">
        <ele>564</ele>
        <time>2019-05-15T12:16:55.082Z</time>
      </trkpt>
      <trkpt lat="48.45405" lon="7.13029">
        <ele>564</ele>
        <time>2019-05-15T12:16:56.082Z</time>
      </trkpt>
      <trkpt lat="48.45405" lon="7.13028">
        <ele>563</ele>
        <time>2019-05-15T12:16:57.082Z</time>
      </trkpt>
      <trkpt lat="48.45405" lon="7.13028">
        <ele>563</ele>
        <time>2019-05-15T12:16:58.082Z</time>
      </trkpt>
      <trkpt lat="48.45405" lon="7.13028">
        <ele>563</ele>
        <time>2019-05-15T12:16:59.082Z</time>
      </trkpt>
      <trkpt lat="48.45405" lon="7.13028">
        <ele>563</ele>
        <time>2019-05-15T12:17:00.082Z</time>
      </trkpt>
      <trkpt lat="48.45405" lon="7.13028">
        <ele>563</ele>
        <time>2019-05-15T12:17:01.082Z</time>
      </trkpt>
      <trkpt lat="48.45404" lon="7.13028">
        <ele>564</ele>
        <time>2019-05-15T12:17:02.082Z</time>
      </trkpt>
      <trkpt lat="48.45404" lon="7.13028">
        <ele>564</ele>
        <time>2019-05-15T12:17:03.082Z</time>
      </trkpt>
      <trkpt lat="48.45404" lon="7.13028">
        <ele>564</ele>
        <time>2019-05-15T12:17:04.082Z</time>
      </trkpt>
      <trkpt lat="48.45404" lon="7.13028">
        <ele>564</ele>
        <time>2019-05-15T12:17:05.082Z</time>
      </trkpt>
      <trkpt lat="48.45404" lon="7.13028">
        <ele>565</ele>
        <time>2019-05-15T12:17:06.082Z</time>
      </trkpt>
      <trkpt lat="48.45404" lon="7.13028">
        <ele>566</ele>
        <time>2019-05-15T12:17:07.082Z</time>
      </trkpt>
      <trkpt lat="48.45404" lon="7.13028">
        <ele>566</ele>
        <time>2019-05-15T12:17:08.082Z</time>
      </trkpt>
      <trkpt lat="48.45404" lon="7.13028">
        <ele>567</ele>
        <time>2019-05-15T12:17:09.082Z</time>
      </trkpt>
      <trkpt lat="48.45404" lon="7.13028">
        <ele>567</ele>
        <time>2019-05-15T12:17:10.082Z</time>
      </trkpt>
      <trkpt lat="48.45404" lon="7.13028">
        <ele>567</ele>
        <time>2019-05-15T12:17:11.082Z</time>
      </trkpt>
      <trkpt lat="48.45404" lon="7.13028">
        <ele>567</ele>
        <time>2019-05-15T12:17:12.082Z</time>
      </trkpt>
      <trkpt lat="48.45404" lon="7.13028">
        <ele>567</ele>
        <time>2019-05-15T12:17:13.082Z</time>
      </trkpt>
      <trkpt lat="48.45404" lon="7.13028">
        <ele>566</ele>
        <time>2019-05-15T12:17:14.082Z</time>
      </trkpt>
      <trkpt lat="48.45404" lon="7.13028">
        <ele>566</ele>
        <time>2019-05-15T12:17:15.082Z</time>
      </trkpt>
      <trkpt lat="48.45405" lon="7.13028">
        <ele>566</ele>
        <time>2019-05-15T12:17:16.082Z</time>
      </trkpt>
      <trkpt lat="48.45405" lon="7.13028">
        <ele>567</ele>
        <time>2019-05-15T12:17:17.082Z</time>
      </trkpt>
      <trkpt lat="48.45405" lon="7.13029">
        <ele>568</ele>
        <time>2019-05-15T12:17:18.082Z</time>
      </trkpt>
      <trkpt lat="48.45405" lon="7.13029">
        <ele>568</ele>
        <time>2019-05-15T12:17:19.082Z</time>
      </trkpt>
      <trkpt lat="48.45405" lon="7.13029">
        <ele>567</ele>
        <time>2019-05-15T12:17:20.082Z</time>
      </trkpt>
      <trkpt lat="48.45405" lon="7.13029">
        <ele>566</ele>
        <time>2019-05-15T12:17:21.082Z</time>
      </trkpt>
      <trkpt lat="48.45405" lon="7.13029">
        <ele>565</ele>
        <time>2019-05-15T12:17:22.082Z</time>
      </trkpt>
      <trkpt lat="48.45405" lon="7.13029">
        <ele>565</ele>
        <time>2019-05-15T12:17:23.082Z</time>
      </trkpt>
      <trkpt lat="48.45405" lon="7.1303">
        <ele>565</ele>
        <time>2019-05-15T12:17:24.082Z</time>
      </trkpt>
      <trkpt lat="48.45405" lon="7.1303">
        <ele>565</ele>
        <time>2019-05-15T12:17:25.082Z</time>
      </trkpt>
      <trkpt lat="48.45405" lon="7.1303">
        <ele>565</ele>
        <time>2019-05-15T12:17:26.082Z</time>
      </trkpt>
      <trkpt lat="48.45405" lon="7.1303">
        <ele>565</ele>
        <time>2019-05-15T12:17:27.082Z</time>
      </trkpt>
      <trkpt lat="48.45405" lon="7.1303">
        <ele>565</ele>
        <time>2019-05-15T12:17:28.082Z</time>
      </trkpt>
      <trkpt lat="48.45405" lon="7.1303">
        <ele>565</ele>
        <time>2019-05-15T12:17:29.082Z</time>
      </trkpt>
      <trkpt lat="48.45405" lon="7.1303">
        <ele>564</ele>
        <time>2019-05-15T12:17:30.082Z</time>
      </trkpt>
      <trkpt lat="48.45405" lon="7.1303">
        <ele>563</ele>
        <time>2019-05-15T12:17:31.082Z</time>
      </trkpt>
      <trkpt lat="48.45405" lon="7.1303">
        <ele>563</ele>
        <time>2019-05-15T12:17:32.082Z</time>
      </trkpt>
      <trkpt lat="48.45404" lon="7.1303">
        <ele>563</ele>
        <time>2019-05-15T12:17:33.082Z</time>
      </trkpt>
      <trkpt lat="48.45404" lon="7.1303">
        <ele>564</ele>
        <time>2019-05-15T12:17:34.082Z</time>
      </trkpt>
      <trkpt lat="48.45404" lon="7.1303">
        <ele>564</ele>
        <time>2019-05-15T12:17:35.082Z</time>
      </trkpt>
      <trkpt lat="48.45403" lon="7.1303">
        <ele>564</ele>
        <time>2019-05-15T12:17:36.082Z</time>
      </trkpt>
      <trkpt lat="48.45403" lon="7.13029">
        <ele>565</ele>
        <time>2019-05-15T12:17:37.082Z</time>
      </trkpt>
      <trkpt lat="48.45403" lon="7.13029">
        <ele>564</ele>
        <time>2019-05-15T12:17:38.082Z</time>
      </trkpt>
      <trkpt lat="48.45403" lon="7.13029">
        <ele>564</ele>
        <time>2019-05-15T12:17:39.082Z</time>
      </trkpt>
      <trkpt lat="48.45403" lon="7.13029">
        <ele>563</ele>
        <time>2019-05-15T12:17:40.082Z</time>
      </trkpt>
      <trkpt lat="48.45403" lon="7.13029">
        <ele>563</ele>
        <time>2019-05-15T12:17:41.082Z</time>
      </trkpt>
      <trkpt lat="48.45403" lon="7.13029">
        <ele>563</ele>
        <time>2019-05-15T12:17:42.082Z</time>
      </trkpt>
      <trkpt lat="48.45403" lon="7.13029">
        <ele>563</ele>
        <time>2019-05-15T12:17:43.082Z</time>
      </trkpt>
      <trkpt lat="48.45403" lon="7.13029">
        <ele>563</ele>
        <time>2019-05-15T12:17:44.082Z</time>
      </trkpt>
      <trkpt lat="48.45402" lon="7.13029">
        <ele>563</ele>
        <time>2019-05-15T12:17:45.082Z</time>
      </trkpt>
      <trkpt lat="48.45402" lon="7.13029">
        <ele>563</ele>
        <time>2019-05-15T12:17:46.082Z</time>
      </trkpt>
      <trkpt lat="48.45402" lon="7.13028">
        <ele>563</ele>
        <time>2019-05-15T12:17:47.082Z</time>
      </trkpt>
      <trkpt lat="48.45402" lon="7.13029">
        <ele>563</ele>
        <time>2019-05-15T12:17:48.082Z</time>
      </trkpt>
      <trkpt lat="48.45402" lon="7.13029">
        <ele>563</ele>
        <time>2019-05-15T12:17:49.082Z</time>
      </trkpt>
      <trkpt lat="48.45402" lon="7.13029">
        <ele>562</ele>
        <time>2019-05-15T12:17:50.082Z</time>
      </trkpt>
      <trkpt lat="48.45402" lon="7.13029">
        <ele>562</ele>
        <time>2019-05-15T12:17:51.082Z</time>
      </trkpt>
      <trkpt lat="48.45402" lon="7.13029">
        <ele>562</ele>
        <time>2019-05-15T12:17:52.082Z</time>
      </trkpt>
      <trkpt lat="48.45402" lon="7.13029">
        <ele>563</ele>
        <time>2019-05-15T12:17:53.082Z</time>
      </trkpt>
      <trkpt lat="48.45402" lon="7.13029">
        <ele>564</ele>
        <time>2019-05-15T12:17:54.082Z</time>
      </trkpt>
      <trkpt lat="48.45402" lon="7.13029">
        <ele>564</ele>
        <time>2019-05-15T12:17:55.082Z</time>
      </trkpt>
      <trkpt lat="48.45402" lon="7.13029">
        <ele>565</ele>
        <time>2019-05-15T12:17:56.082Z</time>
      </trkpt>
      <trkpt lat="48.45402" lon="7.13029">
        <ele>565</ele>
        <time>2019-05-15T12:17:57.082Z</time>
      </trkpt>
      <trkpt lat="48.45402" lon="7.13029">
        <ele>566</ele>
        <time>2019-05-15T12:17:58.082Z</time>
      </trkpt>
      <trkpt lat="48.45402" lon="7.13029">
        <ele>565</ele>
        <time>2019-05-15T12:17:59.082Z</time>
      </trkpt>
      <trkpt lat="48.45402" lon="7.13029">
        <ele>565</ele>
        <time>2019-05-15T12:18:00.082Z</time>
      </trkpt>
      <trkpt lat="48.45402" lon="7.13029">
        <ele>565</ele>
        <time>2019-05-15T12:18:01.082Z</time>
      </trkpt>
      <trkpt lat="48.45402" lon="7.13029">
        <ele>565</ele>
        <time>2019-05-15T12:18:02.082Z</time>
      </trkpt>
      <trkpt lat="48.45402" lon="7.13029">
        <ele>565</ele>
        <time>2019-05-15T12:18:03.082Z</time>
      </trkpt>
      <trkpt lat="48.45402" lon="7.13029">
        <ele>565</ele>
        <time>2019-05-15T12:18:04.082Z</time>
      </trkpt>
      <trkpt lat="48.45402" lon="7.13029">
        <ele>565</ele>
        <time>2019-05-15T12:18:05.082Z</time>
      </trkpt>
      <trkpt lat="48.45402" lon="7.13029">
        <ele>565</ele>
        <time>2019-05-15T12:18:06.082Z</time>
      </trkpt>
      <trkpt lat="48.45402" lon="7.13029">
        <ele>565</ele>
        <time>2019-05-15T12:18:07.082Z</time>
      </trkpt>
      <trkpt lat="48.45402" lon="7.13029">
        <ele>565</ele>
        <time>2019-05-15T12:18:08.082Z</time>
      </trkpt>
      <trkpt lat="48.45402" lon="7.13029">
        <ele>565</ele>
        <time>2019-05-15T12:18:09.082Z</time>
      </trkpt>
      <trkpt lat="48.45402" lon="7.13028">
        <ele>565</ele>
        <time>2019-05-15T12:18:10.082Z</time>
      </trkpt>
      <trkpt lat="48.45402" lon="7.13028">
        <ele>565</ele>
        <time>2019-05-15T12:18:11.082Z</time>
      </trkpt>
      <trkpt lat="48.45402" lon="7.13028">
        <ele>565</ele>
        <time>2019-05-15T12:18:12.082Z</time>
      </trkpt>
      <trkpt lat="48.45402" lon="7.13028">
        <ele>565</ele>
        <time>2019-05-15T12:18:13.082Z</time>
      </trkpt>
      <trkpt lat="48.45401" lon="7.13028">
        <ele>565</ele>
        <time>2019-05-15T12:18:14.082Z</time>
      </trkpt>
      <trkpt lat="48.45401" lon="7.13028">
        <ele>564</ele>
        <time>2019-05-15T12:18:15.082Z</time>
      </trkpt>
      <trkpt lat="48.45401" lon="7.13028">
        <ele>564</ele>
        <time>2019-05-15T12:18:16.082Z</time>
      </trkpt>
      <trkpt lat="48.45401" lon="7.13028">
        <ele>564</ele>
        <time>2019-05-15T12:18:17.082Z</time>
      </trkpt>
      <trkpt lat="48.45401" lon="7.13028">
        <ele>564</ele>
        <time>2019-05-15T12:18:18.082Z</time>
      </trkpt>
      <trkpt lat="48.45401" lon="7.13028">
        <ele>563</ele>
        <time>2019-05-15T12:18:19.082Z</time>
      </trkpt>
      <trkpt lat="48.45401" lon="7.13028">
        <ele>563</ele>
        <time>2019-05-15T12:18:20.082Z</time>
      </trkpt>
      <trkpt lat="48.45401" lon="7.13028">
        <ele>563</ele>
        <time>2019-05-15T12:18:21.082Z</time>
      </trkpt>
      <trkpt lat="48.45401" lon="7.13028">
        <ele>563</ele>
        <time>2019-05-15T12:18:22.082Z</time>
      </trkpt>
      <trkpt lat="48.45401" lon="7.13028">
        <ele>563</ele>
        <time>2019-05-15T12:18:23.082Z</time>
      </trkpt>
      <trkpt lat="48.45402" lon="7.13028">
        <ele>563</ele>
        <time>2019-05-15T12:18:24.082Z</time>
      </trkpt>
      <trkpt lat="48.45402" lon="7.13028">
        <ele>563</ele>
        <time>2019-05-15T12:18:25.082Z</time>
      </trkpt>
      <trkpt lat="48.45402" lon="7.13028">
        <ele>563</ele>
        <time>2019-05-15T12:18:26.082Z</time>
      </trkpt>
      <trkpt lat="48.45402" lon="7.13028">
        <ele>563</ele>
        <time>2019-05-15T12:18:27.082Z</time>
      </trkpt>
      <trkpt lat="48.45402" lon="7.13029">
        <ele>563</ele>
        <time>2019-05-15T12:18:28.082Z</time>
      </trkpt>
      <trkpt lat="48.45401" lon="7.13029">
        <ele>563</ele>
        <time>2019-05-15T12:18:29.082Z</time>
      </trkpt>
      <trkpt lat="48.45402" lon="7.13028">
        <ele>563</ele>
        <time>2019-05-15T12:18:30.082Z</time>
      </trkpt>
      <trkpt lat="48.45402" lon="7.13028">
        <ele>563</ele>
        <time>2019-05-15T12:18:31.082Z</time>
      </trkpt>
      <trkpt lat="48.45402" lon="7.13027">
        <ele>563</ele>
        <time>2019-05-15T12:18:32.082Z</time>
      </trkpt>
      <trkpt lat="48.45402" lon="7.13027">
        <ele>562</ele>
        <time>2019-05-15T12:18:33.082Z</time>
      </trkpt>
      <trkpt lat="48.45402" lon="7.13027">
        <ele>562</ele>
        <time>2019-05-15T12:18:34.082Z</time>
      </trkpt>
      <trkpt lat="48.45402" lon="7.13027">
        <ele>563</ele>
        <time>2019-05-15T12:18:35.082Z</time>
      </trkpt>
      <trkpt lat="48.45402" lon="7.13027">
        <ele>563</ele>
        <time>2019-05-15T12:18:36.082Z</time>
      </trkpt>
      <trkpt lat="48.45402" lon="7.13028">
        <ele>563</ele>
        <time>2019-05-15T12:18:37.082Z</time>
      </trkpt>
      <trkpt lat="48.45402" lon="7.13027">
        <ele>563</ele>
        <time>2019-05-15T12:18:38.082Z</time>
      </trkpt>
      <trkpt lat="48.45402" lon="7.13027">
        <ele>563</ele>
        <time>2019-05-15T12:18:39.082Z</time>
      </trkpt>
      <trkpt lat="48.45402" lon="7.13027">
        <ele>564</ele>
        <time>2019-05-15T12:18:40.082Z</time>
      </trkpt>
      <trkpt lat="48.45402" lon="7.13027">
        <ele>564</ele>
        <time>2019-05-15T12:18:41.082Z</time>
      </trkpt>
      <trkpt lat="48.45402" lon="7.13027">
        <ele>565</ele>
        <time>2019-05-15T12:18:42.082Z</time>
      </trkpt>
      <trkpt lat="48.45402" lon="7.13027">
        <ele>565</ele>
        <time>2019-05-15T12:18:43.082Z</time>
      </trkpt>
      <trkpt lat="48.45402" lon="7.13027">
        <ele>565</ele>
        <time>2019-05-15T12:18:44.082Z</time>
      </trkpt>
      <trkpt lat="48.45402" lon="7.13027">
        <ele>566</ele>
        <time>2019-05-15T12:18:45.082Z</time>
      </trkpt>
      <trkpt lat="48.45402" lon="7.13027">
        <ele>566</ele>
        <time>2019-05-15T12:18:46.082Z</time>
      </trkpt>
      <trkpt lat="48.45401" lon="7.13028">
        <ele>567</ele>
        <time>2019-05-15T12:18:47.082Z</time>
      </trkpt>
      <trkpt lat="48.45401" lon="7.13028">
        <ele>567</ele>
        <time>2019-05-15T12:18:48.082Z</time>
      </trkpt>
      <trkpt lat="48.45401" lon="7.13028">
        <ele>567</ele>
        <time>2019-05-15T12:18:49.082Z</time>
      </trkpt>
      <trkpt lat="48.45401" lon="7.13028">
        <ele>567</ele>
        <time>2019-05-15T12:18:50.082Z</time>
      </trkpt>
      <trkpt lat="48.45401" lon="7.13028">
        <ele>567</ele>
        <time>2019-05-15T12:18:51.082Z</time>
      </trkpt>
      <trkpt lat="48.45401" lon="7.13028">
        <ele>567</ele>
        <time>2019-05-15T12:18:52.082Z</time>
      </trkpt>
      <trkpt lat="48.45401" lon="7.13028">
        <ele>566</ele>
        <time>2019-05-15T12:18:53.082Z</time>
      </trkpt>
      <trkpt lat="48.45402" lon="7.13028">
        <ele>566</ele>
        <time>2019-05-15T12:18:54.082Z</time>
      </trkpt>
      <trkpt lat="48.45402" lon="7.13028">
        <ele>566</ele>
        <time>2019-05-15T12:18:55.082Z</time>
      </trkpt>
      <trkpt lat="48.45402" lon="7.13028">
        <ele>565</ele>
        <time>2019-05-15T12:18:56.082Z</time>
      </trkpt>
      <trkpt lat="48.45402" lon="7.13028">
        <ele>565</ele>
        <time>2019-05-15T12:18:57.082Z</time>
      </trkpt>
      <trkpt lat="48.45402" lon="7.13028">
        <ele>565</ele>
        <time>2019-05-15T12:18:58.082Z</time>
      </trkpt>
      <trkpt lat="48.45402" lon="7.13028">
        <ele>564</ele>
        <time>2019-05-15T12:18:59.082Z</time>
      </trkpt>
      <trkpt lat="48.45402" lon="7.13028">
        <ele>564</ele>
        <time>2019-05-15T12:19:00.082Z</time>
      </trkpt>
      <trkpt lat="48.45402" lon="7.13028">
        <ele>564</ele>
        <time>2019-05-15T12:19:01.082Z</time>
      </trkpt>
      <trkpt lat="48.45402" lon="7.13028">
        <ele>565</ele>
        <time>2019-05-15T12:19:02.082Z</time>
      </trkpt>
      <trkpt lat="48.45402" lon="7.13028">
        <ele>566</ele>
        <time>2019-05-15T12:19:03.082Z</time>
      </trkpt>
      <trkpt lat="48.45402" lon="7.13029">
        <ele>567</ele>
        <time>2019-05-15T12:19:04.082Z</time>
      </trkpt>
      <trkpt lat="48.45402" lon="7.13029">
        <ele>567</ele>
        <time>2019-05-15T12:19:05.082Z</time>
      </trkpt>
      <trkpt lat="48.45402" lon="7.13029">
        <ele>566</ele>
        <time>2019-05-15T12:19:06.082Z</time>
      </trkpt>
      <trkpt lat="48.45402" lon="7.13029">
        <ele>566</ele>
        <time>2019-05-15T12:19:07.082Z</time>
      </trkpt>
      <trkpt lat="48.45402" lon="7.13029">
        <ele>566</ele>
        <time>2019-05-15T12:19:08.082Z</time>
      </trkpt>
      <trkpt lat="48.45402" lon="7.13029">
        <ele>567</ele>
        <time>2019-05-15T12:19:09.082Z</time>
      </trkpt>
      <trkpt lat="48.45402" lon="7.13029">
        <ele>567</ele>
        <time>2019-05-15T12:19:10.082Z</time>
      </trkpt>
      <trkpt lat="48.45402" lon="7.13029">
        <ele>567</ele>
        <time>2019-05-15T12:19:11.082Z</time>
      </trkpt>
      <trkpt lat="48.45402" lon="7.13028">
        <ele>567</ele>
        <time>2019-05-15T12:19:12.082Z</time>
      </trkpt>
      <trkpt lat="48.45402" lon="7.13028">
        <ele>567</ele>
        <time>2019-05-15T12:19:13.082Z</time>
      </trkpt>
      <trkpt lat="48.45402" lon="7.13028">
        <ele>567</ele>
        <time>2019-05-15T12:19:14.082Z</time>
      </trkpt>
      <trkpt lat="48.45402" lon="7.13028">
        <ele>567</ele>
        <time>2019-05-15T12:19:15.082Z</time>
      </trkpt>
      <trkpt lat="48.45402" lon="7.13027">
        <ele>567</ele>
        <time>2019-05-15T12:19:16.082Z</time>
      </trkpt>
      <trkpt lat="48.45402" lon="7.13027">
        <ele>568</ele>
        <time>2019-05-15T12:19:17.082Z</time>
      </trkpt>
      <trkpt lat="48.45403" lon="7.13027">
        <ele>568</ele>
        <time>2019-05-15T12:19:18.082Z</time>
      </trkpt>
      <trkpt lat="48.45403" lon="7.13027">
        <ele>569</ele>
        <time>2019-05-15T12:19:19.082Z</time>
      </trkpt>
      <trkpt lat="48.45403" lon="7.13027">
        <ele>570</ele>
        <time>2019-05-15T12:19:20.082Z</time>
      </trkpt>
      <trkpt lat="48.45403" lon="7.13027">
        <ele>570</ele>
        <time>2019-05-15T12:19:21.082Z</time>
      </trkpt>
      <trkpt lat="48.45403" lon="7.13027">
        <ele>570</ele>
        <time>2019-05-15T12:19:22.082Z</time>
      </trkpt>
      <trkpt lat="48.45403" lon="7.13027">
        <ele>571</ele>
        <time>2019-05-15T12:19:23.082Z</time>
      </trkpt>
      <trkpt lat="48.45403" lon="7.13028">
        <ele>571</ele>
        <time>2019-05-15T12:19:24.082Z</time>
      </trkpt>
      <trkpt lat="48.45403" lon="7.13028">
        <ele>571</ele>
        <time>2019-05-15T12:19:25.082Z</time>
      </trkpt>
      <trkpt lat="48.45403" lon="7.13028">
        <ele>570</ele>
        <time>2019-05-15T12:19:26.082Z</time>
      </trkpt>
      <trkpt lat="48.45403" lon="7.13028">
        <ele>569</ele>
        <time>2019-05-15T12:19:27.082Z</time>
      </trkpt>
      <trkpt lat="48.45403" lon="7.13028">
        <ele>568</ele>
        <time>2019-05-15T12:19:28.082Z</time>
      </trkpt>
      <trkpt lat="48.45403" lon="7.13029">
        <ele>568</ele>
        <time>2019-05-15T12:19:29.082Z</time>
      </trkpt>
      <trkpt lat="48.45403" lon="7.13028">
        <ele>567</ele>
        <time>2019-05-15T12:19:30.082Z</time>
      </trkpt>
      <trkpt lat="48.45403" lon="7.13028">
        <ele>568</ele>
        <time>2019-05-15T12:19:31.082Z</time>
      </trkpt>
      <trkpt lat="48.45403" lon="7.13028">
        <ele>569</ele>
        <time>2019-05-15T12:19:32.082Z</time>
      </trkpt>
      <trkpt lat="48.45403" lon="7.13028">
        <ele>570</ele>
        <time>2019-05-15T12:19:33.082Z</time>
      </trkpt>
      <trkpt lat="48.45403" lon="7.13028">
        <ele>571</ele>
        <time>2019-05-15T12:19:34.082Z</time>
      </trkpt>
      <trkpt lat="48.45403" lon="7.13027">
        <ele>571</ele>
        <time>2019-05-15T12:19:35.082Z</time>
      </trkpt>
      <trkpt lat="48.45403" lon="7.13027">
        <ele>571</ele>
        <time>2019-05-15T12:19:36.082Z</time>
      </trkpt>
      <trkpt lat="48.45403" lon="7.13027">
        <ele>571</ele>
        <time>2019-05-15T12:19:37.082Z</time>
      </trkpt>
      <trkpt lat="48.45403" lon="7.13027">
        <ele>572</ele>
        <time>2019-05-15T12:19:38.082Z</time>
      </trkpt>
      <trkpt lat="48.45403" lon="7.13027">
        <ele>572</ele>
        <time>2019-05-15T12:19:39.082Z</time>
      </trkpt>
      <trkpt lat="48.45403" lon="7.13027">
        <ele>573</ele>
        <time>2019-05-15T12:19:40.082Z</time>
      </trkpt>
      <trkpt lat="48.45403" lon="7.13027">
        <ele>573</ele>
        <time>2019-05-15T12:19:41.082Z</time>
      </trkpt>
      <trkpt lat="48.45403" lon="7.13026">
        <ele>574</ele>
        <time>2019-05-15T12:19:42.082Z</time>
      </trkpt>
      <trkpt lat="48.45402" lon="7.13026">
        <ele>575</ele>
        <time>2019-05-15T12:19:43.082Z</time>
      </trkpt>
      <trkpt lat="48.45402" lon="7.13026">
        <ele>576</ele>
        <time>2019-05-15T12:19:44.082Z</time>
      </trkpt>
      <trkpt lat="48.45402" lon="7.13026">
        <ele>576</ele>
        <time>2019-05-15T12:19:45.082Z</time>
      </trkpt>
      <trkpt lat="48.45403" lon="7.13025">
        <ele>577</ele>
        <time>2019-05-15T12:19:46.082Z</time>
      </trkpt>
      <trkpt lat="48.45403" lon="7.13025">
        <ele>578</ele>
        <time>2019-05-15T12:19:47.082Z</time>
      </trkpt>
      <trkpt lat="48.45403" lon="7.13025">
        <ele>579</ele>
        <time>2019-05-15T12:19:48.082Z</time>
      </trkpt>
      <trkpt lat="48.45403" lon="7.13025">
        <ele>579</ele>
        <time>2019-05-15T12:19:49.082Z</time>
      </trkpt>
      <trkpt lat="48.45403" lon="7.13025">
        <ele>579</ele>
        <time>2019-05-15T12:19:50.082Z</time>
      </trkpt>
      <trkpt lat="48.45403" lon="7.13025">
        <ele>579</ele>
        <time>2019-05-15T12:19:51.082Z</time>
      </trkpt>
      <trkpt lat="48.45403" lon="7.13025">
        <ele>578</ele>
        <time>2019-05-15T12:19:52.082Z</time>
      </trkpt>
      <trkpt lat="48.45403" lon="7.13025">
        <ele>577</ele>
        <time>2019-05-15T12:19:53.082Z</time>
      </trkpt>
      <trkpt lat="48.45403" lon="7.13025">
        <ele>577</ele>
        <time>2019-05-15T12:19:54.082Z</time>
      </trkpt>
      <trkpt lat="48.45402" lon="7.13025">
        <ele>576</ele>
        <time>2019-05-15T12:19:55.082Z</time>
      </trkpt>
      <trkpt lat="48.45402" lon="7.13025">
        <ele>576</ele>
        <time>2019-05-15T12:19:56.082Z</time>
      </trkpt>
      <trkpt lat="48.45402" lon="7.13024">
        <ele>576</ele>
        <time>2019-05-15T12:19:57.082Z</time>
      </trkpt>
      <trkpt lat="48.45402" lon="7.13024">
        <ele>574</ele>
        <time>2019-05-15T12:19:58.082Z</time>
      </trkpt>
      <trkpt lat="48.45402" lon="7.13024">
        <ele>575</ele>
        <time>2019-05-15T12:19:59.082Z</time>
      </trkpt>
      <trkpt lat="48.45402" lon="7.13023">
        <ele>571</ele>
        <time>2019-05-15T12:20:00.082Z</time>
      </trkpt>
      <trkpt lat="48.45402" lon="7.13022">
        <ele>575</ele>
        <time>2019-05-15T12:20:01.082Z</time>
      </trkpt>
      <trkpt lat="48.45402" lon="7.13022">
        <ele>575</ele>
        <time>2019-05-15T12:20:02.082Z</time>
      </trkpt>
      <trkpt lat="48.45402" lon="7.13022">
        <ele>574</ele>
        <time>2019-05-15T12:20:03.082Z</time>
      </trkpt>
      <trkpt lat="48.45402" lon="7.13022">
        <ele>573</ele>
        <time>2019-05-15T12:20:04.082Z</time>
      </trkpt>
      <trkpt lat="48.45402" lon="7.13022">
        <ele>573</ele>
        <time>2019-05-15T12:20:05.082Z</time>
      </trkpt>
      <trkpt lat="48.45402" lon="7.13022">
        <ele>574</ele>
        <time>2019-05-15T12:20:06.082Z</time>
      </trkpt>
      <trkpt lat="48.45403" lon="7.13022">
        <ele>576</ele>
        <time>2019-05-15T12:20:07.082Z</time>
      </trkpt>
      <trkpt lat="48.45402" lon="7.13022">
        <ele>580</ele>
        <time>2019-05-15T12:20:08.082Z</time>
      </trkpt>
      <trkpt lat="48.45402" lon="7.13022">
        <ele>582</ele>
        <time>2019-05-15T12:20:09.082Z</time>
      </trkpt>
      <trkpt lat="48.45402" lon="7.13022">
        <ele>586</ele>
        <time>2019-05-15T12:20:10.082Z</time>
      </trkpt>
      <trkpt lat="48.45402" lon="7.13022">
        <ele>588</ele>
        <time>2019-05-15T12:20:11.082Z</time>
      </trkpt>
      <trkpt lat="48.45402" lon="7.13022">
        <ele>588</ele>
        <time>2019-05-15T12:20:12.082Z</time>
      </trkpt>
      <trkpt lat="48.45403" lon="7.13023">
        <ele>589</ele>
        <time>2019-05-15T12:20:13.082Z</time>
      </trkpt>
      <trkpt lat="48.45403" lon="7.13023">
        <ele>589</ele>
        <time>2019-05-15T12:20:14.082Z</time>
      </trkpt>
      <trkpt lat="48.45402" lon="7.13024">
        <ele>587</ele>
        <time>2019-05-15T12:20:15.082Z</time>
      </trkpt>
      <trkpt lat="48.45402" lon="7.13024">
        <ele>585</ele>
        <time>2019-05-15T12:20:16.082Z</time>
      </trkpt>
      <trkpt lat="48.45402" lon="7.13024">
        <ele>582</ele>
        <time>2019-05-15T12:20:17.082Z</time>
      </trkpt>
      <trkpt lat="48.45402" lon="7.13025">
        <ele>582</ele>
        <time>2019-05-15T12:20:18.082Z</time>
      </trkpt>
      <trkpt lat="48.45402" lon="7.13025">
        <ele>580</ele>
        <time>2019-05-15T12:20:19.082Z</time>
      </trkpt>
      <trkpt lat="48.45402" lon="7.13025">
        <ele>578</ele>
        <time>2019-05-15T12:20:20.082Z</time>
      </trkpt>
      <trkpt lat="48.45403" lon="7.13026">
        <ele>576</ele>
        <time>2019-05-15T12:20:21.082Z</time>
      </trkpt>
      <trkpt lat="48.45403" lon="7.13026">
        <ele>576</ele>
        <time>2019-05-15T12:20:22.082Z</time>
      </trkpt>
      <trkpt lat="48.45402" lon="7.13026">
        <ele>577</ele>
        <time>2019-05-15T12:20:23.082Z</time>
      </trkpt>
      <trkpt lat="48.45402" lon="7.13026">
        <ele>577</ele>
        <time>2019-05-15T12:20:24.082Z</time>
      </trkpt>
      <trkpt lat="48.45402" lon="7.13026">
        <ele>575</ele>
        <time>2019-05-15T12:20:25.082Z</time>
      </trkpt>
      <trkpt lat="48.45402" lon="7.13026">
        <ele>573</ele>
        <time>2019-05-15T12:20:26.082Z</time>
      </trkpt>
      <trkpt lat="48.45402" lon="7.13026">
        <ele>572</ele>
        <time>2019-05-15T12:20:27.082Z</time>
      </trkpt>
      <trkpt lat="48.45403" lon="7.13026">
        <ele>572</ele>
        <time>2019-05-15T12:20:28.082Z</time>
      </trkpt>
      <trkpt lat="48.45403" lon="7.13027">
        <ele>571</ele>
        <time>2019-05-15T12:20:29.082Z</time>
      </trkpt>
      <trkpt lat="48.45403" lon="7.13027">
        <ele>571</ele>
        <time>2019-05-15T12:20:30.082Z</time>
      </trkpt>
      <trkpt lat="48.45403" lon="7.13027">
        <ele>570</ele>
        <time>2019-05-15T12:20:31.082Z</time>
      </trkpt>
      <trkpt lat="48.45403" lon="7.13027">
        <ele>570</ele>
        <time>2019-05-15T12:20:32.082Z</time>
      </trkpt>
      <trkpt lat="48.45403" lon="7.13027">
        <ele>569</ele>
        <time>2019-05-15T12:20:33.082Z</time>
      </trkpt>
      <trkpt lat="48.45403" lon="7.13027">
        <ele>570</ele>
        <time>2019-05-15T12:20:34.082Z</time>
      </trkpt>
      <trkpt lat="48.45403" lon="7.13027">
        <ele>571</ele>
        <time>2019-05-15T12:20:35.082Z</time>
      </trkpt>
      <trkpt lat="48.45403" lon="7.13027">
        <ele>573</ele>
        <time>2019-05-15T12:20:36.082Z</time>
      </trkpt>
      <trkpt lat="48.45403" lon="7.13028">
        <ele>574</ele>
        <time>2019-05-15T12:20:37.082Z</time>
      </trkpt>
      <trkpt lat="48.45403" lon="7.13028">
        <ele>575</ele>
        <time>2019-05-15T12:20:38.082Z</time>
      </trkpt>
      <trkpt lat="48.45403" lon="7.13028">
        <ele>576</ele>
        <time>2019-05-15T12:20:39.082Z</time>
      </trkpt>
      <trkpt lat="48.45403" lon="7.13028">
        <ele>576</ele>
        <time>2019-05-15T12:20:40.082Z</time>
      </trkpt>
      <trkpt lat="48.45404" lon="7.13028">
        <ele>578</ele>
        <time>2019-05-15T12:20:41.082Z</time>
      </trkpt>
      <trkpt lat="48.45404" lon="7.13028">
        <ele>579</ele>
        <time>2019-05-15T12:20:42.082Z</time>
      </trkpt>
      <trkpt lat="48.45403" lon="7.13028">
        <ele>577</ele>
        <time>2019-05-15T12:20:43.082Z</time>
      </trkpt>
      <trkpt lat="48.45403" lon="7.13028">
        <ele>577</ele>
        <time>2019-05-15T12:20:44.082Z</time>
      </trkpt>
      <trkpt lat="48.45403" lon="7.13028">
        <ele>577</ele>
        <time>2019-05-15T12:20:45.082Z</time>
      </trkpt>
      <trkpt lat="48.45403" lon="7.13028">
        <ele>576</ele>
        <time>2019-05-15T12:20:46.082Z</time>
      </trkpt>
      <trkpt lat="48.45403" lon="7.13028">
        <ele>576</ele>
        <time>2019-05-15T12:20:47.082Z</time>
      </trkpt>
      <trkpt lat="48.45403" lon="7.13028">
        <ele>577</ele>
        <time>2019-05-15T12:20:48.082Z</time>
      </trkpt>
      <trkpt lat="48.45403" lon="7.13028">
        <ele>578</ele>
        <time>2019-05-15T12:20:49.082Z</time>
      </trkpt>
      <trkpt lat="48.45403" lon="7.13028">
        <ele>579</ele>
        <time>2019-05-15T12:20:50.082Z</time>
      </trkpt>
      <trkpt lat="48.45402" lon="7.13028">
        <ele>580</ele>
        <time>2019-05-15T12:20:51.082Z</time>
      </trkpt>
      <trkpt lat="48.45402" lon="7.13029">
        <ele>581</ele>
        <time>2019-05-15T12:20:52.082Z</time>
      </trkpt>
      <trkpt lat="48.45402" lon="7.13029">
        <ele>582</ele>
        <time>2019-05-15T12:20:53.082Z</time>
      </trkpt>
      <trkpt lat="48.45402" lon="7.13029">
        <ele>582</ele>
        <time>2019-05-15T12:20:54.082Z</time>
      </trkpt>
      <trkpt lat="48.45402" lon="7.13029">
        <ele>582</ele>
        <time>2019-05-15T12:20:55.082Z</time>
      </trkpt>
      <trkpt lat="48.45402" lon="7.13029">
        <ele>583</ele>
        <time>2019-05-15T12:20:56.082Z</time>
      </trkpt>
      <trkpt lat="48.45402" lon="7.13029">
        <ele>584</ele>
        <time>2019-05-15T12:20:57.082Z</time>
      </trkpt>
      <trkpt lat="48.45402" lon="7.13029">
        <ele>584</ele>
        <time>2019-05-15T12:20:58.082Z</time>
      </trkpt>
      <trkpt lat="48.45402" lon="7.13029">
        <ele>584</ele>
        <time>2019-05-15T12:20:59.082Z</time>
      </trkpt>
      <trkpt lat="48.45402" lon="7.13029">
        <ele>584</ele>
        <time>2019-05-15T12:21:00.082Z</time>
      </trkpt>
      <trkpt lat="48.45402" lon="7.13029">
        <ele>583</ele>
        <time>2019-05-15T12:21:01.082Z</time>
      </trkpt>
      <trkpt lat="48.45402" lon="7.13028">
        <ele>583</ele>
        <time>2019-05-15T12:21:02.082Z</time>
      </trkpt>
      <trkpt lat="48.45402" lon="7.13028">
        <ele>582</ele>
        <time>2019-05-15T12:21:03.082Z</time>
      </trkpt>
      <trkpt lat="48.45402" lon="7.13028">
        <ele>581</ele>
        <time>2019-05-15T12:21:04.082Z</time>
      </trkpt>
      <trkpt lat="48.45402" lon="7.13028">
        <ele>580</ele>
        <time>2019-05-15T12:21:05.082Z</time>
      </trkpt>
      <trkpt lat="48.45402" lon="7.13027">
        <ele>579</ele>
        <time>2019-05-15T12:21:06.082Z</time>
      </trkpt>
      <trkpt lat="48.45402" lon="7.13027">
        <ele>579</ele>
        <time>2019-05-15T12:21:07.082Z</time>
      </trkpt>
      <trkpt lat="48.45402" lon="7.13027">
        <ele>578</ele>
        <time>2019-05-15T12:21:08.082Z</time>
      </trkpt>
      <trkpt lat="48.45402" lon="7.13027">
        <ele>577</ele>
        <time>2019-05-15T12:21:09.082Z</time>
      </trkpt>
      <trkpt lat="48.45402" lon="7.13026">
        <ele>576</ele>
        <time>2019-05-15T12:21:10.082Z</time>
      </trkpt>
      <trkpt lat="48.45402" lon="7.13026">
        <ele>575</ele>
        <time>2019-05-15T12:21:11.082Z</time>
      </trkpt>
      <trkpt lat="48.45402" lon="7.13026">
        <ele>573</ele>
        <time>2019-05-15T12:21:12.082Z</time>
      </trkpt>
      <trkpt lat="48.45402" lon="7.13025">
        <ele>572</ele>
        <time>2019-05-15T12:21:13.082Z</time>
      </trkpt>
      <trkpt lat="48.45402" lon="7.13025">
        <ele>570</ele>
        <time>2019-05-15T12:21:14.082Z</time>
      </trkpt>
      <trkpt lat="48.45402" lon="7.13025">
        <ele>569</ele>
        <time>2019-05-15T12:21:15.082Z</time>
      </trkpt>
      <trkpt lat="48.45402" lon="7.13024">
        <ele>567</ele>
        <time>2019-05-15T12:21:16.082Z</time>
      </trkpt>
      <trkpt lat="48.45402" lon="7.13024">
        <ele>566</ele>
        <time>2019-05-15T12:21:17.082Z</time>
      </trkpt>
      <trkpt lat="48.45402" lon="7.13024">
        <ele>565</ele>
        <time>2019-05-15T12:21:18.082Z</time>
      </trkpt>
      <trkpt lat="48.45402" lon="7.13024">
        <ele>564</ele>
        <time>2019-05-15T12:21:19.082Z</time>
      </trkpt>
      <trkpt lat="48.45402" lon="7.13024">
        <ele>564</ele>
        <time>2019-05-15T12:21:20.082Z</time>
      </trkpt>
      <trkpt lat="48.45402" lon="7.13024">
        <ele>564</ele>
        <time>2019-05-15T12:21:21.082Z</time>
      </trkpt>
      <trkpt lat="48.45402" lon="7.13024">
        <ele>563</ele>
        <time>2019-05-15T12:21:22.082Z</time>
      </trkpt>
      <trkpt lat="48.45402" lon="7.13024">
        <ele>563</ele>
        <time>2019-05-15T12:21:23.082Z</time>
      </trkpt>
      <trkpt lat="48.45402" lon="7.13024">
        <ele>563</ele>
        <time>2019-05-15T12:21:24.082Z</time>
      </trkpt>
      <trkpt lat="48.45402" lon="7.13024">
        <ele>562</ele>
        <time>2019-05-15T12:21:25.082Z</time>
      </trkpt>
      <trkpt lat="48.45402" lon="7.13024">
        <ele>562</ele>
        <time>2019-05-15T12:21:26.082Z</time>
      </trkpt>
      <trkpt lat="48.45402" lon="7.13023">
        <ele>562</ele>
        <time>2019-05-15T12:21:27.082Z</time>
      </trkpt>
      <trkpt lat="48.45402" lon="7.13023">
        <ele>561</ele>
        <time>2019-05-15T12:21:28.082Z</time>
      </trkpt>
      <trkpt lat="48.45402" lon="7.13023">
        <ele>560</ele>
        <time>2019-05-15T12:21:29.082Z</time>
      </trkpt>
      <trkpt lat="48.45402" lon="7.13023">
        <ele>559</ele>
        <time>2019-05-15T12:21:30.082Z</time>
      </trkpt>
      <trkpt lat="48.45402" lon="7.13023">
        <ele>559</ele>
        <time>2019-05-15T12:21:31.082Z</time>
      </trkpt>
      <trkpt lat="48.45401" lon="7.13023">
        <ele>558</ele>
        <time>2019-05-15T12:21:32.082Z</time>
      </trkpt>
      <trkpt lat="48.45401" lon="7.13023">
        <ele>557</ele>
        <time>2019-05-15T12:21:33.082Z</time>
      </trkpt>
      <trkpt lat="48.45401" lon="7.13023">
        <ele>557</ele>
        <time>2019-05-15T12:21:34.082Z</time>
      </trkpt>
      <trkpt lat="48.45401" lon="7.13023">
        <ele>557</ele>
        <time>2019-05-15T12:21:35.082Z</time>
      </trkpt>
      <trkpt lat="48.45401" lon="7.13022">
        <ele>556</ele>
        <time>2019-05-15T12:21:36.082Z</time>
      </trkpt>
      <trkpt lat="48.45401" lon="7.13022">
        <ele>555</ele>
        <time>2019-05-15T12:21:37.082Z</time>
      </trkpt>
      <trkpt lat="48.45401" lon="7.13023">
        <ele>553</ele>
        <time>2019-05-15T12:21:38.082Z</time>
      </trkpt>
      <trkpt lat="48.45401" lon="7.13023">
        <ele>552</ele>
        <time>2019-05-15T12:21:39.082Z</time>
      </trkpt>
      <trkpt lat="48.45401" lon="7.13024">
        <ele>555</ele>
        <time>2019-05-15T12:21:40.082Z</time>
      </trkpt>
      <trkpt lat="48.45401" lon="7.13025">
        <ele>556</ele>
        <time>2019-05-15T12:21:41.082Z</time>
      </trkpt>
      <trkpt lat="48.45401" lon="7.13025">
        <ele>557</ele>
        <time>2019-05-15T12:21:42.082Z</time>
      </trkpt>
      <trkpt lat="48.45402" lon="7.13025">
        <ele>557</ele>
        <time>2019-05-15T12:21:43.082Z</time>
      </trkpt>
      <trkpt lat="48.45402" lon="7.13026">
        <ele>557</ele>
        <time>2019-05-15T12:21:44.082Z</time>
      </trkpt>
      <trkpt lat="48.45402" lon="7.13026">
        <ele>558</ele>
        <time>2019-05-15T12:21:45.082Z</time>
      </trkpt>
      <trkpt lat="48.45402" lon="7.13026">
        <ele>559</ele>
        <time>2019-05-15T12:21:46.082Z</time>
      </trkpt>
      <trkpt lat="48.45402" lon="7.13026">
        <ele>561</ele>
        <time>2019-05-15T12:21:47.082Z</time>
      </trkpt>
      <trkpt lat="48.45402" lon="7.13026">
        <ele>562</ele>
        <time>2019-05-15T12:21:48.082Z</time>
      </trkpt>
      <trkpt lat="48.45402" lon="7.13026">
        <ele>563</ele>
        <time>2019-05-15T12:21:49.082Z</time>
      </trkpt>
      <trkpt lat="48.45402" lon="7.13027">
        <ele>562</ele>
        <time>2019-05-15T12:21:50.082Z</time>
      </trkpt>
      <trkpt lat="48.45403" lon="7.13027">
        <ele>563</ele>
        <time>2019-05-15T12:21:51.082Z</time>
      </trkpt>
      <trkpt lat="48.45402" lon="7.13027">
        <ele>563</ele>
        <time>2019-05-15T12:21:52.082Z</time>
      </trkpt>
      <trkpt lat="48.45403" lon="7.13027">
        <ele>564</ele>
        <time>2019-05-15T12:21:53.082Z</time>
      </trkpt>
      <trkpt lat="48.45402" lon="7.13027">
        <ele>564</ele>
        <time>2019-05-15T12:21:54.082Z</time>
      </trkpt>
      <trkpt lat="48.45402" lon="7.13027">
        <ele>563</ele>
        <time>2019-05-15T12:21:55.082Z</time>
      </trkpt>
      <trkpt lat="48.45402" lon="7.13028">
        <ele>564</ele>
        <time>2019-05-15T12:21:56.082Z</time>
      </trkpt>
      <trkpt lat="48.45402" lon="7.13028">
        <ele>564</ele>
        <time>2019-05-15T12:21:57.082Z</time>
      </trkpt>
      <trkpt lat="48.45402" lon="7.13028">
        <ele>564</ele>
        <time>2019-05-15T12:21:58.082Z</time>
      </trkpt>
      <trkpt lat="48.45402" lon="7.13028">
        <ele>562</ele>
        <time>2019-05-15T12:21:59.082Z</time>
      </trkpt>
      <trkpt lat="48.45402" lon="7.13028">
        <ele>563</ele>
        <time>2019-05-15T12:22:00.082Z</time>
      </trkpt>
      <trkpt lat="48.45402" lon="7.13028">
        <ele>562</ele>
        <time>2019-05-15T12:22:01.082Z</time>
      </trkpt>
      <trkpt lat="48.45402" lon="7.13028">
        <ele>561</ele>
        <time>2019-05-15T12:22:02.082Z</time>
      </trkpt>
      <trkpt lat="48.45402" lon="7.13028">
        <ele>561</ele>
        <time>2019-05-15T12:22:03.082Z</time>
      </trkpt>
      <trkpt lat="48.45403" lon="7.13028">
        <ele>561</ele>
        <time>2019-05-15T12:22:04.082Z</time>
      </trkpt>
      <trkpt lat="48.45403" lon="7.13028">
        <ele>562</ele>
        <time>2019-05-15T12:22:05.082Z</time>
      </trkpt>
      <trkpt lat="48.45403" lon="7.13028">
        <ele>563</ele>
        <time>2019-05-15T12:22:06.082Z</time>
      </trkpt>
      <trkpt lat="48.45403" lon="7.13027">
        <ele>563</ele>
        <time>2019-05-15T12:22:07.082Z</time>
      </trkpt>
      <trkpt lat="48.45403" lon="7.13027">
        <ele>563</ele>
        <time>2019-05-15T12:22:08.082Z</time>
      </trkpt>
      <trkpt lat="48.45403" lon="7.13027">
        <ele>563</ele>
        <time>2019-05-15T12:22:09.082Z</time>
      </trkpt>
      <trkpt lat="48.45403" lon="7.13027">
        <ele>563</ele>
        <time>2019-05-15T12:22:10.082Z</time>
      </trkpt>
      <trkpt lat="48.45404" lon="7.13028">
        <ele>564</ele>
        <time>2019-05-15T12:22:11.082Z</time>
      </trkpt>
      <trkpt lat="48.45404" lon="7.13028">
        <ele>565</ele>
        <time>2019-05-15T12:22:12.082Z</time>
      </trkpt>
      <trkpt lat="48.45404" lon="7.13028">
        <ele>566</ele>
        <time>2019-05-15T12:22:13.082Z</time>
      </trkpt>
      <trkpt lat="48.45404" lon="7.13028">
        <ele>568</ele>
        <time>2019-05-15T12:22:14.082Z</time>
      </trkpt>
      <trkpt lat="48.45403" lon="7.13028">
        <ele>569</ele>
        <time>2019-05-15T12:22:15.082Z</time>
      </trkpt>
      <trkpt lat="48.45403" lon="7.13029">
        <ele>569</ele>
        <time>2019-05-15T12:22:16.082Z</time>
      </trkpt>
      <trkpt lat="48.45403" lon="7.13029">
        <ele>570</ele>
        <time>2019-05-15T12:22:17.082Z</time>
      </trkpt>
      <trkpt lat="48.45403" lon="7.13029">
        <ele>570</ele>
        <time>2019-05-15T12:22:18.082Z</time>
      </trkpt>
      <trkpt lat="48.45403" lon="7.13029">
        <ele>570</ele>
        <time>2019-05-15T12:22:19.082Z</time>
      </trkpt>
      <trkpt lat="48.45403" lon="7.13029">
        <ele>571</ele>
        <time>2019-05-15T12:22:20.082Z</time>
      </trkpt>
      <trkpt lat="48.45403" lon="7.13029">
        <ele>571</ele>
        <time>2019-05-15T12:22:21.082Z</time>
      </trkpt>
      <trkpt lat="48.45403" lon="7.13029">
        <ele>571</ele>
        <time>2019-05-15T12:22:22.082Z</time>
      </trkpt>
      <trkpt lat="48.45403" lon="7.13029">
        <ele>572</ele>
        <time>2019-05-15T12:22:23.082Z</time>
      </trkpt>
      <trkpt lat="48.45403" lon="7.13029">
        <ele>572</ele>
        <time>2019-05-15T12:22:24.082Z</time>
      </trkpt>
      <trkpt lat="48.45403" lon="7.1303">
        <ele>573</ele>
        <time>2019-05-15T12:22:25.082Z</time>
      </trkpt>
      <trkpt lat="48.45403" lon="7.1303">
        <ele>573</ele>
        <time>2019-05-15T12:22:26.082Z</time>
      </trkpt>
      <trkpt lat="48.45403" lon="7.1303">
        <ele>573</ele>
        <time>2019-05-15T12:22:27.082Z</time>
      </trkpt>
      <trkpt lat="48.45403" lon="7.1303">
        <ele>573</ele>
        <time>2019-05-15T12:22:28.082Z</time>
      </trkpt>
      <trkpt lat="48.45403" lon="7.1303">
        <ele>573</ele>
        <time>2019-05-15T12:22:29.082Z</time>
      </trkpt>
      <trkpt lat="48.45403" lon="7.1303">
        <ele>572</ele>
        <time>2019-05-15T12:22:30.082Z</time>
      </trkpt>
      <trkpt lat="48.45403" lon="7.1303">
        <ele>571</ele>
        <time>2019-05-15T12:22:31.082Z</time>
      </trkpt>
      <trkpt lat="48.45403" lon="7.1303">
        <ele>571</ele>
        <time>2019-05-15T12:22:32.082Z</time>
      </trkpt>
      <trkpt lat="48.45403" lon="7.1303">
        <ele>571</ele>
        <time>2019-05-15T12:22:33.082Z</time>
      </trkpt>
      <trkpt lat="48.45403" lon="7.1303">
        <ele>569</ele>
        <time>2019-05-15T12:22:34.082Z</time>
      </trkpt>
      <trkpt lat="48.45403" lon="7.1303">
        <ele>568</ele>
        <time>2019-05-15T12:22:35.082Z</time>
      </trkpt>
      <trkpt lat="48.45403" lon="7.1303">
        <ele>568</ele>
        <time>2019-05-15T12:22:36.082Z</time>
      </trkpt>
      <trkpt lat="48.45404" lon="7.1303">
        <ele>568</ele>
        <time>2019-05-15T12:22:37.082Z</time>
      </trkpt>
      <trkpt lat="48.45404" lon="7.1303">
        <ele>567</ele>
        <time>2019-05-15T12:22:38.082Z</time>
      </trkpt>
      <trkpt lat="48.45404" lon="7.1303">
        <ele>567</ele>
        <time>2019-05-15T12:22:39.082Z</time>
      </trkpt>
      <trkpt lat="48.45404" lon="7.1303">
        <ele>567</ele>
        <time>2019-05-15T12:22:40.082Z</time>
      </trkpt>
      <trkpt lat="48.45404" lon="7.1303">
        <ele>566</ele>
        <time>2019-05-15T12:22:41.082Z</time>
      </trkpt>
      <trkpt lat="48.45404" lon="7.1303">
        <ele>566</ele>
        <time>2019-05-15T12:22:42.082Z</time>
      </trkpt>
      <trkpt lat="48.45404" lon="7.1303">
        <ele>566</ele>
        <time>2019-05-15T12:22:43.082Z</time>
      </trkpt>
      <trkpt lat="48.45404" lon="7.1303">
        <ele>566</ele>
        <time>2019-05-15T12:22:44.082Z</time>
      </trkpt>
      <trkpt lat="48.45404" lon="7.1303">
        <ele>566</ele>
        <time>2019-05-15T12:22:45.082Z</time>
      </trkpt>
      <trkpt lat="48.45404" lon="7.1303">
        <ele>565</ele>
        <time>2019-05-15T12:22:46.082Z</time>
      </trkpt>
      <trkpt lat="48.45404" lon="7.1303">
        <ele>565</ele>
        <time>2019-05-15T12:22:47.082Z</time>
      </trkpt>
      <trkpt lat="48.45404" lon="7.1303">
        <ele>565</ele>
        <time>2019-05-15T12:22:48.082Z</time>
      </trkpt>
      <trkpt lat="48.45404" lon="7.1303">
        <ele>565</ele>
        <time>2019-05-15T12:22:49.082Z</time>
      </trkpt>
      <trkpt lat="48.45404" lon="7.1303">
        <ele>564</ele>
        <time>2019-05-15T12:22:50.082Z</time>
      </trkpt>
      <trkpt lat="48.45404" lon="7.1303">
        <ele>564</ele>
        <time>2019-05-15T12:22:51.082Z</time>
      </trkpt>
      <trkpt lat="48.45404" lon="7.1303">
        <ele>564</ele>
        <time>2019-05-15T12:22:52.082Z</time>
      </trkpt>
      <trkpt lat="48.45404" lon="7.1303">
        <ele>564</ele>
        <time>2019-05-15T12:22:53.082Z</time>
      </trkpt>
      <trkpt lat="48.45404" lon="7.1303">
        <ele>564</ele>
        <time>2019-05-15T12:22:54.082Z</time>
      </trkpt>
      <trkpt lat="48.45404" lon="7.13029">
        <ele>563</ele>
        <time>2019-05-15T12:22:55.082Z</time>
      </trkpt>
      <trkpt lat="48.45405" lon="7.13029">
        <ele>562</ele>
        <time>2019-05-15T12:22:56.082Z</time>
      </trkpt>
      <trkpt lat="48.45405" lon="7.13029">
        <ele>561</ele>
        <time>2019-05-15T12:22:57.082Z</time>
      </trkpt>
      <trkpt lat="48.45405" lon="7.13029">
        <ele>561</ele>
        <time>2019-05-15T12:22:58.082Z</time>
      </trkpt>
      <trkpt lat="48.45405" lon="7.13029">
        <ele>560</ele>
        <time>2019-05-15T12:22:59.082Z</time>
      </trkpt>
      <trkpt lat="48.45405" lon="7.13029">
        <ele>560</ele>
        <time>2019-05-15T12:23:00.082Z</time>
      </trkpt>
      <trkpt lat="48.45405" lon="7.13028">
        <ele>560</ele>
        <time>2019-05-15T12:23:01.082Z</time>
      </trkpt>
      <trkpt lat="48.45405" lon="7.13028">
        <ele>559</ele>
        <time>2019-05-15T12:23:02.082Z</time>
      </trkpt>
      <trkpt lat="48.45405" lon="7.13028">
        <ele>559</ele>
        <time>2019-05-15T12:23:03.082Z</time>
      </trkpt>
      <trkpt lat="48.45405" lon="7.13028">
        <ele>558</ele>
        <time>2019-05-15T12:23:04.082Z</time>
      </trkpt>
      <trkpt lat="48.45405" lon="7.13028">
        <ele>558</ele>
        <time>2019-05-15T12:23:05.082Z</time>
      </trkpt>
      <trkpt lat="48.45405" lon="7.13028">
        <ele>558</ele>
        <time>2019-05-15T12:23:06.082Z</time>
      </trkpt>
      <trkpt lat="48.45405" lon="7.13028">
        <ele>559</ele>
        <time>2019-05-15T12:23:07.082Z</time>
      </trkpt>
      <trkpt lat="48.45405" lon="7.13028">
        <ele>561</ele>
        <time>2019-05-15T12:23:08.082Z</time>
      </trkpt>
      <trkpt lat="48.45405" lon="7.13028">
        <ele>561</ele>
        <time>2019-05-15T12:23:09.082Z</time>
      </trkpt>
      <trkpt lat="48.45405" lon="7.13028">
        <ele>562</ele>
        <time>2019-05-15T12:23:10.082Z</time>
      </trkpt>
      <trkpt lat="48.45404" lon="7.13028">
        <ele>563</ele>
        <time>2019-05-15T12:23:11.082Z</time>
      </trkpt>
      <trkpt lat="48.45404" lon="7.13028">
        <ele>563</ele>
        <time>2019-05-15T12:23:12.082Z</time>
      </trkpt>
      <trkpt lat="48.45404" lon="7.13028">
        <ele>564</ele>
        <time>2019-05-15T12:23:13.082Z</time>
      </trkpt>
      <trkpt lat="48.45404" lon="7.13028">
        <ele>565</ele>
        <time>2019-05-15T12:23:14.082Z</time>
      </trkpt>
      <trkpt lat="48.45404" lon="7.13028">
        <ele>565</ele>
        <time>2019-05-15T12:23:15.082Z</time>
      </trkpt>
      <trkpt lat="48.45404" lon="7.13029">
        <ele>565</ele>
        <time>2019-05-15T12:23:16.082Z</time>
      </trkpt>
      <trkpt lat="48.45403" lon="7.13029">
        <ele>566</ele>
        <time>2019-05-15T12:23:17.082Z</time>
      </trkpt>
      <trkpt lat="48.45403" lon="7.13029">
        <ele>566</ele>
        <time>2019-05-15T12:23:18.082Z</time>
      </trkpt>
      <trkpt lat="48.45403" lon="7.13029">
        <ele>566</ele>
        <time>2019-05-15T12:23:19.082Z</time>
      </trkpt>
      <trkpt lat="48.45403" lon="7.13029">
        <ele>566</ele>
        <time>2019-05-15T12:23:20.082Z</time>
      </trkpt>
      <trkpt lat="48.45403" lon="7.13029">
        <ele>567</ele>
        <time>2019-05-15T12:23:21.082Z</time>
      </trkpt>
      <trkpt lat="48.45403" lon="7.13029">
        <ele>567</ele>
        <time>2019-05-15T12:23:22.082Z</time>
      </trkpt>
      <trkpt lat="48.45403" lon="7.13029">
        <ele>567</ele>
        <time>2019-05-15T12:23:23.082Z</time>
      </trkpt>
      <trkpt lat="48.45403" lon="7.13029">
        <ele>568</ele>
        <time>2019-05-15T12:23:24.082Z</time>
      </trkpt>
      <trkpt lat="48.45403" lon="7.13029">
        <ele>568</ele>
        <time>2019-05-15T12:23:25.082Z</time>
      </trkpt>
      <trkpt lat="48.45403" lon="7.13029">
        <ele>568</ele>
        <time>2019-05-15T12:23:26.082Z</time>
      </trkpt>
      <trkpt lat="48.45403" lon="7.1303">
        <ele>568</ele>
        <time>2019-05-15T12:23:27.082Z</time>
      </trkpt>
      <trkpt lat="48.45402" lon="7.1303">
        <ele>568</ele>
        <time>2019-05-15T12:23:28.082Z</time>
      </trkpt>
      <trkpt lat="48.45402" lon="7.1303">
        <ele>569</ele>
        <time>2019-05-15T12:23:29.082Z</time>
      </trkpt>
      <trkpt lat="48.45402" lon="7.1303">
        <ele>568</ele>
        <time>2019-05-15T12:23:30.082Z</time>
      </trkpt>
      <trkpt lat="48.45402" lon="7.1303">
        <ele>568</ele>
        <time>2019-05-15T12:23:31.082Z</time>
      </trkpt>
      <trkpt lat="48.45402" lon="7.13031">
        <ele>568</ele>
        <time>2019-05-15T12:23:32.082Z</time>
      </trkpt>
      <trkpt lat="48.45402" lon="7.13031">
        <ele>569</ele>
        <time>2019-05-15T12:23:33.082Z</time>
      </trkpt>
      <trkpt lat="48.45402" lon="7.13031">
        <ele>568</ele>
        <time>2019-05-15T12:23:34.082Z</time>
      </trkpt>
      <trkpt lat="48.45403" lon="7.13031">
        <ele>568</ele>
        <time>2019-05-15T12:23:35.082Z</time>
      </trkpt>
      <trkpt lat="48.45403" lon="7.13031">
        <ele>569</ele>
        <time>2019-05-15T12:23:36.082Z</time>
      </trkpt>
      <trkpt lat="48.45403" lon="7.13031">
        <ele>570</ele>
        <time>2019-05-15T12:23:37.082Z</time>
      </trkpt>
      <trkpt lat="48.45403" lon="7.13031">
        <ele>569</ele>
        <time>2019-05-15T12:23:38.082Z</time>
      </trkpt>
      <trkpt lat="48.45403" lon="7.1303">
        <ele>569</ele>
        <time>2019-05-15T12:23:39.082Z</time>
      </trkpt>
      <trkpt lat="48.45403" lon="7.1303">
        <ele>569</ele>
        <time>2019-05-15T12:23:40.082Z</time>
      </trkpt>
      <trkpt lat="48.45402" lon="7.13029">
        <ele>570</ele>
        <time>2019-05-15T12:23:41.082Z</time>
      </trkpt>
      <trkpt lat="48.45402" lon="7.13029">
        <ele>570</ele>
        <time>2019-05-15T12:23:42.082Z</time>
      </trkpt>
      <trkpt lat="48.45402" lon="7.13028">
        <ele>570</ele>
        <time>2019-05-15T12:23:43.082Z</time>
      </trkpt>
      <trkpt lat="48.45402" lon="7.13028">
        <ele>571</ele>
        <time>2019-05-15T12:23:44.082Z</time>
      </trkpt>
      <trkpt lat="48.45402" lon="7.13028">
        <ele>572</ele>
        <time>2019-05-15T12:23:45.082Z</time>
      </trkpt>
      <trkpt lat="48.45401" lon="7.13027">
        <ele>572</ele>
        <time>2019-05-15T12:23:46.082Z</time>
      </trkpt>
      <trkpt lat="48.45401" lon="7.13027">
        <ele>572</ele>
        <time>2019-05-15T12:23:47.082Z</time>
      </trkpt>
      <trkpt lat="48.45401" lon="7.13027">
        <ele>572</ele>
        <time>2019-05-15T12:23:48.082Z</time>
      </trkpt>
      <trkpt lat="48.45401" lon="7.13027">
        <ele>572</ele>
        <time>2019-05-15T12:23:49.082Z</time>
      </trkpt>
      <trkpt lat="48.45401" lon="7.13027">
        <ele>572</ele>
        <time>2019-05-15T12:23:50.082Z</time>
      </trkpt>
      <trkpt lat="48.45401" lon="7.13027">
        <ele>572</ele>
        <time>2019-05-15T12:23:51.082Z</time>
      </trkpt>
      <trkpt lat="48.454" lon="7.13027">
        <ele>572</ele>
        <time>2019-05-15T12:23:52.082Z</time>
      </trkpt>
      <trkpt lat="48.454" lon="7.13026">
        <ele>571</ele>
        <time>2019-05-15T12:23:53.082Z</time>
      </trkpt>
      <trkpt lat="48.454" lon="7.13026">
        <ele>571</ele>
        <time>2019-05-15T12:23:54.082Z</time>
      </trkpt>
      <trkpt lat="48.454" lon="7.13026">
        <ele>571</ele>
        <time>2019-05-15T12:23:55.082Z</time>
      </trkpt>
      <trkpt lat="48.454" lon="7.13026">
        <ele>571</ele>
        <time>2019-05-15T12:23:56.082Z</time>
      </trkpt>
      <trkpt lat="48.454" lon="7.13026">
        <ele>571</ele>
        <time>2019-05-15T12:23:57.082Z</time>
      </trkpt>
      <trkpt lat="48.454" lon="7.13026">
        <ele>570</ele>
        <time>2019-05-15T12:23:58.082Z</time>
      </trkpt>
      <trkpt lat="48.45401" lon="7.13026">
        <ele>569</ele>
        <time>2019-05-15T12:23:59.082Z</time>
      </trkpt>
      <trkpt lat="48.45401" lon="7.13025">
        <ele>569</ele>
        <time>2019-05-15T12:24:00.082Z</time>
      </trkpt>
      <trkpt lat="48.45401" lon="7.13025">
        <ele>569</ele>
        <time>2019-05-15T12:24:01.082Z</time>
      </trkpt>
      <trkpt lat="48.45401" lon="7.13025">
        <ele>569</ele>
        <time>2019-05-15T12:24:02.082Z</time>
      </trkpt>
      <trkpt lat="48.45401" lon="7.13025">
        <ele>569</ele>
        <time>2019-05-15T12:24:03.082Z</time>
      </trkpt>
      <trkpt lat="48.45401" lon="7.13025">
        <ele>569</ele>
        <time>2019-05-15T12:24:04.082Z</time>
      </trkpt>
      <trkpt lat="48.45401" lon="7.13025">
        <ele>570</ele>
        <time>2019-05-15T12:24:05.082Z</time>
      </trkpt>
      <trkpt lat="48.45401" lon="7.13025">
        <ele>570</ele>
        <time>2019-05-15T12:24:06.082Z</time>
      </trkpt>
      <trkpt lat="48.45401" lon="7.13024">
        <ele>570</ele>
        <time>2019-05-15T12:24:07.082Z</time>
      </trkpt>
      <trkpt lat="48.45401" lon="7.13024">
        <ele>570</ele>
        <time>2019-05-15T12:24:08.082Z</time>
      </trkpt>
      <trkpt lat="48.45401" lon="7.13024">
        <ele>571</ele>
        <time>2019-05-15T12:24:09.082Z</time>
      </trkpt>
      <trkpt lat="48.45401" lon="7.13025">
        <ele>571</ele>
        <time>2019-05-15T12:24:10.082Z</time>
      </trkpt>
      <trkpt lat="48.45401" lon="7.13025">
        <ele>571</ele>
        <time>2019-05-15T12:24:11.082Z</time>
      </trkpt>
      <trkpt lat="48.45401" lon="7.13025">
        <ele>572</ele>
        <time>2019-05-15T12:24:12.082Z</time>
      </trkpt>
      <trkpt lat="48.45401" lon="7.13025">
        <ele>572</ele>
        <time>2019-05-15T12:24:13.082Z</time>
      </trkpt>
      <trkpt lat="48.45401" lon="7.13025">
        <ele>573</ele>
        <time>2019-05-15T12:24:14.082Z</time>
      </trkpt>
      <trkpt lat="48.45402" lon="7.13025">
        <ele>573</ele>
        <time>2019-05-15T12:24:15.082Z</time>
      </trkpt>
      <trkpt lat="48.45402" lon="7.13025">
        <ele>574</ele>
        <time>2019-05-15T12:24:16.082Z</time>
      </trkpt>
      <trkpt lat="48.45402" lon="7.13025">
        <ele>575</ele>
        <time>2019-05-15T12:24:17.082Z</time>
      </trkpt>
      <trkpt lat="48.45401" lon="7.13026">
        <ele>576</ele>
        <time>2019-05-15T12:24:18.082Z</time>
      </trkpt>
      <trkpt lat="48.45402" lon="7.13026">
        <ele>578</ele>
        <time>2019-05-15T12:24:19.082Z</time>
      </trkpt>
      <trkpt lat="48.45402" lon="7.13026">
        <ele>580</ele>
        <time>2019-05-15T12:24:20.082Z</time>
      </trkpt>
      <trkpt lat="48.45401" lon="7.13027">
        <ele>581</ele>
        <time>2019-05-15T12:24:21.082Z</time>
      </trkpt>
      <trkpt lat="48.45401" lon="7.13027">
        <ele>582</ele>
        <time>2019-05-15T12:24:22.082Z</time>
      </trkpt>
      <trkpt lat="48.45401" lon="7.13027">
        <ele>580</ele>
        <time>2019-05-15T12:24:23.082Z</time>
      </trkpt>
      <trkpt lat="48.45401" lon="7.13028">
        <ele>579</ele>
        <time>2019-05-15T12:24:24.082Z</time>
      </trkpt>
      <trkpt lat="48.45401" lon="7.13028">
        <ele>577</ele>
        <time>2019-05-15T12:24:25.082Z</time>
      </trkpt>
      <trkpt lat="48.45401" lon="7.13028">
        <ele>577</ele>
        <time>2019-05-15T12:24:26.082Z</time>
      </trkpt>
      <trkpt lat="48.45401" lon="7.13028">
        <ele>577</ele>
        <time>2019-05-15T12:24:27.082Z</time>
      </trkpt>
      <trkpt lat="48.45401" lon="7.13028">
        <ele>576</ele>
        <time>2019-05-15T12:24:28.082Z</time>
      </trkpt>
      <trkpt lat="48.45401" lon="7.13028">
        <ele>576</ele>
        <time>2019-05-15T12:24:29.082Z</time>
      </trkpt>
      <trkpt lat="48.45401" lon="7.13028">
        <ele>576</ele>
        <time>2019-05-15T12:24:30.082Z</time>
      </trkpt>
      <trkpt lat="48.45401" lon="7.13028">
        <ele>577</ele>
        <time>2019-05-15T12:24:31.082Z</time>
      </trkpt>
      <trkpt lat="48.45401" lon="7.13028">
        <ele>579</ele>
        <time>2019-05-15T12:24:32.082Z</time>
      </trkpt>
      <trkpt lat="48.45401" lon="7.13028">
        <ele>578</ele>
        <time>2019-05-15T12:24:33.082Z</time>
      </trkpt>
      <trkpt lat="48.45401" lon="7.13028">
        <ele>579</ele>
        <time>2019-05-15T12:24:34.082Z</time>
      </trkpt>
      <trkpt lat="48.45401" lon="7.13028">
        <ele>579</ele>
        <time>2019-05-15T12:24:35.082Z</time>
      </trkpt>
      <trkpt lat="48.45401" lon="7.13028">
        <ele>578</ele>
        <time>2019-05-15T12:24:36.082Z</time>
      </trkpt>
      <trkpt lat="48.45401" lon="7.13028">
        <ele>578</ele>
        <time>2019-05-15T12:24:37.082Z</time>
      </trkpt>
      <trkpt lat="48.45401" lon="7.13028">
        <ele>578</ele>
        <time>2019-05-15T12:24:38.082Z</time>
      </trkpt>
      <trkpt lat="48.45401" lon="7.13028">
        <ele>577</ele>
        <time>2019-05-15T12:24:39.082Z</time>
      </trkpt>
      <trkpt lat="48.45401" lon="7.13028">
        <ele>577</ele>
        <time>2019-05-15T12:24:40.082Z</time>
      </trkpt>
      <trkpt lat="48.45401" lon="7.13028">
        <ele>576</ele>
        <time>2019-05-15T12:24:41.082Z</time>
      </trkpt>
      <trkpt lat="48.45402" lon="7.13028">
        <ele>577</ele>
        <time>2019-05-15T12:24:42.082Z</time>
      </trkpt>
      <trkpt lat="48.45402" lon="7.13028">
        <ele>577</ele>
        <time>2019-05-15T12:24:43.082Z</time>
      </trkpt>
      <trkpt lat="48.45402" lon="7.13028">
        <ele>578</ele>
        <time>2019-05-15T12:24:44.082Z</time>
      </trkpt>
      <trkpt lat="48.45402" lon="7.13028">
        <ele>579</ele>
        <time>2019-05-15T12:24:45.082Z</time>
      </trkpt>
      <trkpt lat="48.45402" lon="7.13028">
        <ele>579</ele>
        <time>2019-05-15T12:24:46.082Z</time>
      </trkpt>
      <trkpt lat="48.45402" lon="7.13028">
        <ele>580</ele>
        <time>2019-05-15T12:24:47.082Z</time>
      </trkpt>
      <trkpt lat="48.45402" lon="7.13028">
        <ele>580</ele>
        <time>2019-05-15T12:24:48.082Z</time>
      </trkpt>
      <trkpt lat="48.45402" lon="7.13028">
        <ele>581</ele>
        <time>2019-05-15T12:24:49.082Z</time>
      </trkpt>
      <trkpt lat="48.45402" lon="7.13028">
        <ele>581</ele>
        <time>2019-05-15T12:24:50.082Z</time>
      </trkpt>
      <trkpt lat="48.45402" lon="7.13028">
        <ele>581</ele>
        <time>2019-05-15T12:24:51.082Z</time>
      </trkpt>
      <trkpt lat="48.45402" lon="7.13028">
        <ele>581</ele>
        <time>2019-05-15T12:24:52.082Z</time>
      </trkpt>
      <trkpt lat="48.45402" lon="7.13028">
        <ele>580</ele>
        <time>2019-05-15T12:24:53.082Z</time>
      </trkpt>
      <trkpt lat="48.45403" lon="7.13028">
        <ele>580</ele>
        <time>2019-05-15T12:24:54.082Z</time>
      </trkpt>
      <trkpt lat="48.45403" lon="7.13028">
        <ele>579</ele>
        <time>2019-05-15T12:24:55.082Z</time>
      </trkpt>
      <trkpt lat="48.45403" lon="7.13028">
        <ele>579</ele>
        <time>2019-05-15T12:24:56.082Z</time>
      </trkpt>
      <trkpt lat="48.45403" lon="7.13028">
        <ele>578</ele>
        <time>2019-05-15T12:24:57.082Z</time>
      </trkpt>
      <trkpt lat="48.45403" lon="7.13028">
        <ele>578</ele>
        <time>2019-05-15T12:24:58.082Z</time>
      </trkpt>
      <trkpt lat="48.45403" lon="7.13028">
        <ele>577</ele>
        <time>2019-05-15T12:24:59.082Z</time>
      </trkpt>
      <trkpt lat="48.45403" lon="7.13028">
        <ele>577</ele>
        <time>2019-05-15T12:25:00.082Z</time>
      </trkpt>
      <trkpt lat="48.45403" lon="7.13029">
        <ele>578</ele>
        <time>2019-05-15T12:25:01.082Z</time>
      </trkpt>
      <trkpt lat="48.45403" lon="7.13029">
        <ele>578</ele>
        <time>2019-05-15T12:25:02.082Z</time>
      </trkpt>
      <trkpt lat="48.45403" lon="7.13029">
        <ele>578</ele>
        <time>2019-05-15T12:25:03.082Z</time>
      </trkpt>
      <trkpt lat="48.45403" lon="7.13029">
        <ele>578</ele>
        <time>2019-05-15T12:25:04.082Z</time>
      </trkpt>
      <trkpt lat="48.45403" lon="7.13029">
        <ele>578</ele>
        <time>2019-05-15T12:25:05.082Z</time>
      </trkpt>
      <trkpt lat="48.45402" lon="7.13029">
        <ele>577</ele>
        <time>2019-05-15T12:25:06.082Z</time>
      </trkpt>
      <trkpt lat="48.45402" lon="7.13029">
        <ele>577</ele>
        <time>2019-05-15T12:25:07.082Z</time>
      </trkpt>
      <trkpt lat="48.45402" lon="7.13029">
        <ele>577</ele>
        <time>2019-05-15T12:25:08.082Z</time>
      </trkpt>
      <trkpt lat="48.45402" lon="7.13029">
        <ele>576</ele>
        <time>2019-05-15T12:25:09.082Z</time>
      </trkpt>
      <trkpt lat="48.45402" lon="7.13029">
        <ele>576</ele>
        <time>2019-05-15T12:25:10.082Z</time>
      </trkpt>
      <trkpt lat="48.45402" lon="7.13029">
        <ele>576</ele>
        <time>2019-05-15T12:25:11.082Z</time>
      </trkpt>
      <trkpt lat="48.45402" lon="7.13029">
        <ele>575</ele>
        <time>2019-05-15T12:25:12.082Z</time>
      </trkpt>
      <trkpt lat="48.45402" lon="7.13029">
        <ele>575</ele>
        <time>2019-05-15T12:25:13.082Z</time>
      </trkpt>
      <trkpt lat="48.45402" lon="7.13029">
        <ele>575</ele>
        <time>2019-05-15T12:25:14.082Z</time>
      </trkpt>
      <trkpt lat="48.45402" lon="7.13029">
        <ele>575</ele>
        <time>2019-05-15T12:25:15.082Z</time>
      </trkpt>
      <trkpt lat="48.45402" lon="7.13029">
        <ele>574</ele>
        <time>2019-05-15T12:25:16.082Z</time>
      </trkpt>
      <trkpt lat="48.45402" lon="7.13029">
        <ele>575</ele>
        <time>2019-05-15T12:25:17.082Z</time>
      </trkpt>
      <trkpt lat="48.45402" lon="7.13029">
        <ele>575</ele>
        <time>2019-05-15T12:25:18.082Z</time>
      </trkpt>
      <trkpt lat="48.45402" lon="7.13029">
        <ele>575</ele>
        <time>2019-05-15T12:25:19.082Z</time>
      </trkpt>
      <trkpt lat="48.45402" lon="7.13029">
        <ele>575</ele>
        <time>2019-05-15T12:25:20.082Z</time>
      </trkpt>
      <trkpt lat="48.45402" lon="7.13029">
        <ele>575</ele>
        <time>2019-05-15T12:25:21.082Z</time>
      </trkpt>
      <trkpt lat="48.45402" lon="7.13029">
        <ele>575</ele>
        <time>2019-05-15T12:25:22.082Z</time>
      </trkpt>
      <trkpt lat="48.45402" lon="7.13029">
        <ele>575</ele>
        <time>2019-05-15T12:25:23.082Z</time>
      </trkpt>
      <trkpt lat="48.45402" lon="7.13029">
        <ele>575</ele>
        <time>2019-05-15T12:25:24.082Z</time>
      </trkpt>
      <trkpt lat="48.45402" lon="7.13029">
        <ele>576</ele>
        <time>2019-05-15T12:25:25.082Z</time>
      </trkpt>
      <trkpt lat="48.45401" lon="7.13029">
        <ele>576</ele>
        <time>2019-05-15T12:25:26.082Z</time>
      </trkpt>
      <trkpt lat="48.45401" lon="7.13029">
        <ele>576</ele>
        <time>2019-05-15T12:25:27.082Z</time>
      </trkpt>
      <trkpt lat="48.45401" lon="7.13029">
        <ele>577</ele>
        <time>2019-05-15T12:25:28.082Z</time>
      </trkpt>
      <trkpt lat="48.45401" lon="7.13029">
        <ele>579</ele>
        <time>2019-05-15T12:25:29.082Z</time>
      </trkpt>
      <trkpt lat="48.454" lon="7.13029">
        <ele>580</ele>
        <time>2019-05-15T12:25:30.082Z</time>
      </trkpt>
      <trkpt lat="48.454" lon="7.13029">
        <ele>581</ele>
        <time>2019-05-15T12:25:31.082Z</time>
      </trkpt>
      <trkpt lat="48.454" lon="7.13029">
        <ele>581</ele>
        <time>2019-05-15T12:25:32.082Z</time>
      </trkpt>
      <trkpt lat="48.454" lon="7.13029">
        <ele>580</ele>
        <time>2019-05-15T12:25:33.082Z</time>
      </trkpt>
      <trkpt lat="48.454" lon="7.1303">
        <ele>580</ele>
        <time>2019-05-15T12:25:34.082Z</time>
      </trkpt>
      <trkpt lat="48.454" lon="7.1303">
        <ele>580</ele>
        <time>2019-05-15T12:25:35.082Z</time>
      </trkpt>
      <trkpt lat="48.454" lon="7.13031">
        <ele>579</ele>
        <time>2019-05-15T12:25:36.082Z</time>
      </trkpt>
      <trkpt lat="48.454" lon="7.13031">
        <ele>577</ele>
        <time>2019-05-15T12:25:37.082Z</time>
      </trkpt>
      <trkpt lat="48.454" lon="7.13032">
        <ele>577</ele>
        <time>2019-05-15T12:25:38.082Z</time>
      </trkpt>
      <trkpt lat="48.454" lon="7.13033">
        <ele>577</ele>
        <time>2019-05-15T12:25:39.082Z</time>
      </trkpt>
      <trkpt lat="48.454" lon="7.13034">
        <ele>578</ele>
        <time>2019-05-15T12:25:40.082Z</time>
      </trkpt>
      <trkpt lat="48.454" lon="7.13035">
        <ele>578</ele>
        <time>2019-05-15T12:25:41.082Z</time>
      </trkpt>
      <trkpt lat="48.454" lon="7.13036">
        <ele>578</ele>
        <time>2019-05-15T12:25:42.082Z</time>
      </trkpt>
      <trkpt lat="48.454" lon="7.13037">
        <ele>576</ele>
        <time>2019-05-15T12:25:43.082Z</time>
      </trkpt>
      <trkpt lat="48.45399" lon="7.13038">
        <ele>576</ele>
        <time>2019-05-15T12:25:44.082Z</time>
      </trkpt>
      <trkpt lat="48.45399" lon="7.1304">
        <ele>575</ele>
        <time>2019-05-15T12:25:45.082Z</time>
      </trkpt>
      <trkpt lat="48.45399" lon="7.13041">
        <ele>573</ele>
        <time>2019-05-15T12:25:46.082Z</time>
      </trkpt>
      <trkpt lat="48.45398" lon="7.13042">
        <ele>573</ele>
        <time>2019-05-15T12:25:47.082Z</time>
      </trkpt>
      <trkpt lat="48.45398" lon="7.13043">
        <ele>572</ele>
        <time>2019-05-15T12:25:48.082Z</time>
      </trkpt>
      <trkpt lat="48.45398" lon="7.13043">
        <ele>571</ele>
        <time>2019-05-15T12:25:49.082Z</time>
      </trkpt>
      <trkpt lat="48.45397" lon="7.13044">
        <ele>571</ele>
        <time>2019-05-15T12:25:50.082Z</time>
      </trkpt>
      <trkpt lat="48.45397" lon="7.13044">
        <ele>570</ele>
        <time>2019-05-15T12:25:51.082Z</time>
      </trkpt>
      <trkpt lat="48.45397" lon="7.13045">
        <ele>569</ele>
        <time>2019-05-15T12:25:52.082Z</time>
      </trkpt>
      <trkpt lat="48.45396" lon="7.13046">
        <ele>569</ele>
        <time>2019-05-15T12:25:53.082Z</time>
      </trkpt>
      <trkpt lat="48.45396" lon="7.13047">
        <ele>569</ele>
        <time>2019-05-15T12:25:54.082Z</time>
      </trkpt>
      <trkpt lat="48.45395" lon="7.13048">
        <ele>568</ele>
        <time>2019-05-15T12:25:55.082Z</time>
      </trkpt>
      <trkpt lat="48.45395" lon="7.13049">
        <ele>566</ele>
        <time>2019-05-15T12:25:56.082Z</time>
      </trkpt>
      <trkpt lat="48.45395" lon="7.13049">
        <ele>566</ele>
        <time>2019-05-15T12:25:57.082Z</time>
      </trkpt>
      <trkpt lat="48.45394" lon="7.1305">
        <ele>565</ele>
        <time>2019-05-15T12:25:58.082Z</time>
      </trkpt>
      <trkpt lat="48.45394" lon="7.13051">
        <ele>566</ele>
        <time>2019-05-15T12:25:59.082Z</time>
      </trkpt>
      <trkpt lat="48.45393" lon="7.13052">
        <ele>563</ele>
        <time>2019-05-15T12:26:00.082Z</time>
      </trkpt>
      <trkpt lat="48.45393" lon="7.13053">
        <ele>562</ele>
        <time>2019-05-15T12:26:01.082Z</time>
      </trkpt>
      <trkpt lat="48.45393" lon="7.13054">
        <ele>562</ele>
        <time>2019-05-15T12:26:02.082Z</time>
      </trkpt>
      <trkpt lat="48.45392" lon="7.13055">
        <ele>562</ele>
        <time>2019-05-15T12:26:03.082Z</time>
      </trkpt>
      <trkpt lat="48.45391" lon="7.13056">
        <ele>562</ele>
        <time>2019-05-15T12:26:04.082Z</time>
      </trkpt>
      <trkpt lat="48.45391" lon="7.13057">
        <ele>562</ele>
        <time>2019-05-15T12:26:05.082Z</time>
      </trkpt>
      <trkpt lat="48.4539" lon="7.13058">
        <ele>562</ele>
        <time>2019-05-15T12:26:06.082Z</time>
      </trkpt>
      <trkpt lat="48.4539" lon="7.13059">
        <ele>562</ele>
        <time>2019-05-15T12:26:07.082Z</time>
      </trkpt>
      <trkpt lat="48.45389" lon="7.1306">
        <ele>562</ele>
        <time>2019-05-15T12:26:08.082Z</time>
      </trkpt>
      <trkpt lat="48.45389" lon="7.13061">
        <ele>562</ele>
        <time>2019-05-15T12:26:09.082Z</time>
      </trkpt>
      <trkpt lat="48.45388" lon="7.13062">
        <ele>563</ele>
        <time>2019-05-15T12:26:10.082Z</time>
      </trkpt>
      <trkpt lat="48.45388" lon="7.13063">
        <ele>563</ele>
        <time>2019-05-15T12:26:11.082Z</time>
      </trkpt>
      <trkpt lat="48.45388" lon="7.13065">
        <ele>564</ele>
        <time>2019-05-15T12:26:12.082Z</time>
      </trkpt>
      <trkpt lat="48.45387" lon="7.13066">
        <ele>564</ele>
        <time>2019-05-15T12:26:13.082Z</time>
      </trkpt>
      <trkpt lat="48.45387" lon="7.13067">
        <ele>565</ele>
        <time>2019-05-15T12:26:14.082Z</time>
      </trkpt>
      <trkpt lat="48.45387" lon="7.13069">
        <ele>565</ele>
        <time>2019-05-15T12:26:15.082Z</time>
      </trkpt>
      <trkpt lat="48.45387" lon="7.1307">
        <ele>564</ele>
        <time>2019-05-15T12:26:16.082Z</time>
      </trkpt>
      <trkpt lat="48.45386" lon="7.13072">
        <ele>564</ele>
        <time>2019-05-15T12:26:17.082Z</time>
      </trkpt>
      <trkpt lat="48.45386" lon="7.13073">
        <ele>563</ele>
        <time>2019-05-15T12:26:18.082Z</time>
      </trkpt>
      <trkpt lat="48.45386" lon="7.13074">
        <ele>563</ele>
        <time>2019-05-15T12:26:19.082Z</time>
      </trkpt>
      <trkpt lat="48.45385" lon="7.13075">
        <ele>562</ele>
        <time>2019-05-15T12:26:20.082Z</time>
      </trkpt>
      <trkpt lat="48.45385" lon="7.13076">
        <ele>562</ele>
        <time>2019-05-15T12:26:21.082Z</time>
      </trkpt>
      <trkpt lat="48.45385" lon="7.13077">
        <ele>562</ele>
        <time>2019-05-15T12:26:22.082Z</time>
      </trkpt>
      <trkpt lat="48.45385" lon="7.13078">
        <ele>561</ele>
        <time>2019-05-15T12:26:23.082Z</time>
      </trkpt>
      <trkpt lat="48.45385" lon="7.13079">
        <ele>561</ele>
        <time>2019-05-15T12:26:24.082Z</time>
      </trkpt>
      <trkpt lat="48.45385" lon="7.13081">
        <ele>561</ele>
        <time>2019-05-15T12:26:25.082Z</time>
      </trkpt>
      <trkpt lat="48.45385" lon="7.13082">
        <ele>560</ele>
        <time>2019-05-15T12:26:26.082Z</time>
      </trkpt>
      <trkpt lat="48.45385" lon="7.13083">
        <ele>559</ele>
        <time>2019-05-15T12:26:27.082Z</time>
      </trkpt>
      <trkpt lat="48.45385" lon="7.13085">
        <ele>559</ele>
        <time>2019-05-15T12:26:28.082Z</time>
      </trkpt>
      <trkpt lat="48.45385" lon="7.13086">
        <ele>558</ele>
        <time>2019-05-15T12:26:29.082Z</time>
      </trkpt>
      <trkpt lat="48.45384" lon="7.13087">
        <ele>557</ele>
        <time>2019-05-15T12:26:30.082Z</time>
      </trkpt>
      <trkpt lat="48.45384" lon="7.13089">
        <ele>557</ele>
        <time>2019-05-15T12:26:31.082Z</time>
      </trkpt>
      <trkpt lat="48.45384" lon="7.1309">
        <ele>556</ele>
        <time>2019-05-15T12:26:32.082Z</time>
      </trkpt>
      <trkpt lat="48.45384" lon="7.13091">
        <ele>557</ele>
        <time>2019-05-15T12:26:33.082Z</time>
      </trkpt>
      <trkpt lat="48.45384" lon="7.13093">
        <ele>557</ele>
        <time>2019-05-15T12:26:34.082Z</time>
      </trkpt>
      <trkpt lat="48.45384" lon="7.13094">
        <ele>557</ele>
        <time>2019-05-15T12:26:35.082Z</time>
      </trkpt>
      <trkpt lat="48.45384" lon="7.13096">
        <ele>557</ele>
        <time>2019-05-15T12:26:36.082Z</time>
      </trkpt>
      <trkpt lat="48.45384" lon="7.13097">
        <ele>557</ele>
        <time>2019-05-15T12:26:37.082Z</time>
      </trkpt>
      <trkpt lat="48.45384" lon="7.13097">
        <ele>557</ele>
        <time>2019-05-15T12:26:38.082Z</time>
      </trkpt>
      <trkpt lat="48.45384" lon="7.13098">
        <ele>557</ele>
        <time>2019-05-15T12:26:39.082Z</time>
      </trkpt>
      <trkpt lat="48.45384" lon="7.13098">
        <ele>557</ele>
        <time>2019-05-15T12:26:40.082Z</time>
      </trkpt>
      <trkpt lat="48.45384" lon="7.13099">
        <ele>557</ele>
        <time>2019-05-15T12:26:41.082Z</time>
      </trkpt>
      <trkpt lat="48.45384" lon="7.13099">
        <ele>557</ele>
        <time>2019-05-15T12:26:42.082Z</time>
      </trkpt>
      <trkpt lat="48.45384" lon="7.131">
        <ele>556</ele>
        <time>2019-05-15T12:26:43.082Z</time>
      </trkpt>
      <trkpt lat="48.45384" lon="7.13101">
        <ele>556</ele>
        <time>2019-05-15T12:26:44.082Z</time>
      </trkpt>
      <trkpt lat="48.45384" lon="7.13102">
        <ele>555</ele>
        <time>2019-05-15T12:26:45.082Z</time>
      </trkpt>
      <trkpt lat="48.45384" lon="7.13103">
        <ele>555</ele>
        <time>2019-05-15T12:26:46.082Z</time>
      </trkpt>
      <trkpt lat="48.45384" lon="7.13104">
        <ele>555</ele>
        <time>2019-05-15T12:26:47.082Z</time>
      </trkpt>
      <trkpt lat="48.45384" lon="7.13105">
        <ele>555</ele>
        <time>2019-05-15T12:26:48.082Z</time>
      </trkpt>
      <trkpt lat="48.45384" lon="7.13106">
        <ele>555</ele>
        <time>2019-05-15T12:26:49.082Z</time>
      </trkpt>
      <trkpt lat="48.45384" lon="7.13106">
        <ele>555</ele>
        <time>2019-05-15T12:26:50.082Z</time>
      </trkpt>
      <trkpt lat="48.45384" lon="7.13106">
        <ele>555</ele>
        <time>2019-05-15T12:26:51.082Z</time>
      </trkpt>
      <trkpt lat="48.45384" lon="7.13106">
        <ele>555</ele>
        <time>2019-05-15T12:26:52.082Z</time>
      </trkpt>
      <trkpt lat="48.45384" lon="7.13107">
        <ele>555</ele>
        <time>2019-05-15T12:26:53.082Z</time>
      </trkpt>
      <trkpt lat="48.45384" lon="7.13108">
        <ele>555</ele>
        <time>2019-05-15T12:26:54.082Z</time>
      </trkpt>
      <trkpt lat="48.45384" lon="7.1311">
        <ele>555</ele>
        <time>2019-05-15T12:26:55.082Z</time>
      </trkpt>
      <trkpt lat="48.45384" lon="7.13111">
        <ele>554</ele>
        <time>2019-05-15T12:26:56.082Z</time>
      </trkpt>
      <trkpt lat="48.45384" lon="7.13112">
        <ele>555</ele>
        <time>2019-05-15T12:26:57.082Z</time>
      </trkpt>
      <trkpt lat="48.45384" lon="7.13113">
        <ele>554</ele>
        <time>2019-05-15T12:26:58.082Z</time>
      </trkpt>
      <trkpt lat="48.45384" lon="7.13115">
        <ele>554</ele>
        <time>2019-05-15T12:26:59.082Z</time>
      </trkpt>
      <trkpt lat="48.45384" lon="7.13116">
        <ele>554</ele>
        <time>2019-05-15T12:27:00.082Z</time>
      </trkpt>
      <trkpt lat="48.45384" lon="7.13117">
        <ele>554</ele>
        <time>2019-05-15T12:27:01.082Z</time>
      </trkpt>
      <trkpt lat="48.45384" lon="7.13118">
        <ele>554</ele>
        <time>2019-05-15T12:27:02.082Z</time>
      </trkpt>
      <trkpt lat="48.45384" lon="7.13119">
        <ele>554</ele>
        <time>2019-05-15T12:27:03.082Z</time>
      </trkpt>
      <trkpt lat="48.45384" lon="7.1312">
        <ele>554</ele>
        <time>2019-05-15T12:27:04.082Z</time>
      </trkpt>
      <trkpt lat="48.45384" lon="7.13121">
        <ele>554</ele>
        <time>2019-05-15T12:27:05.082Z</time>
      </trkpt>
      <trkpt lat="48.45383" lon="7.13122">
        <ele>554</ele>
        <time>2019-05-15T12:27:06.082Z</time>
      </trkpt>
      <trkpt lat="48.45383" lon="7.13123">
        <ele>554</ele>
        <time>2019-05-15T12:27:07.082Z</time>
      </trkpt>
      <trkpt lat="48.45383" lon="7.13123">
        <ele>554</ele>
        <time>2019-05-15T12:27:08.082Z</time>
      </trkpt>
      <trkpt lat="48.45383" lon="7.13124">
        <ele>554</ele>
        <time>2019-05-15T12:27:09.082Z</time>
      </trkpt>
      <trkpt lat="48.45383" lon="7.13125">
        <ele>554</ele>
        <time>2019-05-15T12:27:10.082Z</time>
      </trkpt>
      <trkpt lat="48.45383" lon="7.13126">
        <ele>554</ele>
        <time>2019-05-15T12:27:11.082Z</time>
      </trkpt>
      <trkpt lat="48.45383" lon="7.13127">
        <ele>554</ele>
        <time>2019-05-15T12:27:12.082Z</time>
      </trkpt>
      <trkpt lat="48.45383" lon="7.13128">
        <ele>555</ele>
        <time>2019-05-15T12:27:13.082Z</time>
      </trkpt>
      <trkpt lat="48.45383" lon="7.13129">
        <ele>555</ele>
        <time>2019-05-15T12:27:14.082Z</time>
      </trkpt>
      <trkpt lat="48.45384" lon="7.1313">
        <ele>555</ele>
        <time>2019-05-15T12:27:15.082Z</time>
      </trkpt>
      <trkpt lat="48.45384" lon="7.13131">
        <ele>556</ele>
        <time>2019-05-15T12:27:16.082Z</time>
      </trkpt>
      <trkpt lat="48.45384" lon="7.13132">
        <ele>556</ele>
        <time>2019-05-15T12:27:17.082Z</time>
      </trkpt>
      <trkpt lat="48.45384" lon="7.13133">
        <ele>556</ele>
        <time>2019-05-15T12:27:18.082Z</time>
      </trkpt>
      <trkpt lat="48.45384" lon="7.13134">
        <ele>557</ele>
        <time>2019-05-15T12:27:19.082Z</time>
      </trkpt>
      <trkpt lat="48.45384" lon="7.13135">
        <ele>557</ele>
        <time>2019-05-15T12:27:20.082Z</time>
      </trkpt>
      <trkpt lat="48.45384" lon="7.13136">
        <ele>557</ele>
        <time>2019-05-15T12:27:21.082Z</time>
      </trkpt>
      <trkpt lat="48.45384" lon="7.13136">
        <ele>558</ele>
        <time>2019-05-15T12:27:22.082Z</time>
      </trkpt>
      <trkpt lat="48.45384" lon="7.13137">
        <ele>558</ele>
        <time>2019-05-15T12:27:23.082Z</time>
      </trkpt>
      <trkpt lat="48.45383" lon="7.13138">
        <ele>558</ele>
        <time>2019-05-15T12:27:24.082Z</time>
      </trkpt>
      <trkpt lat="48.45383" lon="7.13138">
        <ele>558</ele>
        <time>2019-05-15T12:27:25.082Z</time>
      </trkpt>
      <trkpt lat="48.45382" lon="7.13139">
        <ele>558</ele>
        <time>2019-05-15T12:27:26.082Z</time>
      </trkpt>
      <trkpt lat="48.45382" lon="7.1314">
        <ele>558</ele>
        <time>2019-05-15T12:27:27.082Z</time>
      </trkpt>
      <trkpt lat="48.45382" lon="7.13141">
        <ele>558</ele>
        <time>2019-05-15T12:27:28.082Z</time>
      </trkpt>
      <trkpt lat="48.45383" lon="7.13143">
        <ele>558</ele>
        <time>2019-05-15T12:27:29.082Z</time>
      </trkpt>
      <trkpt lat="48.45383" lon="7.13144">
        <ele>558</ele>
        <time>2019-05-15T12:27:30.082Z</time>
      </trkpt>
      <trkpt lat="48.45383" lon="7.13145">
        <ele>559</ele>
        <time>2019-05-15T12:27:31.082Z</time>
      </trkpt>
      <trkpt lat="48.45383" lon="7.13146">
        <ele>559</ele>
        <time>2019-05-15T12:27:32.082Z</time>
      </trkpt>
      <trkpt lat="48.45384" lon="7.13147">
        <ele>559</ele>
        <time>2019-05-15T12:27:33.082Z</time>
      </trkpt>
      <trkpt lat="48.45384" lon="7.13148">
        <ele>559</ele>
        <time>2019-05-15T12:27:34.082Z</time>
      </trkpt>
      <trkpt lat="48.45384" lon="7.13149">
        <ele>559</ele>
        <time>2019-05-15T12:27:35.082Z</time>
      </trkpt>
      <trkpt lat="48.45384" lon="7.13151">
        <ele>559</ele>
        <time>2019-05-15T12:27:36.082Z</time>
      </trkpt>
      <trkpt lat="48.45385" lon="7.13152">
        <ele>559</ele>
        <time>2019-05-15T12:27:37.082Z</time>
      </trkpt>
      <trkpt lat="48.45385" lon="7.13153">
        <ele>559</ele>
        <time>2019-05-15T12:27:38.082Z</time>
      </trkpt>
      <trkpt lat="48.45385" lon="7.13155">
        <ele>559</ele>
        <time>2019-05-15T12:27:39.082Z</time>
      </trkpt>
      <trkpt lat="48.45385" lon="7.13156">
        <ele>559</ele>
        <time>2019-05-15T12:27:40.082Z</time>
      </trkpt>
      <trkpt lat="48.45385" lon="7.13157">
        <ele>559</ele>
        <time>2019-05-15T12:27:41.082Z</time>
      </trkpt>
      <trkpt lat="48.45386" lon="7.13159">
        <ele>559</ele>
        <time>2019-05-15T12:27:42.082Z</time>
      </trkpt>
      <trkpt lat="48.45386" lon="7.1316">
        <ele>559</ele>
        <time>2019-05-15T12:27:43.082Z</time>
      </trkpt>
      <trkpt lat="48.45387" lon="7.1316">
        <ele>558</ele>
        <time>2019-05-15T12:27:44.082Z</time>
      </trkpt>
      <trkpt lat="48.45387" lon="7.13161">
        <ele>559</ele>
        <time>2019-05-15T12:27:45.082Z</time>
      </trkpt>
      <trkpt lat="48.45388" lon="7.13163">
        <ele>559</ele>
        <time>2019-05-15T12:27:46.082Z</time>
      </trkpt>
      <trkpt lat="48.45389" lon="7.13164">
        <ele>559</ele>
        <time>2019-05-15T12:27:47.082Z</time>
      </trkpt>
      <trkpt lat="48.45389" lon="7.13165">
        <ele>559</ele>
        <time>2019-05-15T12:27:48.082Z</time>
      </trkpt>
      <trkpt lat="48.45389" lon="7.13165">
        <ele>559</ele>
        <time>2019-05-15T12:27:49.082Z</time>
      </trkpt>
      <trkpt lat="48.4539" lon="7.13165">
        <ele>560</ele>
        <time>2019-05-15T12:27:50.082Z</time>
      </trkpt>
      <trkpt lat="48.4539" lon="7.13165">
        <ele>559</ele>
        <time>2019-05-15T12:27:51.082Z</time>
      </trkpt>
      <trkpt lat="48.4539" lon="7.13165">
        <ele>559</ele>
        <time>2019-05-15T12:27:52.082Z</time>
      </trkpt>
      <trkpt lat="48.4539" lon="7.13165">
        <ele>559</ele>
        <time>2019-05-15T12:27:53.082Z</time>
      </trkpt>
      <trkpt lat="48.4539" lon="7.13166">
        <ele>559</ele>
        <time>2019-05-15T12:27:54.082Z</time>
      </trkpt>
      <trkpt lat="48.4539" lon="7.13166">
        <ele>559</ele>
        <time>2019-05-15T12:27:55.082Z</time>
      </trkpt>
      <trkpt lat="48.4539" lon="7.13166">
        <ele>559</ele>
        <time>2019-05-15T12:27:56.082Z</time>
      </trkpt>
      <trkpt lat="48.4539" lon="7.13166">
        <ele>559</ele>
        <time>2019-05-15T12:27:57.082Z</time>
      </trkpt>
      <trkpt lat="48.4539" lon="7.13167">
        <ele>559</ele>
        <time>2019-05-15T12:27:58.082Z</time>
      </trkpt>
      <trkpt lat="48.4539" lon="7.13168">
        <ele>558</ele>
        <time>2019-05-15T12:27:59.082Z</time>
      </trkpt>
      <trkpt lat="48.4539" lon="7.13169">
        <ele>558</ele>
        <time>2019-05-15T12:28:00.082Z</time>
      </trkpt>
      <trkpt lat="48.4539" lon="7.1317">
        <ele>558</ele>
        <time>2019-05-15T12:28:01.082Z</time>
      </trkpt>
      <trkpt lat="48.45391" lon="7.13172">
        <ele>558</ele>
        <time>2019-05-15T12:28:02.082Z</time>
      </trkpt>
      <trkpt lat="48.45392" lon="7.13173">
        <ele>558</ele>
        <time>2019-05-15T12:28:03.082Z</time>
      </trkpt>
      <trkpt lat="48.45392" lon="7.13174">
        <ele>558</ele>
        <time>2019-05-15T12:28:04.082Z</time>
      </trkpt>
      <trkpt lat="48.45393" lon="7.13175">
        <ele>558</ele>
        <time>2019-05-15T12:28:05.082Z</time>
      </trkpt>
      <trkpt lat="48.45394" lon="7.13176">
        <ele>558</ele>
        <time>2019-05-15T12:28:06.082Z</time>
      </trkpt>
      <trkpt lat="48.45394" lon="7.13177">
        <ele>558</ele>
        <time>2019-05-15T12:28:07.082Z</time>
      </trkpt>
      <trkpt lat="48.45395" lon="7.13178">
        <ele>558</ele>
        <time>2019-05-15T12:28:08.082Z</time>
      </trkpt>
      <trkpt lat="48.45395" lon="7.13179">
        <ele>558</ele>
        <time>2019-05-15T12:28:09.082Z</time>
      </trkpt>
      <trkpt lat="48.45396" lon="7.13181">
        <ele>558</ele>
        <time>2019-05-15T12:28:10.082Z</time>
      </trkpt>
      <trkpt lat="48.45397" lon="7.13182">
        <ele>558</ele>
        <time>2019-05-15T12:28:11.082Z</time>
      </trkpt>
      <trkpt lat="48.45397" lon="7.13183">
        <ele>558</ele>
        <time>2019-05-15T12:28:12.082Z</time>
      </trkpt>
      <trkpt lat="48.45398" lon="7.13184">
        <ele>558</ele>
        <time>2019-05-15T12:28:13.082Z</time>
      </trkpt>
      <trkpt lat="48.45398" lon="7.13185">
        <ele>558</ele>
        <time>2019-05-15T12:28:14.082Z</time>
      </trkpt>
      <trkpt lat="48.45399" lon="7.13187">
        <ele>558</ele>
        <time>2019-05-15T12:28:15.082Z</time>
      </trkpt>
      <trkpt lat="48.454" lon="7.13188">
        <ele>558</ele>
        <time>2019-05-15T12:28:16.082Z</time>
      </trkpt>
      <trkpt lat="48.454" lon="7.13189">
        <ele>558</ele>
        <time>2019-05-15T12:28:17.082Z</time>
      </trkpt>
      <trkpt lat="48.45401" lon="7.1319">
        <ele>558</ele>
        <time>2019-05-15T12:28:18.082Z</time>
      </trkpt>
      <trkpt lat="48.45402" lon="7.13192">
        <ele>558</ele>
        <time>2019-05-15T12:28:19.082Z</time>
      </trkpt>
      <trkpt lat="48.45402" lon="7.13193">
        <ele>559</ele>
        <time>2019-05-15T12:28:20.082Z</time>
      </trkpt>
      <trkpt lat="48.45403" lon="7.13194">
        <ele>559</ele>
        <time>2019-05-15T12:28:21.082Z</time>
      </trkpt>
      <trkpt lat="48.45404" lon="7.13195">
        <ele>559</ele>
        <time>2019-05-15T12:28:22.082Z</time>
      </trkpt>
      <trkpt lat="48.45404" lon="7.13197">
        <ele>559</ele>
        <time>2019-05-15T12:28:23.082Z</time>
      </trkpt>
      <trkpt lat="48.45405" lon="7.13198">
        <ele>559</ele>
        <time>2019-05-15T12:28:24.082Z</time>
      </trkpt>
      <trkpt lat="48.45405" lon="7.13199">
        <ele>559</ele>
        <time>2019-05-15T12:28:25.082Z</time>
      </trkpt>
      <trkpt lat="48.45405" lon="7.13201">
        <ele>559</ele>
        <time>2019-05-15T12:28:26.082Z</time>
      </trkpt>
      <trkpt lat="48.45405" lon="7.13202">
        <ele>559</ele>
        <time>2019-05-15T12:28:27.082Z</time>
      </trkpt>
      <trkpt lat="48.45406" lon="7.13203">
        <ele>559</ele>
        <time>2019-05-15T12:28:28.082Z</time>
      </trkpt>
      <trkpt lat="48.45406" lon="7.13204">
        <ele>559</ele>
        <time>2019-05-15T12:28:29.082Z</time>
      </trkpt>
      <trkpt lat="48.45407" lon="7.13205">
        <ele>559</ele>
        <time>2019-05-15T12:28:30.082Z</time>
      </trkpt>
      <trkpt lat="48.45408" lon="7.13206">
        <ele>559</ele>
        <time>2019-05-15T12:28:31.082Z</time>
      </trkpt>
      <trkpt lat="48.45409" lon="7.13207">
        <ele>559</ele>
        <time>2019-05-15T12:28:32.082Z</time>
      </trkpt>
      <trkpt lat="48.45409" lon="7.13208">
        <ele>558</ele>
        <time>2019-05-15T12:28:33.082Z</time>
      </trkpt>
      <trkpt lat="48.4541" lon="7.1321">
        <ele>558</ele>
        <time>2019-05-15T12:28:34.082Z</time>
      </trkpt>
      <trkpt lat="48.4541" lon="7.13211">
        <ele>558</ele>
        <time>2019-05-15T12:28:35.082Z</time>
      </trkpt>
      <trkpt lat="48.45411" lon="7.13212">
        <ele>559</ele>
        <time>2019-05-15T12:28:36.082Z</time>
      </trkpt>
      <trkpt lat="48.45412" lon="7.13213">
        <ele>559</ele>
        <time>2019-05-15T12:28:37.082Z</time>
      </trkpt>
      <trkpt lat="48.45412" lon="7.13215">
        <ele>559</ele>
        <time>2019-05-15T12:28:38.082Z</time>
      </trkpt>
      <trkpt lat="48.45413" lon="7.13216">
        <ele>559</ele>
        <time>2019-05-15T12:28:39.082Z</time>
      </trkpt>
      <trkpt lat="48.45414" lon="7.13217">
        <ele>559</ele>
        <time>2019-05-15T12:28:40.082Z</time>
      </trkpt>
      <trkpt lat="48.45414" lon="7.13218">
        <ele>559</ele>
        <time>2019-05-15T12:28:41.082Z</time>
      </trkpt>
      <trkpt lat="48.45415" lon="7.13219">
        <ele>559</ele>
        <time>2019-05-15T12:28:42.082Z</time>
      </trkpt>
      <trkpt lat="48.45415" lon="7.1322">
        <ele>560</ele>
        <time>2019-05-15T12:28:43.082Z</time>
      </trkpt>
      <trkpt lat="48.45416" lon="7.13221">
        <ele>560</ele>
        <time>2019-05-15T12:28:44.082Z</time>
      </trkpt>
      <trkpt lat="48.45417" lon="7.13222">
        <ele>560</ele>
        <time>2019-05-15T12:28:45.082Z</time>
      </trkpt>
      <trkpt lat="48.45417" lon="7.13223">
        <ele>560</ele>
        <time>2019-05-15T12:28:46.082Z</time>
      </trkpt>
      <trkpt lat="48.45418" lon="7.13225">
        <ele>561</ele>
        <time>2019-05-15T12:28:47.082Z</time>
      </trkpt>
      <trkpt lat="48.45418" lon="7.13226">
        <ele>561</ele>
        <time>2019-05-15T12:28:48.082Z</time>
      </trkpt>
      <trkpt lat="48.45419" lon="7.13227">
        <ele>561</ele>
        <time>2019-05-15T12:28:49.082Z</time>
      </trkpt>
      <trkpt lat="48.4542" lon="7.13228">
        <ele>562</ele>
        <time>2019-05-15T12:28:50.082Z</time>
      </trkpt>
      <trkpt lat="48.45421" lon="7.13229">
        <ele>563</ele>
        <time>2019-05-15T12:28:51.082Z</time>
      </trkpt>
      <trkpt lat="48.45421" lon="7.1323">
        <ele>563</ele>
        <time>2019-05-15T12:28:52.082Z</time>
      </trkpt>
      <trkpt lat="48.45422" lon="7.13231">
        <ele>563</ele>
        <time>2019-05-15T12:28:53.082Z</time>
      </trkpt>
      <trkpt lat="48.45423" lon="7.13232">
        <ele>563</ele>
        <time>2019-05-15T12:28:54.082Z</time>
      </trkpt>
      <trkpt lat="48.45424" lon="7.13233">
        <ele>563</ele>
        <time>2019-05-15T12:28:55.082Z</time>
      </trkpt>
      <trkpt lat="48.45424" lon="7.13235">
        <ele>563</ele>
        <time>2019-05-15T12:28:56.082Z</time>
      </trkpt>
      <trkpt lat="48.45425" lon="7.13236">
        <ele>563</ele>
        <time>2019-05-15T12:28:57.082Z</time>
      </trkpt>
      <trkpt lat="48.45426" lon="7.13237">
        <ele>563</ele>
        <time>2019-05-15T12:28:58.082Z</time>
      </trkpt>
      <trkpt lat="48.45427" lon="7.13238">
        <ele>563</ele>
        <time>2019-05-15T12:28:59.082Z</time>
      </trkpt>
      <trkpt lat="48.45427" lon="7.13239">
        <ele>563</ele>
        <time>2019-05-15T12:29:00.082Z</time>
      </trkpt>
      <trkpt lat="48.45428" lon="7.1324">
        <ele>563</ele>
        <time>2019-05-15T12:29:01.082Z</time>
      </trkpt>
      <trkpt lat="48.45429" lon="7.13241">
        <ele>563</ele>
        <time>2019-05-15T12:29:02.082Z</time>
      </trkpt>
      <trkpt lat="48.4543" lon="7.13242">
        <ele>563</ele>
        <time>2019-05-15T12:29:03.082Z</time>
      </trkpt>
      <trkpt lat="48.4543" lon="7.13243">
        <ele>563</ele>
        <time>2019-05-15T12:29:04.082Z</time>
      </trkpt>
      <trkpt lat="48.45431" lon="7.13245">
        <ele>563</ele>
        <time>2019-05-15T12:29:05.082Z</time>
      </trkpt>
      <trkpt lat="48.45432" lon="7.13246">
        <ele>563</ele>
        <time>2019-05-15T12:29:06.082Z</time>
      </trkpt>
      <trkpt lat="48.45432" lon="7.13247">
        <ele>563</ele>
        <time>2019-05-15T12:29:07.082Z</time>
      </trkpt>
      <trkpt lat="48.45433" lon="7.13248">
        <ele>563</ele>
        <time>2019-05-15T12:29:08.082Z</time>
      </trkpt>
      <trkpt lat="48.45434" lon="7.13249">
        <ele>564</ele>
        <time>2019-05-15T12:29:09.082Z</time>
      </trkpt>
      <trkpt lat="48.45435" lon="7.1325">
        <ele>564</ele>
        <time>2019-05-15T12:29:10.082Z</time>
      </trkpt>
      <trkpt lat="48.45436" lon="7.13251">
        <ele>564</ele>
        <time>2019-05-15T12:29:11.082Z</time>
      </trkpt>
      <trkpt lat="48.45437" lon="7.13252">
        <ele>565</ele>
        <time>2019-05-15T12:29:12.082Z</time>
      </trkpt>
      <trkpt lat="48.45437" lon="7.13252">
        <ele>565</ele>
        <time>2019-05-15T12:29:13.082Z</time>
      </trkpt>
      <trkpt lat="48.45438" lon="7.13254">
        <ele>566</ele>
        <time>2019-05-15T12:29:14.082Z</time>
      </trkpt>
      <trkpt lat="48.45439" lon="7.13255">
        <ele>566</ele>
        <time>2019-05-15T12:29:15.082Z</time>
      </trkpt>
      <trkpt lat="48.4544" lon="7.13256">
        <ele>567</ele>
        <time>2019-05-15T12:29:16.082Z</time>
      </trkpt>
      <trkpt lat="48.4544" lon="7.13257">
        <ele>567</ele>
        <time>2019-05-15T12:29:17.082Z</time>
      </trkpt>
      <trkpt lat="48.45441" lon="7.13258">
        <ele>568</ele>
        <time>2019-05-15T12:29:18.082Z</time>
      </trkpt>
      <trkpt lat="48.45442" lon="7.13259">
        <ele>569</ele>
        <time>2019-05-15T12:29:19.082Z</time>
      </trkpt>
      <trkpt lat="48.45443" lon="7.1326">
        <ele>569</ele>
        <time>2019-05-15T12:29:20.082Z</time>
      </trkpt>
      <trkpt lat="48.45443" lon="7.13261">
        <ele>568</ele>
        <time>2019-05-15T12:29:21.082Z</time>
      </trkpt>
      <trkpt lat="48.45444" lon="7.13262">
        <ele>569</ele>
        <time>2019-05-15T12:29:22.082Z</time>
      </trkpt>
      <trkpt lat="48.45445" lon="7.13263">
        <ele>569</ele>
        <time>2019-05-15T12:29:23.082Z</time>
      </trkpt>
      <trkpt lat="48.45446" lon="7.13264">
        <ele>569</ele>
        <time>2019-05-15T12:29:24.082Z</time>
      </trkpt>
      <trkpt lat="48.45447" lon="7.13265">
        <ele>569</ele>
        <time>2019-05-15T12:29:25.082Z</time>
      </trkpt>
      <trkpt lat="48.45448" lon="7.13266">
        <ele>570</ele>
        <time>2019-05-15T12:29:26.082Z</time>
      </trkpt>
      <trkpt lat="48.45448" lon="7.13266">
        <ele>571</ele>
        <time>2019-05-15T12:29:27.082Z</time>
      </trkpt>
      <trkpt lat="48.45449" lon="7.13267">
        <ele>572</ele>
        <time>2019-05-15T12:29:28.082Z</time>
      </trkpt>
      <trkpt lat="48.4545" lon="7.13268">
        <ele>572</ele>
        <time>2019-05-15T12:29:29.082Z</time>
      </trkpt>
      <trkpt lat="48.45451" lon="7.13269">
        <ele>573</ele>
        <time>2019-05-15T12:29:30.082Z</time>
      </trkpt>
      <trkpt lat="48.45452" lon="7.1327">
        <ele>573</ele>
        <time>2019-05-15T12:29:31.082Z</time>
      </trkpt>
      <trkpt lat="48.45453" lon="7.13271">
        <ele>573</ele>
        <time>2019-05-15T12:29:32.082Z</time>
      </trkpt>
      <trkpt lat="48.45453" lon="7.13271">
        <ele>574</ele>
        <time>2019-05-15T12:29:33.082Z</time>
      </trkpt>
      <trkpt lat="48.45454" lon="7.13272">
        <ele>573</ele>
        <time>2019-05-15T12:29:34.082Z</time>
      </trkpt>
      <trkpt lat="48.45455" lon="7.13273">
        <ele>573</ele>
        <time>2019-05-15T12:29:35.082Z</time>
      </trkpt>
      <trkpt lat="48.45455" lon="7.13274">
        <ele>574</ele>
        <time>2019-05-15T12:29:36.082Z</time>
      </trkpt>
      <trkpt lat="48.45456" lon="7.13275">
        <ele>574</ele>
        <time>2019-05-15T12:29:37.082Z</time>
      </trkpt>
      <trkpt lat="48.45457" lon="7.13276">
        <ele>573</ele>
        <time>2019-05-15T12:29:38.082Z</time>
      </trkpt>
      <trkpt lat="48.45458" lon="7.13277">
        <ele>574</ele>
        <time>2019-05-15T12:29:39.082Z</time>
      </trkpt>
      <trkpt lat="48.45458" lon="7.13278">
        <ele>574</ele>
        <time>2019-05-15T12:29:40.082Z</time>
      </trkpt>
      <trkpt lat="48.45459" lon="7.13279">
        <ele>573</ele>
        <time>2019-05-15T12:29:41.082Z</time>
      </trkpt>
      <trkpt lat="48.45459" lon="7.1328">
        <ele>573</ele>
        <time>2019-05-15T12:29:42.082Z</time>
      </trkpt>
      <trkpt lat="48.4546" lon="7.1328">
        <ele>572</ele>
        <time>2019-05-15T12:29:43.082Z</time>
      </trkpt>
      <trkpt lat="48.45461" lon="7.13281">
        <ele>572</ele>
        <time>2019-05-15T12:29:44.082Z</time>
      </trkpt>
      <trkpt lat="48.45462" lon="7.13282">
        <ele>571</ele>
        <time>2019-05-15T12:29:45.082Z</time>
      </trkpt>
      <trkpt lat="48.45463" lon="7.13283">
        <ele>571</ele>
        <time>2019-05-15T12:29:46.082Z</time>
      </trkpt>
      <trkpt lat="48.45464" lon="7.13285">
        <ele>571</ele>
        <time>2019-05-15T12:29:47.082Z</time>
      </trkpt>
      <trkpt lat="48.45464" lon="7.13286">
        <ele>571</ele>
        <time>2019-05-15T12:29:48.082Z</time>
      </trkpt>
      <trkpt lat="48.45465" lon="7.13287">
        <ele>571</ele>
        <time>2019-05-15T12:29:49.082Z</time>
      </trkpt>
      <trkpt lat="48.45466" lon="7.13288">
        <ele>572</ele>
        <time>2019-05-15T12:29:50.082Z</time>
      </trkpt>
      <trkpt lat="48.45467" lon="7.13289">
        <ele>572</ele>
        <time>2019-05-15T12:29:51.082Z</time>
      </trkpt>
      <trkpt lat="48.45467" lon="7.1329">
        <ele>573</ele>
        <time>2019-05-15T12:29:52.082Z</time>
      </trkpt>
      <trkpt lat="48.45468" lon="7.1329">
        <ele>572</ele>
        <time>2019-05-15T12:29:53.082Z</time>
      </trkpt>
      <trkpt lat="48.45469" lon="7.13291">
        <ele>572</ele>
        <time>2019-05-15T12:29:54.082Z</time>
      </trkpt>
      <trkpt lat="48.4547" lon="7.13293">
        <ele>571</ele>
        <time>2019-05-15T12:29:55.082Z</time>
      </trkpt>
      <trkpt lat="48.45471" lon="7.13294">
        <ele>572</ele>
        <time>2019-05-15T12:29:56.082Z</time>
      </trkpt>
      <trkpt lat="48.45471" lon="7.13295">
        <ele>571</ele>
        <time>2019-05-15T12:29:57.082Z</time>
      </trkpt>
      <trkpt lat="48.45472" lon="7.13296">
        <ele>571</ele>
        <time>2019-05-15T12:29:58.082Z</time>
      </trkpt>
      <trkpt lat="48.45473" lon="7.13298">
        <ele>570</ele>
        <time>2019-05-15T12:29:59.082Z</time>
      </trkpt>
      <trkpt lat="48.45473" lon="7.13299">
        <ele>571</ele>
        <time>2019-05-15T12:30:00.082Z</time>
      </trkpt>
      <trkpt lat="48.45473" lon="7.133">
        <ele>570</ele>
        <time>2019-05-15T12:30:01.082Z</time>
      </trkpt>
      <trkpt lat="48.45474" lon="7.13302">
        <ele>571</ele>
        <time>2019-05-15T12:30:02.082Z</time>
      </trkpt>
      <trkpt lat="48.45474" lon="7.13303">
        <ele>570</ele>
        <time>2019-05-15T12:30:03.082Z</time>
      </trkpt>
      <trkpt lat="48.45475" lon="7.13304">
        <ele>570</ele>
        <time>2019-05-15T12:30:04.082Z</time>
      </trkpt>
      <trkpt lat="48.45475" lon="7.13305">
        <ele>570</ele>
        <time>2019-05-15T12:30:05.082Z</time>
      </trkpt>
      <trkpt lat="48.45476" lon="7.13307">
        <ele>570</ele>
        <time>2019-05-15T12:30:06.082Z</time>
      </trkpt>
      <trkpt lat="48.45476" lon="7.13308">
        <ele>570</ele>
        <time>2019-05-15T12:30:07.082Z</time>
      </trkpt>
      <trkpt lat="48.45477" lon="7.1331">
        <ele>570</ele>
        <time>2019-05-15T12:30:08.082Z</time>
      </trkpt>
      <trkpt lat="48.45477" lon="7.13311">
        <ele>570</ele>
        <time>2019-05-15T12:30:09.082Z</time>
      </trkpt>
      <trkpt lat="48.45478" lon="7.13312">
        <ele>570</ele>
        <time>2019-05-15T12:30:10.082Z</time>
      </trkpt>
      <trkpt lat="48.45478" lon="7.13313">
        <ele>570</ele>
        <time>2019-05-15T12:30:11.082Z</time>
      </trkpt>
      <trkpt lat="48.45479" lon="7.13314">
        <ele>569</ele>
        <time>2019-05-15T12:30:12.082Z</time>
      </trkpt>
      <trkpt lat="48.45479" lon="7.13316">
        <ele>569</ele>
        <time>2019-05-15T12:30:13.082Z</time>
      </trkpt>
      <trkpt lat="48.4548" lon="7.13317">
        <ele>569</ele>
        <time>2019-05-15T12:30:14.082Z</time>
      </trkpt>
      <trkpt lat="48.4548" lon="7.13318">
        <ele>570</ele>
        <time>2019-05-15T12:30:15.082Z</time>
      </trkpt>
      <trkpt lat="48.45481" lon="7.13319">
        <ele>569</ele>
        <time>2019-05-15T12:30:16.082Z</time>
      </trkpt>
      <trkpt lat="48.45481" lon="7.1332">
        <ele>569</ele>
        <time>2019-05-15T12:30:17.082Z</time>
      </trkpt>
      <trkpt lat="48.45482" lon="7.13322">
        <ele>569</ele>
        <time>2019-05-15T12:30:18.082Z</time>
      </trkpt>
      <trkpt lat="48.45482" lon="7.13323">
        <ele>569</ele>
        <time>2019-05-15T12:30:19.082Z</time>
      </trkpt>
      <trkpt lat="48.45483" lon="7.13324">
        <ele>569</ele>
        <time>2019-05-15T12:30:20.082Z</time>
      </trkpt>
      <trkpt lat="48.45483" lon="7.13325">
        <ele>569</ele>
        <time>2019-05-15T12:30:21.082Z</time>
      </trkpt>
      <trkpt lat="48.45484" lon="7.13325">
        <ele>569</ele>
        <time>2019-05-15T12:30:22.082Z</time>
      </trkpt>
      <trkpt lat="48.45485" lon="7.13326">
        <ele>569</ele>
        <time>2019-05-15T12:30:23.082Z</time>
      </trkpt>
      <trkpt lat="48.45485" lon="7.13327">
        <ele>570</ele>
        <time>2019-05-15T12:30:24.082Z</time>
      </trkpt>
      <trkpt lat="48.45486" lon="7.13328">
        <ele>570</ele>
        <time>2019-05-15T12:30:25.082Z</time>
      </trkpt>
      <trkpt lat="48.45487" lon="7.13329">
        <ele>570</ele>
        <time>2019-05-15T12:30:26.082Z</time>
      </trkpt>
      <trkpt lat="48.45488" lon="7.1333">
        <ele>571</ele>
        <time>2019-05-15T12:30:27.082Z</time>
      </trkpt>
      <trkpt lat="48.45488" lon="7.13331">
        <ele>571</ele>
        <time>2019-05-15T12:30:28.082Z</time>
      </trkpt>
      <trkpt lat="48.45489" lon="7.13331">
        <ele>571</ele>
        <time>2019-05-15T12:30:29.082Z</time>
      </trkpt>
      <trkpt lat="48.45489" lon="7.13332">
        <ele>572</ele>
        <time>2019-05-15T12:30:30.082Z</time>
      </trkpt>
      <trkpt lat="48.4549" lon="7.13333">
        <ele>573</ele>
        <time>2019-05-15T12:30:31.082Z</time>
      </trkpt>
      <trkpt lat="48.45491" lon="7.13334">
        <ele>573</ele>
        <time>2019-05-15T12:30:32.082Z</time>
      </trkpt>
      <trkpt lat="48.45491" lon="7.13335">
        <ele>573</ele>
        <time>2019-05-15T12:30:33.082Z</time>
      </trkpt>
      <trkpt lat="48.45492" lon="7.13335">
        <ele>573</ele>
        <time>2019-05-15T12:30:34.082Z</time>
      </trkpt>
      <trkpt lat="48.45493" lon="7.13336">
        <ele>573</ele>
        <time>2019-05-15T12:30:35.082Z</time>
      </trkpt>
      <trkpt lat="48.45493" lon="7.13337">
        <ele>574</ele>
        <time>2019-05-15T12:30:36.082Z</time>
      </trkpt>
      <trkpt lat="48.45494" lon="7.13338">
        <ele>574</ele>
        <time>2019-05-15T12:30:37.082Z</time>
      </trkpt>
      <trkpt lat="48.45495" lon="7.13339">
        <ele>575</ele>
        <time>2019-05-15T12:30:38.082Z</time>
      </trkpt>
      <trkpt lat="48.45496" lon="7.1334">
        <ele>575</ele>
        <time>2019-05-15T12:30:39.082Z</time>
      </trkpt>
      <trkpt lat="48.45496" lon="7.1334">
        <ele>576</ele>
        <time>2019-05-15T12:30:40.082Z</time>
      </trkpt>
      <trkpt lat="48.45497" lon="7.13341">
        <ele>576</ele>
        <time>2019-05-15T12:30:41.082Z</time>
      </trkpt>
      <trkpt lat="48.45498" lon="7.13342">
        <ele>576</ele>
        <time>2019-05-15T12:30:42.082Z</time>
      </trkpt>
      <trkpt lat="48.45499" lon="7.13343">
        <ele>576</ele>
        <time>2019-05-15T12:30:43.082Z</time>
      </trkpt>
      <trkpt lat="48.455" lon="7.13344">
        <ele>576</ele>
        <time>2019-05-15T12:30:44.082Z</time>
      </trkpt>
      <trkpt lat="48.455" lon="7.13345">
        <ele>576</ele>
        <time>2019-05-15T12:30:45.082Z</time>
      </trkpt>
      <trkpt lat="48.45501" lon="7.13346">
        <ele>577</ele>
        <time>2019-05-15T12:30:46.082Z</time>
      </trkpt>
      <trkpt lat="48.45502" lon="7.13347">
        <ele>577</ele>
        <time>2019-05-15T12:30:47.082Z</time>
      </trkpt>
      <trkpt lat="48.45503" lon="7.13348">
        <ele>578</ele>
        <time>2019-05-15T12:30:48.082Z</time>
      </trkpt>
      <trkpt lat="48.45503" lon="7.13348">
        <ele>578</ele>
        <time>2019-05-15T12:30:49.082Z</time>
      </trkpt>
      <trkpt lat="48.45504" lon="7.13349">
        <ele>578</ele>
        <time>2019-05-15T12:30:50.082Z</time>
      </trkpt>
      <trkpt lat="48.45505" lon="7.1335">
        <ele>579</ele>
        <time>2019-05-15T12:30:51.082Z</time>
      </trkpt>
      <trkpt lat="48.45506" lon="7.13351">
        <ele>579</ele>
        <time>2019-05-15T12:30:52.082Z</time>
      </trkpt>
      <trkpt lat="48.45507" lon="7.13352">
        <ele>579</ele>
        <time>2019-05-15T12:30:53.082Z</time>
      </trkpt>
      <trkpt lat="48.45507" lon="7.13352">
        <ele>580</ele>
        <time>2019-05-15T12:30:54.082Z</time>
      </trkpt>
      <trkpt lat="48.45508" lon="7.13353">
        <ele>580</ele>
        <time>2019-05-15T12:30:55.082Z</time>
      </trkpt>
      <trkpt lat="48.45509" lon="7.13354">
        <ele>580</ele>
        <time>2019-05-15T12:30:56.082Z</time>
      </trkpt>
      <trkpt lat="48.45509" lon="7.13355">
        <ele>580</ele>
        <time>2019-05-15T12:30:57.082Z</time>
      </trkpt>
      <trkpt lat="48.4551" lon="7.13356">
        <ele>579</ele>
        <time>2019-05-15T12:30:58.082Z</time>
      </trkpt>
      <trkpt lat="48.45511" lon="7.13357">
        <ele>579</ele>
        <time>2019-05-15T12:30:59.082Z</time>
      </trkpt>
      <trkpt lat="48.45511" lon="7.13358">
        <ele>578</ele>
        <time>2019-05-15T12:31:00.082Z</time>
      </trkpt>
      <trkpt lat="48.45512" lon="7.13359">
        <ele>578</ele>
        <time>2019-05-15T12:31:01.082Z</time>
      </trkpt>
      <trkpt lat="48.45513" lon="7.1336">
        <ele>578</ele>
        <time>2019-05-15T12:31:02.082Z</time>
      </trkpt>
      <trkpt lat="48.45514" lon="7.13361">
        <ele>579</ele>
        <time>2019-05-15T12:31:03.082Z</time>
      </trkpt>
      <trkpt lat="48.45515" lon="7.13362">
        <ele>578</ele>
        <time>2019-05-15T12:31:04.082Z</time>
      </trkpt>
      <trkpt lat="48.45515" lon="7.13363">
        <ele>578</ele>
        <time>2019-05-15T12:31:05.082Z</time>
      </trkpt>
      <trkpt lat="48.45516" lon="7.13365">
        <ele>577</ele>
        <time>2019-05-15T12:31:06.082Z</time>
      </trkpt>
      <trkpt lat="48.45516" lon="7.13366">
        <ele>577</ele>
        <time>2019-05-15T12:31:07.082Z</time>
      </trkpt>
      <trkpt lat="48.45517" lon="7.13367">
        <ele>577</ele>
        <time>2019-05-15T12:31:08.082Z</time>
      </trkpt>
      <trkpt lat="48.45517" lon="7.13368">
        <ele>577</ele>
        <time>2019-05-15T12:31:09.082Z</time>
      </trkpt>
      <trkpt lat="48.45518" lon="7.1337">
        <ele>576</ele>
        <time>2019-05-15T12:31:10.082Z</time>
      </trkpt>
      <trkpt lat="48.45518" lon="7.13371">
        <ele>576</ele>
        <time>2019-05-15T12:31:11.082Z</time>
      </trkpt>
      <trkpt lat="48.45518" lon="7.13372">
        <ele>576</ele>
        <time>2019-05-15T12:31:12.082Z</time>
      </trkpt>
      <trkpt lat="48.45519" lon="7.13373">
        <ele>576</ele>
        <time>2019-05-15T12:31:13.082Z</time>
      </trkpt>
      <trkpt lat="48.45519" lon="7.13374">
        <ele>576</ele>
        <time>2019-05-15T12:31:14.082Z</time>
      </trkpt>
      <trkpt lat="48.4552" lon="7.13376">
        <ele>576</ele>
        <time>2019-05-15T12:31:15.082Z</time>
      </trkpt>
      <trkpt lat="48.45521" lon="7.13377">
        <ele>576</ele>
        <time>2019-05-15T12:31:16.082Z</time>
      </trkpt>
      <trkpt lat="48.45521" lon="7.13377">
        <ele>576</ele>
        <time>2019-05-15T12:31:17.082Z</time>
      </trkpt>
      <trkpt lat="48.45522" lon="7.13378">
        <ele>576</ele>
        <time>2019-05-15T12:31:18.082Z</time>
      </trkpt>
      <trkpt lat="48.45523" lon="7.13379">
        <ele>576</ele>
        <time>2019-05-15T12:31:19.082Z</time>
      </trkpt>
      <trkpt lat="48.45524" lon="7.1338">
        <ele>576</ele>
        <time>2019-05-15T12:31:20.082Z</time>
      </trkpt>
      <trkpt lat="48.45524" lon="7.13382">
        <ele>576</ele>
        <time>2019-05-15T12:31:21.082Z</time>
      </trkpt>
      <trkpt lat="48.45525" lon="7.13383">
        <ele>576</ele>
        <time>2019-05-15T12:31:22.082Z</time>
      </trkpt>
      <trkpt lat="48.45525" lon="7.13384">
        <ele>577</ele>
        <time>2019-05-15T12:31:23.082Z</time>
      </trkpt>
      <trkpt lat="48.45526" lon="7.13385">
        <ele>577</ele>
        <time>2019-05-15T12:31:24.082Z</time>
      </trkpt>
      <trkpt lat="48.45527" lon="7.13386">
        <ele>577</ele>
        <time>2019-05-15T12:31:25.082Z</time>
      </trkpt>
      <trkpt lat="48.45527" lon="7.13387">
        <ele>577</ele>
        <time>2019-05-15T12:31:26.082Z</time>
      </trkpt>
      <trkpt lat="48.45527" lon="7.13387">
        <ele>577</ele>
        <time>2019-05-15T12:31:27.082Z</time>
      </trkpt>
      <trkpt lat="48.45528" lon="7.13388">
        <ele>577</ele>
        <time>2019-05-15T12:31:28.082Z</time>
      </trkpt>
      <trkpt lat="48.45529" lon="7.13389">
        <ele>577</ele>
        <time>2019-05-15T12:31:29.082Z</time>
      </trkpt>
      <trkpt lat="48.45529" lon="7.1339">
        <ele>577</ele>
        <time>2019-05-15T12:31:30.082Z</time>
      </trkpt>
      <trkpt lat="48.4553" lon="7.13391">
        <ele>577</ele>
        <time>2019-05-15T12:31:31.082Z</time>
      </trkpt>
      <trkpt lat="48.4553" lon="7.13392">
        <ele>577</ele>
        <time>2019-05-15T12:31:32.082Z</time>
      </trkpt>
      <trkpt lat="48.45531" lon="7.13394">
        <ele>576</ele>
        <time>2019-05-15T12:31:33.082Z</time>
      </trkpt>
      <trkpt lat="48.45531" lon="7.13395">
        <ele>576</ele>
        <time>2019-05-15T12:31:34.082Z</time>
      </trkpt>
      <trkpt lat="48.45532" lon="7.13396">
        <ele>576</ele>
        <time>2019-05-15T12:31:35.082Z</time>
      </trkpt>
      <trkpt lat="48.45532" lon="7.13397">
        <ele>577</ele>
        <time>2019-05-15T12:31:36.082Z</time>
      </trkpt>
      <trkpt lat="48.45533" lon="7.13398">
        <ele>577</ele>
        <time>2019-05-15T12:31:37.082Z</time>
      </trkpt>
      <trkpt lat="48.45534" lon="7.134">
        <ele>577</ele>
        <time>2019-05-15T12:31:38.082Z</time>
      </trkpt>
      <trkpt lat="48.45535" lon="7.13401">
        <ele>577</ele>
        <time>2019-05-15T12:31:39.082Z</time>
      </trkpt>
      <trkpt lat="48.45536" lon="7.13402">
        <ele>576</ele>
        <time>2019-05-15T12:31:40.082Z</time>
      </trkpt>
      <trkpt lat="48.45536" lon="7.13403">
        <ele>576</ele>
        <time>2019-05-15T12:31:41.082Z</time>
      </trkpt>
      <trkpt lat="48.45537" lon="7.13404">
        <ele>576</ele>
        <time>2019-05-15T12:31:42.082Z</time>
      </trkpt>
      <trkpt lat="48.45537" lon="7.13405">
        <ele>576</ele>
        <time>2019-05-15T12:31:43.082Z</time>
      </trkpt>
      <trkpt lat="48.45538" lon="7.13407">
        <ele>576</ele>
        <time>2019-05-15T12:31:44.082Z</time>
      </trkpt>
      <trkpt lat="48.45538" lon="7.13408">
        <ele>576</ele>
        <time>2019-05-15T12:31:45.082Z</time>
      </trkpt>
      <trkpt lat="48.45539" lon="7.13409">
        <ele>575</ele>
        <time>2019-05-15T12:31:46.082Z</time>
      </trkpt>
      <trkpt lat="48.45539" lon="7.13411">
        <ele>575</ele>
        <time>2019-05-15T12:31:47.082Z</time>
      </trkpt>
      <trkpt lat="48.4554" lon="7.13412">
        <ele>575</ele>
        <time>2019-05-15T12:31:48.082Z</time>
      </trkpt>
      <trkpt lat="48.45541" lon="7.13413">
        <ele>575</ele>
        <time>2019-05-15T12:31:49.082Z</time>
      </trkpt>
      <trkpt lat="48.45541" lon="7.13414">
        <ele>575</ele>
        <time>2019-05-15T12:31:50.082Z</time>
      </trkpt>
      <trkpt lat="48.45542" lon="7.13415">
        <ele>575</ele>
        <time>2019-05-15T12:31:51.082Z</time>
      </trkpt>
      <trkpt lat="48.45543" lon="7.13417">
        <ele>575</ele>
        <time>2019-05-15T12:31:52.082Z</time>
      </trkpt>
      <trkpt lat="48.45543" lon="7.13418">
        <ele>575</ele>
        <time>2019-05-15T12:31:53.082Z</time>
      </trkpt>
      <trkpt lat="48.45544" lon="7.13418">
        <ele>575</ele>
        <time>2019-05-15T12:31:54.082Z</time>
      </trkpt>
      <trkpt lat="48.45545" lon="7.1342">
        <ele>575</ele>
        <time>2019-05-15T12:31:55.082Z</time>
      </trkpt>
      <trkpt lat="48.45546" lon="7.13421">
        <ele>576</ele>
        <time>2019-05-15T12:31:56.082Z</time>
      </trkpt>
      <trkpt lat="48.45547" lon="7.13422">
        <ele>576</ele>
        <time>2019-05-15T12:31:57.082Z</time>
      </trkpt>
      <trkpt lat="48.45547" lon="7.13423">
        <ele>576</ele>
        <time>2019-05-15T12:31:58.082Z</time>
      </trkpt>
      <trkpt lat="48.45548" lon="7.13424">
        <ele>576</ele>
        <time>2019-05-15T12:31:59.082Z</time>
      </trkpt>
      <trkpt lat="48.45548" lon="7.13425">
        <ele>576</ele>
        <time>2019-05-15T12:32:00.082Z</time>
      </trkpt>
      <trkpt lat="48.45549" lon="7.13426">
        <ele>576</ele>
        <time>2019-05-15T12:32:01.082Z</time>
      </trkpt>
      <trkpt lat="48.4555" lon="7.13427">
        <ele>577</ele>
        <time>2019-05-15T12:32:02.082Z</time>
      </trkpt>
      <trkpt lat="48.4555" lon="7.13428">
        <ele>576</ele>
        <time>2019-05-15T12:32:03.082Z</time>
      </trkpt>
      <trkpt lat="48.45551" lon="7.13429">
        <ele>576</ele>
        <time>2019-05-15T12:32:04.082Z</time>
      </trkpt>
      <trkpt lat="48.45552" lon="7.1343">
        <ele>577</ele>
        <time>2019-05-15T12:32:05.082Z</time>
      </trkpt>
      <trkpt lat="48.45552" lon="7.13431">
        <ele>576</ele>
        <time>2019-05-15T12:32:06.082Z</time>
      </trkpt>
      <trkpt lat="48.45553" lon="7.13432">
        <ele>576</ele>
        <time>2019-05-15T12:32:07.082Z</time>
      </trkpt>
      <trkpt lat="48.45554" lon="7.13433">
        <ele>576</ele>
        <time>2019-05-15T12:32:08.082Z</time>
      </trkpt>
      <trkpt lat="48.45554" lon="7.13435">
        <ele>576</ele>
        <time>2019-05-15T12:32:09.082Z</time>
      </trkpt>
      <trkpt lat="48.45555" lon="7.13435">
        <ele>576</ele>
        <time>2019-05-15T12:32:10.082Z</time>
      </trkpt>
      <trkpt lat="48.45555" lon="7.13437">
        <ele>576</ele>
        <time>2019-05-15T12:32:11.082Z</time>
      </trkpt>
      <trkpt lat="48.45556" lon="7.13438">
        <ele>577</ele>
        <time>2019-05-15T12:32:12.082Z</time>
      </trkpt>
      <trkpt lat="48.45557" lon="7.13439">
        <ele>577</ele>
        <time>2019-05-15T12:32:13.082Z</time>
      </trkpt>
      <trkpt lat="48.45557" lon="7.1344">
        <ele>577</ele>
        <time>2019-05-15T12:32:14.082Z</time>
      </trkpt>
      <trkpt lat="48.45558" lon="7.13441">
        <ele>577</ele>
        <time>2019-05-15T12:32:15.082Z</time>
      </trkpt>
      <trkpt lat="48.45559" lon="7.13442">
        <ele>577</ele>
        <time>2019-05-15T12:32:16.082Z</time>
      </trkpt>
      <trkpt lat="48.45559" lon="7.13443">
        <ele>577</ele>
        <time>2019-05-15T12:32:17.082Z</time>
      </trkpt>
      <trkpt lat="48.4556" lon="7.13444">
        <ele>577</ele>
        <time>2019-05-15T12:32:18.082Z</time>
      </trkpt>
      <trkpt lat="48.4556" lon="7.13445">
        <ele>577</ele>
        <time>2019-05-15T12:32:19.082Z</time>
      </trkpt>
      <trkpt lat="48.45561" lon="7.13446">
        <ele>578</ele>
        <time>2019-05-15T12:32:20.082Z</time>
      </trkpt>
      <trkpt lat="48.45562" lon="7.13447">
        <ele>578</ele>
        <time>2019-05-15T12:32:21.082Z</time>
      </trkpt>
      <trkpt lat="48.45563" lon="7.13448">
        <ele>578</ele>
        <time>2019-05-15T12:32:22.082Z</time>
      </trkpt>
      <trkpt lat="48.45564" lon="7.13449">
        <ele>578</ele>
        <time>2019-05-15T12:32:23.082Z</time>
      </trkpt>
      <trkpt lat="48.45565" lon="7.1345">
        <ele>577</ele>
        <time>2019-05-15T12:32:24.082Z</time>
      </trkpt>
      <trkpt lat="48.45565" lon="7.13451">
        <ele>577</ele>
        <time>2019-05-15T12:32:25.082Z</time>
      </trkpt>
      <trkpt lat="48.45566" lon="7.13452">
        <ele>577</ele>
        <time>2019-05-15T12:32:26.082Z</time>
      </trkpt>
      <trkpt lat="48.45566" lon="7.13453">
        <ele>578</ele>
        <time>2019-05-15T12:32:27.082Z</time>
      </trkpt>
      <trkpt lat="48.45567" lon="7.13454">
        <ele>578</ele>
        <time>2019-05-15T12:32:28.082Z</time>
      </trkpt>
      <trkpt lat="48.45568" lon="7.13455">
        <ele>577</ele>
        <time>2019-05-15T12:32:29.082Z</time>
      </trkpt>
      <trkpt lat="48.45569" lon="7.13456">
        <ele>577</ele>
        <time>2019-05-15T12:32:30.082Z</time>
      </trkpt>
      <trkpt lat="48.4557" lon="7.13457">
        <ele>577</ele>
        <time>2019-05-15T12:32:31.082Z</time>
      </trkpt>
      <trkpt lat="48.4557" lon="7.13458">
        <ele>577</ele>
        <time>2019-05-15T12:32:32.082Z</time>
      </trkpt>
      <trkpt lat="48.45571" lon="7.13459">
        <ele>578</ele>
        <time>2019-05-15T12:32:33.082Z</time>
      </trkpt>
      <trkpt lat="48.45572" lon="7.13461">
        <ele>578</ele>
        <time>2019-05-15T12:32:34.082Z</time>
      </trkpt>
      <trkpt lat="48.45572" lon="7.13462">
        <ele>578</ele>
        <time>2019-05-15T12:32:35.082Z</time>
      </trkpt>
      <trkpt lat="48.45573" lon="7.13463">
        <ele>578</ele>
        <time>2019-05-15T12:32:36.082Z</time>
      </trkpt>
      <trkpt lat="48.45573" lon="7.13464">
        <ele>578</ele>
        <time>2019-05-15T12:32:37.082Z</time>
      </trkpt>
      <trkpt lat="48.45574" lon="7.13465">
        <ele>578</ele>
        <time>2019-05-15T12:32:38.082Z</time>
      </trkpt>
      <trkpt lat="48.45574" lon="7.13466">
        <ele>578</ele>
        <time>2019-05-15T12:32:39.082Z</time>
      </trkpt>
      <trkpt lat="48.45575" lon="7.13467">
        <ele>578</ele>
        <time>2019-05-15T12:32:40.082Z</time>
      </trkpt>
      <trkpt lat="48.45575" lon="7.13468">
        <ele>578</ele>
        <time>2019-05-15T12:32:41.082Z</time>
      </trkpt>
      <trkpt lat="48.45576" lon="7.13469">
        <ele>577</ele>
        <time>2019-05-15T12:32:42.082Z</time>
      </trkpt>
      <trkpt lat="48.45577" lon="7.13471">
        <ele>577</ele>
        <time>2019-05-15T12:32:43.082Z</time>
      </trkpt>
      <trkpt lat="48.45577" lon="7.13472">
        <ele>577</ele>
        <time>2019-05-15T12:32:44.082Z</time>
      </trkpt>
      <trkpt lat="48.45578" lon="7.13473">
        <ele>577</ele>
        <time>2019-05-15T12:32:45.082Z</time>
      </trkpt>
      <trkpt lat="48.45578" lon="7.13474">
        <ele>577</ele>
        <time>2019-05-15T12:32:46.082Z</time>
      </trkpt>
      <trkpt lat="48.45579" lon="7.13475">
        <ele>577</ele>
        <time>2019-05-15T12:32:47.082Z</time>
      </trkpt>
      <trkpt lat="48.4558" lon="7.13476">
        <ele>577</ele>
        <time>2019-05-15T12:32:48.082Z</time>
      </trkpt>
      <trkpt lat="48.4558" lon="7.13477">
        <ele>577</ele>
        <time>2019-05-15T12:32:49.082Z</time>
      </trkpt>
      <trkpt lat="48.45581" lon="7.13479">
        <ele>577</ele>
        <time>2019-05-15T12:32:50.082Z</time>
      </trkpt>
      <trkpt lat="48.45581" lon="7.1348">
        <ele>577</ele>
        <time>2019-05-15T12:32:51.082Z</time>
      </trkpt>
      <trkpt lat="48.45582" lon="7.13481">
        <ele>577</ele>
        <time>2019-05-15T12:32:52.082Z</time>
      </trkpt>
      <trkpt lat="48.45582" lon="7.13482">
        <ele>577</ele>
        <time>2019-05-15T12:32:53.082Z</time>
      </trkpt>
      <trkpt lat="48.45583" lon="7.13484">
        <ele>577</ele>
        <time>2019-05-15T12:32:54.082Z</time>
      </trkpt>
      <trkpt lat="48.45584" lon="7.13485">
        <ele>577</ele>
        <time>2019-05-15T12:32:55.082Z</time>
      </trkpt>
      <trkpt lat="48.45584" lon="7.13486">
        <ele>577</ele>
        <time>2019-05-15T12:32:56.082Z</time>
      </trkpt>
      <trkpt lat="48.45585" lon="7.13487">
        <ele>577</ele>
        <time>2019-05-15T12:32:57.082Z</time>
      </trkpt>
      <trkpt lat="48.45585" lon="7.13488">
        <ele>577</ele>
        <time>2019-05-15T12:32:58.082Z</time>
      </trkpt>
      <trkpt lat="48.45586" lon="7.13489">
        <ele>577</ele>
        <time>2019-05-15T12:32:59.082Z</time>
      </trkpt>
      <trkpt lat="48.45586" lon="7.13491">
        <ele>577</ele>
        <time>2019-05-15T12:33:00.082Z</time>
      </trkpt>
      <trkpt lat="48.45587" lon="7.13492">
        <ele>578</ele>
        <time>2019-05-15T12:33:01.082Z</time>
      </trkpt>
      <trkpt lat="48.45587" lon="7.13493">
        <ele>577</ele>
        <time>2019-05-15T12:33:02.082Z</time>
      </trkpt>
      <trkpt lat="48.45588" lon="7.13494">
        <ele>577</ele>
        <time>2019-05-15T12:33:03.082Z</time>
      </trkpt>
      <trkpt lat="48.45589" lon="7.13496">
        <ele>578</ele>
        <time>2019-05-15T12:33:04.082Z</time>
      </trkpt>
      <trkpt lat="48.45589" lon="7.13497">
        <ele>578</ele>
        <time>2019-05-15T12:33:05.082Z</time>
      </trkpt>
      <trkpt lat="48.4559" lon="7.13498">
        <ele>577</ele>
        <time>2019-05-15T12:33:06.082Z</time>
      </trkpt>
      <trkpt lat="48.4559" lon="7.13499">
        <ele>578</ele>
        <time>2019-05-15T12:33:07.082Z</time>
      </trkpt>
      <trkpt lat="48.45591" lon="7.135">
        <ele>578</ele>
        <time>2019-05-15T12:33:08.082Z</time>
      </trkpt>
      <trkpt lat="48.45592" lon="7.13501">
        <ele>578</ele>
        <time>2019-05-15T12:33:09.082Z</time>
      </trkpt>
      <trkpt lat="48.45592" lon="7.13502">
        <ele>578</ele>
        <time>2019-05-15T12:33:10.082Z</time>
      </trkpt>
      <trkpt lat="48.45593" lon="7.13503">
        <ele>578</ele>
        <time>2019-05-15T12:33:11.082Z</time>
      </trkpt>
      <trkpt lat="48.45594" lon="7.13504">
        <ele>578</ele>
        <time>2019-05-15T12:33:12.082Z</time>
      </trkpt>
      <trkpt lat="48.45594" lon="7.13505">
        <ele>578</ele>
        <time>2019-05-15T12:33:13.082Z</time>
      </trkpt>
      <trkpt lat="48.45595" lon="7.13506">
        <ele>578</ele>
        <time>2019-05-15T12:33:14.082Z</time>
      </trkpt>
      <trkpt lat="48.45596" lon="7.13507">
        <ele>578</ele>
        <time>2019-05-15T12:33:15.082Z</time>
      </trkpt>
      <trkpt lat="48.45596" lon="7.13508">
        <ele>578</ele>
        <time>2019-05-15T12:33:16.082Z</time>
      </trkpt>
      <trkpt lat="48.45596" lon="7.13509">
        <ele>578</ele>
        <time>2019-05-15T12:33:17.082Z</time>
      </trkpt>
      <trkpt lat="48.45597" lon="7.13511">
        <ele>577</ele>
        <time>2019-05-15T12:33:18.082Z</time>
      </trkpt>
      <trkpt lat="48.45598" lon="7.13512">
        <ele>577</ele>
        <time>2019-05-15T12:33:19.082Z</time>
      </trkpt>
      <trkpt lat="48.45598" lon="7.13513">
        <ele>577</ele>
        <time>2019-05-15T12:33:20.082Z</time>
      </trkpt>
      <trkpt lat="48.45599" lon="7.13514">
        <ele>577</ele>
        <time>2019-05-15T12:33:21.082Z</time>
      </trkpt>
      <trkpt lat="48.456" lon="7.13515">
        <ele>577</ele>
        <time>2019-05-15T12:33:22.082Z</time>
      </trkpt>
      <trkpt lat="48.456" lon="7.13516">
        <ele>577</ele>
        <time>2019-05-15T12:33:23.082Z</time>
      </trkpt>
      <trkpt lat="48.45601" lon="7.13518">
        <ele>577</ele>
        <time>2019-05-15T12:33:24.082Z</time>
      </trkpt>
      <trkpt lat="48.45601" lon="7.13519">
        <ele>577</ele>
        <time>2019-05-15T12:33:25.082Z</time>
      </trkpt>
      <trkpt lat="48.45602" lon="7.1352">
        <ele>577</ele>
        <time>2019-05-15T12:33:26.082Z</time>
      </trkpt>
      <trkpt lat="48.45603" lon="7.13521">
        <ele>577</ele>
        <time>2019-05-15T12:33:27.082Z</time>
      </trkpt>
      <trkpt lat="48.45603" lon="7.13522">
        <ele>577</ele>
        <time>2019-05-15T12:33:28.082Z</time>
      </trkpt>
      <trkpt lat="48.45604" lon="7.13524">
        <ele>577</ele>
        <time>2019-05-15T12:33:29.082Z</time>
      </trkpt>
      <trkpt lat="48.45604" lon="7.13525">
        <ele>577</ele>
        <time>2019-05-15T12:33:30.082Z</time>
      </trkpt>
      <trkpt lat="48.45605" lon="7.13526">
        <ele>577</ele>
        <time>2019-05-15T12:33:31.082Z</time>
      </trkpt>
      <trkpt lat="48.45606" lon="7.13527">
        <ele>577</ele>
        <time>2019-05-15T12:33:32.082Z</time>
      </trkpt>
      <trkpt lat="48.45606" lon="7.13528">
        <ele>577</ele>
        <time>2019-05-15T12:33:33.082Z</time>
      </trkpt>
      <trkpt lat="48.45607" lon="7.13529">
        <ele>578</ele>
        <time>2019-05-15T12:33:34.082Z</time>
      </trkpt>
      <trkpt lat="48.45608" lon="7.13531">
        <ele>578</ele>
        <time>2019-05-15T12:33:35.082Z</time>
      </trkpt>
      <trkpt lat="48.45608" lon="7.13532">
        <ele>578</ele>
        <time>2019-05-15T12:33:36.082Z</time>
      </trkpt>
      <trkpt lat="48.45608" lon="7.13534">
        <ele>577</ele>
        <time>2019-05-15T12:33:37.082Z</time>
      </trkpt>
      <trkpt lat="48.45609" lon="7.13535">
        <ele>578</ele>
        <time>2019-05-15T12:33:38.082Z</time>
      </trkpt>
      <trkpt lat="48.45609" lon="7.13536">
        <ele>577</ele>
        <time>2019-05-15T12:33:39.082Z</time>
      </trkpt>
      <trkpt lat="48.45609" lon="7.13538">
        <ele>577</ele>
        <time>2019-05-15T12:33:40.082Z</time>
      </trkpt>
      <trkpt lat="48.45609" lon="7.13539">
        <ele>578</ele>
        <time>2019-05-15T12:33:41.082Z</time>
      </trkpt>
      <trkpt lat="48.4561" lon="7.1354">
        <ele>577</ele>
        <time>2019-05-15T12:33:42.082Z</time>
      </trkpt>
      <trkpt lat="48.4561" lon="7.13542">
        <ele>577</ele>
        <time>2019-05-15T12:33:43.082Z</time>
      </trkpt>
      <trkpt lat="48.45611" lon="7.13543">
        <ele>577</ele>
        <time>2019-05-15T12:33:44.082Z</time>
      </trkpt>
      <trkpt lat="48.45611" lon="7.13545">
        <ele>578</ele>
        <time>2019-05-15T12:33:45.082Z</time>
      </trkpt>
      <trkpt lat="48.45611" lon="7.13546">
        <ele>578</ele>
        <time>2019-05-15T12:33:46.082Z</time>
      </trkpt>
      <trkpt lat="48.45612" lon="7.13547">
        <ele>578</ele>
        <time>2019-05-15T12:33:47.082Z</time>
      </trkpt>
      <trkpt lat="48.45612" lon="7.13549">
        <ele>578</ele>
        <time>2019-05-15T12:33:48.082Z</time>
      </trkpt>
      <trkpt lat="48.45613" lon="7.1355">
        <ele>578</ele>
        <time>2019-05-15T12:33:49.082Z</time>
      </trkpt>
      <trkpt lat="48.45613" lon="7.13552">
        <ele>578</ele>
        <time>2019-05-15T12:33:50.082Z</time>
      </trkpt>
      <trkpt lat="48.45613" lon="7.13553">
        <ele>578</ele>
        <time>2019-05-15T12:33:51.082Z</time>
      </trkpt>
      <trkpt lat="48.45614" lon="7.13554">
        <ele>578</ele>
        <time>2019-05-15T12:33:52.082Z</time>
      </trkpt>
      <trkpt lat="48.45614" lon="7.13555">
        <ele>578</ele>
        <time>2019-05-15T12:33:53.082Z</time>
      </trkpt>
      <trkpt lat="48.45615" lon="7.13557">
        <ele>578</ele>
        <time>2019-05-15T12:33:54.082Z</time>
      </trkpt>
      <trkpt lat="48.45615" lon="7.13558">
        <ele>578</ele>
        <time>2019-05-15T12:33:55.082Z</time>
      </trkpt>
      <trkpt lat="48.45616" lon="7.13559">
        <ele>578</ele>
        <time>2019-05-15T12:33:56.082Z</time>
      </trkpt>
      <trkpt lat="48.45616" lon="7.1356">
        <ele>578</ele>
        <time>2019-05-15T12:33:57.082Z</time>
      </trkpt>
      <trkpt lat="48.45617" lon="7.13562">
        <ele>578</ele>
        <time>2019-05-15T12:33:58.082Z</time>
      </trkpt>
      <trkpt lat="48.45617" lon="7.13563">
        <ele>579</ele>
        <time>2019-05-15T12:33:59.082Z</time>
      </trkpt>
      <trkpt lat="48.45618" lon="7.13564">
        <ele>579</ele>
        <time>2019-05-15T12:34:00.082Z</time>
      </trkpt>
      <trkpt lat="48.45618" lon="7.13566">
        <ele>579</ele>
        <time>2019-05-15T12:34:01.082Z</time>
      </trkpt>
      <trkpt lat="48.45619" lon="7.13567">
        <ele>579</ele>
        <time>2019-05-15T12:34:02.082Z</time>
      </trkpt>
      <trkpt lat="48.45619" lon="7.13569">
        <ele>579</ele>
        <time>2019-05-15T12:34:03.082Z</time>
      </trkpt>
      <trkpt lat="48.4562" lon="7.1357">
        <ele>579</ele>
        <time>2019-05-15T12:34:04.082Z</time>
      </trkpt>
      <trkpt lat="48.4562" lon="7.13571">
        <ele>580</ele>
        <time>2019-05-15T12:34:05.082Z</time>
      </trkpt>
      <trkpt lat="48.45621" lon="7.13573">
        <ele>581</ele>
        <time>2019-05-15T12:34:06.082Z</time>
      </trkpt>
      <trkpt lat="48.45622" lon="7.13574">
        <ele>581</ele>
        <time>2019-05-15T12:34:07.082Z</time>
      </trkpt>
      <trkpt lat="48.45622" lon="7.13576">
        <ele>582</ele>
        <time>2019-05-15T12:34:08.082Z</time>
      </trkpt>
      <trkpt lat="48.45622" lon="7.13577">
        <ele>582</ele>
        <time>2019-05-15T12:34:09.082Z</time>
      </trkpt>
      <trkpt lat="48.45623" lon="7.13579">
        <ele>583</ele>
        <time>2019-05-15T12:34:10.082Z</time>
      </trkpt>
      <trkpt lat="48.45623" lon="7.1358">
        <ele>583</ele>
        <time>2019-05-15T12:34:11.082Z</time>
      </trkpt>
      <trkpt lat="48.45624" lon="7.13582">
        <ele>583</ele>
        <time>2019-05-15T12:34:12.082Z</time>
      </trkpt>
      <trkpt lat="48.45624" lon="7.13583">
        <ele>584</ele>
        <time>2019-05-15T12:34:13.082Z</time>
      </trkpt>
      <trkpt lat="48.45624" lon="7.13585">
        <ele>584</ele>
        <time>2019-05-15T12:34:14.082Z</time>
      </trkpt>
      <trkpt lat="48.45625" lon="7.13586">
        <ele>584</ele>
        <time>2019-05-15T12:34:15.082Z</time>
      </trkpt>
      <trkpt lat="48.45625" lon="7.13587">
        <ele>585</ele>
        <time>2019-05-15T12:34:16.082Z</time>
      </trkpt>
      <trkpt lat="48.45625" lon="7.13589">
        <ele>585</ele>
        <time>2019-05-15T12:34:17.082Z</time>
      </trkpt>
      <trkpt lat="48.45625" lon="7.1359">
        <ele>585</ele>
        <time>2019-05-15T12:34:18.082Z</time>
      </trkpt>
      <trkpt lat="48.45626" lon="7.13591">
        <ele>586</ele>
        <time>2019-05-15T12:34:19.082Z</time>
      </trkpt>
      <trkpt lat="48.45626" lon="7.13593">
        <ele>587</ele>
        <time>2019-05-15T12:34:20.082Z</time>
      </trkpt>
      <trkpt lat="48.45626" lon="7.13594">
        <ele>587</ele>
        <time>2019-05-15T12:34:21.082Z</time>
      </trkpt>
      <trkpt lat="48.45626" lon="7.13596">
        <ele>587</ele>
        <time>2019-05-15T12:34:22.082Z</time>
      </trkpt>
      <trkpt lat="48.45626" lon="7.13597">
        <ele>588</ele>
        <time>2019-05-15T12:34:23.082Z</time>
      </trkpt>
      <trkpt lat="48.45626" lon="7.13598">
        <ele>588</ele>
        <time>2019-05-15T12:34:24.082Z</time>
      </trkpt>
      <trkpt lat="48.45627" lon="7.13599">
        <ele>589</ele>
        <time>2019-05-15T12:34:25.082Z</time>
      </trkpt>
      <trkpt lat="48.45627" lon="7.13601">
        <ele>590</ele>
        <time>2019-05-15T12:34:26.082Z</time>
      </trkpt>
      <trkpt lat="48.45627" lon="7.13602">
        <ele>591</ele>
        <time>2019-05-15T12:34:27.082Z</time>
      </trkpt>
      <trkpt lat="48.45628" lon="7.13604">
        <ele>591</ele>
        <time>2019-05-15T12:34:28.082Z</time>
      </trkpt>
      <trkpt lat="48.45628" lon="7.13605">
        <ele>591</ele>
        <time>2019-05-15T12:34:29.082Z</time>
      </trkpt>
      <trkpt lat="48.45628" lon="7.13607">
        <ele>589</ele>
        <time>2019-05-15T12:34:30.082Z</time>
      </trkpt>
      <trkpt lat="48.45628" lon="7.13608">
        <ele>588</ele>
        <time>2019-05-15T12:34:31.082Z</time>
      </trkpt>
      <trkpt lat="48.45629" lon="7.1361">
        <ele>587</ele>
        <time>2019-05-15T12:34:32.082Z</time>
      </trkpt>
      <trkpt lat="48.45629" lon="7.13611">
        <ele>587</ele>
        <time>2019-05-15T12:34:33.082Z</time>
      </trkpt>
      <trkpt lat="48.45629" lon="7.13613">
        <ele>587</ele>
        <time>2019-05-15T12:34:34.082Z</time>
      </trkpt>
      <trkpt lat="48.4563" lon="7.13615">
        <ele>586</ele>
        <time>2019-05-15T12:34:35.082Z</time>
      </trkpt>
      <trkpt lat="48.4563" lon="7.13617">
        <ele>586</ele>
        <time>2019-05-15T12:34:36.082Z</time>
      </trkpt>
      <trkpt lat="48.4563" lon="7.13618">
        <ele>585</ele>
        <time>2019-05-15T12:34:37.082Z</time>
      </trkpt>
      <trkpt lat="48.4563" lon="7.1362">
        <ele>585</ele>
        <time>2019-05-15T12:34:38.082Z</time>
      </trkpt>
      <trkpt lat="48.45631" lon="7.13621">
        <ele>585</ele>
        <time>2019-05-15T12:34:39.082Z</time>
      </trkpt>
      <trkpt lat="48.45631" lon="7.13622">
        <ele>585</ele>
        <time>2019-05-15T12:34:40.082Z</time>
      </trkpt>
      <trkpt lat="48.45632" lon="7.13624">
        <ele>585</ele>
        <time>2019-05-15T12:34:41.082Z</time>
      </trkpt>
      <trkpt lat="48.45633" lon="7.13625">
        <ele>585</ele>
        <time>2019-05-15T12:34:42.082Z</time>
      </trkpt>
      <trkpt lat="48.45633" lon="7.13626">
        <ele>585</ele>
        <time>2019-05-15T12:34:43.082Z</time>
      </trkpt>
      <trkpt lat="48.45634" lon="7.13628">
        <ele>585</ele>
        <time>2019-05-15T12:34:44.082Z</time>
      </trkpt>
      <trkpt lat="48.45634" lon="7.13629">
        <ele>585</ele>
        <time>2019-05-15T12:34:45.082Z</time>
      </trkpt>
      <trkpt lat="48.45635" lon="7.1363">
        <ele>585</ele>
        <time>2019-05-15T12:34:46.082Z</time>
      </trkpt>
      <trkpt lat="48.45635" lon="7.13632">
        <ele>585</ele>
        <time>2019-05-15T12:34:47.082Z</time>
      </trkpt>
      <trkpt lat="48.45636" lon="7.13633">
        <ele>585</ele>
        <time>2019-05-15T12:34:48.082Z</time>
      </trkpt>
      <trkpt lat="48.45636" lon="7.13634">
        <ele>585</ele>
        <time>2019-05-15T12:34:49.082Z</time>
      </trkpt>
      <trkpt lat="48.45636" lon="7.13636">
        <ele>585</ele>
        <time>2019-05-15T12:34:50.082Z</time>
      </trkpt>
      <trkpt lat="48.45637" lon="7.13637">
        <ele>584</ele>
        <time>2019-05-15T12:34:51.082Z</time>
      </trkpt>
      <trkpt lat="48.45637" lon="7.13638">
        <ele>584</ele>
        <time>2019-05-15T12:34:52.082Z</time>
      </trkpt>
      <trkpt lat="48.45638" lon="7.13639">
        <ele>584</ele>
        <time>2019-05-15T12:34:53.082Z</time>
      </trkpt>
      <trkpt lat="48.45638" lon="7.1364">
        <ele>585</ele>
        <time>2019-05-15T12:34:54.082Z</time>
      </trkpt>
      <trkpt lat="48.45639" lon="7.13641">
        <ele>585</ele>
        <time>2019-05-15T12:34:55.082Z</time>
      </trkpt>
      <trkpt lat="48.45639" lon="7.13642">
        <ele>585</ele>
        <time>2019-05-15T12:34:56.082Z</time>
      </trkpt>
      <trkpt lat="48.45639" lon="7.13644">
        <ele>585</ele>
        <time>2019-05-15T12:34:57.082Z</time>
      </trkpt>
      <trkpt lat="48.4564" lon="7.13645">
        <ele>585</ele>
        <time>2019-05-15T12:34:58.082Z</time>
      </trkpt>
      <trkpt lat="48.4564" lon="7.13646">
        <ele>585</ele>
        <time>2019-05-15T12:34:59.082Z</time>
      </trkpt>
      <trkpt lat="48.4564" lon="7.13648">
        <ele>585</ele>
        <time>2019-05-15T12:35:00.082Z</time>
      </trkpt>
      <trkpt lat="48.45641" lon="7.13649">
        <ele>586</ele>
        <time>2019-05-15T12:35:01.082Z</time>
      </trkpt>
      <trkpt lat="48.45641" lon="7.1365">
        <ele>586</ele>
        <time>2019-05-15T12:35:02.082Z</time>
      </trkpt>
      <trkpt lat="48.45642" lon="7.13652">
        <ele>586</ele>
        <time>2019-05-15T12:35:03.082Z</time>
      </trkpt>
      <trkpt lat="48.45642" lon="7.13653">
        <ele>586</ele>
        <time>2019-05-15T12:35:04.082Z</time>
      </trkpt>
      <trkpt lat="48.45643" lon="7.13654">
        <ele>586</ele>
        <time>2019-05-15T12:35:05.082Z</time>
      </trkpt>
      <trkpt lat="48.45644" lon="7.13655">
        <ele>587</ele>
        <time>2019-05-15T12:35:06.082Z</time>
      </trkpt>
      <trkpt lat="48.45644" lon="7.13656">
        <ele>588</ele>
        <time>2019-05-15T12:35:07.082Z</time>
      </trkpt>
      <trkpt lat="48.45645" lon="7.13658">
        <ele>588</ele>
        <time>2019-05-15T12:35:08.082Z</time>
      </trkpt>
      <trkpt lat="48.45645" lon="7.13659">
        <ele>588</ele>
        <time>2019-05-15T12:35:09.082Z</time>
      </trkpt>
      <trkpt lat="48.45646" lon="7.1366">
        <ele>588</ele>
        <time>2019-05-15T12:35:10.082Z</time>
      </trkpt>
      <trkpt lat="48.45646" lon="7.13662">
        <ele>588</ele>
        <time>2019-05-15T12:35:11.082Z</time>
      </trkpt>
      <trkpt lat="48.45647" lon="7.13663">
        <ele>588</ele>
        <time>2019-05-15T12:35:12.082Z</time>
      </trkpt>
      <trkpt lat="48.45647" lon="7.13665">
        <ele>588</ele>
        <time>2019-05-15T12:35:13.082Z</time>
      </trkpt>
      <trkpt lat="48.45647" lon="7.13667">
        <ele>588</ele>
        <time>2019-05-15T12:35:14.082Z</time>
      </trkpt>
      <trkpt lat="48.45648" lon="7.13668">
        <ele>589</ele>
        <time>2019-05-15T12:35:15.082Z</time>
      </trkpt>
      <trkpt lat="48.45648" lon="7.1367">
        <ele>588</ele>
        <time>2019-05-15T12:35:16.082Z</time>
      </trkpt>
      <trkpt lat="48.45648" lon="7.13671">
        <ele>589</ele>
        <time>2019-05-15T12:35:17.082Z</time>
      </trkpt>
      <trkpt lat="48.45648" lon="7.13673">
        <ele>590</ele>
        <time>2019-05-15T12:35:18.082Z</time>
      </trkpt>
      <trkpt lat="48.45649" lon="7.13674">
        <ele>591</ele>
        <time>2019-05-15T12:35:19.082Z</time>
      </trkpt>
      <trkpt lat="48.45649" lon="7.13675">
        <ele>592</ele>
        <time>2019-05-15T12:35:20.082Z</time>
      </trkpt>
      <trkpt lat="48.45649" lon="7.13677">
        <ele>593</ele>
        <time>2019-05-15T12:35:21.082Z</time>
      </trkpt>
      <trkpt lat="48.4565" lon="7.13678">
        <ele>593</ele>
        <time>2019-05-15T12:35:22.082Z</time>
      </trkpt>
      <trkpt lat="48.4565" lon="7.13679">
        <ele>594</ele>
        <time>2019-05-15T12:35:23.082Z</time>
      </trkpt>
      <trkpt lat="48.4565" lon="7.13681">
        <ele>594</ele>
        <time>2019-05-15T12:35:24.082Z</time>
      </trkpt>
      <trkpt lat="48.45651" lon="7.13682">
        <ele>595</ele>
        <time>2019-05-15T12:35:25.082Z</time>
      </trkpt>
      <trkpt lat="48.45651" lon="7.13683">
        <ele>596</ele>
        <time>2019-05-15T12:35:26.082Z</time>
      </trkpt>
      <trkpt lat="48.45652" lon="7.13685">
        <ele>597</ele>
        <time>2019-05-15T12:35:27.082Z</time>
      </trkpt>
      <trkpt lat="48.45652" lon="7.13686">
        <ele>596</ele>
        <time>2019-05-15T12:35:28.082Z</time>
      </trkpt>
      <trkpt lat="48.45653" lon="7.13687">
        <ele>596</ele>
        <time>2019-05-15T12:35:29.082Z</time>
      </trkpt>
      <trkpt lat="48.45653" lon="7.13689">
        <ele>596</ele>
        <time>2019-05-15T12:35:30.082Z</time>
      </trkpt>
      <trkpt lat="48.45653" lon="7.1369">
        <ele>596</ele>
        <time>2019-05-15T12:35:31.082Z</time>
      </trkpt>
      <trkpt lat="48.45653" lon="7.13692">
        <ele>595</ele>
        <time>2019-05-15T12:35:32.082Z</time>
      </trkpt>
      <trkpt lat="48.45653" lon="7.13693">
        <ele>595</ele>
        <time>2019-05-15T12:35:33.082Z</time>
      </trkpt>
      <trkpt lat="48.45654" lon="7.13695">
        <ele>594</ele>
        <time>2019-05-15T12:35:34.082Z</time>
      </trkpt>
      <trkpt lat="48.45654" lon="7.13696">
        <ele>594</ele>
        <time>2019-05-15T12:35:35.082Z</time>
      </trkpt>
      <trkpt lat="48.45655" lon="7.13698">
        <ele>594</ele>
        <time>2019-05-15T12:35:36.082Z</time>
      </trkpt>
      <trkpt lat="48.45655" lon="7.13699">
        <ele>595</ele>
        <time>2019-05-15T12:35:37.082Z</time>
      </trkpt>
      <trkpt lat="48.45656" lon="7.13701">
        <ele>594</ele>
        <time>2019-05-15T12:35:38.082Z</time>
      </trkpt>
      <trkpt lat="48.45656" lon="7.13702">
        <ele>594</ele>
        <time>2019-05-15T12:35:39.082Z</time>
      </trkpt>
      <trkpt lat="48.45657" lon="7.13703">
        <ele>593</ele>
        <time>2019-05-15T12:35:40.082Z</time>
      </trkpt>
      <trkpt lat="48.45657" lon="7.13705">
        <ele>592</ele>
        <time>2019-05-15T12:35:41.082Z</time>
      </trkpt>
      <trkpt lat="48.45658" lon="7.13706">
        <ele>592</ele>
        <time>2019-05-15T12:35:42.082Z</time>
      </trkpt>
      <trkpt lat="48.45658" lon="7.13708">
        <ele>592</ele>
        <time>2019-05-15T12:35:43.082Z</time>
      </trkpt>
      <trkpt lat="48.45658" lon="7.13709">
        <ele>592</ele>
        <time>2019-05-15T12:35:44.082Z</time>
      </trkpt>
      <trkpt lat="48.45658" lon="7.13711">
        <ele>592</ele>
        <time>2019-05-15T12:35:45.082Z</time>
      </trkpt>
      <trkpt lat="48.45659" lon="7.13712">
        <ele>592</ele>
        <time>2019-05-15T12:35:46.082Z</time>
      </trkpt>
      <trkpt lat="48.45659" lon="7.13714">
        <ele>592</ele>
        <time>2019-05-15T12:35:47.082Z</time>
      </trkpt>
      <trkpt lat="48.45659" lon="7.13715">
        <ele>592</ele>
        <time>2019-05-15T12:35:48.082Z</time>
      </trkpt>
      <trkpt lat="48.45659" lon="7.13717">
        <ele>592</ele>
        <time>2019-05-15T12:35:49.082Z</time>
      </trkpt>
      <trkpt lat="48.45659" lon="7.13718">
        <ele>592</ele>
        <time>2019-05-15T12:35:50.082Z</time>
      </trkpt>
      <trkpt lat="48.4566" lon="7.13719">
        <ele>593</ele>
        <time>2019-05-15T12:35:51.082Z</time>
      </trkpt>
      <trkpt lat="48.4566" lon="7.13721">
        <ele>593</ele>
        <time>2019-05-15T12:35:52.082Z</time>
      </trkpt>
      <trkpt lat="48.4566" lon="7.13722">
        <ele>592</ele>
        <time>2019-05-15T12:35:53.082Z</time>
      </trkpt>
      <trkpt lat="48.45661" lon="7.13724">
        <ele>592</ele>
        <time>2019-05-15T12:35:54.082Z</time>
      </trkpt>
      <trkpt lat="48.45661" lon="7.13725">
        <ele>591</ele>
        <time>2019-05-15T12:35:55.082Z</time>
      </trkpt>
      <trkpt lat="48.45661" lon="7.13726">
        <ele>591</ele>
        <time>2019-05-15T12:35:56.082Z</time>
      </trkpt>
      <trkpt lat="48.45662" lon="7.13728">
        <ele>591</ele>
        <time>2019-05-15T12:35:57.082Z</time>
      </trkpt>
      <trkpt lat="48.45662" lon="7.13729">
        <ele>591</ele>
        <time>2019-05-15T12:35:58.082Z</time>
      </trkpt>
      <trkpt lat="48.45663" lon="7.1373">
        <ele>591</ele>
        <time>2019-05-15T12:35:59.082Z</time>
      </trkpt>
      <trkpt lat="48.45663" lon="7.13732">
        <ele>592</ele>
        <time>2019-05-15T12:36:00.082Z</time>
      </trkpt>
      <trkpt lat="48.45664" lon="7.13733">
        <ele>592</ele>
        <time>2019-05-15T12:36:01.082Z</time>
      </trkpt>
      <trkpt lat="48.45664" lon="7.13734">
        <ele>592</ele>
        <time>2019-05-15T12:36:02.082Z</time>
      </trkpt>
      <trkpt lat="48.45665" lon="7.13736">
        <ele>593</ele>
        <time>2019-05-15T12:36:03.082Z</time>
      </trkpt>
      <trkpt lat="48.45665" lon="7.13737">
        <ele>593</ele>
        <time>2019-05-15T12:36:04.082Z</time>
      </trkpt>
      <trkpt lat="48.45666" lon="7.13738">
        <ele>593</ele>
        <time>2019-05-15T12:36:05.082Z</time>
      </trkpt>
      <trkpt lat="48.45666" lon="7.13739">
        <ele>593</ele>
        <time>2019-05-15T12:36:06.082Z</time>
      </trkpt>
      <trkpt lat="48.45666" lon="7.13741">
        <ele>594</ele>
        <time>2019-05-15T12:36:07.082Z</time>
      </trkpt>
      <trkpt lat="48.45667" lon="7.13742">
        <ele>594</ele>
        <time>2019-05-15T12:36:08.082Z</time>
      </trkpt>
      <trkpt lat="48.45667" lon="7.13743">
        <ele>594</ele>
        <time>2019-05-15T12:36:09.082Z</time>
      </trkpt>
      <trkpt lat="48.45667" lon="7.13745">
        <ele>594</ele>
        <time>2019-05-15T12:36:10.082Z</time>
      </trkpt>
      <trkpt lat="48.45668" lon="7.13746">
        <ele>594</ele>
        <time>2019-05-15T12:36:11.082Z</time>
      </trkpt>
      <trkpt lat="48.45668" lon="7.13747">
        <ele>594</ele>
        <time>2019-05-15T12:36:12.082Z</time>
      </trkpt>
      <trkpt lat="48.45669" lon="7.13749">
        <ele>594</ele>
        <time>2019-05-15T12:36:13.082Z</time>
      </trkpt>
      <trkpt lat="48.45669" lon="7.1375">
        <ele>594</ele>
        <time>2019-05-15T12:36:14.082Z</time>
      </trkpt>
      <trkpt lat="48.4567" lon="7.13751">
        <ele>593</ele>
        <time>2019-05-15T12:36:15.082Z</time>
      </trkpt>
      <trkpt lat="48.45671" lon="7.13752">
        <ele>592</ele>
        <time>2019-05-15T12:36:16.082Z</time>
      </trkpt>
      <trkpt lat="48.45671" lon="7.13754">
        <ele>592</ele>
        <time>2019-05-15T12:36:17.082Z</time>
      </trkpt>
      <trkpt lat="48.45671" lon="7.13755">
        <ele>593</ele>
        <time>2019-05-15T12:36:18.082Z</time>
      </trkpt>
      <trkpt lat="48.45672" lon="7.13756">
        <ele>594</ele>
        <time>2019-05-15T12:36:19.082Z</time>
      </trkpt>
      <trkpt lat="48.45672" lon="7.13758">
        <ele>594</ele>
        <time>2019-05-15T12:36:20.082Z</time>
      </trkpt>
      <trkpt lat="48.45673" lon="7.13759">
        <ele>595</ele>
        <time>2019-05-15T12:36:21.082Z</time>
      </trkpt>
      <trkpt lat="48.45673" lon="7.13761">
        <ele>594</ele>
        <time>2019-05-15T12:36:22.082Z</time>
      </trkpt>
      <trkpt lat="48.45673" lon="7.13762">
        <ele>595</ele>
        <time>2019-05-15T12:36:23.082Z</time>
      </trkpt>
      <trkpt lat="48.45674" lon="7.13763">
        <ele>595</ele>
        <time>2019-05-15T12:36:24.082Z</time>
      </trkpt>
      <trkpt lat="48.45674" lon="7.13765">
        <ele>596</ele>
        <time>2019-05-15T12:36:25.082Z</time>
      </trkpt>
      <trkpt lat="48.45674" lon="7.13766">
        <ele>596</ele>
        <time>2019-05-15T12:36:26.082Z</time>
      </trkpt>
      <trkpt lat="48.45674" lon="7.13767">
        <ele>595</ele>
        <time>2019-05-15T12:36:27.082Z</time>
      </trkpt>
      <trkpt lat="48.45675" lon="7.13769">
        <ele>595</ele>
        <time>2019-05-15T12:36:28.082Z</time>
      </trkpt>
      <trkpt lat="48.45675" lon="7.1377">
        <ele>595</ele>
        <time>2019-05-15T12:36:29.082Z</time>
      </trkpt>
      <trkpt lat="48.45675" lon="7.13772">
        <ele>595</ele>
        <time>2019-05-15T12:36:30.082Z</time>
      </trkpt>
      <trkpt lat="48.45676" lon="7.13774">
        <ele>596</ele>
        <time>2019-05-15T12:36:31.082Z</time>
      </trkpt>
      <trkpt lat="48.45676" lon="7.13775">
        <ele>596</ele>
        <time>2019-05-15T12:36:32.082Z</time>
      </trkpt>
      <trkpt lat="48.45676" lon="7.13777">
        <ele>597</ele>
        <time>2019-05-15T12:36:33.082Z</time>
      </trkpt>
      <trkpt lat="48.45676" lon="7.13779">
        <ele>596</ele>
        <time>2019-05-15T12:36:34.082Z</time>
      </trkpt>
      <trkpt lat="48.45677" lon="7.1378">
        <ele>597</ele>
        <time>2019-05-15T12:36:35.082Z</time>
      </trkpt>
      <trkpt lat="48.45677" lon="7.13782">
        <ele>597</ele>
        <time>2019-05-15T12:36:36.082Z</time>
      </trkpt>
      <trkpt lat="48.45678" lon="7.13783">
        <ele>598</ele>
        <time>2019-05-15T12:36:37.082Z</time>
      </trkpt>
      <trkpt lat="48.45678" lon="7.13784">
        <ele>598</ele>
        <time>2019-05-15T12:36:38.082Z</time>
      </trkpt>
      <trkpt lat="48.45679" lon="7.13785">
        <ele>597</ele>
        <time>2019-05-15T12:36:39.082Z</time>
      </trkpt>
      <trkpt lat="48.45679" lon="7.13787">
        <ele>596</ele>
        <time>2019-05-15T12:36:40.082Z</time>
      </trkpt>
      <trkpt lat="48.45679" lon="7.13788">
        <ele>596</ele>
        <time>2019-05-15T12:36:41.082Z</time>
      </trkpt>
      <trkpt lat="48.4568" lon="7.13789">
        <ele>596</ele>
        <time>2019-05-15T12:36:42.082Z</time>
      </trkpt>
      <trkpt lat="48.4568" lon="7.13791">
        <ele>596</ele>
        <time>2019-05-15T12:36:43.082Z</time>
      </trkpt>
      <trkpt lat="48.4568" lon="7.13792">
        <ele>596</ele>
        <time>2019-05-15T12:36:44.082Z</time>
      </trkpt>
      <trkpt lat="48.45681" lon="7.13793">
        <ele>596</ele>
        <time>2019-05-15T12:36:45.082Z</time>
      </trkpt>
      <trkpt lat="48.45681" lon="7.13795">
        <ele>596</ele>
        <time>2019-05-15T12:36:46.082Z</time>
      </trkpt>
      <trkpt lat="48.45682" lon="7.13796">
        <ele>596</ele>
        <time>2019-05-15T12:36:47.082Z</time>
      </trkpt>
      <trkpt lat="48.45682" lon="7.13797">
        <ele>597</ele>
        <time>2019-05-15T12:36:48.082Z</time>
      </trkpt>
      <trkpt lat="48.45682" lon="7.13799">
        <ele>595</ele>
        <time>2019-05-15T12:36:49.082Z</time>
      </trkpt>
      <trkpt lat="48.45683" lon="7.138">
        <ele>594</ele>
        <time>2019-05-15T12:36:50.082Z</time>
      </trkpt>
      <trkpt lat="48.45683" lon="7.13801">
        <ele>594</ele>
        <time>2019-05-15T12:36:51.082Z</time>
      </trkpt>
      <trkpt lat="48.45683" lon="7.13803">
        <ele>593</ele>
        <time>2019-05-15T12:36:52.082Z</time>
      </trkpt>
      <trkpt lat="48.45684" lon="7.13804">
        <ele>594</ele>
        <time>2019-05-15T12:36:53.082Z</time>
      </trkpt>
      <trkpt lat="48.45684" lon="7.13806">
        <ele>594</ele>
        <time>2019-05-15T12:36:54.082Z</time>
      </trkpt>
      <trkpt lat="48.45685" lon="7.13807">
        <ele>594</ele>
        <time>2019-05-15T12:36:55.082Z</time>
      </trkpt>
      <trkpt lat="48.45685" lon="7.13808">
        <ele>593</ele>
        <time>2019-05-15T12:36:56.082Z</time>
      </trkpt>
      <trkpt lat="48.45685" lon="7.13809">
        <ele>594</ele>
        <time>2019-05-15T12:36:57.082Z</time>
      </trkpt>
      <trkpt lat="48.45686" lon="7.13811">
        <ele>593</ele>
        <time>2019-05-15T12:36:58.082Z</time>
      </trkpt>
      <trkpt lat="48.45686" lon="7.13812">
        <ele>594</ele>
        <time>2019-05-15T12:36:59.082Z</time>
      </trkpt>
      <trkpt lat="48.45686" lon="7.13813">
        <ele>594</ele>
        <time>2019-05-15T12:37:00.082Z</time>
      </trkpt>
      <trkpt lat="48.45686" lon="7.13815">
        <ele>594</ele>
        <time>2019-05-15T12:37:01.082Z</time>
      </trkpt>
      <trkpt lat="48.45687" lon="7.13816">
        <ele>595</ele>
        <time>2019-05-15T12:37:02.082Z</time>
      </trkpt>
      <trkpt lat="48.45687" lon="7.13818">
        <ele>595</ele>
        <time>2019-05-15T12:37:03.082Z</time>
      </trkpt>
      <trkpt lat="48.45687" lon="7.13819">
        <ele>595</ele>
        <time>2019-05-15T12:37:04.082Z</time>
      </trkpt>
      <trkpt lat="48.45688" lon="7.1382">
        <ele>595</ele>
        <time>2019-05-15T12:37:05.082Z</time>
      </trkpt>
      <trkpt lat="48.45688" lon="7.13822">
        <ele>596</ele>
        <time>2019-05-15T12:37:06.082Z</time>
      </trkpt>
      <trkpt lat="48.45688" lon="7.13823">
        <ele>595</ele>
        <time>2019-05-15T12:37:07.082Z</time>
      </trkpt>
      <trkpt lat="48.45688" lon="7.13824">
        <ele>596</ele>
        <time>2019-05-15T12:37:08.082Z</time>
      </trkpt>
      <trkpt lat="48.45688" lon="7.13826">
        <ele>596</ele>
        <time>2019-05-15T12:37:09.082Z</time>
      </trkpt>
      <trkpt lat="48.45689" lon="7.13827">
        <ele>596</ele>
        <time>2019-05-15T12:37:10.082Z</time>
      </trkpt>
      <trkpt lat="48.45689" lon="7.13828">
        <ele>596</ele>
        <time>2019-05-15T12:37:11.082Z</time>
      </trkpt>
      <trkpt lat="48.45689" lon="7.1383">
        <ele>596</ele>
        <time>2019-05-15T12:37:12.082Z</time>
      </trkpt>
      <trkpt lat="48.4569" lon="7.13832">
        <ele>596</ele>
        <time>2019-05-15T12:37:13.082Z</time>
      </trkpt>
      <trkpt lat="48.4569" lon="7.13833">
        <ele>596</ele>
        <time>2019-05-15T12:37:14.082Z</time>
      </trkpt>
      <trkpt lat="48.4569" lon="7.13835">
        <ele>596</ele>
        <time>2019-05-15T12:37:15.082Z</time>
      </trkpt>
      <trkpt lat="48.4569" lon="7.13836">
        <ele>596</ele>
        <time>2019-05-15T12:37:16.082Z</time>
      </trkpt>
      <trkpt lat="48.4569" lon="7.13838">
        <ele>596</ele>
        <time>2019-05-15T12:37:17.082Z</time>
      </trkpt>
      <trkpt lat="48.45691" lon="7.13839">
        <ele>596</ele>
        <time>2019-05-15T12:37:18.082Z</time>
      </trkpt>
      <trkpt lat="48.45691" lon="7.13841">
        <ele>595</ele>
        <time>2019-05-15T12:37:19.082Z</time>
      </trkpt>
      <trkpt lat="48.45691" lon="7.13842">
        <ele>596</ele>
        <time>2019-05-15T12:37:20.082Z</time>
      </trkpt>
      <trkpt lat="48.45691" lon="7.13844">
        <ele>595</ele>
        <time>2019-05-15T12:37:21.082Z</time>
      </trkpt>
      <trkpt lat="48.45691" lon="7.13845">
        <ele>595</ele>
        <time>2019-05-15T12:37:22.082Z</time>
      </trkpt>
      <trkpt lat="48.45691" lon="7.13847">
        <ele>595</ele>
        <time>2019-05-15T12:37:23.082Z</time>
      </trkpt>
      <trkpt lat="48.45691" lon="7.13848">
        <ele>596</ele>
        <time>2019-05-15T12:37:24.082Z</time>
      </trkpt>
      <trkpt lat="48.45691" lon="7.1385">
        <ele>596</ele>
        <time>2019-05-15T12:37:25.082Z</time>
      </trkpt>
      <trkpt lat="48.4569" lon="7.13851">
        <ele>595</ele>
        <time>2019-05-15T12:37:26.082Z</time>
      </trkpt>
      <trkpt lat="48.4569" lon="7.13853">
        <ele>596</ele>
        <time>2019-05-15T12:37:27.082Z</time>
      </trkpt>
      <trkpt lat="48.4569" lon="7.13854">
        <ele>597</ele>
        <time>2019-05-15T12:37:28.082Z</time>
      </trkpt>
      <trkpt lat="48.45691" lon="7.13854">
        <ele>597</ele>
        <time>2019-05-15T12:37:29.082Z</time>
      </trkpt>
      <trkpt lat="48.45691" lon="7.13855">
        <ele>598</ele>
        <time>2019-05-15T12:37:30.082Z</time>
      </trkpt>
      <trkpt lat="48.45691" lon="7.13856">
        <ele>599</ele>
        <time>2019-05-15T12:37:31.082Z</time>
      </trkpt>
      <trkpt lat="48.45691" lon="7.13858">
        <ele>600</ele>
        <time>2019-05-15T12:37:32.082Z</time>
      </trkpt>
      <trkpt lat="48.45691" lon="7.13859">
        <ele>600</ele>
        <time>2019-05-15T12:37:33.082Z</time>
      </trkpt>
      <trkpt lat="48.45691" lon="7.13861">
        <ele>601</ele>
        <time>2019-05-15T12:37:34.082Z</time>
      </trkpt>
      <trkpt lat="48.45691" lon="7.13862">
        <ele>601</ele>
        <time>2019-05-15T12:37:35.082Z</time>
      </trkpt>
      <trkpt lat="48.45691" lon="7.13864">
        <ele>602</ele>
        <time>2019-05-15T12:37:36.082Z</time>
      </trkpt>
      <trkpt lat="48.45692" lon="7.13865">
        <ele>602</ele>
        <time>2019-05-15T12:37:37.082Z</time>
      </trkpt>
      <trkpt lat="48.45692" lon="7.13866">
        <ele>603</ele>
        <time>2019-05-15T12:37:38.082Z</time>
      </trkpt>
      <trkpt lat="48.45693" lon="7.13868">
        <ele>603</ele>
        <time>2019-05-15T12:37:39.082Z</time>
      </trkpt>
      <trkpt lat="48.45693" lon="7.13869">
        <ele>604</ele>
        <time>2019-05-15T12:37:40.082Z</time>
      </trkpt>
      <trkpt lat="48.45694" lon="7.13871">
        <ele>605</ele>
        <time>2019-05-15T12:37:41.082Z</time>
      </trkpt>
      <trkpt lat="48.45694" lon="7.13873">
        <ele>605</ele>
        <time>2019-05-15T12:37:42.082Z</time>
      </trkpt>
      <trkpt lat="48.45694" lon="7.13875">
        <ele>607</ele>
        <time>2019-05-15T12:37:43.082Z</time>
      </trkpt>
      <trkpt lat="48.45694" lon="7.13877">
        <ele>607</ele>
        <time>2019-05-15T12:37:44.082Z</time>
      </trkpt>
      <trkpt lat="48.45695" lon="7.13879">
        <ele>607</ele>
        <time>2019-05-15T12:37:45.082Z</time>
      </trkpt>
      <trkpt lat="48.45695" lon="7.13881">
        <ele>607</ele>
        <time>2019-05-15T12:37:46.082Z</time>
      </trkpt>
      <trkpt lat="48.45695" lon="7.13883">
        <ele>608</ele>
        <time>2019-05-15T12:37:47.082Z</time>
      </trkpt>
      <trkpt lat="48.45695" lon="7.13885">
        <ele>608</ele>
        <time>2019-05-15T12:37:48.082Z</time>
      </trkpt>
      <trkpt lat="48.45696" lon="7.13887">
        <ele>609</ele>
        <time>2019-05-15T12:37:49.082Z</time>
      </trkpt>
      <trkpt lat="48.45696" lon="7.13888">
        <ele>609</ele>
        <time>2019-05-15T12:37:50.082Z</time>
      </trkpt>
      <trkpt lat="48.45697" lon="7.1389">
        <ele>610</ele>
        <time>2019-05-15T12:37:51.082Z</time>
      </trkpt>
      <trkpt lat="48.45697" lon="7.13891">
        <ele>611</ele>
        <time>2019-05-15T12:37:52.082Z</time>
      </trkpt>
      <trkpt lat="48.45698" lon="7.13892">
        <ele>612</ele>
        <time>2019-05-15T12:37:53.082Z</time>
      </trkpt>
      <trkpt lat="48.45698" lon="7.13893">
        <ele>613</ele>
        <time>2019-05-15T12:37:54.082Z</time>
      </trkpt>
      <trkpt lat="48.45698" lon="7.13895">
        <ele>613</ele>
        <time>2019-05-15T12:37:55.082Z</time>
      </trkpt>
      <trkpt lat="48.45698" lon="7.13896">
        <ele>614</ele>
        <time>2019-05-15T12:37:56.082Z</time>
      </trkpt>
      <trkpt lat="48.45698" lon="7.13898">
        <ele>614</ele>
        <time>2019-05-15T12:37:57.082Z</time>
      </trkpt>
      <trkpt lat="48.45699" lon="7.139">
        <ele>615</ele>
        <time>2019-05-15T12:37:58.082Z</time>
      </trkpt>
      <trkpt lat="48.45698" lon="7.13902">
        <ele>615</ele>
        <time>2019-05-15T12:37:59.082Z</time>
      </trkpt>
      <trkpt lat="48.45699" lon="7.13903">
        <ele>616</ele>
        <time>2019-05-15T12:38:00.082Z</time>
      </trkpt>
      <trkpt lat="48.45699" lon="7.13904">
        <ele>617</ele>
        <time>2019-05-15T12:38:01.082Z</time>
      </trkpt>
      <trkpt lat="48.457" lon="7.13906">
        <ele>618</ele>
        <time>2019-05-15T12:38:02.082Z</time>
      </trkpt>
      <trkpt lat="48.457" lon="7.13907">
        <ele>619</ele>
        <time>2019-05-15T12:38:03.082Z</time>
      </trkpt>
      <trkpt lat="48.457" lon="7.13908">
        <ele>620</ele>
        <time>2019-05-15T12:38:04.082Z</time>
      </trkpt>
      <trkpt lat="48.45701" lon="7.13909">
        <ele>621</ele>
        <time>2019-05-15T12:38:05.082Z</time>
      </trkpt>
      <trkpt lat="48.45701" lon="7.13911">
        <ele>622</ele>
        <time>2019-05-15T12:38:06.082Z</time>
      </trkpt>
      <trkpt lat="48.45702" lon="7.13912">
        <ele>621</ele>
        <time>2019-05-15T12:38:07.082Z</time>
      </trkpt>
      <trkpt lat="48.45702" lon="7.13914">
        <ele>621</ele>
        <time>2019-05-15T12:38:08.082Z</time>
      </trkpt>
      <trkpt lat="48.45702" lon="7.13916">
        <ele>621</ele>
        <time>2019-05-15T12:38:09.082Z</time>
      </trkpt>
      <trkpt lat="48.45703" lon="7.13917">
        <ele>621</ele>
        <time>2019-05-15T12:38:10.082Z</time>
      </trkpt>
      <trkpt lat="48.45703" lon="7.13919">
        <ele>622</ele>
        <time>2019-05-15T12:38:11.082Z</time>
      </trkpt>
      <trkpt lat="48.45703" lon="7.1392">
        <ele>621</ele>
        <time>2019-05-15T12:38:12.082Z</time>
      </trkpt>
      <trkpt lat="48.45704" lon="7.13922">
        <ele>621</ele>
        <time>2019-05-15T12:38:13.082Z</time>
      </trkpt>
      <trkpt lat="48.45705" lon="7.13924">
        <ele>621</ele>
        <time>2019-05-15T12:38:14.082Z</time>
      </trkpt>
      <trkpt lat="48.45705" lon="7.13925">
        <ele>622</ele>
        <time>2019-05-15T12:38:15.082Z</time>
      </trkpt>
      <trkpt lat="48.45706" lon="7.13926">
        <ele>621</ele>
        <time>2019-05-15T12:38:16.082Z</time>
      </trkpt>
      <trkpt lat="48.45706" lon="7.13928">
        <ele>620</ele>
        <time>2019-05-15T12:38:17.082Z</time>
      </trkpt>
      <trkpt lat="48.45706" lon="7.13929">
        <ele>620</ele>
        <time>2019-05-15T12:38:18.082Z</time>
      </trkpt>
      <trkpt lat="48.45707" lon="7.1393">
        <ele>621</ele>
        <time>2019-05-15T12:38:19.082Z</time>
      </trkpt>
      <trkpt lat="48.45707" lon="7.13932">
        <ele>621</ele>
        <time>2019-05-15T12:38:20.082Z</time>
      </trkpt>
      <trkpt lat="48.45708" lon="7.13933">
        <ele>623</ele>
        <time>2019-05-15T12:38:21.082Z</time>
      </trkpt>
      <trkpt lat="48.45708" lon="7.13934">
        <ele>622</ele>
        <time>2019-05-15T12:38:22.082Z</time>
      </trkpt>
      <trkpt lat="48.45709" lon="7.13936">
        <ele>623</ele>
        <time>2019-05-15T12:38:23.082Z</time>
      </trkpt>
      <trkpt lat="48.45709" lon="7.13937">
        <ele>623</ele>
        <time>2019-05-15T12:38:24.082Z</time>
      </trkpt>
      <trkpt lat="48.45709" lon="7.13938">
        <ele>623</ele>
        <time>2019-05-15T12:38:25.082Z</time>
      </trkpt>
      <trkpt lat="48.45709" lon="7.1394">
        <ele>623</ele>
        <time>2019-05-15T12:38:26.082Z</time>
      </trkpt>
      <trkpt lat="48.4571" lon="7.13941">
        <ele>622</ele>
        <time>2019-05-15T12:38:27.082Z</time>
      </trkpt>
      <trkpt lat="48.4571" lon="7.13943">
        <ele>622</ele>
        <time>2019-05-15T12:38:28.082Z</time>
      </trkpt>
      <trkpt lat="48.45711" lon="7.13944">
        <ele>621</ele>
        <time>2019-05-15T12:38:29.082Z</time>
      </trkpt>
      <trkpt lat="48.45711" lon="7.13946">
        <ele>620</ele>
        <time>2019-05-15T12:38:30.082Z</time>
      </trkpt>
      <trkpt lat="48.45712" lon="7.13947">
        <ele>621</ele>
        <time>2019-05-15T12:38:31.082Z</time>
      </trkpt>
      <trkpt lat="48.45712" lon="7.13949">
        <ele>622</ele>
        <time>2019-05-15T12:38:32.082Z</time>
      </trkpt>
      <trkpt lat="48.45713" lon="7.1395">
        <ele>621</ele>
        <time>2019-05-15T12:38:33.082Z</time>
      </trkpt>
      <trkpt lat="48.45714" lon="7.13952">
        <ele>621</ele>
        <time>2019-05-15T12:38:34.082Z</time>
      </trkpt>
      <trkpt lat="48.45714" lon="7.13953">
        <ele>622</ele>
        <time>2019-05-15T12:38:35.082Z</time>
      </trkpt>
      <trkpt lat="48.45715" lon="7.13955">
        <ele>622</ele>
        <time>2019-05-15T12:38:36.082Z</time>
      </trkpt>
      <trkpt lat="48.45715" lon="7.13956">
        <ele>621</ele>
        <time>2019-05-15T12:38:37.082Z</time>
      </trkpt>
      <trkpt lat="48.45716" lon="7.13958">
        <ele>620</ele>
        <time>2019-05-15T12:38:38.082Z</time>
      </trkpt>
      <trkpt lat="48.45716" lon="7.13959">
        <ele>620</ele>
        <time>2019-05-15T12:38:39.082Z</time>
      </trkpt>
      <trkpt lat="48.45716" lon="7.13961">
        <ele>620</ele>
        <time>2019-05-15T12:38:40.082Z</time>
      </trkpt>
      <trkpt lat="48.45716" lon="7.13962">
        <ele>619</ele>
        <time>2019-05-15T12:38:41.082Z</time>
      </trkpt>
      <trkpt lat="48.45717" lon="7.13964">
        <ele>619</ele>
        <time>2019-05-15T12:38:42.082Z</time>
      </trkpt>
      <trkpt lat="48.45717" lon="7.13966">
        <ele>617</ele>
        <time>2019-05-15T12:38:43.082Z</time>
      </trkpt>
      <trkpt lat="48.45717" lon="7.13968">
        <ele>616</ele>
        <time>2019-05-15T12:38:44.082Z</time>
      </trkpt>
      <trkpt lat="48.45717" lon="7.1397">
        <ele>613</ele>
        <time>2019-05-15T12:38:45.082Z</time>
      </trkpt>
      <trkpt lat="48.45718" lon="7.13971">
        <ele>613</ele>
        <time>2019-05-15T12:38:46.082Z</time>
      </trkpt>
      <trkpt lat="48.45718" lon="7.13973">
        <ele>613</ele>
        <time>2019-05-15T12:38:47.082Z</time>
      </trkpt>
      <trkpt lat="48.45718" lon="7.13974">
        <ele>613</ele>
        <time>2019-05-15T12:38:48.082Z</time>
      </trkpt>
      <trkpt lat="48.45719" lon="7.13975">
        <ele>613</ele>
        <time>2019-05-15T12:38:49.082Z</time>
      </trkpt>
      <trkpt lat="48.45719" lon="7.13976">
        <ele>612</ele>
        <time>2019-05-15T12:38:50.082Z</time>
      </trkpt>
      <trkpt lat="48.45719" lon="7.13977">
        <ele>612</ele>
        <time>2019-05-15T12:38:51.082Z</time>
      </trkpt>
      <trkpt lat="48.45719" lon="7.13978">
        <ele>612</ele>
        <time>2019-05-15T12:38:52.082Z</time>
      </trkpt>
      <trkpt lat="48.45719" lon="7.13979">
        <ele>613</ele>
        <time>2019-05-15T12:38:53.082Z</time>
      </trkpt>
      <trkpt lat="48.45719" lon="7.1398">
        <ele>613</ele>
        <time>2019-05-15T12:38:54.082Z</time>
      </trkpt>
      <trkpt lat="48.45719" lon="7.13982">
        <ele>614</ele>
        <time>2019-05-15T12:38:55.082Z</time>
      </trkpt>
      <trkpt lat="48.45719" lon="7.13983">
        <ele>615</ele>
        <time>2019-05-15T12:38:56.082Z</time>
      </trkpt>
      <trkpt lat="48.45719" lon="7.13984">
        <ele>615</ele>
        <time>2019-05-15T12:38:57.082Z</time>
      </trkpt>
      <trkpt lat="48.45719" lon="7.13985">
        <ele>615</ele>
        <time>2019-05-15T12:38:58.082Z</time>
      </trkpt>
      <trkpt lat="48.45718" lon="7.13986">
        <ele>615</ele>
        <time>2019-05-15T12:38:59.082Z</time>
      </trkpt>
      <trkpt lat="48.45718" lon="7.13987">
        <ele>616</ele>
        <time>2019-05-15T12:39:00.082Z</time>
      </trkpt>
      <trkpt lat="48.45719" lon="7.13988">
        <ele>614</ele>
        <time>2019-05-15T12:39:01.082Z</time>
      </trkpt>
      <trkpt lat="48.45719" lon="7.13989">
        <ele>613</ele>
        <time>2019-05-15T12:39:02.082Z</time>
      </trkpt>
      <trkpt lat="48.45719" lon="7.13991">
        <ele>613</ele>
        <time>2019-05-15T12:39:03.082Z</time>
      </trkpt>
      <trkpt lat="48.45719" lon="7.13992">
        <ele>613</ele>
        <time>2019-05-15T12:39:04.082Z</time>
      </trkpt>
      <trkpt lat="48.45719" lon="7.13994">
        <ele>612</ele>
        <time>2019-05-15T12:39:05.082Z</time>
      </trkpt>
      <trkpt lat="48.4572" lon="7.13995">
        <ele>613</ele>
        <time>2019-05-15T12:39:06.082Z</time>
      </trkpt>
      <trkpt lat="48.4572" lon="7.13997">
        <ele>612</ele>
        <time>2019-05-15T12:39:07.082Z</time>
      </trkpt>
      <trkpt lat="48.4572" lon="7.13998">
        <ele>612</ele>
        <time>2019-05-15T12:39:08.082Z</time>
      </trkpt>
      <trkpt lat="48.45721" lon="7.14">
        <ele>613</ele>
        <time>2019-05-15T12:39:09.082Z</time>
      </trkpt>
      <trkpt lat="48.45721" lon="7.14002">
        <ele>614</ele>
        <time>2019-05-15T12:39:10.082Z</time>
      </trkpt>
      <trkpt lat="48.45721" lon="7.14004">
        <ele>615</ele>
        <time>2019-05-15T12:39:11.082Z</time>
      </trkpt>
      <trkpt lat="48.45721" lon="7.14006">
        <ele>614</ele>
        <time>2019-05-15T12:39:12.082Z</time>
      </trkpt>
      <trkpt lat="48.45721" lon="7.14008">
        <ele>614</ele>
        <time>2019-05-15T12:39:13.082Z</time>
      </trkpt>
      <trkpt lat="48.45721" lon="7.14009">
        <ele>615</ele>
        <time>2019-05-15T12:39:14.082Z</time>
      </trkpt>
      <trkpt lat="48.45721" lon="7.1401">
        <ele>614</ele>
        <time>2019-05-15T12:39:15.082Z</time>
      </trkpt>
      <trkpt lat="48.45721" lon="7.14011">
        <ele>615</ele>
        <time>2019-05-15T12:39:16.082Z</time>
      </trkpt>
      <trkpt lat="48.45721" lon="7.14013">
        <ele>615</ele>
        <time>2019-05-15T12:39:17.082Z</time>
      </trkpt>
      <trkpt lat="48.45721" lon="7.14014">
        <ele>614</ele>
        <time>2019-05-15T12:39:18.082Z</time>
      </trkpt>
      <trkpt lat="48.45721" lon="7.14015">
        <ele>615</ele>
        <time>2019-05-15T12:39:19.082Z</time>
      </trkpt>
      <trkpt lat="48.4572" lon="7.14016">
        <ele>615</ele>
        <time>2019-05-15T12:39:20.082Z</time>
      </trkpt>
      <trkpt lat="48.4572" lon="7.14018">
        <ele>616</ele>
        <time>2019-05-15T12:39:21.082Z</time>
      </trkpt>
      <trkpt lat="48.4572" lon="7.14019">
        <ele>616</ele>
        <time>2019-05-15T12:39:22.082Z</time>
      </trkpt>
      <trkpt lat="48.4572" lon="7.14021">
        <ele>617</ele>
        <time>2019-05-15T12:39:23.082Z</time>
      </trkpt>
      <trkpt lat="48.4572" lon="7.14023">
        <ele>617</ele>
        <time>2019-05-15T12:39:24.082Z</time>
      </trkpt>
      <trkpt lat="48.4572" lon="7.14024">
        <ele>618</ele>
        <time>2019-05-15T12:39:25.082Z</time>
      </trkpt>
      <trkpt lat="48.4572" lon="7.14026">
        <ele>618</ele>
        <time>2019-05-15T12:39:26.082Z</time>
      </trkpt>
      <trkpt lat="48.45719" lon="7.14028">
        <ele>616</ele>
        <time>2019-05-15T12:39:27.082Z</time>
      </trkpt>
      <trkpt lat="48.45719" lon="7.14029">
        <ele>616</ele>
        <time>2019-05-15T12:39:28.082Z</time>
      </trkpt>
      <trkpt lat="48.45719" lon="7.1403">
        <ele>616</ele>
        <time>2019-05-15T12:39:29.082Z</time>
      </trkpt>
      <trkpt lat="48.45719" lon="7.14031">
        <ele>615</ele>
        <time>2019-05-15T12:39:30.082Z</time>
      </trkpt>
      <trkpt lat="48.45719" lon="7.14032">
        <ele>616</ele>
        <time>2019-05-15T12:39:31.082Z</time>
      </trkpt>
      <trkpt lat="48.45719" lon="7.14033">
        <ele>616</ele>
        <time>2019-05-15T12:39:32.082Z</time>
      </trkpt>
      <trkpt lat="48.45719" lon="7.14035">
        <ele>617</ele>
        <time>2019-05-15T12:39:33.082Z</time>
      </trkpt>
      <trkpt lat="48.4572" lon="7.14037">
        <ele>617</ele>
        <time>2019-05-15T12:39:34.082Z</time>
      </trkpt>
      <trkpt lat="48.4572" lon="7.14039">
        <ele>616</ele>
        <time>2019-05-15T12:39:35.082Z</time>
      </trkpt>
      <trkpt lat="48.45721" lon="7.14041">
        <ele>615</ele>
        <time>2019-05-15T12:39:36.082Z</time>
      </trkpt>
      <trkpt lat="48.45721" lon="7.14042">
        <ele>615</ele>
        <time>2019-05-15T12:39:37.082Z</time>
      </trkpt>
      <trkpt lat="48.45721" lon="7.14044">
        <ele>615</ele>
        <time>2019-05-15T12:39:38.082Z</time>
      </trkpt>
      <trkpt lat="48.45721" lon="7.14045">
        <ele>614</ele>
        <time>2019-05-15T12:39:39.082Z</time>
      </trkpt>
      <trkpt lat="48.45721" lon="7.14046">
        <ele>614</ele>
        <time>2019-05-15T12:39:40.082Z</time>
      </trkpt>
      <trkpt lat="48.45721" lon="7.14048">
        <ele>614</ele>
        <time>2019-05-15T12:39:41.082Z</time>
      </trkpt>
      <trkpt lat="48.4572" lon="7.14049">
        <ele>614</ele>
        <time>2019-05-15T12:39:42.082Z</time>
      </trkpt>
      <trkpt lat="48.4572" lon="7.1405">
        <ele>613</ele>
        <time>2019-05-15T12:39:43.082Z</time>
      </trkpt>
      <trkpt lat="48.45721" lon="7.14051">
        <ele>614</ele>
        <time>2019-05-15T12:39:44.082Z</time>
      </trkpt>
      <trkpt lat="48.45721" lon="7.14053">
        <ele>615</ele>
        <time>2019-05-15T12:39:45.082Z</time>
      </trkpt>
      <trkpt lat="48.45721" lon="7.14054">
        <ele>615</ele>
        <time>2019-05-15T12:39:46.082Z</time>
      </trkpt>
      <trkpt lat="48.45721" lon="7.14056">
        <ele>615</ele>
        <time>2019-05-15T12:39:47.082Z</time>
      </trkpt>
      <trkpt lat="48.45721" lon="7.14058">
        <ele>615</ele>
        <time>2019-05-15T12:39:48.082Z</time>
      </trkpt>
      <trkpt lat="48.45721" lon="7.1406">
        <ele>616</ele>
        <time>2019-05-15T12:39:49.082Z</time>
      </trkpt>
      <trkpt lat="48.45722" lon="7.14062">
        <ele>617</ele>
        <time>2019-05-15T12:39:50.082Z</time>
      </trkpt>
      <trkpt lat="48.45722" lon="7.14064">
        <ele>618</ele>
        <time>2019-05-15T12:39:51.082Z</time>
      </trkpt>
      <trkpt lat="48.45722" lon="7.14066">
        <ele>619</ele>
        <time>2019-05-15T12:39:52.082Z</time>
      </trkpt>
      <trkpt lat="48.45722" lon="7.14068">
        <ele>620</ele>
        <time>2019-05-15T12:39:53.082Z</time>
      </trkpt>
      <trkpt lat="48.45722" lon="7.1407">
        <ele>622</ele>
        <time>2019-05-15T12:39:54.082Z</time>
      </trkpt>
      <trkpt lat="48.45723" lon="7.14072">
        <ele>623</ele>
        <time>2019-05-15T12:39:55.082Z</time>
      </trkpt>
      <trkpt lat="48.45723" lon="7.14074">
        <ele>624</ele>
        <time>2019-05-15T12:39:56.082Z</time>
      </trkpt>
      <trkpt lat="48.45723" lon="7.14076">
        <ele>624</ele>
        <time>2019-05-15T12:39:57.082Z</time>
      </trkpt>
      <trkpt lat="48.45724" lon="7.14078">
        <ele>625</ele>
        <time>2019-05-15T12:39:58.082Z</time>
      </trkpt>
      <trkpt lat="48.45724" lon="7.1408">
        <ele>626</ele>
        <time>2019-05-15T12:39:59.082Z</time>
      </trkpt>
      <trkpt lat="48.45724" lon="7.14081">
        <ele>627</ele>
        <time>2019-05-15T12:40:00.082Z</time>
      </trkpt>
      <trkpt lat="48.45725" lon="7.14082">
        <ele>628</ele>
        <time>2019-05-15T12:40:01.082Z</time>
      </trkpt>
      <trkpt lat="48.45725" lon="7.14084">
        <ele>628</ele>
        <time>2019-05-15T12:40:02.082Z</time>
      </trkpt>
      <trkpt lat="48.45725" lon="7.14085">
        <ele>627</ele>
        <time>2019-05-15T12:40:03.082Z</time>
      </trkpt>
      <trkpt lat="48.45725" lon="7.14087">
        <ele>627</ele>
        <time>2019-05-15T12:40:04.082Z</time>
      </trkpt>
      <trkpt lat="48.45725" lon="7.14089">
        <ele>626</ele>
        <time>2019-05-15T12:40:05.082Z</time>
      </trkpt>
      <trkpt lat="48.45725" lon="7.1409">
        <ele>625</ele>
        <time>2019-05-15T12:40:06.082Z</time>
      </trkpt>
      <trkpt lat="48.45725" lon="7.14092">
        <ele>625</ele>
        <time>2019-05-15T12:40:07.082Z</time>
      </trkpt>
      <trkpt lat="48.45724" lon="7.14094">
        <ele>624</ele>
        <time>2019-05-15T12:40:08.082Z</time>
      </trkpt>
      <trkpt lat="48.45724" lon="7.14095">
        <ele>623</ele>
        <time>2019-05-15T12:40:09.082Z</time>
      </trkpt>
      <trkpt lat="48.45724" lon="7.14097">
        <ele>623</ele>
        <time>2019-05-15T12:40:10.082Z</time>
      </trkpt>
      <trkpt lat="48.45724" lon="7.14098">
        <ele>622</ele>
        <time>2019-05-15T12:40:11.082Z</time>
      </trkpt>
      <trkpt lat="48.45724" lon="7.14099">
        <ele>622</ele>
        <time>2019-05-15T12:40:12.082Z</time>
      </trkpt>
      <trkpt lat="48.45725" lon="7.14101">
        <ele>622</ele>
        <time>2019-05-15T12:40:13.082Z</time>
      </trkpt>
      <trkpt lat="48.45725" lon="7.14103">
        <ele>622</ele>
        <time>2019-05-15T12:40:14.082Z</time>
      </trkpt>
      <trkpt lat="48.45725" lon="7.14106">
        <ele>622</ele>
        <time>2019-05-15T12:40:15.082Z</time>
      </trkpt>
      <trkpt lat="48.45725" lon="7.14108">
        <ele>624</ele>
        <time>2019-05-15T12:40:16.082Z</time>
      </trkpt>
      <trkpt lat="48.45726" lon="7.1411">
        <ele>625</ele>
        <time>2019-05-15T12:40:17.082Z</time>
      </trkpt>
      <trkpt lat="48.45726" lon="7.14113">
        <ele>626</ele>
        <time>2019-05-15T12:40:18.082Z</time>
      </trkpt>
      <trkpt lat="48.45726" lon="7.14115">
        <ele>627</ele>
        <time>2019-05-15T12:40:19.082Z</time>
      </trkpt>
      <trkpt lat="48.45726" lon="7.14117">
        <ele>628</ele>
        <time>2019-05-15T12:40:20.082Z</time>
      </trkpt>
      <trkpt lat="48.45727" lon="7.14119">
        <ele>628</ele>
        <time>2019-05-15T12:40:21.082Z</time>
      </trkpt>
      <trkpt lat="48.45727" lon="7.14121">
        <ele>628</ele>
        <time>2019-05-15T12:40:22.082Z</time>
      </trkpt>
      <trkpt lat="48.45727" lon="7.14123">
        <ele>628</ele>
        <time>2019-05-15T12:40:23.082Z</time>
      </trkpt>
      <trkpt lat="48.45727" lon="7.14125">
        <ele>627</ele>
        <time>2019-05-15T12:40:24.082Z</time>
      </trkpt>
      <trkpt lat="48.45727" lon="7.14127">
        <ele>627</ele>
        <time>2019-05-15T12:40:25.082Z</time>
      </trkpt>
      <trkpt lat="48.45727" lon="7.14129">
        <ele>626</ele>
        <time>2019-05-15T12:40:26.082Z</time>
      </trkpt>
      <trkpt lat="48.45726" lon="7.1413">
        <ele>625</ele>
        <time>2019-05-15T12:40:27.082Z</time>
      </trkpt>
      <trkpt lat="48.45726" lon="7.14132">
        <ele>626</ele>
        <time>2019-05-15T12:40:28.082Z</time>
      </trkpt>
      <trkpt lat="48.45726" lon="7.14133">
        <ele>626</ele>
        <time>2019-05-15T12:40:29.082Z</time>
      </trkpt>
      <trkpt lat="48.45727" lon="7.14135">
        <ele>626</ele>
        <time>2019-05-15T12:40:30.082Z</time>
      </trkpt>
      <trkpt lat="48.45727" lon="7.14137">
        <ele>626</ele>
        <time>2019-05-15T12:40:31.082Z</time>
      </trkpt>
      <trkpt lat="48.45727" lon="7.14139">
        <ele>626</ele>
        <time>2019-05-15T12:40:32.082Z</time>
      </trkpt>
      <trkpt lat="48.45727" lon="7.14141">
        <ele>624</ele>
        <time>2019-05-15T12:40:33.082Z</time>
      </trkpt>
      <trkpt lat="48.45727" lon="7.14142">
        <ele>623</ele>
        <time>2019-05-15T12:40:34.082Z</time>
      </trkpt>
      <trkpt lat="48.45727" lon="7.14144">
        <ele>622</ele>
        <time>2019-05-15T12:40:35.082Z</time>
      </trkpt>
      <trkpt lat="48.45727" lon="7.14146">
        <ele>621</ele>
        <time>2019-05-15T12:40:36.082Z</time>
      </trkpt>
      <trkpt lat="48.45727" lon="7.14148">
        <ele>620</ele>
        <time>2019-05-15T12:40:37.082Z</time>
      </trkpt>
      <trkpt lat="48.45727" lon="7.14149">
        <ele>619</ele>
        <time>2019-05-15T12:40:38.082Z</time>
      </trkpt>
      <trkpt lat="48.45728" lon="7.14151">
        <ele>619</ele>
        <time>2019-05-15T12:40:39.082Z</time>
      </trkpt>
      <trkpt lat="48.45728" lon="7.14153">
        <ele>618</ele>
        <time>2019-05-15T12:40:40.082Z</time>
      </trkpt>
      <trkpt lat="48.45728" lon="7.14154">
        <ele>617</ele>
        <time>2019-05-15T12:40:41.082Z</time>
      </trkpt>
      <trkpt lat="48.45728" lon="7.14156">
        <ele>617</ele>
        <time>2019-05-15T12:40:42.082Z</time>
      </trkpt>
      <trkpt lat="48.45728" lon="7.14157">
        <ele>617</ele>
        <time>2019-05-15T12:40:43.082Z</time>
      </trkpt>
      <trkpt lat="48.45729" lon="7.14159">
        <ele>617</ele>
        <time>2019-05-15T12:40:44.082Z</time>
      </trkpt>
      <trkpt lat="48.45729" lon="7.1416">
        <ele>616</ele>
        <time>2019-05-15T12:40:45.082Z</time>
      </trkpt>
      <trkpt lat="48.45729" lon="7.14161">
        <ele>617</ele>
        <time>2019-05-15T12:40:46.082Z</time>
      </trkpt>
      <trkpt lat="48.45729" lon="7.14163">
        <ele>617</ele>
        <time>2019-05-15T12:40:47.082Z</time>
      </trkpt>
      <trkpt lat="48.4573" lon="7.14165">
        <ele>617</ele>
        <time>2019-05-15T12:40:48.082Z</time>
      </trkpt>
      <trkpt lat="48.4573" lon="7.14167">
        <ele>617</ele>
        <time>2019-05-15T12:40:49.082Z</time>
      </trkpt>
      <trkpt lat="48.4573" lon="7.14168">
        <ele>616</ele>
        <time>2019-05-15T12:40:50.082Z</time>
      </trkpt>
      <trkpt lat="48.4573" lon="7.1417">
        <ele>616</ele>
        <time>2019-05-15T12:40:51.082Z</time>
      </trkpt>
      <trkpt lat="48.4573" lon="7.14171">
        <ele>616</ele>
        <time>2019-05-15T12:40:52.082Z</time>
      </trkpt>
      <trkpt lat="48.4573" lon="7.14173">
        <ele>616</ele>
        <time>2019-05-15T12:40:53.082Z</time>
      </trkpt>
      <trkpt lat="48.4573" lon="7.14174">
        <ele>616</ele>
        <time>2019-05-15T12:40:54.082Z</time>
      </trkpt>
      <trkpt lat="48.4573" lon="7.14176">
        <ele>616</ele>
        <time>2019-05-15T12:40:55.082Z</time>
      </trkpt>
      <trkpt lat="48.4573" lon="7.14178">
        <ele>617</ele>
        <time>2019-05-15T12:40:56.082Z</time>
      </trkpt>
      <trkpt lat="48.4573" lon="7.14179">
        <ele>617</ele>
        <time>2019-05-15T12:40:57.082Z</time>
      </trkpt>
      <trkpt lat="48.45731" lon="7.14181">
        <ele>617</ele>
        <time>2019-05-15T12:40:58.082Z</time>
      </trkpt>
      <trkpt lat="48.45731" lon="7.14182">
        <ele>617</ele>
        <time>2019-05-15T12:40:59.082Z</time>
      </trkpt>
      <trkpt lat="48.45731" lon="7.14184">
        <ele>617</ele>
        <time>2019-05-15T12:41:00.082Z</time>
      </trkpt>
      <trkpt lat="48.45731" lon="7.14185">
        <ele>617</ele>
        <time>2019-05-15T12:41:01.082Z</time>
      </trkpt>
      <trkpt lat="48.45731" lon="7.14187">
        <ele>617</ele>
        <time>2019-05-15T12:41:02.082Z</time>
      </trkpt>
      <trkpt lat="48.45731" lon="7.14187">
        <ele>617</ele>
        <time>2019-05-15T12:41:03.082Z</time>
      </trkpt>
      <trkpt lat="48.45732" lon="7.14189">
        <ele>616</ele>
        <time>2019-05-15T12:41:04.082Z</time>
      </trkpt>
      <trkpt lat="48.45732" lon="7.1419">
        <ele>617</ele>
        <time>2019-05-15T12:41:05.082Z</time>
      </trkpt>
      <trkpt lat="48.45732" lon="7.14191">
        <ele>617</ele>
        <time>2019-05-15T12:41:06.082Z</time>
      </trkpt>
      <trkpt lat="48.45732" lon="7.14193">
        <ele>618</ele>
        <time>2019-05-15T12:41:07.082Z</time>
      </trkpt>
      <trkpt lat="48.45732" lon="7.14194">
        <ele>618</ele>
        <time>2019-05-15T12:41:08.082Z</time>
      </trkpt>
      <trkpt lat="48.45732" lon="7.14196">
        <ele>619</ele>
        <time>2019-05-15T12:41:09.082Z</time>
      </trkpt>
      <trkpt lat="48.45732" lon="7.14198">
        <ele>619</ele>
        <time>2019-05-15T12:41:10.082Z</time>
      </trkpt>
      <trkpt lat="48.45732" lon="7.142">
        <ele>618</ele>
        <time>2019-05-15T12:41:11.082Z</time>
      </trkpt>
      <trkpt lat="48.45733" lon="7.14201">
        <ele>617</ele>
        <time>2019-05-15T12:41:12.082Z</time>
      </trkpt>
      <trkpt lat="48.45733" lon="7.14202">
        <ele>617</ele>
        <time>2019-05-15T12:41:13.082Z</time>
      </trkpt>
      <trkpt lat="48.45733" lon="7.14203">
        <ele>617</ele>
        <time>2019-05-15T12:41:14.082Z</time>
      </trkpt>
      <trkpt lat="48.45733" lon="7.14205">
        <ele>617</ele>
        <time>2019-05-15T12:41:15.082Z</time>
      </trkpt>
      <trkpt lat="48.45733" lon="7.14206">
        <ele>617</ele>
        <time>2019-05-15T12:41:16.082Z</time>
      </trkpt>
      <trkpt lat="48.45733" lon="7.14208">
        <ele>617</ele>
        <time>2019-05-15T12:41:17.082Z</time>
      </trkpt>
      <trkpt lat="48.45733" lon="7.1421">
        <ele>617</ele>
        <time>2019-05-15T12:41:18.082Z</time>
      </trkpt>
      <trkpt lat="48.45733" lon="7.14211">
        <ele>617</ele>
        <time>2019-05-15T12:41:19.082Z</time>
      </trkpt>
      <trkpt lat="48.45733" lon="7.14213">
        <ele>617</ele>
        <time>2019-05-15T12:41:20.082Z</time>
      </trkpt>
      <trkpt lat="48.45733" lon="7.14214">
        <ele>618</ele>
        <time>2019-05-15T12:41:21.082Z</time>
      </trkpt>
      <trkpt lat="48.45733" lon="7.14215">
        <ele>618</ele>
        <time>2019-05-15T12:41:22.082Z</time>
      </trkpt>
      <trkpt lat="48.45733" lon="7.14217">
        <ele>618</ele>
        <time>2019-05-15T12:41:23.082Z</time>
      </trkpt>
      <trkpt lat="48.45733" lon="7.14218">
        <ele>619</ele>
        <time>2019-05-15T12:41:24.082Z</time>
      </trkpt>
      <trkpt lat="48.45732" lon="7.1422">
        <ele>618</ele>
        <time>2019-05-15T12:41:25.082Z</time>
      </trkpt>
      <trkpt lat="48.45732" lon="7.14221">
        <ele>619</ele>
        <time>2019-05-15T12:41:26.082Z</time>
      </trkpt>
      <trkpt lat="48.45731" lon="7.14223">
        <ele>619</ele>
        <time>2019-05-15T12:41:27.082Z</time>
      </trkpt>
      <trkpt lat="48.45731" lon="7.14224">
        <ele>619</ele>
        <time>2019-05-15T12:41:28.082Z</time>
      </trkpt>
      <trkpt lat="48.4573" lon="7.14226">
        <ele>618</ele>
        <time>2019-05-15T12:41:29.082Z</time>
      </trkpt>
      <trkpt lat="48.4573" lon="7.14227">
        <ele>618</ele>
        <time>2019-05-15T12:41:30.082Z</time>
      </trkpt>
      <trkpt lat="48.4573" lon="7.14229">
        <ele>618</ele>
        <time>2019-05-15T12:41:31.082Z</time>
      </trkpt>
      <trkpt lat="48.45729" lon="7.1423">
        <ele>618</ele>
        <time>2019-05-15T12:41:32.082Z</time>
      </trkpt>
      <trkpt lat="48.45729" lon="7.14232">
        <ele>618</ele>
        <time>2019-05-15T12:41:33.082Z</time>
      </trkpt>
      <trkpt lat="48.45728" lon="7.14233">
        <ele>618</ele>
        <time>2019-05-15T12:41:34.082Z</time>
      </trkpt>
      <trkpt lat="48.45727" lon="7.14235">
        <ele>618</ele>
        <time>2019-05-15T12:41:35.082Z</time>
      </trkpt>
      <trkpt lat="48.45727" lon="7.14236">
        <ele>619</ele>
        <time>2019-05-15T12:41:36.082Z</time>
      </trkpt>
      <trkpt lat="48.45727" lon="7.14238">
        <ele>620</ele>
        <time>2019-05-15T12:41:37.082Z</time>
      </trkpt>
      <trkpt lat="48.45727" lon="7.1424">
        <ele>620</ele>
        <time>2019-05-15T12:41:38.082Z</time>
      </trkpt>
      <trkpt lat="48.45727" lon="7.14241">
        <ele>620</ele>
        <time>2019-05-15T12:41:39.082Z</time>
      </trkpt>
      <trkpt lat="48.45727" lon="7.14243">
        <ele>620</ele>
        <time>2019-05-15T12:41:40.082Z</time>
      </trkpt>
      <trkpt lat="48.45726" lon="7.14244">
        <ele>620</ele>
        <time>2019-05-15T12:41:41.082Z</time>
      </trkpt>
      <trkpt lat="48.45726" lon="7.14246">
        <ele>620</ele>
        <time>2019-05-15T12:41:42.082Z</time>
      </trkpt>
      <trkpt lat="48.45725" lon="7.14247">
        <ele>619</ele>
        <time>2019-05-15T12:41:43.082Z</time>
      </trkpt>
      <trkpt lat="48.45725" lon="7.14248">
        <ele>619</ele>
        <time>2019-05-15T12:41:44.082Z</time>
      </trkpt>
      <trkpt lat="48.45724" lon="7.14249">
        <ele>619</ele>
        <time>2019-05-15T12:41:45.082Z</time>
      </trkpt>
      <trkpt lat="48.45724" lon="7.1425">
        <ele>620</ele>
        <time>2019-05-15T12:41:46.082Z</time>
      </trkpt>
      <trkpt lat="48.45723" lon="7.14252">
        <ele>619</ele>
        <time>2019-05-15T12:41:47.082Z</time>
      </trkpt>
      <trkpt lat="48.45723" lon="7.14254">
        <ele>620</ele>
        <time>2019-05-15T12:41:48.082Z</time>
      </trkpt>
      <trkpt lat="48.45723" lon="7.14255">
        <ele>620</ele>
        <time>2019-05-15T12:41:49.082Z</time>
      </trkpt>
      <trkpt lat="48.45723" lon="7.14257">
        <ele>620</ele>
        <time>2019-05-15T12:41:50.082Z</time>
      </trkpt>
      <trkpt lat="48.45723" lon="7.14258">
        <ele>621</ele>
        <time>2019-05-15T12:41:51.082Z</time>
      </trkpt>
      <trkpt lat="48.45723" lon="7.14259">
        <ele>620</ele>
        <time>2019-05-15T12:41:52.082Z</time>
      </trkpt>
      <trkpt lat="48.45723" lon="7.1426">
        <ele>620</ele>
        <time>2019-05-15T12:41:53.082Z</time>
      </trkpt>
      <trkpt lat="48.45723" lon="7.14261">
        <ele>621</ele>
        <time>2019-05-15T12:41:54.082Z</time>
      </trkpt>
      <trkpt lat="48.45723" lon="7.14263">
        <ele>622</ele>
        <time>2019-05-15T12:41:55.082Z</time>
      </trkpt>
      <trkpt lat="48.45723" lon="7.14265">
        <ele>622</ele>
        <time>2019-05-15T12:41:56.082Z</time>
      </trkpt>
      <trkpt lat="48.45723" lon="7.14266">
        <ele>622</ele>
        <time>2019-05-15T12:41:57.082Z</time>
      </trkpt>
      <trkpt lat="48.45723" lon="7.14268">
        <ele>624</ele>
        <time>2019-05-15T12:41:58.082Z</time>
      </trkpt>
      <trkpt lat="48.45723" lon="7.14269">
        <ele>624</ele>
        <time>2019-05-15T12:41:59.082Z</time>
      </trkpt>
      <trkpt lat="48.45723" lon="7.14271">
        <ele>624</ele>
        <time>2019-05-15T12:42:00.082Z</time>
      </trkpt>
      <trkpt lat="48.45723" lon="7.14272">
        <ele>624</ele>
        <time>2019-05-15T12:42:01.082Z</time>
      </trkpt>
      <trkpt lat="48.45724" lon="7.14274">
        <ele>624</ele>
        <time>2019-05-15T12:42:02.082Z</time>
      </trkpt>
      <trkpt lat="48.45724" lon="7.14275">
        <ele>624</ele>
        <time>2019-05-15T12:42:03.082Z</time>
      </trkpt>
      <trkpt lat="48.45724" lon="7.14277">
        <ele>625</ele>
        <time>2019-05-15T12:42:04.082Z</time>
      </trkpt>
      <trkpt lat="48.45724" lon="7.14278">
        <ele>626</ele>
        <time>2019-05-15T12:42:05.082Z</time>
      </trkpt>
      <trkpt lat="48.45724" lon="7.14279">
        <ele>626</ele>
        <time>2019-05-15T12:42:06.082Z</time>
      </trkpt>
      <trkpt lat="48.45723" lon="7.1428">
        <ele>625</ele>
        <time>2019-05-15T12:42:07.082Z</time>
      </trkpt>
      <trkpt lat="48.45723" lon="7.14282">
        <ele>625</ele>
        <time>2019-05-15T12:42:08.082Z</time>
      </trkpt>
      <trkpt lat="48.45722" lon="7.14283">
        <ele>624</ele>
        <time>2019-05-15T12:42:09.082Z</time>
      </trkpt>
      <trkpt lat="48.45722" lon="7.14285">
        <ele>623</ele>
        <time>2019-05-15T12:42:10.082Z</time>
      </trkpt>
      <trkpt lat="48.45721" lon="7.14286">
        <ele>622</ele>
        <time>2019-05-15T12:42:11.082Z</time>
      </trkpt>
      <trkpt lat="48.45721" lon="7.14288">
        <ele>622</ele>
        <time>2019-05-15T12:42:12.082Z</time>
      </trkpt>
      <trkpt lat="48.4572" lon="7.14289">
        <ele>621</ele>
        <time>2019-05-15T12:42:13.082Z</time>
      </trkpt>
      <trkpt lat="48.45719" lon="7.1429">
        <ele>620</ele>
        <time>2019-05-15T12:42:14.082Z</time>
      </trkpt>
      <trkpt lat="48.45718" lon="7.14291">
        <ele>620</ele>
        <time>2019-05-15T12:42:15.082Z</time>
      </trkpt>
      <trkpt lat="48.45717" lon="7.14292">
        <ele>619</ele>
        <time>2019-05-15T12:42:16.082Z</time>
      </trkpt>
      <trkpt lat="48.45717" lon="7.14293">
        <ele>618</ele>
        <time>2019-05-15T12:42:17.082Z</time>
      </trkpt>
      <trkpt lat="48.45716" lon="7.14295">
        <ele>617</ele>
        <time>2019-05-15T12:42:18.082Z</time>
      </trkpt>
      <trkpt lat="48.45715" lon="7.14296">
        <ele>617</ele>
        <time>2019-05-15T12:42:19.082Z</time>
      </trkpt>
      <trkpt lat="48.45714" lon="7.14297">
        <ele>615</ele>
        <time>2019-05-15T12:42:20.082Z</time>
      </trkpt>
      <trkpt lat="48.45713" lon="7.14297">
        <ele>615</ele>
        <time>2019-05-15T12:42:21.082Z</time>
      </trkpt>
      <trkpt lat="48.45711" lon="7.14298">
        <ele>615</ele>
        <time>2019-05-15T12:42:22.082Z</time>
      </trkpt>
      <trkpt lat="48.45711" lon="7.14298">
        <ele>614</ele>
        <time>2019-05-15T12:42:23.082Z</time>
      </trkpt>
      <trkpt lat="48.45711" lon="7.14298">
        <ele>614</ele>
        <time>2019-05-15T12:42:24.082Z</time>
      </trkpt>
      <trkpt lat="48.45711" lon="7.14298">
        <ele>614</ele>
        <time>2019-05-15T12:42:25.082Z</time>
      </trkpt>
      <trkpt lat="48.45711" lon="7.14298">
        <ele>615</ele>
        <time>2019-05-15T12:42:26.082Z</time>
      </trkpt>
      <trkpt lat="48.45711" lon="7.14298">
        <ele>615</ele>
        <time>2019-05-15T12:42:27.082Z</time>
      </trkpt>
      <trkpt lat="48.45711" lon="7.14298">
        <ele>616</ele>
        <time>2019-05-15T12:42:28.082Z</time>
      </trkpt>
      <trkpt lat="48.45711" lon="7.14298">
        <ele>616</ele>
        <time>2019-05-15T12:42:29.082Z</time>
      </trkpt>
      <trkpt lat="48.45711" lon="7.14298">
        <ele>616</ele>
        <time>2019-05-15T12:42:30.082Z</time>
      </trkpt>
      <trkpt lat="48.4571" lon="7.14299">
        <ele>617</ele>
        <time>2019-05-15T12:42:31.082Z</time>
      </trkpt>
      <trkpt lat="48.4571" lon="7.143">
        <ele>619</ele>
        <time>2019-05-15T12:42:32.082Z</time>
      </trkpt>
      <trkpt lat="48.4571" lon="7.14302">
        <ele>619</ele>
        <time>2019-05-15T12:42:33.082Z</time>
      </trkpt>
      <trkpt lat="48.4571" lon="7.14303">
        <ele>619</ele>
        <time>2019-05-15T12:42:34.082Z</time>
      </trkpt>
      <trkpt lat="48.4571" lon="7.14305">
        <ele>619</ele>
        <time>2019-05-15T12:42:35.082Z</time>
      </trkpt>
      <trkpt lat="48.4571" lon="7.14307">
        <ele>620</ele>
        <time>2019-05-15T12:42:36.082Z</time>
      </trkpt>
      <trkpt lat="48.4571" lon="7.14308">
        <ele>620</ele>
        <time>2019-05-15T12:42:37.082Z</time>
      </trkpt>
      <trkpt lat="48.45709" lon="7.1431">
        <ele>620</ele>
        <time>2019-05-15T12:42:38.082Z</time>
      </trkpt>
      <trkpt lat="48.45709" lon="7.14311">
        <ele>620</ele>
        <time>2019-05-15T12:42:39.082Z</time>
      </trkpt>
      <trkpt lat="48.45709" lon="7.14313">
        <ele>620</ele>
        <time>2019-05-15T12:42:40.082Z</time>
      </trkpt>
      <trkpt lat="48.45709" lon="7.14314">
        <ele>620</ele>
        <time>2019-05-15T12:42:41.082Z</time>
      </trkpt>
      <trkpt lat="48.45708" lon="7.14316">
        <ele>621</ele>
        <time>2019-05-15T12:42:42.082Z</time>
      </trkpt>
      <trkpt lat="48.45708" lon="7.14318">
        <ele>622</ele>
        <time>2019-05-15T12:42:43.082Z</time>
      </trkpt>
      <trkpt lat="48.45708" lon="7.14319">
        <ele>622</ele>
        <time>2019-05-15T12:42:44.082Z</time>
      </trkpt>
      <trkpt lat="48.45708" lon="7.14321">
        <ele>622</ele>
        <time>2019-05-15T12:42:45.082Z</time>
      </trkpt>
      <trkpt lat="48.45708" lon="7.14322">
        <ele>623</ele>
        <time>2019-05-15T12:42:46.082Z</time>
      </trkpt>
      <trkpt lat="48.45707" lon="7.14324">
        <ele>623</ele>
        <time>2019-05-15T12:42:47.082Z</time>
      </trkpt>
      <trkpt lat="48.45707" lon="7.14325">
        <ele>622</ele>
        <time>2019-05-15T12:42:48.082Z</time>
      </trkpt>
      <trkpt lat="48.45707" lon="7.14326">
        <ele>622</ele>
        <time>2019-05-15T12:42:49.082Z</time>
      </trkpt>
      <trkpt lat="48.45706" lon="7.14327">
        <ele>622</ele>
        <time>2019-05-15T12:42:50.082Z</time>
      </trkpt>
      <trkpt lat="48.45706" lon="7.14329">
        <ele>623</ele>
        <time>2019-05-15T12:42:51.082Z</time>
      </trkpt>
      <trkpt lat="48.45706" lon="7.1433">
        <ele>623</ele>
        <time>2019-05-15T12:42:52.082Z</time>
      </trkpt>
      <trkpt lat="48.45706" lon="7.14332">
        <ele>623</ele>
        <time>2019-05-15T12:42:53.082Z</time>
      </trkpt>
      <trkpt lat="48.45705" lon="7.14333">
        <ele>623</ele>
        <time>2019-05-15T12:42:54.082Z</time>
      </trkpt>
      <trkpt lat="48.45705" lon="7.14335">
        <ele>623</ele>
        <time>2019-05-15T12:42:55.082Z</time>
      </trkpt>
      <trkpt lat="48.45705" lon="7.14337">
        <ele>623</ele>
        <time>2019-05-15T12:42:56.082Z</time>
      </trkpt>
      <trkpt lat="48.45705" lon="7.14338">
        <ele>622</ele>
        <time>2019-05-15T12:42:57.082Z</time>
      </trkpt>
      <trkpt lat="48.45705" lon="7.1434">
        <ele>622</ele>
        <time>2019-05-15T12:42:58.082Z</time>
      </trkpt>
      <trkpt lat="48.45704" lon="7.14341">
        <ele>622</ele>
        <time>2019-05-15T12:42:59.082Z</time>
      </trkpt>
      <trkpt lat="48.45704" lon="7.14342">
        <ele>623</ele>
        <time>2019-05-15T12:43:00.082Z</time>
      </trkpt>
      <trkpt lat="48.45703" lon="7.14344">
        <ele>623</ele>
        <time>2019-05-15T12:43:01.082Z</time>
      </trkpt>
      <trkpt lat="48.45703" lon="7.14345">
        <ele>623</ele>
        <time>2019-05-15T12:43:02.082Z</time>
      </trkpt>
      <trkpt lat="48.45703" lon="7.14346">
        <ele>624</ele>
        <time>2019-05-15T12:43:03.082Z</time>
      </trkpt>
      <trkpt lat="48.45703" lon="7.14347">
        <ele>624</ele>
        <time>2019-05-15T12:43:04.082Z</time>
      </trkpt>
      <trkpt lat="48.45703" lon="7.14348">
        <ele>624</ele>
        <time>2019-05-15T12:43:05.082Z</time>
      </trkpt>
      <trkpt lat="48.45702" lon="7.1435">
        <ele>624</ele>
        <time>2019-05-15T12:43:06.082Z</time>
      </trkpt>
      <trkpt lat="48.45703" lon="7.14351">
        <ele>624</ele>
        <time>2019-05-15T12:43:07.082Z</time>
      </trkpt>
      <trkpt lat="48.45703" lon="7.14352">
        <ele>625</ele>
        <time>2019-05-15T12:43:08.082Z</time>
      </trkpt>
      <trkpt lat="48.45702" lon="7.14353">
        <ele>624</ele>
        <time>2019-05-15T12:43:09.082Z</time>
      </trkpt>
      <trkpt lat="48.45702" lon="7.14354">
        <ele>624</ele>
        <time>2019-05-15T12:43:10.082Z</time>
      </trkpt>
      <trkpt lat="48.45701" lon="7.14355">
        <ele>624</ele>
        <time>2019-05-15T12:43:11.082Z</time>
      </trkpt>
      <trkpt lat="48.457" lon="7.14357">
        <ele>623</ele>
        <time>2019-05-15T12:43:12.082Z</time>
      </trkpt>
      <trkpt lat="48.45699" lon="7.14358">
        <ele>623</ele>
        <time>2019-05-15T12:43:13.082Z</time>
      </trkpt>
      <trkpt lat="48.45698" lon="7.1436">
        <ele>623</ele>
        <time>2019-05-15T12:43:14.082Z</time>
      </trkpt>
      <trkpt lat="48.45698" lon="7.14362">
        <ele>625</ele>
        <time>2019-05-15T12:43:15.082Z</time>
      </trkpt>
      <trkpt lat="48.45698" lon="7.14364">
        <ele>625</ele>
        <time>2019-05-15T12:43:16.082Z</time>
      </trkpt>
      <trkpt lat="48.45698" lon="7.14366">
        <ele>626</ele>
        <time>2019-05-15T12:43:17.082Z</time>
      </trkpt>
      <trkpt lat="48.45697" lon="7.14369">
        <ele>626</ele>
        <time>2019-05-15T12:43:18.082Z</time>
      </trkpt>
      <trkpt lat="48.45697" lon="7.14371">
        <ele>626</ele>
        <time>2019-05-15T12:43:19.082Z</time>
      </trkpt>
      <trkpt lat="48.45697" lon="7.14373">
        <ele>625</ele>
        <time>2019-05-15T12:43:20.082Z</time>
      </trkpt>
      <trkpt lat="48.45696" lon="7.14374">
        <ele>624</ele>
        <time>2019-05-15T12:43:21.082Z</time>
      </trkpt>
      <trkpt lat="48.45696" lon="7.14376">
        <ele>625</ele>
        <time>2019-05-15T12:43:22.082Z</time>
      </trkpt>
      <trkpt lat="48.45695" lon="7.14378">
        <ele>624</ele>
        <time>2019-05-15T12:43:23.082Z</time>
      </trkpt>
      <trkpt lat="48.45695" lon="7.1438">
        <ele>624</ele>
        <time>2019-05-15T12:43:24.082Z</time>
      </trkpt>
      <trkpt lat="48.45694" lon="7.14381">
        <ele>624</ele>
        <time>2019-05-15T12:43:25.082Z</time>
      </trkpt>
      <trkpt lat="48.45694" lon="7.14383">
        <ele>623</ele>
        <time>2019-05-15T12:43:26.082Z</time>
      </trkpt>
      <trkpt lat="48.45694" lon="7.14384">
        <ele>624</ele>
        <time>2019-05-15T12:43:27.082Z</time>
      </trkpt>
      <trkpt lat="48.45693" lon="7.14386">
        <ele>624</ele>
        <time>2019-05-15T12:43:28.082Z</time>
      </trkpt>
      <trkpt lat="48.45693" lon="7.14387">
        <ele>624</ele>
        <time>2019-05-15T12:43:29.082Z</time>
      </trkpt>
      <trkpt lat="48.45693" lon="7.14389">
        <ele>624</ele>
        <time>2019-05-15T12:43:30.082Z</time>
      </trkpt>
      <trkpt lat="48.45692" lon="7.1439">
        <ele>624</ele>
        <time>2019-05-15T12:43:31.082Z</time>
      </trkpt>
      <trkpt lat="48.45692" lon="7.14391">
        <ele>623</ele>
        <time>2019-05-15T12:43:32.082Z</time>
      </trkpt>
      <trkpt lat="48.45691" lon="7.14392">
        <ele>624</ele>
        <time>2019-05-15T12:43:33.082Z</time>
      </trkpt>
      <trkpt lat="48.45691" lon="7.14394">
        <ele>624</ele>
        <time>2019-05-15T12:43:34.082Z</time>
      </trkpt>
      <trkpt lat="48.45691" lon="7.14395">
        <ele>624</ele>
        <time>2019-05-15T12:43:35.082Z</time>
      </trkpt>
      <trkpt lat="48.45691" lon="7.14397">
        <ele>625</ele>
        <time>2019-05-15T12:43:36.082Z</time>
      </trkpt>
      <trkpt lat="48.4569" lon="7.14398">
        <ele>625</ele>
        <time>2019-05-15T12:43:37.082Z</time>
      </trkpt>
      <trkpt lat="48.4569" lon="7.144">
        <ele>625</ele>
        <time>2019-05-15T12:43:38.082Z</time>
      </trkpt>
      <trkpt lat="48.4569" lon="7.14401">
        <ele>626</ele>
        <time>2019-05-15T12:43:39.082Z</time>
      </trkpt>
      <trkpt lat="48.45689" lon="7.14403">
        <ele>627</ele>
        <time>2019-05-15T12:43:40.082Z</time>
      </trkpt>
      <trkpt lat="48.45689" lon="7.14404">
        <ele>627</ele>
        <time>2019-05-15T12:43:41.082Z</time>
      </trkpt>
      <trkpt lat="48.45689" lon="7.14405">
        <ele>627</ele>
        <time>2019-05-15T12:43:42.082Z</time>
      </trkpt>
      <trkpt lat="48.45689" lon="7.14406">
        <ele>627</ele>
        <time>2019-05-15T12:43:43.082Z</time>
      </trkpt>
      <trkpt lat="48.45689" lon="7.14407">
        <ele>628</ele>
        <time>2019-05-15T12:43:44.082Z</time>
      </trkpt>
      <trkpt lat="48.45688" lon="7.14408">
        <ele>629</ele>
        <time>2019-05-15T12:43:45.082Z</time>
      </trkpt>
      <trkpt lat="48.45688" lon="7.14409">
        <ele>629</ele>
        <time>2019-05-15T12:43:46.082Z</time>
      </trkpt>
      <trkpt lat="48.45688" lon="7.14411">
        <ele>629</ele>
        <time>2019-05-15T12:43:47.082Z</time>
      </trkpt>
      <trkpt lat="48.45687" lon="7.14412">
        <ele>629</ele>
        <time>2019-05-15T12:43:48.082Z</time>
      </trkpt>
      <trkpt lat="48.45687" lon="7.14414">
        <ele>630</ele>
        <time>2019-05-15T12:43:49.082Z</time>
      </trkpt>
      <trkpt lat="48.45687" lon="7.14415">
        <ele>630</ele>
        <time>2019-05-15T12:43:50.082Z</time>
      </trkpt>
      <trkpt lat="48.45686" lon="7.14417">
        <ele>629</ele>
        <time>2019-05-15T12:43:51.082Z</time>
      </trkpt>
      <trkpt lat="48.45686" lon="7.14418">
        <ele>629</ele>
        <time>2019-05-15T12:43:52.082Z</time>
      </trkpt>
      <trkpt lat="48.45685" lon="7.14419">
        <ele>628</ele>
        <time>2019-05-15T12:43:53.082Z</time>
      </trkpt>
      <trkpt lat="48.45685" lon="7.14421">
        <ele>628</ele>
        <time>2019-05-15T12:43:54.082Z</time>
      </trkpt>
      <trkpt lat="48.45684" lon="7.14422">
        <ele>627</ele>
        <time>2019-05-15T12:43:55.082Z</time>
      </trkpt>
      <trkpt lat="48.45683" lon="7.14424">
        <ele>627</ele>
        <time>2019-05-15T12:43:56.082Z</time>
      </trkpt>
      <trkpt lat="48.45683" lon="7.14425">
        <ele>627</ele>
        <time>2019-05-15T12:43:57.082Z</time>
      </trkpt>
      <trkpt lat="48.45682" lon="7.14427">
        <ele>628</ele>
        <time>2019-05-15T12:43:58.082Z</time>
      </trkpt>
      <trkpt lat="48.45682" lon="7.14428">
        <ele>628</ele>
        <time>2019-05-15T12:43:59.082Z</time>
      </trkpt>
      <trkpt lat="48.45682" lon="7.1443">
        <ele>628</ele>
        <time>2019-05-15T12:44:00.082Z</time>
      </trkpt>
      <trkpt lat="48.45681" lon="7.14431">
        <ele>628</ele>
        <time>2019-05-15T12:44:01.082Z</time>
      </trkpt>
      <trkpt lat="48.45681" lon="7.14432">
        <ele>628</ele>
        <time>2019-05-15T12:44:02.082Z</time>
      </trkpt>
      <trkpt lat="48.45681" lon="7.14434">
        <ele>628</ele>
        <time>2019-05-15T12:44:03.082Z</time>
      </trkpt>
      <trkpt lat="48.4568" lon="7.14435">
        <ele>628</ele>
        <time>2019-05-15T12:44:04.082Z</time>
      </trkpt>
      <trkpt lat="48.4568" lon="7.14437">
        <ele>629</ele>
        <time>2019-05-15T12:44:05.082Z</time>
      </trkpt>
      <trkpt lat="48.4568" lon="7.14438">
        <ele>628</ele>
        <time>2019-05-15T12:44:06.082Z</time>
      </trkpt>
      <trkpt lat="48.4568" lon="7.1444">
        <ele>628</ele>
        <time>2019-05-15T12:44:07.082Z</time>
      </trkpt>
      <trkpt lat="48.4568" lon="7.14441">
        <ele>628</ele>
        <time>2019-05-15T12:44:08.082Z</time>
      </trkpt>
      <trkpt lat="48.4568" lon="7.14443">
        <ele>628</ele>
        <time>2019-05-15T12:44:09.082Z</time>
      </trkpt>
      <trkpt lat="48.45679" lon="7.14444">
        <ele>629</ele>
        <time>2019-05-15T12:44:10.082Z</time>
      </trkpt>
      <trkpt lat="48.45679" lon="7.14446">
        <ele>628</ele>
        <time>2019-05-15T12:44:11.082Z</time>
      </trkpt>
      <trkpt lat="48.45679" lon="7.14447">
        <ele>629</ele>
        <time>2019-05-15T12:44:12.082Z</time>
      </trkpt>
      <trkpt lat="48.45679" lon="7.14449">
        <ele>629</ele>
        <time>2019-05-15T12:44:13.082Z</time>
      </trkpt>
      <trkpt lat="48.45679" lon="7.1445">
        <ele>630</ele>
        <time>2019-05-15T12:44:14.082Z</time>
      </trkpt>
      <trkpt lat="48.45679" lon="7.14451">
        <ele>629</ele>
        <time>2019-05-15T12:44:15.082Z</time>
      </trkpt>
      <trkpt lat="48.45679" lon="7.14452">
        <ele>630</ele>
        <time>2019-05-15T12:44:16.082Z</time>
      </trkpt>
      <trkpt lat="48.45679" lon="7.14454">
        <ele>629</ele>
        <time>2019-05-15T12:44:17.082Z</time>
      </trkpt>
      <trkpt lat="48.45678" lon="7.14455">
        <ele>629</ele>
        <time>2019-05-15T12:44:18.082Z</time>
      </trkpt>
      <trkpt lat="48.45678" lon="7.14457">
        <ele>629</ele>
        <time>2019-05-15T12:44:19.082Z</time>
      </trkpt>
      <trkpt lat="48.45677" lon="7.14458">
        <ele>630</ele>
        <time>2019-05-15T12:44:20.082Z</time>
      </trkpt>
      <trkpt lat="48.45677" lon="7.14459">
        <ele>630</ele>
        <time>2019-05-15T12:44:21.082Z</time>
      </trkpt>
      <trkpt lat="48.45676" lon="7.1446">
        <ele>630</ele>
        <time>2019-05-15T12:44:22.082Z</time>
      </trkpt>
      <trkpt lat="48.45676" lon="7.14462">
        <ele>631</ele>
        <time>2019-05-15T12:44:23.082Z</time>
      </trkpt>
      <trkpt lat="48.45676" lon="7.14463">
        <ele>631</ele>
        <time>2019-05-15T12:44:24.082Z</time>
      </trkpt>
      <trkpt lat="48.45676" lon="7.14464">
        <ele>631</ele>
        <time>2019-05-15T12:44:25.082Z</time>
      </trkpt>
      <trkpt lat="48.45676" lon="7.14465">
        <ele>631</ele>
        <time>2019-05-15T12:44:26.082Z</time>
      </trkpt>
      <trkpt lat="48.45675" lon="7.14466">
        <ele>631</ele>
        <time>2019-05-15T12:44:27.082Z</time>
      </trkpt>
      <trkpt lat="48.45675" lon="7.14468">
        <ele>631</ele>
        <time>2019-05-15T12:44:28.082Z</time>
      </trkpt>
      <trkpt lat="48.45674" lon="7.14469">
        <ele>630</ele>
        <time>2019-05-15T12:44:29.082Z</time>
      </trkpt>
      <trkpt lat="48.45674" lon="7.14471">
        <ele>630</ele>
        <time>2019-05-15T12:44:30.082Z</time>
      </trkpt>
      <trkpt lat="48.45673" lon="7.14473">
        <ele>630</ele>
        <time>2019-05-15T12:44:31.082Z</time>
      </trkpt>
      <trkpt lat="48.45672" lon="7.14474">
        <ele>630</ele>
        <time>2019-05-15T12:44:32.082Z</time>
      </trkpt>
      <trkpt lat="48.45672" lon="7.14476">
        <ele>630</ele>
        <time>2019-05-15T12:44:33.082Z</time>
      </trkpt>
      <trkpt lat="48.45671" lon="7.14477">
        <ele>630</ele>
        <time>2019-05-15T12:44:34.082Z</time>
      </trkpt>
      <trkpt lat="48.4567" lon="7.14478">
        <ele>628</ele>
        <time>2019-05-15T12:44:35.082Z</time>
      </trkpt>
      <trkpt lat="48.45669" lon="7.1448">
        <ele>628</ele>
        <time>2019-05-15T12:44:36.082Z</time>
      </trkpt>
      <trkpt lat="48.45669" lon="7.14481">
        <ele>627</ele>
        <time>2019-05-15T12:44:37.082Z</time>
      </trkpt>
      <trkpt lat="48.45668" lon="7.14482">
        <ele>627</ele>
        <time>2019-05-15T12:44:38.082Z</time>
      </trkpt>
      <trkpt lat="48.45667" lon="7.14483">
        <ele>626</ele>
        <time>2019-05-15T12:44:39.082Z</time>
      </trkpt>
      <trkpt lat="48.45667" lon="7.14485">
        <ele>627</ele>
        <time>2019-05-15T12:44:40.082Z</time>
      </trkpt>
      <trkpt lat="48.45666" lon="7.14486">
        <ele>626</ele>
        <time>2019-05-15T12:44:41.082Z</time>
      </trkpt>
      <trkpt lat="48.45666" lon="7.14488">
        <ele>626</ele>
        <time>2019-05-15T12:44:42.082Z</time>
      </trkpt>
      <trkpt lat="48.45665" lon="7.14489">
        <ele>627</ele>
        <time>2019-05-15T12:44:43.082Z</time>
      </trkpt>
      <trkpt lat="48.45665" lon="7.1449">
        <ele>626</ele>
        <time>2019-05-15T12:44:44.082Z</time>
      </trkpt>
      <trkpt lat="48.45664" lon="7.14491">
        <ele>626</ele>
        <time>2019-05-15T12:44:45.082Z</time>
      </trkpt>
      <trkpt lat="48.45664" lon="7.14492">
        <ele>626</ele>
        <time>2019-05-15T12:44:46.082Z</time>
      </trkpt>
      <trkpt lat="48.45663" lon="7.14493">
        <ele>626</ele>
        <time>2019-05-15T12:44:47.082Z</time>
      </trkpt>
      <trkpt lat="48.45663" lon="7.14494">
        <ele>626</ele>
        <time>2019-05-15T12:44:48.082Z</time>
      </trkpt>
      <trkpt lat="48.45663" lon="7.14495">
        <ele>627</ele>
        <time>2019-05-15T12:44:49.082Z</time>
      </trkpt>
      <trkpt lat="48.45662" lon="7.14496">
        <ele>627</ele>
        <time>2019-05-15T12:44:50.082Z</time>
      </trkpt>
      <trkpt lat="48.45662" lon="7.14498">
        <ele>628</ele>
        <time>2019-05-15T12:44:51.082Z</time>
      </trkpt>
      <trkpt lat="48.45662" lon="7.14499">
        <ele>629</ele>
        <time>2019-05-15T12:44:52.082Z</time>
      </trkpt>
      <trkpt lat="48.45662" lon="7.14501">
        <ele>629</ele>
        <time>2019-05-15T12:44:53.082Z</time>
      </trkpt>
      <trkpt lat="48.45662" lon="7.14502">
        <ele>629</ele>
        <time>2019-05-15T12:44:54.082Z</time>
      </trkpt>
      <trkpt lat="48.45662" lon="7.14503">
        <ele>629</ele>
        <time>2019-05-15T12:44:55.082Z</time>
      </trkpt>
      <trkpt lat="48.45661" lon="7.14504">
        <ele>630</ele>
        <time>2019-05-15T12:44:56.082Z</time>
      </trkpt>
      <trkpt lat="48.45661" lon="7.14505">
        <ele>630</ele>
        <time>2019-05-15T12:44:57.082Z</time>
      </trkpt>
      <trkpt lat="48.45661" lon="7.14506">
        <ele>630</ele>
        <time>2019-05-15T12:44:58.082Z</time>
      </trkpt>
      <trkpt lat="48.4566" lon="7.14508">
        <ele>631</ele>
        <time>2019-05-15T12:44:59.082Z</time>
      </trkpt>
      <trkpt lat="48.4566" lon="7.14509">
        <ele>631</ele>
        <time>2019-05-15T12:45:00.082Z</time>
      </trkpt>
      <trkpt lat="48.4566" lon="7.1451">
        <ele>631</ele>
        <time>2019-05-15T12:45:01.082Z</time>
      </trkpt>
      <trkpt lat="48.45659" lon="7.14512">
        <ele>633</ele>
        <time>2019-05-15T12:45:02.082Z</time>
      </trkpt>
      <trkpt lat="48.45659" lon="7.14513">
        <ele>633</ele>
        <time>2019-05-15T12:45:03.082Z</time>
      </trkpt>
      <trkpt lat="48.45659" lon="7.14515">
        <ele>634</ele>
        <time>2019-05-15T12:45:04.082Z</time>
      </trkpt>
      <trkpt lat="48.45659" lon="7.14516">
        <ele>634</ele>
        <time>2019-05-15T12:45:05.082Z</time>
      </trkpt>
      <trkpt lat="48.45658" lon="7.14517">
        <ele>634</ele>
        <time>2019-05-15T12:45:06.082Z</time>
      </trkpt>
      <trkpt lat="48.45658" lon="7.14519">
        <ele>634</ele>
        <time>2019-05-15T12:45:07.082Z</time>
      </trkpt>
      <trkpt lat="48.45657" lon="7.1452">
        <ele>634</ele>
        <time>2019-05-15T12:45:08.082Z</time>
      </trkpt>
      <trkpt lat="48.45657" lon="7.14521">
        <ele>633</ele>
        <time>2019-05-15T12:45:09.082Z</time>
      </trkpt>
      <trkpt lat="48.45656" lon="7.14523">
        <ele>636</ele>
        <time>2019-05-15T12:45:10.082Z</time>
      </trkpt>
      <trkpt lat="48.45656" lon="7.14525">
        <ele>636</ele>
        <time>2019-05-15T12:45:11.082Z</time>
      </trkpt>
      <trkpt lat="48.45656" lon="7.14527">
        <ele>637</ele>
        <time>2019-05-15T12:45:12.082Z</time>
      </trkpt>
      <trkpt lat="48.45656" lon="7.14528">
        <ele>638</ele>
        <time>2019-05-15T12:45:13.082Z</time>
      </trkpt>
      <trkpt lat="48.45656" lon="7.1453">
        <ele>638</ele>
        <time>2019-05-15T12:45:14.082Z</time>
      </trkpt>
      <trkpt lat="48.45656" lon="7.14532">
        <ele>641</ele>
        <time>2019-05-15T12:45:15.082Z</time>
      </trkpt>
      <trkpt lat="48.45656" lon="7.14534">
        <ele>640</ele>
        <time>2019-05-15T12:45:16.082Z</time>
      </trkpt>
      <trkpt lat="48.45655" lon="7.14536">
        <ele>640</ele>
        <time>2019-05-15T12:45:17.082Z</time>
      </trkpt>
      <trkpt lat="48.45655" lon="7.14537">
        <ele>638</ele>
        <time>2019-05-15T12:45:18.082Z</time>
      </trkpt>
      <trkpt lat="48.45654" lon="7.14539">
        <ele>637</ele>
        <time>2019-05-15T12:45:19.082Z</time>
      </trkpt>
      <trkpt lat="48.45653" lon="7.1454">
        <ele>637</ele>
        <time>2019-05-15T12:45:20.082Z</time>
      </trkpt>
      <trkpt lat="48.45653" lon="7.14541">
        <ele>637</ele>
        <time>2019-05-15T12:45:21.082Z</time>
      </trkpt>
      <trkpt lat="48.45652" lon="7.14543">
        <ele>636</ele>
        <time>2019-05-15T12:45:22.082Z</time>
      </trkpt>
      <trkpt lat="48.45652" lon="7.14544">
        <ele>635</ele>
        <time>2019-05-15T12:45:23.082Z</time>
      </trkpt>
      <trkpt lat="48.45652" lon="7.14546">
        <ele>635</ele>
        <time>2019-05-15T12:45:24.082Z</time>
      </trkpt>
      <trkpt lat="48.45651" lon="7.14547">
        <ele>634</ele>
        <time>2019-05-15T12:45:25.082Z</time>
      </trkpt>
      <trkpt lat="48.45651" lon="7.14549">
        <ele>634</ele>
        <time>2019-05-15T12:45:26.082Z</time>
      </trkpt>
      <trkpt lat="48.45651" lon="7.14551">
        <ele>635</ele>
        <time>2019-05-15T12:45:27.082Z</time>
      </trkpt>
      <trkpt lat="48.45651" lon="7.14553">
        <ele>635</ele>
        <time>2019-05-15T12:45:28.082Z</time>
      </trkpt>
      <trkpt lat="48.4565" lon="7.14555">
        <ele>635</ele>
        <time>2019-05-15T12:45:29.082Z</time>
      </trkpt>
      <trkpt lat="48.4565" lon="7.14557">
        <ele>634</ele>
        <time>2019-05-15T12:45:30.082Z</time>
      </trkpt>
      <trkpt lat="48.45649" lon="7.14558">
        <ele>635</ele>
        <time>2019-05-15T12:45:31.082Z</time>
      </trkpt>
      <trkpt lat="48.45649" lon="7.1456">
        <ele>635</ele>
        <time>2019-05-15T12:45:32.082Z</time>
      </trkpt>
      <trkpt lat="48.45648" lon="7.14561">
        <ele>635</ele>
        <time>2019-05-15T12:45:33.082Z</time>
      </trkpt>
      <trkpt lat="48.45648" lon="7.14562">
        <ele>635</ele>
        <time>2019-05-15T12:45:34.082Z</time>
      </trkpt>
      <trkpt lat="48.45647" lon="7.14563">
        <ele>635</ele>
        <time>2019-05-15T12:45:35.082Z</time>
      </trkpt>
      <trkpt lat="48.45647" lon="7.14565">
        <ele>635</ele>
        <time>2019-05-15T12:45:36.082Z</time>
      </trkpt>
      <trkpt lat="48.45647" lon="7.14566">
        <ele>635</ele>
        <time>2019-05-15T12:45:37.082Z</time>
      </trkpt>
      <trkpt lat="48.45646" lon="7.14567">
        <ele>635</ele>
        <time>2019-05-15T12:45:38.082Z</time>
      </trkpt>
      <trkpt lat="48.45646" lon="7.14568">
        <ele>635</ele>
        <time>2019-05-15T12:45:39.082Z</time>
      </trkpt>
      <trkpt lat="48.45646" lon="7.14569">
        <ele>635</ele>
        <time>2019-05-15T12:45:40.082Z</time>
      </trkpt>
      <trkpt lat="48.45645" lon="7.14571">
        <ele>635</ele>
        <time>2019-05-15T12:45:41.082Z</time>
      </trkpt>
      <trkpt lat="48.45645" lon="7.14572">
        <ele>635</ele>
        <time>2019-05-15T12:45:42.082Z</time>
      </trkpt>
      <trkpt lat="48.45645" lon="7.14573">
        <ele>635</ele>
        <time>2019-05-15T12:45:43.082Z</time>
      </trkpt>
      <trkpt lat="48.45644" lon="7.14575">
        <ele>634</ele>
        <time>2019-05-15T12:45:44.082Z</time>
      </trkpt>
      <trkpt lat="48.45644" lon="7.14576">
        <ele>634</ele>
        <time>2019-05-15T12:45:45.082Z</time>
      </trkpt>
      <trkpt lat="48.45643" lon="7.14578">
        <ele>635</ele>
        <time>2019-05-15T12:45:46.082Z</time>
      </trkpt>
      <trkpt lat="48.45643" lon="7.14579">
        <ele>633</ele>
        <time>2019-05-15T12:45:47.082Z</time>
      </trkpt>
      <trkpt lat="48.45642" lon="7.1458">
        <ele>634</ele>
        <time>2019-05-15T12:45:48.082Z</time>
      </trkpt>
      <trkpt lat="48.45642" lon="7.14582">
        <ele>635</ele>
        <time>2019-05-15T12:45:49.082Z</time>
      </trkpt>
      <trkpt lat="48.45641" lon="7.14583">
        <ele>634</ele>
        <time>2019-05-15T12:45:50.082Z</time>
      </trkpt>
      <trkpt lat="48.45641" lon="7.14584">
        <ele>634</ele>
        <time>2019-05-15T12:45:51.082Z</time>
      </trkpt>
      <trkpt lat="48.45641" lon="7.14586">
        <ele>634</ele>
        <time>2019-05-15T12:45:52.082Z</time>
      </trkpt>
      <trkpt lat="48.4564" lon="7.14587">
        <ele>634</ele>
        <time>2019-05-15T12:45:53.082Z</time>
      </trkpt>
      <trkpt lat="48.4564" lon="7.14588">
        <ele>634</ele>
        <time>2019-05-15T12:45:54.082Z</time>
      </trkpt>
      <trkpt lat="48.4564" lon="7.1459">
        <ele>635</ele>
        <time>2019-05-15T12:45:55.082Z</time>
      </trkpt>
      <trkpt lat="48.45639" lon="7.14591">
        <ele>635</ele>
        <time>2019-05-15T12:45:56.082Z</time>
      </trkpt>
      <trkpt lat="48.45639" lon="7.14592">
        <ele>636</ele>
        <time>2019-05-15T12:45:57.082Z</time>
      </trkpt>
      <trkpt lat="48.45638" lon="7.14593">
        <ele>637</ele>
        <time>2019-05-15T12:45:58.082Z</time>
      </trkpt>
      <trkpt lat="48.45638" lon="7.14595">
        <ele>637</ele>
        <time>2019-05-15T12:45:59.082Z</time>
      </trkpt>
      <trkpt lat="48.45638" lon="7.14596">
        <ele>638</ele>
        <time>2019-05-15T12:46:00.082Z</time>
      </trkpt>
      <trkpt lat="48.45637" lon="7.14597">
        <ele>637</ele>
        <time>2019-05-15T12:46:01.082Z</time>
      </trkpt>
      <trkpt lat="48.45637" lon="7.14599">
        <ele>637</ele>
        <time>2019-05-15T12:46:02.082Z</time>
      </trkpt>
      <trkpt lat="48.45637" lon="7.146">
        <ele>637</ele>
        <time>2019-05-15T12:46:03.082Z</time>
      </trkpt>
      <trkpt lat="48.45636" lon="7.14602">
        <ele>637</ele>
        <time>2019-05-15T12:46:04.082Z</time>
      </trkpt>
      <trkpt lat="48.45636" lon="7.14603">
        <ele>637</ele>
        <time>2019-05-15T12:46:05.082Z</time>
      </trkpt>
      <trkpt lat="48.45635" lon="7.14605">
        <ele>636</ele>
        <time>2019-05-15T12:46:06.082Z</time>
      </trkpt>
      <trkpt lat="48.45635" lon="7.14606">
        <ele>636</ele>
        <time>2019-05-15T12:46:07.082Z</time>
      </trkpt>
      <trkpt lat="48.45635" lon="7.14607">
        <ele>636</ele>
        <time>2019-05-15T12:46:08.082Z</time>
      </trkpt>
      <trkpt lat="48.45635" lon="7.14608">
        <ele>636</ele>
        <time>2019-05-15T12:46:09.082Z</time>
      </trkpt>
      <trkpt lat="48.45634" lon="7.1461">
        <ele>637</ele>
        <time>2019-05-15T12:46:10.082Z</time>
      </trkpt>
      <trkpt lat="48.45634" lon="7.14611">
        <ele>637</ele>
        <time>2019-05-15T12:46:11.082Z</time>
      </trkpt>
      <trkpt lat="48.45633" lon="7.14612">
        <ele>638</ele>
        <time>2019-05-15T12:46:12.082Z</time>
      </trkpt>
      <trkpt lat="48.45633" lon="7.14614">
        <ele>638</ele>
        <time>2019-05-15T12:46:13.082Z</time>
      </trkpt>
      <trkpt lat="48.45633" lon="7.14615">
        <ele>639</ele>
        <time>2019-05-15T12:46:14.082Z</time>
      </trkpt>
      <trkpt lat="48.45633" lon="7.14616">
        <ele>639</ele>
        <time>2019-05-15T12:46:15.082Z</time>
      </trkpt>
      <trkpt lat="48.45632" lon="7.14618">
        <ele>639</ele>
        <time>2019-05-15T12:46:16.082Z</time>
      </trkpt>
      <trkpt lat="48.45632" lon="7.1462">
        <ele>638</ele>
        <time>2019-05-15T12:46:17.082Z</time>
      </trkpt>
      <trkpt lat="48.45631" lon="7.14621">
        <ele>639</ele>
        <time>2019-05-15T12:46:18.082Z</time>
      </trkpt>
      <trkpt lat="48.45631" lon="7.14623">
        <ele>640</ele>
        <time>2019-05-15T12:46:19.082Z</time>
      </trkpt>
      <trkpt lat="48.4563" lon="7.14624">
        <ele>640</ele>
        <time>2019-05-15T12:46:20.082Z</time>
      </trkpt>
      <trkpt lat="48.4563" lon="7.14626">
        <ele>640</ele>
        <time>2019-05-15T12:46:21.082Z</time>
      </trkpt>
      <trkpt lat="48.4563" lon="7.14627">
        <ele>640</ele>
        <time>2019-05-15T12:46:22.082Z</time>
      </trkpt>
      <trkpt lat="48.4563" lon="7.14628">
        <ele>641</ele>
        <time>2019-05-15T12:46:23.082Z</time>
      </trkpt>
      <trkpt lat="48.45629" lon="7.14629">
        <ele>641</ele>
        <time>2019-05-15T12:46:24.082Z</time>
      </trkpt>
      <trkpt lat="48.45629" lon="7.1463">
        <ele>641</ele>
        <time>2019-05-15T12:46:25.082Z</time>
      </trkpt>
      <trkpt lat="48.45629" lon="7.14632">
        <ele>639</ele>
        <time>2019-05-15T12:46:26.082Z</time>
      </trkpt>
      <trkpt lat="48.45629" lon="7.14633">
        <ele>640</ele>
        <time>2019-05-15T12:46:27.082Z</time>
      </trkpt>
      <trkpt lat="48.45628" lon="7.14634">
        <ele>639</ele>
        <time>2019-05-15T12:46:28.082Z</time>
      </trkpt>
      <trkpt lat="48.45627" lon="7.14635">
        <ele>639</ele>
        <time>2019-05-15T12:46:29.082Z</time>
      </trkpt>
      <trkpt lat="48.45626" lon="7.14637">
        <ele>638</ele>
        <time>2019-05-15T12:46:30.082Z</time>
      </trkpt>
      <trkpt lat="48.45626" lon="7.14638">
        <ele>639</ele>
        <time>2019-05-15T12:46:31.082Z</time>
      </trkpt>
      <trkpt lat="48.45626" lon="7.1464">
        <ele>639</ele>
        <time>2019-05-15T12:46:32.082Z</time>
      </trkpt>
      <trkpt lat="48.45626" lon="7.14641">
        <ele>639</ele>
        <time>2019-05-15T12:46:33.082Z</time>
      </trkpt>
      <trkpt lat="48.45626" lon="7.14643">
        <ele>641</ele>
        <time>2019-05-15T12:46:34.082Z</time>
      </trkpt>
      <trkpt lat="48.45626" lon="7.14645">
        <ele>641</ele>
        <time>2019-05-15T12:46:35.082Z</time>
      </trkpt>
      <trkpt lat="48.45625" lon="7.14647">
        <ele>640</ele>
        <time>2019-05-15T12:46:36.082Z</time>
      </trkpt>
      <trkpt lat="48.45625" lon="7.14649">
        <ele>641</ele>
        <time>2019-05-15T12:46:37.082Z</time>
      </trkpt>
      <trkpt lat="48.45625" lon="7.1465">
        <ele>643</ele>
        <time>2019-05-15T12:46:38.082Z</time>
      </trkpt>
      <trkpt lat="48.45625" lon="7.14652">
        <ele>641</ele>
        <time>2019-05-15T12:46:39.082Z</time>
      </trkpt>
      <trkpt lat="48.45625" lon="7.14653">
        <ele>640</ele>
        <time>2019-05-15T12:46:40.082Z</time>
      </trkpt>
      <trkpt lat="48.45625" lon="7.14655">
        <ele>640</ele>
        <time>2019-05-15T12:46:41.082Z</time>
      </trkpt>
      <trkpt lat="48.45624" lon="7.14656">
        <ele>639</ele>
        <time>2019-05-15T12:46:42.082Z</time>
      </trkpt>
      <trkpt lat="48.45624" lon="7.14657">
        <ele>639</ele>
        <time>2019-05-15T12:46:43.082Z</time>
      </trkpt>
      <trkpt lat="48.45624" lon="7.14659">
        <ele>639</ele>
        <time>2019-05-15T12:46:44.082Z</time>
      </trkpt>
      <trkpt lat="48.45624" lon="7.1466">
        <ele>639</ele>
        <time>2019-05-15T12:46:45.082Z</time>
      </trkpt>
      <trkpt lat="48.45624" lon="7.14661">
        <ele>638</ele>
        <time>2019-05-15T12:46:46.082Z</time>
      </trkpt>
      <trkpt lat="48.45623" lon="7.14662">
        <ele>638</ele>
        <time>2019-05-15T12:46:47.082Z</time>
      </trkpt>
      <trkpt lat="48.45623" lon="7.14664">
        <ele>638</ele>
        <time>2019-05-15T12:46:48.082Z</time>
      </trkpt>
      <trkpt lat="48.45622" lon="7.14665">
        <ele>638</ele>
        <time>2019-05-15T12:46:49.082Z</time>
      </trkpt>
      <trkpt lat="48.45622" lon="7.14667">
        <ele>638</ele>
        <time>2019-05-15T12:46:50.082Z</time>
      </trkpt>
      <trkpt lat="48.45621" lon="7.14668">
        <ele>639</ele>
        <time>2019-05-15T12:46:51.082Z</time>
      </trkpt>
      <trkpt lat="48.45621" lon="7.1467">
        <ele>639</ele>
        <time>2019-05-15T12:46:52.082Z</time>
      </trkpt>
      <trkpt lat="48.4562" lon="7.14671">
        <ele>639</ele>
        <time>2019-05-15T12:46:53.082Z</time>
      </trkpt>
      <trkpt lat="48.4562" lon="7.14672">
        <ele>638</ele>
        <time>2019-05-15T12:46:54.082Z</time>
      </trkpt>
      <trkpt lat="48.45619" lon="7.14674">
        <ele>638</ele>
        <time>2019-05-15T12:46:55.082Z</time>
      </trkpt>
      <trkpt lat="48.45619" lon="7.14675">
        <ele>638</ele>
        <time>2019-05-15T12:46:56.082Z</time>
      </trkpt>
      <trkpt lat="48.45618" lon="7.14676">
        <ele>637</ele>
        <time>2019-05-15T12:46:57.082Z</time>
      </trkpt>
      <trkpt lat="48.45618" lon="7.14678">
        <ele>638</ele>
        <time>2019-05-15T12:46:58.082Z</time>
      </trkpt>
      <trkpt lat="48.45618" lon="7.14679">
        <ele>637</ele>
        <time>2019-05-15T12:46:59.082Z</time>
      </trkpt>
      <trkpt lat="48.45618" lon="7.1468">
        <ele>637</ele>
        <time>2019-05-15T12:47:00.082Z</time>
      </trkpt>
      <trkpt lat="48.45618" lon="7.14681">
        <ele>637</ele>
        <time>2019-05-15T12:47:01.082Z</time>
      </trkpt>
      <trkpt lat="48.45619" lon="7.14683">
        <ele>637</ele>
        <time>2019-05-15T12:47:02.082Z</time>
      </trkpt>
      <trkpt lat="48.45619" lon="7.14684">
        <ele>637</ele>
        <time>2019-05-15T12:47:03.082Z</time>
      </trkpt>
      <trkpt lat="48.45619" lon="7.14684">
        <ele>636</ele>
        <time>2019-05-15T12:47:04.082Z</time>
      </trkpt>
      <trkpt lat="48.4562" lon="7.14685">
        <ele>636</ele>
        <time>2019-05-15T12:47:05.082Z</time>
      </trkpt>
      <trkpt lat="48.4562" lon="7.14686">
        <ele>636</ele>
        <time>2019-05-15T12:47:06.082Z</time>
      </trkpt>
      <trkpt lat="48.4562" lon="7.14687">
        <ele>635</ele>
        <time>2019-05-15T12:47:07.082Z</time>
      </trkpt>
      <trkpt lat="48.4562" lon="7.14688">
        <ele>635</ele>
        <time>2019-05-15T12:47:08.082Z</time>
      </trkpt>
      <trkpt lat="48.4562" lon="7.14689">
        <ele>635</ele>
        <time>2019-05-15T12:47:09.082Z</time>
      </trkpt>
      <trkpt lat="48.45621" lon="7.1469">
        <ele>636</ele>
        <time>2019-05-15T12:47:10.082Z</time>
      </trkpt>
      <trkpt lat="48.45621" lon="7.14691">
        <ele>636</ele>
        <time>2019-05-15T12:47:11.082Z</time>
      </trkpt>
      <trkpt lat="48.45622" lon="7.14692">
        <ele>636</ele>
        <time>2019-05-15T12:47:12.082Z</time>
      </trkpt>
      <trkpt lat="48.45622" lon="7.14694">
        <ele>636</ele>
        <time>2019-05-15T12:47:13.082Z</time>
      </trkpt>
      <trkpt lat="48.45622" lon="7.14695">
        <ele>636</ele>
        <time>2019-05-15T12:47:14.082Z</time>
      </trkpt>
      <trkpt lat="48.45622" lon="7.14696">
        <ele>636</ele>
        <time>2019-05-15T12:47:15.082Z</time>
      </trkpt>
      <trkpt lat="48.45622" lon="7.14697">
        <ele>636</ele>
        <time>2019-05-15T12:47:16.082Z</time>
      </trkpt>
      <trkpt lat="48.45622" lon="7.14698">
        <ele>636</ele>
        <time>2019-05-15T12:47:17.082Z</time>
      </trkpt>
      <trkpt lat="48.45621" lon="7.14699">
        <ele>636</ele>
        <time>2019-05-15T12:47:18.082Z</time>
      </trkpt>
      <trkpt lat="48.45621" lon="7.14701">
        <ele>636</ele>
        <time>2019-05-15T12:47:19.082Z</time>
      </trkpt>
      <trkpt lat="48.45621" lon="7.14702">
        <ele>634</ele>
        <time>2019-05-15T12:47:20.082Z</time>
      </trkpt>
      <trkpt lat="48.45621" lon="7.14703">
        <ele>633</ele>
        <time>2019-05-15T12:47:21.082Z</time>
      </trkpt>
      <trkpt lat="48.45621" lon="7.14704">
        <ele>633</ele>
        <time>2019-05-15T12:47:22.082Z</time>
      </trkpt>
      <trkpt lat="48.45622" lon="7.14706">
        <ele>632</ele>
        <time>2019-05-15T12:47:23.082Z</time>
      </trkpt>
      <trkpt lat="48.45622" lon="7.14707">
        <ele>632</ele>
        <time>2019-05-15T12:47:24.082Z</time>
      </trkpt>
      <trkpt lat="48.45622" lon="7.14709">
        <ele>631</ele>
        <time>2019-05-15T12:47:25.082Z</time>
      </trkpt>
      <trkpt lat="48.45622" lon="7.1471">
        <ele>631</ele>
        <time>2019-05-15T12:47:26.082Z</time>
      </trkpt>
      <trkpt lat="48.45622" lon="7.14711">
        <ele>632</ele>
        <time>2019-05-15T12:47:27.082Z</time>
      </trkpt>
      <trkpt lat="48.45621" lon="7.14713">
        <ele>632</ele>
        <time>2019-05-15T12:47:28.082Z</time>
      </trkpt>
      <trkpt lat="48.45621" lon="7.14714">
        <ele>632</ele>
        <time>2019-05-15T12:47:29.082Z</time>
      </trkpt>
      <trkpt lat="48.45621" lon="7.14715">
        <ele>632</ele>
        <time>2019-05-15T12:47:30.082Z</time>
      </trkpt>
      <trkpt lat="48.4562" lon="7.14716">
        <ele>632</ele>
        <time>2019-05-15T12:47:31.082Z</time>
      </trkpt>
      <trkpt lat="48.4562" lon="7.14717">
        <ele>632</ele>
        <time>2019-05-15T12:47:32.082Z</time>
      </trkpt>
      <trkpt lat="48.45619" lon="7.14718">
        <ele>632</ele>
        <time>2019-05-15T12:47:33.082Z</time>
      </trkpt>
      <trkpt lat="48.45619" lon="7.14718">
        <ele>631</ele>
        <time>2019-05-15T12:47:34.082Z</time>
      </trkpt>
      <trkpt lat="48.45618" lon="7.14719">
        <ele>632</ele>
        <time>2019-05-15T12:47:35.082Z</time>
      </trkpt>
      <trkpt lat="48.45618" lon="7.1472">
        <ele>632</ele>
        <time>2019-05-15T12:47:36.082Z</time>
      </trkpt>
      <trkpt lat="48.45617" lon="7.14721">
        <ele>632</ele>
        <time>2019-05-15T12:47:37.082Z</time>
      </trkpt>
      <trkpt lat="48.45616" lon="7.14721">
        <ele>632</ele>
        <time>2019-05-15T12:47:38.082Z</time>
      </trkpt>
      <trkpt lat="48.45616" lon="7.14722">
        <ele>632</ele>
        <time>2019-05-15T12:47:39.082Z</time>
      </trkpt>
      <trkpt lat="48.45615" lon="7.14723">
        <ele>632</ele>
        <time>2019-05-15T12:47:40.082Z</time>
      </trkpt>
      <trkpt lat="48.45614" lon="7.14724">
        <ele>633</ele>
        <time>2019-05-15T12:47:41.082Z</time>
      </trkpt>
      <trkpt lat="48.45613" lon="7.14725">
        <ele>633</ele>
        <time>2019-05-15T12:47:42.082Z</time>
      </trkpt>
      <trkpt lat="48.45613" lon="7.14726">
        <ele>633</ele>
        <time>2019-05-15T12:47:43.082Z</time>
      </trkpt>
      <trkpt lat="48.45612" lon="7.14727">
        <ele>633</ele>
        <time>2019-05-15T12:47:44.082Z</time>
      </trkpt>
      <trkpt lat="48.45612" lon="7.14728">
        <ele>634</ele>
        <time>2019-05-15T12:47:45.082Z</time>
      </trkpt>
      <trkpt lat="48.45611" lon="7.14729">
        <ele>634</ele>
        <time>2019-05-15T12:47:46.082Z</time>
      </trkpt>
      <trkpt lat="48.4561" lon="7.14731">
        <ele>633</ele>
        <time>2019-05-15T12:47:47.082Z</time>
      </trkpt>
      <trkpt lat="48.45609" lon="7.14732">
        <ele>633</ele>
        <time>2019-05-15T12:47:48.082Z</time>
      </trkpt>
      <trkpt lat="48.45608" lon="7.14732">
        <ele>633</ele>
        <time>2019-05-15T12:47:49.082Z</time>
      </trkpt>
      <trkpt lat="48.45607" lon="7.14733">
        <ele>633</ele>
        <time>2019-05-15T12:47:50.082Z</time>
      </trkpt>
      <trkpt lat="48.45606" lon="7.14734">
        <ele>633</ele>
        <time>2019-05-15T12:47:51.082Z</time>
      </trkpt>
      <trkpt lat="48.45606" lon="7.14735">
        <ele>633</ele>
        <time>2019-05-15T12:47:52.082Z</time>
      </trkpt>
      <trkpt lat="48.45605" lon="7.14736">
        <ele>633</ele>
        <time>2019-05-15T12:47:53.082Z</time>
      </trkpt>
      <trkpt lat="48.45605" lon="7.14737">
        <ele>633</ele>
        <time>2019-05-15T12:47:54.082Z</time>
      </trkpt>
      <trkpt lat="48.45604" lon="7.14738">
        <ele>632</ele>
        <time>2019-05-15T12:47:55.082Z</time>
      </trkpt>
      <trkpt lat="48.45604" lon="7.14739">
        <ele>632</ele>
        <time>2019-05-15T12:47:56.082Z</time>
      </trkpt>
      <trkpt lat="48.45603" lon="7.1474">
        <ele>632</ele>
        <time>2019-05-15T12:47:57.082Z</time>
      </trkpt>
      <trkpt lat="48.45602" lon="7.14742">
        <ele>632</ele>
        <time>2019-05-15T12:47:58.082Z</time>
      </trkpt>
      <trkpt lat="48.45601" lon="7.14743">
        <ele>631</ele>
        <time>2019-05-15T12:47:59.082Z</time>
      </trkpt>
      <trkpt lat="48.456" lon="7.14744">
        <ele>631</ele>
        <time>2019-05-15T12:48:00.082Z</time>
      </trkpt>
      <trkpt lat="48.45599" lon="7.14744">
        <ele>631</ele>
        <time>2019-05-15T12:48:01.082Z</time>
      </trkpt>
      <trkpt lat="48.45598" lon="7.14745">
        <ele>631</ele>
        <time>2019-05-15T12:48:02.082Z</time>
      </trkpt>
      <trkpt lat="48.45597" lon="7.14746">
        <ele>631</ele>
        <time>2019-05-15T12:48:03.082Z</time>
      </trkpt>
      <trkpt lat="48.45597" lon="7.14747">
        <ele>631</ele>
        <time>2019-05-15T12:48:04.082Z</time>
      </trkpt>
      <trkpt lat="48.45596" lon="7.14748">
        <ele>632</ele>
        <time>2019-05-15T12:48:05.082Z</time>
      </trkpt>
      <trkpt lat="48.45595" lon="7.14749">
        <ele>631</ele>
        <time>2019-05-15T12:48:06.082Z</time>
      </trkpt>
      <trkpt lat="48.45595" lon="7.1475">
        <ele>631</ele>
        <time>2019-05-15T12:48:07.082Z</time>
      </trkpt>
      <trkpt lat="48.45594" lon="7.1475">
        <ele>631</ele>
        <time>2019-05-15T12:48:08.082Z</time>
      </trkpt>
      <trkpt lat="48.45593" lon="7.14751">
        <ele>632</ele>
        <time>2019-05-15T12:48:09.082Z</time>
      </trkpt>
      <trkpt lat="48.45593" lon="7.14752">
        <ele>632</ele>
        <time>2019-05-15T12:48:10.082Z</time>
      </trkpt>
      <trkpt lat="48.45592" lon="7.14754">
        <ele>633</ele>
        <time>2019-05-15T12:48:11.082Z</time>
      </trkpt>
      <trkpt lat="48.45591" lon="7.14755">
        <ele>633</ele>
        <time>2019-05-15T12:48:12.082Z</time>
      </trkpt>
      <trkpt lat="48.45591" lon="7.14756">
        <ele>633</ele>
        <time>2019-05-15T12:48:13.082Z</time>
      </trkpt>
      <trkpt lat="48.4559" lon="7.14757">
        <ele>633</ele>
        <time>2019-05-15T12:48:14.082Z</time>
      </trkpt>
      <trkpt lat="48.4559" lon="7.14757">
        <ele>633</ele>
        <time>2019-05-15T12:48:15.082Z</time>
      </trkpt>
      <trkpt lat="48.45589" lon="7.14758">
        <ele>634</ele>
        <time>2019-05-15T12:48:16.082Z</time>
      </trkpt>
      <trkpt lat="48.45588" lon="7.14759">
        <ele>633</ele>
        <time>2019-05-15T12:48:17.082Z</time>
      </trkpt>
      <trkpt lat="48.45588" lon="7.1476">
        <ele>633</ele>
        <time>2019-05-15T12:48:18.082Z</time>
      </trkpt>
      <trkpt lat="48.45587" lon="7.1476">
        <ele>634</ele>
        <time>2019-05-15T12:48:19.082Z</time>
      </trkpt>
      <trkpt lat="48.45587" lon="7.14761">
        <ele>634</ele>
        <time>2019-05-15T12:48:20.082Z</time>
      </trkpt>
      <trkpt lat="48.45586" lon="7.14762">
        <ele>634</ele>
        <time>2019-05-15T12:48:21.082Z</time>
      </trkpt>
      <trkpt lat="48.45586" lon="7.14763">
        <ele>634</ele>
        <time>2019-05-15T12:48:22.082Z</time>
      </trkpt>
      <trkpt lat="48.45585" lon="7.14764">
        <ele>634</ele>
        <time>2019-05-15T12:48:23.082Z</time>
      </trkpt>
      <trkpt lat="48.45585" lon="7.14765">
        <ele>635</ele>
        <time>2019-05-15T12:48:24.082Z</time>
      </trkpt>
      <trkpt lat="48.45584" lon="7.14766">
        <ele>635</ele>
        <time>2019-05-15T12:48:25.082Z</time>
      </trkpt>
      <trkpt lat="48.45584" lon="7.14766">
        <ele>635</ele>
        <time>2019-05-15T12:48:26.082Z</time>
      </trkpt>
      <trkpt lat="48.45583" lon="7.14767">
        <ele>635</ele>
        <time>2019-05-15T12:48:27.082Z</time>
      </trkpt>
      <trkpt lat="48.45583" lon="7.14768">
        <ele>635</ele>
        <time>2019-05-15T12:48:28.082Z</time>
      </trkpt>
      <trkpt lat="48.45582" lon="7.14769">
        <ele>635</ele>
        <time>2019-05-15T12:48:29.082Z</time>
      </trkpt>
      <trkpt lat="48.45582" lon="7.1477">
        <ele>635</ele>
        <time>2019-05-15T12:48:30.082Z</time>
      </trkpt>
      <trkpt lat="48.45581" lon="7.14771">
        <ele>635</ele>
        <time>2019-05-15T12:48:31.082Z</time>
      </trkpt>
      <trkpt lat="48.4558" lon="7.14772">
        <ele>635</ele>
        <time>2019-05-15T12:48:32.082Z</time>
      </trkpt>
      <trkpt lat="48.4558" lon="7.14773">
        <ele>636</ele>
        <time>2019-05-15T12:48:33.082Z</time>
      </trkpt>
      <trkpt lat="48.45579" lon="7.14774">
        <ele>636</ele>
        <time>2019-05-15T12:48:34.082Z</time>
      </trkpt>
      <trkpt lat="48.45579" lon="7.14775">
        <ele>636</ele>
        <time>2019-05-15T12:48:35.082Z</time>
      </trkpt>
      <trkpt lat="48.45578" lon="7.14776">
        <ele>636</ele>
        <time>2019-05-15T12:48:36.082Z</time>
      </trkpt>
      <trkpt lat="48.45578" lon="7.14778">
        <ele>636</ele>
        <time>2019-05-15T12:48:37.082Z</time>
      </trkpt>
      <trkpt lat="48.45577" lon="7.14779">
        <ele>637</ele>
        <time>2019-05-15T12:48:38.082Z</time>
      </trkpt>
      <trkpt lat="48.45576" lon="7.1478">
        <ele>637</ele>
        <time>2019-05-15T12:48:39.082Z</time>
      </trkpt>
      <trkpt lat="48.45575" lon="7.14781">
        <ele>637</ele>
        <time>2019-05-15T12:48:40.082Z</time>
      </trkpt>
      <trkpt lat="48.45574" lon="7.14782">
        <ele>638</ele>
        <time>2019-05-15T12:48:41.082Z</time>
      </trkpt>
      <trkpt lat="48.45574" lon="7.14783">
        <ele>638</ele>
        <time>2019-05-15T12:48:42.082Z</time>
      </trkpt>
      <trkpt lat="48.45573" lon="7.14784">
        <ele>637</ele>
        <time>2019-05-15T12:48:43.082Z</time>
      </trkpt>
      <trkpt lat="48.45572" lon="7.14785">
        <ele>638</ele>
        <time>2019-05-15T12:48:44.082Z</time>
      </trkpt>
      <trkpt lat="48.45571" lon="7.14786">
        <ele>638</ele>
        <time>2019-05-15T12:48:45.082Z</time>
      </trkpt>
      <trkpt lat="48.45571" lon="7.14787">
        <ele>637</ele>
        <time>2019-05-15T12:48:46.082Z</time>
      </trkpt>
      <trkpt lat="48.4557" lon="7.14788">
        <ele>638</ele>
        <time>2019-05-15T12:48:47.082Z</time>
      </trkpt>
      <trkpt lat="48.45569" lon="7.14789">
        <ele>638</ele>
        <time>2019-05-15T12:48:48.082Z</time>
      </trkpt>
      <trkpt lat="48.45568" lon="7.1479">
        <ele>639</ele>
        <time>2019-05-15T12:48:49.082Z</time>
      </trkpt>
      <trkpt lat="48.45567" lon="7.14791">
        <ele>639</ele>
        <time>2019-05-15T12:48:50.082Z</time>
      </trkpt>
      <trkpt lat="48.45566" lon="7.14792">
        <ele>640</ele>
        <time>2019-05-15T12:48:51.082Z</time>
      </trkpt>
      <trkpt lat="48.45566" lon="7.14793">
        <ele>639</ele>
        <time>2019-05-15T12:48:52.082Z</time>
      </trkpt>
      <trkpt lat="48.45565" lon="7.14794">
        <ele>638</ele>
        <time>2019-05-15T12:48:53.082Z</time>
      </trkpt>
      <trkpt lat="48.45564" lon="7.14795">
        <ele>638</ele>
        <time>2019-05-15T12:48:54.082Z</time>
      </trkpt>
      <trkpt lat="48.45563" lon="7.14796">
        <ele>638</ele>
        <time>2019-05-15T12:48:55.082Z</time>
      </trkpt>
      <trkpt lat="48.45562" lon="7.14797">
        <ele>639</ele>
        <time>2019-05-15T12:48:56.082Z</time>
      </trkpt>
      <trkpt lat="48.45561" lon="7.14798">
        <ele>640</ele>
        <time>2019-05-15T12:48:57.082Z</time>
      </trkpt>
      <trkpt lat="48.4556" lon="7.14799">
        <ele>640</ele>
        <time>2019-05-15T12:48:58.082Z</time>
      </trkpt>
      <trkpt lat="48.45559" lon="7.148">
        <ele>640</ele>
        <time>2019-05-15T12:48:59.082Z</time>
      </trkpt>
      <trkpt lat="48.45559" lon="7.14801">
        <ele>640</ele>
        <time>2019-05-15T12:49:00.082Z</time>
      </trkpt>
      <trkpt lat="48.45558" lon="7.14802">
        <ele>641</ele>
        <time>2019-05-15T12:49:01.082Z</time>
      </trkpt>
      <trkpt lat="48.45558" lon="7.14803">
        <ele>641</ele>
        <time>2019-05-15T12:49:02.082Z</time>
      </trkpt>
      <trkpt lat="48.45557" lon="7.14804">
        <ele>642</ele>
        <time>2019-05-15T12:49:03.082Z</time>
      </trkpt>
      <trkpt lat="48.45556" lon="7.14805">
        <ele>641</ele>
        <time>2019-05-15T12:49:04.082Z</time>
      </trkpt>
      <trkpt lat="48.45555" lon="7.14806">
        <ele>640</ele>
        <time>2019-05-15T12:49:05.082Z</time>
      </trkpt>
      <trkpt lat="48.45554" lon="7.14807">
        <ele>642</ele>
        <time>2019-05-15T12:49:06.082Z</time>
      </trkpt>
      <trkpt lat="48.45553" lon="7.14808">
        <ele>643</ele>
        <time>2019-05-15T12:49:07.082Z</time>
      </trkpt>
      <trkpt lat="48.45552" lon="7.14809">
        <ele>642</ele>
        <time>2019-05-15T12:49:08.082Z</time>
      </trkpt>
      <trkpt lat="48.45551" lon="7.14809">
        <ele>643</ele>
        <time>2019-05-15T12:49:09.082Z</time>
      </trkpt>
      <trkpt lat="48.45551" lon="7.1481">
        <ele>643</ele>
        <time>2019-05-15T12:49:10.082Z</time>
      </trkpt>
      <trkpt lat="48.4555" lon="7.1481">
        <ele>643</ele>
        <time>2019-05-15T12:49:11.082Z</time>
      </trkpt>
      <trkpt lat="48.45549" lon="7.14811">
        <ele>643</ele>
        <time>2019-05-15T12:49:12.082Z</time>
      </trkpt>
      <trkpt lat="48.45549" lon="7.14811">
        <ele>643</ele>
        <time>2019-05-15T12:49:13.082Z</time>
      </trkpt>
      <trkpt lat="48.45548" lon="7.14811">
        <ele>644</ele>
        <time>2019-05-15T12:49:14.082Z</time>
      </trkpt>
      <trkpt lat="48.45548" lon="7.14811">
        <ele>644</ele>
        <time>2019-05-15T12:49:15.082Z</time>
      </trkpt>
      <trkpt lat="48.45547" lon="7.14812">
        <ele>643</ele>
        <time>2019-05-15T12:49:16.082Z</time>
      </trkpt>
      <trkpt lat="48.45547" lon="7.14813">
        <ele>643</ele>
        <time>2019-05-15T12:49:17.082Z</time>
      </trkpt>
      <trkpt lat="48.45546" lon="7.14813">
        <ele>643</ele>
        <time>2019-05-15T12:49:18.082Z</time>
      </trkpt>
      <trkpt lat="48.45545" lon="7.14814">
        <ele>643</ele>
        <time>2019-05-15T12:49:19.082Z</time>
      </trkpt>
      <trkpt lat="48.45544" lon="7.14815">
        <ele>642</ele>
        <time>2019-05-15T12:49:20.082Z</time>
      </trkpt>
      <trkpt lat="48.45544" lon="7.14816">
        <ele>641</ele>
        <time>2019-05-15T12:49:21.082Z</time>
      </trkpt>
      <trkpt lat="48.45543" lon="7.14816">
        <ele>640</ele>
        <time>2019-05-15T12:49:22.082Z</time>
      </trkpt>
      <trkpt lat="48.45542" lon="7.14817">
        <ele>640</ele>
        <time>2019-05-15T12:49:23.082Z</time>
      </trkpt>
      <trkpt lat="48.45541" lon="7.14817">
        <ele>640</ele>
        <time>2019-05-15T12:49:24.082Z</time>
      </trkpt>
      <trkpt lat="48.45541" lon="7.14818">
        <ele>640</ele>
        <time>2019-05-15T12:49:25.082Z</time>
      </trkpt>
      <trkpt lat="48.4554" lon="7.14819">
        <ele>640</ele>
        <time>2019-05-15T12:49:26.082Z</time>
      </trkpt>
      <trkpt lat="48.45538" lon="7.1482">
        <ele>640</ele>
        <time>2019-05-15T12:49:27.082Z</time>
      </trkpt>
      <trkpt lat="48.45538" lon="7.14821">
        <ele>640</ele>
        <time>2019-05-15T12:49:28.082Z</time>
      </trkpt>
      <trkpt lat="48.45537" lon="7.14821">
        <ele>639</ele>
        <time>2019-05-15T12:49:29.082Z</time>
      </trkpt>
      <trkpt lat="48.45536" lon="7.14822">
        <ele>639</ele>
        <time>2019-05-15T12:49:30.082Z</time>
      </trkpt>
      <trkpt lat="48.45535" lon="7.14822">
        <ele>639</ele>
        <time>2019-05-15T12:49:31.082Z</time>
      </trkpt>
      <trkpt lat="48.45534" lon="7.14823">
        <ele>639</ele>
        <time>2019-05-15T12:49:32.082Z</time>
      </trkpt>
      <trkpt lat="48.45533" lon="7.14824">
        <ele>639</ele>
        <time>2019-05-15T12:49:33.082Z</time>
      </trkpt>
      <trkpt lat="48.45533" lon="7.14824">
        <ele>639</ele>
        <time>2019-05-15T12:49:34.082Z</time>
      </trkpt>
      <trkpt lat="48.45532" lon="7.14825">
        <ele>638</ele>
        <time>2019-05-15T12:49:35.082Z</time>
      </trkpt>
      <trkpt lat="48.45532" lon="7.14826">
        <ele>638</ele>
        <time>2019-05-15T12:49:36.082Z</time>
      </trkpt>
      <trkpt lat="48.45531" lon="7.14826">
        <ele>638</ele>
        <time>2019-05-15T12:49:37.082Z</time>
      </trkpt>
      <trkpt lat="48.45531" lon="7.14827">
        <ele>637</ele>
        <time>2019-05-15T12:49:38.082Z</time>
      </trkpt>
      <trkpt lat="48.45531" lon="7.14828">
        <ele>637</ele>
        <time>2019-05-15T12:49:39.082Z</time>
      </trkpt>
      <trkpt lat="48.45531" lon="7.14829">
        <ele>636</ele>
        <time>2019-05-15T12:49:40.082Z</time>
      </trkpt>
      <trkpt lat="48.45531" lon="7.14831">
        <ele>636</ele>
        <time>2019-05-15T12:49:41.082Z</time>
      </trkpt>
      <trkpt lat="48.45531" lon="7.14832">
        <ele>636</ele>
        <time>2019-05-15T12:49:42.082Z</time>
      </trkpt>
      <trkpt lat="48.45532" lon="7.14833">
        <ele>635</ele>
        <time>2019-05-15T12:49:43.082Z</time>
      </trkpt>
      <trkpt lat="48.45532" lon="7.14834">
        <ele>635</ele>
        <time>2019-05-15T12:49:44.082Z</time>
      </trkpt>
      <trkpt lat="48.45532" lon="7.14836">
        <ele>635</ele>
        <time>2019-05-15T12:49:45.082Z</time>
      </trkpt>
      <trkpt lat="48.45532" lon="7.14837">
        <ele>635</ele>
        <time>2019-05-15T12:49:46.082Z</time>
      </trkpt>
      <trkpt lat="48.45533" lon="7.14838">
        <ele>635</ele>
        <time>2019-05-15T12:49:47.082Z</time>
      </trkpt>
      <trkpt lat="48.45533" lon="7.14839">
        <ele>635</ele>
        <time>2019-05-15T12:49:48.082Z</time>
      </trkpt>
      <trkpt lat="48.45534" lon="7.14839">
        <ele>635</ele>
        <time>2019-05-15T12:49:49.082Z</time>
      </trkpt>
      <trkpt lat="48.45535" lon="7.1484">
        <ele>635</ele>
        <time>2019-05-15T12:49:50.082Z</time>
      </trkpt>
      <trkpt lat="48.45535" lon="7.14841">
        <ele>635</ele>
        <time>2019-05-15T12:49:51.082Z</time>
      </trkpt>
      <trkpt lat="48.45535" lon="7.14842">
        <ele>635</ele>
        <time>2019-05-15T12:49:52.082Z</time>
      </trkpt>
      <trkpt lat="48.45536" lon="7.14843">
        <ele>635</ele>
        <time>2019-05-15T12:49:53.082Z</time>
      </trkpt>
    </trkseg>
  </trk>
</gpx>